Hoppmann, Mario; Tippenhauer, Sandra; Floeter, Jens (2026): Continuous thermosalinograph oceanography along RV HEINCKE cruise track HE660 [dataset]. Alfred Wegener Institute, Helmholtz Centre for Polar and Marine Research, Bremerhaven, PANGAEA, https://doi.pangaea.de/10.1594/PANGAEA.993557 (DOI registration in progress)
Always quote citation above when using data! You can download the citation in several formats below.
Published: 2026-05-05
Abstract:
Raw data acquired by a thermosalinograph (SBE21, Sea-Bird GmbH) in combination with an external temperature sensor (SBE38, Sea-Bird GmbH) aboard RV Heincke were processed to generate a calibrated, quality-controlled dataset of seawater temperature and salinity. The raw sensor data were initially retrieved from the DSHIP database (https://dship.awi.de) at a temporal resolution of 1 second and converted into temperature and conductivity using the pre-deployment calibration coefficients. The thermosalinograph system aboard RV Heincke is typically replaced after each expedition season, with a recalibration conducted at the manufacturer's facilities after each exchange. After post-cruise recalibration of the instruments, additional correction factors were calculated and applied to account for sensor drift. Salinity was calculated from internally measured temperatures and conductivities following the Practical Salinity Scale (PSS-78). The processed dataset is provided as 1-minute averages of salinity and seawater external temperature, synchronized with the positional data from the expedition's master track. Quality flags were assigned in accordance with the SeaDataNet Data Quality Control Procedures (May 2010).
Related to:
Floeter, Jens (2025): MARSYS education cruise in the North Sea, Cruise No. HE660, 03. - 12.05.2025, Bremerhaven (Germany) - Bremerhaven (Germany). HEINCKE-Berichte, Begutachtungspanel Forschungsschiffe, HE660, 18 pp, https://doi.org/10.48433/cr_he660
Floeter, Jens (2025): Master tracks in different resolutions of HEINCKE cruise HE660, Bremerhaven - Bremerhaven, 2025-05-03 - 2025-05-12 [dataset]. Alfred Wegener Institute, Helmholtz Centre for Polar and Marine Research, Bremerhaven, PANGAEA, https://doi.org/10.1594/PANGAEA.982953
Data processing report:
Hoppmann, Mario; Tippenhauer, Sandra (2026): Continuous thermosalinograph oceanography along RV HEINCKE cruise track HE660 - Data Processing Report. FIELAX - Gesellschaft für wissenschaftliche Datenverarbeitung mbH, HE660_TSG_nav.pdf
Project(s):
DAM Underway Research Data (DAM_Underway)
Physical Oceanography @ AWI (AWI_PhyOce)
Coverage:
Median Latitude: 54.607617 * Median Longitude: 7.857665 * South-bound Latitude: 53.811344 * West-bound Longitude: 7.237928 * North-bound Latitude: 55.218164 * East-bound Longitude: 8.331648
Date/Time Start: 2025-05-03T09:01:00 * Date/Time End: 2025-05-12T08:18:00
Minimum DEPTH, water: 2.0 m * Maximum DEPTH, water: 2.0 m
Event(s):
HE660_0_Underway-6 * Latitude Start: 53.858213 * Longitude Start: 8.123691 * Latitude End: 53.918517 * Longitude End: 7.972530 * Date/Time Start: 2025-05-03T08:45:14 * Date/Time End: 2025-05-12T08:23:06 * Elevation Start: -10.0 m * Elevation End: -15.0 m * O2A Registry URI: https://registry.o2a-data.de/items/8558 * Campaign: HE660 (I-MARSYS) * Basis: Heincke * Method/Device: Thermosalinograph (TSG)
Parameter(s):
License:
Creative Commons Attribution 4.0 International (CC-BY-4.0)
Status:
Curation Level: Enhanced curation (CurationLevelC) * Processing Level: PANGAEA data processing level 2 (ProcLevel2)
Size:
56904 data points
Data
| 1 Date/Time | 2 Latitude | 3 Longitude | 4 Depth water [m] | 5 Temp [°C] | 6 QF water temp | 7 Cond [mS/cm] | 8 T intern [°C] | 9 Sal | 10 QF sal |
|---|---|---|---|---|---|---|---|---|---|
| 2025-05-03T09:01:00 | 53.890721 | 8.077011 | 2.0 | 12.266 | 2 | 35.840 | 12.521 | 30.541 | 2 |
| 2025-05-03T09:02:00 | 53.892031 | 8.072977 | 2.0 | 12.159 | 2 | 35.885 | 12.445 | 30.645 | 2 |
| 2025-05-03T09:03:00 | 53.893351 | 8.068892 | 2.0 | 12.086 | 2 | 35.901 | 12.340 | 30.746 | 2 |
| 2025-05-03T09:04:00 | 53.894647 | 8.064832 | 2.0 | 11.987 | 2 | 35.980 | 12.259 | 30.888 | 2 |
| 2025-05-03T09:05:00 | 53.895934 | 8.060805 | 2.0 | 11.902 | 2 | 36.009 | 12.166 | 30.992 | 2 |
| 2025-05-03T09:06:00 | 53.897248 | 8.056751 | 2.0 | 11.743 | 2 | 36.073 | 12.071 | 31.133 | 2 |
| 2025-05-03T09:07:00 | 53.898557 | 8.052766 | 2.0 | 11.680 | 2 | 36.110 | 11.925 | 31.290 | 2 |
| 2025-05-03T09:08:00 | 53.899893 | 8.048817 | 2.0 | 11.708 | 2 | 36.111 | 11.885 | 31.325 | 2 |
| 2025-05-03T09:09:00 | 53.901268 | 8.044923 | 2.0 | 11.669 | 2 | 36.138 | 11.893 | 31.344 | 2 |
| 2025-05-03T09:10:00 | 53.902627 | 8.041092 | 2.0 | 11.631 | 2 | 36.101 | 11.854 | 31.341 | 2 |
| 2025-05-03T09:11:00 | 53.903972 | 8.037290 | 2.0 | 11.569 | 2 | 35.946 | 11.806 | 31.232 | 2 |
| 2025-05-03T09:12:00 | 53.905312 | 8.033502 | 2.0 | 11.570 | 2 | 36.091 | 11.762 | 31.409 | 2 |
| 2025-05-03T09:13:00 | 53.906609 | 8.029830 | 2.0 | 11.536 | 2 | 36.138 | 11.752 | 31.463 | 2 |
| 2025-05-03T09:14:00 | 53.907981 | 8.026238 | 2.0 | 11.477 | 2 | 36.187 | 11.721 | 31.537 | 2 |
| 2025-05-03T09:15:00 | 53.909439 | 8.022655 | 2.0 | 11.398 | 2 | 36.195 | 11.651 | 31.604 | 2 |
| 2025-05-03T09:16:00 | 53.910906 | 8.019075 | 2.0 | 11.358 | 2 | 36.193 | 11.579 | 31.664 | 2 |
| 2025-05-03T09:17:00 | 53.912425 | 8.015455 | 2.0 | 11.330 | 2 | 36.205 | 11.555 | 31.696 | 2 |
| 2025-05-03T09:18:00 | 53.914012 | 8.011883 | 2.0 | 11.295 | 2 | 36.218 | 11.513 | 31.745 | 2 |
| 2025-05-03T09:19:00 | 53.915589 | 8.008359 | 2.0 | 11.204 | 2 | 36.247 | 11.473 | 31.807 | 2 |
| 2025-05-03T09:20:00 | 53.917089 | 8.004890 | 2.0 | 10.832 | 2 | 36.240 | 11.279 | 31.968 | 2 |
| 2025-05-03T09:21:00 | 53.918585 | 8.001358 | 2.0 | 10.788 | 2 | 36.142 | 11.044 | 32.076 | 2 |
| 2025-05-03T09:22:00 | 53.920113 | 7.997743 | 2.0 | 10.740 | 2 | 36.111 | 10.976 | 32.105 | 2 |
| 2025-05-03T09:23:00 | 53.921636 | 7.994163 | 2.0 | 10.663 | 2 | 36.074 | 10.910 | 32.126 | 2 |
| 2025-05-03T09:24:00 | 53.923190 | 7.990721 | 2.0 | 10.638 | 2 | 36.018 | 10.851 | 32.122 | 2 |
| 2025-05-03T09:25:00 | 53.924851 | 7.987327 | 2.0 | 10.648 | 2 | 36.044 | 10.841 | 32.157 | 2 |
| 2025-05-03T09:26:00 | 53.926542 | 7.983947 | 2.0 | 10.559 | 2 | 35.640 | 10.819 | 31.775 | 2 |
| 2025-05-03T09:27:00 | 53.928317 | 7.980607 | 2.0 | 10.482 | 2 | 35.490 | 10.748 | 31.688 | 2 |
| 2025-05-03T09:28:00 | 53.930286 | 7.977557 | 2.0 | 10.433 | 2 | 35.970 | 10.675 | 32.229 | 2 |
| 2025-05-03T09:29:00 | 53.932786 | 7.976150 | 2.0 | 10.363 | 2 | 35.958 | 10.620 | 32.266 | 2 |
| 2025-05-03T09:30:00 | 53.935513 | 7.976271 | 2.0 | 10.337 | 2 | 35.922 | 10.554 | 32.288 | 2 |
| 2025-05-03T09:31:00 | 53.938290 | 7.976681 | 2.0 | 10.284 | 2 | 35.899 | 10.520 | 32.295 | 2 |
| 2025-05-03T09:32:00 | 53.940998 | 7.977388 | 2.0 | 10.161 | 2 | 35.543 | 10.454 | 31.998 | 2 |
| 2025-05-03T09:33:00 | 53.943739 | 7.978063 | 2.0 | 10.154 | 2 | 35.503 | 10.365 | 32.036 | 2 |
| 2025-05-03T09:34:00 | 53.946478 | 7.978727 | 2.0 | 10.147 | 2 | 35.708 | 10.350 | 32.255 | 2 |
| 2025-05-03T09:35:00 | 53.949264 | 7.979420 | 2.0 | 10.120 | 2 | 35.752 | 10.339 | 32.309 | 2 |
| 2025-05-03T09:36:00 | 53.952061 | 7.980137 | 2.0 | 10.101 | 2 | 35.733 | 10.298 | 32.326 | 2 |
| 2025-05-03T09:37:00 | 53.954863 | 7.980841 | 2.0 | 10.047 | 2 | 35.574 | 10.291 | 32.173 | 2 |
| 2025-05-03T09:38:00 | 53.957626 | 7.981491 | 2.0 | 9.928 | 2 | 35.743 | 10.204 | 32.420 | 2 |
| 2025-05-03T09:39:00 | 53.960354 | 7.982176 | 2.0 | 9.713 | 2 | 35.170 | 10.117 | 31.920 | 2 |
| 2025-05-03T09:40:00 | 53.963013 | 7.982595 | 2.0 | 9.505 | 2 | 35.153 | 9.861 | 32.130 | 2 |
| 2025-05-03T09:41:00 | 53.965655 | 7.983216 | 2.0 | 9.469 | 2 | 34.976 | 9.719 | 32.076 | 2 |
| 2025-05-03T09:42:00 | 53.968321 | 7.983188 | 2.0 | 9.452 | 2 | 34.760 | 9.672 | 31.898 | 2 |
| 2025-05-03T09:43:00 | 53.971022 | 7.983101 | 2.0 | 9.432 | 2 | 34.718 | 9.649 | 31.876 | 2 |
| 2025-05-03T09:44:00 | 53.973766 | 7.983182 | 2.0 | 9.395 | 2 | 34.957 | 9.630 | 32.136 | 2 |
| 2025-05-03T09:45:00 | 53.976485 | 7.983188 | 2.0 | 9.375 | 2 | 34.956 | 9.599 | 32.163 | 2 |
| 2025-05-03T09:46:00 | 53.979243 | 7.983136 | 2.0 | 9.311 | 2 | 34.950 | 9.557 | 32.195 | 2 |
| 2025-05-03T09:47:00 | 53.982027 | 7.983160 | 2.0 | 9.240 | 2 | 34.746 | 9.526 | 32.014 | 2 |
| 2025-05-03T09:48:00 | 53.984808 | 7.983213 | 2.0 | 9.193 | 2 | 34.807 | 9.424 | 32.167 | 2 |
| 2025-05-03T09:49:00 | 53.987603 | 7.983399 | 2.0 | 9.249 | 2 | 34.977 | 9.403 | 32.361 | 2 |
| 2025-05-03T09:50:00 | 53.990388 | 7.983662 | 2.0 | 9.440 | 2 | 34.890 | 9.486 | 32.197 | 2 |
| 2025-05-03T09:51:00 | 53.993195 | 7.983894 | 2.0 | 9.689 | 2 | 34.659 | 9.646 | 31.818 | 2 |
| 2025-05-03T09:52:00 | 53.995987 | 7.984307 | 2.0 | 9.892 | 2 | 34.934 | 9.910 | 31.864 | 2 |
| 2025-05-03T09:53:00 | 53.998770 | 7.984969 | 2.0 | 10.048 | 2 | 35.084 | 10.088 | 31.859 | 2 |
| 2025-05-03T09:54:00 | 54.001532 | 7.985796 | 2.0 | 10.241 | 2 | 35.050 | 10.242 | 31.689 | 2 |
| 2025-05-03T09:55:00 | 54.004283 | 7.986730 | 2.0 | 10.321 | 2 | 35.383 | 10.433 | 31.856 | 2 |
| 2025-05-03T09:56:00 | 54.007029 | 7.987794 | 2.0 | 10.462 | 2 | 34.909 | 10.493 | 31.331 | 2 |
| 2025-05-03T09:57:00 | 54.009747 | 7.988952 | 2.0 | 10.322 | 2 | 35.175 | 10.601 | 31.503 | 2 |
| 2025-05-03T09:58:00 | 54.012523 | 7.989618 | 2.0 | 10.317 | 2 | 34.907 | 10.515 | 31.310 | 2 |
| 2025-05-03T09:59:00 | 54.015334 | 7.990141 | 2.0 | 10.532 | 2 | 35.282 | 10.615 | 31.597 | 2 |
| 2025-05-03T10:00:00 | 54.018150 | 7.990635 | 2.0 | 10.300 | 2 | 35.168 | 10.644 | 31.459 | 2 |
| 2025-05-03T10:01:00 | 54.020955 | 7.990990 | 2.0 | 10.921 | 2 | 35.127 | 10.555 | 31.495 | 2 |
| 2025-05-03T10:02:00 | 54.023778 | 7.991452 | 2.0 | 11.128 | 2 | 35.209 | 11.063 | 31.141 | 2 |
| 2025-05-03T10:03:00 | 54.026554 | 7.991882 | 2.0 | 11.083 | 2 | 35.435 | 11.276 | 31.182 | 2 |
| 2025-05-03T10:04:00 | 54.029252 | 7.992250 | 2.0 | 11.217 | 2 | 35.249 | 11.254 | 31.019 | 2 |
| 2025-05-03T10:05:00 | 54.032016 | 7.992650 | 2.0 | 11.327 | 2 | 35.355 | 11.370 | 31.025 | 2 |
| 2025-05-03T10:06:00 | 54.034810 | 7.993249 | 2.0 | 11.353 | 2 | 35.414 | 11.483 | 30.988 | 2 |
| 2025-05-03T10:07:00 | 54.037576 | 7.993810 | 2.0 | 11.324 | 2 | 35.383 | 11.515 | 30.931 | 2 |
| 2025-05-03T10:08:00 | 54.040296 | 7.994971 | 2.0 | 11.337 | 2 | 35.417 | 11.495 | 30.981 | 2 |
| 2025-05-03T10:09:00 | 54.043025 | 7.996200 | 2.0 | 11.381 | 2 | 35.396 | 11.524 | 30.936 | 2 |
| 2025-05-03T10:10:00 | 54.045740 | 7.997443 | 2.0 | 11.400 | 2 | 35.331 | 11.557 | 30.845 | 2 |
| 2025-05-03T10:11:00 | 54.048464 | 7.998706 | 2.0 | 11.434 | 2 | 35.260 | 11.580 | 30.758 | 2 |
| 2025-05-03T10:12:00 | 54.051202 | 7.999910 | 2.0 | 11.443 | 2 | 35.196 | 11.606 | 30.674 | 2 |
| 2025-05-03T10:13:00 | 54.053929 | 8.001146 | 2.0 | 11.394 | 2 | 35.153 | 11.608 | 30.631 | 2 |
| 2025-05-03T10:14:00 | 54.056620 | 8.002398 | 2.0 | 11.326 | 2 | 35.158 | 11.565 | 30.671 | 2 |
| 2025-05-03T10:15:00 | 54.059303 | 8.003601 | 2.0 | 11.254 | 2 | 35.187 | 11.494 | 30.758 | 2 |
| 2025-05-03T10:16:00 | 54.061989 | 8.004821 | 2.0 | 11.172 | 2 | 35.171 | 11.427 | 30.798 | 2 |
| 2025-05-03T10:17:00 | 54.064676 | 8.006089 | 2.0 | 11.113 | 2 | 35.152 | 11.339 | 30.853 | 2 |
| 2025-05-03T10:18:00 | 54.067360 | 8.007305 | 2.0 | 11.152 | 2 | 35.174 | 11.297 | 30.910 | 2 |
| 2025-05-03T10:19:00 | 54.070045 | 8.008451 | 2.0 | 11.173 | 2 | 35.167 | 11.348 | 30.860 | 2 |
| 2025-05-03T10:20:00 | 54.072707 | 8.009716 | 2.0 | 11.153 | 2 | 35.160 | 11.356 | 30.847 | 2 |
| 2025-05-03T10:21:00 | 54.075378 | 8.010990 | 2.0 | 11.436 | 2 | 35.199 | 11.376 | 30.868 | 2 |
| 2025-05-03T10:22:00 | 54.078033 | 8.012232 | 2.0 | 11.530 | 2 | 35.418 | 11.608 | 30.887 | 2 |
| 2025-05-03T10:23:00 | 54.080680 | 8.013435 | 2.0 | 11.537 | 2 | 35.472 | 11.702 | 30.861 | 2 |
| 2025-05-03T10:24:00 | 54.083345 | 8.014633 | 2.0 | 11.470 | 2 | 35.481 | 11.694 | 30.877 | 2 |
| 2025-05-03T10:25:00 | 54.085996 | 8.015919 | 2.0 | 11.439 | 2 | 35.461 | 11.643 | 30.900 | 2 |
| 2025-05-03T10:26:00 | 54.088661 | 8.017149 | 2.0 | 11.433 | 2 | 35.428 | 11.608 | 30.897 | 2 |
| 2025-05-03T10:27:00 | 54.091317 | 8.018381 | 2.0 | 11.540 | 2 | 35.439 | 11.626 | 30.893 | 2 |
| 2025-05-03T10:28:00 | 54.093973 | 8.019571 | 2.0 | 11.625 | 2 | 35.570 | 11.721 | 30.940 | 2 |
| 2025-05-03T10:29:00 | 54.096593 | 8.020783 | 2.0 | 11.691 | 2 | 35.580 | 11.810 | 30.876 | 2 |
| 2025-05-03T10:30:00 | 54.099170 | 8.021974 | 2.0 | 11.717 | 2 | 35.598 | 11.864 | 30.848 | 2 |
| 2025-05-03T10:31:00 | 54.101721 | 8.023199 | 2.0 | 11.704 | 2 | 35.618 | 11.884 | 30.851 | 2 |
| 2025-05-03T10:32:00 | 54.104286 | 8.024141 | 2.0 | 11.678 | 2 | 35.604 | 11.874 | 30.846 | 2 |
| 2025-05-03T10:33:00 | 54.106746 | 8.024910 | 2.0 | 11.621 | 2 | 35.560 | 11.846 | 30.827 | 2 |
| 2025-05-03T10:34:00 | 54.108733 | 8.025455 | 2.0 | 11.567 | 2 | 35.529 | 11.784 | 30.848 | 2 |
| 2025-05-03T10:35:00 | 54.110447 | 8.026113 | 2.0 | 11.641 | 2 | 35.508 | 11.774 | 30.836 | 2 |
| 2025-05-03T10:36:00 | 54.111996 | 8.026481 | 2.0 | 11.631 | 2 | 35.485 | 11.806 | 30.788 | 2 |
| 2025-05-03T10:37:00 | 54.113635 | 8.027066 | 2.0 | 11.624 | 2 | 35.465 | 11.801 | 30.772 | 2 |
| 2025-05-03T10:38:00 | 54.115419 | 8.027650 | 2.0 | 11.634 | 2 | 35.452 | 11.800 | 30.761 | 2 |
| 2025-05-03T10:39:00 | 54.117267 | 8.028251 | 2.0 | 11.644 | 2 | 35.389 | 11.806 | 30.695 | 2 |
| 2025-05-03T10:40:00 | 54.118982 | 8.028860 | 2.0 | 11.675 | 2 | 35.360 | 11.821 | 30.655 | 2 |
| 2025-05-03T10:41:00 | 54.120333 | 8.029776 | 2.0 | 11.701 | 2 | 35.345 | 11.853 | 30.614 | 2 |
| 2025-05-03T10:42:00 | 54.120292 | 8.030992 | 2.0 | 11.594 | 2 | 35.321 | 11.845 | 30.598 | 2 |
| 2025-05-03T10:43:00 | 54.120013 | 8.031221 | 2.0 | 11.649 | 2 | 35.271 | 11.778 | 30.605 | 2 |
| 2025-05-03T10:44:00 | 54.119997 | 8.030684 | 2.0 | 11.577 | 2 | 35.351 | 11.805 | 30.659 | 2 |
| 2025-05-03T10:45:00 | 54.120008 | 8.030200 | 2.0 | 11.611 | 2 | 35.303 | 11.711 | 30.691 | 2 |
| 2025-05-03T10:46:00 | 54.120018 | 8.030148 | 2.0 | 11.717 | 2 | 35.359 | 11.830 | 30.646 | 2 |
| 2025-05-03T10:47:00 | 54.120064 | 8.030191 | 2.0 | 11.719 | 2 | 35.375 | 11.885 | 30.617 | 2 |
| 2025-05-03T10:48:00 | 54.120167 | 8.030264 | 2.0 | 11.737 | 2 | 35.393 | 11.889 | 30.631 | 2 |
| 2025-05-03T10:49:00 | 54.120252 | 8.030194 | 2.0 | 11.747 | 2 | 35.401 | 11.905 | 30.625 | 2 |
| 2025-05-03T10:50:00 | 54.120256 | 8.030075 | 2.0 | 11.720 | 2 | 35.403 | 11.916 | 30.618 | 2 |
| 2025-05-03T10:51:00 | 54.120223 | 8.029940 | 2.0 | 11.717 | 2 | 35.385 | 11.891 | 30.621 | 2 |
| 2025-05-03T10:52:00 | 54.120199 | 8.029815 | 2.0 | 11.742 | 2 | 35.394 | 11.897 | 30.625 | 2 |
| 2025-05-03T10:53:00 | 54.120214 | 8.029760 | 2.0 | 11.741 | 2 | 35.402 | 11.910 | 30.622 | 2 |
| 2025-05-03T10:54:00 | 54.120225 | 8.029776 | 2.0 | 11.702 | 2 | 35.408 | 11.896 | 30.639 | 2 |
| 2025-05-03T10:55:00 | 54.120236 | 8.029845 | 2.0 | 11.713 | 2 | 35.400 | 11.884 | 30.641 | 2 |
| 2025-05-03T10:56:00 | 54.120225 | 8.029951 | 2.0 | 11.705 | 2 | 35.406 | 11.879 | 30.651 | 2 |
| 2025-05-03T10:57:00 | 54.120225 | 8.030017 | 2.0 | 11.708 | 2 | 35.403 | 11.872 | 30.654 | 2 |
| 2025-05-03T10:58:00 | 54.120231 | 8.030048 | 2.0 | 11.709 | 2 | 35.409 | 11.871 | 30.661 | 2 |
| 2025-05-03T10:59:00 | 54.120237 | 8.030067 | 2.0 | 11.725 | 2 | 35.422 | 11.885 | 30.662 | 2 |
| 2025-05-03T11:00:00 | 54.120233 | 8.030074 | 2.0 | 11.704 | 2 | 35.439 | 11.890 | 30.674 | 2 |
| 2025-05-03T11:01:00 | 54.120230 | 8.030066 | 2.0 | 11.721 | 2 | 35.446 | 11.885 | 30.685 | 2 |
| 2025-05-03T11:02:00 | 54.120245 | 8.030028 | 2.0 | 11.718 | 2 | 35.469 | 11.889 | 30.704 | 2 |
| 2025-05-03T11:03:00 | 54.120276 | 8.029962 | 2.0 | 11.715 | 2 | 35.491 | 11.892 | 30.722 | 2 |
| 2025-05-03T11:04:00 | 54.120300 | 8.029880 | 2.0 | 11.728 | 2 | 35.514 | 11.890 | 30.746 | 2 |
| 2025-05-03T11:05:00 | 54.120305 | 8.029859 | 2.0 | 11.712 | 2 | 35.532 | 11.898 | 30.757 | 2 |
| 2025-05-03T11:06:00 | 54.120313 | 8.029894 | 2.0 | 11.696 | 2 | 35.522 | 11.883 | 30.760 | 2 |
| 2025-05-03T11:07:00 | 54.120336 | 8.029971 | 2.0 | 11.689 | 2 | 35.509 | 11.866 | 30.761 | 2 |
| 2025-05-03T11:08:00 | 54.120354 | 8.030046 | 2.0 | 11.706 | 2 | 35.509 | 11.870 | 30.758 | 2 |
| 2025-05-03T11:09:00 | 54.120357 | 8.030094 | 2.0 | 11.701 | 2 | 35.515 | 11.874 | 30.760 | 2 |
| 2025-05-03T11:10:00 | 54.120337 | 8.030130 | 2.0 | 11.703 | 2 | 35.516 | 11.876 | 30.760 | 2 |
| 2025-05-03T11:11:00 | 54.120326 | 8.030130 | 2.0 | 11.699 | 2 | 35.515 | 11.873 | 30.761 | 2 |
| 2025-05-03T11:12:00 | 54.120323 | 8.030079 | 2.0 | 11.704 | 2 | 35.518 | 11.875 | 30.762 | 2 |
| 2025-05-03T11:13:00 | 54.120318 | 8.030005 | 2.0 | 11.704 | 2 | 35.518 | 11.870 | 30.766 | 2 |
| 2025-05-03T11:14:00 | 54.120303 | 8.029953 | 2.0 | 11.690 | 2 | 35.527 | 11.874 | 30.772 | 2 |
| 2025-05-03T11:15:00 | 54.120304 | 8.029983 | 2.0 | 11.693 | 2 | 35.525 | 11.863 | 30.779 | 2 |
| 2025-05-03T11:16:00 | 54.120295 | 8.030078 | 2.0 | 11.695 | 2 | 35.529 | 11.864 | 30.782 | 2 |
| 2025-05-03T11:17:00 | 54.120284 | 8.030164 | 2.0 | 11.687 | 2 | 35.539 | 11.870 | 30.787 | 2 |
| 2025-05-03T11:18:00 | 54.120284 | 8.030213 | 2.0 | 11.693 | 2 | 35.547 | 11.870 | 30.794 | 2 |
| 2025-05-03T11:19:00 | 54.120252 | 8.030190 | 2.0 | 11.677 | 2 | 35.560 | 11.876 | 30.802 | 2 |
| 2025-05-03T11:20:00 | 54.120180 | 8.030166 | 2.0 | 11.660 | 2 | 35.562 | 11.864 | 30.814 | 2 |
| 2025-05-03T11:21:00 | 54.120104 | 8.030194 | 2.0 | 11.652 | 2 | 35.565 | 11.853 | 30.826 | 2 |
| 2025-05-03T11:22:00 | 54.120036 | 8.030116 | 2.0 | 11.650 | 2 | 35.564 | 11.841 | 30.835 | 2 |
| 2025-05-03T11:23:00 | 54.120077 | 8.029951 | 2.0 | 11.668 | 2 | 35.575 | 11.845 | 30.842 | 2 |
| 2025-05-03T11:24:00 | 54.120030 | 8.029523 | 2.0 | 11.651 | 2 | 35.595 | 11.860 | 30.849 | 2 |
| 2025-05-03T11:25:00 | 54.120014 | 8.028553 | 2.0 | 11.621 | 2 | 35.604 | 11.844 | 30.871 | 2 |
| 2025-05-03T11:26:00 | 54.120248 | 8.027468 | 2.0 | 11.635 | 2 | 35.613 | 11.819 | 30.900 | 2 |
| 2025-05-03T11:27:00 | 54.120623 | 8.026336 | 2.0 | 11.655 | 2 | 35.655 | 11.838 | 30.925 | 2 |
| 2025-05-03T11:28:00 | 54.120995 | 8.025323 | 2.0 | 11.670 | 2 | 35.684 | 11.854 | 30.939 | 2 |
| 2025-05-03T11:29:00 | 54.121302 | 8.024670 | 2.0 | 11.674 | 2 | 35.709 | 11.871 | 30.949 | 2 |
| 2025-05-03T11:30:00 | 54.121589 | 8.024221 | 2.0 | 11.665 | 2 | 35.714 | 11.872 | 30.953 | 2 |
| 2025-05-03T11:31:00 | 54.121853 | 8.023875 | 2.0 | 11.649 | 2 | 35.709 | 11.865 | 30.954 | 2 |
| 2025-05-03T11:32:00 | 54.122121 | 8.023590 | 2.0 | 11.649 | 2 | 35.693 | 11.843 | 30.957 | 2 |
| 2025-05-03T11:33:00 | 54.122393 | 8.023334 | 2.0 | 11.623 | 2 | 35.682 | 11.825 | 30.962 | 2 |
| 2025-05-03T11:34:00 | 54.122569 | 8.023165 | 2.0 | 11.620 | 2 | 35.670 | 11.812 | 30.961 | 2 |
| 2025-05-03T11:35:00 | 54.122559 | 8.022998 | 2.0 | 11.615 | 2 | 35.659 | 11.796 | 30.964 | 2 |
| 2025-05-03T11:36:00 | 54.122720 | 8.022961 | 2.0 | 11.609 | 2 | 35.658 | 11.795 | 30.963 | 2 |
| 2025-05-03T11:37:00 | 54.123098 | 8.023822 | 2.0 | 11.606 | 2 | 35.654 | 11.787 | 30.966 | 2 |
| 2025-05-03T11:38:00 | 54.123459 | 8.025558 | 2.0 | 11.614 | 2 | 35.654 | 11.787 | 30.966 | 2 |
| 2025-05-03T11:39:00 | 54.123544 | 8.027923 | 2.0 | 11.609 | 2 | 35.660 | 11.794 | 30.966 | 2 |
| 2025-05-03T11:40:00 | 54.123412 | 8.030611 | 2.0 | 11.627 | 2 | 35.654 | 11.793 | 30.961 | 2 |
| 2025-05-03T11:41:00 | 54.122776 | 8.033043 | 2.0 | 11.648 | 2 | 35.655 | 11.810 | 30.948 | 2 |
| 2025-05-03T11:42:00 | 54.121854 | 8.035294 | 2.0 | 11.642 | 2 | 35.664 | 11.829 | 30.941 | 2 |
| 2025-05-03T11:43:00 | 54.120700 | 8.036231 | 2.0 | 11.641 | 2 | 35.650 | 11.811 | 30.942 | 2 |
| 2025-05-03T11:44:00 | 54.119747 | 8.036136 | 2.0 | 11.662 | 2 | 35.650 | 11.821 | 30.934 | 2 |
| 2025-05-03T11:45:00 | 54.119289 | 8.035639 | 2.0 | 11.690 | 2 | 35.673 | 11.842 | 30.939 | 2 |
| 2025-05-03T11:46:00 | 54.119195 | 8.035212 | 2.0 | 11.681 | 2 | 35.697 | 11.865 | 30.943 | 2 |
| 2025-05-03T11:47:00 | 54.119167 | 8.034714 | 2.0 | 11.678 | 2 | 35.697 | 11.860 | 30.947 | 2 |
| 2025-05-03T11:48:00 | 54.119059 | 8.033860 | 2.0 | 11.664 | 2 | 35.688 | 11.846 | 30.950 | 2 |
| 2025-05-03T11:49:00 | 54.118869 | 8.032687 | 2.0 | 11.678 | 2 | 35.691 | 11.848 | 30.951 | 2 |
| 2025-05-03T11:50:00 | 54.118674 | 8.031486 | 2.0 | 11.675 | 2 | 35.702 | 11.855 | 30.956 | 2 |
| 2025-05-03T11:51:00 | 54.118457 | 8.030255 | 2.0 | 11.688 | 2 | 35.705 | 11.852 | 30.961 | 2 |
| 2025-05-03T11:52:00 | 54.118219 | 8.028942 | 2.0 | 11.668 | 2 | 35.718 | 11.858 | 30.969 | 2 |
| 2025-05-03T11:53:00 | 54.118015 | 8.027533 | 2.0 | 11.661 | 2 | 35.708 | 11.841 | 30.973 | 2 |
| 2025-05-03T11:54:00 | 54.117866 | 8.026347 | 2.0 | 11.677 | 2 | 35.711 | 11.842 | 30.975 | 2 |
| 2025-05-03T11:55:00 | 54.117805 | 8.025280 | 2.0 | 11.696 | 2 | 35.728 | 11.857 | 30.979 | 2 |
| 2025-05-03T11:56:00 | 54.117818 | 8.024316 | 2.0 | 11.698 | 2 | 35.741 | 11.870 | 30.981 | 2 |
| 2025-05-03T11:57:00 | 54.117877 | 8.023392 | 2.0 | 11.689 | 2 | 35.744 | 11.871 | 30.983 | 2 |
| 2025-05-03T11:58:00 | 54.117918 | 8.022345 | 2.0 | 11.681 | 2 | 35.739 | 11.864 | 30.984 | 2 |
| 2025-05-03T11:59:00 | 54.117863 | 8.021070 | 2.0 | 11.687 | 2 | 35.734 | 11.856 | 30.986 | 2 |
| 2025-05-03T12:00:00 | 54.117626 | 8.019687 | 2.0 | 11.681 | 2 | 35.740 | 11.861 | 30.988 | 2 |
| 2025-05-03T12:01:00 | 54.117308 | 8.018384 | 2.0 | 11.667 | 2 | 35.739 | 11.855 | 30.992 | 2 |
| 2025-05-03T12:02:00 | 54.116916 | 8.017205 | 2.0 | 11.649 | 2 | 35.728 | 11.838 | 30.995 | 2 |
| 2025-05-03T12:03:00 | 54.116484 | 8.016075 | 2.0 | 11.613 | 2 | 35.717 | 11.818 | 31.001 | 2 |
| 2025-05-03T12:04:00 | 54.116012 | 8.015020 | 2.0 | 11.583 | 2 | 35.707 | 11.787 | 31.017 | 2 |
| 2025-05-03T12:05:00 | 54.115483 | 8.014059 | 2.0 | 11.572 | 2 | 35.705 | 11.763 | 31.035 | 2 |
| 2025-05-03T12:06:00 | 54.114940 | 8.013083 | 2.0 | 11.538 | 2 | 35.704 | 11.741 | 31.053 | 2 |
| 2025-05-03T12:07:00 | 54.114401 | 8.012107 | 2.0 | 11.517 | 2 | 35.689 | 11.712 | 31.063 | 2 |
| 2025-05-03T12:08:00 | 54.113869 | 8.011167 | 2.0 | 11.506 | 2 | 35.684 | 11.698 | 31.070 | 2 |
| 2025-05-03T12:09:00 | 54.113341 | 8.010217 | 2.0 | 11.495 | 2 | 35.675 | 11.679 | 31.077 | 2 |
| 2025-05-03T12:10:00 | 54.112813 | 8.009246 | 2.0 | 11.554 | 2 | 35.685 | 11.686 | 31.081 | 2 |
| 2025-05-03T12:11:00 | 54.112287 | 8.008268 | 2.0 | 11.559 | 2 | 35.724 | 11.727 | 31.084 | 2 |
| 2025-05-03T12:12:00 | 54.111764 | 8.007271 | 2.0 | 11.552 | 2 | 35.558 | 11.733 | 30.919 | 2 |
| 2025-05-03T12:13:00 | 54.111244 | 8.006245 | 2.0 | 11.562 | 2 | 35.735 | 11.728 | 31.094 | 2 |
| 2025-05-03T12:14:00 | 54.110716 | 8.005227 | 2.0 | 11.557 | 2 | 35.668 | 11.733 | 31.025 | 2 |
| 2025-05-03T12:15:00 | 54.110183 | 8.004191 | 2.0 | 11.556 | 2 | 35.736 | 11.729 | 31.094 | 2 |
| 2025-05-03T12:16:00 | 54.109648 | 8.003178 | 2.0 | 11.551 | 2 | 35.749 | 11.730 | 31.106 | 2 |
| 2025-05-03T12:17:00 | 54.109118 | 8.002201 | 2.0 | 11.555 | 2 | 35.759 | 11.732 | 31.114 | 2 |
| 2025-05-03T12:18:00 | 54.108581 | 8.001208 | 2.0 | 11.509 | 2 | 35.765 | 11.724 | 31.126 | 2 |
| 2025-05-03T12:19:00 | 54.108048 | 8.000217 | 2.0 | 11.375 | 2 | 35.493 | 11.653 | 30.922 | 2 |
| 2025-05-03T12:20:00 | 54.107512 | 7.999251 | 2.0 | 11.350 | 2 | 35.637 | 11.555 | 31.144 | 2 |
| 2025-05-03T12:21:00 | 54.106981 | 7.998296 | 2.0 | 11.330 | 2 | 35.310 | 11.528 | 30.849 | 2 |
| 2025-05-03T12:22:00 | 54.106457 | 7.997349 | 2.0 | 11.293 | 2 | 35.306 | 11.500 | 30.869 | 2 |
| 2025-05-03T12:23:00 | 54.105930 | 7.996390 | 2.0 | 11.276 | 2 | 35.538 | 11.472 | 31.117 | 2 |
| 2025-05-03T12:24:00 | 54.105398 | 7.995416 | 2.0 | 11.246 | 2 | 35.512 | 11.449 | 31.112 | 2 |
| 2025-05-03T12:25:00 | 54.104873 | 7.994436 | 2.0 | 11.223 | 2 | 35.474 | 11.423 | 31.096 | 2 |
| 2025-05-03T12:26:00 | 54.104342 | 7.993441 | 2.0 | 11.204 | 2 | 35.417 | 11.397 | 31.063 | 2 |
| 2025-05-03T12:27:00 | 54.103805 | 7.992458 | 2.0 | 11.200 | 2 | 35.393 | 11.378 | 31.055 | 2 |
| 2025-05-03T12:28:00 | 54.103269 | 7.991508 | 2.0 | 11.182 | 2 | 35.036 | 11.371 | 30.714 | 2 |
| 2025-05-03T12:29:00 | 54.102748 | 7.990517 | 2.0 | 11.195 | 2 | 34.998 | 11.359 | 30.687 | 2 |
| 2025-05-03T12:30:00 | 54.102208 | 7.989521 | 2.0 | 11.213 | 2 | 35.179 | 11.377 | 30.848 | 2 |
| 2025-05-03T12:31:00 | 54.101673 | 7.988531 | 2.0 | 11.224 | 2 | 35.199 | 11.393 | 30.854 | 2 |
| 2025-05-03T12:32:00 | 54.101141 | 7.987511 | 2.0 | 11.204 | 2 | 35.241 | 11.396 | 30.892 | 2 |
| 2025-05-03T12:33:00 | 54.100609 | 7.986492 | 2.0 | 11.217 | 2 | 35.202 | 11.386 | 30.863 | 2 |
| 2025-05-03T12:34:00 | 54.100078 | 7.985476 | 2.0 | 11.208 | 2 | 35.349 | 11.388 | 31.004 | 2 |
| 2025-05-03T12:35:00 | 54.099550 | 7.984451 | 2.0 | 11.219 | 2 | 35.117 | 11.387 | 30.779 | 2 |
| 2025-05-03T12:36:00 | 54.099021 | 7.983427 | 2.0 | 11.219 | 2 | 35.230 | 11.396 | 30.882 | 2 |
| 2025-05-03T12:37:00 | 54.098497 | 7.982440 | 2.0 | 11.232 | 2 | 35.100 | 11.392 | 30.758 | 2 |
| 2025-05-03T12:38:00 | 54.097974 | 7.981467 | 2.0 | 11.247 | 2 | 35.055 | 11.408 | 30.701 | 2 |
| 2025-05-03T12:39:00 | 54.097442 | 7.980457 | 2.0 | 11.257 | 2 | 35.374 | 11.423 | 30.999 | 2 |
| 2025-05-03T12:40:00 | 54.096890 | 7.979460 | 2.0 | 11.263 | 2 | 35.386 | 11.434 | 31.002 | 2 |
| 2025-05-03T12:41:00 | 54.096350 | 7.978490 | 2.0 | 11.272 | 2 | 34.918 | 11.440 | 30.542 | 2 |
| 2025-05-03T12:42:00 | 54.095817 | 7.977495 | 2.0 | 11.304 | 2 | 35.405 | 11.450 | 31.007 | 2 |
| 2025-05-03T12:43:00 | 54.095285 | 7.976520 | 2.0 | 11.310 | 2 | 35.434 | 11.476 | 31.013 | 2 |
| 2025-05-03T12:44:00 | 54.094759 | 7.975545 | 2.0 | 11.325 | 2 | 35.205 | 11.487 | 30.781 | 2 |
| 2025-05-03T12:45:00 | 54.094224 | 7.974594 | 2.0 | 11.363 | 2 | 35.235 | 11.503 | 30.797 | 2 |
| 2025-05-03T12:46:00 | 54.093973 | 7.973884 | 2.0 | 11.375 | 2 | 35.301 | 11.535 | 30.835 | 2 |
| 2025-05-03T12:47:00 | 54.094231 | 7.974314 | 2.0 | 11.370 | 2 | 35.149 | 11.547 | 30.677 | 2 |
| 2025-05-03T12:48:00 | 54.095091 | 7.975960 | 2.0 | 11.331 | 2 | 35.440 | 11.536 | 30.969 | 2 |
| 2025-05-03T12:49:00 | 54.096322 | 7.978080 | 2.0 | 11.318 | 2 | 35.016 | 11.507 | 30.582 | 2 |
| 2025-05-03T12:50:00 | 54.097521 | 7.980183 | 2.0 | 11.295 | 2 | 35.364 | 11.492 | 30.932 | 2 |
| 2025-05-03T12:51:00 | 54.098700 | 7.982281 | 2.0 | 11.285 | 2 | 35.376 | 11.470 | 30.962 | 2 |
| 2025-05-03T12:52:00 | 54.099857 | 7.984349 | 2.0 | 11.256 | 2 | 35.108 | 11.457 | 30.712 | 2 |
| 2025-05-03T12:53:00 | 54.100595 | 7.986389 | 2.0 | 11.237 | 2 | 35.152 | 11.430 | 30.777 | 2 |
| 2025-05-03T12:54:00 | 54.100425 | 7.987592 | 2.0 | 11.198 | 2 | 35.201 | 11.402 | 30.848 | 2 |
| 2025-05-03T12:55:00 | 54.100116 | 7.987985 | 2.0 | 11.246 | 2 | 35.131 | 11.383 | 30.796 | 2 |
| 2025-05-03T12:56:00 | 54.099716 | 7.987725 | 2.0 | 11.259 | 2 | 35.179 | 11.420 | 30.812 | 2 |
| 2025-05-03T12:57:00 | 54.099332 | 7.986923 | 2.0 | 11.288 | 2 | 35.328 | 11.439 | 30.941 | 2 |
| 2025-05-03T12:58:00 | 54.098893 | 7.985817 | 2.0 | 11.239 | 2 | 35.094 | 11.463 | 30.694 | 2 |
| 2025-05-03T12:59:00 | 54.098397 | 7.984671 | 2.0 | 11.246 | 2 | 35.315 | 11.390 | 30.969 | 2 |
| 2025-05-03T13:00:00 | 54.097868 | 7.983525 | 2.0 | 11.316 | 2 | 35.150 | 11.441 | 30.766 | 2 |
| 2025-05-03T13:01:00 | 54.097331 | 7.982396 | 2.0 | 11.315 | 2 | 35.089 | 11.485 | 30.671 | 2 |
| 2025-05-03T13:02:00 | 54.096803 | 7.981272 | 2.0 | 11.336 | 2 | 35.356 | 11.493 | 30.923 | 2 |
| 2025-05-03T13:03:00 | 54.096272 | 7.980118 | 2.0 | 11.354 | 2 | 35.351 | 11.514 | 30.901 | 2 |
| 2025-05-03T13:04:00 | 54.095737 | 7.978959 | 2.0 | 11.354 | 2 | 35.464 | 11.525 | 31.001 | 2 |
| 2025-05-03T13:05:00 | 54.095202 | 7.977795 | 2.0 | 11.378 | 2 | 35.405 | 11.534 | 30.936 | 2 |
| 2025-05-03T13:06:00 | 54.094690 | 7.976675 | 2.0 | 11.394 | 2 | 35.416 | 11.554 | 30.930 | 2 |
| 2025-05-03T13:07:00 | 54.094212 | 7.975573 | 2.0 | 11.412 | 2 | 35.453 | 11.571 | 30.952 | 2 |
| 2025-05-03T13:08:00 | 54.093731 | 7.974457 | 2.0 | 11.411 | 2 | 35.448 | 11.583 | 30.937 | 2 |
| 2025-05-03T13:09:00 | 54.093246 | 7.973344 | 2.0 | 11.403 | 2 | 35.420 | 11.584 | 30.909 | 2 |
| 2025-05-03T13:10:00 | 54.092758 | 7.972258 | 2.0 | 11.401 | 2 | 35.358 | 11.578 | 30.854 | 2 |
| 2025-05-03T13:11:00 | 54.092283 | 7.971223 | 2.0 | 11.376 | 2 | 35.503 | 11.571 | 31.000 | 2 |
| 2025-05-03T13:12:00 | 54.091824 | 7.970236 | 2.0 | 11.370 | 2 | 35.270 | 11.551 | 30.791 | 2 |
| 2025-05-03T13:13:00 | 54.091355 | 7.969245 | 2.0 | 11.357 | 2 | 35.271 | 11.543 | 30.799 | 2 |
| 2025-05-03T13:14:00 | 54.090861 | 7.968211 | 2.0 | 11.320 | 2 | 35.092 | 11.524 | 30.641 | 2 |
| 2025-05-03T13:15:00 | 54.090356 | 7.967149 | 2.0 | 11.302 | 2 | 34.996 | 11.492 | 30.575 | 2 |
| 2025-05-03T13:16:00 | 54.089846 | 7.966046 | 2.0 | 11.315 | 2 | 35.133 | 11.484 | 30.714 | 2 |
| 2025-05-03T13:17:00 | 54.089313 | 7.964934 | 2.0 | 11.259 | 2 | 35.188 | 11.478 | 30.772 | 2 |
| 2025-05-03T13:18:00 | 54.088847 | 7.963865 | 2.0 | 11.239 | 2 | 35.451 | 11.430 | 31.068 | 2 |
| 2025-05-03T13:19:00 | 54.089047 | 7.963695 | 2.0 | 11.260 | 2 | 35.125 | 11.421 | 30.759 | 2 |
| 2025-05-03T13:20:00 | 54.089570 | 7.964507 | 2.0 | 11.240 | 2 | 35.161 | 11.428 | 30.788 | 2 |
| 2025-05-03T13:21:00 | 54.090349 | 7.965593 | 2.0 | 11.241 | 2 | 34.628 | 11.415 | 30.281 | 2 |
| 2025-05-03T13:22:00 | 54.091286 | 7.966761 | 2.0 | 11.354 | 2 | 34.719 | 11.447 | 30.343 | 2 |
| 2025-05-03T13:23:00 | 54.092045 | 7.968142 | 2.0 | 11.297 | 2 | 34.921 | 11.504 | 30.492 | 2 |
| 2025-05-03T13:24:00 | 54.092008 | 7.969350 | 2.0 | 11.295 | 2 | 35.428 | 11.473 | 31.010 | 2 |
| 2025-05-03T13:25:00 | 54.091790 | 7.969723 | 2.0 | 11.305 | 2 | 34.857 | 11.465 | 30.462 | 2 |
| 2025-05-03T13:26:00 | 54.091628 | 7.969211 | 2.0 | 11.296 | 2 | 35.250 | 11.489 | 30.823 | 2 |
| 2025-05-03T13:27:00 | 54.091566 | 7.968603 | 2.0 | 11.367 | 2 | 35.458 | 11.476 | 31.036 | 2 |
| 2025-05-03T13:28:00 | 54.091496 | 7.967988 | 2.0 | 11.265 | 2 | 35.115 | 11.511 | 30.674 | 2 |
| 2025-05-03T13:29:00 | 54.091445 | 7.967358 | 2.0 | 11.212 | 2 | 35.149 | 11.428 | 30.776 | 2 |
| 2025-05-03T13:30:00 | 54.091392 | 7.966766 | 2.0 | 11.228 | 2 | 35.197 | 11.393 | 30.852 | 2 |
| 2025-05-03T13:31:00 | 54.091331 | 7.966185 | 2.0 | 11.262 | 2 | 35.104 | 11.408 | 30.749 | 2 |
| 2025-05-03T13:32:00 | 54.091282 | 7.965619 | 2.0 | 11.252 | 2 | 35.231 | 11.433 | 30.852 | 2 |
| 2025-05-03T13:33:00 | 54.091231 | 7.965241 | 2.0 | 11.242 | 2 | 35.304 | 11.425 | 30.929 | 2 |
| 2025-05-03T13:34:00 | 54.091182 | 7.964887 | 2.0 | 11.276 | 2 | 35.119 | 11.418 | 30.755 | 2 |
| 2025-05-03T13:35:00 | 54.091146 | 7.964517 | 2.0 | 11.262 | 2 | 35.365 | 11.451 | 30.967 | 2 |
| 2025-05-03T13:36:00 | 54.091099 | 7.964091 | 2.0 | 11.233 | 2 | 35.376 | 11.431 | 30.994 | 2 |
| 2025-05-03T13:37:00 | 54.091042 | 7.963584 | 2.0 | 11.192 | 2 | 35.396 | 11.400 | 31.040 | 2 |
| 2025-05-03T13:38:00 | 54.090995 | 7.963057 | 2.0 | 11.167 | 2 | 35.492 | 11.365 | 31.163 | 2 |
| 2025-05-03T13:39:00 | 54.090941 | 7.962573 | 2.0 | 11.154 | 2 | 35.465 | 11.339 | 31.158 | 2 |
| 2025-05-03T13:40:00 | 54.090969 | 7.962276 | 2.0 | 11.143 | 2 | 35.439 | 11.324 | 31.146 | 2 |
| 2025-05-03T13:41:00 | 54.091493 | 7.962400 | 2.0 | 11.154 | 2 | 35.259 | 11.317 | 30.976 | 2 |
| 2025-05-03T13:42:00 | 54.092518 | 7.963572 | 2.0 | 11.160 | 2 | 35.442 | 11.329 | 31.144 | 2 |
| 2025-05-03T13:43:00 | 54.093761 | 7.965424 | 2.0 | 11.202 | 2 | 35.338 | 11.339 | 31.035 | 2 |
| 2025-05-03T13:44:00 | 54.095089 | 7.967708 | 2.0 | 11.230 | 2 | 35.331 | 11.382 | 30.992 | 2 |
| 2025-05-03T13:45:00 | 54.096471 | 7.970278 | 2.0 | 11.224 | 2 | 35.396 | 11.398 | 31.041 | 2 |
| 2025-05-03T13:46:00 | 54.097767 | 7.972959 | 2.0 | 11.248 | 2 | 35.379 | 11.409 | 31.016 | 2 |
| 2025-05-03T13:47:00 | 54.098874 | 7.975632 | 2.0 | 11.237 | 2 | 35.403 | 11.416 | 31.033 | 2 |
| 2025-05-03T13:48:00 | 54.099910 | 7.978139 | 2.0 | 11.255 | 2 | 35.353 | 11.414 | 30.986 | 2 |
| 2025-05-03T13:49:00 | 54.100918 | 7.980588 | 2.0 | 11.277 | 2 | 35.406 | 11.431 | 31.024 | 2 |
| 2025-05-03T13:50:00 | 54.101943 | 7.982845 | 2.0 | 11.279 | 2 | 35.395 | 11.450 | 30.997 | 2 |
| 2025-05-03T13:51:00 | 54.103036 | 7.985078 | 2.0 | 11.285 | 2 | 35.376 | 11.455 | 30.974 | 2 |
| 2025-05-03T13:52:00 | 54.104180 | 7.987788 | 2.0 | 11.296 | 2 | 35.452 | 11.460 | 31.044 | 2 |
| 2025-05-03T13:53:00 | 54.105409 | 7.990708 | 2.0 | 11.298 | 2 | 35.271 | 11.469 | 30.861 | 2 |
| 2025-05-03T13:54:00 | 54.106694 | 7.993751 | 2.0 | 11.289 | 2 | 35.431 | 11.471 | 31.014 | 2 |
| 2025-05-03T13:55:00 | 54.107992 | 7.996818 | 2.0 | 11.270 | 2 | 35.363 | 11.460 | 30.957 | 2 |
| 2025-05-03T13:56:00 | 54.109153 | 7.999600 | 2.0 | 11.258 | 2 | 35.420 | 11.442 | 31.028 | 2 |
| 2025-05-03T13:57:00 | 54.110125 | 8.001999 | 2.0 | 11.263 | 2 | 35.400 | 11.434 | 31.015 | 2 |
| 2025-05-03T13:58:00 | 54.110964 | 8.004090 | 2.0 | 11.256 | 2 | 35.409 | 11.435 | 31.023 | 2 |
| 2025-05-03T13:59:00 | 54.111328 | 8.006033 | 2.0 | 11.241 | 2 | 35.397 | 11.426 | 31.019 | 2 |
| 2025-05-03T14:00:00 | 54.111147 | 8.007178 | 2.0 | 11.242 | 2 | 35.387 | 11.415 | 31.018 | 2 |
| 2025-05-03T14:01:00 | 54.110946 | 8.007811 | 2.0 | 11.243 | 2 | 35.387 | 11.413 | 31.020 | 2 |
| 2025-05-03T14:02:00 | 54.110796 | 8.007941 | 2.0 | 11.238 | 2 | 35.356 | 11.414 | 30.989 | 2 |
| 2025-05-03T14:03:00 | 54.110686 | 8.007640 | 2.0 | 11.246 | 2 | 35.363 | 11.410 | 30.999 | 2 |
| 2025-05-03T14:04:00 | 54.110563 | 8.006850 | 2.0 | 11.259 | 2 | 35.319 | 11.420 | 30.948 | 2 |
| 2025-05-03T14:05:00 | 54.110445 | 8.005802 | 2.0 | 11.260 | 2 | 35.407 | 11.433 | 31.023 | 2 |
| 2025-05-03T14:06:00 | 54.110301 | 8.004601 | 2.0 | 11.221 | 2 | 35.404 | 11.411 | 31.038 | 2 |
| 2025-05-03T14:07:00 | 54.110156 | 8.003415 | 2.0 | 11.256 | 2 | 35.397 | 11.409 | 31.033 | 2 |
| 2025-05-03T14:08:00 | 54.110000 | 8.002342 | 2.0 | 11.258 | 2 | 35.409 | 11.428 | 31.029 | 2 |
| 2025-05-03T14:09:00 | 54.109836 | 8.001168 | 2.0 | 11.256 | 2 | 35.409 | 11.430 | 31.027 | 2 |
| 2025-05-03T14:10:00 | 54.109701 | 8.000005 | 2.0 | 11.257 | 2 | 35.321 | 11.431 | 30.941 | 2 |
| 2025-05-03T14:11:00 | 54.109561 | 7.998877 | 2.0 | 11.255 | 2 | 35.273 | 11.431 | 30.894 | 2 |
| 2025-05-03T14:12:00 | 54.109428 | 7.997831 | 2.0 | 11.246 | 2 | 35.415 | 11.429 | 31.034 | 2 |
| 2025-05-03T14:14:00 | 54.109134 | 7.995911 | 2.0 | 11.241 | 2 | 35.280 | 11.419 | 30.911 | 2 |
| 2025-05-03T14:15:00 | 54.109040 | 7.995377 | 2.0 | 11.241 | 2 | 35.187 | 11.415 | 30.824 | 2 |
| 2025-05-03T14:16:00 | 54.108886 | 7.995076 | 2.0 | 11.246 | 2 | 34.674 | 11.417 | 30.324 | 2 |
| 2025-05-03T14:17:00 | 54.109142 | 7.994985 | 2.0 | 11.243 | 2 | 35.159 | 11.417 | 30.795 | 2 |
| 2025-05-03T14:18:00 | 54.109699 | 7.995181 | 2.0 | 11.239 | 2 | 35.081 | 11.415 | 30.721 | 2 |
| 2025-05-03T14:19:00 | 54.110579 | 7.995845 | 2.0 | 11.223 | 2 | 34.744 | 11.407 | 30.400 | 2 |
| 2025-05-03T14:20:00 | 54.111473 | 7.997956 | 2.0 | 11.233 | 2 | 34.670 | 11.398 | 30.336 | 2 |
| 2025-05-03T14:26:00 | 54.118896 | 8.017426 | 2.0 | 11.219 | 2 | 34.882 | 11.395 | 30.544 | 2 |
| 2025-05-03T14:27:00 | 54.120199 | 8.020862 | 2.0 | 11.196 | 2 | 35.364 | 11.394 | 31.014 | 2 |
| 2025-05-03T14:28:00 | 54.121508 | 8.024279 | 2.0 | 11.170 | 2 | 34.899 | 11.367 | 30.584 | 2 |
| 2025-05-03T14:29:00 | 54.122747 | 8.027684 | 2.0 | 11.156 | 2 | 35.229 | 11.353 | 30.917 | 2 |
| 2025-05-03T14:30:00 | 54.123228 | 8.030862 | 2.0 | 11.150 | 2 | 34.903 | 11.347 | 30.604 | 2 |
| 2025-05-03T14:31:00 | 54.123092 | 8.033554 | 2.0 | 11.134 | 2 | 35.364 | 11.340 | 31.059 | 2 |
| 2025-05-03T14:32:00 | 54.122578 | 8.035600 | 2.0 | 11.129 | 2 | 35.025 | 11.326 | 30.740 | 2 |
| 2025-05-03T14:34:00 | 54.120537 | 8.037169 | 2.0 | 11.130 | 2 | 35.361 | 11.325 | 31.069 | 2 |
| 2025-05-03T14:35:00 | 54.119653 | 8.036225 | 2.0 | 11.152 | 2 | 35.356 | 11.330 | 31.060 | 2 |
| 2025-05-03T14:36:00 | 54.119530 | 8.035176 | 2.0 | 11.170 | 2 | 35.365 | 11.352 | 31.050 | 2 |
| 2025-05-03T14:37:00 | 54.119777 | 8.034345 | 2.0 | 11.176 | 2 | 35.375 | 11.368 | 31.046 | 2 |
| 2025-05-03T14:38:00 | 54.120002 | 8.033522 | 2.0 | 11.176 | 2 | 35.371 | 11.373 | 31.038 | 2 |
| 2025-05-03T14:39:00 | 54.120175 | 8.032556 | 2.0 | 11.188 | 2 | 35.349 | 11.377 | 31.013 | 2 |
| 2025-05-03T14:40:00 | 54.120266 | 8.031768 | 2.0 | 11.176 | 2 | 35.388 | 11.385 | 31.045 | 2 |
| 2025-05-03T14:41:00 | 54.120251 | 8.031451 | 2.0 | 11.161 | 2 | 35.332 | 11.368 | 31.004 | 2 |
| 2025-05-03T14:42:00 | 54.120174 | 8.031214 | 2.0 | 11.176 | 2 | 35.352 | 11.364 | 31.027 | 2 |
| 2025-05-03T14:43:00 | 54.120242 | 8.031101 | 2.0 | 11.193 | 2 | 35.335 | 11.378 | 30.999 | 2 |
| 2025-05-03T14:44:00 | 54.120266 | 8.030872 | 2.0 | 11.201 | 2 | 35.385 | 11.394 | 31.034 | 2 |
| 2025-05-03T14:45:00 | 54.120194 | 8.030582 | 2.0 | 11.216 | 2 | 35.361 | 11.398 | 31.007 | 2 |
| 2025-05-03T14:46:00 | 54.120126 | 8.030427 | 2.0 | 11.205 | 2 | 35.405 | 11.416 | 31.035 | 2 |
| 2025-05-03T14:47:00 | 54.120070 | 8.030441 | 2.0 | 11.179 | 2 | 35.374 | 11.399 | 31.019 | 2 |
| 2025-05-03T14:48:00 | 54.119997 | 8.030462 | 2.0 | 11.169 | 2 | 35.379 | 11.383 | 31.038 | 2 |
| 2025-05-03T14:49:00 | 54.119952 | 8.030443 | 2.0 | 11.167 | 2 | 35.361 | 11.370 | 31.031 | 2 |
| 2025-05-03T14:50:00 | 54.119928 | 8.030396 | 2.0 | 11.197 | 2 | 35.358 | 11.376 | 31.023 | 2 |
| 2025-05-03T14:51:00 | 54.119903 | 8.030316 | 2.0 | 11.200 | 2 | 35.397 | 11.403 | 31.038 | 2 |
| 2025-05-03T14:52:00 | 54.119875 | 8.030262 | 2.0 | 11.185 | 2 | 35.402 | 11.400 | 31.046 | 2 |
| 2025-05-03T14:53:00 | 54.119903 | 8.030206 | 2.0 | 11.182 | 2 | 35.395 | 11.391 | 31.046 | 2 |
| 2025-05-03T14:54:00 | 54.119935 | 8.030156 | 2.0 | 11.171 | 2 | 35.389 | 11.385 | 31.046 | 2 |
| 2025-05-03T14:55:00 | 54.119950 | 8.030145 | 2.0 | 11.168 | 2 | 35.379 | 11.375 | 31.044 | 2 |
| 2025-05-03T14:56:00 | 54.119963 | 8.030116 | 2.0 | 11.151 | 2 | 35.375 | 11.368 | 31.046 | 2 |
| 2025-05-03T14:57:00 | 54.119976 | 8.030088 | 2.0 | 11.151 | 2 | 35.376 | 11.358 | 31.056 | 2 |
| 2025-05-03T14:58:00 | 54.119980 | 8.030081 | 2.0 | 11.187 | 2 | 35.368 | 11.345 | 31.059 | 2 |
| 2025-05-03T14:59:00 | 54.119985 | 8.030077 | 2.0 | 11.193 | 2 | 35.382 | 11.370 | 31.051 | 2 |
| 2025-05-03T15:00:00 | 54.119988 | 8.030070 | 2.0 | 11.183 | 2 | 35.357 | 11.377 | 31.021 | 2 |
| 2025-05-03T15:01:00 | 54.120011 | 8.030058 | 2.0 | 11.185 | 2 | 35.349 | 11.369 | 31.020 | 2 |
| 2025-05-03T15:02:00 | 54.120030 | 8.030050 | 2.0 | 11.196 | 2 | 35.373 | 11.370 | 31.043 | 2 |
| 2025-05-03T15:03:00 | 54.120007 | 8.030073 | 2.0 | 11.204 | 2 | 35.361 | 11.380 | 31.023 | 2 |
| 2025-05-03T15:04:00 | 54.120003 | 8.030090 | 2.0 | 11.204 | 2 | 35.317 | 11.384 | 30.976 | 2 |
| 2025-05-03T15:05:00 | 54.119993 | 8.030103 | 2.0 | 11.203 | 2 | 35.359 | 11.384 | 31.017 | 2 |
| 2025-05-03T15:06:00 | 54.119981 | 8.030110 | 2.0 | 11.203 | 2 | 35.370 | 11.381 | 31.030 | 2 |
| 2025-05-03T15:07:00 | 54.119969 | 8.030141 | 2.0 | 11.207 | 2 | 35.381 | 11.384 | 31.039 | 2 |
| 2025-05-03T15:08:00 | 54.119941 | 8.030214 | 2.0 | 11.209 | 2 | 35.361 | 11.386 | 31.017 | 2 |
| 2025-05-03T15:09:00 | 54.119912 | 8.030258 | 2.0 | 11.209 | 2 | 35.387 | 11.387 | 31.042 | 2 |
| 2025-05-03T15:10:00 | 54.119885 | 8.030286 | 2.0 | 11.211 | 2 | 35.386 | 11.389 | 31.039 | 2 |
| 2025-05-03T15:11:00 | 54.119862 | 8.030321 | 2.0 | 11.211 | 2 | 35.371 | 11.389 | 31.025 | 2 |
| 2025-05-03T15:12:00 | 54.119844 | 8.030350 | 2.0 | 11.211 | 2 | 35.388 | 11.391 | 31.040 | 2 |
| 2025-05-03T15:13:00 | 54.119818 | 8.030370 | 2.0 | 11.214 | 2 | 35.391 | 11.390 | 31.043 | 2 |
| 2025-05-03T15:14:00 | 54.119775 | 8.030403 | 2.0 | 11.217 | 2 | 35.393 | 11.393 | 31.043 | 2 |
| 2025-05-03T15:15:00 | 54.119739 | 8.030449 | 2.0 | 11.219 | 2 | 35.395 | 11.394 | 31.044 | 2 |
| 2025-05-03T15:16:00 | 54.119729 | 8.030465 | 2.0 | 11.220 | 2 | 35.399 | 11.396 | 31.046 | 2 |
| 2025-05-03T15:17:00 | 54.119749 | 8.030408 | 2.0 | 11.212 | 2 | 35.399 | 11.393 | 31.049 | 2 |
| 2025-05-03T15:18:00 | 54.119803 | 8.030354 | 2.0 | 11.203 | 2 | 35.397 | 11.388 | 31.051 | 2 |
| 2025-05-03T15:19:00 | 54.119847 | 8.030381 | 2.0 | 11.202 | 2 | 35.393 | 11.377 | 31.056 | 2 |
| 2025-05-03T15:20:00 | 54.119882 | 8.030391 | 2.0 | 11.192 | 2 | 35.395 | 11.376 | 31.059 | 2 |
| 2025-05-03T15:21:00 | 54.119905 | 8.030376 | 2.0 | 11.194 | 2 | 35.393 | 11.369 | 31.063 | 2 |
| 2025-05-03T15:22:00 | 54.119931 | 8.030274 | 2.0 | 11.191 | 2 | 35.392 | 11.370 | 31.061 | 2 |
| 2025-05-03T15:23:00 | 54.119942 | 8.030164 | 2.0 | 11.190 | 2 | 35.390 | 11.366 | 31.063 | 2 |
| 2025-05-03T15:24:00 | 54.119965 | 8.030102 | 2.0 | 11.194 | 2 | 35.389 | 11.367 | 31.061 | 2 |
| 2025-05-03T15:25:00 | 54.119966 | 8.030104 | 2.0 | 11.187 | 2 | 35.393 | 11.369 | 31.063 | 2 |
| 2025-05-03T15:26:00 | 54.119981 | 8.030140 | 2.0 | 11.182 | 2 | 35.391 | 11.362 | 31.067 | 2 |
| 2025-05-03T15:27:00 | 54.119985 | 8.030209 | 2.0 | 11.199 | 2 | 35.390 | 11.364 | 31.064 | 2 |
| 2025-05-03T15:28:00 | 54.119984 | 8.030255 | 2.0 | 11.201 | 2 | 35.027 | 11.372 | 30.704 | 2 |
| 2025-05-03T15:29:00 | 54.120022 | 8.030255 | 2.0 | 11.200 | 2 | 35.404 | 11.377 | 31.067 | 2 |
| 2025-05-03T15:30:00 | 54.120046 | 8.030254 | 2.0 | 11.194 | 2 | 35.403 | 11.373 | 31.069 | 2 |
| 2025-05-03T15:31:00 | 54.120069 | 8.030231 | 2.0 | 11.186 | 2 | 35.049 | 11.367 | 30.730 | 2 |
| 2025-05-03T15:32:00 | 54.120069 | 8.030271 | 2.0 | 11.192 | 2 | 34.952 | 11.361 | 30.640 | 2 |
| 2025-05-03T15:33:00 | 54.120061 | 8.030313 | 2.0 | 11.189 | 2 | 35.209 | 11.367 | 30.885 | 2 |
| 2025-05-03T15:34:00 | 54.120062 | 8.030332 | 2.0 | 11.184 | 2 | 34.893 | 11.362 | 30.582 | 2 |
| 2025-05-03T15:35:00 | 54.120091 | 8.030325 | 2.0 | 11.202 | 2 | 35.307 | 11.362 | 30.985 | 2 |
| 2025-05-03T15:36:00 | 54.120115 | 8.030278 | 2.0 | 11.199 | 2 | 34.969 | 11.375 | 30.645 | 2 |
| 2025-05-03T15:37:00 | 54.120124 | 8.030197 | 2.0 | 11.200 | 2 | 35.389 | 11.374 | 31.055 | 2 |
| 2025-05-03T15:38:00 | 54.120087 | 8.030124 | 2.0 | 11.190 | 2 | 35.409 | 11.370 | 31.078 | 2 |
| 2025-05-03T15:39:00 | 54.120047 | 8.030071 | 2.0 | 11.184 | 2 | 35.406 | 11.363 | 31.081 | 2 |
| 2025-05-03T15:40:00 | 54.120011 | 8.030044 | 2.0 | 11.184 | 2 | 35.403 | 11.359 | 31.081 | 2 |
| 2025-05-03T15:41:00 | 54.120007 | 8.030040 | 2.0 | 11.189 | 2 | 35.401 | 11.360 | 31.078 | 2 |
| 2025-05-03T15:42:00 | 54.119994 | 8.030077 | 2.0 | 11.191 | 2 | 34.994 | 11.365 | 30.678 | 2 |
| 2025-05-03T15:43:00 | 54.119984 | 8.030118 | 2.0 | 11.189 | 2 | 35.404 | 11.366 | 31.076 | 2 |
| 2025-05-03T15:44:00 | 54.119989 | 8.030096 | 2.0 | 11.185 | 2 | 35.021 | 11.362 | 30.707 | 2 |
| 2025-05-03T15:45:00 | 54.120001 | 8.030047 | 2.0 | 11.187 | 2 | 34.755 | 11.360 | 30.449 | 2 |
| 2025-05-03T15:48:00 | 54.120036 | 8.030228 | 2.0 | 11.182 | 2 | 35.393 | 11.351 | 31.078 | 2 |
| 2025-05-03T15:49:00 | 54.120039 | 8.030200 | 2.0 | 11.175 | 2 | 35.395 | 11.354 | 31.077 | 2 |
| 2025-05-03T15:50:00 | 54.120018 | 8.030133 | 2.0 | 11.174 | 2 | 35.392 | 11.349 | 31.079 | 2 |
| 2025-05-03T15:51:00 | 54.120002 | 8.030022 | 2.0 | 11.176 | 2 | 35.389 | 11.347 | 31.078 | 2 |
| 2025-05-03T15:52:00 | 54.119951 | 8.030005 | 2.0 | 11.179 | 2 | 35.387 | 11.350 | 31.073 | 2 |
| 2025-05-03T15:53:00 | 54.119870 | 8.030081 | 2.0 | 11.178 | 2 | 35.393 | 11.352 | 31.077 | 2 |
| 2025-05-03T15:54:00 | 54.119794 | 8.030149 | 2.0 | 11.176 | 2 | 35.393 | 11.351 | 31.078 | 2 |
| 2025-05-03T15:55:00 | 54.119729 | 8.030196 | 2.0 | 11.173 | 2 | 35.393 | 11.349 | 31.080 | 2 |
| 2025-05-03T15:56:00 | 54.119703 | 8.030168 | 2.0 | 11.173 | 2 | 35.392 | 11.346 | 31.081 | 2 |
| 2025-05-03T15:57:00 | 54.119760 | 8.030082 | 2.0 | 11.167 | 2 | 35.392 | 11.345 | 31.082 | 2 |
| 2025-05-03T15:58:00 | 54.119859 | 8.030052 | 2.0 | 11.154 | 2 | 35.386 | 11.335 | 31.085 | 2 |
| 2025-05-03T15:59:00 | 54.119958 | 8.030092 | 2.0 | 11.155 | 2 | 35.382 | 11.330 | 31.085 | 2 |
| 2025-05-03T16:00:00 | 54.120051 | 8.030142 | 2.0 | 11.159 | 2 | 35.381 | 11.329 | 31.085 | 2 |
| 2025-05-03T16:01:00 | 54.120125 | 8.030167 | 2.0 | 11.153 | 2 | 35.381 | 11.329 | 31.085 | 2 |
| 2025-05-03T16:02:00 | 54.120183 | 8.030180 | 2.0 | 11.156 | 2 | 35.380 | 11.327 | 31.086 | 2 |
| 2025-05-03T16:03:00 | 54.120204 | 8.030185 | 2.0 | 11.153 | 2 | 35.381 | 11.327 | 31.087 | 2 |
| 2025-05-03T16:04:00 | 54.120187 | 8.030197 | 2.0 | 11.159 | 2 | 35.378 | 11.327 | 31.084 | 2 |
| 2025-05-03T16:05:00 | 54.120132 | 8.030259 | 2.0 | 11.161 | 2 | 35.387 | 11.334 | 31.087 | 2 |
| 2025-05-03T16:06:00 | 54.120045 | 8.030383 | 2.0 | 11.160 | 2 | 35.391 | 11.334 | 31.090 | 2 |
| 2025-05-03T16:07:00 | 54.119907 | 8.030479 | 2.0 | 11.159 | 2 | 35.387 | 11.332 | 31.088 | 2 |
| 2025-05-03T16:08:00 | 54.119821 | 8.030470 | 2.0 | 11.158 | 2 | 35.387 | 11.332 | 31.088 | 2 |
| 2025-05-03T16:09:00 | 54.119809 | 8.030374 | 2.0 | 11.160 | 2 | 35.388 | 11.331 | 31.090 | 2 |
| 2025-05-03T16:10:00 | 54.119846 | 8.030229 | 2.0 | 11.159 | 2 | 35.392 | 11.333 | 31.092 | 2 |
| 2025-05-03T16:11:00 | 54.119890 | 8.030142 | 2.0 | 11.154 | 2 | 35.391 | 11.331 | 31.093 | 2 |
| 2025-05-03T16:12:00 | 54.119922 | 8.030164 | 2.0 | 11.162 | 2 | 35.381 | 11.330 | 31.084 | 2 |
| 2025-05-03T16:13:00 | 54.119927 | 8.030215 | 2.0 | 11.156 | 2 | 35.125 | 11.333 | 30.832 | 2 |
| 2025-05-03T16:14:00 | 54.119954 | 8.030146 | 2.0 | 11.159 | 2 | 35.234 | 11.330 | 30.941 | 2 |
| 2025-05-03T16:15:00 | 54.120002 | 8.030083 | 2.0 | 11.160 | 2 | 35.386 | 11.332 | 31.087 | 2 |
| 2025-05-03T16:16:00 | 54.120013 | 8.030061 | 2.0 | 11.153 | 2 | 35.244 | 11.330 | 30.950 | 2 |
| 2025-05-03T16:17:00 | 54.119991 | 8.030100 | 2.0 | 11.145 | 2 | 35.233 | 11.324 | 30.945 | 2 |
| 2025-05-03T16:18:00 | 54.119915 | 8.030138 | 2.0 | 11.141 | 2 | 35.326 | 11.318 | 31.040 | 2 |
| 2025-05-03T16:19:00 | 54.119834 | 8.030067 | 2.0 | 11.139 | 2 | 35.316 | 11.313 | 31.035 | 2 |
| 2025-05-03T16:20:00 | 54.119759 | 8.030020 | 2.0 | 11.139 | 2 | 35.344 | 11.311 | 31.064 | 2 |
| 2025-05-03T16:21:00 | 54.119676 | 8.030034 | 2.0 | 11.141 | 2 | 35.242 | 11.312 | 30.964 | 2 |
| 2025-05-03T16:22:00 | 54.119553 | 8.030065 | 2.0 | 11.140 | 2 | 35.321 | 11.313 | 31.040 | 2 |
| 2025-05-03T16:23:00 | 54.119403 | 8.030118 | 2.0 | 11.137 | 2 | 35.251 | 11.311 | 30.973 | 2 |
| 2025-05-03T16:24:00 | 54.119244 | 8.030184 | 2.0 | 11.136 | 2 | 35.321 | 11.309 | 31.043 | 2 |
| 2025-05-03T16:25:00 | 54.119064 | 8.030205 | 2.0 | 11.132 | 2 | 35.335 | 11.307 | 31.059 | 2 |
| 2025-05-03T16:26:00 | 54.118916 | 8.030145 | 2.0 | 11.133 | 2 | 35.275 | 11.304 | 31.002 | 2 |
| 2025-05-03T16:27:00 | 54.118800 | 8.030055 | 2.0 | 11.132 | 2 | 35.332 | 11.306 | 31.056 | 2 |
| 2025-05-03T16:28:00 | 54.118668 | 8.030035 | 2.0 | 11.131 | 2 | 35.318 | 11.303 | 31.045 | 2 |
| 2025-05-03T16:29:00 | 54.118531 | 8.030003 | 2.0 | 11.130 | 2 | 35.289 | 11.302 | 31.018 | 2 |
| 2025-05-03T16:30:00 | 54.118449 | 8.029874 | 2.0 | 11.127 | 2 | 35.307 | 11.301 | 31.036 | 2 |
| 2025-05-03T16:31:00 | 54.118404 | 8.029665 | 2.0 | 11.129 | 2 | 35.314 | 11.299 | 31.045 | 2 |
| 2025-05-03T16:32:00 | 54.118384 | 8.029393 | 2.0 | 11.133 | 2 | 35.284 | 11.301 | 31.014 | 2 |
| 2025-05-03T16:33:00 | 54.118342 | 8.029134 | 2.0 | 11.137 | 2 | 35.342 | 11.306 | 31.066 | 2 |
| 2025-05-03T16:34:00 | 54.118264 | 8.028963 | 2.0 | 11.127 | 2 | 35.305 | 11.307 | 31.029 | 2 |
| 2025-05-03T16:35:00 | 54.118145 | 8.028869 | 2.0 | 11.121 | 2 | 35.366 | 11.299 | 31.096 | 2 |
| 2025-05-03T16:36:00 | 54.118046 | 8.028688 | 2.0 | 11.121 | 2 | 35.312 | 11.294 | 31.047 | 2 |
| 2025-05-03T16:37:00 | 54.117972 | 8.028489 | 2.0 | 11.126 | 2 | 35.345 | 11.295 | 31.078 | 2 |
| 2025-05-03T16:38:00 | 54.117881 | 8.028287 | 2.0 | 11.129 | 2 | 35.355 | 11.299 | 31.085 | 2 |
| 2025-05-03T16:39:00 | 54.117752 | 8.028150 | 2.0 | 11.131 | 2 | 35.347 | 11.301 | 31.075 | 2 |
| 2025-05-03T16:40:00 | 54.117597 | 8.028101 | 2.0 | 11.130 | 2 | 35.397 | 11.303 | 31.122 | 2 |
| 2025-05-03T16:41:00 | 54.117469 | 8.028094 | 2.0 | 11.131 | 2 | 35.403 | 11.302 | 31.129 | 2 |
| 2025-05-03T16:42:00 | 54.117328 | 8.028130 | 2.0 | 11.124 | 2 | 35.357 | 11.301 | 31.085 | 2 |
| 2025-05-03T16:43:00 | 54.117178 | 8.028144 | 2.0 | 11.109 | 2 | 35.356 | 11.290 | 31.093 | 2 |
| 2025-05-03T16:44:00 | 54.117050 | 8.027814 | 2.0 | 11.117 | 2 | 35.349 | 11.283 | 31.092 | 2 |
| 2025-05-03T16:45:00 | 54.116682 | 8.026571 | 2.0 | 11.111 | 2 | 35.355 | 11.286 | 31.096 | 2 |
| 2025-05-03T16:46:00 | 54.115645 | 8.025278 | 2.0 | 11.110 | 2 | 35.397 | 11.284 | 31.138 | 2 |
| 2025-05-03T16:47:00 | 54.114277 | 8.023779 | 2.0 | 11.108 | 2 | 35.421 | 11.281 | 31.164 | 2 |
| 2025-05-03T16:48:00 | 54.112645 | 8.022177 | 2.0 | 11.116 | 2 | 35.430 | 11.283 | 31.172 | 2 |
| 2025-05-03T16:49:00 | 54.110455 | 8.020416 | 2.0 | 11.134 | 2 | 35.438 | 11.292 | 31.172 | 2 |
| 2025-05-03T16:50:00 | 54.107905 | 8.018577 | 2.0 | 11.097 | 2 | 35.468 | 11.300 | 31.194 | 2 |
| 2025-05-03T16:51:00 | 54.105251 | 8.016602 | 2.0 | 11.069 | 2 | 35.424 | 11.268 | 31.178 | 2 |
| 2025-05-03T16:52:00 | 54.102578 | 8.014524 | 2.0 | 11.104 | 2 | 35.434 | 11.249 | 31.204 | 2 |
| 2025-05-03T16:53:00 | 54.099863 | 8.012488 | 2.0 | 11.060 | 2 | 35.491 | 11.280 | 31.234 | 2 |
| 2025-05-03T16:54:00 | 54.097158 | 8.010441 | 2.0 | 11.061 | 2 | 35.463 | 11.222 | 31.255 | 2 |
| 2025-05-03T16:55:00 | 54.094440 | 8.008362 | 2.0 | 11.096 | 2 | 35.503 | 11.253 | 31.268 | 2 |
| 2025-05-03T16:56:00 | 54.091727 | 8.006299 | 2.0 | 11.040 | 2 | 35.537 | 11.257 | 31.298 | 2 |
| 2025-05-03T16:57:00 | 54.089022 | 8.004248 | 2.0 | 11.059 | 2 | 35.523 | 11.225 | 31.312 | 2 |
| 2025-05-03T16:58:00 | 54.086306 | 8.002212 | 2.0 | 11.039 | 2 | 35.536 | 11.230 | 31.320 | 2 |
| 2025-05-03T16:59:00 | 54.083595 | 8.000116 | 2.0 | 11.003 | 2 | 35.519 | 11.213 | 31.318 | 2 |
| 2025-05-03T17:00:00 | 54.080853 | 7.998087 | 2.0 | 10.968 | 2 | 35.483 | 11.173 | 31.317 | 2 |
| 2025-05-03T17:01:00 | 54.078120 | 7.996000 | 2.0 | 10.974 | 2 | 35.461 | 11.149 | 31.315 | 2 |
| 2025-05-03T17:02:00 | 54.075387 | 7.993944 | 2.0 | 11.045 | 2 | 35.490 | 11.162 | 31.333 | 2 |
| 2025-05-03T17:03:00 | 54.072633 | 7.991837 | 2.0 | 11.046 | 2 | 35.584 | 11.220 | 31.376 | 2 |
| 2025-05-03T17:04:00 | 54.069870 | 7.989744 | 2.0 | 11.033 | 2 | 35.599 | 11.214 | 31.395 | 2 |
| 2025-05-03T17:05:00 | 54.067099 | 7.987646 | 2.0 | 11.036 | 2 | 35.598 | 11.211 | 31.397 | 2 |
| 2025-05-03T17:06:00 | 54.064323 | 7.985512 | 2.0 | 11.036 | 2 | 35.613 | 11.210 | 31.413 | 2 |
| 2025-05-03T17:07:00 | 54.061525 | 7.983398 | 2.0 | 10.872 | 2 | 35.649 | 11.194 | 31.461 | 2 |
| 2025-05-03T17:08:00 | 54.058731 | 7.981243 | 2.0 | 10.744 | 2 | 35.644 | 11.061 | 31.570 | 2 |
| 2025-05-03T17:09:00 | 54.055927 | 7.979148 | 2.0 | 10.604 | 2 | 35.601 | 10.869 | 31.694 | 2 |
| 2025-05-03T17:10:00 | 54.053127 | 7.977066 | 2.0 | 10.549 | 2 | 35.591 | 10.793 | 31.749 | 2 |
| 2025-05-03T17:11:00 | 54.050318 | 7.974950 | 2.0 | 10.484 | 2 | 35.611 | 10.724 | 31.829 | 2 |
| 2025-05-03T17:12:00 | 54.047537 | 7.972844 | 2.0 | 10.339 | 2 | 35.621 | 10.628 | 31.923 | 2 |
| 2025-05-03T17:13:00 | 54.044796 | 7.970667 | 2.0 | 10.160 | 2 | 35.599 | 10.505 | 32.009 | 2 |
| 2025-05-03T17:14:00 | 54.042022 | 7.968614 | 2.0 | 10.092 | 2 | 35.544 | 10.335 | 32.104 | 2 |
| 2025-05-03T17:15:00 | 54.039280 | 7.966461 | 2.0 | 10.323 | 2 | 35.536 | 10.331 | 32.099 | 2 |
| 2025-05-03T17:16:00 | 54.036525 | 7.964369 | 2.0 | 10.382 | 2 | 35.625 | 10.505 | 32.035 | 2 |
| 2025-05-03T17:17:00 | 54.033758 | 7.962349 | 2.0 | 10.443 | 2 | 35.690 | 10.568 | 32.044 | 2 |
| 2025-05-03T17:18:00 | 54.031004 | 7.960202 | 2.0 | 10.301 | 2 | 35.762 | 10.566 | 32.118 | 2 |
| 2025-05-03T17:19:00 | 54.028223 | 7.958114 | 2.0 | 10.260 | 2 | 35.730 | 10.478 | 32.164 | 2 |
| 2025-05-03T17:20:00 | 54.025455 | 7.955971 | 2.0 | 10.172 | 2 | 35.764 | 10.426 | 32.244 | 2 |
| 2025-05-03T17:21:00 | 54.022676 | 7.953929 | 2.0 | 10.352 | 2 | 35.751 | 10.372 | 32.279 | 2 |
| 2025-05-03T17:22:00 | 54.019906 | 7.951811 | 2.0 | 10.589 | 2 | 35.850 | 10.561 | 32.210 | 2 |
| 2025-05-03T17:23:00 | 54.017118 | 7.949711 | 2.0 | 10.737 | 2 | 36.014 | 10.782 | 32.179 | 2 |
| 2025-05-03T17:24:00 | 54.014312 | 7.947633 | 2.0 | 10.762 | 2 | 36.093 | 10.901 | 32.153 | 2 |
| 2025-05-03T17:25:00 | 54.011529 | 7.945506 | 2.0 | 10.809 | 2 | 36.145 | 10.940 | 32.170 | 2 |
| 2025-05-03T17:26:00 | 54.008730 | 7.943374 | 2.0 | 10.839 | 2 | 36.230 | 10.978 | 32.221 | 2 |
| 2025-05-03T17:27:00 | 54.005925 | 7.941286 | 2.0 | 10.889 | 2 | 36.282 | 11.018 | 32.237 | 2 |
| 2025-05-03T17:28:00 | 54.003103 | 7.939108 | 2.0 | 10.728 | 2 | 36.321 | 11.042 | 32.254 | 2 |
| 2025-05-03T17:29:00 | 54.000267 | 7.937025 | 2.0 | 10.478 | 2 | 36.304 | 10.883 | 32.377 | 2 |
| 2025-05-03T17:30:00 | 53.997461 | 7.934858 | 2.0 | 10.208 | 2 | 36.209 | 10.611 | 32.524 | 2 |
| 2025-05-03T17:31:00 | 53.994671 | 7.932706 | 2.0 | 10.139 | 2 | 36.106 | 10.391 | 32.618 | 2 |
| 2025-05-03T17:32:00 | 53.991881 | 7.930612 | 2.0 | 10.037 | 2 | 36.059 | 10.316 | 32.638 | 2 |
| 2025-05-03T17:33:00 | 53.989106 | 7.928501 | 2.0 | 9.718 | 2 | 35.965 | 10.147 | 32.696 | 2 |
| 2025-05-03T17:34:00 | 53.986355 | 7.926431 | 2.0 | 9.741 | 2 | 35.802 | 9.903 | 32.751 | 2 |
| 2025-05-03T17:35:00 | 53.983631 | 7.924311 | 2.0 | 9.624 | 2 | 35.802 | 9.936 | 32.721 | 2 |
| 2025-05-03T17:36:00 | 53.980925 | 7.922171 | 2.0 | 9.463 | 2 | 35.731 | 9.769 | 32.801 | 2 |
| 2025-05-03T17:37:00 | 53.978214 | 7.920151 | 2.0 | 9.397 | 2 | 35.658 | 9.672 | 32.815 | 2 |
| 2025-05-03T17:38:00 | 53.975557 | 7.918029 | 2.0 | 9.361 | 2 | 35.591 | 9.570 | 32.839 | 2 |
| 2025-05-03T17:39:00 | 53.972880 | 7.916081 | 2.0 | 9.413 | 2 | 35.573 | 9.557 | 32.833 | 2 |
| 2025-05-03T17:40:00 | 53.970197 | 7.914126 | 2.0 | 9.500 | 2 | 35.639 | 9.618 | 32.845 | 2 |
| 2025-05-03T17:41:00 | 53.967540 | 7.912052 | 2.0 | 9.434 | 2 | 35.703 | 9.675 | 32.858 | 2 |
| 2025-05-03T17:42:00 | 53.964891 | 7.910068 | 2.0 | 9.390 | 2 | 35.637 | 9.615 | 32.845 | 2 |
| 2025-05-03T17:43:00 | 53.962255 | 7.908051 | 2.0 | 9.434 | 2 | 35.586 | 9.576 | 32.829 | 2 |
| 2025-05-03T17:44:00 | 53.959605 | 7.906051 | 2.0 | 9.456 | 2 | 35.632 | 9.623 | 32.833 | 2 |
| 2025-05-03T17:45:00 | 53.956956 | 7.904064 | 2.0 | 9.497 | 2 | 35.649 | 9.642 | 32.833 | 2 |
| 2025-05-03T17:46:00 | 53.954307 | 7.902082 | 2.0 | 9.528 | 2 | 35.685 | 9.681 | 32.834 | 2 |
| 2025-05-03T17:47:00 | 53.951644 | 7.900097 | 2.0 | 9.626 | 2 | 35.721 | 9.727 | 32.829 | 2 |
| 2025-05-03T17:48:00 | 53.948940 | 7.898116 | 2.0 | 9.613 | 2 | 35.780 | 9.799 | 32.823 | 2 |
| 2025-05-03T17:49:00 | 53.946278 | 7.896027 | 2.0 | 9.593 | 2 | 35.775 | 9.795 | 32.822 | 2 |
| 2025-05-03T17:50:00 | 53.943601 | 7.893988 | 2.0 | 9.628 | 2 | 35.757 | 9.774 | 32.823 | 2 |
| 2025-05-03T17:51:00 | 53.940932 | 7.891982 | 2.0 | 9.543 | 2 | 35.776 | 9.805 | 32.814 | 2 |
| 2025-05-03T17:52:00 | 53.938297 | 7.889850 | 2.0 | 9.420 | 2 | 35.702 | 9.700 | 32.834 | 2 |
| 2025-05-03T17:53:00 | 53.935636 | 7.887852 | 2.0 | 9.375 | 2 | 35.049 | 9.599 | 32.258 | 2 |
| 2025-05-03T17:54:00 | 53.932981 | 7.885892 | 2.0 | 9.374 | 2 | 35.517 | 9.561 | 32.772 | 2 |
| 2025-05-03T17:55:00 | 53.930223 | 7.884491 | 2.0 | 9.390 | 2 | 35.509 | 9.560 | 32.764 | 2 |
| 2025-05-03T17:56:00 | 53.927400 | 7.884308 | 2.0 | 9.427 | 2 | 35.524 | 9.578 | 32.763 | 2 |
| 2025-05-03T17:57:00 | 53.924555 | 7.884057 | 2.0 | 9.446 | 2 | 35.562 | 9.613 | 32.770 | 2 |
| 2025-05-03T17:58:00 | 53.921711 | 7.883741 | 2.0 | 9.472 | 2 | 35.144 | 9.628 | 32.329 | 2 |
| 2025-05-03T17:59:00 | 53.918898 | 7.883438 | 2.0 | 9.494 | 2 | 35.523 | 9.654 | 32.693 | 2 |
| 2025-05-03T18:00:00 | 53.916101 | 7.883090 | 2.0 | 9.518 | 2 | 35.202 | 9.676 | 32.345 | 2 |
| 2025-05-03T18:01:00 | 53.913324 | 7.882758 | 2.0 | 9.545 | 2 | 35.233 | 9.701 | 32.354 | 2 |
| 2025-05-03T18:02:00 | 53.910595 | 7.882319 | 2.0 | 9.562 | 2 | 35.530 | 9.725 | 32.636 | 2 |
| 2025-05-03T18:03:00 | 53.907817 | 7.881886 | 2.0 | 9.579 | 2 | 35.178 | 9.742 | 32.261 | 2 |
| 2025-05-03T18:04:00 | 53.905021 | 7.881475 | 2.0 | 9.596 | 2 | 35.700 | 9.760 | 32.777 | 2 |
| 2025-05-03T18:05:00 | 53.902279 | 7.881015 | 2.0 | 9.608 | 2 | 35.543 | 9.777 | 32.602 | 2 |
| 2025-05-03T18:06:00 | 53.899687 | 7.880689 | 2.0 | 9.610 | 2 | 35.711 | 9.787 | 32.764 | 2 |
| 2025-05-03T18:07:00 | 53.897215 | 7.880312 | 2.0 | 9.624 | 2 | 35.710 | 9.792 | 32.758 | 2 |
| 2025-05-03T18:08:00 | 53.894805 | 7.879989 | 2.0 | 9.639 | 2 | 35.505 | 9.803 | 32.540 | 2 |
| 2025-05-03T18:09:00 | 53.892436 | 7.879597 | 2.0 | 9.655 | 2 | 35.724 | 9.819 | 32.748 | 2 |
| 2025-05-03T18:10:00 | 53.890234 | 7.879100 | 2.0 | 9.673 | 2 | 35.579 | 9.835 | 32.586 | 2 |
| 2025-05-03T18:11:00 | 53.888291 | 7.878639 | 2.0 | 9.681 | 2 | 35.747 | 9.851 | 32.742 | 2 |
| 2025-05-03T18:12:00 | 53.886514 | 7.878388 | 2.0 | 9.696 | 2 | 35.601 | 9.860 | 32.586 | 2 |
| 2025-05-03T18:13:00 | 53.884810 | 7.878175 | 2.0 | 9.703 | 2 | 35.763 | 9.873 | 32.739 | 2 |
| 2025-05-03T18:14:00 | 53.883151 | 7.877825 | 2.0 | 9.705 | 2 | 35.767 | 9.879 | 32.737 | 2 |
| 2025-05-03T18:15:00 | 53.881507 | 7.877484 | 2.0 | 9.706 | 2 | 35.604 | 9.881 | 32.570 | 2 |
| 2025-05-03T18:16:00 | 53.879793 | 7.877214 | 2.0 | 9.705 | 2 | 35.435 | 9.880 | 32.399 | 2 |
| 2025-05-03T18:17:00 | 53.877706 | 7.877026 | 2.0 | 9.706 | 2 | 35.446 | 9.881 | 32.409 | 2 |
| 2025-05-03T18:18:00 | 53.875200 | 7.876686 | 2.0 | 9.713 | 2 | 35.759 | 9.885 | 32.724 | 2 |
| 2025-05-03T18:19:00 | 53.872487 | 7.876105 | 2.0 | 9.732 | 2 | 35.684 | 9.894 | 32.639 | 2 |
| 2025-05-03T18:20:00 | 53.869683 | 7.875662 | 2.0 | 9.735 | 2 | 35.531 | 9.906 | 32.473 | 2 |
| 2025-05-04T18:44:00 | 53.811344 | 7.961139 | 2.0 | 11.288 | 2 | 37.039 | 11.628 | 32.445 | 2 |
| 2025-05-04T18:45:00 | 53.812750 | 7.956247 | 2.0 | 11.222 | 2 | 36.058 | 11.510 | 31.591 | 2 |
| 2025-05-04T18:46:00 | 53.814262 | 7.951002 | 2.0 | 11.163 | 2 | 36.671 | 11.425 | 32.263 | 2 |
| 2025-05-04T18:47:00 | 53.815835 | 7.945819 | 2.0 | 11.103 | 2 | 36.646 | 11.358 | 32.297 | 2 |
| 2025-05-04T18:48:00 | 53.817399 | 7.940549 | 2.0 | 11.073 | 2 | 36.722 | 11.297 | 32.425 | 2 |
| 2025-05-04T18:49:00 | 53.818987 | 7.935391 | 2.0 | 11.047 | 2 | 36.691 | 11.263 | 32.424 | 2 |
| 2025-05-04T18:50:00 | 53.820446 | 7.930358 | 2.0 | 11.017 | 2 | 36.658 | 11.230 | 32.421 | 2 |
| 2025-05-04T18:51:00 | 53.821891 | 7.925496 | 2.0 | 11.022 | 2 | 36.628 | 11.203 | 32.415 | 2 |
| 2025-05-04T18:52:00 | 53.823346 | 7.920660 | 2.0 | 11.067 | 2 | 36.615 | 11.208 | 32.398 | 2 |
| 2025-05-04T18:53:00 | 53.824770 | 7.915746 | 2.0 | 11.110 | 2 | 36.533 | 11.253 | 32.278 | 2 |
| 2025-05-04T18:54:00 | 53.826176 | 7.910673 | 2.0 | 11.123 | 2 | 36.613 | 11.286 | 32.328 | 2 |
| 2025-05-04T18:55:00 | 53.827654 | 7.905628 | 2.0 | 11.113 | 2 | 36.638 | 11.305 | 32.336 | 2 |
| 2025-05-04T18:56:00 | 53.829086 | 7.900643 | 2.0 | 11.035 | 2 | 36.632 | 11.280 | 32.352 | 2 |
| 2025-05-04T18:57:00 | 53.830509 | 7.895699 | 2.0 | 10.928 | 2 | 36.587 | 11.201 | 32.377 | 2 |
| 2025-05-04T18:58:00 | 53.831936 | 7.890890 | 2.0 | 10.909 | 2 | 36.524 | 11.105 | 32.399 | 2 |
| 2025-05-04T18:59:00 | 53.833416 | 7.886169 | 2.0 | 10.994 | 2 | 36.506 | 11.098 | 32.388 | 2 |
| 2025-05-04T19:00:00 | 53.835890 | 7.882876 | 2.0 | 11.130 | 2 | 36.560 | 11.201 | 32.350 | 2 |
| 2025-05-04T19:01:00 | 53.838867 | 7.881906 | 2.0 | 11.123 | 2 | 36.641 | 11.327 | 32.319 | 2 |
| 2025-05-04T19:02:00 | 53.841868 | 7.882127 | 2.0 | 10.496 | 2 | 36.435 | 11.242 | 32.191 | 2 |
| 2025-05-04T19:03:00 | 53.844886 | 7.882307 | 2.0 | 10.350 | 2 | 36.092 | 10.670 | 32.355 | 2 |
| 2025-05-04T19:04:00 | 53.847841 | 7.882556 | 2.0 | 10.231 | 2 | 36.156 | 10.526 | 32.547 | 2 |
| 2025-05-04T19:05:00 | 53.850844 | 7.882674 | 2.0 | 10.213 | 2 | 35.718 | 10.406 | 32.215 | 2 |
| 2025-05-04T19:06:00 | 53.853783 | 7.882767 | 2.0 | 10.359 | 2 | 36.022 | 10.426 | 32.502 | 2 |
| 2025-05-04T19:07:00 | 53.856596 | 7.882903 | 2.0 | 10.352 | 2 | 36.153 | 10.542 | 32.530 | 2 |
| 2025-05-04T19:08:00 | 53.859518 | 7.882709 | 2.0 | 10.208 | 2 | 35.756 | 10.514 | 32.158 | 2 |
| 2025-05-04T19:09:00 | 53.862432 | 7.882526 | 2.0 | 10.109 | 2 | 35.955 | 10.371 | 32.484 | 2 |
| 2025-05-04T19:10:00 | 53.865305 | 7.882558 | 2.0 | 10.098 | 2 | 35.661 | 10.293 | 32.258 | 2 |
| 2025-05-04T19:11:00 | 53.868207 | 7.882633 | 2.0 | 10.020 | 2 | 35.841 | 10.280 | 32.451 | 2 |
| 2025-05-04T19:12:00 | 53.871148 | 7.882743 | 2.0 | 9.828 | 2 | 35.710 | 10.162 | 32.425 | 2 |
| 2025-05-04T19:13:00 | 53.874066 | 7.882699 | 2.0 | 9.807 | 2 | 35.611 | 10.021 | 32.451 | 2 |
| 2025-05-04T19:14:00 | 53.876943 | 7.882679 | 2.0 | 9.790 | 2 | 35.422 | 9.992 | 32.285 | 2 |
| 2025-05-04T19:15:00 | 53.879776 | 7.882672 | 2.0 | 9.778 | 2 | 35.548 | 9.972 | 32.431 | 2 |
| 2025-05-04T19:16:00 | 53.882662 | 7.882753 | 2.0 | 9.767 | 2 | 35.545 | 9.959 | 32.440 | 2 |
| 2025-05-04T19:17:00 | 53.885528 | 7.882769 | 2.0 | 9.759 | 2 | 35.430 | 9.948 | 32.333 | 2 |
| 2025-05-04T19:18:00 | 53.888427 | 7.882856 | 2.0 | 9.752 | 2 | 35.565 | 9.940 | 32.477 | 2 |
| 2025-05-04T19:19:00 | 53.891387 | 7.882885 | 2.0 | 9.748 | 2 | 35.335 | 9.933 | 32.250 | 2 |
| 2025-05-04T19:20:00 | 53.894326 | 7.882841 | 2.0 | 9.744 | 2 | 35.387 | 9.929 | 32.306 | 2 |
| 2025-05-04T19:21:00 | 53.897298 | 7.882900 | 2.0 | 9.743 | 2 | 35.463 | 9.925 | 32.387 | 2 |
| 2025-05-04T19:22:00 | 53.900268 | 7.882906 | 2.0 | 9.748 | 2 | 35.501 | 9.926 | 32.425 | 2 |
| 2025-05-04T19:23:00 | 53.903211 | 7.882882 | 2.0 | 9.750 | 2 | 35.728 | 9.929 | 32.652 | 2 |
| 2025-05-04T19:24:00 | 53.906178 | 7.882862 | 2.0 | 9.758 | 2 | 35.559 | 9.932 | 32.478 | 2 |
| 2025-05-04T19:25:00 | 53.909067 | 7.882859 | 2.0 | 9.764 | 2 | 35.746 | 9.938 | 32.663 | 2 |
| 2025-05-04T19:26:00 | 53.911992 | 7.882922 | 2.0 | 9.772 | 2 | 35.512 | 9.944 | 32.420 | 2 |
| 2025-05-04T19:27:00 | 53.914938 | 7.883007 | 2.0 | 9.779 | 2 | 35.556 | 9.953 | 32.456 | 2 |
| 2025-05-04T19:28:00 | 53.917940 | 7.882949 | 2.0 | 9.789 | 2 | 35.593 | 9.959 | 32.488 | 2 |
| 2025-05-04T19:29:00 | 53.920944 | 7.883055 | 2.0 | 9.799 | 2 | 35.671 | 9.969 | 32.558 | 2 |
| 2025-05-04T19:30:00 | 53.923908 | 7.883093 | 2.0 | 9.806 | 2 | 35.703 | 9.978 | 32.583 | 2 |
| 2025-05-04T19:31:00 | 53.926872 | 7.883125 | 2.0 | 9.807 | 2 | 35.654 | 9.984 | 32.528 | 2 |
| 2025-05-04T19:32:00 | 53.929744 | 7.883472 | 2.0 | 9.800 | 2 | 35.736 | 9.983 | 32.612 | 2 |
| 2025-05-04T19:33:00 | 53.932638 | 7.884103 | 2.0 | 9.755 | 2 | 35.547 | 9.974 | 32.428 | 2 |
| 2025-05-04T19:34:00 | 53.935552 | 7.884719 | 2.0 | 9.744 | 2 | 35.636 | 9.934 | 32.554 | 2 |
| 2025-05-04T19:35:00 | 53.938479 | 7.885559 | 2.0 | 9.735 | 2 | 35.586 | 9.922 | 32.515 | 2 |
| 2025-05-04T19:36:00 | 53.941423 | 7.886385 | 2.0 | 9.725 | 2 | 35.528 | 9.914 | 32.463 | 2 |
| 2025-05-04T19:37:00 | 53.944361 | 7.887111 | 2.0 | 9.680 | 2 | 35.319 | 9.898 | 32.265 | 2 |
| 2025-05-04T19:38:00 | 53.947241 | 7.887857 | 2.0 | 9.655 | 2 | 35.441 | 9.854 | 32.428 | 2 |
| 2025-05-04T19:39:00 | 53.950111 | 7.888509 | 2.0 | 9.627 | 2 | 35.406 | 9.832 | 32.413 | 2 |
| 2025-05-04T19:40:00 | 53.952966 | 7.889198 | 2.0 | 9.591 | 2 | 35.462 | 9.798 | 32.500 | 2 |
| 2025-05-04T19:41:00 | 53.955762 | 7.889880 | 2.0 | 9.655 | 2 | 35.475 | 9.787 | 32.523 | 2 |
| 2025-05-04T19:42:00 | 53.958528 | 7.890414 | 2.0 | 9.639 | 2 | 35.490 | 9.828 | 32.502 | 2 |
| 2025-05-04T19:43:00 | 53.961322 | 7.891121 | 2.0 | 9.682 | 2 | 35.446 | 9.818 | 32.466 | 2 |
| 2025-05-04T19:44:00 | 53.964159 | 7.891834 | 2.0 | 9.916 | 2 | 35.416 | 9.924 | 32.340 | 2 |
| 2025-05-04T19:45:00 | 53.966950 | 7.892604 | 2.0 | 9.938 | 2 | 35.397 | 10.081 | 32.181 | 2 |
| 2025-05-04T19:46:00 | 53.969770 | 7.893314 | 2.0 | 9.950 | 2 | 35.255 | 10.112 | 32.010 | 2 |
| 2025-05-04T19:47:00 | 53.972600 | 7.894039 | 2.0 | 9.968 | 2 | 35.356 | 10.125 | 32.100 | 2 |
| 2025-05-04T19:48:00 | 53.975376 | 7.894751 | 2.0 | 9.982 | 2 | 35.352 | 10.144 | 32.079 | 2 |
| 2025-05-04T19:49:00 | 53.978146 | 7.895477 | 2.0 | 9.985 | 2 | 35.367 | 10.158 | 32.082 | 2 |
| 2025-05-04T19:50:00 | 53.980940 | 7.896226 | 2.0 | 9.983 | 2 | 35.363 | 10.158 | 32.078 | 2 |
| 2025-05-04T19:51:00 | 53.983749 | 7.896852 | 2.0 | 9.995 | 2 | 35.358 | 10.159 | 32.072 | 2 |
| 2025-05-04T19:52:00 | 53.986585 | 7.897521 | 2.0 | 10.020 | 2 | 35.334 | 10.173 | 32.036 | 2 |
| 2025-05-04T19:53:00 | 53.989427 | 7.898280 | 2.0 | 10.041 | 2 | 35.291 | 10.197 | 31.971 | 2 |
| 2025-05-04T19:54:00 | 53.992280 | 7.898967 | 2.0 | 10.052 | 2 | 35.269 | 10.215 | 31.933 | 2 |
| 2025-05-04T19:55:00 | 53.995130 | 7.899689 | 2.0 | 10.072 | 2 | 35.267 | 10.227 | 31.921 | 2 |
| 2025-05-04T19:56:00 | 53.997959 | 7.900360 | 2.0 | 10.084 | 2 | 35.254 | 10.246 | 31.891 | 2 |
| 2025-05-04T19:57:00 | 54.000785 | 7.901077 | 2.0 | 10.091 | 2 | 35.247 | 10.259 | 31.872 | 2 |
| 2025-05-04T19:58:00 | 54.003628 | 7.901797 | 2.0 | 10.095 | 2 | 35.236 | 10.266 | 31.855 | 2 |
| 2025-05-04T19:59:00 | 54.006450 | 7.902474 | 2.0 | 10.092 | 2 | 35.200 | 10.269 | 31.816 | 2 |
| 2025-05-04T20:00:00 | 54.009276 | 7.903134 | 2.0 | 10.087 | 2 | 35.192 | 10.266 | 31.811 | 2 |
| 2025-05-04T20:01:00 | 54.012128 | 7.903867 | 2.0 | 10.088 | 2 | 35.139 | 10.260 | 31.763 | 2 |
| 2025-05-04T20:02:00 | 54.014983 | 7.904607 | 2.0 | 10.088 | 2 | 35.105 | 10.262 | 31.727 | 2 |
| 2025-05-04T20:03:00 | 54.017847 | 7.905297 | 2.0 | 10.094 | 2 | 35.095 | 10.262 | 31.717 | 2 |
| 2025-05-04T20:04:00 | 54.020712 | 7.906036 | 2.0 | 10.095 | 2 | 35.084 | 10.268 | 31.701 | 2 |
| 2025-05-04T20:05:00 | 54.023561 | 7.906782 | 2.0 | 10.092 | 2 | 35.090 | 10.268 | 31.707 | 2 |
| 2025-05-04T20:06:00 | 54.026425 | 7.907449 | 2.0 | 10.094 | 2 | 35.069 | 10.266 | 31.688 | 2 |
| 2025-05-04T20:07:00 | 54.029266 | 7.908194 | 2.0 | 10.089 | 2 | 35.057 | 10.266 | 31.676 | 2 |
| 2025-05-04T20:08:00 | 54.032131 | 7.908896 | 2.0 | 10.091 | 2 | 35.046 | 10.263 | 31.667 | 2 |
| 2025-05-04T20:09:00 | 54.034999 | 7.909600 | 2.0 | 10.098 | 2 | 35.031 | 10.267 | 31.649 | 2 |
| 2025-05-04T20:10:00 | 54.037884 | 7.910291 | 2.0 | 10.099 | 2 | 35.026 | 10.272 | 31.639 | 2 |
| 2025-05-04T20:11:00 | 54.040762 | 7.910937 | 2.0 | 10.095 | 2 | 35.019 | 10.272 | 31.632 | 2 |
| 2025-05-04T20:12:00 | 54.043631 | 7.911697 | 2.0 | 10.117 | 2 | 35.018 | 10.270 | 31.633 | 2 |
| 2025-05-04T20:13:00 | 54.046447 | 7.912423 | 2.0 | 10.145 | 2 | 35.020 | 10.297 | 31.611 | 2 |
| 2025-05-04T20:14:00 | 54.049224 | 7.913090 | 2.0 | 10.153 | 2 | 35.013 | 10.319 | 31.585 | 2 |
| 2025-05-04T20:15:00 | 54.052055 | 7.913779 | 2.0 | 10.167 | 2 | 35.003 | 10.326 | 31.569 | 2 |
| 2025-05-04T20:16:00 | 54.054926 | 7.914462 | 2.0 | 10.234 | 2 | 34.998 | 10.355 | 31.539 | 2 |
| 2025-05-04T20:17:00 | 54.057726 | 7.915195 | 2.0 | 10.248 | 2 | 35.011 | 10.403 | 31.510 | 2 |
| 2025-05-04T20:18:00 | 54.060521 | 7.915901 | 2.0 | 10.252 | 2 | 35.020 | 10.417 | 31.507 | 2 |
| 2025-05-04T20:19:00 | 54.063344 | 7.916601 | 2.0 | 10.278 | 2 | 35.024 | 10.430 | 31.500 | 2 |
| 2025-05-04T20:20:00 | 54.066186 | 7.917334 | 2.0 | 10.283 | 2 | 35.034 | 10.450 | 31.493 | 2 |
| 2025-05-04T20:21:00 | 54.069002 | 7.918032 | 2.0 | 10.299 | 2 | 35.034 | 10.455 | 31.488 | 2 |
| 2025-05-04T20:22:00 | 54.071829 | 7.918673 | 2.0 | 10.358 | 2 | 35.043 | 10.481 | 31.475 | 2 |
| 2025-05-04T20:23:00 | 54.074655 | 7.919427 | 2.0 | 10.388 | 2 | 35.065 | 10.529 | 31.455 | 2 |
| 2025-05-04T20:24:00 | 54.077481 | 7.920215 | 2.0 | 10.396 | 2 | 35.077 | 10.557 | 31.443 | 2 |
| 2025-05-04T20:25:00 | 54.080314 | 7.920876 | 2.0 | 10.402 | 2 | 35.080 | 10.567 | 31.437 | 2 |
| 2025-05-04T20:26:00 | 54.083134 | 7.921500 | 2.0 | 10.397 | 2 | 35.082 | 10.572 | 31.435 | 2 |
| 2025-05-04T20:27:00 | 54.085921 | 7.922118 | 2.0 | 10.387 | 2 | 34.980 | 10.564 | 31.341 | 2 |
| 2025-05-04T20:28:00 | 54.088663 | 7.922874 | 2.0 | 10.410 | 2 | 34.750 | 10.561 | 31.114 | 2 |
| 2025-05-04T20:29:00 | 54.091436 | 7.923617 | 2.0 | 10.408 | 2 | 34.866 | 10.581 | 31.213 | 2 |
| 2025-05-04T20:30:00 | 54.094218 | 7.924329 | 2.0 | 10.408 | 2 | 35.093 | 10.579 | 31.440 | 2 |
| 2025-05-04T20:31:00 | 54.097007 | 7.925013 | 2.0 | 10.409 | 2 | 34.443 | 10.579 | 30.794 | 2 |
| 2025-05-04T20:32:00 | 54.099783 | 7.925663 | 2.0 | 10.386 | 2 | 34.849 | 10.579 | 31.197 | 2 |
| 2025-05-04T20:33:00 | 54.102573 | 7.926341 | 2.0 | 10.338 | 2 | 35.012 | 10.552 | 31.383 | 2 |
| 2025-05-04T20:34:00 | 54.105358 | 7.927059 | 2.0 | 10.290 | 2 | 34.608 | 10.502 | 31.024 | 2 |
| 2025-05-04T20:35:00 | 54.108143 | 7.927804 | 2.0 | 10.278 | 2 | 34.574 | 10.465 | 31.021 | 2 |
| 2025-05-04T20:36:00 | 54.110912 | 7.928492 | 2.0 | 10.301 | 2 | 34.478 | 10.455 | 30.934 | 2 |
| 2025-05-04T20:37:00 | 54.113683 | 7.929086 | 2.0 | 10.329 | 2 | 35.039 | 10.479 | 31.473 | 2 |
| 2025-05-04T20:38:00 | 54.116460 | 7.929742 | 2.0 | 10.349 | 2 | 35.064 | 10.506 | 31.474 | 2 |
| 2025-05-04T20:39:00 | 54.119222 | 7.930467 | 2.0 | 10.336 | 2 | 34.750 | 10.519 | 31.150 | 2 |
| 2025-05-04T20:40:00 | 54.121980 | 7.931146 | 2.0 | 10.310 | 2 | 35.091 | 10.505 | 31.502 | 2 |
| 2025-05-04T20:41:00 | 54.124764 | 7.931862 | 2.0 | 10.275 | 2 | 35.028 | 10.480 | 31.461 | 2 |
| 2025-05-04T20:42:00 | 54.127552 | 7.932563 | 2.0 | 10.206 | 2 | 35.075 | 10.440 | 31.542 | 2 |
| 2025-05-04T20:43:00 | 54.130344 | 7.933148 | 2.0 | 10.195 | 2 | 34.991 | 10.382 | 31.509 | 2 |
| 2025-05-04T20:44:00 | 54.133128 | 7.933872 | 2.0 | 10.184 | 2 | 35.021 | 10.370 | 31.549 | 2 |
| 2025-05-04T20:45:00 | 54.135903 | 7.934625 | 2.0 | 10.172 | 2 | 34.798 | 10.357 | 31.337 | 2 |
| 2025-05-04T20:46:00 | 54.138674 | 7.935385 | 2.0 | 10.160 | 2 | 34.630 | 10.344 | 31.181 | 2 |
| 2025-05-04T20:47:00 | 54.141452 | 7.936043 | 2.0 | 10.210 | 2 | 34.745 | 10.336 | 31.302 | 2 |
| 2025-05-04T20:48:00 | 54.144222 | 7.936735 | 2.0 | 10.358 | 2 | 34.793 | 10.413 | 31.284 | 2 |
| 2025-05-04T20:49:00 | 54.146953 | 7.937488 | 2.0 | 10.404 | 2 | 34.849 | 10.527 | 31.242 | 2 |
| 2025-05-04T20:50:00 | 54.149701 | 7.938130 | 2.0 | 10.430 | 2 | 34.845 | 10.579 | 31.193 | 2 |
| 2025-05-04T20:51:00 | 54.152460 | 7.938830 | 2.0 | 10.439 | 2 | 34.738 | 10.601 | 31.068 | 2 |
| 2025-05-04T20:52:00 | 54.155241 | 7.939585 | 2.0 | 10.432 | 2 | 34.409 | 10.604 | 30.740 | 2 |
| 2025-05-04T20:53:00 | 54.158050 | 7.940231 | 2.0 | 10.419 | 2 | 34.817 | 10.598 | 31.149 | 2 |
| 2025-05-04T20:54:00 | 54.160882 | 7.940949 | 2.0 | 10.392 | 2 | 34.707 | 10.591 | 31.046 | 2 |
| 2025-05-04T20:55:00 | 54.163724 | 7.941697 | 2.0 | 10.330 | 2 | 34.588 | 10.555 | 30.959 | 2 |
| 2025-05-04T20:56:00 | 54.166562 | 7.942453 | 2.0 | 10.315 | 2 | 34.565 | 10.502 | 30.981 | 2 |
| 2025-05-04T20:57:00 | 54.169393 | 7.943221 | 2.0 | 10.256 | 2 | 34.875 | 10.482 | 31.306 | 2 |
| 2025-05-04T20:58:00 | 54.172260 | 7.943746 | 2.0 | 10.247 | 2 | 34.908 | 10.425 | 31.388 | 2 |
| 2025-05-04T20:59:00 | 54.175101 | 7.944402 | 2.0 | 10.272 | 2 | 34.919 | 10.426 | 31.399 | 2 |
| 2025-05-04T21:00:00 | 54.177900 | 7.945209 | 2.0 | 10.244 | 2 | 34.798 | 10.426 | 31.278 | 2 |
| 2025-05-04T21:01:00 | 54.180729 | 7.945903 | 2.0 | 10.261 | 2 | 34.971 | 10.425 | 31.451 | 2 |
| 2025-05-04T21:02:00 | 54.183552 | 7.946671 | 2.0 | 10.266 | 2 | 35.030 | 10.415 | 31.519 | 2 |
| 2025-05-04T21:03:00 | 54.186406 | 7.947332 | 2.0 | 10.259 | 2 | 35.105 | 10.435 | 31.577 | 2 |
| 2025-05-04T21:04:00 | 54.189268 | 7.948066 | 2.0 | 10.250 | 2 | 34.986 | 10.431 | 31.461 | 2 |
| 2025-05-04T21:05:00 | 54.192143 | 7.948780 | 2.0 | 10.237 | 2 | 34.963 | 10.420 | 31.448 | 2 |
| 2025-05-04T21:06:00 | 54.195020 | 7.949437 | 2.0 | 10.237 | 2 | 35.096 | 10.411 | 31.588 | 2 |
| 2025-05-04T21:07:00 | 54.197904 | 7.950103 | 2.0 | 10.231 | 2 | 34.992 | 10.408 | 31.487 | 2 |
| 2025-05-04T21:08:00 | 54.200794 | 7.950869 | 2.0 | 10.231 | 2 | 34.906 | 10.405 | 31.404 | 2 |
| 2025-05-04T21:09:00 | 54.203724 | 7.951561 | 2.0 | 10.196 | 2 | 34.839 | 10.397 | 31.344 | 2 |
| 2025-05-04T21:10:00 | 54.206643 | 7.952231 | 2.0 | 10.205 | 2 | 34.841 | 10.370 | 31.369 | 2 |
| 2025-05-04T21:11:00 | 54.209538 | 7.952966 | 2.0 | 10.201 | 2 | 34.804 | 10.378 | 31.325 | 2 |
| 2025-05-04T21:12:00 | 54.212480 | 7.953702 | 2.0 | 10.198 | 2 | 34.684 | 10.374 | 31.209 | 2 |
| 2025-05-04T21:13:00 | 54.215421 | 7.954453 | 2.0 | 10.182 | 2 | 34.703 | 10.371 | 31.230 | 2 |
| 2025-05-04T21:14:00 | 54.218364 | 7.955187 | 2.0 | 10.167 | 2 | 34.684 | 10.356 | 31.224 | 2 |
| 2025-05-04T21:15:00 | 54.221326 | 7.955864 | 2.0 | 10.157 | 2 | 34.697 | 10.339 | 31.252 | 2 |
| 2025-05-04T21:16:00 | 54.224272 | 7.956602 | 2.0 | 10.001 | 2 | 34.685 | 10.314 | 31.261 | 2 |
| 2025-05-04T21:17:00 | 54.227102 | 7.956124 | 2.0 | 9.919 | 2 | 34.966 | 10.144 | 31.691 | 2 |
| 2025-05-04T21:18:00 | 54.230002 | 7.955658 | 2.0 | 9.944 | 2 | 34.914 | 10.112 | 31.666 | 2 |
| 2025-05-04T21:19:00 | 54.232977 | 7.955185 | 2.0 | 9.998 | 2 | 34.884 | 10.136 | 31.615 | 2 |
| 2025-05-04T21:20:00 | 54.235967 | 7.954665 | 2.0 | 10.094 | 2 | 34.860 | 10.183 | 31.550 | 2 |
| 2025-05-04T21:21:00 | 54.238929 | 7.954138 | 2.0 | 10.140 | 2 | 34.672 | 10.268 | 31.288 | 2 |
| 2025-05-04T21:22:00 | 54.241897 | 7.953604 | 2.0 | 10.144 | 2 | 34.441 | 10.302 | 31.028 | 2 |
| 2025-05-04T21:23:00 | 54.244844 | 7.953096 | 2.0 | 10.210 | 2 | 34.606 | 10.322 | 31.175 | 2 |
| 2025-05-04T21:24:00 | 54.247765 | 7.952548 | 2.0 | 10.247 | 2 | 34.257 | 10.382 | 30.776 | 2 |
| 2025-05-04T21:25:00 | 54.250725 | 7.952095 | 2.0 | 10.351 | 2 | 34.389 | 10.435 | 30.863 | 2 |
| 2025-05-04T21:26:00 | 54.253702 | 7.951547 | 2.0 | 10.451 | 2 | 34.485 | 10.530 | 30.878 | 2 |
| 2025-05-04T21:27:00 | 54.256686 | 7.951010 | 2.0 | 10.541 | 2 | 34.316 | 10.629 | 30.626 | 2 |
| 2025-05-04T21:28:00 | 54.259666 | 7.950458 | 2.0 | 10.579 | 2 | 34.515 | 10.708 | 30.757 | 2 |
| 2025-05-04T21:29:00 | 54.262619 | 7.949906 | 2.0 | 10.615 | 2 | 34.363 | 10.751 | 30.571 | 2 |
| 2025-05-04T21:30:00 | 54.265588 | 7.949398 | 2.0 | 10.648 | 2 | 34.464 | 10.789 | 30.639 | 2 |
| 2025-05-04T21:31:00 | 54.268542 | 7.948903 | 2.0 | 10.661 | 2 | 34.288 | 10.817 | 30.442 | 2 |
| 2025-05-04T21:32:00 | 54.271496 | 7.948339 | 2.0 | 10.673 | 2 | 34.449 | 10.831 | 30.589 | 2 |
| 2025-05-04T21:33:00 | 54.274459 | 7.947786 | 2.0 | 10.682 | 2 | 34.289 | 10.844 | 30.420 | 2 |
| 2025-05-04T21:34:00 | 54.277464 | 7.947281 | 2.0 | 10.680 | 2 | 34.399 | 10.851 | 30.523 | 2 |
| 2025-05-04T21:35:00 | 54.280494 | 7.946833 | 2.0 | 10.670 | 2 | 34.413 | 10.850 | 30.538 | 2 |
| 2025-05-04T21:36:00 | 54.283516 | 7.946229 | 2.0 | 10.650 | 2 | 34.155 | 10.838 | 30.294 | 2 |
| 2025-05-04T21:37:00 | 54.286545 | 7.945596 | 2.0 | 10.614 | 2 | 34.357 | 10.815 | 30.512 | 2 |
| 2025-05-04T21:38:00 | 54.289550 | 7.945052 | 2.0 | 10.675 | 2 | 34.447 | 10.793 | 30.619 | 2 |
| 2025-05-04T21:39:00 | 54.292520 | 7.944423 | 2.0 | 10.698 | 2 | 34.401 | 10.844 | 30.531 | 2 |
| 2025-05-04T21:40:00 | 54.295508 | 7.943958 | 2.0 | 10.691 | 2 | 34.550 | 10.866 | 30.659 | 2 |
| 2025-05-04T21:41:00 | 54.298487 | 7.943499 | 2.0 | 10.687 | 2 | 34.476 | 10.860 | 30.591 | 2 |
| 2025-05-04T21:42:00 | 54.301488 | 7.942985 | 2.0 | 10.691 | 2 | 34.571 | 10.856 | 30.688 | 2 |
| 2025-05-04T21:43:00 | 54.304499 | 7.942485 | 2.0 | 10.743 | 2 | 34.432 | 10.871 | 30.539 | 2 |
| 2025-05-04T21:44:00 | 54.307492 | 7.941963 | 2.0 | 10.800 | 2 | 34.353 | 10.918 | 30.422 | 2 |
| 2025-05-04T21:45:00 | 54.310406 | 7.941416 | 2.0 | 10.898 | 2 | 34.425 | 10.979 | 30.442 | 2 |
| 2025-05-04T21:46:00 | 54.313355 | 7.940914 | 2.0 | 10.968 | 2 | 34.572 | 11.071 | 30.510 | 2 |
| 2025-05-04T21:47:00 | 54.316326 | 7.940404 | 2.0 | 10.999 | 2 | 34.498 | 11.136 | 30.384 | 2 |
| 2025-05-04T21:48:00 | 54.319241 | 7.939852 | 2.0 | 11.007 | 2 | 34.593 | 11.165 | 30.453 | 2 |
| 2025-05-04T21:49:00 | 54.322148 | 7.939323 | 2.0 | 11.028 | 2 | 34.694 | 11.177 | 30.541 | 2 |
| 2025-05-04T21:50:00 | 54.325101 | 7.938751 | 2.0 | 11.069 | 2 | 34.651 | 11.203 | 30.478 | 2 |
| 2025-05-04T21:51:00 | 54.328044 | 7.938191 | 2.0 | 11.087 | 2 | 34.716 | 11.237 | 30.513 | 2 |
| 2025-05-04T21:52:00 | 54.330947 | 7.937680 | 2.0 | 11.097 | 2 | 34.673 | 11.253 | 30.458 | 2 |
| 2025-05-04T21:53:00 | 54.333843 | 7.937138 | 2.0 | 11.100 | 2 | 34.647 | 11.264 | 30.423 | 2 |
| 2025-05-04T21:54:00 | 54.336718 | 7.936698 | 2.0 | 11.096 | 2 | 34.705 | 11.268 | 30.477 | 2 |
| 2025-05-04T21:55:00 | 54.339607 | 7.936197 | 2.0 | 11.084 | 2 | 34.718 | 11.261 | 30.495 | 2 |
| 2025-05-04T21:56:00 | 54.342529 | 7.935656 | 2.0 | 11.072 | 2 | 34.702 | 11.248 | 30.490 | 2 |
| 2025-05-04T21:57:00 | 54.345435 | 7.935121 | 2.0 | 11.095 | 2 | 34.752 | 11.247 | 30.540 | 2 |
| 2025-05-04T21:58:00 | 54.348340 | 7.934589 | 2.0 | 11.097 | 2 | 34.701 | 11.261 | 30.479 | 2 |
| 2025-05-04T21:59:00 | 54.351211 | 7.934134 | 2.0 | 11.097 | 2 | 34.780 | 11.262 | 30.555 | 2 |
| 2025-05-04T22:00:00 | 54.354092 | 7.933648 | 2.0 | 11.075 | 2 | 34.773 | 11.264 | 30.546 | 2 |
| 2025-05-04T22:01:00 | 54.356943 | 7.933164 | 2.0 | 11.062 | 2 | 34.763 | 11.242 | 30.555 | 2 |
| 2025-05-04T22:02:00 | 54.359746 | 7.932619 | 2.0 | 10.955 | 2 | 34.768 | 11.214 | 30.583 | 2 |
| 2025-05-04T22:03:00 | 54.362551 | 7.932104 | 2.0 | 10.882 | 2 | 34.814 | 11.119 | 30.707 | 2 |
| 2025-05-04T22:04:00 | 54.365387 | 7.931585 | 2.0 | 10.840 | 2 | 34.823 | 11.048 | 30.775 | 2 |
| 2025-05-04T22:05:00 | 54.368226 | 7.930991 | 2.0 | 10.804 | 2 | 34.838 | 11.010 | 30.822 | 2 |
| 2025-05-04T22:06:00 | 54.371013 | 7.930554 | 2.0 | 10.785 | 2 | 34.435 | 10.975 | 30.455 | 2 |
| 2025-05-04T22:07:00 | 54.373848 | 7.930048 | 2.0 | 10.787 | 2 | 34.613 | 10.956 | 30.646 | 2 |
| 2025-05-04T22:08:00 | 54.376691 | 7.929546 | 2.0 | 10.780 | 2 | 34.884 | 10.957 | 30.911 | 2 |
| 2025-05-04T22:09:00 | 54.379545 | 7.929061 | 2.0 | 10.798 | 2 | 34.379 | 10.948 | 30.423 | 2 |
| 2025-05-04T22:10:00 | 54.382407 | 7.928499 | 2.0 | 10.823 | 2 | 34.514 | 10.974 | 30.534 | 2 |
| 2025-05-04T22:11:00 | 54.385286 | 7.928068 | 2.0 | 10.842 | 2 | 34.820 | 10.997 | 30.815 | 2 |
| 2025-05-04T22:12:00 | 54.388171 | 7.927623 | 2.0 | 10.876 | 2 | 34.808 | 11.015 | 30.788 | 2 |
| 2025-05-04T22:13:00 | 54.391027 | 7.927040 | 2.0 | 10.939 | 2 | 34.772 | 11.058 | 30.717 | 2 |
| 2025-05-04T22:14:00 | 54.393881 | 7.926507 | 2.0 | 10.963 | 2 | 34.724 | 11.111 | 30.625 | 2 |
| 2025-05-04T22:15:00 | 54.396738 | 7.926002 | 2.0 | 10.994 | 2 | 34.647 | 11.132 | 30.533 | 2 |
| 2025-05-04T22:16:00 | 54.399607 | 7.925492 | 2.0 | 11.035 | 2 | 34.685 | 11.164 | 30.543 | 2 |
| 2025-05-04T22:17:00 | 54.402449 | 7.925002 | 2.0 | 11.063 | 2 | 34.657 | 11.205 | 30.482 | 2 |
| 2025-05-04T22:18:00 | 54.405288 | 7.924485 | 2.0 | 11.082 | 2 | 34.443 | 11.232 | 30.251 | 2 |
| 2025-05-04T22:19:00 | 54.408092 | 7.923910 | 2.0 | 11.082 | 2 | 34.615 | 11.248 | 30.406 | 2 |
| 2025-05-04T22:20:00 | 54.410930 | 7.923494 | 2.0 | 11.046 | 2 | 34.608 | 11.245 | 30.401 | 2 |
| 2025-05-04T22:21:00 | 54.413722 | 7.922967 | 2.0 | 11.015 | 2 | 34.267 | 11.207 | 30.100 | 2 |
| 2025-05-04T22:22:00 | 54.416534 | 7.922432 | 2.0 | 10.967 | 2 | 34.632 | 11.174 | 30.483 | 2 |
| 2025-05-04T22:23:00 | 54.419369 | 7.921948 | 2.0 | 10.899 | 2 | 34.494 | 11.125 | 30.389 | 2 |
| 2025-05-04T22:24:00 | 54.422141 | 7.921477 | 2.0 | 10.736 | 2 | 34.518 | 11.043 | 30.480 | 2 |
| 2025-05-04T22:25:00 | 54.424880 | 7.921188 | 2.0 | 10.673 | 2 | 34.481 | 10.905 | 30.559 | 2 |
| 2025-05-04T22:26:00 | 54.427611 | 7.920673 | 2.0 | 10.674 | 2 | 34.447 | 10.851 | 30.570 | 2 |
| 2025-05-04T22:27:00 | 54.430328 | 7.920051 | 2.0 | 10.678 | 2 | 34.800 | 10.850 | 30.919 | 2 |
| 2025-05-04T22:28:00 | 54.433029 | 7.919446 | 2.0 | 10.675 | 2 | 34.776 | 10.851 | 30.894 | 2 |
| 2025-05-04T22:29:00 | 54.435710 | 7.918882 | 2.0 | 10.676 | 2 | 34.797 | 10.847 | 30.918 | 2 |
| 2025-05-04T22:30:00 | 54.438420 | 7.918398 | 2.0 | 10.679 | 2 | 34.645 | 10.849 | 30.767 | 2 |
| 2025-05-04T22:31:00 | 54.441161 | 7.917998 | 2.0 | 10.676 | 2 | 34.778 | 10.850 | 30.897 | 2 |
| 2025-05-04T22:32:00 | 54.443877 | 7.917557 | 2.0 | 10.670 | 2 | 34.529 | 10.847 | 30.654 | 2 |
| 2025-05-04T22:33:00 | 54.446599 | 7.916947 | 2.0 | 10.662 | 2 | 34.739 | 10.841 | 30.866 | 2 |
| 2025-05-04T22:34:00 | 54.449353 | 7.916479 | 2.0 | 10.648 | 2 | 34.736 | 10.832 | 30.871 | 2 |
| 2025-05-04T22:35:00 | 54.452059 | 7.915996 | 2.0 | 10.639 | 2 | 34.497 | 10.819 | 30.646 | 2 |
| 2025-05-04T22:36:00 | 54.454708 | 7.915576 | 2.0 | 10.636 | 2 | 34.551 | 10.810 | 30.707 | 2 |
| 2025-05-04T22:37:00 | 54.457367 | 7.915097 | 2.0 | 10.633 | 2 | 34.602 | 10.807 | 30.760 | 2 |
| 2025-05-04T22:38:00 | 54.460020 | 7.914668 | 2.0 | 10.638 | 2 | 34.471 | 10.805 | 30.632 | 2 |
| 2025-05-04T22:39:00 | 54.462670 | 7.914146 | 2.0 | 10.632 | 2 | 34.628 | 10.809 | 30.784 | 2 |
| 2025-05-04T22:40:00 | 54.465308 | 7.913690 | 2.0 | 10.629 | 2 | 34.604 | 10.805 | 30.763 | 2 |
| 2025-05-04T22:41:00 | 54.467918 | 7.913204 | 2.0 | 10.630 | 2 | 34.446 | 10.800 | 30.612 | 2 |
| 2025-05-04T22:42:00 | 54.470548 | 7.912727 | 2.0 | 10.643 | 2 | 34.643 | 10.803 | 30.804 | 2 |
| 2025-05-04T22:43:00 | 54.473182 | 7.912263 | 2.0 | 10.656 | 2 | 34.497 | 10.816 | 30.649 | 2 |
| 2025-05-04T22:44:00 | 54.475867 | 7.911814 | 2.0 | 10.662 | 2 | 34.619 | 10.827 | 30.760 | 2 |
| 2025-05-04T22:45:00 | 54.478543 | 7.911365 | 2.0 | 10.662 | 2 | 34.598 | 10.832 | 30.735 | 2 |
| 2025-05-04T22:46:00 | 54.481223 | 7.910817 | 2.0 | 10.655 | 2 | 34.706 | 10.833 | 30.840 | 2 |
| 2025-05-04T22:47:00 | 54.483868 | 7.910324 | 2.0 | 10.612 | 2 | 34.583 | 10.822 | 30.728 | 2 |
| 2025-05-04T22:48:00 | 54.486515 | 7.909942 | 2.0 | 10.595 | 2 | 34.446 | 10.780 | 30.628 | 2 |
| 2025-05-04T22:49:00 | 54.489148 | 7.909458 | 2.0 | 10.601 | 2 | 34.553 | 10.768 | 30.744 | 2 |
| 2025-05-04T22:50:00 | 54.491765 | 7.908957 | 2.0 | 10.613 | 2 | 34.513 | 10.774 | 30.700 | 2 |
| 2025-05-04T22:51:00 | 54.494382 | 7.908484 | 2.0 | 10.628 | 2 | 34.642 | 10.786 | 30.817 | 2 |
| 2025-05-04T22:52:00 | 54.496982 | 7.907995 | 2.0 | 10.640 | 2 | 34.628 | 10.800 | 30.791 | 2 |
| 2025-05-04T22:53:00 | 54.499554 | 7.907465 | 2.0 | 10.650 | 2 | 34.705 | 10.811 | 30.858 | 2 |
| 2025-05-04T22:54:00 | 54.502187 | 7.906965 | 2.0 | 10.657 | 2 | 34.471 | 10.821 | 30.619 | 2 |
| 2025-05-04T22:55:00 | 54.504823 | 7.906539 | 2.0 | 10.661 | 2 | 34.851 | 10.828 | 30.988 | 2 |
| 2025-05-04T22:56:00 | 54.507483 | 7.906115 | 2.0 | 10.659 | 2 | 34.852 | 10.832 | 30.985 | 2 |
| 2025-05-04T22:57:00 | 54.510100 | 7.905690 | 2.0 | 10.650 | 2 | 34.799 | 10.828 | 30.936 | 2 |
| 2025-05-04T22:58:00 | 54.512768 | 7.905213 | 2.0 | 10.634 | 2 | 34.953 | 10.819 | 31.096 | 2 |
| 2025-05-04T22:59:00 | 54.515447 | 7.904698 | 2.0 | 10.611 | 2 | 34.787 | 10.801 | 30.947 | 2 |
| 2025-05-04T23:00:00 | 54.518098 | 7.904215 | 2.0 | 10.583 | 2 | 34.814 | 10.778 | 30.993 | 2 |
| 2025-05-04T23:01:00 | 54.520762 | 7.903770 | 2.0 | 10.563 | 2 | 34.796 | 10.753 | 30.997 | 2 |
| 2025-05-04T23:02:00 | 54.523391 | 7.903259 | 2.0 | 10.542 | 2 | 34.836 | 10.733 | 31.053 | 2 |
| 2025-05-04T23:03:00 | 54.526041 | 7.902836 | 2.0 | 10.515 | 2 | 34.716 | 10.710 | 30.954 | 2 |
| 2025-05-04T23:04:00 | 54.528652 | 7.902377 | 2.0 | 10.491 | 2 | 34.726 | 10.685 | 30.985 | 2 |
| 2025-05-04T23:05:00 | 54.531267 | 7.901854 | 2.0 | 10.461 | 2 | 34.723 | 10.661 | 31.003 | 2 |
| 2025-05-04T23:06:00 | 54.533888 | 7.901329 | 2.0 | 10.434 | 2 | 34.625 | 10.630 | 30.932 | 2 |
| 2025-05-04T23:07:00 | 54.536495 | 7.900891 | 2.0 | 10.430 | 2 | 34.713 | 10.607 | 31.039 | 2 |
| 2025-05-04T23:08:00 | 54.539096 | 7.900406 | 2.0 | 10.456 | 2 | 34.689 | 10.608 | 31.014 | 2 |
| 2025-05-04T23:09:00 | 54.541700 | 7.899922 | 2.0 | 10.483 | 2 | 34.761 | 10.632 | 31.065 | 2 |
| 2025-05-04T23:10:00 | 54.544313 | 7.899482 | 2.0 | 10.472 | 2 | 34.806 | 10.653 | 31.092 | 2 |
| 2025-05-04T23:11:00 | 54.546946 | 7.899088 | 2.0 | 10.437 | 2 | 34.803 | 10.636 | 31.103 | 2 |
| 2025-05-04T23:12:00 | 54.549564 | 7.898700 | 2.0 | 10.437 | 2 | 34.792 | 10.608 | 31.116 | 2 |
| 2025-05-04T23:13:00 | 54.552193 | 7.898117 | 2.0 | 10.472 | 2 | 34.811 | 10.614 | 31.130 | 2 |
| 2025-05-04T23:14:00 | 54.554828 | 7.897594 | 2.0 | 10.511 | 2 | 34.841 | 10.648 | 31.131 | 2 |
| 2025-05-04T23:15:00 | 54.557460 | 7.897227 | 2.0 | 10.543 | 2 | 34.882 | 10.685 | 31.140 | 2 |
| 2025-05-04T23:16:00 | 54.560089 | 7.896610 | 2.0 | 10.653 | 2 | 34.893 | 10.725 | 31.117 | 2 |
| 2025-05-04T23:17:00 | 54.562710 | 7.896153 | 2.0 | 10.748 | 2 | 34.951 | 10.835 | 31.080 | 2 |
| 2025-05-04T23:18:00 | 54.565350 | 7.895752 | 2.0 | 10.773 | 2 | 34.987 | 10.917 | 31.046 | 2 |
| 2025-05-04T23:19:00 | 54.567959 | 7.895308 | 2.0 | 10.772 | 2 | 35.012 | 10.939 | 31.052 | 2 |
| 2025-05-04T23:20:00 | 54.570523 | 7.894785 | 2.0 | 10.795 | 2 | 35.005 | 10.942 | 31.043 | 2 |
| 2025-05-04T23:21:00 | 54.573097 | 7.894321 | 2.0 | 10.806 | 2 | 35.031 | 10.963 | 31.051 | 2 |
| 2025-05-04T23:22:00 | 54.575651 | 7.893772 | 2.0 | 10.807 | 2 | 35.057 | 10.973 | 31.068 | 2 |
| 2025-05-04T23:23:00 | 54.578236 | 7.893368 | 2.0 | 10.804 | 2 | 35.045 | 10.975 | 31.054 | 2 |
| 2025-05-04T23:24:00 | 54.580810 | 7.893032 | 2.0 | 10.799 | 2 | 35.062 | 10.972 | 31.074 | 2 |
| 2025-05-04T23:25:00 | 54.583367 | 7.892470 | 2.0 | 10.799 | 2 | 35.073 | 10.968 | 31.088 | 2 |
| 2025-05-04T23:26:00 | 54.585942 | 7.891946 | 2.0 | 10.783 | 2 | 35.076 | 10.965 | 31.093 | 2 |
| 2025-05-04T23:27:00 | 54.588530 | 7.891655 | 2.0 | 10.787 | 2 | 35.072 | 10.953 | 31.100 | 2 |
| 2025-05-04T23:28:00 | 54.591061 | 7.891159 | 2.0 | 10.802 | 2 | 35.045 | 10.959 | 31.068 | 2 |
| 2025-05-04T23:29:00 | 54.593563 | 7.890624 | 2.0 | 10.818 | 2 | 35.071 | 10.974 | 31.081 | 2 |
| 2025-05-04T23:30:00 | 54.596070 | 7.890186 | 2.0 | 10.826 | 2 | 35.066 | 10.988 | 31.064 | 2 |
| 2025-05-04T23:31:00 | 54.598587 | 7.889787 | 2.0 | 10.823 | 2 | 35.066 | 10.993 | 31.060 | 2 |
| 2025-05-04T23:32:00 | 54.601097 | 7.889317 | 2.0 | 10.837 | 2 | 35.058 | 10.995 | 31.050 | 2 |
| 2025-05-04T23:33:00 | 54.603582 | 7.888898 | 2.0 | 10.846 | 2 | 35.058 | 11.006 | 31.041 | 2 |
| 2025-05-04T23:34:00 | 54.606084 | 7.888493 | 2.0 | 10.855 | 2 | 35.054 | 11.015 | 31.030 | 2 |
| 2025-05-04T23:35:00 | 54.608606 | 7.888030 | 2.0 | 10.867 | 2 | 35.045 | 11.026 | 31.011 | 2 |
| 2025-05-04T23:36:00 | 54.611117 | 7.887484 | 2.0 | 10.890 | 2 | 35.035 | 11.041 | 30.989 | 2 |
| 2025-05-04T23:37:00 | 54.613609 | 7.886999 | 2.0 | 10.894 | 2 | 35.026 | 11.059 | 30.965 | 2 |
| 2025-05-04T23:38:00 | 54.616111 | 7.886641 | 2.0 | 10.905 | 2 | 35.023 | 11.066 | 30.956 | 2 |
| 2025-05-04T23:39:00 | 54.618629 | 7.886199 | 2.0 | 10.908 | 2 | 35.020 | 11.072 | 30.948 | 2 |
| 2025-05-04T23:40:00 | 54.621152 | 7.885702 | 2.0 | 10.907 | 2 | 35.014 | 11.074 | 30.940 | 2 |
| 2025-05-04T23:41:00 | 54.623696 | 7.885253 | 2.0 | 10.910 | 2 | 35.008 | 11.075 | 30.934 | 2 |
| 2025-05-04T23:42:00 | 54.626256 | 7.884882 | 2.0 | 10.913 | 2 | 35.003 | 11.077 | 30.927 | 2 |
| 2025-05-04T23:43:00 | 54.628806 | 7.884458 | 2.0 | 10.911 | 2 | 35.001 | 11.081 | 30.922 | 2 |
| 2025-05-04T23:44:00 | 54.631356 | 7.884435 | 2.0 | 10.908 | 2 | 35.003 | 11.080 | 30.925 | 2 |
| 2025-05-04T23:45:00 | 54.633898 | 7.884454 | 2.0 | 10.905 | 2 | 35.003 | 11.076 | 30.928 | 2 |
| 2025-05-04T23:46:00 | 54.636416 | 7.884465 | 2.0 | 10.898 | 2 | 35.003 | 11.074 | 30.930 | 2 |
| 2025-05-04T23:47:00 | 54.638909 | 7.884532 | 2.0 | 10.874 | 2 | 35.013 | 11.064 | 30.948 | 2 |
| 2025-05-04T23:48:00 | 54.641424 | 7.884533 | 2.0 | 10.860 | 2 | 35.031 | 11.041 | 30.985 | 2 |
| 2025-05-04T23:49:00 | 54.643926 | 7.884633 | 2.0 | 10.863 | 2 | 35.035 | 11.030 | 30.998 | 2 |
| 2025-05-04T23:50:00 | 54.646430 | 7.884836 | 2.0 | 10.860 | 2 | 35.031 | 11.032 | 30.993 | 2 |
| 2025-05-04T23:51:00 | 54.648894 | 7.884960 | 2.0 | 10.856 | 2 | 35.032 | 11.028 | 30.997 | 2 |
| 2025-05-04T23:52:00 | 54.651423 | 7.885128 | 2.0 | 10.858 | 2 | 35.032 | 11.025 | 30.999 | 2 |
| 2025-05-04T23:53:00 | 54.653976 | 7.885288 | 2.0 | 10.855 | 2 | 35.029 | 11.026 | 30.996 | 2 |
| 2025-05-04T23:54:00 | 54.656502 | 7.885395 | 2.0 | 10.856 | 2 | 35.028 | 11.024 | 30.996 | 2 |
| 2025-05-04T23:55:00 | 54.659032 | 7.885572 | 2.0 | 10.860 | 2 | 35.025 | 11.025 | 30.993 | 2 |
| 2025-05-04T23:56:00 | 54.661536 | 7.885744 | 2.0 | 10.862 | 2 | 35.024 | 11.029 | 30.988 | 2 |
| 2025-05-04T23:57:00 | 54.663954 | 7.885759 | 2.0 | 10.866 | 2 | 35.027 | 11.031 | 30.989 | 2 |
| 2025-05-04T23:58:00 | 54.666414 | 7.886034 | 2.0 | 10.865 | 2 | 35.031 | 11.034 | 30.991 | 2 |
| 2025-05-04T23:59:00 | 54.668938 | 7.886265 | 2.0 | 10.864 | 2 | 35.037 | 11.034 | 30.997 | 2 |
| 2025-05-05T00:00:00 | 54.671489 | 7.886360 | 2.0 | 10.860 | 2 | 35.042 | 11.032 | 31.003 | 2 |
| 2025-05-05T00:01:00 | 54.673991 | 7.886469 | 2.0 | 10.860 | 2 | 35.044 | 11.031 | 31.006 | 2 |
| 2025-05-05T00:02:00 | 54.676464 | 7.886637 | 2.0 | 10.855 | 2 | 35.045 | 11.028 | 31.010 | 2 |
| 2025-05-05T00:03:00 | 54.678860 | 7.887304 | 2.0 | 10.852 | 2 | 35.050 | 11.025 | 31.017 | 2 |
| 2025-05-05T00:04:00 | 54.681216 | 7.888244 | 2.0 | 10.851 | 2 | 35.062 | 11.022 | 31.031 | 2 |
| 2025-05-05T00:05:00 | 54.682936 | 7.889130 | 2.0 | 10.846 | 2 | 35.063 | 11.018 | 31.036 | 2 |
| 2025-05-05T00:06:00 | 54.684092 | 7.889621 | 2.0 | 10.845 | 2 | 35.067 | 11.013 | 31.044 | 2 |
| 2025-05-05T00:07:00 | 54.684921 | 7.889802 | 2.0 | 10.846 | 2 | 35.067 | 11.012 | 31.045 | 2 |
| 2025-05-05T00:08:00 | 54.685477 | 7.890073 | 2.0 | 10.849 | 2 | 35.066 | 11.012 | 31.044 | 2 |
| 2025-05-05T00:09:00 | 54.686114 | 7.890310 | 2.0 | 10.850 | 2 | 35.066 | 11.014 | 31.042 | 2 |
| 2025-05-05T00:10:00 | 54.686985 | 7.890678 | 2.0 | 10.852 | 2 | 35.070 | 11.016 | 31.044 | 2 |
| 2025-05-05T00:11:00 | 54.687988 | 7.891186 | 2.0 | 10.856 | 2 | 35.070 | 11.018 | 31.043 | 2 |
| 2025-05-05T00:12:00 | 54.689040 | 7.891795 | 2.0 | 10.858 | 2 | 35.072 | 11.022 | 31.041 | 2 |
| 2025-05-05T00:13:00 | 54.690104 | 7.892363 | 2.0 | 10.862 | 2 | 35.077 | 11.023 | 31.045 | 2 |
| 2025-05-05T00:14:00 | 54.691193 | 7.892867 | 2.0 | 10.862 | 2 | 35.083 | 11.027 | 31.048 | 2 |
| 2025-05-05T00:15:00 | 54.692288 | 7.893454 | 2.0 | 10.865 | 2 | 35.085 | 11.029 | 31.048 | 2 |
| 2025-05-05T00:16:00 | 54.693376 | 7.894147 | 2.0 | 10.869 | 2 | 35.086 | 11.032 | 31.047 | 2 |
| 2025-05-05T00:17:00 | 54.694444 | 7.894808 | 2.0 | 10.873 | 2 | 35.087 | 11.035 | 31.045 | 2 |
| 2025-05-05T00:18:00 | 54.695502 | 7.895447 | 2.0 | 10.877 | 2 | 35.087 | 11.039 | 31.042 | 2 |
| 2025-05-05T00:19:00 | 54.696540 | 7.896069 | 2.0 | 10.875 | 2 | 35.088 | 11.041 | 31.041 | 2 |
| 2025-05-05T00:20:00 | 54.697612 | 7.896771 | 2.0 | 10.880 | 2 | 35.092 | 11.042 | 31.044 | 2 |
| 2025-05-05T00:21:00 | 54.698678 | 7.897570 | 2.0 | 10.880 | 2 | 35.098 | 11.045 | 31.047 | 2 |
| 2025-05-05T00:22:00 | 54.699755 | 7.898307 | 2.0 | 10.875 | 2 | 35.096 | 11.043 | 31.047 | 2 |
| 2025-05-05T00:23:00 | 54.700810 | 7.898969 | 2.0 | 10.876 | 2 | 35.092 | 11.040 | 31.046 | 2 |
| 2025-05-05T00:24:00 | 54.701906 | 7.899605 | 2.0 | 10.875 | 2 | 35.090 | 11.042 | 31.042 | 2 |
| 2025-05-05T00:25:00 | 54.702978 | 7.900309 | 2.0 | 10.880 | 2 | 35.079 | 11.041 | 31.032 | 2 |
| 2025-05-05T00:26:00 | 54.704038 | 7.901078 | 2.0 | 10.886 | 2 | 35.071 | 11.046 | 31.020 | 2 |
| 2025-05-05T00:27:00 | 54.705064 | 7.901836 | 2.0 | 10.891 | 2 | 35.062 | 11.051 | 31.007 | 2 |
| 2025-05-05T00:28:00 | 54.706125 | 7.902478 | 2.0 | 10.895 | 2 | 35.054 | 11.056 | 30.995 | 2 |
| 2025-05-05T00:29:00 | 54.707226 | 7.903219 | 2.0 | 10.901 | 2 | 35.052 | 11.061 | 30.989 | 2 |
| 2025-05-05T00:30:00 | 54.708326 | 7.903988 | 2.0 | 10.903 | 2 | 35.045 | 11.065 | 30.978 | 2 |
| 2025-05-05T00:31:00 | 54.709414 | 7.904744 | 2.0 | 10.906 | 2 | 35.039 | 11.067 | 30.971 | 2 |
| 2025-05-05T00:32:00 | 54.710499 | 7.905512 | 2.0 | 10.907 | 2 | 35.033 | 11.072 | 30.961 | 2 |
| 2025-05-05T00:33:00 | 54.711617 | 7.906223 | 2.0 | 10.909 | 2 | 35.023 | 11.073 | 30.950 | 2 |
| 2025-05-05T00:34:00 | 54.712703 | 7.907002 | 2.0 | 10.909 | 2 | 35.014 | 11.074 | 30.940 | 2 |
| 2025-05-05T00:35:00 | 54.713847 | 7.907753 | 2.0 | 10.911 | 2 | 35.007 | 11.075 | 30.933 | 2 |
| 2025-05-05T00:36:00 | 54.715048 | 7.908505 | 2.0 | 10.913 | 2 | 35.000 | 11.076 | 30.925 | 2 |
| 2025-05-05T00:37:00 | 54.716255 | 7.909309 | 2.0 | 10.907 | 2 | 34.994 | 11.077 | 30.918 | 2 |
| 2025-05-05T00:38:00 | 54.717441 | 7.910101 | 2.0 | 10.905 | 2 | 34.981 | 11.071 | 30.911 | 2 |
| 2025-05-05T00:39:00 | 54.718660 | 7.910933 | 2.0 | 10.895 | 2 | 34.970 | 11.067 | 30.903 | 2 |
| 2025-05-05T00:40:00 | 54.719906 | 7.911781 | 2.0 | 10.892 | 2 | 34.957 | 11.062 | 30.895 | 2 |
| 2025-05-05T00:41:00 | 54.721149 | 7.912635 | 2.0 | 10.879 | 2 | 34.943 | 11.054 | 30.888 | 2 |
| 2025-05-05T00:42:00 | 54.722393 | 7.913487 | 2.0 | 10.859 | 2 | 34.924 | 11.041 | 30.880 | 2 |
| 2025-05-05T00:43:00 | 54.723626 | 7.914296 | 2.0 | 10.839 | 2 | 34.907 | 11.025 | 30.877 | 2 |
| 2025-05-05T00:44:00 | 54.724859 | 7.915122 | 2.0 | 10.833 | 2 | 34.889 | 11.007 | 30.874 | 2 |
| 2025-05-05T00:45:00 | 54.726092 | 7.915949 | 2.0 | 10.823 | 2 | 34.882 | 10.997 | 30.876 | 2 |
| 2025-05-05T00:46:00 | 54.727336 | 7.916763 | 2.0 | 10.805 | 2 | 34.874 | 10.987 | 30.876 | 2 |
| 2025-05-05T00:47:00 | 54.728593 | 7.917602 | 2.0 | 10.791 | 2 | 34.862 | 10.968 | 30.880 | 2 |
| 2025-05-05T00:48:00 | 54.729864 | 7.918422 | 2.0 | 10.788 | 2 | 34.857 | 10.958 | 30.884 | 2 |
| 2025-05-05T00:49:00 | 54.731092 | 7.919272 | 2.0 | 10.785 | 2 | 34.855 | 10.953 | 30.886 | 2 |
| 2025-05-05T00:50:00 | 54.732307 | 7.920077 | 2.0 | 10.781 | 2 | 34.857 | 10.952 | 30.889 | 2 |
| 2025-05-05T00:51:00 | 54.733553 | 7.920896 | 2.0 | 10.785 | 2 | 34.858 | 10.950 | 30.892 | 2 |
| 2025-05-05T00:52:00 | 54.734796 | 7.921816 | 2.0 | 10.782 | 2 | 34.862 | 10.950 | 30.896 | 2 |
| 2025-05-05T00:53:00 | 54.736041 | 7.922676 | 2.0 | 10.777 | 2 | 34.863 | 10.948 | 30.898 | 2 |
| 2025-05-05T00:54:00 | 54.737289 | 7.923521 | 2.0 | 10.771 | 2 | 34.832 | 10.941 | 30.874 | 2 |
| 2025-05-05T00:55:00 | 54.738558 | 7.924360 | 2.0 | 10.770 | 2 | 34.843 | 10.938 | 30.887 | 2 |
| 2025-05-05T00:56:00 | 54.739824 | 7.925168 | 2.0 | 10.771 | 2 | 34.851 | 10.937 | 30.896 | 2 |
| 2025-05-05T00:57:00 | 54.741069 | 7.925968 | 2.0 | 10.775 | 2 | 34.856 | 10.938 | 30.900 | 2 |
| 2025-05-05T00:58:00 | 54.742360 | 7.926780 | 2.0 | 10.776 | 2 | 34.852 | 10.941 | 30.893 | 2 |
| 2025-05-05T00:59:00 | 54.743656 | 7.927666 | 2.0 | 10.777 | 2 | 34.848 | 10.944 | 30.887 | 2 |
| 2025-05-05T01:00:00 | 54.744959 | 7.928547 | 2.0 | 10.774 | 2 | 34.877 | 10.944 | 30.915 | 2 |
| 2025-05-05T01:01:00 | 54.746221 | 7.929427 | 2.0 | 10.769 | 2 | 34.872 | 10.939 | 30.915 | 2 |
| 2025-05-05T01:02:00 | 54.747485 | 7.930267 | 2.0 | 10.764 | 2 | 34.877 | 10.933 | 30.925 | 2 |
| 2025-05-05T01:03:00 | 54.748743 | 7.931187 | 2.0 | 10.756 | 2 | 34.865 | 10.929 | 30.916 | 2 |
| 2025-05-05T01:04:00 | 54.750002 | 7.931990 | 2.0 | 10.746 | 2 | 34.883 | 10.921 | 30.941 | 2 |
| 2025-05-05T01:05:00 | 54.751278 | 7.932811 | 2.0 | 10.736 | 2 | 34.887 | 10.912 | 30.952 | 2 |
| 2025-05-05T01:06:00 | 54.752553 | 7.933699 | 2.0 | 10.731 | 2 | 34.885 | 10.903 | 30.958 | 2 |
| 2025-05-05T01:07:00 | 54.753833 | 7.934622 | 2.0 | 10.727 | 2 | 34.889 | 10.896 | 30.968 | 2 |
| 2025-05-05T01:08:00 | 54.755107 | 7.935443 | 2.0 | 10.725 | 2 | 34.895 | 10.894 | 30.975 | 2 |
| 2025-05-05T01:09:00 | 54.756371 | 7.936230 | 2.0 | 10.725 | 2 | 34.898 | 10.891 | 30.981 | 2 |
| 2025-05-05T01:10:00 | 54.757633 | 7.937062 | 2.0 | 10.729 | 2 | 34.902 | 10.892 | 30.984 | 2 |
| 2025-05-05T01:11:00 | 54.758886 | 7.937927 | 2.0 | 10.734 | 2 | 34.901 | 10.896 | 30.979 | 2 |
| 2025-05-05T01:12:00 | 54.760152 | 7.938813 | 2.0 | 10.733 | 2 | 34.906 | 10.900 | 30.981 | 2 |
| 2025-05-05T01:13:00 | 54.761435 | 7.939630 | 2.0 | 10.735 | 2 | 34.908 | 10.901 | 30.982 | 2 |
| 2025-05-05T01:14:00 | 54.762710 | 7.940490 | 2.0 | 10.729 | 2 | 34.915 | 10.901 | 30.989 | 2 |
| 2025-05-05T01:15:00 | 54.763998 | 7.941385 | 2.0 | 10.727 | 2 | 34.913 | 10.895 | 30.992 | 2 |
| 2025-05-05T01:16:00 | 54.765256 | 7.942290 | 2.0 | 10.727 | 2 | 34.923 | 10.894 | 31.003 | 2 |
| 2025-05-05T01:17:00 | 54.766499 | 7.943035 | 2.0 | 10.727 | 2 | 34.929 | 10.894 | 31.009 | 2 |
| 2025-05-05T01:18:00 | 54.767706 | 7.943816 | 2.0 | 10.731 | 2 | 34.931 | 10.894 | 31.011 | 2 |
| 2025-05-05T01:19:00 | 54.768890 | 7.944605 | 2.0 | 10.735 | 2 | 34.937 | 10.899 | 31.012 | 2 |
| 2025-05-05T01:20:00 | 54.770045 | 7.945346 | 2.0 | 10.735 | 2 | 34.938 | 10.901 | 31.012 | 2 |
| 2025-05-05T01:21:00 | 54.771191 | 7.946104 | 2.0 | 10.735 | 2 | 34.938 | 10.902 | 31.011 | 2 |
| 2025-05-05T01:22:00 | 54.772332 | 7.946941 | 2.0 | 10.729 | 2 | 34.942 | 10.900 | 31.016 | 2 |
| 2025-05-05T01:23:00 | 54.773491 | 7.947750 | 2.0 | 10.726 | 2 | 34.942 | 10.897 | 31.019 | 2 |
| 2025-05-05T01:24:00 | 54.774642 | 7.948543 | 2.0 | 10.722 | 2 | 34.946 | 10.892 | 31.027 | 2 |
| 2025-05-05T01:25:00 | 54.775795 | 7.949262 | 2.0 | 10.714 | 2 | 34.949 | 10.887 | 31.034 | 2 |
| 2025-05-05T01:26:00 | 54.776966 | 7.950062 | 2.0 | 10.708 | 2 | 34.951 | 10.879 | 31.043 | 2 |
| 2025-05-05T01:27:00 | 54.778115 | 7.950870 | 2.0 | 10.697 | 2 | 34.954 | 10.873 | 31.051 | 2 |
| 2025-05-05T01:28:00 | 54.779183 | 7.951600 | 2.0 | 10.690 | 2 | 34.955 | 10.863 | 31.061 | 2 |
| 2025-05-05T01:29:00 | 54.780278 | 7.952215 | 2.0 | 10.684 | 2 | 34.957 | 10.856 | 31.069 | 2 |
| 2025-05-05T01:30:00 | 54.781409 | 7.952999 | 2.0 | 10.677 | 2 | 34.957 | 10.850 | 31.074 | 2 |
| 2025-05-05T01:31:00 | 54.782535 | 7.953792 | 2.0 | 10.660 | 2 | 34.958 | 10.839 | 31.084 | 2 |
| 2025-05-05T01:32:00 | 54.783684 | 7.954530 | 2.0 | 10.606 | 2 | 34.955 | 10.819 | 31.098 | 2 |
| 2025-05-05T01:33:00 | 54.784831 | 7.955316 | 2.0 | 10.606 | 2 | 34.937 | 10.778 | 31.115 | 2 |
| 2025-05-05T01:34:00 | 54.785966 | 7.956053 | 2.0 | 10.599 | 2 | 34.938 | 10.773 | 31.120 | 2 |
| 2025-05-05T01:35:00 | 54.787081 | 7.956824 | 2.0 | 10.588 | 2 | 34.940 | 10.768 | 31.126 | 2 |
| 2025-05-05T01:36:00 | 54.788209 | 7.957609 | 2.0 | 10.576 | 2 | 34.938 | 10.754 | 31.136 | 2 |
| 2025-05-05T01:37:00 | 54.789347 | 7.958338 | 2.0 | 10.575 | 2 | 34.935 | 10.743 | 31.143 | 2 |
| 2025-05-05T01:38:00 | 54.790436 | 7.959073 | 2.0 | 10.571 | 2 | 34.942 | 10.745 | 31.148 | 2 |
| 2025-05-05T01:39:00 | 54.791566 | 7.959800 | 2.0 | 10.569 | 2 | 34.947 | 10.736 | 31.161 | 2 |
| 2025-05-05T01:40:00 | 54.792660 | 7.960534 | 2.0 | 10.570 | 2 | 34.955 | 10.738 | 31.167 | 2 |
| 2025-05-05T01:41:00 | 54.793758 | 7.961285 | 2.0 | 10.559 | 2 | 34.962 | 10.736 | 31.175 | 2 |
| 2025-05-05T01:42:00 | 54.794892 | 7.962062 | 2.0 | 10.559 | 2 | 34.968 | 10.727 | 31.189 | 2 |
| 2025-05-05T01:43:00 | 54.796086 | 7.962842 | 2.0 | 10.558 | 2 | 34.974 | 10.725 | 31.197 | 2 |
| 2025-05-05T01:44:00 | 54.797283 | 7.963680 | 2.0 | 10.548 | 2 | 34.980 | 10.724 | 31.204 | 2 |
| 2025-05-05T01:45:00 | 54.798444 | 7.964480 | 2.0 | 10.540 | 2 | 34.981 | 10.715 | 31.212 | 2 |
| 2025-05-05T01:46:00 | 54.799601 | 7.965206 | 2.0 | 10.533 | 2 | 34.978 | 10.705 | 31.218 | 2 |
| 2025-05-05T01:47:00 | 54.800727 | 7.965947 | 2.0 | 10.551 | 2 | 34.953 | 10.701 | 31.196 | 2 |
| 2025-05-05T01:48:00 | 54.801860 | 7.966720 | 2.0 | 10.577 | 2 | 34.928 | 10.723 | 31.153 | 2 |
| 2025-05-05T01:49:00 | 54.802991 | 7.967485 | 2.0 | 10.606 | 2 | 34.931 | 10.748 | 31.135 | 2 |
| 2025-05-05T01:50:00 | 54.804112 | 7.968263 | 2.0 | 10.621 | 2 | 34.939 | 10.774 | 31.120 | 2 |
| 2025-05-05T01:51:00 | 54.805231 | 7.968991 | 2.0 | 10.641 | 2 | 34.947 | 10.790 | 31.115 | 2 |
| 2025-05-05T01:52:00 | 54.806370 | 7.969716 | 2.0 | 10.652 | 2 | 34.955 | 10.808 | 31.107 | 2 |
| 2025-05-05T01:53:00 | 54.807507 | 7.970515 | 2.0 | 10.656 | 2 | 34.963 | 10.817 | 31.108 | 2 |
| 2025-05-05T01:54:00 | 54.808650 | 7.971268 | 2.0 | 10.692 | 2 | 34.972 | 10.831 | 31.105 | 2 |
| 2025-05-05T01:55:00 | 54.809778 | 7.972054 | 2.0 | 10.704 | 2 | 34.983 | 10.857 | 31.093 | 2 |
| 2025-05-05T01:56:00 | 54.810921 | 7.972839 | 2.0 | 10.697 | 2 | 34.993 | 10.865 | 31.096 | 2 |
| 2025-05-05T01:57:00 | 54.812064 | 7.973596 | 2.0 | 10.727 | 2 | 35.005 | 10.866 | 31.107 | 2 |
| 2025-05-05T01:58:00 | 54.813196 | 7.974311 | 2.0 | 10.775 | 2 | 35.015 | 10.900 | 31.088 | 2 |
| 2025-05-05T01:59:00 | 54.814347 | 7.975015 | 2.0 | 10.803 | 2 | 35.028 | 10.942 | 31.066 | 2 |
| 2025-05-05T02:00:00 | 54.815453 | 7.975767 | 2.0 | 10.821 | 2 | 35.036 | 10.968 | 31.052 | 2 |
| 2025-05-05T02:01:00 | 54.816600 | 7.976566 | 2.0 | 10.838 | 2 | 35.040 | 10.988 | 31.039 | 2 |
| 2025-05-05T02:02:00 | 54.817770 | 7.977373 | 2.0 | 10.844 | 2 | 35.039 | 11.001 | 31.027 | 2 |
| 2025-05-05T02:03:00 | 54.818944 | 7.978196 | 2.0 | 10.839 | 2 | 35.033 | 11.008 | 31.015 | 2 |
| 2025-05-05T02:04:00 | 54.820100 | 7.979003 | 2.0 | 10.830 | 2 | 35.026 | 11.005 | 31.010 | 2 |
| 2025-05-05T02:05:00 | 54.821283 | 7.979759 | 2.0 | 10.811 | 2 | 35.016 | 10.992 | 31.012 | 2 |
| 2025-05-05T02:06:00 | 54.822427 | 7.980528 | 2.0 | 10.801 | 2 | 35.003 | 10.974 | 31.014 | 2 |
| 2025-05-05T02:07:00 | 54.823589 | 7.981285 | 2.0 | 10.785 | 2 | 34.992 | 10.966 | 31.010 | 2 |
| 2025-05-05T02:08:00 | 54.824719 | 7.982126 | 2.0 | 10.765 | 2 | 34.985 | 10.949 | 31.017 | 2 |
| 2025-05-05T02:09:00 | 54.825883 | 7.982902 | 2.0 | 10.753 | 2 | 34.977 | 10.930 | 31.026 | 2 |
| 2025-05-05T02:10:00 | 54.827060 | 7.983688 | 2.0 | 10.744 | 2 | 34.973 | 10.919 | 31.031 | 2 |
| 2025-05-05T02:11:00 | 54.828223 | 7.984490 | 2.0 | 10.730 | 2 | 34.965 | 10.908 | 31.032 | 2 |
| 2025-05-05T02:12:00 | 54.829385 | 7.985231 | 2.0 | 10.714 | 2 | 34.963 | 10.895 | 31.041 | 2 |
| 2025-05-05T02:13:00 | 54.830520 | 7.985997 | 2.0 | 10.710 | 2 | 34.956 | 10.881 | 31.046 | 2 |
| 2025-05-05T02:14:00 | 54.831665 | 7.986755 | 2.0 | 10.700 | 2 | 34.952 | 10.875 | 31.048 | 2 |
| 2025-05-05T02:15:00 | 54.832810 | 7.987509 | 2.0 | 10.695 | 2 | 34.828 | 10.867 | 30.932 | 2 |
| 2025-05-05T02:16:00 | 54.833953 | 7.988280 | 2.0 | 10.691 | 2 | 34.637 | 10.861 | 30.749 | 2 |
| 2025-05-05T02:17:00 | 54.835094 | 7.989048 | 2.0 | 10.691 | 2 | 34.800 | 10.859 | 30.911 | 2 |
| 2025-05-05T02:18:00 | 54.836258 | 7.989797 | 2.0 | 10.693 | 2 | 34.758 | 10.855 | 30.873 | 2 |
| 2025-05-05T02:19:00 | 54.837406 | 7.990606 | 2.0 | 10.682 | 2 | 34.724 | 10.857 | 30.838 | 2 |
| 2025-05-05T02:20:00 | 54.838541 | 7.991319 | 2.0 | 10.692 | 2 | 34.802 | 10.850 | 30.921 | 2 |
| 2025-05-05T02:21:00 | 54.839680 | 7.992091 | 2.0 | 10.686 | 2 | 34.853 | 10.856 | 30.966 | 2 |
| 2025-05-05T02:22:00 | 54.840821 | 7.992881 | 2.0 | 10.687 | 2 | 34.696 | 10.853 | 30.814 | 2 |
| 2025-05-05T02:23:00 | 54.841957 | 7.993703 | 2.0 | 10.688 | 2 | 34.796 | 10.850 | 30.915 | 2 |
| 2025-05-05T02:24:00 | 54.843099 | 7.994468 | 2.0 | 10.686 | 2 | 34.934 | 10.855 | 31.047 | 2 |
| 2025-05-05T02:25:00 | 54.844257 | 7.995227 | 2.0 | 10.684 | 2 | 34.929 | 10.850 | 31.046 | 2 |
| 2025-05-05T02:26:00 | 54.845426 | 7.996009 | 2.0 | 10.682 | 2 | 34.906 | 10.851 | 31.022 | 2 |
| 2025-05-05T02:27:00 | 54.846578 | 7.996812 | 2.0 | 10.677 | 2 | 34.807 | 10.848 | 30.927 | 2 |
| 2025-05-05T02:28:00 | 54.847707 | 7.997622 | 2.0 | 10.673 | 2 | 34.784 | 10.843 | 30.909 | 2 |
| 2025-05-05T02:29:00 | 54.848833 | 7.998424 | 2.0 | 10.664 | 2 | 34.919 | 10.838 | 31.046 | 2 |
| 2025-05-05T02:30:00 | 54.849969 | 7.999149 | 2.0 | 10.654 | 2 | 34.821 | 10.830 | 30.956 | 2 |
| 2025-05-05T02:31:00 | 54.851076 | 7.999897 | 2.0 | 10.648 | 2 | 34.898 | 10.822 | 31.039 | 2 |
| 2025-05-05T02:32:00 | 54.852210 | 8.000588 | 2.0 | 10.645 | 2 | 34.829 | 10.815 | 30.977 | 2 |
| 2025-05-05T02:33:00 | 54.853355 | 8.001330 | 2.0 | 10.632 | 2 | 34.839 | 10.810 | 30.991 | 2 |
| 2025-05-05T02:34:00 | 54.854464 | 8.002107 | 2.0 | 10.625 | 2 | 34.802 | 10.799 | 30.964 | 2 |
| 2025-05-05T02:35:00 | 54.855589 | 8.002836 | 2.0 | 10.616 | 2 | 34.783 | 10.789 | 30.954 | 2 |
| 2025-05-05T02:36:00 | 54.856718 | 8.003588 | 2.0 | 10.609 | 2 | 34.726 | 10.782 | 30.903 | 2 |
| 2025-05-05T02:37:00 | 54.857879 | 8.004355 | 2.0 | 10.603 | 2 | 34.722 | 10.776 | 30.904 | 2 |
| 2025-05-05T02:38:00 | 54.859034 | 8.005104 | 2.0 | 10.594 | 2 | 34.747 | 10.768 | 30.936 | 2 |
| 2025-05-05T02:39:00 | 54.860181 | 8.005890 | 2.0 | 10.591 | 2 | 34.703 | 10.760 | 30.899 | 2 |
| 2025-05-05T02:40:00 | 54.861347 | 8.006708 | 2.0 | 10.590 | 2 | 34.791 | 10.759 | 30.987 | 2 |
| 2025-05-05T02:41:00 | 54.862479 | 8.007498 | 2.0 | 10.590 | 2 | 34.754 | 10.757 | 30.952 | 2 |
| 2025-05-05T02:42:00 | 54.863600 | 8.008167 | 2.0 | 10.589 | 2 | 34.794 | 10.757 | 30.991 | 2 |
| 2025-05-05T02:43:00 | 54.864764 | 8.008883 | 2.0 | 10.577 | 2 | 34.759 | 10.753 | 30.960 | 2 |
| 2025-05-05T02:44:00 | 54.865892 | 8.009700 | 2.0 | 10.562 | 2 | 34.787 | 10.743 | 30.996 | 2 |
| 2025-05-05T02:45:00 | 54.867008 | 8.010475 | 2.0 | 10.556 | 2 | 34.712 | 10.729 | 30.934 | 2 |
| 2025-05-05T02:46:00 | 54.868159 | 8.011207 | 2.0 | 10.539 | 2 | 34.743 | 10.719 | 30.973 | 2 |
| 2025-05-05T02:47:00 | 54.869322 | 8.011986 | 2.0 | 10.512 | 2 | 34.787 | 10.702 | 31.031 | 2 |
| 2025-05-05T02:48:00 | 54.870481 | 8.012802 | 2.0 | 10.491 | 2 | 34.796 | 10.677 | 31.061 | 2 |
| 2025-05-05T02:49:00 | 54.871649 | 8.013637 | 2.0 | 10.519 | 2 | 34.864 | 10.664 | 31.140 | 2 |
| 2025-05-05T02:50:00 | 54.872812 | 8.014411 | 2.0 | 10.541 | 2 | 34.879 | 10.690 | 31.132 | 2 |
| 2025-05-05T02:51:00 | 54.873986 | 8.015133 | 2.0 | 10.547 | 2 | 34.889 | 10.708 | 31.127 | 2 |
| 2025-05-05T02:52:00 | 54.875143 | 8.015951 | 2.0 | 10.551 | 2 | 34.874 | 10.714 | 31.107 | 2 |
| 2025-05-05T02:53:00 | 54.876314 | 8.016727 | 2.0 | 10.549 | 2 | 34.859 | 10.716 | 31.091 | 2 |
| 2025-05-05T02:54:00 | 54.877508 | 8.017519 | 2.0 | 10.541 | 2 | 34.843 | 10.714 | 31.076 | 2 |
| 2025-05-05T02:55:00 | 54.878674 | 8.018360 | 2.0 | 10.535 | 2 | 34.834 | 10.707 | 31.073 | 2 |
| 2025-05-05T02:56:00 | 54.879813 | 8.019173 | 2.0 | 10.522 | 2 | 34.848 | 10.699 | 31.094 | 2 |
| 2025-05-05T02:57:00 | 54.881000 | 8.019887 | 2.0 | 10.519 | 2 | 34.799 | 10.689 | 31.054 | 2 |
| 2025-05-05T02:58:00 | 54.882163 | 8.020603 | 2.0 | 10.524 | 2 | 34.845 | 10.687 | 31.101 | 2 |
| 2025-05-05T02:59:00 | 54.883309 | 8.021383 | 2.0 | 10.526 | 2 | 34.838 | 10.692 | 31.090 | 2 |
| 2025-05-05T03:00:00 | 54.884465 | 8.022208 | 2.0 | 10.525 | 2 | 34.830 | 10.693 | 31.081 | 2 |
| 2025-05-05T03:01:00 | 54.885617 | 8.023027 | 2.0 | 10.523 | 2 | 34.823 | 10.692 | 31.075 | 2 |
| 2025-05-05T03:02:00 | 54.886795 | 8.023786 | 2.0 | 10.528 | 2 | 34.819 | 10.689 | 31.074 | 2 |
| 2025-05-05T03:03:00 | 54.888009 | 8.024517 | 2.0 | 10.545 | 2 | 34.810 | 10.700 | 31.056 | 2 |
| 2025-05-05T03:04:00 | 54.889202 | 8.025349 | 2.0 | 10.543 | 2 | 34.804 | 10.711 | 31.040 | 2 |
| 2025-05-05T03:05:00 | 54.890401 | 8.026235 | 2.0 | 10.541 | 2 | 34.792 | 10.710 | 31.029 | 2 |
| 2025-05-05T03:06:00 | 54.891609 | 8.027104 | 2.0 | 10.531 | 2 | 34.791 | 10.706 | 31.032 | 2 |
| 2025-05-05T03:07:00 | 54.892844 | 8.027953 | 2.0 | 10.515 | 2 | 34.786 | 10.696 | 31.035 | 2 |
| 2025-05-05T03:08:00 | 54.894069 | 8.028813 | 2.0 | 10.487 | 2 | 34.782 | 10.678 | 31.047 | 2 |
| 2025-05-05T03:09:00 | 54.895281 | 8.029625 | 2.0 | 10.443 | 2 | 34.776 | 10.650 | 31.064 | 2 |
| 2025-05-05T03:10:00 | 54.896450 | 8.030393 | 2.0 | 10.422 | 2 | 34.740 | 10.607 | 31.065 | 2 |
| 2025-05-05T03:11:00 | 54.897634 | 8.031112 | 2.0 | 10.439 | 2 | 34.795 | 10.593 | 31.132 | 2 |
| 2025-05-05T03:12:00 | 54.898836 | 8.031874 | 2.0 | 10.458 | 2 | 34.758 | 10.609 | 31.081 | 2 |
| 2025-05-05T03:13:00 | 54.900028 | 8.032718 | 2.0 | 10.465 | 2 | 34.754 | 10.626 | 31.063 | 2 |
| 2025-05-05T03:14:00 | 54.901252 | 8.033509 | 2.0 | 10.470 | 2 | 34.740 | 10.634 | 31.042 | 2 |
| 2025-05-05T03:15:00 | 54.902462 | 8.034335 | 2.0 | 10.472 | 2 | 34.762 | 10.638 | 31.061 | 2 |
| 2025-05-05T03:16:00 | 54.903669 | 8.035158 | 2.0 | 10.478 | 2 | 34.732 | 10.639 | 31.030 | 2 |
| 2025-05-05T03:17:00 | 54.904882 | 8.035970 | 2.0 | 10.486 | 2 | 34.695 | 10.647 | 30.987 | 2 |
| 2025-05-05T03:18:00 | 54.906028 | 8.036750 | 2.0 | 10.489 | 2 | 34.577 | 10.653 | 30.865 | 2 |
| 2025-05-05T03:19:00 | 54.907129 | 8.037480 | 2.0 | 10.501 | 2 | 34.657 | 10.658 | 30.940 | 2 |
| 2025-05-05T03:20:00 | 54.908196 | 8.038166 | 2.0 | 10.523 | 2 | 34.692 | 10.670 | 30.964 | 2 |
| 2025-05-05T03:21:00 | 54.909237 | 8.038890 | 2.0 | 10.537 | 2 | 34.692 | 10.691 | 30.946 | 2 |
| 2025-05-05T03:22:00 | 54.910296 | 8.039572 | 2.0 | 10.543 | 2 | 34.671 | 10.705 | 30.914 | 2 |
| 2025-05-05T03:23:00 | 54.911352 | 8.040309 | 2.0 | 10.548 | 2 | 34.625 | 10.710 | 30.864 | 2 |
| 2025-05-05T03:24:00 | 54.912416 | 8.041013 | 2.0 | 10.555 | 2 | 34.700 | 10.715 | 30.934 | 2 |
| 2025-05-05T03:25:00 | 54.913475 | 8.041757 | 2.0 | 10.562 | 2 | 34.693 | 10.722 | 30.921 | 2 |
| 2025-05-05T03:26:00 | 54.914438 | 8.042447 | 2.0 | 10.570 | 2 | 34.627 | 10.728 | 30.851 | 2 |
| 2025-05-05T03:27:00 | 54.915411 | 8.042941 | 2.0 | 10.582 | 2 | 34.639 | 10.738 | 30.854 | 2 |
| 2025-05-05T03:28:00 | 54.916398 | 8.043538 | 2.0 | 10.589 | 2 | 34.613 | 10.749 | 30.819 | 2 |
| 2025-05-05T03:29:00 | 54.917402 | 8.044300 | 2.0 | 10.592 | 2 | 34.606 | 10.755 | 30.807 | 2 |
| 2025-05-05T03:30:00 | 54.918359 | 8.045109 | 2.0 | 10.585 | 2 | 34.638 | 10.756 | 30.838 | 2 |
| 2025-05-05T03:31:00 | 54.919349 | 8.045773 | 2.0 | 10.581 | 2 | 34.633 | 10.751 | 30.837 | 2 |
| 2025-05-05T03:32:00 | 54.920369 | 8.046408 | 2.0 | 10.577 | 2 | 34.603 | 10.746 | 30.812 | 2 |
| 2025-05-05T03:33:00 | 54.921380 | 8.047113 | 2.0 | 10.563 | 2 | 34.616 | 10.741 | 30.829 | 2 |
| 2025-05-05T03:34:00 | 54.922406 | 8.047844 | 2.0 | 10.541 | 2 | 34.590 | 10.728 | 30.814 | 2 |
| 2025-05-05T03:35:00 | 54.923443 | 8.048554 | 2.0 | 10.522 | 2 | 34.547 | 10.704 | 30.792 | 2 |
| 2025-05-05T03:36:00 | 54.924501 | 8.049233 | 2.0 | 10.503 | 2 | 34.576 | 10.685 | 30.837 | 2 |
| 2025-05-05T03:37:00 | 54.925551 | 8.049942 | 2.0 | 10.490 | 2 | 34.594 | 10.669 | 30.868 | 2 |
| 2025-05-05T03:38:00 | 54.926602 | 8.050609 | 2.0 | 10.480 | 2 | 34.582 | 10.657 | 30.866 | 2 |
| 2025-05-05T03:39:00 | 54.927627 | 8.051289 | 2.0 | 10.467 | 2 | 34.600 | 10.645 | 30.894 | 2 |
| 2025-05-05T03:40:00 | 54.928632 | 8.051975 | 2.0 | 10.462 | 2 | 34.645 | 10.634 | 30.948 | 2 |
| 2025-05-05T03:41:00 | 54.929611 | 8.052670 | 2.0 | 10.459 | 2 | 34.642 | 10.629 | 30.949 | 2 |
| 2025-05-05T03:42:00 | 54.930608 | 8.053324 | 2.0 | 10.453 | 2 | 34.634 | 10.626 | 30.944 | 2 |
| 2025-05-05T03:43:00 | 54.931609 | 8.053972 | 2.0 | 10.452 | 2 | 34.641 | 10.621 | 30.955 | 2 |
| 2025-05-05T03:44:00 | 54.932623 | 8.054591 | 2.0 | 10.450 | 2 | 34.642 | 10.619 | 30.958 | 2 |
| 2025-05-05T03:45:00 | 54.933644 | 8.055305 | 2.0 | 10.456 | 2 | 34.612 | 10.619 | 30.928 | 2 |
| 2025-05-05T03:46:00 | 54.934666 | 8.055955 | 2.0 | 10.456 | 2 | 34.619 | 10.623 | 30.932 | 2 |
| 2025-05-05T03:47:00 | 54.935692 | 8.056580 | 2.0 | 10.458 | 2 | 34.631 | 10.623 | 30.944 | 2 |
| 2025-05-05T03:48:00 | 54.936717 | 8.057301 | 2.0 | 10.454 | 2 | 34.636 | 10.624 | 30.948 | 2 |
| 2025-05-05T03:49:00 | 54.937738 | 8.058076 | 2.0 | 10.454 | 2 | 34.640 | 10.622 | 30.953 | 2 |
| 2025-05-05T03:50:00 | 54.938785 | 8.058770 | 2.0 | 10.457 | 2 | 34.633 | 10.622 | 30.946 | 2 |
| 2025-05-05T03:51:00 | 54.939857 | 8.059516 | 2.0 | 10.460 | 2 | 34.629 | 10.626 | 30.939 | 2 |
| 2025-05-05T03:52:00 | 54.940919 | 8.060246 | 2.0 | 10.465 | 2 | 34.621 | 10.629 | 30.929 | 2 |
| 2025-05-05T03:53:00 | 54.941895 | 8.060858 | 2.0 | 10.467 | 2 | 34.614 | 10.632 | 30.919 | 2 |
| 2025-05-05T03:54:00 | 54.942790 | 8.061414 | 2.0 | 10.472 | 2 | 34.618 | 10.636 | 30.920 | 2 |
| 2025-05-05T03:55:00 | 54.943602 | 8.061955 | 2.0 | 10.477 | 2 | 34.616 | 10.640 | 30.914 | 2 |
| 2025-05-05T03:56:00 | 54.944327 | 8.062444 | 2.0 | 10.473 | 2 | 34.607 | 10.643 | 30.903 | 2 |
| 2025-05-05T03:57:00 | 54.945018 | 8.062896 | 2.0 | 10.481 | 2 | 34.595 | 10.642 | 30.892 | 2 |
| 2025-05-05T03:58:00 | 54.945691 | 8.063323 | 2.0 | 10.482 | 2 | 34.596 | 10.648 | 30.888 | 2 |
| 2025-05-05T03:59:00 | 54.946403 | 8.063760 | 2.0 | 10.477 | 2 | 34.583 | 10.647 | 30.876 | 2 |
| 2025-05-05T04:00:00 | 54.947123 | 8.064250 | 2.0 | 10.486 | 2 | 34.569 | 10.647 | 30.862 | 2 |
| 2025-05-05T04:01:00 | 54.947812 | 8.064729 | 2.0 | 10.486 | 2 | 34.569 | 10.652 | 30.858 | 2 |
| 2025-05-05T04:02:00 | 54.948473 | 8.065202 | 2.0 | 10.492 | 2 | 34.570 | 10.653 | 30.858 | 2 |
| 2025-05-05T04:03:00 | 54.949164 | 8.065674 | 2.0 | 10.491 | 2 | 34.571 | 10.656 | 30.856 | 2 |
| 2025-05-05T04:04:00 | 54.949850 | 8.066149 | 2.0 | 10.490 | 2 | 34.569 | 10.658 | 30.853 | 2 |
| 2025-05-05T04:05:00 | 54.950563 | 8.066570 | 2.0 | 10.493 | 2 | 34.561 | 10.657 | 30.846 | 2 |
| 2025-05-05T04:06:00 | 54.951307 | 8.067027 | 2.0 | 10.495 | 2 | 34.560 | 10.660 | 30.842 | 2 |
| 2025-05-05T04:07:00 | 54.952003 | 8.067521 | 2.0 | 10.495 | 2 | 34.555 | 10.661 | 30.836 | 2 |
| 2025-05-05T04:08:00 | 54.952694 | 8.068011 | 2.0 | 10.492 | 2 | 34.548 | 10.661 | 30.829 | 2 |
| 2025-05-05T04:09:00 | 54.953381 | 8.068487 | 2.0 | 10.496 | 2 | 34.542 | 10.659 | 30.825 | 2 |
| 2025-05-05T04:10:00 | 54.954061 | 8.068978 | 2.0 | 10.501 | 2 | 34.543 | 10.663 | 30.823 | 2 |
| 2025-05-05T04:11:00 | 54.954752 | 8.069469 | 2.0 | 10.496 | 2 | 34.548 | 10.667 | 30.824 | 2 |
| 2025-05-05T04:12:00 | 54.955459 | 8.069949 | 2.0 | 10.491 | 2 | 34.548 | 10.662 | 30.828 | 2 |
| 2025-05-05T04:13:00 | 54.956183 | 8.070390 | 2.0 | 10.490 | 2 | 34.549 | 10.657 | 30.834 | 2 |
| 2025-05-05T04:14:00 | 54.956918 | 8.070820 | 2.0 | 10.494 | 2 | 34.554 | 10.659 | 30.837 | 2 |
| 2025-05-05T04:15:00 | 54.957695 | 8.071275 | 2.0 | 10.496 | 2 | 34.557 | 10.661 | 30.838 | 2 |
| 2025-05-05T04:16:00 | 54.958479 | 8.071726 | 2.0 | 10.500 | 2 | 34.560 | 10.664 | 30.839 | 2 |
| 2025-05-05T04:17:00 | 54.959195 | 8.072233 | 2.0 | 10.502 | 2 | 34.566 | 10.668 | 30.841 | 2 |
| 2025-05-05T04:18:00 | 54.959914 | 8.072630 | 2.0 | 10.504 | 2 | 34.571 | 10.669 | 30.845 | 2 |
| 2025-05-05T04:19:00 | 54.960591 | 8.073071 | 2.0 | 10.496 | 2 | 34.581 | 10.669 | 30.855 | 2 |
| 2025-05-05T04:20:00 | 54.961226 | 8.073480 | 2.0 | 10.509 | 2 | 34.597 | 10.665 | 30.874 | 2 |
| 2025-05-05T04:21:00 | 54.961863 | 8.073881 | 2.0 | 10.512 | 2 | 34.613 | 10.675 | 30.882 | 2 |
| 2025-05-05T04:22:00 | 54.962479 | 8.074260 | 2.0 | 10.520 | 2 | 34.622 | 10.681 | 30.886 | 2 |
| 2025-05-05T04:23:00 | 54.963065 | 8.074656 | 2.0 | 10.532 | 2 | 34.632 | 10.690 | 30.888 | 2 |
| 2025-05-05T04:24:00 | 54.963651 | 8.075019 | 2.0 | 10.536 | 2 | 34.644 | 10.699 | 30.892 | 2 |
| 2025-05-05T04:25:00 | 54.964252 | 8.075346 | 2.0 | 10.537 | 2 | 34.649 | 10.702 | 30.895 | 2 |
| 2025-05-05T04:26:00 | 54.964859 | 8.075659 | 2.0 | 10.540 | 2 | 34.652 | 10.703 | 30.897 | 2 |
| 2025-05-05T04:27:00 | 54.965479 | 8.076028 | 2.0 | 10.544 | 2 | 34.656 | 10.707 | 30.897 | 2 |
| 2025-05-05T04:28:00 | 54.966079 | 8.076393 | 2.0 | 10.548 | 2 | 34.658 | 10.710 | 30.897 | 2 |
| 2025-05-05T04:29:00 | 54.966660 | 8.076735 | 2.0 | 10.552 | 2 | 34.660 | 10.714 | 30.895 | 2 |
| 2025-05-05T04:30:00 | 54.967265 | 8.077085 | 2.0 | 10.551 | 2 | 34.663 | 10.718 | 30.895 | 2 |
| 2025-05-05T04:31:00 | 54.967883 | 8.077457 | 2.0 | 10.556 | 2 | 34.660 | 10.719 | 30.891 | 2 |
| 2025-05-05T04:32:00 | 54.968458 | 8.077751 | 2.0 | 10.562 | 2 | 34.663 | 10.724 | 30.890 | 2 |
| 2025-05-05T04:33:00 | 54.969045 | 8.078018 | 2.0 | 10.563 | 2 | 34.665 | 10.727 | 30.889 | 2 |
| 2025-05-05T04:34:00 | 54.969650 | 8.078361 | 2.0 | 10.568 | 2 | 34.666 | 10.731 | 30.887 | 2 |
| 2025-05-05T04:35:00 | 54.970287 | 8.078775 | 2.0 | 10.571 | 2 | 34.668 | 10.734 | 30.886 | 2 |
| 2025-05-05T04:36:00 | 54.970938 | 8.079190 | 2.0 | 10.570 | 2 | 34.671 | 10.738 | 30.886 | 2 |
| 2025-05-05T04:37:00 | 54.971577 | 8.079606 | 2.0 | 10.570 | 2 | 34.671 | 10.735 | 30.888 | 2 |
| 2025-05-05T04:38:00 | 54.972209 | 8.079986 | 2.0 | 10.561 | 2 | 34.674 | 10.734 | 30.892 | 2 |
| 2025-05-05T04:39:00 | 54.972853 | 8.080357 | 2.0 | 10.568 | 2 | 34.674 | 10.729 | 30.897 | 2 |
| 2025-05-05T04:40:00 | 54.973490 | 8.080726 | 2.0 | 10.568 | 2 | 34.678 | 10.733 | 30.897 | 2 |
| 2025-05-05T04:41:00 | 54.974111 | 8.081116 | 2.0 | 10.568 | 2 | 34.679 | 10.736 | 30.896 | 2 |
| 2025-05-05T04:42:00 | 54.974736 | 8.081494 | 2.0 | 10.565 | 2 | 34.681 | 10.734 | 30.899 | 2 |
| 2025-05-05T04:43:00 | 54.975362 | 8.081864 | 2.0 | 10.561 | 2 | 34.681 | 10.731 | 30.902 | 2 |
| 2025-05-05T04:44:00 | 54.975982 | 8.082292 | 2.0 | 10.556 | 2 | 34.678 | 10.726 | 30.903 | 2 |
| 2025-05-05T04:45:00 | 54.976600 | 8.082702 | 2.0 | 10.555 | 2 | 34.670 | 10.722 | 30.898 | 2 |
| 2025-05-05T04:46:00 | 54.977217 | 8.083084 | 2.0 | 10.556 | 2 | 34.669 | 10.721 | 30.898 | 2 |
| 2025-05-05T04:47:00 | 54.977803 | 8.083494 | 2.0 | 10.546 | 2 | 34.667 | 10.722 | 30.896 | 2 |
| 2025-05-05T04:48:00 | 54.978353 | 8.083846 | 2.0 | 10.539 | 2 | 34.655 | 10.709 | 30.895 | 2 |
| 2025-05-05T04:49:00 | 54.978896 | 8.084193 | 2.0 | 10.539 | 2 | 34.650 | 10.706 | 30.892 | 2 |
| 2025-05-05T04:50:00 | 54.979434 | 8.084576 | 2.0 | 10.531 | 2 | 34.646 | 10.705 | 30.889 | 2 |
| 2025-05-05T04:51:00 | 54.979995 | 8.084928 | 2.0 | 10.525 | 2 | 34.640 | 10.699 | 30.888 | 2 |
| 2025-05-05T04:52:00 | 54.980563 | 8.085275 | 2.0 | 10.524 | 2 | 34.632 | 10.693 | 30.885 | 2 |
| 2025-05-05T04:53:00 | 54.981120 | 8.085661 | 2.0 | 10.515 | 2 | 34.628 | 10.689 | 30.885 | 2 |
| 2025-05-05T04:54:00 | 54.981690 | 8.086006 | 2.0 | 10.514 | 2 | 34.622 | 10.683 | 30.884 | 2 |
| 2025-05-05T04:55:00 | 54.982269 | 8.086326 | 2.0 | 10.510 | 2 | 34.616 | 10.680 | 30.881 | 2 |
| 2025-05-05T04:56:00 | 54.982826 | 8.086667 | 2.0 | 10.512 | 2 | 34.612 | 10.677 | 30.879 | 2 |
| 2025-05-05T04:57:00 | 54.983388 | 8.086967 | 2.0 | 10.504 | 2 | 34.612 | 10.679 | 30.877 | 2 |
| 2025-05-05T04:58:00 | 54.983893 | 8.087419 | 2.0 | 10.496 | 2 | 34.605 | 10.668 | 30.880 | 2 |
| 2025-05-05T04:59:00 | 54.984433 | 8.087630 | 2.0 | 10.490 | 2 | 34.600 | 10.662 | 30.880 | 2 |
| 2025-05-05T05:00:00 | 54.984917 | 8.088045 | 2.0 | 10.493 | 2 | 34.595 | 10.658 | 30.878 | 2 |
| 2025-05-05T05:01:00 | 54.985430 | 8.088336 | 2.0 | 10.493 | 2 | 34.594 | 10.659 | 30.876 | 2 |
| 2025-05-05T05:02:00 | 54.985974 | 8.088689 | 2.0 | 10.488 | 2 | 34.594 | 10.659 | 30.876 | 2 |
| 2025-05-05T05:03:00 | 54.986549 | 8.089083 | 2.0 | 10.479 | 2 | 34.588 | 10.652 | 30.876 | 2 |
| 2025-05-05T05:04:00 | 54.987131 | 8.089453 | 2.0 | 10.476 | 2 | 34.582 | 10.647 | 30.875 | 2 |
| 2025-05-05T05:05:00 | 54.987701 | 8.089883 | 2.0 | 10.461 | 2 | 34.577 | 10.642 | 30.874 | 2 |
| 2025-05-05T05:06:00 | 54.988300 | 8.090267 | 2.0 | 10.461 | 2 | 34.566 | 10.629 | 30.874 | 2 |
| 2025-05-05T05:07:00 | 54.988846 | 8.090710 | 2.0 | 10.454 | 2 | 34.564 | 10.628 | 30.873 | 2 |
| 2025-05-05T05:08:00 | 54.989433 | 8.091099 | 2.0 | 10.442 | 2 | 34.555 | 10.618 | 30.873 | 2 |
| 2025-05-05T05:09:00 | 54.990016 | 8.091522 | 2.0 | 10.438 | 2 | 34.544 | 10.608 | 30.870 | 2 |
| 2025-05-05T05:10:00 | 54.990628 | 8.091940 | 2.0 | 10.435 | 2 | 34.541 | 10.605 | 30.870 | 2 |
| 2025-05-05T05:11:00 | 54.991191 | 8.092460 | 2.0 | 10.425 | 2 | 34.537 | 10.601 | 30.869 | 2 |
| 2025-05-05T05:12:00 | 54.991757 | 8.092906 | 2.0 | 10.422 | 2 | 34.530 | 10.592 | 30.870 | 2 |
| 2025-05-05T05:13:00 | 54.992302 | 8.093405 | 2.0 | 10.420 | 2 | 34.527 | 10.591 | 30.868 | 2 |
| 2025-05-05T05:14:00 | 54.992846 | 8.093909 | 2.0 | 10.419 | 2 | 34.526 | 10.587 | 30.870 | 2 |
| 2025-05-05T05:15:00 | 54.993382 | 8.094413 | 2.0 | 10.417 | 2 | 34.527 | 10.587 | 30.871 | 2 |
| 2025-05-05T05:16:00 | 54.993888 | 8.094959 | 2.0 | 10.412 | 2 | 34.526 | 10.583 | 30.873 | 2 |
| 2025-05-05T05:17:00 | 54.994443 | 8.095356 | 2.0 | 10.408 | 2 | 34.523 | 10.579 | 30.874 | 2 |
| 2025-05-05T05:18:00 | 54.994966 | 8.095878 | 2.0 | 10.403 | 2 | 34.520 | 10.576 | 30.873 | 2 |
| 2025-05-05T05:19:00 | 54.995461 | 8.096434 | 2.0 | 10.396 | 2 | 34.516 | 10.569 | 30.875 | 2 |
| 2025-05-05T05:20:00 | 54.995958 | 8.096944 | 2.0 | 10.392 | 2 | 34.511 | 10.563 | 30.875 | 2 |
| 2025-05-05T05:21:00 | 54.996504 | 8.097415 | 2.0 | 10.390 | 2 | 34.505 | 10.559 | 30.873 | 2 |
| 2025-05-05T05:22:00 | 54.997026 | 8.097927 | 2.0 | 10.382 | 2 | 34.502 | 10.557 | 30.872 | 2 |
| 2025-05-05T05:23:00 | 54.997478 | 8.098318 | 2.0 | 10.382 | 2 | 34.500 | 10.551 | 30.875 | 2 |
| 2025-05-05T05:24:00 | 54.997841 | 8.098691 | 2.0 | 10.381 | 2 | 34.501 | 10.550 | 30.876 | 2 |
| 2025-05-05T05:25:00 | 54.998159 | 8.098885 | 2.0 | 10.382 | 2 | 34.500 | 10.549 | 30.876 | 2 |
| 2025-05-05T05:26:00 | 54.998455 | 8.098917 | 2.0 | 10.381 | 2 | 34.499 | 10.548 | 30.876 | 2 |
| 2025-05-05T05:27:00 | 54.998703 | 8.099050 | 2.0 | 10.379 | 2 | 34.499 | 10.547 | 30.877 | 2 |
| 2025-05-05T05:28:00 | 54.998953 | 8.099039 | 2.0 | 10.385 | 2 | 34.502 | 10.548 | 30.879 | 2 |
| 2025-05-05T05:29:00 | 54.999189 | 8.098955 | 2.0 | 10.383 | 2 | 34.509 | 10.552 | 30.883 | 2 |
| 2025-05-05T05:30:00 | 54.999356 | 8.098950 | 2.0 | 10.382 | 2 | 34.504 | 10.550 | 30.879 | 2 |
| 2025-05-05T05:31:00 | 54.999329 | 8.099111 | 2.0 | 10.375 | 2 | 34.502 | 10.549 | 30.878 | 2 |
| 2025-05-05T05:32:00 | 54.999276 | 8.099321 | 2.0 | 10.368 | 2 | 34.496 | 10.541 | 30.879 | 2 |
| 2025-05-05T05:33:00 | 54.999401 | 8.099642 | 2.0 | 10.359 | 2 | 34.490 | 10.536 | 30.877 | 2 |
| 2025-05-05T05:34:00 | 54.999586 | 8.099888 | 2.0 | 10.357 | 2 | 34.480 | 10.526 | 30.876 | 2 |
| 2025-05-05T05:35:00 | 54.999713 | 8.100015 | 2.0 | 10.358 | 2 | 34.479 | 10.525 | 30.876 | 2 |
| 2025-05-05T05:36:00 | 54.999762 | 8.099923 | 2.0 | 10.359 | 2 | 34.479 | 10.525 | 30.876 | 2 |
| 2025-05-05T05:37:00 | 54.999811 | 8.099528 | 2.0 | 10.356 | 2 | 34.479 | 10.524 | 30.877 | 2 |
| 2025-05-05T05:38:00 | 54.999891 | 8.099030 | 2.0 | 10.359 | 2 | 34.478 | 10.524 | 30.876 | 2 |
| 2025-05-05T05:39:00 | 55.000025 | 8.098634 | 2.0 | 10.369 | 2 | 34.481 | 10.527 | 30.876 | 2 |
| 2025-05-05T05:40:00 | 55.000163 | 8.098596 | 2.0 | 10.377 | 2 | 34.491 | 10.537 | 30.878 | 2 |
| 2025-05-05T05:41:00 | 55.000213 | 8.098728 | 2.0 | 10.380 | 2 | 34.499 | 10.545 | 30.879 | 2 |
| 2025-05-05T05:42:00 | 55.000218 | 8.098899 | 2.0 | 10.373 | 2 | 34.501 | 10.546 | 30.880 | 2 |
| 2025-05-05T05:43:00 | 55.000210 | 8.099062 | 2.0 | 10.369 | 2 | 34.494 | 10.539 | 30.879 | 2 |
| 2025-05-05T05:44:00 | 55.000140 | 8.099244 | 2.0 | 10.358 | 2 | 34.488 | 10.533 | 30.878 | 2 |
| 2025-05-05T05:45:00 | 55.000047 | 8.099358 | 2.0 | 10.359 | 2 | 34.480 | 10.526 | 30.876 | 2 |
| 2025-05-05T05:46:00 | 54.999963 | 8.099403 | 2.0 | 10.364 | 2 | 34.480 | 10.527 | 30.875 | 2 |
| 2025-05-05T05:47:00 | 54.999918 | 8.099412 | 2.0 | 10.366 | 2 | 34.482 | 10.530 | 30.875 | 2 |
| 2025-05-05T05:48:00 | 54.999907 | 8.099470 | 2.0 | 10.369 | 2 | 34.485 | 10.536 | 30.872 | 2 |
| 2025-05-05T05:49:00 | 54.999911 | 8.099560 | 2.0 | 10.373 | 2 | 34.494 | 10.548 | 30.871 | 2 |
| 2025-05-05T05:50:00 | 54.999989 | 8.099672 | 2.0 | 10.375 | 2 | 34.501 | 10.557 | 30.871 | 2 |
| 2025-05-05T05:51:00 | 55.000073 | 8.099636 | 2.0 | 10.373 | 2 | 34.503 | 10.560 | 30.870 | 2 |
| 2025-05-05T05:52:00 | 55.000004 | 8.099429 | 2.0 | 10.374 | 2 | 34.504 | 10.561 | 30.870 | 2 |
| 2025-05-05T05:53:00 | 54.999968 | 8.099123 | 2.0 | 10.379 | 2 | 34.507 | 10.564 | 30.871 | 2 |
| 2025-05-05T05:54:00 | 55.000008 | 8.098949 | 2.0 | 10.374 | 2 | 34.512 | 10.569 | 30.871 | 2 |
| 2025-05-05T05:55:00 | 54.999996 | 8.098761 | 2.0 | 10.370 | 2 | 34.510 | 10.565 | 30.873 | 2 |
| 2025-05-05T05:56:00 | 54.999973 | 8.098285 | 2.0 | 10.370 | 2 | 34.509 | 10.563 | 30.873 | 2 |
| 2025-05-05T05:57:00 | 54.999897 | 8.097772 | 2.0 | 10.372 | 2 | 34.509 | 10.564 | 30.873 | 2 |
| 2025-05-05T05:58:00 | 54.999868 | 8.097193 | 2.0 | 10.373 | 2 | 34.512 | 10.566 | 30.874 | 2 |
| 2025-05-05T05:59:00 | 54.999925 | 8.096624 | 2.0 | 10.377 | 2 | 34.514 | 10.568 | 30.874 | 2 |
| 2025-05-05T06:00:00 | 54.999960 | 8.096126 | 2.0 | 10.384 | 2 | 34.519 | 10.573 | 30.875 | 2 |
| 2025-05-05T06:01:00 | 55.000022 | 8.095649 | 2.0 | 10.387 | 2 | 34.526 | 10.578 | 30.878 | 2 |
| 2025-05-05T06:02:00 | 55.000232 | 8.095399 | 2.0 | 10.390 | 2 | 34.528 | 10.583 | 30.875 | 2 |
| 2025-05-05T06:03:00 | 55.000320 | 8.095427 | 2.0 | 10.392 | 2 | 34.533 | 10.585 | 30.879 | 2 |
| 2025-05-05T06:04:00 | 55.000312 | 8.095394 | 2.0 | 10.396 | 2 | 34.536 | 10.587 | 30.880 | 2 |
| 2025-05-05T06:05:00 | 55.000312 | 8.095202 | 2.0 | 10.396 | 2 | 34.539 | 10.591 | 30.879 | 2 |
| 2025-05-05T06:06:00 | 55.000346 | 8.094919 | 2.0 | 10.399 | 2 | 34.541 | 10.591 | 30.881 | 2 |
| 2025-05-05T06:07:00 | 55.000544 | 8.094923 | 2.0 | 10.396 | 2 | 34.544 | 10.594 | 30.882 | 2 |
| 2025-05-05T06:08:00 | 55.000774 | 8.095160 | 2.0 | 10.395 | 2 | 34.544 | 10.594 | 30.882 | 2 |
| 2025-05-05T06:09:00 | 55.000823 | 8.095248 | 2.0 | 10.395 | 2 | 34.544 | 10.591 | 30.884 | 2 |
| 2025-05-05T06:10:00 | 55.000790 | 8.094952 | 2.0 | 10.393 | 2 | 34.545 | 10.592 | 30.885 | 2 |
| 2025-05-05T06:11:00 | 55.000733 | 8.094436 | 2.0 | 10.394 | 2 | 34.544 | 10.592 | 30.884 | 2 |
| 2025-05-05T06:12:00 | 55.000689 | 8.093886 | 2.0 | 10.396 | 2 | 34.545 | 10.593 | 30.884 | 2 |
| 2025-05-05T06:13:00 | 55.000669 | 8.093321 | 2.0 | 10.397 | 2 | 34.547 | 10.595 | 30.884 | 2 |
| 2025-05-05T06:14:00 | 55.000691 | 8.092776 | 2.0 | 10.397 | 2 | 34.548 | 10.596 | 30.884 | 2 |
| 2025-05-05T06:15:00 | 55.000755 | 8.092231 | 2.0 | 10.395 | 2 | 34.549 | 10.596 | 30.885 | 2 |
| 2025-05-05T06:16:00 | 55.000855 | 8.091680 | 2.0 | 10.394 | 2 | 34.550 | 10.594 | 30.888 | 2 |
| 2025-05-05T06:17:00 | 55.001024 | 8.091248 | 2.0 | 10.397 | 2 | 34.553 | 10.593 | 30.892 | 2 |
| 2025-05-05T06:18:00 | 55.001058 | 8.091117 | 2.0 | 10.399 | 2 | 34.560 | 10.598 | 30.894 | 2 |
| 2025-05-05T06:19:00 | 55.001088 | 8.091057 | 2.0 | 10.400 | 2 | 34.564 | 10.600 | 30.897 | 2 |
| 2025-05-05T06:20:00 | 55.001124 | 8.090907 | 2.0 | 10.402 | 2 | 34.566 | 10.601 | 30.898 | 2 |
| 2025-05-05T06:21:00 | 55.001195 | 8.090869 | 2.0 | 10.404 | 2 | 34.567 | 10.601 | 30.899 | 2 |
| 2025-05-05T06:22:00 | 55.001482 | 8.091271 | 2.0 | 10.398 | 2 | 34.570 | 10.604 | 30.899 | 2 |
| 2025-05-05T06:23:00 | 55.002041 | 8.092212 | 2.0 | 10.392 | 2 | 34.563 | 10.599 | 30.897 | 2 |
| 2025-05-05T06:24:00 | 55.002701 | 8.093407 | 2.0 | 10.390 | 2 | 34.557 | 10.594 | 30.895 | 2 |
| 2025-05-05T06:25:00 | 55.003210 | 8.094355 | 2.0 | 10.388 | 2 | 34.551 | 10.591 | 30.891 | 2 |
| 2025-05-05T06:26:00 | 55.003599 | 8.094841 | 2.0 | 10.390 | 2 | 34.548 | 10.591 | 30.888 | 2 |
| 2025-05-05T06:27:00 | 55.003873 | 8.094943 | 2.0 | 10.386 | 2 | 34.547 | 10.592 | 30.887 | 2 |
| 2025-05-05T06:28:00 | 55.004066 | 8.094696 | 2.0 | 10.382 | 2 | 34.546 | 10.590 | 30.887 | 2 |
| 2025-05-05T06:29:00 | 55.004239 | 8.094270 | 2.0 | 10.380 | 2 | 34.545 | 10.584 | 30.891 | 2 |
| 2025-05-05T06:30:00 | 55.004298 | 8.093998 | 2.0 | 10.381 | 2 | 34.543 | 10.582 | 30.891 | 2 |
| 2025-05-05T06:31:00 | 55.004357 | 8.093954 | 2.0 | 10.381 | 2 | 34.537 | 10.574 | 30.892 | 2 |
| 2025-05-05T06:32:00 | 55.004440 | 8.093949 | 2.0 | 10.381 | 2 | 34.533 | 10.569 | 30.892 | 2 |
| 2025-05-05T06:33:00 | 55.004507 | 8.093968 | 2.0 | 10.383 | 2 | 34.532 | 10.567 | 30.893 | 2 |
| 2025-05-05T06:34:00 | 55.004569 | 8.093972 | 2.0 | 10.383 | 2 | 34.532 | 10.566 | 30.894 | 2 |
| 2025-05-05T06:35:00 | 55.004625 | 8.093960 | 2.0 | 10.386 | 2 | 34.530 | 10.564 | 30.893 | 2 |
| 2025-05-05T06:36:00 | 55.004644 | 8.093997 | 2.0 | 10.391 | 2 | 34.530 | 10.566 | 30.892 | 2 |
| 2025-05-05T06:37:00 | 55.004639 | 8.094031 | 2.0 | 10.391 | 2 | 34.532 | 10.571 | 30.889 | 2 |
| 2025-05-05T06:38:00 | 55.004607 | 8.094054 | 2.0 | 10.388 | 2 | 34.531 | 10.568 | 30.891 | 2 |
| 2025-05-05T06:39:00 | 55.004567 | 8.094021 | 2.0 | 10.397 | 2 | 34.531 | 10.569 | 30.890 | 2 |
| 2025-05-05T06:40:00 | 55.004542 | 8.093897 | 2.0 | 10.396 | 2 | 34.532 | 10.574 | 30.887 | 2 |
| 2025-05-05T06:41:00 | 55.004528 | 8.093794 | 2.0 | 10.404 | 2 | 34.532 | 10.574 | 30.887 | 2 |
| 2025-05-05T06:42:00 | 55.004529 | 8.093757 | 2.0 | 10.405 | 2 | 34.537 | 10.581 | 30.886 | 2 |
| 2025-05-05T06:43:00 | 55.004647 | 8.093776 | 2.0 | 10.405 | 2 | 34.539 | 10.582 | 30.887 | 2 |
| 2025-05-05T06:44:00 | 55.004805 | 8.093756 | 2.0 | 10.399 | 2 | 34.537 | 10.579 | 30.888 | 2 |
| 2025-05-05T06:45:00 | 55.004927 | 8.093665 | 2.0 | 10.398 | 2 | 34.532 | 10.575 | 30.886 | 2 |
| 2025-05-05T06:46:00 | 55.005000 | 8.093504 | 2.0 | 10.404 | 2 | 34.532 | 10.575 | 30.886 | 2 |
| 2025-05-05T06:47:00 | 55.005021 | 8.093346 | 2.0 | 10.403 | 2 | 34.537 | 10.579 | 30.888 | 2 |
| 2025-05-05T06:48:00 | 55.005108 | 8.093188 | 2.0 | 10.398 | 2 | 34.536 | 10.576 | 30.889 | 2 |
| 2025-05-05T06:49:00 | 55.005382 | 8.093240 | 2.0 | 10.394 | 2 | 34.533 | 10.572 | 30.890 | 2 |
| 2025-05-05T06:50:00 | 55.005711 | 8.093428 | 2.0 | 10.392 | 2 | 34.530 | 10.570 | 30.888 | 2 |
| 2025-05-05T06:51:00 | 55.006027 | 8.093556 | 2.0 | 10.393 | 2 | 34.529 | 10.567 | 30.890 | 2 |
| 2025-05-05T06:52:00 | 55.006210 | 8.093613 | 2.0 | 10.394 | 2 | 34.530 | 10.567 | 30.891 | 2 |
| 2025-05-05T06:53:00 | 55.006630 | 8.093796 | 2.0 | 10.390 | 2 | 34.529 | 10.567 | 30.890 | 2 |
| 2025-05-05T06:54:00 | 55.007384 | 8.094129 | 2.0 | 10.382 | 2 | 34.526 | 10.565 | 30.889 | 2 |
| 2025-05-05T06:55:00 | 55.008207 | 8.094510 | 2.0 | 10.377 | 2 | 34.521 | 10.556 | 30.891 | 2 |
| 2025-05-05T06:56:00 | 55.009044 | 8.094855 | 2.0 | 10.376 | 2 | 34.519 | 10.551 | 30.893 | 2 |
| 2025-05-05T06:57:00 | 55.009855 | 8.095179 | 2.0 | 10.366 | 2 | 34.519 | 10.548 | 30.896 | 2 |
| 2025-05-05T06:58:00 | 55.010653 | 8.095437 | 2.0 | 10.361 | 2 | 34.518 | 10.540 | 30.902 | 2 |
| 2025-05-05T06:59:00 | 55.011420 | 8.095845 | 2.0 | 10.358 | 2 | 34.517 | 10.536 | 30.904 | 2 |
| 2025-05-05T07:00:00 | 55.012133 | 8.096301 | 2.0 | 10.350 | 2 | 34.515 | 10.532 | 30.906 | 2 |
| 2025-05-05T07:01:00 | 55.012733 | 8.096652 | 2.0 | 10.344 | 2 | 34.510 | 10.523 | 30.908 | 2 |
| 2025-05-05T07:02:00 | 55.013224 | 8.096885 | 2.0 | 10.339 | 2 | 34.506 | 10.518 | 30.909 | 2 |
| 2025-05-05T07:03:00 | 55.013615 | 8.097060 | 2.0 | 10.336 | 2 | 34.501 | 10.513 | 30.908 | 2 |
| 2025-05-05T07:04:00 | 55.013977 | 8.097145 | 2.0 | 10.336 | 2 | 34.500 | 10.510 | 30.909 | 2 |
| 2025-05-05T07:05:00 | 55.014288 | 8.097223 | 2.0 | 10.334 | 2 | 34.500 | 10.509 | 30.910 | 2 |
| 2025-05-05T07:06:00 | 55.014554 | 8.097252 | 2.0 | 10.335 | 2 | 34.499 | 10.508 | 30.910 | 2 |
| 2025-05-05T07:07:00 | 55.014789 | 8.097280 | 2.0 | 10.335 | 2 | 34.500 | 10.509 | 30.910 | 2 |
| 2025-05-05T07:08:00 | 55.014993 | 8.097283 | 2.0 | 10.331 | 2 | 34.500 | 10.509 | 30.910 | 2 |
| 2025-05-05T07:09:00 | 55.015125 | 8.097161 | 2.0 | 10.332 | 2 | 34.497 | 10.504 | 30.911 | 2 |
| 2025-05-05T07:10:00 | 55.015190 | 8.096961 | 2.0 | 10.335 | 2 | 34.498 | 10.505 | 30.912 | 2 |
| 2025-05-05T07:11:00 | 55.015190 | 8.096713 | 2.0 | 10.337 | 2 | 34.502 | 10.510 | 30.911 | 2 |
| 2025-05-05T07:12:00 | 55.015233 | 8.096367 | 2.0 | 10.335 | 2 | 34.502 | 10.509 | 30.912 | 2 |
| 2025-05-05T07:13:00 | 55.015411 | 8.096129 | 2.0 | 10.332 | 2 | 34.501 | 10.507 | 30.913 | 2 |
| 2025-05-05T07:14:00 | 55.015631 | 8.096187 | 2.0 | 10.336 | 2 | 34.499 | 10.505 | 30.913 | 2 |
| 2025-05-05T07:15:00 | 55.015828 | 8.096304 | 2.0 | 10.340 | 2 | 34.502 | 10.508 | 30.913 | 2 |
| 2025-05-05T07:16:00 | 55.015971 | 8.096433 | 2.0 | 10.340 | 2 | 34.505 | 10.511 | 30.913 | 2 |
| 2025-05-05T07:17:00 | 55.016099 | 8.096500 | 2.0 | 10.339 | 2 | 34.505 | 10.510 | 30.914 | 2 |
| 2025-05-05T07:18:00 | 55.016196 | 8.096531 | 2.0 | 10.338 | 2 | 34.505 | 10.511 | 30.913 | 2 |
| 2025-05-05T07:19:00 | 55.016258 | 8.096613 | 2.0 | 10.337 | 2 | 34.502 | 10.508 | 30.913 | 2 |
| 2025-05-05T07:20:00 | 55.016581 | 8.096832 | 2.0 | 10.331 | 2 | 34.501 | 10.508 | 30.912 | 2 |
| 2025-05-05T07:21:00 | 55.017299 | 8.097146 | 2.0 | 10.325 | 2 | 34.498 | 10.503 | 30.913 | 2 |
| 2025-05-05T07:22:00 | 55.018060 | 8.097474 | 2.0 | 10.321 | 2 | 34.495 | 10.497 | 30.915 | 2 |
| 2025-05-05T07:23:00 | 55.018763 | 8.097732 | 2.0 | 10.318 | 2 | 34.493 | 10.492 | 30.918 | 2 |
| 2025-05-05T07:24:00 | 55.019399 | 8.097965 | 2.0 | 10.311 | 2 | 34.493 | 10.488 | 30.921 | 2 |
| 2025-05-05T07:25:00 | 55.019984 | 8.098145 | 2.0 | 10.309 | 2 | 34.490 | 10.483 | 30.922 | 2 |
| 2025-05-05T07:26:00 | 55.020587 | 8.098290 | 2.0 | 10.305 | 2 | 34.489 | 10.480 | 30.924 | 2 |
| 2025-05-05T07:27:00 | 55.021276 | 8.098500 | 2.0 | 10.301 | 2 | 34.488 | 10.477 | 30.925 | 2 |
| 2025-05-05T07:28:00 | 55.022016 | 8.098747 | 2.0 | 10.297 | 2 | 34.485 | 10.473 | 30.926 | 2 |
| 2025-05-05T07:29:00 | 55.022710 | 8.098983 | 2.0 | 10.290 | 2 | 34.483 | 10.468 | 30.928 | 2 |
| 2025-05-05T07:30:00 | 55.023276 | 8.099071 | 2.0 | 10.285 | 2 | 34.479 | 10.460 | 30.931 | 2 |
| 2025-05-05T07:31:00 | 55.023731 | 8.099049 | 2.0 | 10.281 | 2 | 34.475 | 10.455 | 30.931 | 2 |
| 2025-05-05T07:32:00 | 55.024091 | 8.098990 | 2.0 | 10.284 | 2 | 34.475 | 10.454 | 30.932 | 2 |
| 2025-05-05T07:33:00 | 55.024375 | 8.098988 | 2.0 | 10.286 | 2 | 34.478 | 10.457 | 30.932 | 2 |
| 2025-05-05T07:34:00 | 55.024607 | 8.099097 | 2.0 | 10.281 | 2 | 34.480 | 10.457 | 30.934 | 2 |
| 2025-05-05T07:35:00 | 55.024783 | 8.099218 | 2.0 | 10.282 | 2 | 34.476 | 10.452 | 30.935 | 2 |
| 2025-05-05T07:36:00 | 55.024936 | 8.099324 | 2.0 | 10.283 | 2 | 34.475 | 10.453 | 30.933 | 2 |
| 2025-05-05T07:37:00 | 55.025130 | 8.099478 | 2.0 | 10.283 | 2 | 34.476 | 10.455 | 30.932 | 2 |
| 2025-05-05T07:38:00 | 55.025635 | 8.099645 | 2.0 | 10.276 | 2 | 34.474 | 10.453 | 30.932 | 2 |
| 2025-05-05T07:39:00 | 55.026305 | 8.099810 | 2.0 | 10.273 | 2 | 34.470 | 10.449 | 30.931 | 2 |
| 2025-05-05T07:40:00 | 55.027080 | 8.100067 | 2.0 | 10.270 | 2 | 34.468 | 10.445 | 30.933 | 2 |
| 2025-05-05T07:41:00 | 55.027912 | 8.100359 | 2.0 | 10.270 | 2 | 34.466 | 10.443 | 30.932 | 2 |
| 2025-05-05T07:42:00 | 55.028768 | 8.100623 | 2.0 | 10.266 | 2 | 34.467 | 10.440 | 30.936 | 2 |
| 2025-05-05T07:43:00 | 55.029609 | 8.100911 | 2.0 | 10.241 | 2 | 34.466 | 10.437 | 30.938 | 2 |
| 2025-05-05T07:44:00 | 55.030411 | 8.101174 | 2.0 | 10.216 | 2 | 34.430 | 10.410 | 30.925 | 2 |
| 2025-05-05T07:45:00 | 55.031188 | 8.101441 | 2.0 | 10.192 | 2 | 34.392 | 10.387 | 30.906 | 2 |
| 2025-05-05T07:46:00 | 55.031992 | 8.101677 | 2.0 | 10.179 | 2 | 34.338 | 10.363 | 30.873 | 2 |
| 2025-05-05T07:47:00 | 55.032790 | 8.101931 | 2.0 | 10.177 | 2 | 34.314 | 10.352 | 30.858 | 2 |
| 2025-05-05T07:48:00 | 55.033573 | 8.102202 | 2.0 | 10.175 | 2 | 34.301 | 10.349 | 30.848 | 2 |
| 2025-05-05T07:49:00 | 55.034350 | 8.102495 | 2.0 | 10.169 | 2 | 34.296 | 10.345 | 30.846 | 2 |
| 2025-05-05T07:50:00 | 55.035114 | 8.102713 | 2.0 | 10.168 | 2 | 34.286 | 10.340 | 30.840 | 2 |
| 2025-05-05T07:51:00 | 55.035744 | 8.102717 | 2.0 | 10.168 | 2 | 34.276 | 10.340 | 30.830 | 2 |
| 2025-05-05T07:52:00 | 55.036245 | 8.102636 | 2.0 | 10.169 | 2 | 34.268 | 10.340 | 30.822 | 2 |
| 2025-05-05T07:53:00 | 55.036288 | 8.102905 | 2.0 | 10.173 | 2 | 34.268 | 10.341 | 30.822 | 2 |
| 2025-05-05T07:54:00 | 55.035784 | 8.103262 | 2.0 | 10.177 | 2 | 34.269 | 10.345 | 30.819 | 2 |
| 2025-05-05T07:55:00 | 55.034946 | 8.103351 | 2.0 | 10.177 | 2 | 34.283 | 10.347 | 30.832 | 2 |
| 2025-05-05T07:56:00 | 55.033653 | 8.103196 | 2.0 | 10.187 | 2 | 34.297 | 10.351 | 30.842 | 2 |
| 2025-05-05T07:57:00 | 55.032067 | 8.102978 | 2.0 | 10.438 | 2 | 34.275 | 10.411 | 30.769 | 2 |
| 2025-05-05T07:58:00 | 55.030353 | 8.102717 | 2.0 | 10.452 | 2 | 34.161 | 10.594 | 30.502 | 2 |
| 2025-05-05T07:59:00 | 55.028564 | 8.102458 | 2.0 | 10.487 | 2 | 34.163 | 10.620 | 30.483 | 2 |
| 2025-05-05T08:00:00 | 55.026735 | 8.102187 | 2.0 | 10.525 | 2 | 34.166 | 10.660 | 30.452 | 2 |
| 2025-05-05T08:01:00 | 55.024884 | 8.101936 | 2.0 | 10.527 | 2 | 34.169 | 10.694 | 30.427 | 2 |
| 2025-05-05T08:02:00 | 55.023028 | 8.101668 | 2.0 | 10.527 | 2 | 34.177 | 10.695 | 30.434 | 2 |
| 2025-05-05T08:03:00 | 55.021164 | 8.101429 | 2.0 | 10.496 | 2 | 34.185 | 10.695 | 30.442 | 2 |
| 2025-05-05T08:04:00 | 55.019292 | 8.101194 | 2.0 | 10.457 | 2 | 34.191 | 10.662 | 30.475 | 2 |
| 2025-05-05T08:05:00 | 55.017412 | 8.100963 | 2.0 | 10.382 | 2 | 34.195 | 10.617 | 30.517 | 2 |
| 2025-05-05T08:06:00 | 55.015532 | 8.100756 | 2.0 | 10.343 | 2 | 34.223 | 10.546 | 30.604 | 2 |
| 2025-05-05T08:07:00 | 55.013645 | 8.100565 | 2.0 | 10.324 | 2 | 34.231 | 10.514 | 30.639 | 2 |
| 2025-05-05T08:08:00 | 55.011754 | 8.100397 | 2.0 | 10.328 | 2 | 34.247 | 10.500 | 30.666 | 2 |
| 2025-05-05T08:09:00 | 55.009863 | 8.100253 | 2.0 | 10.335 | 2 | 34.274 | 10.500 | 30.693 | 2 |
| 2025-05-05T08:10:00 | 55.007961 | 8.100102 | 2.0 | 10.348 | 2 | 34.283 | 10.509 | 30.695 | 2 |
| 2025-05-05T08:11:00 | 55.006060 | 8.099955 | 2.0 | 10.371 | 2 | 34.295 | 10.523 | 30.695 | 2 |
| 2025-05-05T08:12:00 | 55.004234 | 8.099806 | 2.0 | 10.386 | 2 | 34.332 | 10.544 | 30.714 | 2 |
| 2025-05-05T08:13:00 | 55.002650 | 8.099636 | 2.0 | 10.425 | 2 | 34.375 | 10.562 | 30.741 | 2 |
| 2025-05-05T08:14:00 | 55.002046 | 8.098401 | 2.0 | 10.445 | 2 | 34.444 | 10.599 | 30.779 | 2 |
| 2025-05-05T08:15:00 | 55.002098 | 8.097042 | 2.0 | 10.450 | 2 | 34.477 | 10.617 | 30.796 | 2 |
| 2025-05-05T08:16:00 | 55.002207 | 8.095756 | 2.0 | 10.456 | 2 | 34.485 | 10.619 | 30.802 | 2 |
| 2025-05-05T08:17:00 | 55.002309 | 8.094434 | 2.0 | 10.455 | 2 | 34.493 | 10.624 | 30.806 | 2 |
| 2025-05-05T08:18:00 | 55.002584 | 8.093476 | 2.0 | 10.461 | 2 | 34.499 | 10.626 | 30.810 | 2 |
| 2025-05-05T08:19:00 | 55.002895 | 8.092934 | 2.0 | 10.465 | 2 | 34.505 | 10.630 | 30.813 | 2 |
| 2025-05-05T08:20:00 | 55.003207 | 8.092535 | 2.0 | 10.448 | 2 | 34.497 | 10.629 | 30.806 | 2 |
| 2025-05-05T08:21:00 | 55.003506 | 8.092263 | 2.0 | 10.439 | 2 | 34.474 | 10.616 | 30.794 | 2 |
| 2025-05-05T08:22:00 | 55.003794 | 8.092140 | 2.0 | 10.438 | 2 | 34.454 | 10.609 | 30.780 | 2 |
| 2025-05-05T08:23:00 | 55.004078 | 8.092133 | 2.0 | 10.434 | 2 | 34.446 | 10.608 | 30.773 | 2 |
| 2025-05-05T08:24:00 | 55.004358 | 8.092162 | 2.0 | 10.427 | 2 | 34.434 | 10.603 | 30.765 | 2 |
| 2025-05-05T08:25:00 | 55.004608 | 8.092199 | 2.0 | 10.425 | 2 | 34.423 | 10.596 | 30.760 | 2 |
| 2025-05-05T08:26:00 | 55.004829 | 8.092237 | 2.0 | 10.420 | 2 | 34.414 | 10.593 | 30.754 | 2 |
| 2025-05-05T08:27:00 | 55.005023 | 8.092271 | 2.0 | 10.418 | 2 | 34.410 | 10.589 | 30.753 | 2 |
| 2025-05-05T08:28:00 | 55.005177 | 8.092304 | 2.0 | 10.424 | 2 | 34.407 | 10.589 | 30.750 | 2 |
| 2025-05-05T08:29:00 | 55.005288 | 8.092275 | 2.0 | 10.423 | 2 | 34.406 | 10.592 | 30.747 | 2 |
| 2025-05-05T08:30:00 | 55.005381 | 8.092213 | 2.0 | 10.426 | 2 | 34.400 | 10.592 | 30.741 | 2 |
| 2025-05-05T08:31:00 | 55.005462 | 8.092128 | 2.0 | 10.426 | 2 | 34.399 | 10.594 | 30.738 | 2 |
| 2025-05-05T08:32:00 | 55.005528 | 8.092055 | 2.0 | 10.425 | 2 | 34.400 | 10.596 | 30.737 | 2 |
| 2025-05-05T08:33:00 | 55.005567 | 8.091972 | 2.0 | 10.418 | 2 | 34.395 | 10.592 | 30.736 | 2 |
| 2025-05-05T08:34:00 | 55.005588 | 8.091910 | 2.0 | 10.424 | 2 | 34.394 | 10.587 | 30.739 | 2 |
| 2025-05-05T08:35:00 | 55.005612 | 8.091842 | 2.0 | 10.428 | 2 | 34.395 | 10.592 | 30.736 | 2 |
| 2025-05-05T08:36:00 | 55.005633 | 8.091727 | 2.0 | 10.426 | 2 | 34.408 | 10.596 | 30.745 | 2 |
| 2025-05-05T08:37:00 | 55.005647 | 8.091555 | 2.0 | 10.429 | 2 | 34.410 | 10.595 | 30.748 | 2 |
| 2025-05-05T08:38:00 | 55.005650 | 8.091358 | 2.0 | 10.429 | 2 | 34.413 | 10.597 | 30.749 | 2 |
| 2025-05-05T08:39:00 | 55.005627 | 8.091205 | 2.0 | 10.436 | 2 | 34.417 | 10.599 | 30.752 | 2 |
| 2025-05-05T08:40:00 | 55.005582 | 8.091085 | 2.0 | 10.443 | 2 | 34.424 | 10.606 | 30.753 | 2 |
| 2025-05-05T08:41:00 | 55.005579 | 8.091009 | 2.0 | 10.443 | 2 | 34.431 | 10.610 | 30.756 | 2 |
| 2025-05-05T08:42:00 | 55.005613 | 8.090981 | 2.0 | 10.448 | 2 | 34.437 | 10.613 | 30.760 | 2 |
| 2025-05-05T08:43:00 | 55.005696 | 8.090986 | 2.0 | 10.449 | 2 | 34.442 | 10.617 | 30.761 | 2 |
| 2025-05-05T08:44:00 | 55.005799 | 8.090988 | 2.0 | 10.447 | 2 | 34.433 | 10.615 | 30.754 | 2 |
| 2025-05-05T08:45:00 | 55.005889 | 8.090999 | 2.0 | 10.440 | 2 | 34.435 | 10.615 | 30.756 | 2 |
| 2025-05-05T08:46:00 | 55.005967 | 8.091030 | 2.0 | 10.444 | 2 | 34.434 | 10.609 | 30.760 | 2 |
| 2025-05-05T08:47:00 | 55.006042 | 8.091049 | 2.0 | 10.450 | 2 | 34.437 | 10.615 | 30.758 | 2 |
| 2025-05-05T08:48:00 | 55.006135 | 8.090999 | 2.0 | 10.449 | 2 | 34.435 | 10.616 | 30.755 | 2 |
| 2025-05-05T08:49:00 | 55.006214 | 8.090945 | 2.0 | 10.451 | 2 | 34.435 | 10.618 | 30.754 | 2 |
| 2025-05-05T08:50:00 | 55.006229 | 8.090940 | 2.0 | 10.450 | 2 | 34.438 | 10.619 | 30.756 | 2 |
| 2025-05-05T08:51:00 | 55.006247 | 8.090920 | 2.0 | 10.457 | 2 | 34.440 | 10.619 | 30.758 | 2 |
| 2025-05-05T08:52:00 | 55.006261 | 8.090889 | 2.0 | 10.456 | 2 | 34.444 | 10.625 | 30.757 | 2 |
| 2025-05-05T08:53:00 | 55.006289 | 8.090815 | 2.0 | 10.457 | 2 | 34.446 | 10.626 | 30.758 | 2 |
| 2025-05-05T08:54:00 | 55.006335 | 8.090675 | 2.0 | 10.451 | 2 | 34.447 | 10.623 | 30.761 | 2 |
| 2025-05-05T08:55:00 | 55.006397 | 8.090518 | 2.0 | 10.459 | 2 | 34.446 | 10.622 | 30.761 | 2 |
| 2025-05-05T08:56:00 | 55.006480 | 8.090490 | 2.0 | 10.456 | 2 | 34.451 | 10.626 | 30.763 | 2 |
| 2025-05-05T08:57:00 | 55.006588 | 8.090510 | 2.0 | 10.462 | 2 | 34.450 | 10.626 | 30.762 | 2 |
| 2025-05-05T08:58:00 | 55.006691 | 8.090527 | 2.0 | 10.456 | 2 | 34.449 | 10.629 | 30.758 | 2 |
| 2025-05-05T08:59:00 | 55.006826 | 8.090537 | 2.0 | 10.456 | 2 | 34.445 | 10.623 | 30.759 | 2 |
| 2025-05-05T09:00:00 | 55.006955 | 8.090548 | 2.0 | 10.529 | 2 | 34.443 | 10.626 | 30.755 | 2 |
| 2025-05-05T09:01:00 | 55.007067 | 8.090567 | 2.0 | 10.872 | 2 | 34.358 | 10.796 | 30.528 | 2 |
| 2025-05-05T09:02:00 | 55.007176 | 8.090531 | 2.0 | 10.891 | 2 | 34.257 | 11.022 | 30.242 | 2 |
| 2025-05-05T09:03:00 | 55.007272 | 8.090455 | 2.0 | 10.909 | 2 | 34.257 | 11.055 | 30.215 | 2 |
| 2025-05-05T09:04:00 | 55.007367 | 8.090409 | 2.0 | 10.910 | 2 | 34.258 | 11.069 | 30.204 | 2 |
| 2025-05-05T09:05:00 | 55.007316 | 8.090570 | 2.0 | 10.915 | 2 | 34.257 | 11.073 | 30.200 | 2 |
| 2025-05-05T09:06:00 | 55.006791 | 8.090611 | 2.0 | 10.916 | 2 | 34.254 | 11.077 | 30.194 | 2 |
| 2025-05-05T09:07:00 | 55.006039 | 8.090958 | 2.0 | 10.929 | 2 | 34.254 | 11.084 | 30.188 | 2 |
| 2025-05-05T09:08:00 | 55.005124 | 8.091565 | 2.0 | 10.910 | 2 | 34.262 | 11.082 | 30.198 | 2 |
| 2025-05-05T09:09:00 | 55.004185 | 8.092213 | 2.0 | 10.915 | 2 | 34.272 | 11.078 | 30.211 | 2 |
| 2025-05-05T09:10:00 | 55.003423 | 8.092743 | 2.0 | 10.906 | 2 | 34.280 | 11.075 | 30.221 | 2 |
| 2025-05-05T09:11:00 | 55.003275 | 8.093131 | 2.0 | 10.927 | 2 | 34.285 | 11.075 | 30.226 | 2 |
| 2025-05-05T09:12:00 | 55.003310 | 8.093213 | 2.0 | 10.941 | 2 | 34.293 | 11.093 | 30.219 | 2 |
| 2025-05-05T09:13:00 | 55.003384 | 8.093228 | 2.0 | 10.937 | 2 | 34.299 | 11.102 | 30.217 | 2 |
| 2025-05-05T09:14:00 | 55.003440 | 8.093211 | 2.0 | 10.946 | 2 | 34.301 | 11.102 | 30.219 | 2 |
| 2025-05-05T09:15:00 | 55.003464 | 8.093163 | 2.0 | 10.948 | 2 | 34.305 | 11.110 | 30.217 | 2 |
| 2025-05-05T09:16:00 | 55.003462 | 8.093081 | 2.0 | 10.953 | 2 | 34.307 | 11.114 | 30.215 | 2 |
| 2025-05-05T09:17:00 | 55.003430 | 8.092975 | 2.0 | 10.945 | 2 | 34.309 | 11.117 | 30.215 | 2 |
| 2025-05-05T09:18:00 | 55.003384 | 8.092849 | 2.0 | 10.943 | 2 | 34.306 | 11.106 | 30.221 | 2 |
| 2025-05-05T09:19:00 | 55.003356 | 8.092759 | 2.0 | 10.941 | 2 | 34.310 | 11.108 | 30.223 | 2 |
| 2025-05-05T09:20:00 | 55.003427 | 8.092739 | 2.0 | 10.947 | 2 | 34.311 | 11.107 | 30.225 | 2 |
| 2025-05-05T09:21:00 | 55.003539 | 8.092654 | 2.0 | 10.944 | 2 | 34.314 | 11.112 | 30.224 | 2 |
| 2025-05-05T09:22:00 | 55.003727 | 8.092586 | 2.0 | 10.932 | 2 | 34.313 | 11.108 | 30.226 | 2 |
| 2025-05-05T09:23:00 | 55.004280 | 8.092780 | 2.0 | 10.938 | 2 | 34.304 | 11.098 | 30.225 | 2 |
| 2025-05-05T09:24:00 | 55.005093 | 8.093117 | 2.0 | 10.940 | 2 | 34.300 | 11.102 | 30.218 | 2 |
| 2025-05-05T09:25:00 | 55.005938 | 8.093482 | 2.0 | 10.948 | 2 | 34.297 | 11.108 | 30.210 | 2 |
| 2025-05-05T09:26:00 | 55.006741 | 8.093827 | 2.0 | 10.942 | 2 | 34.296 | 11.111 | 30.207 | 2 |
| 2025-05-05T09:27:00 | 55.007537 | 8.094171 | 2.0 | 10.929 | 2 | 34.293 | 11.105 | 30.209 | 2 |
| 2025-05-05T09:28:00 | 55.008339 | 8.094503 | 2.0 | 10.956 | 2 | 34.289 | 11.104 | 30.206 | 2 |
| 2025-05-05T09:29:00 | 55.009095 | 8.094815 | 2.0 | 10.950 | 2 | 34.300 | 11.120 | 30.203 | 2 |
| 2025-05-05T09:30:00 | 55.009703 | 8.095011 | 2.0 | 10.937 | 2 | 34.298 | 11.113 | 30.207 | 2 |
| 2025-05-05T09:31:00 | 55.010170 | 8.095107 | 2.0 | 10.927 | 2 | 34.282 | 11.100 | 30.202 | 2 |
| 2025-05-05T09:32:00 | 55.010537 | 8.095129 | 2.0 | 10.951 | 2 | 34.283 | 11.098 | 30.205 | 2 |
| 2025-05-05T09:33:00 | 55.010827 | 8.095019 | 2.0 | 10.958 | 2 | 34.296 | 11.117 | 30.202 | 2 |
| 2025-05-05T09:34:00 | 55.011099 | 8.094905 | 2.0 | 10.956 | 2 | 34.298 | 11.120 | 30.202 | 2 |
| 2025-05-05T09:35:00 | 55.011387 | 8.095057 | 2.0 | 10.956 | 2 | 34.297 | 11.120 | 30.201 | 2 |
| 2025-05-05T09:36:00 | 55.011630 | 8.095355 | 2.0 | 10.961 | 2 | 34.299 | 11.123 | 30.200 | 2 |
| 2025-05-05T09:37:00 | 55.011800 | 8.095565 | 2.0 | 10.961 | 2 | 34.302 | 11.125 | 30.201 | 2 |
| 2025-05-05T09:38:00 | 55.012042 | 8.095644 | 2.0 | 10.984 | 2 | 34.306 | 11.131 | 30.200 | 2 |
| 2025-05-05T09:39:00 | 55.012405 | 8.095598 | 2.0 | 10.966 | 2 | 34.317 | 11.145 | 30.200 | 2 |
| 2025-05-05T09:40:00 | 55.012883 | 8.095575 | 2.0 | 10.956 | 2 | 34.304 | 11.127 | 30.202 | 2 |
| 2025-05-05T09:41:00 | 55.013420 | 8.095620 | 2.0 | 10.961 | 2 | 34.301 | 11.122 | 30.203 | 2 |
| 2025-05-05T09:42:00 | 55.014005 | 8.095672 | 2.0 | 10.958 | 2 | 34.304 | 11.123 | 30.205 | 2 |
| 2025-05-05T09:43:00 | 55.014609 | 8.095765 | 2.0 | 10.947 | 2 | 34.304 | 11.119 | 30.208 | 2 |
| 2025-05-05T09:44:00 | 55.015239 | 8.095871 | 2.0 | 10.923 | 2 | 34.307 | 11.105 | 30.223 | 2 |
| 2025-05-05T09:45:00 | 55.015880 | 8.095980 | 2.0 | 10.905 | 2 | 34.301 | 11.084 | 30.234 | 2 |
| 2025-05-05T09:46:00 | 55.016507 | 8.096071 | 2.0 | 10.919 | 2 | 34.296 | 11.076 | 30.236 | 2 |
| 2025-05-05T09:47:00 | 55.017138 | 8.096176 | 2.0 | 10.923 | 2 | 34.308 | 11.086 | 30.239 | 2 |
| 2025-05-05T09:48:00 | 55.017694 | 8.096324 | 2.0 | 10.934 | 2 | 34.316 | 11.088 | 30.245 | 2 |
| 2025-05-05T09:49:00 | 55.018076 | 8.096508 | 2.0 | 10.966 | 2 | 34.324 | 11.101 | 30.243 | 2 |
| 2025-05-05T09:50:00 | 55.018428 | 8.096657 | 2.0 | 10.989 | 2 | 34.340 | 11.137 | 30.229 | 2 |
| 2025-05-05T09:51:00 | 55.018782 | 8.096787 | 2.0 | 10.993 | 2 | 34.343 | 11.149 | 30.222 | 2 |
| 2025-05-05T09:52:00 | 55.019117 | 8.096969 | 2.0 | 10.999 | 2 | 34.346 | 11.159 | 30.216 | 2 |
| 2025-05-05T09:53:00 | 55.019454 | 8.097170 | 2.0 | 11.006 | 2 | 34.345 | 11.163 | 30.212 | 2 |
| 2025-05-05T09:54:00 | 55.019782 | 8.097411 | 2.0 | 11.041 | 2 | 34.347 | 11.172 | 30.207 | 2 |
| 2025-05-05T09:55:00 | 55.020051 | 8.097661 | 2.0 | 11.124 | 2 | 34.373 | 11.225 | 30.189 | 2 |
| 2025-05-05T09:56:00 | 55.020405 | 8.097807 | 2.0 | 11.127 | 2 | 34.400 | 11.283 | 30.167 | 2 |
| 2025-05-05T09:57:00 | 55.020934 | 8.097926 | 2.0 | 11.091 | 2 | 34.405 | 11.290 | 30.167 | 2 |
| 2025-05-05T09:58:00 | 55.021594 | 8.098093 | 2.0 | 11.054 | 2 | 34.395 | 11.244 | 30.195 | 2 |
| 2025-05-05T09:59:00 | 55.022424 | 8.098382 | 2.0 | 11.021 | 2 | 34.389 | 11.225 | 30.204 | 2 |
| 2025-05-05T10:00:00 | 55.023328 | 8.098713 | 2.0 | 10.971 | 2 | 34.381 | 11.173 | 30.239 | 2 |
| 2025-05-05T10:01:00 | 55.024151 | 8.098975 | 2.0 | 10.922 | 2 | 34.368 | 11.144 | 30.250 | 2 |
| 2025-05-05T10:02:00 | 55.024956 | 8.099239 | 2.0 | 10.902 | 2 | 34.350 | 11.080 | 30.285 | 2 |
| 2025-05-05T10:03:00 | 55.025746 | 8.099507 | 2.0 | 10.923 | 2 | 34.342 | 11.078 | 30.279 | 2 |
| 2025-05-05T10:04:00 | 55.026528 | 8.099790 | 2.0 | 10.945 | 2 | 34.345 | 11.094 | 30.269 | 2 |
| 2025-05-05T10:05:00 | 55.027326 | 8.100060 | 2.0 | 10.980 | 2 | 34.350 | 11.115 | 30.256 | 2 |
| 2025-05-05T10:06:00 | 55.028078 | 8.100300 | 2.0 | 10.977 | 2 | 34.366 | 11.143 | 30.249 | 2 |
| 2025-05-05T10:07:00 | 55.028685 | 8.100450 | 2.0 | 10.959 | 2 | 34.369 | 11.137 | 30.257 | 2 |
| 2025-05-05T10:08:00 | 55.029089 | 8.100770 | 2.0 | 10.979 | 2 | 34.367 | 11.128 | 30.262 | 2 |
| 2025-05-05T10:09:00 | 55.029103 | 8.101347 | 2.0 | 11.013 | 2 | 34.376 | 11.150 | 30.253 | 2 |
| 2025-05-05T10:10:00 | 55.028719 | 8.101551 | 2.0 | 10.961 | 2 | 34.382 | 11.172 | 30.241 | 2 |
| 2025-05-05T10:11:00 | 55.027931 | 8.101412 | 2.0 | 10.968 | 2 | 34.349 | 11.130 | 30.243 | 2 |
| 2025-05-05T10:12:00 | 55.026681 | 8.101414 | 2.0 | 11.006 | 2 | 34.351 | 11.138 | 30.239 | 2 |
| 2025-05-05T10:13:00 | 55.025195 | 8.101446 | 2.0 | 11.097 | 2 | 34.369 | 11.180 | 30.222 | 2 |
| 2025-05-05T10:14:00 | 55.023656 | 8.101484 | 2.0 | 11.190 | 2 | 34.398 | 11.277 | 30.170 | 2 |
| 2025-05-05T10:15:00 | 55.022102 | 8.101540 | 2.0 | 11.209 | 2 | 34.410 | 11.359 | 30.115 | 2 |
| 2025-05-05T10:16:00 | 55.020526 | 8.101547 | 2.0 | 11.206 | 2 | 34.409 | 11.372 | 30.104 | 2 |
| 2025-05-05T10:17:00 | 55.018933 | 8.101494 | 2.0 | 11.183 | 2 | 34.407 | 11.365 | 30.107 | 2 |
| 2025-05-05T10:18:00 | 55.017343 | 8.101449 | 2.0 | 11.171 | 2 | 34.401 | 11.350 | 30.114 | 2 |
| 2025-05-05T10:19:00 | 55.015746 | 8.101413 | 2.0 | 11.159 | 2 | 34.397 | 11.337 | 30.120 | 2 |
| 2025-05-05T10:20:00 | 55.014153 | 8.101376 | 2.0 | 11.165 | 2 | 34.396 | 11.329 | 30.126 | 2 |
| 2025-05-05T10:21:00 | 55.012545 | 8.101253 | 2.0 | 11.187 | 2 | 34.401 | 11.331 | 30.129 | 2 |
| 2025-05-05T10:22:00 | 55.010931 | 8.101141 | 2.0 | 11.192 | 2 | 34.408 | 11.356 | 30.116 | 2 |
| 2025-05-05T10:23:00 | 55.009310 | 8.101022 | 2.0 | 11.204 | 2 | 34.408 | 11.357 | 30.115 | 2 |
| 2025-05-05T10:24:00 | 55.007688 | 8.100902 | 2.0 | 11.197 | 2 | 34.412 | 11.368 | 30.110 | 2 |
| 2025-05-05T10:25:00 | 55.006396 | 8.100354 | 2.0 | 11.173 | 2 | 34.404 | 11.360 | 30.109 | 2 |
| 2025-05-05T10:26:00 | 55.006029 | 8.099044 | 2.0 | 11.142 | 2 | 34.381 | 11.331 | 30.110 | 2 |
| 2025-05-05T10:27:00 | 55.005913 | 8.097835 | 2.0 | 11.146 | 2 | 34.359 | 11.303 | 30.111 | 2 |
| 2025-05-05T10:28:00 | 55.005725 | 8.096545 | 2.0 | 11.158 | 2 | 34.358 | 11.304 | 30.109 | 2 |
| 2025-05-05T10:29:00 | 55.005448 | 8.095014 | 2.0 | 11.166 | 2 | 34.374 | 11.326 | 30.107 | 2 |
| 2025-05-05T10:30:00 | 55.005131 | 8.093403 | 2.0 | 11.160 | 2 | 34.379 | 11.328 | 30.110 | 2 |
| 2025-05-05T10:31:00 | 55.005196 | 8.092421 | 2.0 | 11.049 | 2 | 34.367 | 11.300 | 30.121 | 2 |
| 2025-05-05T10:32:00 | 55.005365 | 8.091963 | 2.0 | 11.128 | 2 | 34.329 | 11.240 | 30.134 | 2 |
| 2025-05-05T10:33:00 | 55.005545 | 8.091790 | 2.0 | 11.186 | 2 | 34.351 | 11.289 | 30.115 | 2 |
| 2025-05-05T10:34:00 | 55.005757 | 8.091790 | 2.0 | 11.200 | 2 | 34.392 | 11.348 | 30.107 | 2 |
| 2025-05-05T10:35:00 | 55.005922 | 8.091852 | 2.0 | 11.208 | 2 | 34.407 | 11.366 | 30.107 | 2 |
| 2025-05-05T10:36:00 | 55.005976 | 8.091939 | 2.0 | 11.222 | 2 | 34.412 | 11.369 | 30.109 | 2 |
| 2025-05-05T10:37:00 | 55.005985 | 8.092155 | 2.0 | 11.224 | 2 | 34.424 | 11.386 | 30.107 | 2 |
| 2025-05-05T10:38:00 | 55.006050 | 8.092387 | 2.0 | 11.224 | 2 | 34.426 | 11.389 | 30.106 | 2 |
| 2025-05-05T10:39:00 | 55.006087 | 8.092500 | 2.0 | 11.241 | 2 | 34.430 | 11.395 | 30.105 | 2 |
| 2025-05-05T10:40:00 | 55.006116 | 8.092525 | 2.0 | 11.219 | 2 | 34.434 | 11.397 | 30.107 | 2 |
| 2025-05-05T10:41:00 | 55.006180 | 8.092540 | 2.0 | 11.231 | 2 | 34.426 | 11.389 | 30.106 | 2 |
| 2025-05-05T10:42:00 | 55.006272 | 8.092583 | 2.0 | 11.233 | 2 | 34.431 | 11.395 | 30.106 | 2 |
| 2025-05-05T10:43:00 | 55.006394 | 8.092622 | 2.0 | 11.243 | 2 | 34.434 | 11.400 | 30.105 | 2 |
| 2025-05-05T10:44:00 | 55.006500 | 8.092666 | 2.0 | 11.248 | 2 | 34.437 | 11.405 | 30.104 | 2 |
| 2025-05-05T10:45:00 | 55.006588 | 8.092712 | 2.0 | 11.262 | 2 | 34.444 | 11.413 | 30.104 | 2 |
| 2025-05-05T10:46:00 | 55.006681 | 8.092748 | 2.0 | 11.236 | 2 | 34.392 | 11.424 | 30.045 | 2 |
| 2025-05-05T10:47:00 | 55.006749 | 8.092810 | 2.0 | 11.246 | 2 | 34.274 | 11.400 | 29.950 | 2 |
| 2025-05-05T10:48:00 | 55.006812 | 8.092873 | 2.0 | 11.253 | 2 | 34.445 | 11.412 | 30.106 | 2 |
| 2025-05-05T10:49:00 | 55.006874 | 8.092941 | 2.0 | 11.269 | 2 | 34.290 | 11.418 | 29.951 | 2 |
| 2025-05-05T10:50:00 | 55.006927 | 8.093010 | 2.0 | 11.316 | 2 | 34.459 | 11.435 | 30.101 | 2 |
| 2025-05-05T10:51:00 | 55.006988 | 8.093051 | 2.0 | 11.299 | 2 | 34.199 | 11.477 | 29.815 | 2 |
| 2025-05-05T10:52:00 | 55.007031 | 8.093129 | 2.0 | 11.274 | 2 | 34.488 | 11.456 | 30.112 | 2 |
| 2025-05-05T10:53:00 | 55.007067 | 8.093212 | 2.0 | 11.296 | 2 | 34.254 | 11.446 | 29.893 | 2 |
| 2025-05-05T10:54:00 | 55.007107 | 8.093271 | 2.0 | 11.302 | 2 | 34.459 | 11.460 | 30.080 | 2 |
| 2025-05-05T10:55:00 | 55.007131 | 8.093339 | 2.0 | 11.274 | 2 | 34.479 | 11.465 | 30.096 | 2 |
| 2025-05-05T10:56:00 | 55.007148 | 8.093405 | 2.0 | 11.239 | 2 | 34.468 | 11.428 | 30.115 | 2 |
| 2025-05-05T10:57:00 | 55.007160 | 8.093486 | 2.0 | 11.294 | 2 | 34.460 | 11.420 | 30.114 | 2 |
| 2025-05-05T10:58:00 | 55.007265 | 8.093602 | 2.0 | 11.297 | 2 | 34.362 | 11.454 | 29.991 | 2 |
| 2025-05-05T10:59:00 | 55.007602 | 8.093676 | 2.0 | 11.296 | 2 | 34.455 | 11.457 | 30.079 | 2 |
| 2025-05-05T11:00:00 | 55.008092 | 8.093380 | 2.0 | 11.344 | 2 | 34.496 | 11.471 | 30.107 | 2 |
| 2025-05-05T11:01:00 | 55.008774 | 8.092832 | 2.0 | 11.304 | 2 | 34.193 | 11.502 | 29.789 | 2 |
| 2025-05-05T11:02:00 | 55.009525 | 8.092243 | 2.0 | 11.283 | 2 | 34.276 | 11.466 | 29.899 | 2 |
| 2025-05-05T11:03:00 | 55.010257 | 8.091667 | 2.0 | 11.324 | 2 | 34.477 | 11.452 | 30.104 | 2 |
| 2025-05-05T11:04:00 | 55.010948 | 8.091132 | 2.0 | 11.333 | 2 | 34.303 | 11.487 | 29.908 | 2 |
| 2025-05-05T11:05:00 | 55.011609 | 8.090600 | 2.0 | 11.345 | 2 | 34.289 | 11.497 | 29.886 | 2 |
| 2025-05-05T11:06:00 | 55.012270 | 8.090063 | 2.0 | 11.210 | 2 | 34.442 | 11.471 | 30.055 | 2 |
| 2025-05-05T11:07:00 | 55.012899 | 8.089546 | 2.0 | 11.239 | 2 | 34.435 | 11.398 | 30.108 | 2 |
| 2025-05-05T11:08:00 | 55.013401 | 8.089153 | 2.0 | 11.236 | 2 | 34.240 | 11.407 | 29.911 | 2 |
| 2025-05-05T11:09:00 | 55.013709 | 8.089218 | 2.0 | 11.297 | 2 | 34.257 | 11.409 | 29.926 | 2 |
| 2025-05-05T11:10:00 | 55.013910 | 8.089338 | 2.0 | 11.306 | 2 | 34.478 | 11.461 | 30.098 | 2 |
| 2025-05-05T11:11:00 | 55.014030 | 8.089436 | 2.0 | 11.321 | 2 | 34.416 | 11.472 | 30.029 | 2 |
| 2025-05-05T11:12:00 | 55.014227 | 8.089609 | 2.0 | 11.304 | 2 | 34.341 | 11.480 | 29.950 | 2 |
| 2025-05-05T11:13:00 | 55.014636 | 8.089900 | 2.0 | 11.300 | 2 | 34.436 | 11.462 | 30.057 | 2 |
| 2025-05-05T11:14:00 | 55.015197 | 8.090234 | 2.0 | 11.310 | 2 | 34.308 | 11.466 | 29.929 | 2 |
| 2025-05-05T11:15:00 | 55.015807 | 8.090590 | 2.0 | 11.332 | 2 | 34.382 | 11.478 | 29.991 | 2 |
| 2025-05-05T11:16:00 | 55.016345 | 8.090913 | 2.0 | 11.337 | 2 | 34.519 | 11.493 | 30.112 | 2 |
| 2025-05-05T11:17:00 | 55.016914 | 8.091246 | 2.0 | 11.337 | 2 | 34.503 | 11.501 | 30.090 | 2 |
| 2025-05-05T11:18:00 | 55.017441 | 8.091582 | 2.0 | 11.342 | 2 | 34.403 | 11.502 | 29.992 | 2 |
| 2025-05-05T11:19:00 | 55.017879 | 8.091872 | 2.0 | 11.362 | 2 | 34.284 | 11.509 | 29.872 | 2 |
| 2025-05-05T11:20:00 | 55.018227 | 8.092144 | 2.0 | 11.386 | 2 | 34.322 | 11.531 | 29.891 | 2 |
| 2025-05-05T11:21:00 | 55.018499 | 8.092355 | 2.0 | 11.384 | 2 | 34.470 | 11.546 | 30.021 | 2 |
| 2025-05-05T11:22:00 | 55.018725 | 8.092382 | 2.0 | 11.382 | 2 | 34.481 | 11.546 | 30.032 | 2 |
| 2025-05-05T11:23:00 | 55.018915 | 8.092384 | 2.0 | 11.387 | 2 | 34.417 | 11.546 | 29.970 | 2 |
| 2025-05-05T11:24:00 | 55.019060 | 8.092389 | 2.0 | 11.401 | 2 | 34.388 | 11.553 | 29.936 | 2 |
| 2025-05-05T11:25:00 | 55.019136 | 8.092440 | 2.0 | 11.406 | 2 | 34.429 | 11.563 | 29.968 | 2 |
| 2025-05-05T11:26:00 | 55.019415 | 8.092351 | 2.0 | 11.399 | 2 | 34.426 | 11.565 | 29.963 | 2 |
| 2025-05-05T11:27:00 | 55.020074 | 8.091913 | 2.0 | 11.392 | 2 | 34.463 | 11.559 | 30.004 | 2 |
| 2025-05-05T11:28:00 | 55.020705 | 8.091466 | 2.0 | 11.413 | 2 | 34.460 | 11.558 | 30.002 | 2 |
| 2025-05-05T11:29:00 | 55.021179 | 8.091064 | 2.0 | 11.397 | 2 | 34.480 | 11.565 | 30.016 | 2 |
| 2025-05-05T11:30:00 | 55.021797 | 8.090584 | 2.0 | 11.400 | 2 | 34.472 | 11.560 | 30.012 | 2 |
| 2025-05-05T11:31:00 | 55.022487 | 8.090079 | 2.0 | 11.406 | 2 | 34.444 | 11.568 | 29.978 | 2 |
| 2025-05-05T11:32:00 | 55.023240 | 8.089540 | 2.0 | 11.386 | 2 | 34.474 | 11.564 | 30.011 | 2 |
| 2025-05-05T11:33:00 | 55.024029 | 8.088981 | 2.0 | 11.314 | 2 | 34.534 | 11.542 | 30.086 | 2 |
| 2025-05-05T11:34:00 | 55.024836 | 8.088415 | 2.0 | 11.254 | 2 | 34.537 | 11.468 | 30.149 | 2 |
| 2025-05-05T11:35:00 | 55.025634 | 8.087869 | 2.0 | 11.218 | 2 | 34.514 | 11.417 | 30.169 | 2 |
| 2025-05-05T11:36:00 | 55.026330 | 8.087372 | 2.0 | 11.244 | 2 | 34.516 | 11.395 | 30.189 | 2 |
| 2025-05-05T11:37:00 | 55.026879 | 8.086935 | 2.0 | 11.237 | 2 | 34.504 | 11.402 | 30.171 | 2 |
| 2025-05-05T11:38:00 | 55.027269 | 8.086725 | 2.0 | 11.248 | 2 | 34.525 | 11.402 | 30.192 | 2 |
| 2025-05-05T11:39:00 | 55.027372 | 8.087246 | 2.0 | 11.236 | 2 | 34.560 | 11.410 | 30.219 | 2 |
| 2025-05-05T11:40:00 | 55.026903 | 8.088328 | 2.0 | 11.234 | 2 | 34.540 | 11.397 | 30.210 | 2 |
| 2025-05-05T11:41:00 | 55.026074 | 8.089651 | 2.0 | 11.254 | 2 | 34.532 | 11.403 | 30.198 | 2 |
| 2025-05-05T11:42:00 | 55.025054 | 8.090826 | 2.0 | 11.285 | 2 | 34.535 | 11.422 | 30.185 | 2 |
| 2025-05-05T11:43:00 | 55.023930 | 8.091870 | 2.0 | 11.321 | 2 | 34.554 | 11.451 | 30.180 | 2 |
| 2025-05-05T11:44:00 | 55.022760 | 8.092912 | 2.0 | 11.376 | 2 | 34.559 | 11.493 | 30.150 | 2 |
| 2025-05-05T11:45:00 | 55.021416 | 8.093851 | 2.0 | 11.408 | 2 | 34.563 | 11.541 | 30.115 | 2 |
| 2025-05-05T11:46:00 | 55.019880 | 8.094766 | 2.0 | 11.425 | 2 | 34.577 | 11.568 | 30.107 | 2 |
| 2025-05-05T11:47:00 | 55.018251 | 8.095745 | 2.0 | 11.427 | 2 | 34.567 | 11.586 | 30.083 | 2 |
| 2025-05-05T11:48:00 | 55.016562 | 8.096763 | 2.0 | 11.452 | 2 | 34.572 | 11.594 | 30.081 | 2 |
| 2025-05-05T11:49:00 | 55.014848 | 8.097806 | 2.0 | 11.497 | 2 | 34.592 | 11.622 | 30.078 | 2 |
| 2025-05-05T11:50:00 | 55.013121 | 8.098857 | 2.0 | 11.522 | 2 | 34.620 | 11.660 | 30.074 | 2 |
| 2025-05-05T11:51:00 | 55.011379 | 8.099919 | 2.0 | 11.529 | 2 | 34.621 | 11.680 | 30.058 | 2 |
| 2025-05-05T11:52:00 | 55.009637 | 8.100992 | 2.0 | 11.542 | 2 | 34.611 | 11.695 | 30.037 | 2 |
| 2025-05-05T11:53:00 | 55.008100 | 8.100839 | 2.0 | 11.514 | 2 | 34.621 | 11.699 | 30.043 | 2 |
| 2025-05-05T11:54:00 | 55.007428 | 8.098959 | 2.0 | 11.481 | 2 | 34.606 | 11.667 | 30.055 | 2 |
| 2025-05-05T11:55:00 | 55.007056 | 8.096863 | 2.0 | 11.499 | 2 | 34.592 | 11.649 | 30.056 | 2 |
| 2025-05-05T11:56:00 | 55.006691 | 8.094824 | 2.0 | 11.477 | 2 | 34.603 | 11.657 | 30.060 | 2 |
| 2025-05-05T11:57:00 | 55.006359 | 8.093126 | 2.0 | 11.451 | 2 | 34.586 | 11.633 | 30.063 | 2 |
| 2025-05-05T11:58:00 | 55.005947 | 8.091679 | 2.0 | 11.442 | 2 | 34.582 | 11.619 | 30.070 | 2 |
| 2025-05-05T11:59:00 | 55.005574 | 8.090411 | 2.0 | 11.451 | 2 | 34.566 | 11.591 | 30.078 | 2 |
| 2025-05-05T12:00:00 | 55.005195 | 8.089259 | 2.0 | 11.424 | 2 | 34.581 | 11.610 | 30.077 | 2 |
| 2025-05-05T12:01:00 | 55.004824 | 8.088208 | 2.0 | 11.397 | 2 | 34.557 | 11.567 | 30.088 | 2 |
| 2025-05-05T12:02:00 | 55.004454 | 8.087257 | 2.0 | 11.350 | 2 | 34.547 | 11.551 | 30.092 | 2 |
| 2025-05-05T12:03:00 | 55.004088 | 8.086407 | 2.0 | 11.379 | 2 | 34.531 | 11.525 | 30.097 | 2 |
| 2025-05-05T12:04:00 | 55.003763 | 8.085716 | 2.0 | 11.354 | 2 | 34.539 | 11.530 | 30.101 | 2 |
| 2025-05-05T12:05:00 | 55.003483 | 8.085181 | 2.0 | 11.437 | 2 | 34.550 | 11.544 | 30.100 | 2 |
| 2025-05-05T12:06:00 | 55.003202 | 8.084769 | 2.0 | 11.486 | 2 | 34.596 | 11.610 | 30.091 | 2 |
| 2025-05-05T12:07:00 | 55.002896 | 8.084471 | 2.0 | 11.484 | 2 | 34.625 | 11.646 | 30.090 | 2 |
| 2025-05-05T12:08:00 | 55.002549 | 8.084262 | 2.0 | 11.487 | 2 | 34.629 | 11.648 | 30.092 | 2 |
| 2025-05-05T12:09:00 | 55.002180 | 8.084139 | 2.0 | 11.498 | 2 | 34.633 | 11.653 | 30.092 | 2 |
| 2025-05-05T12:10:00 | 55.001816 | 8.084081 | 2.0 | 11.498 | 2 | 34.641 | 11.663 | 30.092 | 2 |
| 2025-05-05T12:11:00 | 55.001456 | 8.084061 | 2.0 | 11.494 | 2 | 34.641 | 11.660 | 30.094 | 2 |
| 2025-05-05T12:12:00 | 55.001090 | 8.084058 | 2.0 | 11.494 | 2 | 34.641 | 11.659 | 30.095 | 2 |
| 2025-05-05T12:13:00 | 55.000721 | 8.084066 | 2.0 | 11.494 | 2 | 34.641 | 11.659 | 30.095 | 2 |
| 2025-05-05T12:14:00 | 55.000323 | 8.083994 | 2.0 | 11.476 | 2 | 34.641 | 11.654 | 30.099 | 2 |
| 2025-05-05T12:15:00 | 54.999902 | 8.083702 | 2.0 | 11.483 | 2 | 34.634 | 11.643 | 30.101 | 2 |
| 2025-05-05T12:16:00 | 54.999458 | 8.083176 | 2.0 | 11.409 | 2 | 34.637 | 11.642 | 30.105 | 2 |
| 2025-05-05T12:17:00 | 54.998934 | 8.082192 | 2.0 | 11.440 | 2 | 34.598 | 11.566 | 30.129 | 2 |
| 2025-05-05T12:18:00 | 54.998352 | 8.080854 | 2.0 | 11.400 | 2 | 34.620 | 11.601 | 30.122 | 2 |
| 2025-05-05T12:19:00 | 54.997668 | 8.079041 | 2.0 | 11.387 | 2 | 34.596 | 11.554 | 30.137 | 2 |
| 2025-05-05T12:20:00 | 54.996905 | 8.076782 | 2.0 | 11.408 | 2 | 34.583 | 11.558 | 30.121 | 2 |
| 2025-05-05T12:21:00 | 54.996048 | 8.074116 | 2.0 | 11.386 | 2 | 34.596 | 11.572 | 30.122 | 2 |
| 2025-05-05T12:22:00 | 54.995022 | 8.070955 | 2.0 | 11.394 | 2 | 34.581 | 11.551 | 30.125 | 2 |
| 2025-05-05T12:23:00 | 54.993874 | 8.067528 | 2.0 | 11.382 | 2 | 34.592 | 11.556 | 30.131 | 2 |
| 2025-05-05T12:24:00 | 54.992610 | 8.063674 | 2.0 | 11.284 | 2 | 34.588 | 11.525 | 30.152 | 2 |
| 2025-05-05T12:25:00 | 54.991297 | 8.059643 | 2.0 | 11.366 | 2 | 34.562 | 11.465 | 30.176 | 2 |
| 2025-05-05T12:26:00 | 54.989741 | 8.055451 | 2.0 | 11.334 | 2 | 34.610 | 11.522 | 30.176 | 2 |
| 2025-05-05T12:27:00 | 54.988005 | 8.051113 | 2.0 | 11.329 | 2 | 34.642 | 11.510 | 30.217 | 2 |
| 2025-05-05T12:28:00 | 54.986184 | 8.046521 | 2.0 | 10.929 | 2 | 34.686 | 11.436 | 30.320 | 2 |
| 2025-05-05T12:29:00 | 54.984238 | 8.041647 | 2.0 | 10.911 | 2 | 34.735 | 11.122 | 30.627 | 2 |
| 2025-05-05T12:30:00 | 54.982259 | 8.036706 | 2.0 | 10.977 | 2 | 34.831 | 11.101 | 30.739 | 2 |
| 2025-05-05T12:31:00 | 54.980255 | 8.031764 | 2.0 | 10.988 | 2 | 34.957 | 11.164 | 30.809 | 2 |
| 2025-05-05T12:32:00 | 54.978291 | 8.026973 | 2.0 | 11.001 | 2 | 35.020 | 11.166 | 30.869 | 2 |
| 2025-05-05T12:33:00 | 54.976987 | 8.023059 | 2.0 | 10.995 | 2 | 35.046 | 11.170 | 30.891 | 2 |
| 2025-05-05T12:34:00 | 54.977304 | 8.020326 | 2.0 | 10.991 | 2 | 35.061 | 11.161 | 30.913 | 2 |
| 2025-05-05T12:35:00 | 54.978210 | 8.019842 | 2.0 | 10.985 | 2 | 35.072 | 11.160 | 30.925 | 2 |
| 2025-05-05T12:36:00 | 54.979042 | 8.020204 | 2.0 | 10.975 | 2 | 35.069 | 11.151 | 30.930 | 2 |
| 2025-05-05T12:37:00 | 54.979555 | 8.021522 | 2.0 | 10.974 | 2 | 35.061 | 11.143 | 30.929 | 2 |
| 2025-05-05T12:38:00 | 54.980016 | 8.023045 | 2.0 | 10.976 | 2 | 35.055 | 11.141 | 30.924 | 2 |
| 2025-05-05T12:39:00 | 54.980612 | 8.024639 | 2.0 | 10.991 | 2 | 35.056 | 11.149 | 30.919 | 2 |
| 2025-05-05T12:40:00 | 54.981682 | 8.027405 | 2.0 | 10.974 | 2 | 35.046 | 11.155 | 30.904 | 2 |
| 2025-05-05T12:41:00 | 54.983128 | 8.030879 | 2.0 | 11.035 | 2 | 35.024 | 11.149 | 30.887 | 2 |
| 2025-05-05T12:42:00 | 54.984775 | 8.034420 | 2.0 | 11.006 | 2 | 34.973 | 11.198 | 30.796 | 2 |
| 2025-05-05T12:43:00 | 54.986486 | 8.038012 | 2.0 | 10.922 | 2 | 34.888 | 11.164 | 30.742 | 2 |
| 2025-05-05T12:44:00 | 54.988261 | 8.041700 | 2.0 | 11.154 | 2 | 34.792 | 11.111 | 30.692 | 2 |
| 2025-05-05T12:45:00 | 54.990061 | 8.045427 | 2.0 | 11.336 | 2 | 34.729 | 11.367 | 30.418 | 2 |
| 2025-05-05T12:46:00 | 54.991814 | 8.049262 | 2.0 | 11.352 | 2 | 34.703 | 11.486 | 30.296 | 2 |
| 2025-05-05T12:47:00 | 54.993473 | 8.053277 | 2.0 | 11.369 | 2 | 34.668 | 11.509 | 30.243 | 2 |
| 2025-05-05T12:48:00 | 54.995133 | 8.057293 | 2.0 | 11.366 | 2 | 34.645 | 11.528 | 30.205 | 2 |
| 2025-05-05T12:49:00 | 54.996790 | 8.061321 | 2.0 | 11.345 | 2 | 34.620 | 11.518 | 30.189 | 2 |
| 2025-05-05T12:50:00 | 54.998443 | 8.065373 | 2.0 | 11.442 | 2 | 34.603 | 11.520 | 30.171 | 2 |
| 2025-05-05T12:51:00 | 55.000084 | 8.069428 | 2.0 | 11.450 | 2 | 34.641 | 11.605 | 30.139 | 2 |
| 2025-05-05T12:52:00 | 55.001572 | 8.073701 | 2.0 | 11.406 | 2 | 34.646 | 11.607 | 30.142 | 2 |
| 2025-05-05T12:53:00 | 55.002971 | 8.078072 | 2.0 | 11.401 | 2 | 34.618 | 11.561 | 30.152 | 2 |
| 2025-05-05T12:54:00 | 55.004349 | 8.082400 | 2.0 | 11.481 | 2 | 34.633 | 11.591 | 30.142 | 2 |
| 2025-05-05T12:55:00 | 55.005448 | 8.085643 | 2.0 | 11.492 | 2 | 34.659 | 11.637 | 30.130 | 2 |
| 2025-05-05T12:56:00 | 55.005896 | 8.087758 | 2.0 | 11.494 | 2 | 34.663 | 11.655 | 30.119 | 2 |
| 2025-05-05T12:57:00 | 55.005276 | 8.088335 | 2.0 | 11.479 | 2 | 34.660 | 11.654 | 30.117 | 2 |
| 2025-05-05T12:58:00 | 55.004761 | 8.088034 | 2.0 | 11.483 | 2 | 34.652 | 11.643 | 30.118 | 2 |
| 2025-05-05T12:59:00 | 55.004489 | 8.087344 | 2.0 | 11.476 | 2 | 34.650 | 11.637 | 30.121 | 2 |
| 2025-05-05T13:00:00 | 55.004647 | 8.086604 | 2.0 | 11.417 | 2 | 34.650 | 11.635 | 30.123 | 2 |
| 2025-05-05T13:01:00 | 55.005029 | 8.085760 | 2.0 | 11.488 | 2 | 34.628 | 11.578 | 30.148 | 2 |
| 2025-05-05T13:02:00 | 55.005462 | 8.084794 | 2.0 | 11.465 | 2 | 34.668 | 11.641 | 30.135 | 2 |
| 2025-05-05T13:03:00 | 55.005949 | 8.083980 | 2.0 | 11.467 | 2 | 34.656 | 11.627 | 30.135 | 2 |
| 2025-05-05T13:04:00 | 55.006477 | 8.083203 | 2.0 | 11.484 | 2 | 34.655 | 11.634 | 30.129 | 2 |
| 2025-05-05T13:05:00 | 55.006994 | 8.082440 | 2.0 | 11.504 | 2 | 34.664 | 11.649 | 30.125 | 2 |
| 2025-05-05T13:06:00 | 55.007496 | 8.081694 | 2.0 | 11.516 | 2 | 34.675 | 11.663 | 30.124 | 2 |
| 2025-05-05T13:07:00 | 55.007979 | 8.080988 | 2.0 | 11.521 | 2 | 34.686 | 11.677 | 30.124 | 2 |
| 2025-05-05T13:08:00 | 55.008454 | 8.080298 | 2.0 | 11.522 | 2 | 34.695 | 11.683 | 30.127 | 2 |
| 2025-05-05T13:09:00 | 55.008931 | 8.079607 | 2.0 | 11.516 | 2 | 34.703 | 11.685 | 30.133 | 2 |
| 2025-05-05T13:10:00 | 55.009311 | 8.079028 | 2.0 | 11.483 | 2 | 34.707 | 11.673 | 30.147 | 2 |
| 2025-05-05T13:11:00 | 55.009523 | 8.078603 | 2.0 | 11.483 | 2 | 34.699 | 11.650 | 30.158 | 2 |
| 2025-05-05T13:12:00 | 55.009810 | 8.078115 | 2.0 | 11.459 | 2 | 34.704 | 11.642 | 30.169 | 2 |
| 2025-05-05T13:13:00 | 55.010192 | 8.077534 | 2.0 | 11.408 | 2 | 34.700 | 11.612 | 30.190 | 2 |
| 2025-05-05T13:14:00 | 55.010500 | 8.077016 | 2.0 | 11.376 | 2 | 34.694 | 11.571 | 30.217 | 2 |
| 2025-05-05T13:15:00 | 55.010726 | 8.076605 | 2.0 | 11.351 | 2 | 34.690 | 11.540 | 30.239 | 2 |
| 2025-05-05T13:16:00 | 55.010878 | 8.076297 | 2.0 | 11.313 | 2 | 34.687 | 11.505 | 30.265 | 2 |
| 2025-05-05T13:17:00 | 55.011001 | 8.076149 | 2.0 | 11.306 | 2 | 34.670 | 11.477 | 30.271 | 2 |
| 2025-05-05T13:18:00 | 55.011251 | 8.075956 | 2.0 | 11.288 | 2 | 34.667 | 11.468 | 30.275 | 2 |
| 2025-05-05T13:19:00 | 55.011586 | 8.075695 | 2.0 | 11.276 | 2 | 34.664 | 11.452 | 30.286 | 2 |
| 2025-05-05T13:20:00 | 55.011970 | 8.075369 | 2.0 | 11.265 | 2 | 34.660 | 11.439 | 30.292 | 2 |
| 2025-05-05T13:21:00 | 55.012392 | 8.074993 | 2.0 | 11.247 | 2 | 34.656 | 11.427 | 30.298 | 2 |
| 2025-05-05T13:22:00 | 55.012806 | 8.074647 | 2.0 | 11.241 | 2 | 34.648 | 11.411 | 30.304 | 2 |
| 2025-05-05T13:23:00 | 55.013194 | 8.074311 | 2.0 | 11.239 | 2 | 34.645 | 11.404 | 30.306 | 2 |
| 2025-05-05T13:24:00 | 55.013660 | 8.073913 | 2.0 | 11.242 | 2 | 34.646 | 11.403 | 30.308 | 2 |
| 2025-05-05T13:25:00 | 55.014225 | 8.073435 | 2.0 | 11.243 | 2 | 34.650 | 11.405 | 30.310 | 2 |
| 2025-05-05T13:26:00 | 55.014804 | 8.072949 | 2.0 | 11.228 | 2 | 34.650 | 11.402 | 30.313 | 2 |
| 2025-05-05T13:27:00 | 55.015351 | 8.072488 | 2.0 | 11.233 | 2 | 34.647 | 11.394 | 30.317 | 2 |
| 2025-05-05T13:28:00 | 55.015825 | 8.072123 | 2.0 | 11.222 | 2 | 34.654 | 11.395 | 30.323 | 2 |
| 2025-05-05T13:29:00 | 55.016239 | 8.071798 | 2.0 | 11.218 | 2 | 34.654 | 11.386 | 30.330 | 2 |
| 2025-05-05T13:30:00 | 55.016609 | 8.071501 | 2.0 | 11.202 | 2 | 34.656 | 11.381 | 30.336 | 2 |
| 2025-05-05T13:31:00 | 55.016949 | 8.071252 | 2.0 | 11.202 | 2 | 34.648 | 11.361 | 30.345 | 2 |
| 2025-05-05T13:32:00 | 55.017273 | 8.070997 | 2.0 | 11.193 | 2 | 34.650 | 11.362 | 30.346 | 2 |
| 2025-05-05T13:33:00 | 55.017512 | 8.070709 | 2.0 | 11.199 | 2 | 34.649 | 11.360 | 30.346 | 2 |
| 2025-05-05T13:34:00 | 55.017615 | 8.070336 | 2.0 | 11.193 | 2 | 34.649 | 11.360 | 30.346 | 2 |
| 2025-05-05T13:35:00 | 55.017686 | 8.069976 | 2.0 | 11.203 | 2 | 34.651 | 11.360 | 30.348 | 2 |
| 2025-05-05T13:36:00 | 55.017890 | 8.069448 | 2.0 | 11.205 | 2 | 34.656 | 11.367 | 30.347 | 2 |
| 2025-05-05T13:37:00 | 55.018339 | 8.068561 | 2.0 | 11.205 | 2 | 34.658 | 11.369 | 30.348 | 2 |
| 2025-05-05T13:38:00 | 55.018902 | 8.067507 | 2.0 | 11.211 | 2 | 34.661 | 11.372 | 30.348 | 2 |
| 2025-05-05T13:39:00 | 55.019441 | 8.066492 | 2.0 | 11.199 | 2 | 34.667 | 11.375 | 30.352 | 2 |
| 2025-05-05T13:40:00 | 55.019956 | 8.065534 | 2.0 | 11.191 | 2 | 34.668 | 11.362 | 30.363 | 2 |
| 2025-05-05T13:41:00 | 55.020445 | 8.064626 | 2.0 | 11.161 | 2 | 34.673 | 11.353 | 30.376 | 2 |
| 2025-05-05T13:42:00 | 55.020964 | 8.063704 | 2.0 | 11.113 | 2 | 34.675 | 11.324 | 30.401 | 2 |
| 2025-05-05T13:43:00 | 55.021509 | 8.062772 | 2.0 | 11.047 | 2 | 34.674 | 11.269 | 30.446 | 2 |
| 2025-05-05T13:44:00 | 55.022062 | 8.061855 | 2.0 | 10.993 | 2 | 34.672 | 11.215 | 30.488 | 2 |
| 2025-05-05T13:45:00 | 55.022613 | 8.060932 | 2.0 | 10.972 | 2 | 34.675 | 11.163 | 30.534 | 2 |
| 2025-05-05T13:46:00 | 55.022994 | 8.060103 | 2.0 | 10.867 | 2 | 34.684 | 11.115 | 30.583 | 2 |
| 2025-05-05T13:47:00 | 55.023240 | 8.059418 | 2.0 | 10.854 | 2 | 34.690 | 11.034 | 30.656 | 2 |
| 2025-05-05T13:48:00 | 55.023444 | 8.059017 | 2.0 | 10.920 | 2 | 34.718 | 11.039 | 30.680 | 2 |
| 2025-05-05T13:49:00 | 55.023517 | 8.059550 | 2.0 | 10.918 | 2 | 34.759 | 11.080 | 30.686 | 2 |
| 2025-05-05T13:50:00 | 55.022991 | 8.061104 | 2.0 | 10.951 | 2 | 34.743 | 11.086 | 30.665 | 2 |
| 2025-05-05T13:51:00 | 55.021976 | 8.063768 | 2.0 | 11.000 | 2 | 34.711 | 11.124 | 30.602 | 2 |
| 2025-05-05T13:52:00 | 55.020479 | 8.067293 | 2.0 | 11.034 | 2 | 34.669 | 11.170 | 30.523 | 2 |
| 2025-05-05T13:53:00 | 55.018771 | 8.071120 | 2.0 | 11.123 | 2 | 34.625 | 11.222 | 30.437 | 2 |
| 2025-05-05T13:54:00 | 55.016854 | 8.074845 | 2.0 | 11.162 | 2 | 34.623 | 11.286 | 30.382 | 2 |
| 2025-05-05T13:55:00 | 55.014936 | 8.078632 | 2.0 | 11.218 | 2 | 34.633 | 11.338 | 30.349 | 2 |
| 2025-05-05T13:56:00 | 55.013010 | 8.082408 | 2.0 | 11.245 | 2 | 34.654 | 11.383 | 30.332 | 2 |
| 2025-05-05T13:57:00 | 55.011082 | 8.086173 | 2.0 | 11.254 | 2 | 34.655 | 11.410 | 30.311 | 2 |
| 2025-05-05T13:58:00 | 55.009160 | 8.089948 | 2.0 | 11.273 | 2 | 34.649 | 11.422 | 30.296 | 2 |
| 2025-05-05T13:59:00 | 55.007224 | 8.093741 | 2.0 | 11.333 | 2 | 34.649 | 11.453 | 30.270 | 2 |
| 2025-05-05T14:00:00 | 55.005276 | 8.097541 | 2.0 | 11.381 | 2 | 34.665 | 11.513 | 30.237 | 2 |
| 2025-05-05T14:01:00 | 55.003269 | 8.101225 | 2.0 | 11.405 | 2 | 34.656 | 11.560 | 30.190 | 2 |
| 2025-05-05T14:02:00 | 55.001020 | 8.104436 | 2.0 | 11.440 | 2 | 34.677 | 11.590 | 30.186 | 2 |
| 2025-05-05T14:03:00 | 54.998538 | 8.105522 | 2.0 | 11.464 | 2 | 34.676 | 11.625 | 30.156 | 2 |
| 2025-05-05T14:04:00 | 54.996448 | 8.105130 | 2.0 | 11.495 | 2 | 34.588 | 11.650 | 30.051 | 2 |
| 2025-05-05T14:05:00 | 54.995497 | 8.103603 | 2.0 | 11.534 | 2 | 34.588 | 11.687 | 30.021 | 2 |
| 2025-05-05T14:06:00 | 54.995480 | 8.101741 | 2.0 | 11.538 | 2 | 34.670 | 11.715 | 30.077 | 2 |
| 2025-05-05T14:07:00 | 54.995834 | 8.099519 | 2.0 | 11.537 | 2 | 34.690 | 11.723 | 30.090 | 2 |
| 2025-05-05T14:08:00 | 54.996418 | 8.097173 | 2.0 | 11.533 | 2 | 34.610 | 11.721 | 30.015 | 2 |
| 2025-05-05T14:09:00 | 54.997384 | 8.095200 | 2.0 | 11.487 | 2 | 34.589 | 11.709 | 30.004 | 2 |
| 2025-05-05T14:10:00 | 54.998242 | 8.093798 | 2.0 | 11.494 | 2 | 34.543 | 11.678 | 29.985 | 2 |
| 2025-05-05T14:11:00 | 54.998938 | 8.092995 | 2.0 | 11.478 | 2 | 34.558 | 11.677 | 30.000 | 2 |
| 2025-05-05T14:12:00 | 54.999435 | 8.092556 | 2.0 | 11.465 | 2 | 34.636 | 11.666 | 30.084 | 2 |
| 2025-05-05T14:13:00 | 54.999749 | 8.092185 | 2.0 | 11.457 | 2 | 34.630 | 11.648 | 30.093 | 2 |
| 2025-05-05T14:14:00 | 55.000039 | 8.091791 | 2.0 | 11.449 | 2 | 34.665 | 11.653 | 30.123 | 2 |
| 2025-05-05T14:15:00 | 55.000335 | 8.091419 | 2.0 | 11.444 | 2 | 34.684 | 11.637 | 30.154 | 2 |
| 2025-05-05T14:16:00 | 55.000537 | 8.091227 | 2.0 | 11.435 | 2 | 34.628 | 11.632 | 30.104 | 2 |
| 2025-05-05T14:17:00 | 55.000666 | 8.091087 | 2.0 | 11.428 | 2 | 34.641 | 11.625 | 30.122 | 2 |
| 2025-05-05T14:18:00 | 55.000871 | 8.090916 | 2.0 | 11.414 | 2 | 34.667 | 11.615 | 30.156 | 2 |
| 2025-05-05T14:19:00 | 55.000929 | 8.090896 | 2.0 | 11.396 | 2 | 34.682 | 11.600 | 30.182 | 2 |
| 2025-05-05T14:20:00 | 55.000843 | 8.091007 | 2.0 | 11.396 | 2 | 34.700 | 11.584 | 30.213 | 2 |
| 2025-05-05T14:21:00 | 55.000619 | 8.091316 | 2.0 | 11.401 | 2 | 34.694 | 11.589 | 30.203 | 2 |
| 2025-05-05T14:22:00 | 55.000405 | 8.091747 | 2.0 | 11.396 | 2 | 34.701 | 11.591 | 30.208 | 2 |
| 2025-05-05T14:23:00 | 55.000160 | 8.092439 | 2.0 | 11.401 | 2 | 34.695 | 11.588 | 30.205 | 2 |
| 2025-05-05T14:24:00 | 54.999833 | 8.093315 | 2.0 | 11.399 | 2 | 34.704 | 11.597 | 30.206 | 2 |
| 2025-05-05T14:25:00 | 54.999536 | 8.094136 | 2.0 | 11.403 | 2 | 34.699 | 11.593 | 30.204 | 2 |
| 2025-05-05T14:26:00 | 54.999231 | 8.094855 | 2.0 | 11.405 | 2 | 34.686 | 11.595 | 30.190 | 2 |
| 2025-05-05T14:27:00 | 54.998941 | 8.095422 | 2.0 | 11.380 | 2 | 34.703 | 11.593 | 30.208 | 2 |
| 2025-05-05T14:28:00 | 54.998689 | 8.096009 | 2.0 | 11.407 | 2 | 34.707 | 11.570 | 30.231 | 2 |
| 2025-05-05T14:29:00 | 54.998661 | 8.096552 | 2.0 | 11.394 | 2 | 34.723 | 11.597 | 30.224 | 2 |
| 2025-05-05T14:30:00 | 54.998903 | 8.096609 | 2.0 | 11.409 | 2 | 34.715 | 11.593 | 30.220 | 2 |
| 2025-05-05T14:31:00 | 54.999314 | 8.096191 | 2.0 | 11.391 | 2 | 34.728 | 11.602 | 30.225 | 2 |
| 2025-05-05T14:32:00 | 54.999585 | 8.095927 | 2.0 | 11.389 | 2 | 34.726 | 11.589 | 30.234 | 2 |
| 2025-05-05T14:33:00 | 54.999742 | 8.095792 | 2.0 | 11.373 | 2 | 34.726 | 11.577 | 30.243 | 2 |
| 2025-05-05T14:34:00 | 54.999926 | 8.095480 | 2.0 | 11.382 | 2 | 34.724 | 11.573 | 30.245 | 2 |
| 2025-05-05T14:35:00 | 55.000079 | 8.095206 | 2.0 | 11.376 | 2 | 34.730 | 11.573 | 30.251 | 2 |
| 2025-05-05T14:36:00 | 55.000180 | 8.095075 | 2.0 | 11.358 | 2 | 34.731 | 11.568 | 30.256 | 2 |
| 2025-05-05T14:37:00 | 55.000222 | 8.095235 | 2.0 | 11.360 | 2 | 34.729 | 11.558 | 30.262 | 2 |
| 2025-05-05T14:38:00 | 55.000621 | 8.095785 | 2.0 | 11.336 | 2 | 34.726 | 11.550 | 30.265 | 2 |
| 2025-05-05T14:39:00 | 55.001316 | 8.096770 | 2.0 | 11.304 | 2 | 34.714 | 11.527 | 30.273 | 2 |
| 2025-05-05T14:40:00 | 55.001643 | 8.098442 | 2.0 | 11.274 | 2 | 34.697 | 11.500 | 30.278 | 2 |
| 2025-05-05T14:41:00 | 55.000961 | 8.100250 | 2.0 | 11.304 | 2 | 34.686 | 11.477 | 30.286 | 2 |
| 2025-05-05T14:42:00 | 54.999863 | 8.101417 | 2.0 | 11.318 | 2 | 34.691 | 11.500 | 30.272 | 2 |
| 2025-05-05T14:43:00 | 54.998866 | 8.101517 | 2.0 | 11.363 | 2 | 34.689 | 11.528 | 30.248 | 2 |
| 2025-05-05T14:44:00 | 54.998301 | 8.100986 | 2.0 | 11.373 | 2 | 34.708 | 11.558 | 30.242 | 2 |
| 2025-05-05T14:45:00 | 54.998258 | 8.100498 | 2.0 | 11.371 | 2 | 34.715 | 11.566 | 30.242 | 2 |
| 2025-05-05T14:46:00 | 54.998750 | 8.100102 | 2.0 | 11.358 | 2 | 34.719 | 11.564 | 30.247 | 2 |
| 2025-05-05T14:47:00 | 54.999060 | 8.100133 | 2.0 | 11.347 | 2 | 34.719 | 11.554 | 30.255 | 2 |
| 2025-05-05T14:48:00 | 54.999315 | 8.099937 | 2.0 | 11.341 | 2 | 34.717 | 11.544 | 30.262 | 2 |
| 2025-05-05T14:49:00 | 54.999511 | 8.099657 | 2.0 | 11.323 | 2 | 34.718 | 11.538 | 30.268 | 2 |
| 2025-05-05T14:50:00 | 54.999637 | 8.099448 | 2.0 | 11.310 | 2 | 34.712 | 11.522 | 30.275 | 2 |
| 2025-05-05T14:51:00 | 54.999817 | 8.099167 | 2.0 | 11.251 | 2 | 34.697 | 11.488 | 30.288 | 2 |
| 2025-05-05T14:52:00 | 54.999834 | 8.099150 | 2.0 | 11.277 | 2 | 34.679 | 11.457 | 30.296 | 2 |
| 2025-05-05T14:53:00 | 54.999787 | 8.099173 | 2.0 | 11.267 | 2 | 34.688 | 11.474 | 30.291 | 2 |
| 2025-05-05T14:54:00 | 54.999706 | 8.099134 | 2.0 | 11.265 | 2 | 34.686 | 11.466 | 30.295 | 2 |
| 2025-05-05T14:55:00 | 54.999651 | 8.099086 | 2.0 | 11.249 | 2 | 34.686 | 11.464 | 30.297 | 2 |
| 2025-05-05T14:56:00 | 54.999642 | 8.099039 | 2.0 | 11.256 | 2 | 34.680 | 11.452 | 30.301 | 2 |
| 2025-05-05T14:57:00 | 54.999655 | 8.099057 | 2.0 | 11.256 | 2 | 34.685 | 11.458 | 30.301 | 2 |
| 2025-05-05T14:58:00 | 54.999666 | 8.099139 | 2.0 | 11.254 | 2 | 34.688 | 11.456 | 30.306 | 2 |
| 2025-05-05T14:59:00 | 54.999671 | 8.099287 | 2.0 | 11.247 | 2 | 34.683 | 11.447 | 30.308 | 2 |
| 2025-05-05T15:00:00 | 54.999659 | 8.099457 | 2.0 | 11.246 | 2 | 34.674 | 11.432 | 30.312 | 2 |
| 2025-05-05T15:01:00 | 54.999671 | 8.099541 | 2.0 | 11.242 | 2 | 34.582 | 11.429 | 30.225 | 2 |
| 2025-05-05T15:02:00 | 54.999716 | 8.099504 | 2.0 | 11.233 | 2 | 34.669 | 11.421 | 30.316 | 2 |
| 2025-05-05T15:03:00 | 54.999772 | 8.099448 | 2.0 | 11.235 | 2 | 34.667 | 11.418 | 30.316 | 2 |
| 2025-05-05T15:04:00 | 54.999759 | 8.099501 | 2.0 | 11.220 | 2 | 34.664 | 11.409 | 30.321 | 2 |
| 2025-05-05T15:05:00 | 54.999706 | 8.099601 | 2.0 | 11.210 | 2 | 34.657 | 11.398 | 30.323 | 2 |
| 2025-05-05T15:06:00 | 54.999676 | 8.099672 | 2.0 | 11.186 | 2 | 34.649 | 11.384 | 30.327 | 2 |
| 2025-05-05T15:07:00 | 54.999697 | 8.099726 | 2.0 | 11.166 | 2 | 34.636 | 11.361 | 30.333 | 2 |
| 2025-05-05T15:08:00 | 54.999727 | 8.099784 | 2.0 | 11.160 | 2 | 34.625 | 11.341 | 30.339 | 2 |
| 2025-05-05T15:10:00 | 54.999871 | 8.099858 | 2.0 | 11.164 | 2 | 34.435 | 11.352 | 30.145 | 2 |
| 2025-05-05T15:11:00 | 54.999939 | 8.099890 | 2.0 | 11.188 | 2 | 34.630 | 11.344 | 30.341 | 2 |
| 2025-05-05T15:12:00 | 54.999980 | 8.099952 | 2.0 | 11.198 | 2 | 34.643 | 11.366 | 30.336 | 2 |
| 2025-05-05T15:13:00 | 54.999949 | 8.099999 | 2.0 | 11.177 | 2 | 34.647 | 11.366 | 30.340 | 2 |
| 2025-05-05T15:14:00 | 54.999876 | 8.100092 | 2.0 | 11.176 | 2 | 34.638 | 11.352 | 30.342 | 2 |
| 2025-05-05T15:15:00 | 54.999839 | 8.100317 | 2.0 | 11.174 | 2 | 34.637 | 11.349 | 30.344 | 2 |
| 2025-05-05T15:16:00 | 54.999831 | 8.100503 | 2.0 | 11.168 | 2 | 34.635 | 11.348 | 30.343 | 2 |
| 2025-05-05T15:17:00 | 54.999717 | 8.100561 | 2.0 | 11.173 | 2 | 34.481 | 11.343 | 30.197 | 2 |
| 2025-05-05T15:18:00 | 54.999562 | 8.100527 | 2.0 | 11.165 | 2 | 34.574 | 11.345 | 30.286 | 2 |
| 2025-05-05T15:19:00 | 54.999530 | 8.100469 | 2.0 | 11.137 | 2 | 34.630 | 11.335 | 30.349 | 2 |
| 2025-05-05T15:20:00 | 54.999544 | 8.100452 | 2.0 | 11.136 | 2 | 34.617 | 11.312 | 30.355 | 2 |
| 2025-05-05T15:21:00 | 54.999565 | 8.100467 | 2.0 | 11.141 | 2 | 34.615 | 11.309 | 30.355 | 2 |
| 2025-05-05T15:22:00 | 54.999572 | 8.100497 | 2.0 | 11.145 | 2 | 34.622 | 11.318 | 30.355 | 2 |
| 2025-05-05T15:23:00 | 54.999573 | 8.100516 | 2.0 | 11.134 | 2 | 34.485 | 11.315 | 30.224 | 2 |
| 2025-05-05T15:24:00 | 54.999570 | 8.100578 | 2.0 | 11.128 | 2 | 34.620 | 11.308 | 30.361 | 2 |
| 2025-05-05T15:25:00 | 54.999572 | 8.100607 | 2.0 | 11.138 | 2 | 34.592 | 11.301 | 30.339 | 2 |
| 2025-05-05T15:26:00 | 54.999551 | 8.100599 | 2.0 | 11.139 | 2 | 34.587 | 11.308 | 30.329 | 2 |
| 2025-05-05T15:27:00 | 54.999512 | 8.100577 | 2.0 | 11.077 | 2 | 34.495 | 11.301 | 30.245 | 2 |
| 2025-05-05T15:28:00 | 54.999476 | 8.100600 | 2.0 | 11.112 | 2 | 34.472 | 11.259 | 30.257 | 2 |
| 2025-05-05T15:29:00 | 54.999447 | 8.100638 | 2.0 | 11.096 | 2 | 34.483 | 11.282 | 30.249 | 2 |
| 2025-05-05T15:30:00 | 54.999426 | 8.100709 | 2.0 | 11.064 | 2 | 34.520 | 11.264 | 30.300 | 2 |
| 2025-05-05T15:31:00 | 54.999411 | 8.100805 | 2.0 | 11.068 | 2 | 34.370 | 11.234 | 30.178 | 2 |
| 2025-05-05T15:32:00 | 54.999388 | 8.100877 | 2.0 | 11.061 | 2 | 34.585 | 11.239 | 30.384 | 2 |
| 2025-05-05T15:33:00 | 54.999382 | 8.100916 | 2.0 | 11.068 | 2 | 34.558 | 11.234 | 30.361 | 2 |
| 2025-05-05T15:34:00 | 54.999389 | 8.100924 | 2.0 | 11.079 | 2 | 34.448 | 11.242 | 30.248 | 2 |
| 2025-05-05T15:35:00 | 54.999393 | 8.100847 | 2.0 | 11.058 | 2 | 34.440 | 11.247 | 30.236 | 2 |
| 2025-05-05T15:36:00 | 54.999385 | 8.100792 | 2.0 | 11.058 | 2 | 34.447 | 11.229 | 30.257 | 2 |
| 2025-05-05T15:37:00 | 54.999360 | 8.100816 | 2.0 | 11.053 | 2 | 34.584 | 11.226 | 30.393 | 2 |
| 2025-05-05T15:38:00 | 54.999316 | 8.100908 | 2.0 | 11.058 | 2 | 34.528 | 11.225 | 30.340 | 2 |
| 2025-05-05T15:39:00 | 54.999290 | 8.101006 | 2.0 | 11.056 | 2 | 34.387 | 11.228 | 30.200 | 2 |
| 2025-05-05T15:40:00 | 54.999314 | 8.101052 | 2.0 | 11.031 | 2 | 34.515 | 11.226 | 30.326 | 2 |
| 2025-05-05T15:41:00 | 54.999358 | 8.101023 | 2.0 | 11.018 | 2 | 34.479 | 11.200 | 30.312 | 2 |
| 2025-05-05T15:42:00 | 54.999369 | 8.100958 | 2.0 | 10.977 | 2 | 34.505 | 11.184 | 30.351 | 2 |
| 2025-05-05T15:43:00 | 54.999363 | 8.100896 | 2.0 | 10.979 | 2 | 34.434 | 11.146 | 30.313 | 2 |
| 2025-05-05T15:44:00 | 54.999357 | 8.100850 | 2.0 | 10.987 | 2 | 34.496 | 11.151 | 30.369 | 2 |
| 2025-05-05T15:45:00 | 54.999351 | 8.100809 | 2.0 | 10.963 | 2 | 34.497 | 11.155 | 30.367 | 2 |
| 2025-05-05T15:46:00 | 54.999528 | 8.100426 | 2.0 | 10.955 | 2 | 34.427 | 11.132 | 30.318 | 2 |
| 2025-05-05T15:47:00 | 54.999932 | 8.099436 | 2.0 | 10.945 | 2 | 34.450 | 11.127 | 30.344 | 2 |
| 2025-05-05T15:48:00 | 55.000405 | 8.098349 | 2.0 | 10.881 | 2 | 34.453 | 11.099 | 30.370 | 2 |
| 2025-05-05T15:49:00 | 55.000858 | 8.097251 | 2.0 | 10.838 | 2 | 34.338 | 11.045 | 30.302 | 2 |
| 2025-05-05T15:50:00 | 55.001294 | 8.096169 | 2.0 | 10.842 | 2 | 34.380 | 11.007 | 30.375 | 2 |
| 2025-05-05T15:51:00 | 55.001737 | 8.095095 | 2.0 | 10.831 | 2 | 34.398 | 11.011 | 30.389 | 2 |
| 2025-05-05T15:52:00 | 55.002198 | 8.093993 | 2.0 | 10.830 | 2 | 34.406 | 11.007 | 30.400 | 2 |
| 2025-05-05T15:53:00 | 55.002596 | 8.092990 | 2.0 | 10.853 | 2 | 34.388 | 11.001 | 30.388 | 2 |
| 2025-05-05T15:54:00 | 55.002862 | 8.092238 | 2.0 | 10.858 | 2 | 34.448 | 11.024 | 30.427 | 2 |
| 2025-05-05T15:55:00 | 55.003024 | 8.091636 | 2.0 | 10.842 | 2 | 34.513 | 11.029 | 30.487 | 2 |
| 2025-05-05T15:56:00 | 55.003143 | 8.091210 | 2.0 | 10.840 | 2 | 34.501 | 11.015 | 30.487 | 2 |
| 2025-05-05T15:57:00 | 55.003260 | 8.090937 | 2.0 | 10.848 | 2 | 34.516 | 11.009 | 30.506 | 2 |
| 2025-05-05T15:58:00 | 55.003323 | 8.090661 | 2.0 | 10.826 | 2 | 34.515 | 11.011 | 30.504 | 2 |
| 2025-05-05T15:59:00 | 55.003617 | 8.090052 | 2.0 | 10.856 | 2 | 34.523 | 11.013 | 30.510 | 2 |
| 2025-05-05T16:00:00 | 55.003996 | 8.089360 | 2.0 | 10.827 | 2 | 34.555 | 11.017 | 30.538 | 2 |
| 2025-05-05T16:01:00 | 55.004397 | 8.088665 | 2.0 | 10.818 | 2 | 34.518 | 10.999 | 30.517 | 2 |
| 2025-05-05T16:02:00 | 55.004768 | 8.087996 | 2.0 | 10.798 | 2 | 34.547 | 10.984 | 30.558 | 2 |
| 2025-05-05T16:03:00 | 55.005132 | 8.087314 | 2.0 | 10.815 | 2 | 34.579 | 10.972 | 30.599 | 2 |
| 2025-05-05T16:04:00 | 55.005505 | 8.086594 | 2.0 | 10.827 | 2 | 34.603 | 10.991 | 30.607 | 2 |
| 2025-05-05T16:05:00 | 55.005855 | 8.085900 | 2.0 | 10.754 | 2 | 34.626 | 10.980 | 30.639 | 2 |
| 2025-05-05T16:06:00 | 55.006235 | 8.085236 | 2.0 | 10.729 | 2 | 34.609 | 10.924 | 30.669 | 2 |
| 2025-05-05T16:07:00 | 55.006561 | 8.084674 | 2.0 | 10.758 | 2 | 34.574 | 10.906 | 30.649 | 2 |
| 2025-05-05T16:08:00 | 55.006782 | 8.084243 | 2.0 | 10.772 | 2 | 34.626 | 10.930 | 30.680 | 2 |
| 2025-05-05T16:09:00 | 55.006950 | 8.083935 | 2.0 | 10.743 | 2 | 34.659 | 10.938 | 30.706 | 2 |
| 2025-05-05T16:10:00 | 55.007056 | 8.083692 | 2.0 | 10.728 | 2 | 34.648 | 10.912 | 30.717 | 2 |
| 2025-05-05T16:11:00 | 55.007160 | 8.083417 | 2.0 | 10.729 | 2 | 34.633 | 10.901 | 30.711 | 2 |
| 2025-05-05T16:12:00 | 55.007278 | 8.083119 | 2.0 | 10.710 | 2 | 34.651 | 10.896 | 30.733 | 2 |
| 2025-05-05T16:13:00 | 55.007418 | 8.082813 | 2.0 | 10.694 | 2 | 34.647 | 10.879 | 30.744 | 2 |
| 2025-05-05T16:14:00 | 55.007565 | 8.082514 | 2.0 | 10.691 | 2 | 34.667 | 10.865 | 30.775 | 2 |
| 2025-05-05T16:15:00 | 55.007805 | 8.081761 | 2.0 | 10.664 | 2 | 34.668 | 10.856 | 30.784 | 2 |
| 2025-05-05T16:16:00 | 55.008135 | 8.080518 | 2.0 | 10.592 | 2 | 34.663 | 10.825 | 30.805 | 2 |
| 2025-05-05T16:17:00 | 55.008527 | 8.079167 | 2.0 | 10.522 | 2 | 34.637 | 10.756 | 30.837 | 2 |
| 2025-05-05T16:18:00 | 55.008892 | 8.077923 | 2.0 | 10.498 | 2 | 34.610 | 10.695 | 30.862 | 2 |
| 2025-05-05T16:19:00 | 55.009251 | 8.076655 | 2.0 | 10.496 | 2 | 34.599 | 10.677 | 30.866 | 2 |
| 2025-05-05T16:20:00 | 55.009615 | 8.075400 | 2.0 | 10.490 | 2 | 34.601 | 10.667 | 30.877 | 2 |
| 2025-05-05T16:21:00 | 55.009971 | 8.074184 | 2.0 | 10.475 | 2 | 34.603 | 10.661 | 30.884 | 2 |
| 2025-05-05T16:22:00 | 55.010331 | 8.072956 | 2.0 | 10.475 | 2 | 34.603 | 10.650 | 30.893 | 2 |
| 2025-05-05T16:23:00 | 55.010706 | 8.071678 | 2.0 | 10.483 | 2 | 34.606 | 10.650 | 30.896 | 2 |
| 2025-05-05T16:24:00 | 55.011102 | 8.070396 | 2.0 | 10.493 | 2 | 34.613 | 10.656 | 30.898 | 2 |
| 2025-05-05T16:25:00 | 55.011603 | 8.069210 | 2.0 | 10.505 | 2 | 34.621 | 10.666 | 30.897 | 2 |
| 2025-05-05T16:26:00 | 55.012076 | 8.068320 | 2.0 | 10.517 | 2 | 34.626 | 10.682 | 30.889 | 2 |
| 2025-05-05T16:27:00 | 55.012391 | 8.068135 | 2.0 | 10.518 | 2 | 34.627 | 10.685 | 30.887 | 2 |
| 2025-05-05T16:28:00 | 55.012633 | 8.068442 | 2.0 | 10.483 | 2 | 34.627 | 10.686 | 30.886 | 2 |
| 2025-05-05T16:29:00 | 55.012942 | 8.068929 | 2.0 | 10.506 | 2 | 34.617 | 10.664 | 30.895 | 2 |
| 2025-05-05T16:30:00 | 55.013161 | 8.070033 | 2.0 | 10.508 | 2 | 34.616 | 10.675 | 30.885 | 2 |
| 2025-05-05T16:31:00 | 55.013100 | 8.071585 | 2.0 | 10.506 | 2 | 34.612 | 10.676 | 30.880 | 2 |
| 2025-05-05T16:32:00 | 55.012847 | 8.073383 | 2.0 | 10.498 | 2 | 34.607 | 10.681 | 30.871 | 2 |
| 2025-05-05T16:33:00 | 55.012267 | 8.075420 | 2.0 | 10.495 | 2 | 34.597 | 10.667 | 30.873 | 2 |
| 2025-05-05T16:34:00 | 55.011529 | 8.077629 | 2.0 | 10.477 | 2 | 34.590 | 10.661 | 30.871 | 2 |
| 2025-05-05T16:35:00 | 55.010754 | 8.079843 | 2.0 | 10.486 | 2 | 34.581 | 10.651 | 30.870 | 2 |
| 2025-05-05T16:36:00 | 55.009984 | 8.081953 | 2.0 | 10.526 | 2 | 34.578 | 10.666 | 30.855 | 2 |
| 2025-05-05T16:37:00 | 55.009235 | 8.083977 | 2.0 | 10.579 | 2 | 34.587 | 10.706 | 30.830 | 2 |
| 2025-05-05T16:38:00 | 55.008521 | 8.085894 | 2.0 | 10.682 | 2 | 34.596 | 10.765 | 30.789 | 2 |
| 2025-05-05T16:39:00 | 55.007839 | 8.087730 | 2.0 | 10.730 | 2 | 34.622 | 10.859 | 30.736 | 2 |
| 2025-05-05T16:40:00 | 55.007208 | 8.089541 | 2.0 | 10.751 | 2 | 34.645 | 10.898 | 30.726 | 2 |
| 2025-05-05T16:41:00 | 55.006538 | 8.091167 | 2.0 | 10.773 | 2 | 34.646 | 10.923 | 30.706 | 2 |
| 2025-05-05T16:42:00 | 55.005899 | 8.092744 | 2.0 | 10.773 | 2 | 34.628 | 10.942 | 30.672 | 2 |
| 2025-05-05T16:43:00 | 55.005317 | 8.094293 | 2.0 | 10.754 | 2 | 34.596 | 10.937 | 30.645 | 2 |
| 2025-05-05T16:44:00 | 55.004612 | 8.095658 | 2.0 | 10.741 | 2 | 34.566 | 10.925 | 30.625 | 2 |
| 2025-05-05T16:45:00 | 55.003966 | 8.097094 | 2.0 | 10.734 | 2 | 34.537 | 10.908 | 30.611 | 2 |
| 2025-05-05T16:46:00 | 55.003291 | 8.098434 | 2.0 | 10.729 | 2 | 34.522 | 10.903 | 30.601 | 2 |
| 2025-05-05T16:47:00 | 55.002695 | 8.099767 | 2.0 | 10.728 | 2 | 34.504 | 10.897 | 30.588 | 2 |
| 2025-05-05T16:48:00 | 55.002064 | 8.101027 | 2.0 | 10.723 | 2 | 34.490 | 10.897 | 30.574 | 2 |
| 2025-05-05T16:49:00 | 55.001475 | 8.102334 | 2.0 | 10.715 | 2 | 34.475 | 10.890 | 30.565 | 2 |
| 2025-05-05T16:50:00 | 55.000847 | 8.103561 | 2.0 | 10.721 | 2 | 34.465 | 10.887 | 30.558 | 2 |
| 2025-05-05T16:51:00 | 55.000275 | 8.104838 | 2.0 | 10.740 | 2 | 34.458 | 10.893 | 30.546 | 2 |
| 2025-05-05T16:52:00 | 54.999647 | 8.105997 | 2.0 | 10.745 | 2 | 34.456 | 10.908 | 30.532 | 2 |
| 2025-05-05T16:53:00 | 54.999067 | 8.107194 | 2.0 | 10.759 | 2 | 34.456 | 10.920 | 30.522 | 2 |
| 2025-05-05T16:54:00 | 54.998455 | 8.108111 | 2.0 | 10.764 | 2 | 34.453 | 10.927 | 30.513 | 2 |
| 2025-05-05T16:55:00 | 54.997997 | 8.108164 | 2.0 | 10.768 | 2 | 34.458 | 10.934 | 30.512 | 2 |
| 2025-05-05T16:56:00 | 54.997673 | 8.108123 | 2.0 | 10.774 | 2 | 34.462 | 10.938 | 30.512 | 2 |
| 2025-05-05T16:57:00 | 54.997376 | 8.107989 | 2.0 | 10.779 | 2 | 34.466 | 10.944 | 30.511 | 2 |
| 2025-05-05T16:58:00 | 54.997148 | 8.107766 | 2.0 | 10.777 | 2 | 34.469 | 10.947 | 30.512 | 2 |
| 2025-05-05T16:59:00 | 54.997104 | 8.107384 | 2.0 | 10.790 | 2 | 34.469 | 10.948 | 30.511 | 2 |
| 2025-05-05T17:00:00 | 54.997278 | 8.106927 | 2.0 | 10.791 | 2 | 34.477 | 10.959 | 30.510 | 2 |
| 2025-05-05T17:01:00 | 54.997564 | 8.106475 | 2.0 | 10.773 | 2 | 34.478 | 10.957 | 30.512 | 2 |
| 2025-05-05T17:02:00 | 54.997754 | 8.105972 | 2.0 | 10.770 | 2 | 34.473 | 10.943 | 30.519 | 2 |
| 2025-05-05T17:03:00 | 54.997915 | 8.105443 | 2.0 | 10.761 | 2 | 34.476 | 10.937 | 30.527 | 2 |
| 2025-05-05T17:04:00 | 54.998085 | 8.104938 | 2.0 | 10.735 | 2 | 34.474 | 10.926 | 30.534 | 2 |
| 2025-05-05T17:05:00 | 54.998292 | 8.104482 | 2.0 | 10.734 | 2 | 34.463 | 10.905 | 30.541 | 2 |
| 2025-05-05T17:06:00 | 54.998512 | 8.104029 | 2.0 | 10.742 | 2 | 34.467 | 10.906 | 30.544 | 2 |
| 2025-05-05T17:07:00 | 54.998685 | 8.103570 | 2.0 | 10.719 | 2 | 34.473 | 10.908 | 30.548 | 2 |
| 2025-05-05T17:08:00 | 54.998809 | 8.103177 | 2.0 | 10.718 | 2 | 34.465 | 10.888 | 30.557 | 2 |
| 2025-05-05T17:09:00 | 54.998878 | 8.102820 | 2.0 | 10.732 | 2 | 34.469 | 10.890 | 30.559 | 2 |
| 2025-05-05T17:10:00 | 54.998914 | 8.102533 | 2.0 | 10.717 | 2 | 34.478 | 10.896 | 30.563 | 2 |
| 2025-05-05T17:11:00 | 54.998959 | 8.102268 | 2.0 | 10.717 | 2 | 34.480 | 10.887 | 30.573 | 2 |
| 2025-05-05T17:12:00 | 54.999077 | 8.101942 | 2.0 | 10.723 | 2 | 34.485 | 10.888 | 30.577 | 2 |
| 2025-05-05T17:13:00 | 54.999214 | 8.101650 | 2.0 | 10.723 | 2 | 34.493 | 10.890 | 30.583 | 2 |
| 2025-05-05T17:14:00 | 54.999296 | 8.101447 | 2.0 | 10.712 | 2 | 34.494 | 10.890 | 30.584 | 2 |
| 2025-05-05T17:15:00 | 54.999337 | 8.101207 | 2.0 | 10.713 | 2 | 34.496 | 10.882 | 30.593 | 2 |
| 2025-05-05T17:16:00 | 54.999338 | 8.101009 | 2.0 | 10.717 | 2 | 34.496 | 10.883 | 30.592 | 2 |
| 2025-05-05T17:17:00 | 54.999394 | 8.100798 | 2.0 | 10.716 | 2 | 34.501 | 10.886 | 30.594 | 2 |
| 2025-05-05T17:18:00 | 54.999472 | 8.100623 | 2.0 | 10.721 | 2 | 34.504 | 10.886 | 30.597 | 2 |
| 2025-05-05T17:19:00 | 54.999578 | 8.100397 | 2.0 | 10.713 | 2 | 34.507 | 10.888 | 30.598 | 2 |
| 2025-05-05T17:20:00 | 54.999692 | 8.100182 | 2.0 | 10.704 | 2 | 34.509 | 10.881 | 30.606 | 2 |
| 2025-05-05T17:21:00 | 54.999766 | 8.099994 | 2.0 | 10.689 | 2 | 34.504 | 10.866 | 30.614 | 2 |
| 2025-05-05T17:22:00 | 54.999780 | 8.099800 | 2.0 | 10.702 | 2 | 34.499 | 10.863 | 30.611 | 2 |
| 2025-05-05T17:23:00 | 54.999797 | 8.099583 | 2.0 | 10.705 | 2 | 34.500 | 10.870 | 30.606 | 2 |
| 2025-05-05T17:24:00 | 54.999820 | 8.099352 | 2.0 | 10.703 | 2 | 34.503 | 10.873 | 30.607 | 2 |
| 2025-05-05T17:25:00 | 55.000092 | 8.098784 | 2.0 | 10.689 | 2 | 34.507 | 10.872 | 30.612 | 2 |
| 2025-05-05T17:26:00 | 55.000624 | 8.097808 | 2.0 | 10.673 | 2 | 34.501 | 10.854 | 30.621 | 2 |
| 2025-05-05T17:27:00 | 55.001269 | 8.096819 | 2.0 | 10.662 | 2 | 34.498 | 10.842 | 30.628 | 2 |
| 2025-05-05T17:28:00 | 55.001894 | 8.096005 | 2.0 | 10.657 | 2 | 34.506 | 10.832 | 30.644 | 2 |
| 2025-05-05T17:29:00 | 55.002478 | 8.095067 | 2.0 | 10.639 | 2 | 34.525 | 10.825 | 30.669 | 2 |
| 2025-05-05T17:30:00 | 55.003031 | 8.094000 | 2.0 | 10.644 | 2 | 34.527 | 10.811 | 30.682 | 2 |
| 2025-05-05T17:31:00 | 55.003567 | 8.092894 | 2.0 | 10.638 | 2 | 34.538 | 10.815 | 30.690 | 2 |
| 2025-05-05T17:32:00 | 55.004101 | 8.091767 | 2.0 | 10.623 | 2 | 34.552 | 10.803 | 30.714 | 2 |
| 2025-05-05T17:33:00 | 55.004591 | 8.090745 | 2.0 | 10.615 | 2 | 34.558 | 10.793 | 30.728 | 2 |
| 2025-05-05T17:34:00 | 55.005065 | 8.089744 | 2.0 | 10.612 | 2 | 34.569 | 10.786 | 30.745 | 2 |
| 2025-05-05T17:35:00 | 55.005538 | 8.088772 | 2.0 | 10.612 | 2 | 34.583 | 10.780 | 30.764 | 2 |
| 2025-05-05T17:36:00 | 55.005927 | 8.087966 | 2.0 | 10.580 | 2 | 34.598 | 10.778 | 30.780 | 2 |
| 2025-05-05T17:37:00 | 55.006220 | 8.087335 | 2.0 | 10.569 | 2 | 34.600 | 10.748 | 30.807 | 2 |
| 2025-05-05T17:38:00 | 55.006444 | 8.086885 | 2.0 | 10.549 | 2 | 34.606 | 10.737 | 30.823 | 2 |
| 2025-05-05T17:39:00 | 55.006594 | 8.086533 | 2.0 | 10.542 | 2 | 34.600 | 10.718 | 30.833 | 2 |
| 2025-05-05T17:40:00 | 55.006679 | 8.086240 | 2.0 | 10.538 | 2 | 34.603 | 10.713 | 30.840 | 2 |
| 2025-05-05T17:41:00 | 55.006712 | 8.086057 | 2.0 | 10.534 | 2 | 34.605 | 10.708 | 30.846 | 2 |
| 2025-05-05T17:42:00 | 55.006668 | 8.085988 | 2.0 | 10.535 | 2 | 34.605 | 10.704 | 30.849 | 2 |
| 2025-05-05T17:43:00 | 55.006717 | 8.085655 | 2.0 | 10.536 | 2 | 34.606 | 10.705 | 30.850 | 2 |
| 2025-05-05T17:44:00 | 55.006999 | 8.085044 | 2.0 | 10.539 | 2 | 34.620 | 10.709 | 30.860 | 2 |
| 2025-05-05T17:45:00 | 55.007350 | 8.084335 | 2.0 | 10.509 | 2 | 34.639 | 10.704 | 30.883 | 2 |
| 2025-05-05T17:46:00 | 55.007743 | 8.083546 | 2.0 | 10.478 | 2 | 34.632 | 10.675 | 30.901 | 2 |
| 2025-05-05T17:47:00 | 55.008225 | 8.082638 | 2.0 | 10.464 | 2 | 34.616 | 10.647 | 30.908 | 2 |
| 2025-05-05T17:48:00 | 55.008752 | 8.081643 | 2.0 | 10.463 | 2 | 34.612 | 10.635 | 30.915 | 2 |
| 2025-05-05T17:49:00 | 55.009232 | 8.080693 | 2.0 | 10.461 | 2 | 34.616 | 10.634 | 30.919 | 2 |
| 2025-05-05T17:50:00 | 55.009687 | 8.079794 | 2.0 | 10.461 | 2 | 34.620 | 10.633 | 30.924 | 2 |
| 2025-05-05T17:51:00 | 55.010124 | 8.078918 | 2.0 | 10.454 | 2 | 34.622 | 10.630 | 30.929 | 2 |
| 2025-05-05T17:52:00 | 55.010556 | 8.078008 | 2.0 | 10.454 | 2 | 34.619 | 10.624 | 30.931 | 2 |
| 2025-05-05T17:53:00 | 55.011031 | 8.077049 | 2.0 | 10.462 | 2 | 34.620 | 10.626 | 30.930 | 2 |
| 2025-05-05T17:54:00 | 55.011524 | 8.076052 | 2.0 | 10.463 | 2 | 34.624 | 10.632 | 30.929 | 2 |
| 2025-05-05T17:55:00 | 55.012001 | 8.075115 | 2.0 | 10.466 | 2 | 34.630 | 10.635 | 30.932 | 2 |
| 2025-05-05T17:56:00 | 55.012401 | 8.074316 | 2.0 | 10.464 | 2 | 34.632 | 10.637 | 30.933 | 2 |
| 2025-05-05T17:57:00 | 55.012723 | 8.073666 | 2.0 | 10.464 | 2 | 34.630 | 10.634 | 30.933 | 2 |
| 2025-05-05T17:58:00 | 55.012966 | 8.073135 | 2.0 | 10.468 | 2 | 34.632 | 10.635 | 30.934 | 2 |
| 2025-05-05T17:59:00 | 55.013149 | 8.072681 | 2.0 | 10.467 | 2 | 34.634 | 10.637 | 30.935 | 2 |
| 2025-05-05T18:00:00 | 55.013291 | 8.072292 | 2.0 | 10.471 | 2 | 34.635 | 10.638 | 30.935 | 2 |
| 2025-05-05T18:01:00 | 55.013404 | 8.071954 | 2.0 | 10.475 | 2 | 34.635 | 10.641 | 30.932 | 2 |
| 2025-05-05T18:02:00 | 55.013624 | 8.071373 | 2.0 | 10.477 | 2 | 34.636 | 10.645 | 30.930 | 2 |
| 2025-05-05T18:03:00 | 55.014040 | 8.070505 | 2.0 | 10.478 | 2 | 34.638 | 10.647 | 30.930 | 2 |
| 2025-05-05T18:04:00 | 55.014608 | 8.069389 | 2.0 | 10.472 | 2 | 34.638 | 10.648 | 30.929 | 2 |
| 2025-05-05T18:05:00 | 55.015195 | 8.068291 | 2.0 | 10.466 | 2 | 34.637 | 10.641 | 30.934 | 2 |
| 2025-05-05T18:06:00 | 55.015757 | 8.067229 | 2.0 | 10.477 | 2 | 34.640 | 10.638 | 30.940 | 2 |
| 2025-05-05T18:07:00 | 55.016297 | 8.066205 | 2.0 | 10.491 | 2 | 34.647 | 10.649 | 30.937 | 2 |
| 2025-05-05T18:08:00 | 55.016818 | 8.065155 | 2.0 | 10.491 | 2 | 34.656 | 10.663 | 30.935 | 2 |
| 2025-05-05T18:09:00 | 55.017339 | 8.064087 | 2.0 | 10.475 | 2 | 34.665 | 10.658 | 30.948 | 2 |
| 2025-05-05T18:10:00 | 55.017866 | 8.063047 | 2.0 | 10.480 | 2 | 34.671 | 10.648 | 30.962 | 2 |
| 2025-05-05T18:11:00 | 55.018366 | 8.062009 | 2.0 | 10.490 | 2 | 34.680 | 10.651 | 30.968 | 2 |
| 2025-05-05T18:12:00 | 55.018860 | 8.060980 | 2.0 | 10.505 | 2 | 34.692 | 10.663 | 30.970 | 2 |
| 2025-05-05T18:13:00 | 55.019262 | 8.060082 | 2.0 | 10.512 | 2 | 34.700 | 10.674 | 30.969 | 2 |
| 2025-05-05T18:14:00 | 55.019445 | 8.059342 | 2.0 | 10.533 | 2 | 34.708 | 10.685 | 30.967 | 2 |
| 2025-05-05T18:15:00 | 55.019513 | 8.058737 | 2.0 | 10.546 | 2 | 34.716 | 10.704 | 30.959 | 2 |
| 2025-05-05T18:16:00 | 55.019312 | 8.058295 | 2.0 | 10.554 | 2 | 34.725 | 10.716 | 30.958 | 2 |
| 2025-05-05T18:17:00 | 55.018897 | 8.058661 | 2.0 | 10.550 | 2 | 34.730 | 10.721 | 30.959 | 2 |
| 2025-05-05T18:18:00 | 55.018394 | 8.059735 | 2.0 | 10.541 | 2 | 34.729 | 10.717 | 30.961 | 2 |
| 2025-05-05T18:19:00 | 55.017727 | 8.061198 | 2.0 | 10.532 | 2 | 34.724 | 10.710 | 30.962 | 2 |
| 2025-05-05T18:20:00 | 55.016956 | 8.062895 | 2.0 | 10.513 | 2 | 34.715 | 10.700 | 30.962 | 2 |
| 2025-05-05T18:21:00 | 55.016114 | 8.064750 | 2.0 | 10.486 | 2 | 34.697 | 10.679 | 30.962 | 2 |
| 2025-05-05T18:22:00 | 55.015128 | 8.066899 | 2.0 | 10.476 | 2 | 34.669 | 10.654 | 30.955 | 2 |
| 2025-05-05T18:23:00 | 55.014041 | 8.069275 | 2.0 | 10.483 | 2 | 34.659 | 10.648 | 30.950 | 2 |
| 2025-05-05T18:24:00 | 55.012893 | 8.071793 | 2.0 | 10.480 | 2 | 34.661 | 10.653 | 30.948 | 2 |
| 2025-05-05T18:25:00 | 55.011726 | 8.074376 | 2.0 | 10.470 | 2 | 34.656 | 10.648 | 30.947 | 2 |
| 2025-05-05T18:26:00 | 55.010562 | 8.076972 | 2.0 | 10.475 | 2 | 34.652 | 10.640 | 30.950 | 2 |
| 2025-05-05T18:27:00 | 55.009398 | 8.079581 | 2.0 | 10.483 | 2 | 34.648 | 10.648 | 30.939 | 2 |
| 2025-05-05T18:28:00 | 55.008218 | 8.082192 | 2.0 | 10.473 | 2 | 34.630 | 10.648 | 30.921 | 2 |
| 2025-05-05T18:29:00 | 55.007041 | 8.084822 | 2.0 | 10.512 | 2 | 34.610 | 10.652 | 30.898 | 2 |
| 2025-05-05T18:30:00 | 55.005917 | 8.087353 | 2.0 | 10.551 | 2 | 34.598 | 10.687 | 30.857 | 2 |
| 2025-05-05T18:31:00 | 55.004932 | 8.089569 | 2.0 | 10.604 | 2 | 34.583 | 10.727 | 30.808 | 2 |
| 2025-05-05T18:32:00 | 55.004031 | 8.091591 | 2.0 | 10.652 | 2 | 34.579 | 10.778 | 30.761 | 2 |
| 2025-05-05T18:33:00 | 55.003175 | 8.093491 | 2.0 | 10.693 | 2 | 34.579 | 10.823 | 30.724 | 2 |
| 2025-05-05T18:34:00 | 55.002350 | 8.095303 | 2.0 | 10.716 | 2 | 34.575 | 10.861 | 30.688 | 2 |
| 2025-05-05T18:35:00 | 55.001543 | 8.097077 | 2.0 | 10.733 | 2 | 34.564 | 10.885 | 30.657 | 2 |
| 2025-05-05T18:36:00 | 55.000743 | 8.098819 | 2.0 | 10.743 | 2 | 34.549 | 10.902 | 30.628 | 2 |
| 2025-05-05T18:37:00 | 54.999956 | 8.100547 | 2.0 | 10.741 | 2 | 34.530 | 10.909 | 30.603 | 2 |
| 2025-05-05T18:38:00 | 54.999169 | 8.102258 | 2.0 | 10.769 | 2 | 34.516 | 10.914 | 30.585 | 2 |
| 2025-05-05T18:39:00 | 54.998498 | 8.103919 | 2.0 | 10.784 | 2 | 34.505 | 10.938 | 30.555 | 2 |
| 2025-05-05T18:40:00 | 54.998345 | 8.105544 | 2.0 | 10.784 | 2 | 34.489 | 10.950 | 30.529 | 2 |
| 2025-05-05T18:41:00 | 54.998386 | 8.106859 | 2.0 | 10.788 | 2 | 34.479 | 10.949 | 30.520 | 2 |
| 2025-05-05T18:42:00 | 54.998099 | 8.107655 | 2.0 | 10.807 | 2 | 34.478 | 10.959 | 30.511 | 2 |
| 2025-05-05T18:43:00 | 54.997827 | 8.107683 | 2.0 | 10.812 | 2 | 34.481 | 10.973 | 30.502 | 2 |
| 2025-05-05T18:44:00 | 54.997638 | 8.107584 | 2.0 | 10.814 | 2 | 34.482 | 10.979 | 30.498 | 2 |
| 2025-05-05T18:45:00 | 54.997476 | 8.107460 | 2.0 | 10.818 | 2 | 34.483 | 10.981 | 30.497 | 2 |
| 2025-05-05T18:46:00 | 54.997283 | 8.107255 | 2.0 | 10.820 | 2 | 34.483 | 10.984 | 30.495 | 2 |
| 2025-05-05T18:47:00 | 54.997096 | 8.107006 | 2.0 | 10.821 | 2 | 34.484 | 10.986 | 30.494 | 2 |
| 2025-05-05T18:48:00 | 54.996929 | 8.106698 | 2.0 | 10.821 | 2 | 34.485 | 10.988 | 30.493 | 2 |
| 2025-05-05T18:49:00 | 54.996785 | 8.106336 | 2.0 | 10.821 | 2 | 34.485 | 10.987 | 30.494 | 2 |
| 2025-05-05T18:50:00 | 54.996738 | 8.105819 | 2.0 | 10.821 | 2 | 34.487 | 10.987 | 30.496 | 2 |
| 2025-05-05T18:51:00 | 54.996906 | 8.105331 | 2.0 | 10.824 | 2 | 34.490 | 10.988 | 30.498 | 2 |
| 2025-05-05T18:52:00 | 54.997186 | 8.104939 | 2.0 | 10.828 | 2 | 34.493 | 10.991 | 30.499 | 2 |
| 2025-05-05T18:53:00 | 54.997477 | 8.104563 | 2.0 | 10.817 | 2 | 34.498 | 10.992 | 30.503 | 2 |
| 2025-05-05T18:54:00 | 54.997768 | 8.104130 | 2.0 | 10.821 | 2 | 34.493 | 10.986 | 30.503 | 2 |
| 2025-05-05T18:55:00 | 54.998077 | 8.103685 | 2.0 | 10.819 | 2 | 34.498 | 10.988 | 30.506 | 2 |
| 2025-05-05T18:56:00 | 54.998382 | 8.103224 | 2.0 | 10.816 | 2 | 34.497 | 10.985 | 30.508 | 2 |
| 2025-05-05T18:57:00 | 54.998716 | 8.102831 | 2.0 | 10.793 | 2 | 34.499 | 10.978 | 30.516 | 2 |
| 2025-05-05T18:58:00 | 54.999070 | 8.102459 | 2.0 | 10.797 | 2 | 34.491 | 10.962 | 30.521 | 2 |
| 2025-05-05T18:59:00 | 54.999338 | 8.102011 | 2.0 | 10.801 | 2 | 34.500 | 10.965 | 30.527 | 2 |
| 2025-05-05T19:00:00 | 54.999542 | 8.101453 | 2.0 | 10.788 | 2 | 34.505 | 10.966 | 30.531 | 2 |
| 2025-05-05T19:01:00 | 54.999760 | 8.100849 | 2.0 | 10.791 | 2 | 34.507 | 10.954 | 30.543 | 2 |
| 2025-05-05T19:02:00 | 54.999998 | 8.100264 | 2.0 | 10.791 | 2 | 34.518 | 10.959 | 30.550 | 2 |
| 2025-05-05T19:03:00 | 55.000315 | 8.099507 | 2.0 | 10.766 | 2 | 34.517 | 10.954 | 30.553 | 2 |
| 2025-05-05T19:04:00 | 55.000803 | 8.098460 | 2.0 | 10.765 | 2 | 34.516 | 10.933 | 30.570 | 2 |
| 2025-05-05T19:05:00 | 55.001312 | 8.097380 | 2.0 | 10.767 | 2 | 34.529 | 10.934 | 30.582 | 2 |
| 2025-05-05T19:06:00 | 55.001778 | 8.096362 | 2.0 | 10.768 | 2 | 34.537 | 10.934 | 30.589 | 2 |
| 2025-05-05T19:07:00 | 55.002242 | 8.095287 | 2.0 | 10.763 | 2 | 34.547 | 10.936 | 30.598 | 2 |
| 2025-05-05T19:08:00 | 55.002749 | 8.094207 | 2.0 | 10.758 | 2 | 34.559 | 10.928 | 30.616 | 2 |
| 2025-05-05T19:09:00 | 55.003276 | 8.093081 | 2.0 | 10.754 | 2 | 34.568 | 10.928 | 30.625 | 2 |
| 2025-05-05T19:10:00 | 55.003799 | 8.091959 | 2.0 | 10.748 | 2 | 34.576 | 10.919 | 30.640 | 2 |
| 2025-05-05T19:11:00 | 55.004214 | 8.091012 | 2.0 | 10.744 | 2 | 34.585 | 10.915 | 30.652 | 2 |
| 2025-05-05T19:12:00 | 55.004627 | 8.090094 | 2.0 | 10.735 | 2 | 34.592 | 10.912 | 30.662 | 2 |
| 2025-05-05T19:13:00 | 55.004958 | 8.089351 | 2.0 | 10.726 | 2 | 34.597 | 10.901 | 30.676 | 2 |
| 2025-05-05T19:14:00 | 55.005171 | 8.088762 | 2.0 | 10.720 | 2 | 34.593 | 10.892 | 30.680 | 2 |
| 2025-05-05T19:15:00 | 55.005297 | 8.088285 | 2.0 | 10.724 | 2 | 34.603 | 10.891 | 30.690 | 2 |
| 2025-05-05T19:16:00 | 55.005301 | 8.087938 | 2.0 | 10.716 | 2 | 34.606 | 10.890 | 30.694 | 2 |
| 2025-05-05T19:17:00 | 55.005220 | 8.087672 | 2.0 | 10.719 | 2 | 34.602 | 10.885 | 30.694 | 2 |
| 2025-05-05T19:18:00 | 55.005121 | 8.087347 | 2.0 | 10.720 | 2 | 34.598 | 10.885 | 30.690 | 2 |
| 2025-05-05T19:19:00 | 55.005039 | 8.086982 | 2.0 | 10.722 | 2 | 34.603 | 10.887 | 30.694 | 2 |
| 2025-05-05T19:20:00 | 55.005000 | 8.086580 | 2.0 | 10.724 | 2 | 34.604 | 10.890 | 30.692 | 2 |
| 2025-05-05T19:21:00 | 55.005021 | 8.086165 | 2.0 | 10.728 | 2 | 34.604 | 10.893 | 30.690 | 2 |
| 2025-05-05T19:22:00 | 55.005190 | 8.085643 | 2.0 | 10.731 | 2 | 34.609 | 10.896 | 30.692 | 2 |
| 2025-05-05T19:23:00 | 55.005477 | 8.085007 | 2.0 | 10.717 | 2 | 34.617 | 10.894 | 30.702 | 2 |
| 2025-05-05T19:24:00 | 55.005824 | 8.084276 | 2.0 | 10.718 | 2 | 34.618 | 10.886 | 30.709 | 2 |
| 2025-05-05T19:25:00 | 55.006160 | 8.083560 | 2.0 | 10.710 | 2 | 34.629 | 10.883 | 30.723 | 2 |
| 2025-05-05T19:26:00 | 55.006485 | 8.082882 | 2.0 | 10.695 | 2 | 34.637 | 10.878 | 30.735 | 2 |
| 2025-05-05T19:27:00 | 55.006782 | 8.082172 | 2.0 | 10.678 | 2 | 34.639 | 10.859 | 30.753 | 2 |
| 2025-05-05T19:28:00 | 55.007185 | 8.081310 | 2.0 | 10.674 | 2 | 34.642 | 10.844 | 30.768 | 2 |
| 2025-05-05T19:29:00 | 55.007664 | 8.080342 | 2.0 | 10.645 | 2 | 34.640 | 10.836 | 30.773 | 2 |
| 2025-05-05T19:30:00 | 55.008159 | 8.079346 | 2.0 | 10.626 | 2 | 34.651 | 10.816 | 30.800 | 2 |
| 2025-05-05T19:31:00 | 55.008658 | 8.078375 | 2.0 | 10.596 | 2 | 34.651 | 10.789 | 30.823 | 2 |
| 2025-05-05T19:32:00 | 55.009125 | 8.077452 | 2.0 | 10.597 | 2 | 34.654 | 10.770 | 30.842 | 2 |
| 2025-05-05T19:33:00 | 55.009559 | 8.076590 | 2.0 | 10.566 | 2 | 34.655 | 10.761 | 30.851 | 2 |
| 2025-05-05T19:34:00 | 55.009987 | 8.075721 | 2.0 | 10.564 | 2 | 34.655 | 10.734 | 30.874 | 2 |
| 2025-05-05T19:35:00 | 55.010364 | 8.074920 | 2.0 | 10.541 | 2 | 34.669 | 10.730 | 30.891 | 2 |
| 2025-05-05T19:36:00 | 55.010629 | 8.074286 | 2.0 | 10.534 | 2 | 34.661 | 10.708 | 30.901 | 2 |
| 2025-05-05T19:37:00 | 55.010838 | 8.073741 | 2.0 | 10.548 | 2 | 34.666 | 10.707 | 30.907 | 2 |
| 2025-05-05T19:38:00 | 55.011017 | 8.073279 | 2.0 | 10.529 | 2 | 34.675 | 10.714 | 30.910 | 2 |
| 2025-05-05T19:39:00 | 55.011143 | 8.072860 | 2.0 | 10.514 | 2 | 34.661 | 10.693 | 30.914 | 2 |
| 2025-05-05T19:40:00 | 55.011216 | 8.072507 | 2.0 | 10.525 | 2 | 34.661 | 10.685 | 30.921 | 2 |
| 2025-05-05T19:41:00 | 55.011241 | 8.072227 | 2.0 | 10.527 | 2 | 34.670 | 10.694 | 30.922 | 2 |
| 2025-05-05T19:42:00 | 55.011226 | 8.071970 | 2.0 | 10.525 | 2 | 34.671 | 10.695 | 30.922 | 2 |
| 2025-05-05T19:43:00 | 55.011251 | 8.071635 | 2.0 | 10.526 | 2 | 34.670 | 10.694 | 30.922 | 2 |
| 2025-05-05T19:44:00 | 55.011312 | 8.071245 | 2.0 | 10.527 | 2 | 34.672 | 10.696 | 30.922 | 2 |
| 2025-05-05T19:45:00 | 55.011404 | 8.070795 | 2.0 | 10.532 | 2 | 34.673 | 10.696 | 30.923 | 2 |
| 2025-05-05T19:46:00 | 55.011536 | 8.070248 | 2.0 | 10.526 | 2 | 34.675 | 10.697 | 30.925 | 2 |
| 2025-05-05T19:47:00 | 55.011733 | 8.069684 | 2.0 | 10.519 | 2 | 34.677 | 10.694 | 30.929 | 2 |
| 2025-05-05T19:48:00 | 55.012052 | 8.068970 | 2.0 | 10.516 | 2 | 34.675 | 10.683 | 30.936 | 2 |
| 2025-05-05T19:49:00 | 55.012549 | 8.067981 | 2.0 | 10.505 | 2 | 34.680 | 10.681 | 30.943 | 2 |
| 2025-05-05T19:50:00 | 55.013132 | 8.066876 | 2.0 | 10.491 | 2 | 34.680 | 10.670 | 30.952 | 2 |
| 2025-05-05T19:51:00 | 55.013671 | 8.065858 | 2.0 | 10.482 | 2 | 34.683 | 10.662 | 30.962 | 2 |
| 2025-05-05T19:52:00 | 55.014167 | 8.064911 | 2.0 | 10.474 | 2 | 34.682 | 10.648 | 30.973 | 2 |
| 2025-05-05T19:53:00 | 55.014688 | 8.063943 | 2.0 | 10.463 | 2 | 34.684 | 10.640 | 30.982 | 2 |
| 2025-05-05T19:54:00 | 55.015204 | 8.062976 | 2.0 | 10.447 | 2 | 34.679 | 10.629 | 30.986 | 2 |
| 2025-05-05T19:55:00 | 55.015724 | 8.062000 | 2.0 | 10.453 | 2 | 34.620 | 10.617 | 30.938 | 2 |
| 2025-05-05T19:56:00 | 55.016257 | 8.061019 | 2.0 | 10.477 | 2 | 34.682 | 10.628 | 30.990 | 2 |
| 2025-05-05T19:57:00 | 55.016769 | 8.060070 | 2.0 | 10.489 | 2 | 34.685 | 10.649 | 30.975 | 2 |
| 2025-05-05T19:58:00 | 55.017127 | 8.059325 | 2.0 | 10.491 | 2 | 34.692 | 10.659 | 30.974 | 2 |
| 2025-05-05T19:59:00 | 55.017381 | 8.058708 | 2.0 | 10.494 | 2 | 34.691 | 10.659 | 30.973 | 2 |
| 2025-05-05T20:00:00 | 55.017697 | 8.058647 | 2.0 | 10.487 | 2 | 34.683 | 10.659 | 30.965 | 2 |
| 2025-05-05T20:01:00 | 55.017595 | 8.059447 | 2.0 | 10.485 | 2 | 34.693 | 10.655 | 30.978 | 2 |
| 2025-05-05T20:02:00 | 55.017002 | 8.061160 | 2.0 | 10.457 | 2 | 34.691 | 10.649 | 30.981 | 2 |
| 2025-05-05T20:03:00 | 55.016162 | 8.063557 | 2.0 | 10.453 | 2 | 34.684 | 10.626 | 30.994 | 2 |
| 2025-05-05T20:04:00 | 55.015191 | 8.066320 | 2.0 | 10.491 | 2 | 34.677 | 10.632 | 30.982 | 2 |
| 2025-05-05T20:05:00 | 55.014163 | 8.069256 | 2.0 | 10.517 | 2 | 34.674 | 10.663 | 30.952 | 2 |
| 2025-05-05T20:06:00 | 55.013107 | 8.072275 | 2.0 | 10.578 | 2 | 34.669 | 10.695 | 30.920 | 2 |
| 2025-05-05T20:07:00 | 55.012036 | 8.075347 | 2.0 | 10.634 | 2 | 34.663 | 10.754 | 30.865 | 2 |
| 2025-05-05T20:08:00 | 55.010954 | 8.078411 | 2.0 | 10.697 | 2 | 34.643 | 10.814 | 30.794 | 2 |
| 2025-05-05T20:09:00 | 55.009872 | 8.081463 | 2.0 | 10.734 | 2 | 34.621 | 10.868 | 30.727 | 2 |
| 2025-05-05T20:10:00 | 55.008791 | 8.084525 | 2.0 | 10.758 | 2 | 34.599 | 10.904 | 30.675 | 2 |
| 2025-05-05T20:11:00 | 55.007699 | 8.087585 | 2.0 | 10.763 | 2 | 34.575 | 10.924 | 30.635 | 2 |
| 2025-05-05T20:12:00 | 55.006602 | 8.090646 | 2.0 | 10.765 | 2 | 34.545 | 10.929 | 30.601 | 2 |
| 2025-05-05T20:13:00 | 55.005418 | 8.093469 | 2.0 | 10.799 | 2 | 34.516 | 10.937 | 30.566 | 2 |
| 2025-05-05T20:14:00 | 55.004291 | 8.096139 | 2.0 | 10.813 | 2 | 34.492 | 10.968 | 30.517 | 2 |
| 2025-05-05T20:15:00 | 55.003191 | 8.098759 | 2.0 | 10.824 | 2 | 34.479 | 10.981 | 30.493 | 2 |
| 2025-05-05T20:16:00 | 55.001975 | 8.101073 | 2.0 | 10.871 | 2 | 34.458 | 10.996 | 30.460 | 2 |
| 2025-05-05T20:17:00 | 55.000675 | 8.103033 | 2.0 | 10.902 | 2 | 34.455 | 11.040 | 30.421 | 2 |
| 2025-05-05T20:18:00 | 54.999378 | 8.104919 | 2.0 | 10.948 | 2 | 34.464 | 11.076 | 30.400 | 2 |
| 2025-05-05T20:19:00 | 54.998128 | 8.106517 | 2.0 | 10.970 | 2 | 34.473 | 11.118 | 30.374 | 2 |
| 2025-05-05T20:20:00 | 54.997601 | 8.106051 | 2.0 | 10.974 | 2 | 34.482 | 11.134 | 30.370 | 2 |
| 2025-05-05T20:21:00 | 54.997477 | 8.105536 | 2.0 | 10.977 | 2 | 34.478 | 11.138 | 30.363 | 2 |
| 2025-05-05T20:22:00 | 54.997459 | 8.104980 | 2.0 | 10.986 | 2 | 34.478 | 11.143 | 30.358 | 2 |
| 2025-05-05T20:23:00 | 54.997479 | 8.104394 | 2.0 | 10.988 | 2 | 34.485 | 11.151 | 30.359 | 2 |
| 2025-05-05T20:24:00 | 54.997582 | 8.103792 | 2.0 | 10.976 | 2 | 34.479 | 11.147 | 30.356 | 2 |
| 2025-05-05T20:25:00 | 54.997739 | 8.103292 | 2.0 | 10.985 | 2 | 34.478 | 11.143 | 30.358 | 2 |
| 2025-05-05T20:26:00 | 54.997909 | 8.102915 | 2.0 | 10.980 | 2 | 34.483 | 11.149 | 30.358 | 2 |
| 2025-05-05T20:27:00 | 54.998056 | 8.102628 | 2.0 | 10.970 | 2 | 34.479 | 11.143 | 30.359 | 2 |
| 2025-05-05T20:28:00 | 54.998190 | 8.102384 | 2.0 | 10.972 | 2 | 34.473 | 11.134 | 30.361 | 2 |
| 2025-05-05T20:29:00 | 54.998309 | 8.102165 | 2.0 | 10.981 | 2 | 34.478 | 11.137 | 30.363 | 2 |
| 2025-05-05T20:30:00 | 54.998447 | 8.101937 | 2.0 | 10.980 | 2 | 34.487 | 11.145 | 30.366 | 2 |
| 2025-05-05T20:31:00 | 54.998672 | 8.101529 | 2.0 | 10.976 | 2 | 34.483 | 11.143 | 30.363 | 2 |
| 2025-05-05T20:32:00 | 54.998957 | 8.100852 | 2.0 | 10.963 | 2 | 34.482 | 11.140 | 30.365 | 2 |
| 2025-05-05T20:33:00 | 54.999429 | 8.099922 | 2.0 | 10.958 | 2 | 34.478 | 11.127 | 30.372 | 2 |
| 2025-05-05T20:34:00 | 54.999991 | 8.098880 | 2.0 | 10.951 | 2 | 34.478 | 11.123 | 30.375 | 2 |
| 2025-05-05T20:35:00 | 55.000549 | 8.097814 | 2.0 | 10.929 | 2 | 34.477 | 11.113 | 30.382 | 2 |
| 2025-05-05T20:36:00 | 55.001046 | 8.096846 | 2.0 | 10.911 | 2 | 34.470 | 11.091 | 30.394 | 2 |
| 2025-05-05T20:37:00 | 55.001521 | 8.095914 | 2.0 | 10.893 | 2 | 34.473 | 11.081 | 30.405 | 2 |
| 2025-05-05T20:38:00 | 55.002066 | 8.094925 | 2.0 | 10.894 | 2 | 34.469 | 11.063 | 30.416 | 2 |
| 2025-05-05T20:39:00 | 55.002615 | 8.093920 | 2.0 | 10.873 | 2 | 34.468 | 11.059 | 30.418 | 2 |
| 2025-05-05T20:40:00 | 55.003147 | 8.092951 | 2.0 | 10.834 | 2 | 34.457 | 11.031 | 30.430 | 2 |
| 2025-05-05T20:41:00 | 55.003670 | 8.092021 | 2.0 | 10.847 | 2 | 34.467 | 11.006 | 30.461 | 2 |
| 2025-05-05T20:42:00 | 55.004104 | 8.091252 | 2.0 | 10.841 | 2 | 34.484 | 11.014 | 30.471 | 2 |
| 2025-05-05T20:43:00 | 55.004408 | 8.090649 | 2.0 | 10.841 | 2 | 34.481 | 11.007 | 30.474 | 2 |
| 2025-05-05T20:44:00 | 55.004622 | 8.090148 | 2.0 | 10.838 | 2 | 34.483 | 11.007 | 30.476 | 2 |
| 2025-05-05T20:45:00 | 55.004770 | 8.089707 | 2.0 | 10.832 | 2 | 34.483 | 11.006 | 30.477 | 2 |
| 2025-05-05T20:46:00 | 55.004857 | 8.089300 | 2.0 | 10.836 | 2 | 34.480 | 10.999 | 30.479 | 2 |
| 2025-05-05T20:47:00 | 55.004910 | 8.088965 | 2.0 | 10.838 | 2 | 34.485 | 11.003 | 30.481 | 2 |
| 2025-05-05T20:48:00 | 55.004983 | 8.088665 | 2.0 | 10.840 | 2 | 34.487 | 11.004 | 30.482 | 2 |
| 2025-05-05T20:49:00 | 55.005127 | 8.088327 | 2.0 | 10.843 | 2 | 34.488 | 11.006 | 30.481 | 2 |
| 2025-05-05T20:50:00 | 55.005432 | 8.087813 | 2.0 | 10.844 | 2 | 34.490 | 11.008 | 30.482 | 2 |
| 2025-05-05T20:51:00 | 55.005853 | 8.087015 | 2.0 | 10.837 | 2 | 34.494 | 11.009 | 30.485 | 2 |
| 2025-05-05T20:52:00 | 55.006361 | 8.086045 | 2.0 | 10.836 | 2 | 34.500 | 11.004 | 30.495 | 2 |
| 2025-05-05T20:53:00 | 55.006869 | 8.085050 | 2.0 | 10.827 | 2 | 34.508 | 11.001 | 30.505 | 2 |
| 2025-05-05T20:54:00 | 55.007328 | 8.084121 | 2.0 | 10.812 | 2 | 34.512 | 10.989 | 30.519 | 2 |
| 2025-05-05T20:55:00 | 55.007782 | 8.083234 | 2.0 | 10.815 | 2 | 34.520 | 10.983 | 30.532 | 2 |
| 2025-05-05T20:56:00 | 55.008251 | 8.082299 | 2.0 | 10.813 | 2 | 34.527 | 10.983 | 30.539 | 2 |
| 2025-05-05T20:57:00 | 55.008673 | 8.081468 | 2.0 | 10.807 | 2 | 34.533 | 10.978 | 30.549 | 2 |
| 2025-05-05T20:58:00 | 55.008988 | 8.080833 | 2.0 | 10.819 | 2 | 34.538 | 10.978 | 30.554 | 2 |
| 2025-05-05T20:59:00 | 55.009242 | 8.080301 | 2.0 | 10.806 | 2 | 34.545 | 10.983 | 30.557 | 2 |
| 2025-05-05T21:00:00 | 55.009444 | 8.079872 | 2.0 | 10.808 | 2 | 34.540 | 10.973 | 30.560 | 2 |
| 2025-05-05T21:01:00 | 55.009597 | 8.079538 | 2.0 | 10.812 | 2 | 34.547 | 10.975 | 30.565 | 2 |
| 2025-05-05T21:02:00 | 55.009703 | 8.079301 | 2.0 | 10.807 | 2 | 34.551 | 10.978 | 30.567 | 2 |
| 2025-05-05T21:03:00 | 55.009756 | 8.079088 | 2.0 | 10.808 | 2 | 34.549 | 10.975 | 30.567 | 2 |
| 2025-05-05T21:04:00 | 55.009731 | 8.078866 | 2.0 | 10.806 | 2 | 34.549 | 10.975 | 30.567 | 2 |
| 2025-05-05T21:05:00 | 55.009658 | 8.078693 | 2.0 | 10.804 | 2 | 34.547 | 10.972 | 30.568 | 2 |
| 2025-05-05T21:06:00 | 55.009624 | 8.078466 | 2.0 | 10.805 | 2 | 34.545 | 10.970 | 30.567 | 2 |
| 2025-05-05T21:07:00 | 55.009846 | 8.077964 | 2.0 | 10.811 | 2 | 34.546 | 10.972 | 30.567 | 2 |
| 2025-05-05T21:08:00 | 55.010170 | 8.077319 | 2.0 | 10.802 | 2 | 34.553 | 10.976 | 30.570 | 2 |
| 2025-05-05T21:09:00 | 55.010653 | 8.076379 | 2.0 | 10.795 | 2 | 34.556 | 10.968 | 30.580 | 2 |
| 2025-05-05T21:10:00 | 55.011223 | 8.075309 | 2.0 | 10.784 | 2 | 34.561 | 10.962 | 30.590 | 2 |
| 2025-05-05T21:11:00 | 55.011759 | 8.074269 | 2.0 | 10.782 | 2 | 34.563 | 10.952 | 30.600 | 2 |
| 2025-05-05T21:12:00 | 55.012307 | 8.073154 | 2.0 | 10.776 | 2 | 34.571 | 10.946 | 30.613 | 2 |
| 2025-05-05T21:13:00 | 55.012884 | 8.072011 | 2.0 | 10.764 | 2 | 34.581 | 10.941 | 30.627 | 2 |
| 2025-05-05T21:14:00 | 55.013421 | 8.070926 | 2.0 | 10.759 | 2 | 34.586 | 10.931 | 30.640 | 2 |
| 2025-05-05T21:15:00 | 55.013885 | 8.069977 | 2.0 | 10.755 | 2 | 34.593 | 10.924 | 30.653 | 2 |
| 2025-05-05T21:16:00 | 55.014333 | 8.069039 | 2.0 | 10.745 | 2 | 34.601 | 10.920 | 30.664 | 2 |
| 2025-05-05T21:17:00 | 55.014777 | 8.068071 | 2.0 | 10.737 | 2 | 34.605 | 10.911 | 30.676 | 2 |
| 2025-05-05T21:18:00 | 55.015213 | 8.067106 | 2.0 | 10.732 | 2 | 34.613 | 10.904 | 30.689 | 2 |
| 2025-05-05T21:19:00 | 55.015547 | 8.066344 | 2.0 | 10.725 | 2 | 34.624 | 10.899 | 30.704 | 2 |
| 2025-05-05T21:20:00 | 55.015763 | 8.065750 | 2.0 | 10.718 | 2 | 34.630 | 10.892 | 30.716 | 2 |
| 2025-05-05T21:21:00 | 55.015897 | 8.065299 | 2.0 | 10.716 | 2 | 34.633 | 10.885 | 30.725 | 2 |
| 2025-05-05T21:22:00 | 55.015999 | 8.065002 | 2.0 | 10.721 | 2 | 34.638 | 10.885 | 30.730 | 2 |
| 2025-05-05T21:23:00 | 55.016015 | 8.064821 | 2.0 | 10.721 | 2 | 34.641 | 10.888 | 30.730 | 2 |
| 2025-05-05T21:24:00 | 55.016001 | 8.064619 | 2.0 | 10.717 | 2 | 34.635 | 10.886 | 30.726 | 2 |
| 2025-05-05T21:25:00 | 55.015664 | 8.064286 | 2.0 | 10.724 | 2 | 34.636 | 10.884 | 30.729 | 2 |
| 2025-05-05T21:26:00 | 55.014735 | 8.064186 | 2.0 | 10.738 | 2 | 34.632 | 10.894 | 30.716 | 2 |
| 2025-05-05T21:27:00 | 55.013478 | 8.064105 | 2.0 | 10.756 | 2 | 34.627 | 10.908 | 30.700 | 2 |
| 2025-05-05T21:28:00 | 55.012032 | 8.064031 | 2.0 | 10.775 | 2 | 34.626 | 10.926 | 30.684 | 2 |
| 2025-05-05T21:29:00 | 55.010497 | 8.063943 | 2.0 | 10.787 | 2 | 34.633 | 10.944 | 30.675 | 2 |
| 2025-05-05T21:30:00 | 55.008916 | 8.063850 | 2.0 | 10.800 | 2 | 34.631 | 10.955 | 30.664 | 2 |
| 2025-05-05T21:31:00 | 55.007331 | 8.063754 | 2.0 | 10.812 | 2 | 34.628 | 10.970 | 30.649 | 2 |
| 2025-05-05T21:32:00 | 55.005722 | 8.063637 | 2.0 | 10.813 | 2 | 34.622 | 10.980 | 30.635 | 2 |
| 2025-05-05T21:33:00 | 55.004111 | 8.063544 | 2.0 | 10.810 | 2 | 34.613 | 10.981 | 30.625 | 2 |
| 2025-05-05T21:34:00 | 55.002489 | 8.063426 | 2.0 | 10.815 | 2 | 34.612 | 10.977 | 30.627 | 2 |
| 2025-05-05T21:35:00 | 55.000865 | 8.063320 | 2.0 | 10.825 | 2 | 34.607 | 10.982 | 30.618 | 2 |
| 2025-05-05T21:36:00 | 54.999240 | 8.063211 | 2.0 | 10.845 | 2 | 34.621 | 10.996 | 30.620 | 2 |
| 2025-05-05T21:37:00 | 54.997620 | 8.063113 | 2.0 | 10.852 | 2 | 34.620 | 11.014 | 30.604 | 2 |
| 2025-05-05T21:38:00 | 54.996003 | 8.062989 | 2.0 | 10.843 | 2 | 34.611 | 11.017 | 30.593 | 2 |
| 2025-05-05T21:39:00 | 54.994369 | 8.062868 | 2.0 | 10.820 | 2 | 34.604 | 11.006 | 30.595 | 2 |
| 2025-05-05T21:40:00 | 54.992730 | 8.062772 | 2.0 | 10.801 | 2 | 34.595 | 10.985 | 30.604 | 2 |
| 2025-05-05T21:41:00 | 54.991071 | 8.062656 | 2.0 | 10.793 | 2 | 34.602 | 10.968 | 30.625 | 2 |
| 2025-05-05T21:42:00 | 54.989394 | 8.062528 | 2.0 | 10.789 | 2 | 34.610 | 10.962 | 30.638 | 2 |
| 2025-05-05T21:43:00 | 54.987781 | 8.062413 | 2.0 | 10.785 | 2 | 34.611 | 10.956 | 30.644 | 2 |
| 2025-05-05T21:44:00 | 54.986325 | 8.062311 | 2.0 | 10.796 | 2 | 34.616 | 10.954 | 30.650 | 2 |
| 2025-05-05T21:45:00 | 54.984986 | 8.062220 | 2.0 | 10.811 | 2 | 34.613 | 10.966 | 30.637 | 2 |
| 2025-05-05T21:46:00 | 54.983713 | 8.062130 | 2.0 | 10.821 | 2 | 34.615 | 10.980 | 30.628 | 2 |
| 2025-05-05T21:47:00 | 54.982475 | 8.062042 | 2.0 | 10.825 | 2 | 34.619 | 10.989 | 30.624 | 2 |
| 2025-05-05T21:48:00 | 54.981264 | 8.061961 | 2.0 | 10.822 | 2 | 34.625 | 10.992 | 30.628 | 2 |
| 2025-05-05T21:49:00 | 54.980074 | 8.061882 | 2.0 | 10.817 | 2 | 34.633 | 10.989 | 30.638 | 2 |
| 2025-05-05T21:50:00 | 54.978814 | 8.061764 | 2.0 | 10.808 | 2 | 34.636 | 10.984 | 30.645 | 2 |
| 2025-05-05T21:51:00 | 54.977416 | 8.061507 | 2.0 | 10.793 | 2 | 34.637 | 10.972 | 30.656 | 2 |
| 2025-05-05T21:52:00 | 54.975893 | 8.061136 | 2.0 | 10.777 | 2 | 34.637 | 10.958 | 30.668 | 2 |
| 2025-05-05T21:53:00 | 54.974256 | 8.060295 | 2.0 | 10.780 | 2 | 34.628 | 10.946 | 30.669 | 2 |
| 2025-05-05T21:54:00 | 54.972563 | 8.059253 | 2.0 | 10.792 | 2 | 34.630 | 10.950 | 30.667 | 2 |
| 2025-05-05T21:55:00 | 54.970833 | 8.058239 | 2.0 | 10.810 | 2 | 34.625 | 10.961 | 30.653 | 2 |
| 2025-05-05T21:56:00 | 54.969074 | 8.057203 | 2.0 | 10.837 | 2 | 34.623 | 10.981 | 30.635 | 2 |
| 2025-05-05T21:57:00 | 54.967290 | 8.056135 | 2.0 | 10.866 | 2 | 34.614 | 11.007 | 30.604 | 2 |
| 2025-05-05T21:58:00 | 54.965517 | 8.055073 | 2.0 | 10.877 | 2 | 34.600 | 11.032 | 30.570 | 2 |
| 2025-05-05T21:59:00 | 54.963776 | 8.053949 | 2.0 | 10.896 | 2 | 34.595 | 11.045 | 30.554 | 2 |
| 2025-05-05T22:00:00 | 54.962030 | 8.052909 | 2.0 | 10.927 | 2 | 34.591 | 11.065 | 30.533 | 2 |
| 2025-05-05T22:01:00 | 54.960271 | 8.051823 | 2.0 | 10.959 | 2 | 34.592 | 11.096 | 30.509 | 2 |
| 2025-05-05T22:02:00 | 54.958495 | 8.050839 | 2.0 | 10.980 | 2 | 34.592 | 11.125 | 30.485 | 2 |
| 2025-05-05T22:03:00 | 54.956717 | 8.049809 | 2.0 | 11.010 | 2 | 34.593 | 11.150 | 30.465 | 2 |
| 2025-05-05T22:04:00 | 54.954933 | 8.048716 | 2.0 | 11.032 | 2 | 34.600 | 11.178 | 30.449 | 2 |
| 2025-05-05T22:05:00 | 54.953142 | 8.047615 | 2.0 | 11.049 | 2 | 34.604 | 11.199 | 30.435 | 2 |
| 2025-05-05T22:06:00 | 54.951341 | 8.046560 | 2.0 | 11.072 | 2 | 34.608 | 11.217 | 30.424 | 2 |
| 2025-05-05T22:07:00 | 54.949532 | 8.045507 | 2.0 | 11.087 | 2 | 34.617 | 11.238 | 30.416 | 2 |
| 2025-05-05T22:08:00 | 54.947731 | 8.044391 | 2.0 | 11.100 | 2 | 34.624 | 11.252 | 30.411 | 2 |
| 2025-05-05T22:09:00 | 54.945928 | 8.043252 | 2.0 | 11.107 | 2 | 34.633 | 11.264 | 30.410 | 2 |
| 2025-05-05T22:10:00 | 54.944117 | 8.042160 | 2.0 | 11.107 | 2 | 34.647 | 11.272 | 30.417 | 2 |
| 2025-05-05T22:11:00 | 54.942303 | 8.041015 | 2.0 | 11.107 | 2 | 34.661 | 11.271 | 30.431 | 2 |
| 2025-05-05T22:12:00 | 54.940477 | 8.039964 | 2.0 | 11.103 | 2 | 34.678 | 11.271 | 30.448 | 2 |
| 2025-05-05T22:13:00 | 54.938658 | 8.038928 | 2.0 | 11.101 | 2 | 34.690 | 11.269 | 30.461 | 2 |
| 2025-05-05T22:14:00 | 54.936839 | 8.037833 | 2.0 | 11.095 | 2 | 34.697 | 11.265 | 30.471 | 2 |
| 2025-05-05T22:15:00 | 54.935016 | 8.036740 | 2.0 | 11.087 | 2 | 34.702 | 11.258 | 30.482 | 2 |
| 2025-05-05T22:16:00 | 54.933177 | 8.035707 | 2.0 | 11.076 | 2 | 34.712 | 11.250 | 30.498 | 2 |
| 2025-05-05T22:17:00 | 54.931376 | 8.034584 | 2.0 | 11.050 | 2 | 34.715 | 11.237 | 30.512 | 2 |
| 2025-05-05T22:18:00 | 54.929580 | 8.033444 | 2.0 | 11.018 | 2 | 34.720 | 11.210 | 30.539 | 2 |
| 2025-05-05T22:19:00 | 54.927781 | 8.032388 | 2.0 | 11.001 | 2 | 34.733 | 11.184 | 30.574 | 2 |
| 2025-05-05T22:20:00 | 54.925971 | 8.031312 | 2.0 | 10.978 | 2 | 34.737 | 11.165 | 30.593 | 2 |
| 2025-05-05T22:21:00 | 54.924114 | 8.030301 | 2.0 | 10.913 | 2 | 34.736 | 11.137 | 30.616 | 2 |
| 2025-05-05T22:22:00 | 54.922264 | 8.029182 | 2.0 | 10.852 | 2 | 34.747 | 11.074 | 30.679 | 2 |
| 2025-05-05T22:23:00 | 54.920412 | 8.028018 | 2.0 | 10.862 | 2 | 34.777 | 11.026 | 30.748 | 2 |
| 2025-05-05T22:24:00 | 54.918568 | 8.026873 | 2.0 | 10.873 | 2 | 34.799 | 11.032 | 30.765 | 2 |
| 2025-05-05T22:25:00 | 54.916717 | 8.025731 | 2.0 | 10.882 | 2 | 34.814 | 11.042 | 30.771 | 2 |
| 2025-05-05T22:26:00 | 54.914842 | 8.024731 | 2.0 | 10.893 | 2 | 34.822 | 11.050 | 30.772 | 2 |
| 2025-05-05T22:27:00 | 54.912982 | 8.023619 | 2.0 | 10.910 | 2 | 34.827 | 11.063 | 30.766 | 2 |
| 2025-05-05T22:28:00 | 54.911141 | 8.022432 | 2.0 | 10.925 | 2 | 34.832 | 11.077 | 30.760 | 2 |
| 2025-05-05T22:29:00 | 54.909285 | 8.021309 | 2.0 | 10.934 | 2 | 34.842 | 11.091 | 30.758 | 2 |
| 2025-05-05T22:30:00 | 54.907414 | 8.020281 | 2.0 | 10.944 | 2 | 34.856 | 11.102 | 30.762 | 2 |
| 2025-05-05T22:31:00 | 54.905557 | 8.019194 | 2.0 | 10.955 | 2 | 34.878 | 11.112 | 30.775 | 2 |
| 2025-05-05T22:32:00 | 54.903713 | 8.018070 | 2.0 | 10.968 | 2 | 34.902 | 11.122 | 30.790 | 2 |
| 2025-05-05T22:33:00 | 54.901898 | 8.016938 | 2.0 | 10.977 | 2 | 34.920 | 11.134 | 30.798 | 2 |
| 2025-05-05T22:34:00 | 54.900090 | 8.015789 | 2.0 | 10.976 | 2 | 34.928 | 11.141 | 30.800 | 2 |
| 2025-05-05T22:35:00 | 54.898252 | 8.014737 | 2.0 | 10.976 | 2 | 34.938 | 11.142 | 30.809 | 2 |
| 2025-05-05T22:36:00 | 54.896418 | 8.013727 | 2.0 | 10.950 | 2 | 34.939 | 11.138 | 30.813 | 2 |
| 2025-05-05T22:37:00 | 54.894589 | 8.012594 | 2.0 | 10.931 | 2 | 34.952 | 11.111 | 30.849 | 2 |
| 2025-05-05T22:38:00 | 54.892743 | 8.011474 | 2.0 | 10.906 | 2 | 34.954 | 11.094 | 30.865 | 2 |
| 2025-05-05T22:39:00 | 54.890880 | 8.010368 | 2.0 | 10.913 | 2 | 34.969 | 11.075 | 30.896 | 2 |
| 2025-05-05T22:40:00 | 54.889000 | 8.009233 | 2.0 | 10.841 | 2 | 34.979 | 11.057 | 30.920 | 2 |
| 2025-05-05T22:41:00 | 54.887107 | 8.008179 | 2.0 | 10.823 | 2 | 35.035 | 11.010 | 31.015 | 2 |
| 2025-05-05T22:42:00 | 54.885216 | 8.007105 | 2.0 | 10.818 | 2 | 35.046 | 10.991 | 31.042 | 2 |
| 2025-05-05T22:43:00 | 54.883358 | 8.005949 | 2.0 | 10.795 | 2 | 35.070 | 10.981 | 31.074 | 2 |
| 2025-05-05T22:44:00 | 54.881502 | 8.004809 | 2.0 | 10.786 | 2 | 35.097 | 10.963 | 31.116 | 2 |
| 2025-05-05T22:45:00 | 54.879625 | 8.003736 | 2.0 | 10.767 | 2 | 35.104 | 10.952 | 31.132 | 2 |
| 2025-05-05T22:46:00 | 54.877776 | 8.002660 | 2.0 | 10.731 | 2 | 35.101 | 10.931 | 31.147 | 2 |
| 2025-05-05T22:47:00 | 54.875953 | 8.001503 | 2.0 | 10.692 | 2 | 35.094 | 10.894 | 31.171 | 2 |
| 2025-05-05T22:48:00 | 54.874122 | 8.000393 | 2.0 | 10.652 | 2 | 35.076 | 10.857 | 31.185 | 2 |
| 2025-05-05T22:49:00 | 54.872288 | 7.999330 | 2.0 | 10.643 | 2 | 35.073 | 10.820 | 31.214 | 2 |
| 2025-05-05T22:50:00 | 54.870442 | 7.998227 | 2.0 | 10.640 | 2 | 35.072 | 10.814 | 31.218 | 2 |
| 2025-05-05T22:51:00 | 54.868599 | 7.997108 | 2.0 | 10.621 | 2 | 35.057 | 10.805 | 31.211 | 2 |
| 2025-05-05T22:52:00 | 54.866735 | 7.996043 | 2.0 | 10.639 | 2 | 35.016 | 10.794 | 31.179 | 2 |
| 2025-05-05T22:53:00 | 54.864875 | 7.995013 | 2.0 | 10.665 | 2 | 34.999 | 10.811 | 31.148 | 2 |
| 2025-05-05T22:54:00 | 54.863038 | 7.993877 | 2.0 | 10.678 | 2 | 35.000 | 10.832 | 31.131 | 2 |
| 2025-05-05T22:55:00 | 54.861189 | 7.992774 | 2.0 | 10.685 | 2 | 34.998 | 10.846 | 31.117 | 2 |
| 2025-05-05T22:56:00 | 54.859346 | 7.991657 | 2.0 | 10.713 | 2 | 34.995 | 10.856 | 31.106 | 2 |
| 2025-05-05T22:57:00 | 54.857492 | 7.990534 | 2.0 | 10.734 | 2 | 34.999 | 10.881 | 31.089 | 2 |
| 2025-05-05T22:58:00 | 54.855637 | 7.989421 | 2.0 | 10.765 | 2 | 35.007 | 10.906 | 31.075 | 2 |
| 2025-05-05T22:59:00 | 54.853752 | 7.988335 | 2.0 | 10.776 | 2 | 35.013 | 10.932 | 31.059 | 2 |
| 2025-05-05T23:00:00 | 54.851882 | 7.987145 | 2.0 | 10.786 | 2 | 35.018 | 10.944 | 31.054 | 2 |
| 2025-05-05T23:01:00 | 54.849975 | 7.986061 | 2.0 | 10.796 | 2 | 35.019 | 10.954 | 31.047 | 2 |
| 2025-05-05T23:02:00 | 54.848045 | 7.984981 | 2.0 | 10.805 | 2 | 35.017 | 10.963 | 31.037 | 2 |
| 2025-05-05T23:03:00 | 54.846131 | 7.983789 | 2.0 | 10.813 | 2 | 35.013 | 10.971 | 31.026 | 2 |
| 2025-05-05T23:04:00 | 54.844227 | 7.982598 | 2.0 | 10.816 | 2 | 35.011 | 10.980 | 31.017 | 2 |
| 2025-05-05T23:05:00 | 54.842312 | 7.981477 | 2.0 | 10.819 | 2 | 35.008 | 10.982 | 31.012 | 2 |
| 2025-05-05T23:06:00 | 54.840395 | 7.980362 | 2.0 | 10.819 | 2 | 35.009 | 10.985 | 31.011 | 2 |
| 2025-05-05T23:07:00 | 54.838500 | 7.979233 | 2.0 | 10.820 | 2 | 35.012 | 10.986 | 31.013 | 2 |
| 2025-05-05T23:08:00 | 54.836596 | 7.978104 | 2.0 | 10.810 | 2 | 35.013 | 10.983 | 31.016 | 2 |
| 2025-05-05T23:09:00 | 54.834670 | 7.976944 | 2.0 | 10.802 | 2 | 35.016 | 10.976 | 31.025 | 2 |
| 2025-05-05T23:10:00 | 54.832738 | 7.975819 | 2.0 | 10.810 | 2 | 35.018 | 10.970 | 31.032 | 2 |
| 2025-05-05T23:11:00 | 54.830792 | 7.974693 | 2.0 | 10.820 | 2 | 35.016 | 10.977 | 31.024 | 2 |
| 2025-05-05T23:12:00 | 54.828870 | 7.973524 | 2.0 | 10.834 | 2 | 35.018 | 10.988 | 31.017 | 2 |
| 2025-05-05T23:13:00 | 54.826956 | 7.972309 | 2.0 | 10.827 | 2 | 35.020 | 10.998 | 31.010 | 2 |
| 2025-05-05T23:14:00 | 54.825033 | 7.971166 | 2.0 | 10.793 | 2 | 35.009 | 10.989 | 31.007 | 2 |
| 2025-05-05T23:15:00 | 54.823089 | 7.970083 | 2.0 | 10.748 | 2 | 34.989 | 10.948 | 31.022 | 2 |
| 2025-05-05T23:16:00 | 54.821132 | 7.968947 | 2.0 | 10.717 | 2 | 34.982 | 10.913 | 31.045 | 2 |
| 2025-05-05T23:17:00 | 54.819150 | 7.967831 | 2.0 | 10.692 | 2 | 34.978 | 10.882 | 31.067 | 2 |
| 2025-05-05T23:18:00 | 54.817176 | 7.966711 | 2.0 | 10.686 | 2 | 34.979 | 10.859 | 31.088 | 2 |
| 2025-05-05T23:19:00 | 54.815235 | 7.965540 | 2.0 | 10.680 | 2 | 34.981 | 10.853 | 31.095 | 2 |
| 2025-05-05T23:20:00 | 54.813322 | 7.964319 | 2.0 | 10.692 | 2 | 34.980 | 10.850 | 31.096 | 2 |
| 2025-05-05T23:21:00 | 54.811408 | 7.963170 | 2.0 | 10.718 | 2 | 34.986 | 10.864 | 31.090 | 2 |
| 2025-05-05T23:22:00 | 54.809482 | 7.962002 | 2.0 | 10.758 | 2 | 34.999 | 10.891 | 31.080 | 2 |
| 2025-05-05T23:23:00 | 54.807549 | 7.960839 | 2.0 | 10.793 | 2 | 35.024 | 10.928 | 31.074 | 2 |
| 2025-05-05T23:24:00 | 54.805603 | 7.959716 | 2.0 | 10.815 | 2 | 35.047 | 10.960 | 31.069 | 2 |
| 2025-05-05T23:25:00 | 54.803663 | 7.958602 | 2.0 | 10.837 | 2 | 35.066 | 10.985 | 31.067 | 2 |
| 2025-05-05T23:26:00 | 54.801750 | 7.957445 | 2.0 | 10.855 | 2 | 35.081 | 11.004 | 31.065 | 2 |
| 2025-05-05T23:27:00 | 54.799842 | 7.956270 | 2.0 | 10.862 | 2 | 35.094 | 11.020 | 31.065 | 2 |
| 2025-05-05T23:28:00 | 54.797924 | 7.955176 | 2.0 | 10.868 | 2 | 35.104 | 11.028 | 31.068 | 2 |
| 2025-05-05T23:29:00 | 54.796012 | 7.954024 | 2.0 | 10.867 | 2 | 35.114 | 11.032 | 31.074 | 2 |
| 2025-05-05T23:30:00 | 54.794074 | 7.952889 | 2.0 | 10.867 | 2 | 35.119 | 11.032 | 31.079 | 2 |
| 2025-05-05T23:31:00 | 54.792148 | 7.951680 | 2.0 | 10.863 | 2 | 35.126 | 11.032 | 31.086 | 2 |
| 2025-05-05T23:32:00 | 54.790212 | 7.950575 | 2.0 | 10.850 | 2 | 35.128 | 11.025 | 31.094 | 2 |
| 2025-05-05T23:33:00 | 54.788293 | 7.949441 | 2.0 | 10.834 | 2 | 35.126 | 11.016 | 31.099 | 2 |
| 2025-05-05T23:34:00 | 54.786380 | 7.948279 | 2.0 | 10.824 | 2 | 35.120 | 10.998 | 31.109 | 2 |
| 2025-05-05T23:35:00 | 54.784455 | 7.947156 | 2.0 | 10.822 | 2 | 35.124 | 10.990 | 31.119 | 2 |
| 2025-05-05T23:36:00 | 54.782535 | 7.945989 | 2.0 | 10.807 | 2 | 35.129 | 10.988 | 31.126 | 2 |
| 2025-05-05T23:37:00 | 54.780574 | 7.944904 | 2.0 | 10.796 | 2 | 35.121 | 10.973 | 31.131 | 2 |
| 2025-05-05T23:38:00 | 54.778606 | 7.943983 | 2.0 | 10.788 | 2 | 35.115 | 10.963 | 31.134 | 2 |
| 2025-05-05T23:39:00 | 54.776631 | 7.943033 | 2.0 | 10.781 | 2 | 35.112 | 10.954 | 31.138 | 2 |
| 2025-05-05T23:40:00 | 54.774668 | 7.942046 | 2.0 | 10.791 | 2 | 35.111 | 10.949 | 31.141 | 2 |
| 2025-05-05T23:41:00 | 54.772699 | 7.941012 | 2.0 | 10.795 | 2 | 35.121 | 10.959 | 31.143 | 2 |
| 2025-05-05T23:42:00 | 54.770718 | 7.939994 | 2.0 | 10.788 | 2 | 35.129 | 10.961 | 31.149 | 2 |
| 2025-05-05T23:43:00 | 54.768720 | 7.939071 | 2.0 | 10.751 | 2 | 35.123 | 10.950 | 31.152 | 2 |
| 2025-05-05T23:44:00 | 54.766730 | 7.938135 | 2.0 | 10.745 | 2 | 35.101 | 10.916 | 31.160 | 2 |
| 2025-05-05T23:45:00 | 54.764759 | 7.937151 | 2.0 | 10.776 | 2 | 35.103 | 10.919 | 31.159 | 2 |
| 2025-05-05T23:46:00 | 54.762785 | 7.936136 | 2.0 | 10.809 | 2 | 35.125 | 10.948 | 31.156 | 2 |
| 2025-05-05T23:47:00 | 54.760819 | 7.935135 | 2.0 | 10.829 | 2 | 35.147 | 10.978 | 31.152 | 2 |
| 2025-05-05T23:48:00 | 54.758843 | 7.934176 | 2.0 | 10.798 | 2 | 35.151 | 10.990 | 31.146 | 2 |
| 2025-05-05T23:49:00 | 54.756860 | 7.933297 | 2.0 | 10.776 | 2 | 35.088 | 10.958 | 31.111 | 2 |
| 2025-05-05T23:50:00 | 54.754902 | 7.932326 | 2.0 | 10.803 | 2 | 35.030 | 10.949 | 31.062 | 2 |
| 2025-05-05T23:51:00 | 54.752925 | 7.931326 | 2.0 | 10.819 | 2 | 35.020 | 10.972 | 31.032 | 2 |
| 2025-05-05T23:52:00 | 54.750927 | 7.930346 | 2.0 | 10.839 | 2 | 35.011 | 10.988 | 31.010 | 2 |
| 2025-05-05T23:53:00 | 54.748934 | 7.929373 | 2.0 | 10.863 | 2 | 35.005 | 11.008 | 30.987 | 2 |
| 2025-05-05T23:54:00 | 54.746960 | 7.928352 | 2.0 | 10.874 | 2 | 35.015 | 11.029 | 30.979 | 2 |
| 2025-05-05T23:55:00 | 54.744987 | 7.927327 | 2.0 | 10.882 | 2 | 35.018 | 11.041 | 30.972 | 2 |
| 2025-05-05T23:56:00 | 54.742995 | 7.926393 | 2.0 | 10.895 | 2 | 35.012 | 11.049 | 30.960 | 2 |
| 2025-05-05T23:57:00 | 54.741013 | 7.925407 | 2.0 | 10.903 | 2 | 35.010 | 11.060 | 30.948 | 2 |
| 2025-05-05T23:58:00 | 54.739039 | 7.924409 | 2.0 | 10.910 | 2 | 35.008 | 11.070 | 30.938 | 2 |
| 2025-05-05T23:59:00 | 54.737048 | 7.923426 | 2.0 | 10.915 | 2 | 35.004 | 11.076 | 30.929 | 2 |
| 2025-05-06T00:00:00 | 54.735060 | 7.922419 | 2.0 | 10.925 | 2 | 34.997 | 11.082 | 30.917 | 2 |
| 2025-05-06T00:01:00 | 54.733066 | 7.921419 | 2.0 | 10.933 | 2 | 34.993 | 11.091 | 30.906 | 2 |
| 2025-05-06T00:02:00 | 54.731054 | 7.920437 | 2.0 | 10.941 | 2 | 34.991 | 11.099 | 30.897 | 2 |
| 2025-05-06T00:03:00 | 54.729023 | 7.919527 | 2.0 | 10.944 | 2 | 34.992 | 11.106 | 30.892 | 2 |
| 2025-05-06T00:04:00 | 54.727032 | 7.918535 | 2.0 | 10.946 | 2 | 34.989 | 11.108 | 30.887 | 2 |
| 2025-05-06T00:05:00 | 54.725040 | 7.917472 | 2.0 | 10.948 | 2 | 34.990 | 11.111 | 30.886 | 2 |
| 2025-05-06T00:06:00 | 54.723040 | 7.916453 | 2.0 | 10.950 | 2 | 34.988 | 11.113 | 30.882 | 2 |
| 2025-05-06T00:07:00 | 54.721027 | 7.915465 | 2.0 | 10.955 | 2 | 34.985 | 11.115 | 30.878 | 2 |
| 2025-05-06T00:08:00 | 54.718999 | 7.914496 | 2.0 | 10.958 | 2 | 34.983 | 11.120 | 30.871 | 2 |
| 2025-05-06T00:09:00 | 54.716967 | 7.913507 | 2.0 | 10.960 | 2 | 34.981 | 11.124 | 30.866 | 2 |
| 2025-05-06T00:10:00 | 54.714940 | 7.912479 | 2.0 | 10.959 | 2 | 34.982 | 11.125 | 30.866 | 2 |
| 2025-05-06T00:11:00 | 54.712891 | 7.911463 | 2.0 | 10.962 | 2 | 34.981 | 11.124 | 30.866 | 2 |
| 2025-05-06T00:12:00 | 54.710845 | 7.910455 | 2.0 | 10.967 | 2 | 34.984 | 11.128 | 30.866 | 2 |
| 2025-05-06T00:13:00 | 54.708790 | 7.909480 | 2.0 | 10.973 | 2 | 34.988 | 11.132 | 30.866 | 2 |
| 2025-05-06T00:14:00 | 54.706734 | 7.908473 | 2.0 | 10.979 | 2 | 34.991 | 11.139 | 30.863 | 2 |
| 2025-05-06T00:15:00 | 54.704690 | 7.907468 | 2.0 | 10.988 | 2 | 34.993 | 11.145 | 30.860 | 2 |
| 2025-05-06T00:16:00 | 54.702629 | 7.906608 | 2.0 | 10.994 | 2 | 34.996 | 11.153 | 30.857 | 2 |
| 2025-05-06T00:17:00 | 54.700595 | 7.905709 | 2.0 | 10.999 | 2 | 35.002 | 11.159 | 30.857 | 2 |
| 2025-05-06T00:18:00 | 54.698563 | 7.904841 | 2.0 | 11.002 | 2 | 35.007 | 11.164 | 30.858 | 2 |
| 2025-05-06T00:19:00 | 54.696538 | 7.903967 | 2.0 | 11.003 | 2 | 35.010 | 11.166 | 30.859 | 2 |
| 2025-05-06T00:20:00 | 54.694504 | 7.903056 | 2.0 | 11.004 | 2 | 35.014 | 11.168 | 30.862 | 2 |
| 2025-05-06T00:21:00 | 54.692442 | 7.902218 | 2.0 | 11.001 | 2 | 35.016 | 11.168 | 30.864 | 2 |
| 2025-05-06T00:22:00 | 54.690406 | 7.901397 | 2.0 | 11.000 | 2 | 35.018 | 11.166 | 30.867 | 2 |
| 2025-05-06T00:23:00 | 54.688393 | 7.900507 | 2.0 | 10.999 | 2 | 35.023 | 11.165 | 30.873 | 2 |
| 2025-05-06T00:24:00 | 54.686378 | 7.899572 | 2.0 | 10.998 | 2 | 35.028 | 11.165 | 30.878 | 2 |
| 2025-05-06T00:25:00 | 54.684326 | 7.898681 | 2.0 | 11.002 | 2 | 35.032 | 11.164 | 30.883 | 2 |
| 2025-05-06T00:26:00 | 54.682268 | 7.897818 | 2.0 | 11.009 | 2 | 35.041 | 11.169 | 30.887 | 2 |
| 2025-05-06T00:27:00 | 54.680193 | 7.896961 | 2.0 | 11.016 | 2 | 35.047 | 11.174 | 30.889 | 2 |
| 2025-05-06T00:28:00 | 54.678125 | 7.896031 | 2.0 | 11.020 | 2 | 35.056 | 11.181 | 30.892 | 2 |
| 2025-05-06T00:29:00 | 54.676056 | 7.895152 | 2.0 | 11.019 | 2 | 35.064 | 11.184 | 30.897 | 2 |
| 2025-05-06T00:30:00 | 54.673988 | 7.894299 | 2.0 | 11.017 | 2 | 35.066 | 11.184 | 30.899 | 2 |
| 2025-05-06T00:31:00 | 54.671923 | 7.893403 | 2.0 | 11.013 | 2 | 35.068 | 11.181 | 30.904 | 2 |
| 2025-05-06T00:32:00 | 54.669857 | 7.892485 | 2.0 | 11.006 | 2 | 35.070 | 11.177 | 30.909 | 2 |
| 2025-05-06T00:33:00 | 54.667783 | 7.891569 | 2.0 | 11.002 | 2 | 35.072 | 11.171 | 30.916 | 2 |
| 2025-05-06T00:34:00 | 54.665687 | 7.890655 | 2.0 | 10.996 | 2 | 35.073 | 11.167 | 30.920 | 2 |
| 2025-05-06T00:35:00 | 54.663591 | 7.889741 | 2.0 | 10.986 | 2 | 35.079 | 11.160 | 30.932 | 2 |
| 2025-05-06T00:36:00 | 54.661485 | 7.888853 | 2.0 | 10.978 | 2 | 35.085 | 11.150 | 30.946 | 2 |
| 2025-05-06T00:37:00 | 54.659366 | 7.888216 | 2.0 | 10.969 | 2 | 35.091 | 11.142 | 30.959 | 2 |
| 2025-05-06T00:38:00 | 54.657224 | 7.887794 | 2.0 | 10.964 | 2 | 35.094 | 11.135 | 30.968 | 2 |
| 2025-05-06T00:39:00 | 54.655086 | 7.887265 | 2.0 | 10.963 | 2 | 35.099 | 11.130 | 30.977 | 2 |
| 2025-05-06T00:40:00 | 54.652955 | 7.886895 | 2.0 | 10.966 | 2 | 35.103 | 11.129 | 30.981 | 2 |
| 2025-05-06T00:41:00 | 54.650851 | 7.886454 | 2.0 | 10.977 | 2 | 35.107 | 11.135 | 30.980 | 2 |
| 2025-05-06T00:42:00 | 54.648749 | 7.885972 | 2.0 | 10.981 | 2 | 35.110 | 11.143 | 30.977 | 2 |
| 2025-05-06T00:43:00 | 54.646639 | 7.885483 | 2.0 | 10.995 | 2 | 35.113 | 11.149 | 30.974 | 2 |
| 2025-05-06T00:44:00 | 54.644503 | 7.885049 | 2.0 | 11.000 | 2 | 35.121 | 11.160 | 30.973 | 2 |
| 2025-05-06T00:45:00 | 54.642344 | 7.884614 | 2.0 | 11.003 | 2 | 35.126 | 11.166 | 30.973 | 2 |
| 2025-05-06T00:46:00 | 54.640211 | 7.884217 | 2.0 | 11.004 | 2 | 35.129 | 11.168 | 30.974 | 2 |
| 2025-05-06T00:47:00 | 54.638078 | 7.884146 | 2.0 | 11.010 | 2 | 35.128 | 11.171 | 30.971 | 2 |
| 2025-05-06T00:48:00 | 54.635949 | 7.884276 | 2.0 | 11.011 | 2 | 35.126 | 11.174 | 30.966 | 2 |
| 2025-05-06T00:49:00 | 54.633804 | 7.884372 | 2.0 | 11.011 | 2 | 35.118 | 11.176 | 30.957 | 2 |
| 2025-05-06T00:50:00 | 54.631643 | 7.884545 | 2.0 | 11.012 | 2 | 35.111 | 11.177 | 30.949 | 2 |
| 2025-05-06T00:51:00 | 54.629461 | 7.884825 | 2.0 | 11.016 | 2 | 35.106 | 11.178 | 30.943 | 2 |
| 2025-05-06T00:52:00 | 54.627271 | 7.885123 | 2.0 | 11.026 | 2 | 35.108 | 11.184 | 30.940 | 2 |
| 2025-05-06T00:53:00 | 54.625113 | 7.885366 | 2.0 | 11.032 | 2 | 35.116 | 11.192 | 30.941 | 2 |
| 2025-05-06T00:54:00 | 54.623073 | 7.885554 | 2.0 | 11.038 | 2 | 35.121 | 11.199 | 30.940 | 2 |
| 2025-05-06T00:55:00 | 54.621089 | 7.885656 | 2.0 | 11.043 | 2 | 35.130 | 11.204 | 30.945 | 2 |
| 2025-05-06T00:56:00 | 54.619125 | 7.885974 | 2.0 | 11.041 | 2 | 35.135 | 11.207 | 30.947 | 2 |
| 2025-05-06T00:57:00 | 54.617162 | 7.886378 | 2.0 | 11.042 | 2 | 35.138 | 11.207 | 30.950 | 2 |
| 2025-05-06T00:58:00 | 54.615211 | 7.886797 | 2.0 | 11.041 | 2 | 35.141 | 11.207 | 30.953 | 2 |
| 2025-05-06T00:59:00 | 54.613266 | 7.887042 | 2.0 | 11.035 | 2 | 35.143 | 11.205 | 30.957 | 2 |
| 2025-05-06T01:00:00 | 54.611337 | 7.887324 | 2.0 | 11.030 | 2 | 35.135 | 11.200 | 30.953 | 2 |
| 2025-05-06T01:01:00 | 54.609397 | 7.887661 | 2.0 | 11.027 | 2 | 35.128 | 11.195 | 30.950 | 2 |
| 2025-05-06T01:02:00 | 54.607443 | 7.888036 | 2.0 | 11.024 | 2 | 35.124 | 11.192 | 30.949 | 2 |
| 2025-05-06T01:03:00 | 54.605489 | 7.888476 | 2.0 | 11.013 | 2 | 35.122 | 11.188 | 30.950 | 2 |
| 2025-05-06T01:04:00 | 54.603530 | 7.888852 | 2.0 | 11.009 | 2 | 35.115 | 11.179 | 30.951 | 2 |
| 2025-05-06T01:05:00 | 54.601568 | 7.889174 | 2.0 | 10.998 | 2 | 35.109 | 11.174 | 30.949 | 2 |
| 2025-05-06T01:06:00 | 54.599613 | 7.889486 | 2.0 | 10.978 | 2 | 35.101 | 11.160 | 30.953 | 2 |
| 2025-05-06T01:07:00 | 54.597664 | 7.889797 | 2.0 | 10.969 | 2 | 35.090 | 11.143 | 30.957 | 2 |
| 2025-05-06T01:08:00 | 54.595714 | 7.890194 | 2.0 | 10.968 | 2 | 35.084 | 11.135 | 30.958 | 2 |
| 2025-05-06T01:09:00 | 54.593761 | 7.890553 | 2.0 | 10.968 | 2 | 35.079 | 11.134 | 30.954 | 2 |
| 2025-05-06T01:10:00 | 54.591790 | 7.890906 | 2.0 | 10.957 | 2 | 35.072 | 11.132 | 30.949 | 2 |
| 2025-05-06T01:11:00 | 54.589803 | 7.891314 | 2.0 | 10.944 | 2 | 35.067 | 11.121 | 30.953 | 2 |
| 2025-05-06T01:12:00 | 54.587818 | 7.891744 | 2.0 | 10.935 | 2 | 35.059 | 11.109 | 30.955 | 2 |
| 2025-05-06T01:13:00 | 54.585827 | 7.892071 | 2.0 | 10.930 | 2 | 35.057 | 11.101 | 30.960 | 2 |
| 2025-05-06T01:14:00 | 54.583838 | 7.892419 | 2.0 | 10.928 | 2 | 35.056 | 11.096 | 30.963 | 2 |
| 2025-05-06T01:15:00 | 54.581853 | 7.892811 | 2.0 | 10.923 | 2 | 35.054 | 11.093 | 30.964 | 2 |
| 2025-05-06T01:16:00 | 54.579869 | 7.893230 | 2.0 | 10.917 | 2 | 35.054 | 11.089 | 30.967 | 2 |
| 2025-05-06T01:17:00 | 54.577908 | 7.893612 | 2.0 | 10.917 | 2 | 35.051 | 11.082 | 30.970 | 2 |
| 2025-05-06T01:18:00 | 54.575932 | 7.893878 | 2.0 | 10.916 | 2 | 35.046 | 11.084 | 30.963 | 2 |
| 2025-05-06T01:19:00 | 54.573947 | 7.894166 | 2.0 | 10.908 | 2 | 35.041 | 11.081 | 30.961 | 2 |
| 2025-05-06T01:20:00 | 54.571971 | 7.894473 | 2.0 | 10.903 | 2 | 35.041 | 11.075 | 30.966 | 2 |
| 2025-05-06T01:21:00 | 54.569992 | 7.894852 | 2.0 | 10.896 | 2 | 35.044 | 11.068 | 30.975 | 2 |
| 2025-05-06T01:22:00 | 54.568008 | 7.895274 | 2.0 | 10.890 | 2 | 35.036 | 11.063 | 30.971 | 2 |
| 2025-05-06T01:23:00 | 54.566006 | 7.895637 | 2.0 | 10.884 | 2 | 35.029 | 11.056 | 30.970 | 2 |
| 2025-05-06T01:24:00 | 54.563992 | 7.896020 | 2.0 | 10.872 | 2 | 35.020 | 11.049 | 30.967 | 2 |
| 2025-05-06T01:25:00 | 54.561969 | 7.896454 | 2.0 | 10.839 | 2 | 35.012 | 11.035 | 30.971 | 2 |
| 2025-05-06T01:26:00 | 54.559955 | 7.896853 | 2.0 | 10.829 | 2 | 35.024 | 11.003 | 31.010 | 2 |
| 2025-05-06T01:27:00 | 54.557930 | 7.897153 | 2.0 | 10.841 | 2 | 35.024 | 10.998 | 31.014 | 2 |
| 2025-05-06T01:28:00 | 54.555893 | 7.897447 | 2.0 | 10.851 | 2 | 35.013 | 11.009 | 30.994 | 2 |
| 2025-05-06T01:29:00 | 54.553850 | 7.897822 | 2.0 | 10.854 | 2 | 35.005 | 11.017 | 30.980 | 2 |
| 2025-05-06T01:30:00 | 54.551804 | 7.898214 | 2.0 | 10.844 | 2 | 34.997 | 11.019 | 30.970 | 2 |
| 2025-05-06T01:31:00 | 54.549751 | 7.898672 | 2.0 | 10.823 | 2 | 35.010 | 11.001 | 30.998 | 2 |
| 2025-05-06T01:32:00 | 54.547703 | 7.899072 | 2.0 | 10.846 | 2 | 35.027 | 10.995 | 31.020 | 2 |
| 2025-05-06T01:33:00 | 54.545697 | 7.899327 | 2.0 | 10.872 | 2 | 35.026 | 11.016 | 31.001 | 2 |
| 2025-05-06T01:34:00 | 54.543706 | 7.899631 | 2.0 | 10.884 | 2 | 35.022 | 11.040 | 30.977 | 2 |
| 2025-05-06T01:35:00 | 54.541721 | 7.899904 | 2.0 | 10.865 | 2 | 35.012 | 11.046 | 30.962 | 2 |
| 2025-05-06T01:36:00 | 54.539731 | 7.900303 | 2.0 | 10.820 | 2 | 34.997 | 11.022 | 30.968 | 2 |
| 2025-05-06T01:37:00 | 54.537751 | 7.900666 | 2.0 | 10.792 | 2 | 34.981 | 10.983 | 30.985 | 2 |
| 2025-05-06T01:38:00 | 54.535776 | 7.900999 | 2.0 | 10.768 | 2 | 34.973 | 10.956 | 31.000 | 2 |
| 2025-05-06T01:39:00 | 54.533802 | 7.901437 | 2.0 | 10.649 | 2 | 34.964 | 10.924 | 31.018 | 2 |
| 2025-05-06T01:40:00 | 54.531831 | 7.901864 | 2.0 | 10.440 | 2 | 34.936 | 10.778 | 31.114 | 2 |
| 2025-05-06T01:41:00 | 54.529885 | 7.902233 | 2.0 | 10.438 | 2 | 34.883 | 10.622 | 31.194 | 2 |
| 2025-05-06T01:42:00 | 54.527972 | 7.902475 | 2.0 | 10.457 | 2 | 34.874 | 10.614 | 31.192 | 2 |
| 2025-05-06T01:43:00 | 54.526072 | 7.902704 | 2.0 | 10.481 | 2 | 34.881 | 10.631 | 31.185 | 2 |
| 2025-05-06T01:44:00 | 54.524162 | 7.903012 | 2.0 | 10.507 | 2 | 34.892 | 10.654 | 31.176 | 2 |
| 2025-05-06T01:45:00 | 54.522259 | 7.903489 | 2.0 | 10.531 | 2 | 34.905 | 10.679 | 31.168 | 2 |
| 2025-05-06T01:46:00 | 54.520363 | 7.903856 | 2.0 | 10.558 | 2 | 34.915 | 10.701 | 31.159 | 2 |
| 2025-05-06T01:47:00 | 54.518479 | 7.904108 | 2.0 | 10.578 | 2 | 34.932 | 10.727 | 31.153 | 2 |
| 2025-05-06T01:48:00 | 54.516591 | 7.904435 | 2.0 | 10.593 | 2 | 34.949 | 10.748 | 31.152 | 2 |
| 2025-05-06T01:49:00 | 54.514694 | 7.904776 | 2.0 | 10.596 | 2 | 34.960 | 10.758 | 31.155 | 2 |
| 2025-05-06T01:50:00 | 54.512799 | 7.905183 | 2.0 | 10.593 | 2 | 34.965 | 10.762 | 31.156 | 2 |
| 2025-05-06T01:51:00 | 54.510894 | 7.905587 | 2.0 | 10.592 | 2 | 34.966 | 10.760 | 31.159 | 2 |
| 2025-05-06T01:52:00 | 54.509006 | 7.905924 | 2.0 | 10.588 | 2 | 34.964 | 10.758 | 31.159 | 2 |
| 2025-05-06T01:53:00 | 54.507122 | 7.906193 | 2.0 | 10.581 | 2 | 34.964 | 10.755 | 31.161 | 2 |
| 2025-05-06T01:54:00 | 54.505231 | 7.906488 | 2.0 | 10.570 | 2 | 34.960 | 10.747 | 31.164 | 2 |
| 2025-05-06T01:55:00 | 54.503342 | 7.906801 | 2.0 | 10.548 | 2 | 34.952 | 10.734 | 31.167 | 2 |
| 2025-05-06T01:56:00 | 54.501450 | 7.907191 | 2.0 | 10.525 | 2 | 34.935 | 10.713 | 31.168 | 2 |
| 2025-05-06T01:57:00 | 54.499576 | 7.907508 | 2.0 | 10.508 | 2 | 34.917 | 10.692 | 31.168 | 2 |
| 2025-05-06T01:58:00 | 54.497706 | 7.907817 | 2.0 | 10.493 | 2 | 34.898 | 10.674 | 31.165 | 2 |
| 2025-05-06T01:59:00 | 54.495843 | 7.908155 | 2.0 | 10.488 | 2 | 34.871 | 10.662 | 31.148 | 2 |
| 2025-05-06T02:00:00 | 54.493982 | 7.908513 | 2.0 | 10.492 | 2 | 34.856 | 10.655 | 31.140 | 2 |
| 2025-05-06T02:01:00 | 54.492086 | 7.908858 | 2.0 | 10.501 | 2 | 34.848 | 10.662 | 31.126 | 2 |
| 2025-05-06T02:02:00 | 54.490149 | 7.909249 | 2.0 | 10.519 | 2 | 34.849 | 10.672 | 31.118 | 2 |
| 2025-05-06T02:03:00 | 54.488183 | 7.909695 | 2.0 | 10.534 | 2 | 34.856 | 10.689 | 31.111 | 2 |
| 2025-05-06T02:04:00 | 54.486203 | 7.910097 | 2.0 | 10.549 | 2 | 34.862 | 10.700 | 31.107 | 2 |
| 2025-05-06T02:05:00 | 54.484230 | 7.910427 | 2.0 | 10.562 | 2 | 34.871 | 10.718 | 31.101 | 2 |
| 2025-05-06T02:06:00 | 54.482260 | 7.910760 | 2.0 | 10.576 | 2 | 34.878 | 10.731 | 31.097 | 2 |
| 2025-05-06T02:07:00 | 54.480344 | 7.911093 | 2.0 | 10.584 | 2 | 34.885 | 10.744 | 31.092 | 2 |
| 2025-05-06T02:08:00 | 54.478403 | 7.911389 | 2.0 | 10.593 | 2 | 34.889 | 10.753 | 31.089 | 2 |
| 2025-05-06T02:09:00 | 54.476433 | 7.911721 | 2.0 | 10.601 | 2 | 34.894 | 10.761 | 31.087 | 2 |
| 2025-05-06T02:10:00 | 54.474421 | 7.912136 | 2.0 | 10.606 | 2 | 34.900 | 10.768 | 31.087 | 2 |
| 2025-05-06T02:11:00 | 54.472378 | 7.912505 | 2.0 | 10.615 | 2 | 34.904 | 10.773 | 31.087 | 2 |
| 2025-05-06T02:12:00 | 54.470316 | 7.912838 | 2.0 | 10.618 | 2 | 34.908 | 10.782 | 31.083 | 2 |
| 2025-05-06T02:13:00 | 54.468254 | 7.913187 | 2.0 | 10.620 | 2 | 34.905 | 10.785 | 31.077 | 2 |
| 2025-05-06T02:14:00 | 54.466193 | 7.913608 | 2.0 | 10.623 | 2 | 34.897 | 10.786 | 31.069 | 2 |
| 2025-05-06T02:15:00 | 54.464147 | 7.914050 | 2.0 | 10.624 | 2 | 34.893 | 10.789 | 31.062 | 2 |
| 2025-05-06T02:16:00 | 54.462098 | 7.914388 | 2.0 | 10.630 | 2 | 34.896 | 10.792 | 31.063 | 2 |
| 2025-05-06T02:17:00 | 54.460046 | 7.914698 | 2.0 | 10.628 | 2 | 34.905 | 10.797 | 31.067 | 2 |
| 2025-05-06T02:18:00 | 54.458013 | 7.915034 | 2.0 | 10.596 | 2 | 34.896 | 10.788 | 31.066 | 2 |
| 2025-05-06T02:19:00 | 54.455980 | 7.915353 | 2.0 | 10.568 | 2 | 34.863 | 10.760 | 31.057 | 2 |
| 2025-05-06T02:20:00 | 54.453954 | 7.915696 | 2.0 | 10.558 | 2 | 34.835 | 10.736 | 31.050 | 2 |
| 2025-05-06T02:21:00 | 54.451935 | 7.916118 | 2.0 | 10.545 | 2 | 34.822 | 10.723 | 31.048 | 2 |
| 2025-05-06T02:22:00 | 54.449928 | 7.916441 | 2.0 | 10.534 | 2 | 34.806 | 10.710 | 31.043 | 2 |
| 2025-05-06T02:23:00 | 54.447912 | 7.916762 | 2.0 | 10.529 | 2 | 34.793 | 10.701 | 31.038 | 2 |
| 2025-05-06T02:24:00 | 54.445882 | 7.917175 | 2.0 | 10.529 | 2 | 34.787 | 10.697 | 31.035 | 2 |
| 2025-05-06T02:25:00 | 54.443866 | 7.917567 | 2.0 | 10.533 | 2 | 34.779 | 10.698 | 31.027 | 2 |
| 2025-05-06T02:26:00 | 54.441863 | 7.917874 | 2.0 | 10.530 | 2 | 34.780 | 10.699 | 31.027 | 2 |
| 2025-05-06T02:27:00 | 54.439831 | 7.918225 | 2.0 | 10.542 | 2 | 34.779 | 10.700 | 31.025 | 2 |
| 2025-05-06T02:28:00 | 54.437801 | 7.918701 | 2.0 | 10.578 | 2 | 34.802 | 10.714 | 31.036 | 2 |
| 2025-05-06T02:29:00 | 54.435833 | 7.918646 | 2.0 | 10.595 | 2 | 34.843 | 10.749 | 31.047 | 2 |
| 2025-05-06T02:30:00 | 54.433917 | 7.918257 | 2.0 | 10.597 | 2 | 34.860 | 10.760 | 31.054 | 2 |
| 2025-05-06T02:31:00 | 54.431994 | 7.917924 | 2.0 | 10.592 | 2 | 34.856 | 10.762 | 31.049 | 2 |
| 2025-05-06T02:32:00 | 54.430056 | 7.917690 | 2.0 | 10.588 | 2 | 34.842 | 10.758 | 31.038 | 2 |
| 2025-05-06T02:33:00 | 54.428099 | 7.917485 | 2.0 | 10.584 | 2 | 34.821 | 10.753 | 31.022 | 2 |
| 2025-05-06T02:34:00 | 54.426159 | 7.917170 | 2.0 | 10.589 | 2 | 34.787 | 10.751 | 30.990 | 2 |
| 2025-05-06T02:35:00 | 54.424214 | 7.916837 | 2.0 | 10.598 | 2 | 34.767 | 10.757 | 30.965 | 2 |
| 2025-05-06T02:36:00 | 54.422275 | 7.916522 | 2.0 | 10.607 | 2 | 34.754 | 10.766 | 30.944 | 2 |
| 2025-05-06T02:37:00 | 54.420345 | 7.916221 | 2.0 | 10.612 | 2 | 34.738 | 10.773 | 30.923 | 2 |
| 2025-05-06T02:38:00 | 54.418401 | 7.915998 | 2.0 | 10.637 | 2 | 34.720 | 10.781 | 30.898 | 2 |
| 2025-05-06T02:39:00 | 54.416475 | 7.915709 | 2.0 | 10.663 | 2 | 34.711 | 10.807 | 30.867 | 2 |
| 2025-05-06T02:40:00 | 54.414536 | 7.915396 | 2.0 | 10.672 | 2 | 34.714 | 10.830 | 30.851 | 2 |
| 2025-05-06T02:41:00 | 54.412575 | 7.915138 | 2.0 | 10.666 | 2 | 34.716 | 10.836 | 30.848 | 2 |
| 2025-05-06T02:42:00 | 54.410604 | 7.914885 | 2.0 | 10.656 | 2 | 34.710 | 10.830 | 30.847 | 2 |
| 2025-05-06T02:43:00 | 54.408640 | 7.914612 | 2.0 | 10.643 | 2 | 34.708 | 10.820 | 30.853 | 2 |
| 2025-05-06T02:44:00 | 54.406691 | 7.914313 | 2.0 | 10.629 | 2 | 34.706 | 10.808 | 30.861 | 2 |
| 2025-05-06T02:45:00 | 54.404751 | 7.913991 | 2.0 | 10.622 | 2 | 34.702 | 10.793 | 30.870 | 2 |
| 2025-05-06T02:46:00 | 54.402822 | 7.913668 | 2.0 | 10.609 | 2 | 34.695 | 10.788 | 30.867 | 2 |
| 2025-05-06T02:47:00 | 54.400924 | 7.913313 | 2.0 | 10.607 | 2 | 34.679 | 10.773 | 30.864 | 2 |
| 2025-05-06T02:48:00 | 54.399017 | 7.912994 | 2.0 | 10.615 | 2 | 34.661 | 10.776 | 30.844 | 2 |
| 2025-05-06T02:49:00 | 54.397097 | 7.912703 | 2.0 | 10.617 | 2 | 34.646 | 10.782 | 30.824 | 2 |
| 2025-05-06T02:50:00 | 54.395164 | 7.912434 | 2.0 | 10.626 | 2 | 34.645 | 10.784 | 30.821 | 2 |
| 2025-05-06T02:51:00 | 54.393232 | 7.912153 | 2.0 | 10.632 | 2 | 34.651 | 10.793 | 30.820 | 2 |
| 2025-05-06T02:52:00 | 54.391302 | 7.911952 | 2.0 | 10.643 | 2 | 34.659 | 10.800 | 30.822 | 2 |
| 2025-05-06T02:53:00 | 54.389413 | 7.911631 | 2.0 | 10.654 | 2 | 34.670 | 10.810 | 30.824 | 2 |
| 2025-05-06T02:54:00 | 54.387535 | 7.911223 | 2.0 | 10.660 | 2 | 34.677 | 10.819 | 30.824 | 2 |
| 2025-05-06T02:55:00 | 54.385640 | 7.910916 | 2.0 | 10.672 | 2 | 34.680 | 10.828 | 30.819 | 2 |
| 2025-05-06T02:56:00 | 54.383745 | 7.910695 | 2.0 | 10.689 | 2 | 34.682 | 10.841 | 30.810 | 2 |
| 2025-05-06T02:57:00 | 54.381850 | 7.910449 | 2.0 | 10.697 | 2 | 34.681 | 10.855 | 30.797 | 2 |
| 2025-05-06T02:58:00 | 54.379962 | 7.910250 | 2.0 | 10.703 | 2 | 34.675 | 10.864 | 30.784 | 2 |
| 2025-05-06T02:59:00 | 54.378109 | 7.909973 | 2.0 | 10.707 | 2 | 34.667 | 10.867 | 30.773 | 2 |
| 2025-05-06T03:00:00 | 54.376269 | 7.909644 | 2.0 | 10.719 | 2 | 34.664 | 10.872 | 30.766 | 2 |
| 2025-05-06T03:01:00 | 54.374385 | 7.909349 | 2.0 | 10.753 | 2 | 34.660 | 10.891 | 30.746 | 2 |
| 2025-05-06T03:02:00 | 54.372482 | 7.909111 | 2.0 | 10.784 | 2 | 34.658 | 10.921 | 30.719 | 2 |
| 2025-05-06T03:03:00 | 54.370572 | 7.908802 | 2.0 | 10.837 | 2 | 34.659 | 10.955 | 30.692 | 2 |
| 2025-05-06T03:04:00 | 54.368696 | 7.908462 | 2.0 | 10.897 | 2 | 34.676 | 11.010 | 30.663 | 2 |
| 2025-05-06T03:05:00 | 54.366802 | 7.908188 | 2.0 | 10.937 | 2 | 34.698 | 11.065 | 30.638 | 2 |
| 2025-05-06T03:06:00 | 54.364898 | 7.907958 | 2.0 | 10.960 | 2 | 34.711 | 11.103 | 30.619 | 2 |
| 2025-05-06T03:07:00 | 54.362987 | 7.907672 | 2.0 | 10.978 | 2 | 34.711 | 11.125 | 30.601 | 2 |
| 2025-05-06T03:08:00 | 54.361071 | 7.907402 | 2.0 | 10.985 | 2 | 34.741 | 11.140 | 30.618 | 2 |
| 2025-05-06T03:09:00 | 54.359161 | 7.907067 | 2.0 | 10.984 | 2 | 34.757 | 11.147 | 30.628 | 2 |
| 2025-05-06T03:10:00 | 54.357245 | 7.906708 | 2.0 | 10.977 | 2 | 34.510 | 11.146 | 30.387 | 2 |
| 2025-05-06T03:11:00 | 54.355311 | 7.906445 | 2.0 | 10.965 | 2 | 34.782 | 11.139 | 30.659 | 2 |
| 2025-05-06T03:12:00 | 54.353366 | 7.906248 | 2.0 | 10.948 | 2 | 34.790 | 11.127 | 30.677 | 2 |
| 2025-05-06T03:13:00 | 54.351418 | 7.906011 | 2.0 | 10.930 | 2 | 34.808 | 11.110 | 30.708 | 2 |
| 2025-05-06T03:14:00 | 54.349499 | 7.905651 | 2.0 | 10.900 | 2 | 34.800 | 11.091 | 30.716 | 2 |
| 2025-05-06T03:15:00 | 54.347600 | 7.905324 | 2.0 | 10.855 | 2 | 34.335 | 11.060 | 30.287 | 2 |
| 2025-05-06T03:16:00 | 54.345706 | 7.905038 | 2.0 | 10.814 | 2 | 34.809 | 11.015 | 30.789 | 2 |
| 2025-05-06T03:17:00 | 54.343787 | 7.904775 | 2.0 | 10.776 | 2 | 34.796 | 10.973 | 30.811 | 2 |
| 2025-05-06T03:18:00 | 54.341869 | 7.904500 | 2.0 | 10.783 | 2 | 34.529 | 10.946 | 30.572 | 2 |
| 2025-05-06T03:19:00 | 54.339975 | 7.904182 | 2.0 | 10.773 | 2 | 34.788 | 10.948 | 30.824 | 2 |
| 2025-05-06T03:20:00 | 54.338072 | 7.903811 | 2.0 | 10.765 | 2 | 34.761 | 10.939 | 30.805 | 2 |
| 2025-05-06T03:21:00 | 54.336145 | 7.903620 | 2.0 | 10.762 | 2 | 34.780 | 10.932 | 30.830 | 2 |
| 2025-05-06T03:22:00 | 54.334197 | 7.903664 | 2.0 | 10.745 | 2 | 34.781 | 10.927 | 30.835 | 2 |
| 2025-05-06T03:23:00 | 54.332244 | 7.903698 | 2.0 | 10.714 | 2 | 34.484 | 10.907 | 30.560 | 2 |
| 2025-05-06T03:24:00 | 54.330303 | 7.903691 | 2.0 | 10.697 | 2 | 34.645 | 10.877 | 30.743 | 2 |
| 2025-05-06T03:25:00 | 54.328369 | 7.903626 | 2.0 | 10.714 | 2 | 34.543 | 10.868 | 30.650 | 2 |
| 2025-05-06T03:26:00 | 54.326446 | 7.903650 | 2.0 | 10.701 | 2 | 34.729 | 10.878 | 30.825 | 2 |
| 2025-05-06T03:27:00 | 54.324534 | 7.903750 | 2.0 | 10.671 | 2 | 34.511 | 10.864 | 30.622 | 2 |
| 2025-05-06T03:28:00 | 54.322620 | 7.903741 | 2.0 | 10.651 | 2 | 34.694 | 10.835 | 30.827 | 2 |
| 2025-05-06T03:29:00 | 54.320711 | 7.903673 | 2.0 | 10.646 | 2 | 34.541 | 10.818 | 30.690 | 2 |
| 2025-05-06T03:30:00 | 54.318806 | 7.904064 | 2.0 | 10.657 | 2 | 34.381 | 10.813 | 30.537 | 2 |
| 2025-05-06T03:31:00 | 54.316857 | 7.904891 | 2.0 | 10.675 | 2 | 34.658 | 10.828 | 30.797 | 2 |
| 2025-05-06T03:32:00 | 54.314876 | 7.905616 | 2.0 | 10.670 | 2 | 34.577 | 10.841 | 30.707 | 2 |
| 2025-05-06T03:33:00 | 54.312905 | 7.906261 | 2.0 | 10.666 | 2 | 34.636 | 10.835 | 30.770 | 2 |
| 2025-05-06T03:34:00 | 54.311003 | 7.906953 | 2.0 | 10.674 | 2 | 34.289 | 10.835 | 30.428 | 2 |
| 2025-05-06T03:35:00 | 54.309147 | 7.907621 | 2.0 | 10.683 | 2 | 34.481 | 10.841 | 30.612 | 2 |
| 2025-05-06T03:36:00 | 54.307303 | 7.908321 | 2.0 | 10.699 | 2 | 34.683 | 10.852 | 30.802 | 2 |
| 2025-05-06T03:37:00 | 54.305468 | 7.908953 | 2.0 | 10.698 | 2 | 34.710 | 10.864 | 30.818 | 2 |
| 2025-05-06T03:38:00 | 54.303634 | 7.909593 | 2.0 | 10.688 | 2 | 34.695 | 10.862 | 30.805 | 2 |
| 2025-05-06T03:39:00 | 54.301808 | 7.910293 | 2.0 | 10.685 | 2 | 34.569 | 10.854 | 30.688 | 2 |
| 2025-05-06T03:40:00 | 54.300008 | 7.910975 | 2.0 | 10.676 | 2 | 34.495 | 10.850 | 30.618 | 2 |
| 2025-05-06T03:41:00 | 54.298222 | 7.911685 | 2.0 | 10.659 | 2 | 34.608 | 10.841 | 30.737 | 2 |
| 2025-05-06T03:42:00 | 54.296429 | 7.912482 | 2.0 | 10.627 | 2 | 34.725 | 10.820 | 30.870 | 2 |
| 2025-05-06T03:43:00 | 54.294643 | 7.913338 | 2.0 | 10.593 | 2 | 34.564 | 10.789 | 30.737 | 2 |
| 2025-05-06T03:44:00 | 54.292852 | 7.914103 | 2.0 | 10.556 | 2 | 34.506 | 10.755 | 30.709 | 2 |
| 2025-05-06T03:45:00 | 54.291038 | 7.914816 | 2.0 | 10.515 | 2 | 34.668 | 10.717 | 30.901 | 2 |
| 2025-05-06T03:46:00 | 54.289233 | 7.915544 | 2.0 | 10.490 | 2 | 34.657 | 10.681 | 30.920 | 2 |
| 2025-05-06T03:47:00 | 54.287422 | 7.916373 | 2.0 | 10.466 | 2 | 34.668 | 10.656 | 30.952 | 2 |
| 2025-05-06T03:48:00 | 54.285618 | 7.917235 | 2.0 | 10.424 | 2 | 34.559 | 10.632 | 30.865 | 2 |
| 2025-05-06T03:49:00 | 54.283814 | 7.917933 | 2.0 | 10.385 | 2 | 34.602 | 10.587 | 30.945 | 2 |
| 2025-05-06T03:50:00 | 54.281979 | 7.918648 | 2.0 | 10.362 | 2 | 34.650 | 10.548 | 31.026 | 2 |
| 2025-05-06T03:51:00 | 54.280122 | 7.919432 | 2.0 | 10.348 | 2 | 34.693 | 10.532 | 31.083 | 2 |
| 2025-05-06T03:52:00 | 54.278259 | 7.920284 | 2.0 | 10.341 | 2 | 34.725 | 10.517 | 31.127 | 2 |
| 2025-05-06T03:53:00 | 54.276395 | 7.921036 | 2.0 | 10.334 | 2 | 34.689 | 10.511 | 31.096 | 2 |
| 2025-05-06T03:54:00 | 54.274529 | 7.921812 | 2.0 | 10.320 | 2 | 34.654 | 10.501 | 31.070 | 2 |
| 2025-05-06T03:55:00 | 54.272660 | 7.922628 | 2.0 | 10.287 | 2 | 34.704 | 10.486 | 31.133 | 2 |
| 2025-05-06T03:56:00 | 54.270785 | 7.923428 | 2.0 | 10.259 | 2 | 34.769 | 10.455 | 31.224 | 2 |
| 2025-05-06T03:57:00 | 54.268890 | 7.924190 | 2.0 | 10.236 | 2 | 34.767 | 10.426 | 31.247 | 2 |
| 2025-05-06T03:58:00 | 54.267003 | 7.924940 | 2.0 | 10.216 | 2 | 34.845 | 10.403 | 31.345 | 2 |
| 2025-05-06T03:59:00 | 54.265110 | 7.925788 | 2.0 | 10.195 | 2 | 34.617 | 10.384 | 31.133 | 2 |
| 2025-05-06T04:00:00 | 54.263227 | 7.926599 | 2.0 | 10.167 | 2 | 34.921 | 10.360 | 31.458 | 2 |
| 2025-05-06T04:01:00 | 54.261333 | 7.927415 | 2.0 | 10.159 | 2 | 34.950 | 10.337 | 31.507 | 2 |
| 2025-05-06T04:02:00 | 54.259440 | 7.928223 | 2.0 | 10.146 | 2 | 34.383 | 10.328 | 30.947 | 2 |
| 2025-05-06T04:03:00 | 54.257528 | 7.929023 | 2.0 | 10.125 | 2 | 34.604 | 10.313 | 31.181 | 2 |
| 2025-05-06T04:04:00 | 54.255653 | 7.929787 | 2.0 | 10.101 | 2 | 34.509 | 10.290 | 31.106 | 2 |
| 2025-05-06T04:05:00 | 54.253846 | 7.930482 | 2.0 | 10.089 | 2 | 34.542 | 10.270 | 31.156 | 2 |
| 2025-05-06T04:06:00 | 54.252092 | 7.931277 | 2.0 | 10.043 | 2 | 34.708 | 10.252 | 31.338 | 2 |
| 2025-05-06T04:07:00 | 54.250379 | 7.932095 | 2.0 | 10.000 | 2 | 35.015 | 10.210 | 31.682 | 2 |
| 2025-05-06T04:08:00 | 54.248657 | 7.932802 | 2.0 | 9.951 | 2 | 34.837 | 10.164 | 31.544 | 2 |
| 2025-05-06T04:09:00 | 54.246949 | 7.933489 | 2.0 | 9.942 | 2 | 35.018 | 10.123 | 31.761 | 2 |
| 2025-05-06T04:10:00 | 54.245286 | 7.934235 | 2.0 | 9.946 | 2 | 34.834 | 10.115 | 31.583 | 2 |
| 2025-05-06T04:11:00 | 54.243691 | 7.934965 | 2.0 | 9.945 | 2 | 35.085 | 10.116 | 31.835 | 2 |
| 2025-05-06T04:12:00 | 54.242129 | 7.935601 | 2.0 | 9.976 | 2 | 34.807 | 10.121 | 31.551 | 2 |
| 2025-05-06T04:13:00 | 54.240591 | 7.936178 | 2.0 | 9.979 | 2 | 34.845 | 10.146 | 31.567 | 2 |
| 2025-05-06T04:14:00 | 54.239060 | 7.936773 | 2.0 | 9.974 | 2 | 34.906 | 10.148 | 31.627 | 2 |
| 2025-05-06T04:15:00 | 54.237547 | 7.937410 | 2.0 | 9.964 | 2 | 34.918 | 10.142 | 31.644 | 2 |
| 2025-05-06T04:16:00 | 54.236077 | 7.938051 | 2.0 | 9.955 | 2 | 34.772 | 10.133 | 31.505 | 2 |
| 2025-05-06T04:17:00 | 54.234641 | 7.938643 | 2.0 | 9.945 | 2 | 34.937 | 10.124 | 31.679 | 2 |
| 2025-05-06T04:18:00 | 54.233225 | 7.939195 | 2.0 | 9.924 | 2 | 35.027 | 10.113 | 31.779 | 2 |
| 2025-05-06T04:19:00 | 54.231813 | 7.939774 | 2.0 | 9.907 | 2 | 34.875 | 10.092 | 31.645 | 2 |
| 2025-05-06T04:20:00 | 54.230401 | 7.940398 | 2.0 | 9.903 | 2 | 35.000 | 10.079 | 31.782 | 2 |
| 2025-05-06T04:21:00 | 54.228997 | 7.941068 | 2.0 | 9.906 | 2 | 34.898 | 10.072 | 31.685 | 2 |
| 2025-05-06T04:22:00 | 54.227606 | 7.941685 | 2.0 | 9.923 | 2 | 34.850 | 10.080 | 31.630 | 2 |
| 2025-05-06T04:23:00 | 54.226241 | 7.942203 | 2.0 | 9.928 | 2 | 35.038 | 10.093 | 31.808 | 2 |
| 2025-05-06T04:24:00 | 54.224900 | 7.942715 | 2.0 | 9.932 | 2 | 34.882 | 10.098 | 31.646 | 2 |
| 2025-05-06T04:25:00 | 54.223542 | 7.943218 | 2.0 | 9.942 | 2 | 34.814 | 10.102 | 31.574 | 2 |
| 2025-05-06T04:26:00 | 54.222205 | 7.943798 | 2.0 | 9.953 | 2 | 34.984 | 10.113 | 31.736 | 2 |
| 2025-05-06T04:27:00 | 54.220873 | 7.944404 | 2.0 | 9.955 | 2 | 34.827 | 10.122 | 31.570 | 2 |
| 2025-05-06T04:28:00 | 54.219538 | 7.944975 | 2.0 | 9.954 | 2 | 34.859 | 10.124 | 31.601 | 2 |
| 2025-05-06T04:29:00 | 54.218190 | 7.945551 | 2.0 | 9.958 | 2 | 34.844 | 10.123 | 31.586 | 2 |
| 2025-05-06T04:30:00 | 54.216831 | 7.946161 | 2.0 | 9.956 | 2 | 34.811 | 10.127 | 31.550 | 2 |
| 2025-05-06T04:31:00 | 54.215471 | 7.946717 | 2.0 | 9.940 | 2 | 34.863 | 10.122 | 31.606 | 2 |
| 2025-05-06T04:32:00 | 54.214098 | 7.947287 | 2.0 | 9.937 | 2 | 34.829 | 10.110 | 31.583 | 2 |
| 2025-05-06T04:33:00 | 54.212723 | 7.947856 | 2.0 | 9.934 | 2 | 34.861 | 10.106 | 31.618 | 2 |
| 2025-05-06T04:34:00 | 54.211366 | 7.948391 | 2.0 | 9.957 | 2 | 34.820 | 10.105 | 31.578 | 2 |
| 2025-05-06T04:35:00 | 54.210047 | 7.949015 | 2.0 | 9.995 | 2 | 34.818 | 10.134 | 31.551 | 2 |
| 2025-05-06T04:36:00 | 54.208734 | 7.949653 | 2.0 | 10.006 | 2 | 34.825 | 10.165 | 31.531 | 2 |
| 2025-05-06T04:37:00 | 54.207428 | 7.950180 | 2.0 | 9.997 | 2 | 34.889 | 10.172 | 31.589 | 2 |
| 2025-05-06T04:38:00 | 54.206129 | 7.950603 | 2.0 | 10.012 | 2 | 34.878 | 10.168 | 31.581 | 2 |
| 2025-05-06T04:39:00 | 54.204840 | 7.950744 | 2.0 | 10.106 | 2 | 34.872 | 10.188 | 31.558 | 2 |
| 2025-05-06T04:40:00 | 54.203594 | 7.950757 | 2.0 | 10.143 | 2 | 34.833 | 10.269 | 31.448 | 2 |
| 2025-05-06T04:41:00 | 54.202376 | 7.950884 | 2.0 | 10.196 | 2 | 34.832 | 10.311 | 31.411 | 2 |
| 2025-05-06T04:42:00 | 54.201162 | 7.951052 | 2.0 | 10.234 | 2 | 34.859 | 10.372 | 31.385 | 2 |
| 2025-05-06T04:43:00 | 54.199966 | 7.951266 | 2.0 | 10.242 | 2 | 34.846 | 10.399 | 31.349 | 2 |
| 2025-05-06T04:44:00 | 54.198770 | 7.951417 | 2.0 | 10.272 | 2 | 34.874 | 10.410 | 31.367 | 2 |
| 2025-05-06T04:45:00 | 54.197581 | 7.951548 | 2.0 | 10.303 | 2 | 34.863 | 10.445 | 31.326 | 2 |
| 2025-05-06T04:46:00 | 54.196398 | 7.951710 | 2.0 | 10.482 | 2 | 34.839 | 10.477 | 31.275 | 2 |
| 2025-05-06T04:47:00 | 54.195241 | 7.951978 | 2.0 | 10.496 | 2 | 34.723 | 10.660 | 31.003 | 2 |
| 2025-05-06T04:48:00 | 54.194089 | 7.952102 | 2.0 | 10.526 | 2 | 34.747 | 10.651 | 31.035 | 2 |
| 2025-05-06T04:49:00 | 54.192972 | 7.951926 | 2.0 | 10.523 | 2 | 34.737 | 10.685 | 30.996 | 2 |
| 2025-05-06T04:50:00 | 54.191900 | 7.951604 | 2.0 | 10.509 | 2 | 34.747 | 10.684 | 31.007 | 2 |
| 2025-05-06T04:51:00 | 54.190834 | 7.951351 | 2.0 | 10.489 | 2 | 34.783 | 10.670 | 31.054 | 2 |
| 2025-05-06T04:52:00 | 54.189751 | 7.951181 | 2.0 | 10.609 | 2 | 34.785 | 10.668 | 31.058 | 2 |
| 2025-05-06T04:53:00 | 54.188665 | 7.951098 | 2.0 | 10.633 | 2 | 34.763 | 10.769 | 30.951 | 2 |
| 2025-05-06T04:54:00 | 54.187593 | 7.950917 | 2.0 | 10.641 | 2 | 34.786 | 10.794 | 30.952 | 2 |
| 2025-05-06T04:55:00 | 54.186529 | 7.950659 | 2.0 | 10.648 | 2 | 34.818 | 10.806 | 30.974 | 2 |
| 2025-05-06T04:56:00 | 54.185480 | 7.950405 | 2.0 | 10.670 | 2 | 34.844 | 10.814 | 30.993 | 2 |
| 2025-05-06T04:57:00 | 54.184423 | 7.950217 | 2.0 | 10.682 | 2 | 34.851 | 10.836 | 30.981 | 2 |
| 2025-05-06T04:58:00 | 54.183353 | 7.950033 | 2.0 | 10.719 | 2 | 34.845 | 10.846 | 30.967 | 2 |
| 2025-05-06T04:59:00 | 54.182273 | 7.949816 | 2.0 | 10.757 | 2 | 34.852 | 10.890 | 30.936 | 2 |
| 2025-05-06T05:00:00 | 54.181180 | 7.949644 | 2.0 | 10.756 | 2 | 34.851 | 10.919 | 30.911 | 2 |
| 2025-05-06T05:01:00 | 54.180082 | 7.949490 | 2.0 | 10.730 | 2 | 34.848 | 10.912 | 30.914 | 2 |
| 2025-05-06T05:02:00 | 54.178967 | 7.949351 | 2.0 | 10.712 | 2 | 34.860 | 10.891 | 30.943 | 2 |
| 2025-05-06T05:03:00 | 54.177853 | 7.949201 | 2.0 | 10.692 | 2 | 34.875 | 10.874 | 30.972 | 2 |
| 2025-05-06T05:04:00 | 54.176746 | 7.949088 | 2.0 | 10.676 | 2 | 34.884 | 10.856 | 30.997 | 2 |
| 2025-05-06T05:05:00 | 54.175658 | 7.948970 | 2.0 | 10.655 | 2 | 34.890 | 10.838 | 31.018 | 2 |
| 2025-05-06T05:06:00 | 54.174612 | 7.948732 | 2.0 | 10.640 | 2 | 34.901 | 10.818 | 31.045 | 2 |
| 2025-05-06T05:07:00 | 54.173608 | 7.948427 | 2.0 | 10.638 | 2 | 34.907 | 10.806 | 31.062 | 2 |
| 2025-05-06T05:08:00 | 54.172622 | 7.948169 | 2.0 | 10.642 | 2 | 34.919 | 10.804 | 31.075 | 2 |
| 2025-05-06T05:09:00 | 54.171653 | 7.947983 | 2.0 | 10.702 | 2 | 34.940 | 10.815 | 31.087 | 2 |
| 2025-05-06T05:10:00 | 54.170648 | 7.947805 | 2.0 | 10.743 | 2 | 34.970 | 10.871 | 31.069 | 2 |
| 2025-05-06T05:11:00 | 54.169604 | 7.947627 | 2.0 | 10.770 | 2 | 34.950 | 10.911 | 31.015 | 2 |
| 2025-05-06T05:12:00 | 54.168542 | 7.947511 | 2.0 | 10.793 | 2 | 34.909 | 10.938 | 30.952 | 2 |
| 2025-05-06T05:13:00 | 54.167465 | 7.947403 | 2.0 | 10.805 | 2 | 34.885 | 10.955 | 30.914 | 2 |
| 2025-05-06T05:14:00 | 54.166392 | 7.947204 | 2.0 | 10.805 | 2 | 34.869 | 10.960 | 30.894 | 2 |
| 2025-05-07T06:15:00 | 54.146663 | 7.891425 | 2.0 | 10.923 | 2 | 35.203 | 11.320 | 30.919 | 2 |
| 2025-05-07T06:16:00 | 54.146664 | 7.886759 | 2.0 | 10.896 | 2 | 34.965 | 11.154 | 30.825 | 2 |
| 2025-05-07T06:17:00 | 54.147977 | 7.882784 | 2.0 | 10.914 | 2 | 34.987 | 11.116 | 30.879 | 2 |
| 2025-05-07T06:18:00 | 54.149693 | 7.879233 | 2.0 | 10.872 | 2 | 35.025 | 11.107 | 30.924 | 2 |
| 2025-05-07T06:19:00 | 54.151168 | 7.875298 | 2.0 | 10.816 | 2 | 35.043 | 11.057 | 30.983 | 2 |
| 2025-05-07T06:20:00 | 54.152737 | 7.871424 | 2.0 | 10.795 | 2 | 35.064 | 11.008 | 31.045 | 2 |
| 2025-05-07T06:21:00 | 54.154334 | 7.867564 | 2.0 | 10.807 | 2 | 35.104 | 10.985 | 31.104 | 2 |
| 2025-05-07T06:22:00 | 54.155915 | 7.863764 | 2.0 | 10.808 | 2 | 35.109 | 10.993 | 31.102 | 2 |
| 2025-05-07T06:23:00 | 54.157470 | 7.860048 | 2.0 | 10.841 | 2 | 35.119 | 10.995 | 31.110 | 2 |
| 2025-05-07T06:24:00 | 54.158845 | 7.856368 | 2.0 | 10.851 | 2 | 35.121 | 11.022 | 31.089 | 2 |
| 2025-05-07T06:25:00 | 54.160129 | 7.852449 | 2.0 | 10.836 | 2 | 35.127 | 11.028 | 31.090 | 2 |
| 2025-05-07T06:26:00 | 54.161510 | 7.848579 | 2.0 | 10.814 | 2 | 35.128 | 11.011 | 31.106 | 2 |
| 2025-05-07T06:27:00 | 54.162800 | 7.844518 | 2.0 | 10.756 | 2 | 35.143 | 10.988 | 31.140 | 2 |
| 2025-05-07T06:28:00 | 54.164128 | 7.840629 | 2.0 | 10.748 | 2 | 35.187 | 10.937 | 31.226 | 2 |
| 2025-05-07T06:29:00 | 54.165424 | 7.836686 | 2.0 | 10.722 | 2 | 35.185 | 10.922 | 31.237 | 2 |
| 2025-05-07T06:30:00 | 54.166677 | 7.832639 | 2.0 | 10.745 | 2 | 35.184 | 10.913 | 31.244 | 2 |
| 2025-05-07T06:31:00 | 54.167932 | 7.828593 | 2.0 | 10.707 | 2 | 35.160 | 10.909 | 31.224 | 2 |
| 2025-05-07T06:32:00 | 54.169193 | 7.824598 | 2.0 | 10.667 | 2 | 35.173 | 10.881 | 31.260 | 2 |
| 2025-05-07T06:33:00 | 54.170430 | 7.820538 | 2.0 | 10.619 | 2 | 35.328 | 10.841 | 31.448 | 2 |
| 2025-05-07T06:34:00 | 54.171736 | 7.816448 | 2.0 | 10.491 | 2 | 35.443 | 10.779 | 31.615 | 2 |
| 2025-05-07T06:35:00 | 54.173039 | 7.812215 | 2.0 | 10.367 | 2 | 35.464 | 10.651 | 31.747 | 2 |
| 2025-05-07T06:36:00 | 54.174334 | 7.808004 | 2.0 | 10.343 | 2 | 35.456 | 10.552 | 31.825 | 2 |
| 2025-05-07T06:37:00 | 54.175672 | 7.803798 | 2.0 | 10.285 | 2 | 35.446 | 10.516 | 31.846 | 2 |
| 2025-05-07T06:38:00 | 54.176997 | 7.799583 | 2.0 | 10.182 | 2 | 35.434 | 10.455 | 31.888 | 2 |
| 2025-05-07T06:39:00 | 54.178249 | 7.795407 | 2.0 | 10.049 | 2 | 35.418 | 10.340 | 31.973 | 2 |
| 2025-05-07T06:40:00 | 54.179544 | 7.791160 | 2.0 | 9.956 | 2 | 35.405 | 10.225 | 32.061 | 2 |
| 2025-05-07T06:41:00 | 54.180741 | 7.786906 | 2.0 | 9.969 | 2 | 35.387 | 10.147 | 32.112 | 2 |
| 2025-05-07T06:42:00 | 54.181520 | 7.782289 | 2.0 | 9.900 | 2 | 35.371 | 10.155 | 32.089 | 2 |
| 2025-05-07T06:43:00 | 54.182368 | 7.777699 | 2.0 | 9.972 | 2 | 35.395 | 10.084 | 32.176 | 2 |
| 2025-05-07T06:44:00 | 54.183209 | 7.773054 | 2.0 | 9.965 | 2 | 35.369 | 10.140 | 32.100 | 2 |
| 2025-05-07T06:45:00 | 54.184020 | 7.768245 | 2.0 | 9.924 | 2 | 35.388 | 10.140 | 32.119 | 2 |
| 2025-05-07T06:46:00 | 54.184861 | 7.763487 | 2.0 | 9.843 | 2 | 35.472 | 10.095 | 32.244 | 2 |
| 2025-05-07T06:47:00 | 54.185513 | 7.758698 | 2.0 | 9.803 | 2 | 35.553 | 10.024 | 32.389 | 2 |
| 2025-05-07T06:48:00 | 54.186135 | 7.754013 | 2.0 | 9.765 | 2 | 35.560 | 9.981 | 32.435 | 2 |
| 2025-05-07T06:49:00 | 54.186846 | 7.749316 | 2.0 | 9.793 | 2 | 35.566 | 9.956 | 32.464 | 2 |
| 2025-05-07T06:50:00 | 54.187680 | 7.744769 | 2.0 | 9.818 | 2 | 35.116 | 9.978 | 31.988 | 2 |
| 2025-05-07T06:52:00 | 54.189328 | 7.735733 | 2.0 | 9.834 | 2 | 35.558 | 10.005 | 32.412 | 2 |
| 2025-05-07T06:53:00 | 54.190141 | 7.731215 | 2.0 | 9.839 | 2 | 35.084 | 10.012 | 31.926 | 2 |
| 2025-05-07T06:54:00 | 54.190966 | 7.726656 | 2.0 | 9.849 | 2 | 35.509 | 10.019 | 32.349 | 2 |
| 2025-05-07T06:55:00 | 54.191806 | 7.722084 | 2.0 | 9.847 | 2 | 35.537 | 10.027 | 32.371 | 2 |
| 2025-05-07T06:56:00 | 54.192624 | 7.717596 | 2.0 | 9.835 | 2 | 35.630 | 10.023 | 32.468 | 2 |
| 2025-05-07T06:57:00 | 54.193445 | 7.713073 | 2.0 | 9.823 | 2 | 35.326 | 10.012 | 32.170 | 2 |
| 2025-05-07T06:58:00 | 54.194236 | 7.708505 | 2.0 | 9.813 | 2 | 35.131 | 10.002 | 31.982 | 2 |
| 2025-05-07T06:59:00 | 54.195043 | 7.703973 | 2.0 | 9.803 | 2 | 35.357 | 9.991 | 32.221 | 2 |
| 2025-05-07T07:00:00 | 54.195843 | 7.699399 | 2.0 | 9.802 | 2 | 35.371 | 9.983 | 32.242 | 2 |
| 2025-05-07T07:01:00 | 54.196655 | 7.694835 | 2.0 | 9.807 | 2 | 35.233 | 9.981 | 32.104 | 2 |
| 2025-05-07T07:02:00 | 54.197456 | 7.690265 | 2.0 | 9.822 | 2 | 35.098 | 9.987 | 31.962 | 2 |
| 2025-05-07T07:03:00 | 54.198294 | 7.685684 | 2.0 | 9.837 | 2 | 35.245 | 10.003 | 32.096 | 2 |
| 2025-05-07T07:04:00 | 54.199107 | 7.681254 | 2.0 | 9.861 | 2 | 35.539 | 10.018 | 32.381 | 2 |
| 2025-05-07T07:05:00 | 54.199869 | 7.676789 | 2.0 | 9.863 | 2 | 35.438 | 10.037 | 32.261 | 2 |
| 2025-05-07T07:06:00 | 54.200683 | 7.672285 | 2.0 | 9.866 | 2 | 35.477 | 10.039 | 32.299 | 2 |
| 2025-05-07T07:07:00 | 54.201502 | 7.667732 | 2.0 | 9.890 | 2 | 35.458 | 10.046 | 32.274 | 2 |
| 2025-05-07T07:08:00 | 54.202312 | 7.663162 | 2.0 | 9.894 | 2 | 35.385 | 10.066 | 32.182 | 2 |
| 2025-05-07T07:09:00 | 54.203129 | 7.658652 | 2.0 | 9.892 | 2 | 35.087 | 10.068 | 31.879 | 2 |
| 2025-05-07T07:10:00 | 54.203928 | 7.654181 | 2.0 | 9.906 | 2 | 35.299 | 10.069 | 32.092 | 2 |
| 2025-05-07T07:11:00 | 54.204751 | 7.649602 | 2.0 | 9.932 | 2 | 35.499 | 10.085 | 32.280 | 2 |
| 2025-05-07T07:12:00 | 54.205590 | 7.645058 | 2.0 | 9.968 | 2 | 35.314 | 10.113 | 32.069 | 2 |
| 2025-05-07T07:13:00 | 54.206400 | 7.640429 | 2.0 | 9.976 | 2 | 35.490 | 10.142 | 32.220 | 2 |
| 2025-05-07T07:14:00 | 54.207233 | 7.635765 | 2.0 | 9.976 | 2 | 35.165 | 10.149 | 31.887 | 2 |
| 2025-05-07T07:15:00 | 54.208076 | 7.631119 | 2.0 | 9.967 | 2 | 35.514 | 10.151 | 32.237 | 2 |
| 2025-05-07T07:16:00 | 54.208934 | 7.626594 | 2.0 | 9.975 | 2 | 35.269 | 10.141 | 31.998 | 2 |
| 2025-05-07T07:17:00 | 54.209711 | 7.622048 | 2.0 | 10.011 | 2 | 35.442 | 10.161 | 32.155 | 2 |
| 2025-05-07T07:18:00 | 54.210293 | 7.617362 | 2.0 | 9.978 | 2 | 35.500 | 10.179 | 32.198 | 2 |
| 2025-05-07T07:19:00 | 54.210940 | 7.612631 | 2.0 | 9.958 | 2 | 35.531 | 10.150 | 32.255 | 2 |
| 2025-05-07T07:20:00 | 54.211405 | 7.608214 | 2.0 | 9.950 | 2 | 35.100 | 10.133 | 31.835 | 2 |
| 2025-05-07T07:21:00 | 54.211805 | 7.605287 | 2.0 | 9.971 | 2 | 35.491 | 10.126 | 32.236 | 2 |
| 2025-05-07T07:22:00 | 54.212031 | 7.603190 | 2.0 | 10.009 | 2 | 35.229 | 10.149 | 31.951 | 2 |
| 2025-05-07T07:23:00 | 54.211965 | 7.601648 | 2.0 | 10.018 | 2 | 35.486 | 10.181 | 32.182 | 2 |
| 2025-05-07T07:24:00 | 54.211791 | 7.600477 | 2.0 | 10.041 | 2 | 35.487 | 10.199 | 32.167 | 2 |
| 2025-05-07T07:25:00 | 54.211738 | 7.599862 | 2.0 | 10.043 | 2 | 35.292 | 10.221 | 31.951 | 2 |
| 2025-05-07T07:26:00 | 54.211745 | 7.599731 | 2.0 | 10.048 | 2 | 35.276 | 10.232 | 31.925 | 2 |
| 2025-05-07T07:27:00 | 54.211690 | 7.599797 | 2.0 | 10.045 | 2 | 35.332 | 10.237 | 31.977 | 2 |
| 2025-05-07T07:28:00 | 54.211563 | 7.599941 | 2.0 | 10.056 | 2 | 35.497 | 10.237 | 32.143 | 2 |
| 2025-05-07T07:29:00 | 54.211490 | 7.599954 | 2.0 | 10.047 | 2 | 35.356 | 10.244 | 31.995 | 2 |
| 2025-05-07T07:30:00 | 54.211446 | 7.599896 | 2.0 | 10.020 | 2 | 35.445 | 10.232 | 32.095 | 2 |
| 2025-05-07T07:31:00 | 54.211454 | 7.599742 | 2.0 | 10.057 | 2 | 35.388 | 10.226 | 32.043 | 2 |
| 2025-05-07T07:32:00 | 54.211371 | 7.599585 | 2.0 | 10.065 | 2 | 35.366 | 10.252 | 31.998 | 2 |
| 2025-05-07T07:33:00 | 54.211314 | 7.599337 | 2.0 | 10.069 | 2 | 35.425 | 10.261 | 32.049 | 2 |
| 2025-05-07T07:34:00 | 54.211255 | 7.599019 | 2.0 | 10.070 | 2 | 35.422 | 10.267 | 32.041 | 2 |
| 2025-05-07T07:35:00 | 54.211137 | 7.598702 | 2.0 | 10.070 | 2 | 35.383 | 10.270 | 31.999 | 2 |
| 2025-05-07T07:36:00 | 54.210963 | 7.598324 | 2.0 | 10.071 | 2 | 35.382 | 10.272 | 31.997 | 2 |
| 2025-05-07T07:37:00 | 54.210852 | 7.597915 | 2.0 | 10.075 | 2 | 35.397 | 10.275 | 32.009 | 2 |
| 2025-05-07T07:38:00 | 54.210838 | 7.597374 | 2.0 | 10.076 | 2 | 35.314 | 10.278 | 31.923 | 2 |
| 2025-05-07T07:39:00 | 54.210820 | 7.596722 | 2.0 | 10.088 | 2 | 35.338 | 10.280 | 31.945 | 2 |
| 2025-05-07T07:40:00 | 54.210816 | 7.596483 | 2.0 | 10.097 | 2 | 35.371 | 10.296 | 31.964 | 2 |
| 2025-05-07T07:41:00 | 54.210799 | 7.596368 | 2.0 | 10.089 | 2 | 35.341 | 10.294 | 31.936 | 2 |
| 2025-05-07T07:42:00 | 54.210751 | 7.596310 | 2.0 | 10.097 | 2 | 35.431 | 10.293 | 32.027 | 2 |
| 2025-05-07T07:43:00 | 54.210698 | 7.596211 | 2.0 | 10.100 | 2 | 35.404 | 10.302 | 31.992 | 2 |
| 2025-05-07T07:44:00 | 54.210636 | 7.596057 | 2.0 | 10.096 | 2 | 35.452 | 10.304 | 32.039 | 2 |
| 2025-05-07T07:45:00 | 54.210591 | 7.595780 | 2.0 | 10.099 | 2 | 35.406 | 10.301 | 31.995 | 2 |
| 2025-05-07T07:46:00 | 54.210551 | 7.595482 | 2.0 | 10.102 | 2 | 35.399 | 10.306 | 31.984 | 2 |
| 2025-05-07T07:47:00 | 54.210549 | 7.595205 | 2.0 | 10.099 | 2 | 35.435 | 10.308 | 32.018 | 2 |
| 2025-05-07T07:48:00 | 54.210594 | 7.595057 | 2.0 | 10.107 | 2 | 35.430 | 10.310 | 32.011 | 2 |
| 2025-05-07T07:49:00 | 54.210646 | 7.594924 | 2.0 | 10.097 | 2 | 35.419 | 10.315 | 31.996 | 2 |
| 2025-05-07T07:50:00 | 54.210541 | 7.594377 | 2.0 | 10.112 | 2 | 35.482 | 10.309 | 32.064 | 2 |
| 2025-05-07T07:51:00 | 54.210362 | 7.593524 | 2.0 | 10.116 | 2 | 35.456 | 10.316 | 32.032 | 2 |
| 2025-05-07T07:52:00 | 54.210304 | 7.592846 | 2.0 | 10.124 | 2 | 35.479 | 10.327 | 32.045 | 2 |
| 2025-05-07T07:53:00 | 54.210269 | 7.592590 | 2.0 | 10.132 | 2 | 35.479 | 10.330 | 32.043 | 2 |
| 2025-05-07T07:54:00 | 54.210222 | 7.592359 | 2.0 | 10.128 | 2 | 35.473 | 10.339 | 32.029 | 2 |
| 2025-05-07T07:55:00 | 54.210175 | 7.592136 | 2.0 | 10.127 | 2 | 35.468 | 10.335 | 32.027 | 2 |
| 2025-05-07T07:56:00 | 54.210287 | 7.592013 | 2.0 | 10.139 | 2 | 35.470 | 10.337 | 32.028 | 2 |
| 2025-05-07T07:57:00 | 54.210659 | 7.592144 | 2.0 | 10.137 | 2 | 35.494 | 10.347 | 32.043 | 2 |
| 2025-05-07T07:58:00 | 54.211056 | 7.592326 | 2.0 | 10.123 | 2 | 35.490 | 10.347 | 32.039 | 2 |
| 2025-05-07T07:59:00 | 54.211489 | 7.592466 | 2.0 | 10.127 | 2 | 35.518 | 10.334 | 32.078 | 2 |
| 2025-05-07T08:00:00 | 54.211850 | 7.592586 | 2.0 | 10.132 | 2 | 35.522 | 10.338 | 32.079 | 2 |
| 2025-05-07T08:01:00 | 54.212189 | 7.592692 | 2.0 | 10.132 | 2 | 35.530 | 10.347 | 32.079 | 2 |
| 2025-05-07T08:02:00 | 54.212583 | 7.592826 | 2.0 | 10.141 | 2 | 35.523 | 10.343 | 32.075 | 2 |
| 2025-05-07T08:03:00 | 54.213002 | 7.592968 | 2.0 | 10.170 | 2 | 35.539 | 10.360 | 32.076 | 2 |
| 2025-05-07T08:04:00 | 54.213485 | 7.593117 | 2.0 | 10.183 | 2 | 35.533 | 10.380 | 32.053 | 2 |
| 2025-05-07T08:05:00 | 54.213975 | 7.593291 | 2.0 | 10.158 | 2 | 35.537 | 10.382 | 32.055 | 2 |
| 2025-05-07T08:06:00 | 54.214438 | 7.593360 | 2.0 | 10.153 | 2 | 35.526 | 10.360 | 32.063 | 2 |
| 2025-05-07T08:07:00 | 54.214958 | 7.593307 | 2.0 | 10.156 | 2 | 35.520 | 10.351 | 32.065 | 2 |
| 2025-05-07T08:08:00 | 54.215461 | 7.593267 | 2.0 | 10.154 | 2 | 35.514 | 10.346 | 32.064 | 2 |
| 2025-05-07T08:09:00 | 54.215828 | 7.593209 | 2.0 | 10.156 | 2 | 35.512 | 10.346 | 32.062 | 2 |
| 2025-05-07T08:10:00 | 54.216059 | 7.593196 | 2.0 | 10.157 | 2 | 35.508 | 10.339 | 32.064 | 2 |
| 2025-05-07T08:11:00 | 54.216211 | 7.593158 | 2.0 | 10.143 | 2 | 35.510 | 10.340 | 32.065 | 2 |
| 2025-05-07T08:12:00 | 54.216298 | 7.593100 | 2.0 | 10.151 | 2 | 35.498 | 10.329 | 32.063 | 2 |
| 2025-05-07T08:13:00 | 54.216339 | 7.593070 | 2.0 | 10.181 | 2 | 35.511 | 10.341 | 32.065 | 2 |
| 2025-05-07T08:14:00 | 54.216406 | 7.592995 | 2.0 | 10.170 | 2 | 35.531 | 10.362 | 32.067 | 2 |
| 2025-05-07T08:15:00 | 54.216490 | 7.592892 | 2.0 | 10.159 | 2 | 35.523 | 10.350 | 32.069 | 2 |
| 2025-05-07T08:16:00 | 54.216593 | 7.592842 | 2.0 | 10.161 | 2 | 35.516 | 10.342 | 32.069 | 2 |
| 2025-05-07T08:17:00 | 54.216836 | 7.592708 | 2.0 | 10.165 | 2 | 35.516 | 10.342 | 32.069 | 2 |
| 2025-05-07T08:18:00 | 54.217184 | 7.592517 | 2.0 | 10.169 | 2 | 35.520 | 10.345 | 32.071 | 2 |
| 2025-05-07T08:19:00 | 54.217565 | 7.592318 | 2.0 | 10.168 | 2 | 35.520 | 10.350 | 32.066 | 2 |
| 2025-05-07T08:20:00 | 54.217956 | 7.592101 | 2.0 | 10.171 | 2 | 35.517 | 10.345 | 32.068 | 2 |
| 2025-05-07T08:21:00 | 54.218552 | 7.591826 | 2.0 | 10.188 | 2 | 35.518 | 10.358 | 32.057 | 2 |
| 2025-05-07T08:22:00 | 54.219311 | 7.591495 | 2.0 | 10.194 | 2 | 35.520 | 10.367 | 32.051 | 2 |
| 2025-05-07T08:23:00 | 54.220072 | 7.591174 | 2.0 | 10.178 | 2 | 35.519 | 10.373 | 32.045 | 2 |
| 2025-05-07T08:24:00 | 54.220821 | 7.590853 | 2.0 | 10.187 | 2 | 35.505 | 10.361 | 32.042 | 2 |
| 2025-05-07T08:25:00 | 54.221574 | 7.590540 | 2.0 | 10.173 | 2 | 35.500 | 10.367 | 32.031 | 2 |
| 2025-05-07T08:26:00 | 54.222329 | 7.590204 | 2.0 | 10.215 | 2 | 35.492 | 10.365 | 32.025 | 2 |
| 2025-05-07T08:27:00 | 54.223169 | 7.589833 | 2.0 | 10.241 | 2 | 35.504 | 10.399 | 32.007 | 2 |
| 2025-05-07T08:28:00 | 54.223975 | 7.589452 | 2.0 | 10.213 | 2 | 35.498 | 10.410 | 31.991 | 2 |
| 2025-05-07T08:29:00 | 54.224707 | 7.589128 | 2.0 | 10.200 | 2 | 35.479 | 10.387 | 31.993 | 2 |
| 2025-05-07T08:30:00 | 54.225334 | 7.588803 | 2.0 | 10.223 | 2 | 35.475 | 10.384 | 31.991 | 2 |
| 2025-05-07T08:31:00 | 54.225760 | 7.588530 | 2.0 | 10.252 | 2 | 35.489 | 10.403 | 31.989 | 2 |
| 2025-05-07T08:32:00 | 54.226087 | 7.588301 | 2.0 | 10.236 | 2 | 35.500 | 10.425 | 31.980 | 2 |
| 2025-05-07T08:33:00 | 54.226362 | 7.588147 | 2.0 | 10.272 | 2 | 35.493 | 10.417 | 31.980 | 2 |
| 2025-05-07T08:34:00 | 54.226539 | 7.588108 | 2.0 | 10.338 | 2 | 35.509 | 10.464 | 31.955 | 2 |
| 2025-05-07T08:35:00 | 54.226619 | 7.588194 | 2.0 | 10.330 | 2 | 35.529 | 10.511 | 31.934 | 2 |
| 2025-05-07T08:36:00 | 54.226583 | 7.588382 | 2.0 | 10.320 | 2 | 35.532 | 10.505 | 31.942 | 2 |
| 2025-05-07T08:37:00 | 54.226452 | 7.588592 | 2.0 | 10.283 | 2 | 35.529 | 10.491 | 31.951 | 2 |
| 2025-05-07T08:38:00 | 54.226191 | 7.588679 | 2.0 | 10.258 | 2 | 35.513 | 10.457 | 31.965 | 2 |
| 2025-05-07T08:39:00 | 54.225804 | 7.588556 | 2.0 | 10.191 | 2 | 35.504 | 10.419 | 31.989 | 2 |
| 2025-05-07T08:40:00 | 54.225333 | 7.588390 | 2.0 | 10.176 | 2 | 35.485 | 10.367 | 32.016 | 2 |
| 2025-05-07T08:41:00 | 54.224793 | 7.588231 | 2.0 | 10.159 | 2 | 35.477 | 10.356 | 32.018 | 2 |
| 2025-05-07T08:42:00 | 54.224209 | 7.588051 | 2.0 | 10.186 | 2 | 35.469 | 10.348 | 32.017 | 2 |
| 2025-05-07T08:43:00 | 54.223583 | 7.587853 | 2.0 | 10.195 | 2 | 35.483 | 10.366 | 32.015 | 2 |
| 2025-05-07T08:44:00 | 54.222953 | 7.587887 | 2.0 | 10.199 | 2 | 35.492 | 10.375 | 32.016 | 2 |
| 2025-05-07T08:45:00 | 54.222318 | 7.587949 | 2.0 | 10.200 | 2 | 35.496 | 10.377 | 32.018 | 2 |
| 2025-05-07T08:46:00 | 54.221677 | 7.588042 | 2.0 | 10.213 | 2 | 35.500 | 10.379 | 32.021 | 2 |
| 2025-05-07T08:47:00 | 54.221017 | 7.588115 | 2.0 | 10.221 | 2 | 35.516 | 10.392 | 32.025 | 2 |
| 2025-05-07T08:48:00 | 54.220374 | 7.588303 | 2.0 | 10.219 | 2 | 35.536 | 10.398 | 32.040 | 2 |
| 2025-05-07T08:49:00 | 54.219727 | 7.588522 | 2.0 | 10.226 | 2 | 35.548 | 10.394 | 32.056 | 2 |
| 2025-05-07T08:50:00 | 54.219073 | 7.588747 | 2.0 | 10.192 | 2 | 35.554 | 10.391 | 32.064 | 2 |
| 2025-05-07T08:51:00 | 54.218395 | 7.588987 | 2.0 | 10.173 | 2 | 35.545 | 10.369 | 32.075 | 2 |
| 2025-05-07T08:52:00 | 54.217721 | 7.589251 | 2.0 | 10.180 | 2 | 35.541 | 10.354 | 32.084 | 2 |
| 2025-05-07T08:53:00 | 54.217032 | 7.589483 | 2.0 | 10.168 | 2 | 35.548 | 10.353 | 32.092 | 2 |
| 2025-05-07T08:54:00 | 54.216353 | 7.589739 | 2.0 | 10.180 | 2 | 35.549 | 10.350 | 32.095 | 2 |
| 2025-05-07T08:55:00 | 54.215705 | 7.590012 | 2.0 | 10.204 | 2 | 35.564 | 10.361 | 32.101 | 2 |
| 2025-05-07T08:56:00 | 54.215221 | 7.590522 | 2.0 | 10.191 | 2 | 35.585 | 10.376 | 32.108 | 2 |
| 2025-05-07T08:57:00 | 54.214709 | 7.590986 | 2.0 | 10.227 | 2 | 35.589 | 10.365 | 32.122 | 2 |
| 2025-05-07T08:58:00 | 54.214252 | 7.591522 | 2.0 | 10.214 | 2 | 35.631 | 10.408 | 32.126 | 2 |
| 2025-05-07T08:59:00 | 54.213952 | 7.592192 | 2.0 | 10.204 | 2 | 35.628 | 10.386 | 32.143 | 2 |
| 2025-05-07T09:00:00 | 54.213732 | 7.592918 | 2.0 | 10.176 | 2 | 35.633 | 10.376 | 32.157 | 2 |
| 2025-05-07T09:01:00 | 54.213551 | 7.593669 | 2.0 | 10.146 | 2 | 35.623 | 10.347 | 32.172 | 2 |
| 2025-05-07T09:02:00 | 54.213441 | 7.594424 | 2.0 | 10.107 | 2 | 35.623 | 10.334 | 32.184 | 2 |
| 2025-05-07T09:03:00 | 54.213326 | 7.595177 | 2.0 | 10.090 | 2 | 35.590 | 10.287 | 32.192 | 2 |
| 2025-05-07T09:04:00 | 54.213259 | 7.595873 | 2.0 | 10.148 | 2 | 35.602 | 10.296 | 32.196 | 2 |
| 2025-05-07T09:05:00 | 54.213297 | 7.596475 | 2.0 | 10.117 | 2 | 35.624 | 10.301 | 32.214 | 2 |
| 2025-05-07T09:06:00 | 54.213308 | 7.597055 | 2.0 | 10.094 | 2 | 35.637 | 10.309 | 32.220 | 2 |
| 2025-05-07T09:07:00 | 54.213326 | 7.597620 | 2.0 | 10.109 | 2 | 35.617 | 10.276 | 32.229 | 2 |
| 2025-05-07T09:08:00 | 54.213350 | 7.598152 | 2.0 | 10.131 | 2 | 35.639 | 10.294 | 32.235 | 2 |
| 2025-05-07T09:09:00 | 54.213364 | 7.598662 | 2.0 | 10.138 | 2 | 35.662 | 10.304 | 32.250 | 2 |
| 2025-05-07T09:10:00 | 54.213374 | 7.599155 | 2.0 | 10.172 | 2 | 35.692 | 10.324 | 32.262 | 2 |
| 2025-05-07T09:11:00 | 54.213364 | 7.599582 | 2.0 | 10.137 | 2 | 35.721 | 10.333 | 32.283 | 2 |
| 2025-05-07T09:12:00 | 54.213421 | 7.599776 | 2.0 | 10.155 | 2 | 35.718 | 10.311 | 32.300 | 2 |
| 2025-05-07T09:13:00 | 54.213523 | 7.599773 | 2.0 | 10.242 | 2 | 35.751 | 10.348 | 32.300 | 2 |
| 2025-05-07T09:14:00 | 54.213596 | 7.599685 | 2.0 | 10.298 | 2 | 35.817 | 10.418 | 32.304 | 2 |
| 2025-05-07T09:15:00 | 54.213655 | 7.599558 | 2.0 | 10.347 | 2 | 35.872 | 10.481 | 32.303 | 2 |
| 2025-05-07T09:16:00 | 54.213693 | 7.599459 | 2.0 | 10.381 | 2 | 35.910 | 10.523 | 32.304 | 2 |
| 2025-05-07T09:17:00 | 54.213696 | 7.599418 | 2.0 | 10.382 | 2 | 35.931 | 10.547 | 32.304 | 2 |
| 2025-05-07T09:18:00 | 54.213701 | 7.599380 | 2.0 | 10.397 | 2 | 35.938 | 10.555 | 32.303 | 2 |
| 2025-05-07T09:19:00 | 54.213699 | 7.599355 | 2.0 | 10.401 | 2 | 35.947 | 10.568 | 32.301 | 2 |
| 2025-05-07T09:20:00 | 54.213706 | 7.599307 | 2.0 | 10.412 | 2 | 35.954 | 10.577 | 32.300 | 2 |
| 2025-05-07T09:21:00 | 54.213729 | 7.599232 | 2.0 | 10.392 | 2 | 35.958 | 10.583 | 32.299 | 2 |
| 2025-05-07T09:22:00 | 54.213722 | 7.599189 | 2.0 | 10.332 | 2 | 35.929 | 10.555 | 32.294 | 2 |
| 2025-05-07T09:23:00 | 54.213704 | 7.599146 | 2.0 | 10.332 | 2 | 35.877 | 10.503 | 32.289 | 2 |
| 2025-05-07T09:24:00 | 54.213697 | 7.599079 | 2.0 | 10.349 | 2 | 35.878 | 10.513 | 32.281 | 2 |
| 2025-05-07T09:25:00 | 54.213717 | 7.598971 | 2.0 | 10.396 | 2 | 35.888 | 10.529 | 32.276 | 2 |
| 2025-05-07T09:26:00 | 54.213757 | 7.598826 | 2.0 | 10.381 | 2 | 35.914 | 10.563 | 32.272 | 2 |
| 2025-05-07T09:27:00 | 54.213797 | 7.598720 | 2.0 | 10.388 | 2 | 35.903 | 10.548 | 32.275 | 2 |
| 2025-05-07T09:28:00 | 54.213829 | 7.598629 | 2.0 | 10.417 | 2 | 35.915 | 10.568 | 32.269 | 2 |
| 2025-05-07T09:29:00 | 54.213862 | 7.598581 | 2.0 | 10.456 | 2 | 35.935 | 10.597 | 32.263 | 2 |
| 2025-05-07T09:30:00 | 54.213914 | 7.598539 | 2.0 | 10.494 | 2 | 35.959 | 10.628 | 32.260 | 2 |
| 2025-05-07T09:31:00 | 54.213985 | 7.598502 | 2.0 | 10.522 | 2 | 35.984 | 10.668 | 32.249 | 2 |
| 2025-05-07T09:32:00 | 54.214067 | 7.598468 | 2.0 | 10.495 | 2 | 35.996 | 10.684 | 32.247 | 2 |
| 2025-05-07T09:33:00 | 54.214141 | 7.598438 | 2.0 | 10.513 | 2 | 35.984 | 10.671 | 32.247 | 2 |
| 2025-05-07T09:34:00 | 54.214220 | 7.598403 | 2.0 | 10.508 | 2 | 35.987 | 10.676 | 32.245 | 2 |
| 2025-05-07T09:35:00 | 54.214323 | 7.598328 | 2.0 | 10.551 | 2 | 35.995 | 10.689 | 32.242 | 2 |
| 2025-05-07T09:36:00 | 54.214402 | 7.598276 | 2.0 | 10.551 | 2 | 36.024 | 10.725 | 32.239 | 2 |
| 2025-05-07T09:37:00 | 54.214451 | 7.598251 | 2.0 | 10.553 | 2 | 36.020 | 10.720 | 32.239 | 2 |
| 2025-05-07T09:38:00 | 54.214497 | 7.598224 | 2.0 | 10.558 | 2 | 36.022 | 10.725 | 32.237 | 2 |
| 2025-05-07T09:39:00 | 54.214545 | 7.598183 | 2.0 | 10.566 | 2 | 36.026 | 10.727 | 32.239 | 2 |
| 2025-05-07T09:40:00 | 54.214591 | 7.598142 | 2.0 | 10.565 | 2 | 36.032 | 10.737 | 32.236 | 2 |
| 2025-05-07T09:41:00 | 54.214631 | 7.598108 | 2.0 | 10.571 | 2 | 36.032 | 10.737 | 32.236 | 2 |
| 2025-05-07T09:42:00 | 54.214688 | 7.598076 | 2.0 | 10.560 | 2 | 36.034 | 10.740 | 32.236 | 2 |
| 2025-05-07T09:43:00 | 54.214740 | 7.598056 | 2.0 | 10.579 | 2 | 36.027 | 10.732 | 32.236 | 2 |
| 2025-05-07T09:44:00 | 54.214784 | 7.598040 | 2.0 | 10.597 | 2 | 36.043 | 10.752 | 32.234 | 2 |
| 2025-05-07T09:45:00 | 54.214817 | 7.598036 | 2.0 | 10.603 | 2 | 36.056 | 10.767 | 32.234 | 2 |
| 2025-05-07T09:46:00 | 54.214870 | 7.597993 | 2.0 | 10.610 | 2 | 36.060 | 10.773 | 32.232 | 2 |
| 2025-05-07T09:47:00 | 54.214921 | 7.597946 | 2.0 | 10.626 | 2 | 36.068 | 10.782 | 32.232 | 2 |
| 2025-05-07T09:48:00 | 54.214968 | 7.597918 | 2.0 | 10.620 | 2 | 36.078 | 10.794 | 32.232 | 2 |
| 2025-05-07T09:49:00 | 54.215027 | 7.597894 | 2.0 | 10.601 | 2 | 36.070 | 10.784 | 32.233 | 2 |
| 2025-05-07T09:50:00 | 54.215092 | 7.597867 | 2.0 | 10.634 | 2 | 36.066 | 10.781 | 32.231 | 2 |
| 2025-05-07T09:51:00 | 54.215134 | 7.597860 | 2.0 | 10.642 | 2 | 36.085 | 10.804 | 32.230 | 2 |
| 2025-05-07T09:52:00 | 54.215201 | 7.597829 | 2.0 | 10.605 | 2 | 36.090 | 10.807 | 32.232 | 2 |
| 2025-05-07T09:53:00 | 54.215267 | 7.597811 | 2.0 | 10.649 | 2 | 36.068 | 10.782 | 32.232 | 2 |
| 2025-05-07T09:54:00 | 54.215342 | 7.597780 | 2.0 | 10.665 | 2 | 36.098 | 10.822 | 32.227 | 2 |
| 2025-05-07T09:55:00 | 54.215438 | 7.597741 | 2.0 | 10.652 | 2 | 36.106 | 10.828 | 32.230 | 2 |
| 2025-05-07T09:56:00 | 54.215547 | 7.597708 | 2.0 | 10.649 | 2 | 36.100 | 10.824 | 32.227 | 2 |
| 2025-05-07T09:57:00 | 54.215672 | 7.597669 | 2.0 | 10.660 | 2 | 36.090 | 10.811 | 32.229 | 2 |
| 2025-05-07T09:58:00 | 54.215790 | 7.597638 | 2.0 | 10.680 | 2 | 36.106 | 10.832 | 32.226 | 2 |
| 2025-05-07T09:59:00 | 54.215907 | 7.597628 | 2.0 | 10.719 | 2 | 36.128 | 10.857 | 32.226 | 2 |
| 2025-05-07T10:00:00 | 54.216029 | 7.597635 | 2.0 | 10.734 | 2 | 36.154 | 10.886 | 32.226 | 2 |
| 2025-05-07T10:01:00 | 54.216182 | 7.597697 | 2.0 | 10.692 | 2 | 36.164 | 10.897 | 32.226 | 2 |
| 2025-05-07T10:02:00 | 54.216583 | 7.597764 | 2.0 | 10.429 | 2 | 36.110 | 10.829 | 32.233 | 2 |
| 2025-05-07T10:03:00 | 54.217176 | 7.597693 | 2.0 | 10.217 | 2 | 35.895 | 10.573 | 32.245 | 2 |
| 2025-05-07T10:04:00 | 54.217996 | 7.597699 | 2.0 | 10.179 | 2 | 35.744 | 10.411 | 32.237 | 2 |
| 2025-05-07T10:05:00 | 54.218874 | 7.597752 | 2.0 | 10.206 | 2 | 35.700 | 10.366 | 32.233 | 2 |
| 2025-05-07T10:06:00 | 54.219699 | 7.597761 | 2.0 | 10.198 | 2 | 35.712 | 10.387 | 32.226 | 2 |
| 2025-05-07T10:07:00 | 54.220462 | 7.597777 | 2.0 | 10.207 | 2 | 35.707 | 10.375 | 32.232 | 2 |
| 2025-05-07T10:08:00 | 54.221129 | 7.597735 | 2.0 | 10.227 | 2 | 35.714 | 10.390 | 32.225 | 2 |
| 2025-05-07T10:09:00 | 54.221714 | 7.598007 | 2.0 | 10.224 | 2 | 35.729 | 10.404 | 32.228 | 2 |
| 2025-05-07T10:10:00 | 54.222302 | 7.598412 | 2.0 | 10.254 | 2 | 35.726 | 10.404 | 32.225 | 2 |
| 2025-05-07T10:11:00 | 54.222788 | 7.598713 | 2.0 | 10.484 | 2 | 35.761 | 10.449 | 32.220 | 2 |
| 2025-05-07T10:12:00 | 54.223203 | 7.598964 | 2.0 | 10.608 | 2 | 35.968 | 10.697 | 32.208 | 2 |
| 2025-05-07T10:13:00 | 54.223114 | 7.599336 | 2.0 | 10.333 | 2 | 36.002 | 10.693 | 32.245 | 2 |
| 2025-05-07T10:14:00 | 54.222413 | 7.599438 | 2.0 | 10.398 | 2 | 35.845 | 10.534 | 32.229 | 2 |
| 2025-05-07T10:15:00 | 54.221343 | 7.599662 | 2.0 | 10.360 | 2 | 35.863 | 10.559 | 32.225 | 2 |
| 2025-05-07T10:16:00 | 54.220056 | 7.600018 | 2.0 | 10.387 | 2 | 35.849 | 10.547 | 32.222 | 2 |
| 2025-05-07T10:17:00 | 54.218648 | 7.600469 | 2.0 | 10.475 | 2 | 35.879 | 10.585 | 32.218 | 2 |
| 2025-05-07T10:18:00 | 54.217253 | 7.600573 | 2.0 | 10.373 | 2 | 35.917 | 10.631 | 32.215 | 2 |
| 2025-05-07T10:19:00 | 54.216811 | 7.598970 | 2.0 | 10.100 | 2 | 35.792 | 10.464 | 32.238 | 2 |
| 2025-05-07T10:20:00 | 54.217025 | 7.597946 | 2.0 | 10.061 | 2 | 35.627 | 10.277 | 32.238 | 2 |
| 2025-05-07T10:21:00 | 54.217307 | 7.597452 | 2.0 | 10.224 | 2 | 35.608 | 10.264 | 32.231 | 2 |
| 2025-05-07T10:22:00 | 54.217508 | 7.597240 | 2.0 | 10.580 | 2 | 35.762 | 10.475 | 32.198 | 2 |
| 2025-05-07T10:23:00 | 54.217684 | 7.597124 | 2.0 | 10.837 | 2 | 36.042 | 10.799 | 32.192 | 2 |
| 2025-05-07T10:24:00 | 54.217842 | 7.597033 | 2.0 | 10.871 | 2 | 36.218 | 10.976 | 32.210 | 2 |
| 2025-05-07T10:25:00 | 54.217981 | 7.596953 | 2.0 | 10.961 | 2 | 36.267 | 11.050 | 32.194 | 2 |
| 2025-05-07T10:26:00 | 54.218122 | 7.596853 | 2.0 | 10.883 | 2 | 36.310 | 11.106 | 32.187 | 2 |
| 2025-05-07T10:27:00 | 54.218264 | 7.596715 | 2.0 | 10.617 | 2 | 36.251 | 11.027 | 32.198 | 2 |
| 2025-05-07T10:28:00 | 54.218409 | 7.596584 | 2.0 | 10.254 | 2 | 36.025 | 10.728 | 32.237 | 2 |
| 2025-05-07T10:29:00 | 54.218582 | 7.596548 | 2.0 | 10.344 | 2 | 35.764 | 10.439 | 32.232 | 2 |
| 2025-05-07T10:30:00 | 54.219073 | 7.596489 | 2.0 | 10.527 | 2 | 35.869 | 10.604 | 32.191 | 2 |
| 2025-05-07T10:31:00 | 54.219731 | 7.596387 | 2.0 | 10.352 | 2 | 35.918 | 10.645 | 32.204 | 2 |
| 2025-05-07T10:32:00 | 54.220489 | 7.596281 | 2.0 | 10.323 | 2 | 35.817 | 10.535 | 32.200 | 2 |
| 2025-05-07T10:33:00 | 54.221259 | 7.596145 | 2.0 | 10.301 | 2 | 35.782 | 10.507 | 32.190 | 2 |
| 2025-05-07T10:34:00 | 54.222030 | 7.596021 | 2.0 | 10.286 | 2 | 35.753 | 10.474 | 32.190 | 2 |
| 2025-05-07T10:35:00 | 54.222778 | 7.595912 | 2.0 | 10.290 | 2 | 35.746 | 10.468 | 32.188 | 2 |
| 2025-05-07T10:36:00 | 54.223514 | 7.595807 | 2.0 | 10.247 | 2 | 35.732 | 10.448 | 32.192 | 2 |
| 2025-05-07T10:37:00 | 54.224301 | 7.595694 | 2.0 | 10.354 | 2 | 35.731 | 10.456 | 32.184 | 2 |
| 2025-05-07T10:38:00 | 54.225055 | 7.595586 | 2.0 | 10.309 | 2 | 35.796 | 10.523 | 32.190 | 2 |
| 2025-05-07T10:39:00 | 54.225787 | 7.595448 | 2.0 | 10.353 | 2 | 35.786 | 10.505 | 32.196 | 2 |
| 2025-05-07T10:40:00 | 54.226424 | 7.595335 | 2.0 | 10.398 | 2 | 35.828 | 10.559 | 32.190 | 2 |
| 2025-05-07T10:41:00 | 54.227072 | 7.595212 | 2.0 | 10.332 | 2 | 35.835 | 10.555 | 32.201 | 2 |
| 2025-05-07T10:42:00 | 54.227753 | 7.595088 | 2.0 | 10.302 | 2 | 35.786 | 10.500 | 32.200 | 2 |
| 2025-05-07T10:43:00 | 54.228525 | 7.594975 | 2.0 | 10.283 | 2 | 35.759 | 10.476 | 32.194 | 2 |
| 2025-05-07T10:44:00 | 54.229300 | 7.594846 | 2.0 | 10.270 | 2 | 35.737 | 10.454 | 32.192 | 2 |
| 2025-05-07T10:45:00 | 54.230044 | 7.594754 | 2.0 | 10.263 | 2 | 35.721 | 10.438 | 32.190 | 2 |
| 2025-05-07T10:46:00 | 54.230762 | 7.594659 | 2.0 | 10.296 | 2 | 35.725 | 10.448 | 32.185 | 2 |
| 2025-05-07T10:47:00 | 54.231514 | 7.594558 | 2.0 | 10.325 | 2 | 35.753 | 10.477 | 32.187 | 2 |
| 2025-05-07T10:48:00 | 54.232332 | 7.594454 | 2.0 | 10.257 | 2 | 35.752 | 10.476 | 32.187 | 2 |
| 2025-05-07T10:49:00 | 54.233185 | 7.594366 | 2.0 | 10.309 | 2 | 35.726 | 10.452 | 32.183 | 2 |
| 2025-05-07T10:50:00 | 54.234066 | 7.594261 | 2.0 | 10.323 | 2 | 35.748 | 10.479 | 32.181 | 2 |
| 2025-05-07T10:51:00 | 54.234894 | 7.594208 | 2.0 | 10.395 | 2 | 35.784 | 10.530 | 32.172 | 2 |
| 2025-05-07T10:52:00 | 54.235546 | 7.594305 | 2.0 | 10.989 | 2 | 35.848 | 10.625 | 32.152 | 2 |
| 2025-05-07T10:53:00 | 54.235656 | 7.594516 | 2.0 | 10.789 | 2 | 36.244 | 11.151 | 32.083 | 2 |
| 2025-05-07T10:54:00 | 54.235348 | 7.594357 | 2.0 | 10.760 | 2 | 36.093 | 10.872 | 32.178 | 2 |
| 2025-05-07T10:55:00 | 54.234731 | 7.594491 | 2.0 | 10.862 | 2 | 36.084 | 10.954 | 32.097 | 2 |
| 2025-05-07T10:56:00 | 54.233958 | 7.595097 | 2.0 | 10.683 | 2 | 36.077 | 10.998 | 32.052 | 2 |
| 2025-05-07T10:57:00 | 54.233051 | 7.595963 | 2.0 | 10.515 | 2 | 35.981 | 10.821 | 32.112 | 2 |
| 2025-05-07T10:58:00 | 54.231972 | 7.596754 | 2.0 | 10.428 | 2 | 35.872 | 10.681 | 32.126 | 2 |
| 2025-05-07T10:59:00 | 54.230819 | 7.597541 | 2.0 | 10.389 | 2 | 35.800 | 10.599 | 32.127 | 2 |
| 2025-05-07T11:00:00 | 54.229578 | 7.598217 | 2.0 | 10.310 | 2 | 35.774 | 10.553 | 32.141 | 2 |
| 2025-05-07T11:01:00 | 54.228270 | 7.598759 | 2.0 | 10.275 | 2 | 35.720 | 10.489 | 32.144 | 2 |
| 2025-05-07T11:02:00 | 54.226904 | 7.599090 | 2.0 | 10.254 | 2 | 35.686 | 10.451 | 32.143 | 2 |
| 2025-05-07T11:03:00 | 54.225514 | 7.599351 | 2.0 | 10.251 | 2 | 35.675 | 10.429 | 32.152 | 2 |
| 2025-05-07T11:04:00 | 54.224116 | 7.599605 | 2.0 | 10.239 | 2 | 35.695 | 10.425 | 32.175 | 2 |
| 2025-05-07T11:05:00 | 54.222709 | 7.599875 | 2.0 | 10.235 | 2 | 35.707 | 10.413 | 32.198 | 2 |
| 2025-05-07T11:06:00 | 54.221294 | 7.600134 | 2.0 | 10.250 | 2 | 35.719 | 10.412 | 32.211 | 2 |
| 2025-05-07T11:07:00 | 54.219873 | 7.600394 | 2.0 | 10.251 | 2 | 35.747 | 10.427 | 32.226 | 2 |
| 2025-05-07T11:08:00 | 54.218468 | 7.600653 | 2.0 | 10.248 | 2 | 35.764 | 10.427 | 32.243 | 2 |
| 2025-05-07T11:09:00 | 54.217201 | 7.600848 | 2.0 | 10.244 | 2 | 35.774 | 10.424 | 32.255 | 2 |
| 2025-05-07T11:10:00 | 54.216226 | 7.600514 | 2.0 | 10.147 | 2 | 35.772 | 10.411 | 32.265 | 2 |
| 2025-05-07T11:11:00 | 54.216068 | 7.599567 | 2.0 | 10.098 | 2 | 35.698 | 10.312 | 32.279 | 2 |
| 2025-05-07T11:12:00 | 54.216140 | 7.598849 | 2.0 | 10.071 | 2 | 35.653 | 10.267 | 32.273 | 2 |
| 2025-05-07T11:13:00 | 54.216269 | 7.598337 | 2.0 | 10.272 | 2 | 35.628 | 10.245 | 32.268 | 2 |
| 2025-05-07T11:14:00 | 54.216455 | 7.598017 | 2.0 | 10.458 | 2 | 35.821 | 10.507 | 32.229 | 2 |
| 2025-05-07T11:15:00 | 54.216676 | 7.597880 | 2.0 | 10.649 | 2 | 35.945 | 10.619 | 32.254 | 2 |
| 2025-05-07T11:16:00 | 54.216939 | 7.597828 | 2.0 | 10.329 | 2 | 36.058 | 10.768 | 32.235 | 2 |
| 2025-05-07T11:17:00 | 54.217243 | 7.597830 | 2.0 | 10.614 | 2 | 35.901 | 10.560 | 32.262 | 2 |
| 2025-05-07T11:18:00 | 54.217495 | 7.597750 | 2.0 | 11.079 | 2 | 36.148 | 10.910 | 32.199 | 2 |
| 2025-05-07T11:19:00 | 54.217734 | 7.597569 | 2.0 | 11.165 | 2 | 36.388 | 11.158 | 32.219 | 2 |
| 2025-05-07T11:20:00 | 54.217999 | 7.597488 | 2.0 | 11.054 | 2 | 36.536 | 11.343 | 32.202 | 2 |
| 2025-05-07T11:21:00 | 54.218104 | 7.597515 | 2.0 | 10.813 | 2 | 36.364 | 11.084 | 32.260 | 2 |
| 2025-05-07T11:22:00 | 54.218137 | 7.597565 | 2.0 | 10.754 | 2 | 36.227 | 10.965 | 32.229 | 2 |
| 2025-05-07T11:23:00 | 54.218175 | 7.597664 | 2.0 | 11.020 | 2 | 36.243 | 10.993 | 32.220 | 2 |
| 2025-05-07T11:24:00 | 54.218217 | 7.597772 | 2.0 | 11.040 | 2 | 36.345 | 11.099 | 32.228 | 2 |
| 2025-05-07T11:25:00 | 54.218263 | 7.597889 | 2.0 | 10.889 | 2 | 36.418 | 11.176 | 32.232 | 2 |
| 2025-05-07T11:26:00 | 54.218307 | 7.598004 | 2.0 | 10.843 | 2 | 36.359 | 11.099 | 32.242 | 2 |
| 2025-05-07T11:27:00 | 54.218335 | 7.598140 | 2.0 | 10.968 | 2 | 36.299 | 11.030 | 32.243 | 2 |
| 2025-05-07T11:28:00 | 54.218368 | 7.598263 | 2.0 | 10.930 | 2 | 36.377 | 11.112 | 32.248 | 2 |
| 2025-05-07T11:29:00 | 54.218439 | 7.598363 | 2.0 | 10.958 | 2 | 36.329 | 11.067 | 32.240 | 2 |
| 2025-05-07T11:30:00 | 54.218544 | 7.598435 | 2.0 | 10.977 | 2 | 36.382 | 11.108 | 32.256 | 2 |
| 2025-05-07T11:31:00 | 54.218669 | 7.598452 | 2.0 | 11.016 | 2 | 36.413 | 11.150 | 32.250 | 2 |
| 2025-05-07T11:32:00 | 54.218803 | 7.598406 | 2.0 | 10.916 | 2 | 36.426 | 11.149 | 32.264 | 2 |
| 2025-05-07T11:33:00 | 54.218933 | 7.598309 | 2.0 | 10.906 | 2 | 36.350 | 11.065 | 32.263 | 2 |
| 2025-05-07T11:34:00 | 54.219020 | 7.598209 | 2.0 | 10.979 | 2 | 36.373 | 11.097 | 32.257 | 2 |
| 2025-05-07T11:35:00 | 54.219101 | 7.598170 | 2.0 | 11.069 | 2 | 36.441 | 11.173 | 32.258 | 2 |
| 2025-05-07T11:36:00 | 54.219194 | 7.598111 | 2.0 | 11.117 | 2 | 36.491 | 11.221 | 32.265 | 2 |
| 2025-05-07T11:37:00 | 54.219304 | 7.598040 | 2.0 | 11.103 | 2 | 36.544 | 11.277 | 32.268 | 2 |
| 2025-05-07T11:38:00 | 54.219405 | 7.598016 | 2.0 | 11.065 | 2 | 36.531 | 11.257 | 32.273 | 2 |
| 2025-05-07T11:39:00 | 54.219497 | 7.598056 | 2.0 | 11.109 | 2 | 36.512 | 11.243 | 32.266 | 2 |
| 2025-05-07T11:40:00 | 54.219590 | 7.598068 | 2.0 | 11.148 | 2 | 36.533 | 11.278 | 32.256 | 2 |
| 2025-05-07T11:41:00 | 54.219654 | 7.597983 | 2.0 | 11.101 | 2 | 36.557 | 11.301 | 32.260 | 2 |
| 2025-05-07T11:42:00 | 54.219700 | 7.597906 | 2.0 | 11.057 | 2 | 36.531 | 11.265 | 32.266 | 2 |
| 2025-05-07T11:43:00 | 54.219771 | 7.597943 | 2.0 | 10.979 | 2 | 36.477 | 11.197 | 32.272 | 2 |
| 2025-05-07T11:44:00 | 54.219884 | 7.598092 | 2.0 | 10.908 | 2 | 36.401 | 11.109 | 32.274 | 2 |
| 2025-05-07T11:45:00 | 54.220011 | 7.598204 | 2.0 | 10.932 | 2 | 36.380 | 11.095 | 32.266 | 2 |
| 2025-05-07T11:46:00 | 54.220124 | 7.598286 | 2.0 | 10.841 | 2 | 36.383 | 11.089 | 32.274 | 2 |
| 2025-05-07T11:47:00 | 54.220202 | 7.598349 | 2.0 | 10.844 | 2 | 36.311 | 11.007 | 32.275 | 2 |
| 2025-05-07T11:48:00 | 54.220262 | 7.598402 | 2.0 | 10.790 | 2 | 36.319 | 11.024 | 32.268 | 2 |
| 2025-05-07T11:49:00 | 54.220295 | 7.598449 | 2.0 | 10.698 | 2 | 36.262 | 10.945 | 32.281 | 2 |
| 2025-05-07T11:50:00 | 54.220329 | 7.598496 | 2.0 | 10.787 | 2 | 36.186 | 10.866 | 32.275 | 2 |
| 2025-05-07T11:51:00 | 54.220344 | 7.598547 | 2.0 | 10.803 | 2 | 36.258 | 10.955 | 32.268 | 2 |
| 2025-05-07T11:52:00 | 54.220352 | 7.598617 | 2.0 | 10.784 | 2 | 36.285 | 10.973 | 32.279 | 2 |
| 2025-05-07T11:53:00 | 54.220380 | 7.598708 | 2.0 | 10.763 | 2 | 36.249 | 10.926 | 32.285 | 2 |
| 2025-05-07T11:54:00 | 54.220480 | 7.598780 | 2.0 | 10.783 | 2 | 36.249 | 10.927 | 32.284 | 2 |
| 2025-05-07T11:55:00 | 54.220618 | 7.598775 | 2.0 | 10.766 | 2 | 36.261 | 10.940 | 32.285 | 2 |
| 2025-05-07T11:56:00 | 54.220786 | 7.598706 | 2.0 | 10.741 | 2 | 36.258 | 10.933 | 32.288 | 2 |
| 2025-05-07T11:57:00 | 54.220929 | 7.598635 | 2.0 | 10.800 | 2 | 36.255 | 10.934 | 32.284 | 2 |
| 2025-05-07T11:58:00 | 54.221044 | 7.598579 | 2.0 | 10.775 | 2 | 36.279 | 10.953 | 32.291 | 2 |
| 2025-05-07T11:59:00 | 54.221187 | 7.598472 | 2.0 | 10.800 | 2 | 36.277 | 10.955 | 32.287 | 2 |
| 2025-05-07T12:00:00 | 54.221327 | 7.598346 | 2.0 | 10.779 | 2 | 36.291 | 10.967 | 32.291 | 2 |
| 2025-05-07T12:01:00 | 54.221453 | 7.598233 | 2.0 | 10.768 | 2 | 36.261 | 10.928 | 32.295 | 2 |
| 2025-05-07T12:02:00 | 54.221597 | 7.598078 | 2.0 | 10.763 | 2 | 36.261 | 10.934 | 32.290 | 2 |
| 2025-05-07T12:03:00 | 54.221714 | 7.597951 | 2.0 | 10.770 | 2 | 36.264 | 10.937 | 32.290 | 2 |
| 2025-05-07T12:04:00 | 54.221817 | 7.597834 | 2.0 | 10.763 | 2 | 36.270 | 10.942 | 32.292 | 2 |
| 2025-05-07T12:05:00 | 54.221953 | 7.597693 | 2.0 | 10.746 | 2 | 36.260 | 10.929 | 32.293 | 2 |
| 2025-05-07T12:06:00 | 54.222096 | 7.597536 | 2.0 | 10.709 | 2 | 36.246 | 10.910 | 32.296 | 2 |
| 2025-05-07T12:07:00 | 54.222257 | 7.597397 | 2.0 | 10.709 | 2 | 36.211 | 10.869 | 32.298 | 2 |
| 2025-05-07T12:08:00 | 54.222384 | 7.597295 | 2.0 | 10.788 | 2 | 36.223 | 10.890 | 32.291 | 2 |
| 2025-05-07T12:09:00 | 54.222528 | 7.597191 | 2.0 | 10.778 | 2 | 36.275 | 10.947 | 32.292 | 2 |
| 2025-05-07T12:10:00 | 54.222681 | 7.597066 | 2.0 | 10.899 | 2 | 36.298 | 10.976 | 32.290 | 2 |
| 2025-05-07T12:11:00 | 54.222834 | 7.596961 | 2.0 | 11.001 | 2 | 36.377 | 11.069 | 32.286 | 2 |
| 2025-05-07T12:12:00 | 54.222953 | 7.596875 | 2.0 | 11.225 | 2 | 36.471 | 11.176 | 32.285 | 2 |
| 2025-05-07T12:13:00 | 54.223063 | 7.596798 | 2.0 | 11.303 | 2 | 36.653 | 11.390 | 32.276 | 2 |
| 2025-05-07T12:14:00 | 54.223177 | 7.596748 | 2.0 | 11.347 | 2 | 36.733 | 11.461 | 32.292 | 2 |
| 2025-05-07T12:15:00 | 54.223297 | 7.596691 | 2.0 | 11.331 | 2 | 36.766 | 11.496 | 32.294 | 2 |
| 2025-05-07T12:16:00 | 54.223441 | 7.596634 | 2.0 | 11.337 | 2 | 36.757 | 11.477 | 32.302 | 2 |
| 2025-05-07T12:17:00 | 54.223584 | 7.596582 | 2.0 | 11.296 | 2 | 36.770 | 11.493 | 32.300 | 2 |
| 2025-05-07T12:18:00 | 54.223723 | 7.596536 | 2.0 | 11.228 | 2 | 36.734 | 11.445 | 32.307 | 2 |
| 2025-05-07T12:19:00 | 54.223884 | 7.596484 | 2.0 | 11.212 | 2 | 36.689 | 11.398 | 32.304 | 2 |
| 2025-05-07T12:20:00 | 54.224049 | 7.596441 | 2.0 | 11.235 | 2 | 36.668 | 11.376 | 32.303 | 2 |
| 2025-05-07T12:21:00 | 54.224217 | 7.596429 | 2.0 | 11.234 | 2 | 36.679 | 11.389 | 32.302 | 2 |
| 2025-05-07T12:22:00 | 54.224379 | 7.596443 | 2.0 | 11.236 | 2 | 36.677 | 11.385 | 32.304 | 2 |
| 2025-05-07T12:23:00 | 54.224549 | 7.596496 | 2.0 | 11.282 | 2 | 36.704 | 11.427 | 32.293 | 2 |
| 2025-05-07T12:24:00 | 54.224727 | 7.596743 | 2.0 | 11.171 | 2 | 36.732 | 11.451 | 32.300 | 2 |
| 2025-05-07T12:25:00 | 54.224537 | 7.596917 | 2.0 | 10.795 | 2 | 36.610 | 11.290 | 32.321 | 2 |
| 2025-05-07T12:26:00 | 54.223885 | 7.596440 | 2.0 | 10.770 | 2 | 36.317 | 10.954 | 32.328 | 2 |
| 2025-05-07T12:27:00 | 54.222596 | 7.595451 | 2.0 | 10.429 | 2 | 36.271 | 10.917 | 32.315 | 2 |
| 2025-05-07T12:28:00 | 54.220909 | 7.594251 | 2.0 | 10.135 | 2 | 35.987 | 10.553 | 32.354 | 2 |
| 2025-05-07T12:29:00 | 54.219038 | 7.592984 | 2.0 | 10.206 | 2 | 35.816 | 10.381 | 32.336 | 2 |
| 2025-05-07T12:30:00 | 54.217096 | 7.591672 | 2.0 | 10.223 | 2 | 35.864 | 10.432 | 32.339 | 2 |
| 2025-05-07T12:31:00 | 54.215229 | 7.590444 | 2.0 | 10.114 | 2 | 35.861 | 10.418 | 32.348 | 2 |
| 2025-05-07T12:32:00 | 54.213523 | 7.589313 | 2.0 | 10.147 | 2 | 35.766 | 10.330 | 32.331 | 2 |
| 2025-05-07T12:33:00 | 54.211894 | 7.588232 | 2.0 | 10.121 | 2 | 35.778 | 10.343 | 32.331 | 2 |
| 2025-05-07T12:34:00 | 54.210316 | 7.587170 | 2.0 | 10.216 | 2 | 35.780 | 10.346 | 32.331 | 2 |
| 2025-05-07T12:35:00 | 54.209131 | 7.586009 | 2.0 | 10.182 | 2 | 35.846 | 10.419 | 32.332 | 2 |
| 2025-05-07T12:36:00 | 54.209089 | 7.584936 | 2.0 | 10.138 | 2 | 35.803 | 10.355 | 32.346 | 2 |
| 2025-05-07T12:37:00 | 54.209315 | 7.584470 | 2.0 | 10.491 | 2 | 35.830 | 10.410 | 32.324 | 2 |
| 2025-05-07T12:38:00 | 54.209765 | 7.584691 | 2.0 | 10.359 | 2 | 36.037 | 10.636 | 32.330 | 2 |
| 2025-05-07T12:39:00 | 54.210090 | 7.585763 | 2.0 | 10.332 | 2 | 36.002 | 10.575 | 32.350 | 2 |
| 2025-05-07T12:40:00 | 54.210280 | 7.586879 | 2.0 | 10.412 | 2 | 35.983 | 10.561 | 32.343 | 2 |
| 2025-05-07T12:41:00 | 54.210420 | 7.587864 | 2.0 | 10.303 | 2 | 36.021 | 10.598 | 32.348 | 2 |
| 2025-05-07T12:42:00 | 54.210469 | 7.588813 | 2.0 | 10.388 | 2 | 35.959 | 10.520 | 32.355 | 2 |
| 2025-05-07T12:43:00 | 54.210505 | 7.589694 | 2.0 | 10.606 | 2 | 36.056 | 10.636 | 32.349 | 2 |
| 2025-05-07T12:44:00 | 54.210525 | 7.590512 | 2.0 | 10.574 | 2 | 36.191 | 10.763 | 32.371 | 2 |
| 2025-05-07T12:45:00 | 54.210525 | 7.591230 | 2.0 | 10.705 | 2 | 36.240 | 10.814 | 32.375 | 2 |
| 2025-05-07T12:46:00 | 54.210498 | 7.591825 | 2.0 | 10.421 | 2 | 36.309 | 10.870 | 32.394 | 2 |
| 2025-05-07T12:47:00 | 54.210470 | 7.592183 | 2.0 | 10.821 | 2 | 36.111 | 10.658 | 32.385 | 2 |
| 2025-05-07T12:48:00 | 54.210457 | 7.592397 | 2.0 | 10.960 | 2 | 36.420 | 11.005 | 32.385 | 2 |
| 2025-05-07T12:49:00 | 54.210421 | 7.592541 | 2.0 | 10.946 | 2 | 36.594 | 11.165 | 32.415 | 2 |
| 2025-05-07T12:50:00 | 54.210366 | 7.592697 | 2.0 | 10.831 | 2 | 36.568 | 11.127 | 32.423 | 2 |
| 2025-05-07T12:51:00 | 54.210333 | 7.592916 | 2.0 | 11.005 | 2 | 36.492 | 11.047 | 32.419 | 2 |
| 2025-05-07T12:52:00 | 54.210316 | 7.593203 | 2.0 | 10.948 | 2 | 36.617 | 11.184 | 32.421 | 2 |
| 2025-05-07T12:53:00 | 54.210367 | 7.593503 | 2.0 | 10.715 | 2 | 36.561 | 11.099 | 32.441 | 2 |
| 2025-05-07T12:54:00 | 54.210464 | 7.593723 | 2.0 | 11.054 | 2 | 36.442 | 10.984 | 32.425 | 2 |
| 2025-05-07T12:55:00 | 54.210580 | 7.593941 | 2.0 | 10.383 | 2 | 36.596 | 11.136 | 32.443 | 2 |
| 2025-05-07T12:56:00 | 54.210712 | 7.594138 | 2.0 | 10.448 | 2 | 36.117 | 10.619 | 32.425 | 2 |
| 2025-05-07T12:57:00 | 54.210758 | 7.594585 | 2.0 | 10.473 | 2 | 36.106 | 10.617 | 32.416 | 2 |
| 2025-05-07T12:58:00 | 54.210762 | 7.595133 | 2.0 | 10.646 | 2 | 36.213 | 10.745 | 32.409 | 2 |
| 2025-05-07T12:59:00 | 54.210751 | 7.595692 | 2.0 | 10.588 | 2 | 36.321 | 10.832 | 32.439 | 2 |
| 2025-05-07T13:00:00 | 54.210758 | 7.596011 | 2.0 | 10.958 | 2 | 36.279 | 10.786 | 32.438 | 2 |
| 2025-05-07T13:01:00 | 54.210789 | 7.596204 | 2.0 | 11.230 | 2 | 36.633 | 11.194 | 32.428 | 2 |
| 2025-05-07T13:02:00 | 54.210777 | 7.596238 | 2.0 | 10.831 | 2 | 36.824 | 11.353 | 32.476 | 2 |
| 2025-05-07T13:03:00 | 54.210849 | 7.596274 | 2.0 | 10.411 | 2 | 36.426 | 10.887 | 32.495 | 2 |
| 2025-05-07T13:04:00 | 54.210953 | 7.596338 | 2.0 | 10.298 | 2 | 36.176 | 10.660 | 32.448 | 2 |
| 2025-05-07T13:05:00 | 54.211039 | 7.596565 | 2.0 | 10.335 | 2 | 36.145 | 10.637 | 32.437 | 2 |
| 2025-05-07T13:06:00 | 54.211185 | 7.596935 | 2.0 | 10.159 | 2 | 36.044 | 10.513 | 32.447 | 2 |
| 2025-05-07T13:07:00 | 54.211354 | 7.597384 | 2.0 | 10.178 | 2 | 35.902 | 10.379 | 32.424 | 2 |
| 2025-05-07T13:08:00 | 54.211512 | 7.597899 | 2.0 | 10.383 | 2 | 35.977 | 10.470 | 32.418 | 2 |
| 2025-05-07T13:09:00 | 54.211621 | 7.598502 | 2.0 | 10.183 | 2 | 36.045 | 10.512 | 32.449 | 2 |
| 2025-05-07T13:10:00 | 54.211680 | 7.599168 | 2.0 | 10.431 | 2 | 36.006 | 10.490 | 32.429 | 2 |
| 2025-05-07T13:11:00 | 54.211695 | 7.599611 | 2.0 | 10.969 | 2 | 36.164 | 10.651 | 32.444 | 2 |
| 2025-05-07T13:12:00 | 54.211646 | 7.599705 | 2.0 | 11.272 | 2 | 36.639 | 11.210 | 32.420 | 2 |
| 2025-05-07T13:13:00 | 54.211610 | 7.599767 | 2.0 | 11.122 | 2 | 36.886 | 11.436 | 32.464 | 2 |
| 2025-05-07T13:14:00 | 54.211582 | 7.599870 | 2.0 | 11.124 | 2 | 36.783 | 11.298 | 32.484 | 2 |
| 2025-05-07T13:15:00 | 54.211552 | 7.599953 | 2.0 | 11.215 | 2 | 36.786 | 11.328 | 32.461 | 2 |
| 2025-05-07T13:16:00 | 54.211536 | 7.599873 | 2.0 | 11.339 | 2 | 36.876 | 11.434 | 32.456 | 2 |
| 2025-05-07T13:17:00 | 54.211527 | 7.599938 | 2.0 | 11.320 | 2 | 36.967 | 11.530 | 32.460 | 2 |
| 2025-05-07T13:18:00 | 54.211510 | 7.600207 | 2.0 | 10.979 | 2 | 36.916 | 11.463 | 32.469 | 2 |
| 2025-05-07T13:19:00 | 54.211518 | 7.600592 | 2.0 | 11.122 | 2 | 36.683 | 11.199 | 32.473 | 2 |
| 2025-05-07T13:20:00 | 54.211519 | 7.601165 | 2.0 | 10.747 | 2 | 36.703 | 11.216 | 32.478 | 2 |
| 2025-05-07T13:21:00 | 54.211545 | 7.602136 | 2.0 | 10.573 | 2 | 36.465 | 10.945 | 32.482 | 2 |
| 2025-05-07T13:22:00 | 54.211597 | 7.603328 | 2.0 | 10.477 | 2 | 36.303 | 10.773 | 32.474 | 2 |
| 2025-05-07T13:23:00 | 54.211638 | 7.604493 | 2.0 | 10.488 | 2 | 36.231 | 10.705 | 32.463 | 2 |
| 2025-05-07T13:24:00 | 54.211681 | 7.605540 | 2.0 | 10.527 | 2 | 36.219 | 10.699 | 32.456 | 2 |
| 2025-05-07T13:25:00 | 54.211722 | 7.606461 | 2.0 | 10.501 | 2 | 36.249 | 10.734 | 32.455 | 2 |
| 2025-05-07T13:26:00 | 54.211764 | 7.607477 | 2.0 | 10.536 | 2 | 36.226 | 10.696 | 32.466 | 2 |
| 2025-05-07T13:27:00 | 54.211810 | 7.608578 | 2.0 | 10.470 | 2 | 36.229 | 10.699 | 32.466 | 2 |
| 2025-05-07T13:28:00 | 54.211867 | 7.609745 | 2.0 | 10.496 | 2 | 36.244 | 10.717 | 32.465 | 2 |
| 2025-05-07T13:29:00 | 54.211927 | 7.610934 | 2.0 | 10.549 | 2 | 36.232 | 10.694 | 32.473 | 2 |
| 2025-05-07T13:30:00 | 54.211979 | 7.612176 | 2.0 | 10.566 | 2 | 36.286 | 10.757 | 32.471 | 2 |
| 2025-05-07T13:31:00 | 54.212033 | 7.613488 | 2.0 | 10.456 | 2 | 36.291 | 10.751 | 32.481 | 2 |
| 2025-05-07T13:32:00 | 54.212245 | 7.614441 | 2.0 | 10.480 | 2 | 36.188 | 10.625 | 32.491 | 2 |
| 2025-05-07T13:33:00 | 54.212721 | 7.614682 | 2.0 | 10.464 | 2 | 36.239 | 10.699 | 32.476 | 2 |
| 2025-05-07T13:34:00 | 54.213213 | 7.614526 | 2.0 | 10.475 | 2 | 36.194 | 10.641 | 32.483 | 2 |
| 2025-05-07T13:35:00 | 54.213628 | 7.614164 | 2.0 | 10.353 | 2 | 36.181 | 10.620 | 32.488 | 2 |
| 2025-05-07T13:36:00 | 54.213986 | 7.613767 | 2.0 | 10.325 | 2 | 36.124 | 10.559 | 32.486 | 2 |
| 2025-05-07T13:37:00 | 54.214314 | 7.613352 | 2.0 | 10.240 | 2 | 36.080 | 10.498 | 32.496 | 2 |
| 2025-05-07T13:38:00 | 54.214732 | 7.612712 | 2.0 | 10.236 | 2 | 36.019 | 10.431 | 32.495 | 2 |
| 2025-05-07T13:39:00 | 54.215270 | 7.611858 | 2.0 | 10.115 | 2 | 36.004 | 10.411 | 32.498 | 2 |
| 2025-05-07T13:40:00 | 54.215832 | 7.610935 | 2.0 | 10.066 | 2 | 35.919 | 10.304 | 32.508 | 2 |
| 2025-05-07T13:41:00 | 54.216382 | 7.610034 | 2.0 | 10.064 | 2 | 35.877 | 10.266 | 32.500 | 2 |
| 2025-05-07T13:42:00 | 54.216946 | 7.609090 | 2.0 | 10.250 | 2 | 35.886 | 10.283 | 32.494 | 2 |
| 2025-05-07T13:43:00 | 54.217503 | 7.608151 | 2.0 | 10.273 | 2 | 36.030 | 10.453 | 32.486 | 2 |
| 2025-05-07T13:44:00 | 54.218051 | 7.607230 | 2.0 | 10.141 | 2 | 36.020 | 10.430 | 32.497 | 2 |
| 2025-05-07T13:45:00 | 54.218623 | 7.606264 | 2.0 | 10.163 | 2 | 35.948 | 10.351 | 32.495 | 2 |
| 2025-05-07T13:46:00 | 54.219241 | 7.605238 | 2.0 | 10.198 | 2 | 35.941 | 10.351 | 32.488 | 2 |
| 2025-05-07T13:47:00 | 54.219701 | 7.604287 | 2.0 | 10.183 | 2 | 35.983 | 10.412 | 32.476 | 2 |
| 2025-05-07T13:48:00 | 54.220046 | 7.603691 | 2.0 | 10.213 | 2 | 35.953 | 10.380 | 32.474 | 2 |
| 2025-05-07T13:49:00 | 54.220346 | 7.603268 | 2.0 | 10.186 | 2 | 35.948 | 10.381 | 32.468 | 2 |
| 2025-05-07T13:50:00 | 54.220607 | 7.602900 | 2.0 | 10.302 | 2 | 35.956 | 10.403 | 32.457 | 2 |
| 2025-05-07T13:51:00 | 54.220851 | 7.602534 | 2.0 | 10.305 | 2 | 36.034 | 10.494 | 32.454 | 2 |
| 2025-05-07T13:52:00 | 54.221097 | 7.602184 | 2.0 | 10.145 | 2 | 35.998 | 10.444 | 32.462 | 2 |
| 2025-05-07T13:53:00 | 54.221328 | 7.601838 | 2.0 | 10.123 | 2 | 35.900 | 10.351 | 32.447 | 2 |
| 2025-05-07T13:54:00 | 54.221530 | 7.601538 | 2.0 | 10.145 | 2 | 35.867 | 10.331 | 32.432 | 2 |
| 2025-05-07T13:55:00 | 54.221717 | 7.601298 | 2.0 | 10.097 | 2 | 35.866 | 10.325 | 32.436 | 2 |
| 2025-05-07T13:56:00 | 54.221880 | 7.601074 | 2.0 | 10.062 | 2 | 35.816 | 10.280 | 32.426 | 2 |
| 2025-05-07T13:57:00 | 54.222033 | 7.600860 | 2.0 | 10.100 | 2 | 35.791 | 10.257 | 32.421 | 2 |
| 2025-05-07T13:58:00 | 54.222163 | 7.600691 | 2.0 | 10.131 | 2 | 35.822 | 10.296 | 32.418 | 2 |
| 2025-05-07T13:59:00 | 54.222283 | 7.600525 | 2.0 | 10.082 | 2 | 35.830 | 10.301 | 32.421 | 2 |
| 2025-05-07T14:00:00 | 54.222392 | 7.600365 | 2.0 | 10.073 | 2 | 35.789 | 10.261 | 32.416 | 2 |
| 2025-05-07T14:01:00 | 54.222495 | 7.600220 | 2.0 | 10.093 | 2 | 35.780 | 10.257 | 32.410 | 2 |
| 2025-05-07T14:02:00 | 54.222590 | 7.600109 | 2.0 | 10.123 | 2 | 35.800 | 10.281 | 32.409 | 2 |
| 2025-05-07T14:03:00 | 54.222663 | 7.600012 | 2.0 | 10.117 | 2 | 35.817 | 10.298 | 32.411 | 2 |
| 2025-05-07T14:04:00 | 54.222738 | 7.599927 | 2.0 | 10.096 | 2 | 35.815 | 10.295 | 32.411 | 2 |
| 2025-05-07T14:05:00 | 54.222799 | 7.599854 | 2.0 | 10.081 | 2 | 35.794 | 10.273 | 32.410 | 2 |
| 2025-05-07T14:06:00 | 54.222839 | 7.599808 | 2.0 | 10.123 | 2 | 35.791 | 10.275 | 32.405 | 2 |
| 2025-05-07T14:07:00 | 54.222876 | 7.599780 | 2.0 | 10.186 | 2 | 35.822 | 10.309 | 32.406 | 2 |
| 2025-05-07T14:08:00 | 54.222903 | 7.599772 | 2.0 | 10.459 | 2 | 35.921 | 10.424 | 32.403 | 2 |
| 2025-05-07T14:09:00 | 54.222917 | 7.599781 | 2.0 | 10.460 | 2 | 36.100 | 10.607 | 32.419 | 2 |
| 2025-05-07T14:10:00 | 54.222929 | 7.599794 | 2.0 | 10.459 | 2 | 36.139 | 10.637 | 32.431 | 2 |
| 2025-05-07T14:11:00 | 54.222925 | 7.599834 | 2.0 | 10.291 | 2 | 36.113 | 10.604 | 32.435 | 2 |
| 2025-05-07T14:12:00 | 54.222909 | 7.599902 | 2.0 | 10.290 | 2 | 35.992 | 10.481 | 32.423 | 2 |
| 2025-05-07T14:13:00 | 54.222892 | 7.599977 | 2.0 | 10.286 | 2 | 35.989 | 10.484 | 32.417 | 2 |
| 2025-05-07T14:14:00 | 54.222872 | 7.600042 | 2.0 | 10.235 | 2 | 35.976 | 10.466 | 32.420 | 2 |
| 2025-05-07T14:15:00 | 54.223167 | 7.599763 | 2.0 | 10.318 | 2 | 35.925 | 10.414 | 32.416 | 2 |
| 2025-05-07T14:16:00 | 54.223732 | 7.599106 | 2.0 | 10.366 | 2 | 36.022 | 10.532 | 32.408 | 2 |
| 2025-05-07T14:17:00 | 54.224382 | 7.598263 | 2.0 | 10.290 | 2 | 36.026 | 10.536 | 32.408 | 2 |
| 2025-05-07T14:18:00 | 54.224961 | 7.597471 | 2.0 | 10.203 | 2 | 35.952 | 10.466 | 32.396 | 2 |
| 2025-05-07T14:19:00 | 54.225537 | 7.596661 | 2.0 | 10.181 | 2 | 35.886 | 10.411 | 32.379 | 2 |
| 2025-05-07T14:20:00 | 54.226160 | 7.595773 | 2.0 | 10.165 | 2 | 35.829 | 10.359 | 32.368 | 2 |
| 2025-05-07T14:21:00 | 54.226793 | 7.594893 | 2.0 | 10.161 | 2 | 35.804 | 10.351 | 32.350 | 2 |
| 2025-05-07T14:22:00 | 54.227439 | 7.593972 | 2.0 | 10.150 | 2 | 35.782 | 10.335 | 32.343 | 2 |
| 2025-05-07T14:23:00 | 54.228098 | 7.593046 | 2.0 | 10.149 | 2 | 35.767 | 10.332 | 32.330 | 2 |
| 2025-05-07T14:24:00 | 54.228712 | 7.592179 | 2.0 | 10.159 | 2 | 35.754 | 10.327 | 32.322 | 2 |
| 2025-05-07T14:25:00 | 54.229198 | 7.591511 | 2.0 | 10.189 | 2 | 35.760 | 10.345 | 32.312 | 2 |
| 2025-05-07T14:26:00 | 54.229554 | 7.591016 | 2.0 | 10.200 | 2 | 35.773 | 10.364 | 32.308 | 2 |
| 2025-05-07T14:27:00 | 54.229940 | 7.590506 | 2.0 | 10.250 | 2 | 35.790 | 10.389 | 32.303 | 2 |
| 2025-05-07T14:28:00 | 54.230467 | 7.589801 | 2.0 | 10.286 | 2 | 35.823 | 10.429 | 32.300 | 2 |
| 2025-05-07T14:29:00 | 54.231069 | 7.588984 | 2.0 | 10.362 | 2 | 35.857 | 10.480 | 32.289 | 2 |
| 2025-05-07T14:30:00 | 54.231724 | 7.588098 | 2.0 | 10.388 | 2 | 35.910 | 10.539 | 32.290 | 2 |
| 2025-05-07T14:31:00 | 54.232449 | 7.587095 | 2.0 | 10.419 | 2 | 35.936 | 10.580 | 32.279 | 2 |
| 2025-05-07T14:32:00 | 54.233189 | 7.586111 | 2.0 | 10.400 | 2 | 35.942 | 10.592 | 32.275 | 2 |
| 2025-05-07T14:33:00 | 54.234042 | 7.585185 | 2.0 | 10.415 | 2 | 35.941 | 10.605 | 32.262 | 2 |
| 2025-05-07T14:34:00 | 54.234968 | 7.584232 | 2.0 | 10.374 | 2 | 35.912 | 10.579 | 32.256 | 2 |
| 2025-05-07T14:35:00 | 54.235958 | 7.583266 | 2.0 | 10.466 | 2 | 35.905 | 10.594 | 32.236 | 2 |
| 2025-05-07T14:36:00 | 54.237037 | 7.582379 | 2.0 | 10.613 | 2 | 35.943 | 10.643 | 32.231 | 2 |
| 2025-05-07T14:37:00 | 54.238134 | 7.581498 | 2.0 | 10.570 | 2 | 36.050 | 10.770 | 32.225 | 2 |
| 2025-05-07T14:38:00 | 54.239053 | 7.580776 | 2.0 | 10.639 | 2 | 36.034 | 10.760 | 32.218 | 2 |
| 2025-05-07T14:39:00 | 54.239777 | 7.580262 | 2.0 | 10.665 | 2 | 36.100 | 10.846 | 32.208 | 2 |
| 2025-05-07T14:40:00 | 54.240312 | 7.579889 | 2.0 | 10.445 | 2 | 36.051 | 10.777 | 32.220 | 2 |
| 2025-05-07T14:41:00 | 54.240578 | 7.579480 | 2.0 | 10.349 | 2 | 35.900 | 10.618 | 32.210 | 2 |
| 2025-05-07T14:42:00 | 54.240680 | 7.579097 | 2.0 | 10.353 | 2 | 35.824 | 10.548 | 32.196 | 2 |
| 2025-05-07T14:43:00 | 54.240735 | 7.578895 | 2.0 | 10.397 | 2 | 35.819 | 10.545 | 32.193 | 2 |
| 2025-05-07T14:44:00 | 54.240747 | 7.578818 | 2.0 | 10.969 | 2 | 35.920 | 10.676 | 32.179 | 2 |
| 2025-05-07T14:45:00 | 54.240701 | 7.578818 | 2.0 | 11.147 | 2 | 36.377 | 11.178 | 32.190 | 2 |
| 2025-05-07T14:46:00 | 54.240620 | 7.578867 | 2.0 | 11.494 | 2 | 36.586 | 11.403 | 32.199 | 2 |
| 2025-05-07T14:47:00 | 54.240519 | 7.579002 | 2.0 | 11.448 | 2 | 36.849 | 11.664 | 32.228 | 2 |
| 2025-05-07T14:48:00 | 54.240408 | 7.579222 | 2.0 | 11.620 | 2 | 36.793 | 11.590 | 32.238 | 2 |
| 2025-05-07T14:49:00 | 54.240290 | 7.579485 | 2.0 | 11.750 | 2 | 36.993 | 11.824 | 32.229 | 2 |
| 2025-05-07T14:50:00 | 54.240159 | 7.579781 | 2.0 | 11.792 | 2 | 37.097 | 11.929 | 32.239 | 2 |
| 2025-05-07T14:51:00 | 54.240033 | 7.580118 | 2.0 | 11.718 | 2 | 37.126 | 11.947 | 32.252 | 2 |
| 2025-05-07T14:52:00 | 54.239906 | 7.580467 | 2.0 | 11.494 | 2 | 37.037 | 11.841 | 32.257 | 2 |
| 2025-05-07T14:53:00 | 54.239778 | 7.580830 | 2.0 | 11.623 | 2 | 36.907 | 11.705 | 32.249 | 2 |
| 2025-05-07T14:54:00 | 54.239670 | 7.581201 | 2.0 | 11.659 | 2 | 36.980 | 11.797 | 32.240 | 2 |
| 2025-05-07T14:55:00 | 54.239556 | 7.581583 | 2.0 | 11.671 | 2 | 36.999 | 11.808 | 32.249 | 2 |
| 2025-05-07T14:56:00 | 54.239430 | 7.581979 | 2.0 | 11.751 | 2 | 37.035 | 11.849 | 32.248 | 2 |
| 2025-05-07T14:57:00 | 54.239291 | 7.582368 | 2.0 | 11.701 | 2 | 37.094 | 11.909 | 32.254 | 2 |
| 2025-05-07T14:58:00 | 54.239136 | 7.582711 | 2.0 | 11.672 | 2 | 37.060 | 11.863 | 32.261 | 2 |
| 2025-05-07T14:59:00 | 54.238984 | 7.583018 | 2.0 | 11.607 | 2 | 37.023 | 11.824 | 32.259 | 2 |
| 2025-05-07T15:00:00 | 54.238832 | 7.583298 | 2.0 | 11.644 | 2 | 36.997 | 11.800 | 32.254 | 2 |
| 2025-05-07T15:01:00 | 54.238680 | 7.583568 | 2.0 | 11.706 | 2 | 37.017 | 11.826 | 32.251 | 2 |
| 2025-05-07T15:02:00 | 54.238530 | 7.583885 | 2.0 | 11.658 | 2 | 37.051 | 11.856 | 32.258 | 2 |
| 2025-05-07T15:03:00 | 54.238383 | 7.584261 | 2.0 | 11.629 | 2 | 37.027 | 11.825 | 32.262 | 2 |
| 2025-05-07T15:04:00 | 54.238239 | 7.584681 | 2.0 | 11.272 | 2 | 36.857 | 11.621 | 32.274 | 2 |
| 2025-05-07T15:05:00 | 54.238098 | 7.585128 | 2.0 | 11.352 | 2 | 36.676 | 11.448 | 32.248 | 2 |
| 2025-05-07T15:06:00 | 54.237958 | 7.585591 | 2.0 | 11.377 | 2 | 36.726 | 11.511 | 32.242 | 2 |
| 2025-05-07T15:07:00 | 54.237808 | 7.586057 | 2.0 | 11.153 | 2 | 36.698 | 11.457 | 32.261 | 2 |
| 2025-05-07T15:08:00 | 54.237655 | 7.586532 | 2.0 | 11.236 | 2 | 36.632 | 11.412 | 32.236 | 2 |
| 2025-05-07T15:09:00 | 54.237499 | 7.586984 | 2.0 | 11.258 | 2 | 36.661 | 11.433 | 32.246 | 2 |
| 2025-05-07T15:10:00 | 54.237318 | 7.587419 | 2.0 | 11.362 | 2 | 36.684 | 11.460 | 32.245 | 2 |
| 2025-05-07T15:11:00 | 54.237119 | 7.587855 | 2.0 | 11.369 | 2 | 36.743 | 11.518 | 32.252 | 2 |
| 2025-05-07T15:12:00 | 54.236924 | 7.588327 | 2.0 | 11.475 | 2 | 36.800 | 11.586 | 32.249 | 2 |
| 2025-05-07T15:13:00 | 54.236736 | 7.588821 | 2.0 | 11.387 | 2 | 36.862 | 11.641 | 32.261 | 2 |
| 2025-05-07T15:14:00 | 54.236551 | 7.589323 | 2.0 | 11.408 | 2 | 36.794 | 11.565 | 32.261 | 2 |
| 2025-05-07T15:15:00 | 54.236352 | 7.589855 | 2.0 | 11.399 | 2 | 36.817 | 11.593 | 32.259 | 2 |
| 2025-05-07T15:16:00 | 54.236153 | 7.590392 | 2.0 | 11.372 | 2 | 36.778 | 11.549 | 32.259 | 2 |
| 2025-05-07T15:17:00 | 54.235954 | 7.590932 | 2.0 | 11.304 | 2 | 36.760 | 11.540 | 32.250 | 2 |
| 2025-05-07T15:18:00 | 54.235737 | 7.591486 | 2.0 | 11.296 | 2 | 36.706 | 11.486 | 32.244 | 2 |
| 2025-05-07T15:19:00 | 54.235526 | 7.592034 | 2.0 | 11.271 | 2 | 36.709 | 11.474 | 32.257 | 2 |
| 2025-05-07T15:20:00 | 54.235315 | 7.592586 | 2.0 | 11.267 | 2 | 36.686 | 11.446 | 32.259 | 2 |
| 2025-05-07T15:21:00 | 54.235093 | 7.593156 | 2.0 | 11.236 | 2 | 36.682 | 11.449 | 32.253 | 2 |
| 2025-05-07T15:22:00 | 54.234859 | 7.593722 | 2.0 | 11.225 | 2 | 36.639 | 11.399 | 32.254 | 2 |
| 2025-05-07T15:23:00 | 54.234617 | 7.594279 | 2.0 | 11.167 | 2 | 36.642 | 11.413 | 32.245 | 2 |
| 2025-05-07T15:24:00 | 54.234369 | 7.594793 | 2.0 | 11.069 | 2 | 36.568 | 11.323 | 32.251 | 2 |
| 2025-05-07T15:25:00 | 54.234121 | 7.595310 | 2.0 | 11.028 | 2 | 36.493 | 11.237 | 32.253 | 2 |
| 2025-05-07T15:26:00 | 54.233874 | 7.595847 | 2.0 | 11.065 | 2 | 36.473 | 11.211 | 32.256 | 2 |
| 2025-05-07T15:27:00 | 54.233627 | 7.596400 | 2.0 | 11.097 | 2 | 36.501 | 11.245 | 32.254 | 2 |
| 2025-05-07T15:28:00 | 54.233376 | 7.596959 | 2.0 | 11.148 | 2 | 36.529 | 11.270 | 32.259 | 2 |
| 2025-05-07T15:29:00 | 54.233133 | 7.597519 | 2.0 | 11.155 | 2 | 36.584 | 11.329 | 32.262 | 2 |
| 2025-05-07T15:30:00 | 54.232887 | 7.598081 | 2.0 | 11.076 | 2 | 36.578 | 11.312 | 32.271 | 2 |
| 2025-05-07T15:31:00 | 54.232636 | 7.598636 | 2.0 | 10.961 | 2 | 36.513 | 11.240 | 32.270 | 2 |
| 2025-05-07T15:32:00 | 54.232384 | 7.599200 | 2.0 | 10.962 | 2 | 36.423 | 11.143 | 32.266 | 2 |
| 2025-05-07T15:33:00 | 54.232122 | 7.599766 | 2.0 | 11.020 | 2 | 36.419 | 11.150 | 32.256 | 2 |
| 2025-05-07T15:34:00 | 54.231866 | 7.600322 | 2.0 | 10.950 | 2 | 36.459 | 11.187 | 32.263 | 2 |
| 2025-05-07T15:35:00 | 54.231608 | 7.600874 | 2.0 | 10.964 | 2 | 36.410 | 11.131 | 32.264 | 2 |
| 2025-05-07T15:36:00 | 54.231350 | 7.601439 | 2.0 | 10.896 | 2 | 36.416 | 11.136 | 32.265 | 2 |
| 2025-05-07T15:37:00 | 54.231087 | 7.602011 | 2.0 | 10.889 | 2 | 36.374 | 11.087 | 32.267 | 2 |
| 2025-05-07T15:38:00 | 54.230822 | 7.602594 | 2.0 | 10.898 | 2 | 36.354 | 11.067 | 32.265 | 2 |
| 2025-05-07T15:39:00 | 54.230550 | 7.603195 | 2.0 | 10.921 | 2 | 36.375 | 11.092 | 32.264 | 2 |
| 2025-05-07T15:40:00 | 54.230285 | 7.603796 | 2.0 | 10.939 | 2 | 36.393 | 11.111 | 32.265 | 2 |
| 2025-05-07T15:41:00 | 54.230011 | 7.604386 | 2.0 | 10.981 | 2 | 36.410 | 11.127 | 32.267 | 2 |
| 2025-05-07T15:42:00 | 54.229734 | 7.604944 | 2.0 | 10.776 | 2 | 36.417 | 11.119 | 32.281 | 2 |
| 2025-05-07T15:43:00 | 54.229443 | 7.605472 | 2.0 | 10.837 | 2 | 36.275 | 10.969 | 32.273 | 2 |
| 2025-05-07T15:44:00 | 54.229159 | 7.606005 | 2.0 | 10.921 | 2 | 36.328 | 11.033 | 32.269 | 2 |
| 2025-05-07T15:45:00 | 54.228879 | 7.606526 | 2.0 | 10.848 | 2 | 36.375 | 11.069 | 32.284 | 2 |
| 2025-05-07T15:46:00 | 54.228596 | 7.607041 | 2.0 | 10.943 | 2 | 36.358 | 11.058 | 32.277 | 2 |
| 2025-05-07T15:47:00 | 54.228314 | 7.607548 | 2.0 | 10.916 | 2 | 36.403 | 11.102 | 32.282 | 2 |
| 2025-05-07T15:48:00 | 54.228024 | 7.608061 | 2.0 | 10.947 | 2 | 36.406 | 11.107 | 32.281 | 2 |
| 2025-05-07T15:49:00 | 54.227732 | 7.608564 | 2.0 | 10.856 | 2 | 36.409 | 11.100 | 32.290 | 2 |
| 2025-05-07T15:50:00 | 54.227443 | 7.609051 | 2.0 | 10.898 | 2 | 36.366 | 11.058 | 32.285 | 2 |
| 2025-05-07T15:51:00 | 54.227162 | 7.609509 | 2.0 | 10.892 | 2 | 36.377 | 11.067 | 32.288 | 2 |
| 2025-05-07T15:52:00 | 54.226871 | 7.609941 | 2.0 | 10.876 | 2 | 36.371 | 11.058 | 32.290 | 2 |
| 2025-05-07T15:53:00 | 54.226569 | 7.610367 | 2.0 | 10.890 | 2 | 36.364 | 11.053 | 32.287 | 2 |
| 2025-05-07T15:54:00 | 54.226266 | 7.610787 | 2.0 | 10.881 | 2 | 36.371 | 11.058 | 32.290 | 2 |
| 2025-05-07T15:55:00 | 54.225969 | 7.611200 | 2.0 | 10.849 | 2 | 36.364 | 11.046 | 32.293 | 2 |
| 2025-05-07T15:56:00 | 54.225691 | 7.611560 | 2.0 | 10.916 | 2 | 36.352 | 11.038 | 32.288 | 2 |
| 2025-05-07T15:57:00 | 54.225418 | 7.611873 | 2.0 | 10.891 | 2 | 36.393 | 11.075 | 32.296 | 2 |
| 2025-05-07T15:58:00 | 54.225165 | 7.612135 | 2.0 | 10.891 | 2 | 36.387 | 11.065 | 32.299 | 2 |
| 2025-05-07T15:59:00 | 54.224925 | 7.612341 | 2.0 | 10.936 | 2 | 36.394 | 11.076 | 32.296 | 2 |
| 2025-05-07T16:00:00 | 54.224700 | 7.612515 | 2.0 | 10.884 | 2 | 36.415 | 11.088 | 32.307 | 2 |
| 2025-05-07T16:01:00 | 54.224511 | 7.612625 | 2.0 | 10.817 | 2 | 36.381 | 11.050 | 32.306 | 2 |
| 2025-05-07T16:02:00 | 54.224318 | 7.612762 | 2.0 | 10.825 | 2 | 36.331 | 10.999 | 32.302 | 2 |
| 2025-05-07T16:03:00 | 54.224114 | 7.612938 | 2.0 | 10.843 | 2 | 36.309 | 10.977 | 32.300 | 2 |
| 2025-05-07T16:04:00 | 54.223906 | 7.613137 | 2.0 | 10.943 | 2 | 36.365 | 11.047 | 32.293 | 2 |
| 2025-05-07T16:05:00 | 54.223694 | 7.613332 | 2.0 | 10.929 | 2 | 36.422 | 11.102 | 32.301 | 2 |
| 2025-05-07T16:06:00 | 54.223480 | 7.613552 | 2.0 | 11.012 | 2 | 36.450 | 11.137 | 32.298 | 2 |
| 2025-05-07T16:07:00 | 54.223267 | 7.613777 | 2.0 | 10.991 | 2 | 36.490 | 11.175 | 32.304 | 2 |
| 2025-05-07T16:08:00 | 54.223072 | 7.613940 | 2.0 | 10.953 | 2 | 36.480 | 11.162 | 32.306 | 2 |
| 2025-05-07T16:09:00 | 54.222899 | 7.614039 | 2.0 | 10.832 | 2 | 36.439 | 11.110 | 32.311 | 2 |
| 2025-05-07T16:10:00 | 54.222729 | 7.614121 | 2.0 | 10.778 | 2 | 36.341 | 11.004 | 32.307 | 2 |
| 2025-05-07T16:11:00 | 54.222562 | 7.614199 | 2.0 | 10.770 | 2 | 36.292 | 10.958 | 32.299 | 2 |
| 2025-05-07T16:12:00 | 54.222399 | 7.614301 | 2.0 | 10.791 | 2 | 36.296 | 10.968 | 32.295 | 2 |
| 2025-05-07T16:13:00 | 54.222246 | 7.614408 | 2.0 | 10.770 | 2 | 36.273 | 10.936 | 32.300 | 2 |
| 2025-05-07T16:14:00 | 54.222083 | 7.614548 | 2.0 | 10.696 | 2 | 36.282 | 10.954 | 32.293 | 2 |
| 2025-05-07T16:15:00 | 54.221923 | 7.614700 | 2.0 | 10.662 | 2 | 36.208 | 10.863 | 32.300 | 2 |
| 2025-05-07T16:16:00 | 54.221758 | 7.614864 | 2.0 | 10.766 | 2 | 36.201 | 10.863 | 32.293 | 2 |
| 2025-05-07T16:17:00 | 54.221591 | 7.615038 | 2.0 | 10.789 | 2 | 36.275 | 10.953 | 32.287 | 2 |
| 2025-05-07T16:18:00 | 54.221421 | 7.615235 | 2.0 | 10.869 | 2 | 36.270 | 10.940 | 32.293 | 2 |
| 2025-05-07T16:19:00 | 54.221216 | 7.615508 | 2.0 | 10.911 | 2 | 36.361 | 11.046 | 32.290 | 2 |
| 2025-05-07T16:20:00 | 54.220991 | 7.615863 | 2.0 | 10.918 | 2 | 36.403 | 11.086 | 32.297 | 2 |
| 2025-05-07T16:21:00 | 54.220755 | 7.616253 | 2.0 | 11.017 | 2 | 36.448 | 11.144 | 32.290 | 2 |
| 2025-05-07T16:22:00 | 54.220501 | 7.616668 | 2.0 | 10.977 | 2 | 36.486 | 11.174 | 32.301 | 2 |
| 2025-05-07T16:23:00 | 54.220237 | 7.617097 | 2.0 | 10.995 | 2 | 36.453 | 11.138 | 32.300 | 2 |
| 2025-05-07T16:24:00 | 54.219959 | 7.617546 | 2.0 | 10.940 | 2 | 36.462 | 11.150 | 32.298 | 2 |
| 2025-05-07T16:25:00 | 54.219682 | 7.617986 | 2.0 | 10.965 | 2 | 36.441 | 11.126 | 32.299 | 2 |
| 2025-05-07T16:26:00 | 54.219419 | 7.618390 | 2.0 | 10.864 | 2 | 36.429 | 11.110 | 32.301 | 2 |
| 2025-05-07T16:27:00 | 54.219168 | 7.618744 | 2.0 | 10.996 | 2 | 36.399 | 11.085 | 32.293 | 2 |
| 2025-05-07T16:28:00 | 54.218930 | 7.619059 | 2.0 | 10.976 | 2 | 36.457 | 11.149 | 32.294 | 2 |
| 2025-05-07T16:29:00 | 54.218693 | 7.619332 | 2.0 | 10.975 | 2 | 36.460 | 11.151 | 32.296 | 2 |
| 2025-05-07T16:30:00 | 54.218477 | 7.619573 | 2.0 | 10.966 | 2 | 36.455 | 11.148 | 32.293 | 2 |
| 2025-05-07T16:31:00 | 54.218258 | 7.619820 | 2.0 | 10.933 | 2 | 36.441 | 11.132 | 32.294 | 2 |
| 2025-05-07T16:32:00 | 54.218050 | 7.620047 | 2.0 | 10.836 | 2 | 36.415 | 11.106 | 32.291 | 2 |
| 2025-05-07T16:33:00 | 54.217856 | 7.620255 | 2.0 | 10.805 | 2 | 36.321 | 10.998 | 32.293 | 2 |
| 2025-05-07T16:34:00 | 54.217684 | 7.620429 | 2.0 | 10.779 | 2 | 36.305 | 10.989 | 32.285 | 2 |
| 2025-05-07T16:35:00 | 54.217515 | 7.620590 | 2.0 | 10.667 | 2 | 36.256 | 10.930 | 32.288 | 2 |
| 2025-05-07T16:36:00 | 54.217342 | 7.620762 | 2.0 | 10.683 | 2 | 36.136 | 10.841 | 32.248 | 2 |
| 2025-05-07T16:37:00 | 54.217175 | 7.620939 | 2.0 | 10.649 | 2 | 35.933 | 10.842 | 32.046 | 2 |
| 2025-05-07T16:38:00 | 54.216989 | 7.621110 | 2.0 | 10.597 | 2 | 36.116 | 10.805 | 32.260 | 2 |
| 2025-05-07T16:39:00 | 54.216825 | 7.621273 | 2.0 | 10.557 | 2 | 35.957 | 10.756 | 32.145 | 2 |
| 2025-05-07T16:40:00 | 54.216667 | 7.621437 | 2.0 | 10.602 | 2 | 35.973 | 10.754 | 32.163 | 2 |
| 2025-05-07T16:41:00 | 54.216510 | 7.621595 | 2.0 | 10.586 | 2 | 35.976 | 10.762 | 32.159 | 2 |
| 2025-05-07T16:42:00 | 54.216357 | 7.621751 | 2.0 | 10.643 | 2 | 36.032 | 10.752 | 32.223 | 2 |
| 2025-05-07T16:43:00 | 54.216203 | 7.621922 | 2.0 | 10.641 | 2 | 35.990 | 10.815 | 32.126 | 2 |
| 2025-05-07T16:44:00 | 54.216038 | 7.622138 | 2.0 | 10.657 | 2 | 36.062 | 10.836 | 32.179 | 2 |
| 2025-05-07T16:45:00 | 54.215863 | 7.622369 | 2.0 | 10.673 | 2 | 36.108 | 10.838 | 32.223 | 2 |
| 2025-05-07T16:46:00 | 54.215677 | 7.622624 | 2.0 | 10.711 | 2 | 35.986 | 10.858 | 32.084 | 2 |
| 2025-05-07T16:47:00 | 54.215475 | 7.622891 | 2.0 | 10.782 | 2 | 36.148 | 10.882 | 32.224 | 2 |
| 2025-05-07T16:48:00 | 54.215251 | 7.623210 | 2.0 | 10.765 | 2 | 36.130 | 10.941 | 32.154 | 2 |
| 2025-05-07T16:49:00 | 54.215023 | 7.623545 | 2.0 | 10.754 | 2 | 36.150 | 10.934 | 32.180 | 2 |
| 2025-05-07T16:50:00 | 54.214788 | 7.623898 | 2.0 | 10.760 | 2 | 36.153 | 10.929 | 32.187 | 2 |
| 2025-05-07T16:51:00 | 54.214539 | 7.624242 | 2.0 | 10.745 | 2 | 36.186 | 10.929 | 32.220 | 2 |
| 2025-05-07T16:52:00 | 54.214289 | 7.624578 | 2.0 | 10.702 | 2 | 36.113 | 10.907 | 32.167 | 2 |
| 2025-05-07T16:53:00 | 54.214043 | 7.624906 | 2.0 | 10.717 | 2 | 36.163 | 10.881 | 32.239 | 2 |
| 2025-05-07T16:54:00 | 54.213800 | 7.625216 | 2.0 | 10.722 | 2 | 36.147 | 10.884 | 32.221 | 2 |
| 2025-05-07T16:55:00 | 54.213543 | 7.625516 | 2.0 | 10.727 | 2 | 36.180 | 10.894 | 32.245 | 2 |
| 2025-05-07T16:56:00 | 54.213288 | 7.625820 | 2.0 | 10.699 | 2 | 36.177 | 10.892 | 32.244 | 2 |
| 2025-05-07T16:57:00 | 54.213046 | 7.626111 | 2.0 | 10.684 | 2 | 36.042 | 10.872 | 32.127 | 2 |
| 2025-05-07T16:58:00 | 54.212818 | 7.626343 | 2.0 | 10.663 | 2 | 36.146 | 10.850 | 32.250 | 2 |
| 2025-05-07T16:59:00 | 54.212606 | 7.626524 | 2.0 | 10.623 | 2 | 36.099 | 10.825 | 32.225 | 2 |
| 2025-05-07T17:00:00 | 54.212413 | 7.626671 | 2.0 | 10.581 | 2 | 35.991 | 10.787 | 32.151 | 2 |
| 2025-05-07T17:01:00 | 54.212233 | 7.626785 | 2.0 | 10.615 | 2 | 36.015 | 10.772 | 32.188 | 2 |
| 2025-05-07T17:02:00 | 54.212054 | 7.626920 | 2.0 | 10.616 | 2 | 36.050 | 10.778 | 32.218 | 2 |
| 2025-05-07T17:03:00 | 54.211885 | 7.627052 | 2.0 | 10.674 | 2 | 35.941 | 10.785 | 32.104 | 2 |
| 2025-05-07T17:04:00 | 54.211719 | 7.627182 | 2.0 | 10.650 | 2 | 36.077 | 10.828 | 32.201 | 2 |
| 2025-05-07T17:05:00 | 54.211539 | 7.627321 | 2.0 | 10.671 | 2 | 35.964 | 10.833 | 32.084 | 2 |
| 2025-05-07T17:06:00 | 54.211355 | 7.627482 | 2.0 | 10.682 | 2 | 36.008 | 10.839 | 32.123 | 2 |
| 2025-05-07T17:07:00 | 54.211170 | 7.627644 | 2.0 | 10.674 | 2 | 36.046 | 10.854 | 32.147 | 2 |
| 2025-05-07T17:08:00 | 54.210990 | 7.627801 | 2.0 | 10.644 | 2 | 36.058 | 10.832 | 32.178 | 2 |
| 2025-05-07T17:09:00 | 54.210796 | 7.627956 | 2.0 | 10.642 | 2 | 35.967 | 10.818 | 32.100 | 2 |
| 2025-05-07T17:10:00 | 54.210586 | 7.628122 | 2.0 | 10.649 | 2 | 36.052 | 10.817 | 32.186 | 2 |
| 2025-05-07T17:11:00 | 54.210386 | 7.628279 | 2.0 | 10.650 | 2 | 35.968 | 10.819 | 32.101 | 2 |
| 2025-05-07T17:12:00 | 54.210175 | 7.628450 | 2.0 | 10.650 | 2 | 35.988 | 10.818 | 32.121 | 2 |
| 2025-05-07T17:13:00 | 54.209965 | 7.628628 | 2.0 | 10.653 | 2 | 36.064 | 10.820 | 32.195 | 2 |
| 2025-05-07T17:14:00 | 54.209763 | 7.628800 | 2.0 | 10.649 | 2 | 36.016 | 10.829 | 32.139 | 2 |
| 2025-05-07T17:15:00 | 54.209566 | 7.628963 | 2.0 | 10.619 | 2 | 36.023 | 10.815 | 32.159 | 2 |
| 2025-05-07T17:16:00 | 54.209379 | 7.629114 | 2.0 | 10.619 | 2 | 36.030 | 10.792 | 32.186 | 2 |
| 2025-05-07T17:17:00 | 54.209193 | 7.629268 | 2.0 | 10.625 | 2 | 36.011 | 10.789 | 32.170 | 2 |
| 2025-05-07T17:18:00 | 54.209016 | 7.629408 | 2.0 | 10.604 | 2 | 36.041 | 10.794 | 32.195 | 2 |
| 2025-05-07T17:19:00 | 54.208833 | 7.629526 | 2.0 | 10.613 | 2 | 36.056 | 10.779 | 32.223 | 2 |
| 2025-05-07T17:20:00 | 54.208645 | 7.629640 | 2.0 | 10.655 | 2 | 36.020 | 10.793 | 32.175 | 2 |
| 2025-05-07T17:21:00 | 54.208458 | 7.629747 | 2.0 | 10.662 | 2 | 36.132 | 10.823 | 32.260 | 2 |
| 2025-05-07T17:22:00 | 54.208280 | 7.629843 | 2.0 | 10.664 | 2 | 36.147 | 10.838 | 32.261 | 2 |
| 2025-05-07T17:23:00 | 54.208101 | 7.629947 | 2.0 | 10.713 | 2 | 36.149 | 10.842 | 32.260 | 2 |
| 2025-05-07T17:24:00 | 54.207900 | 7.630076 | 2.0 | 10.708 | 2 | 36.184 | 10.880 | 32.261 | 2 |
| 2025-05-07T17:25:00 | 54.207718 | 7.630188 | 2.0 | 10.737 | 2 | 36.188 | 10.884 | 32.262 | 2 |
| 2025-05-07T17:26:00 | 54.207549 | 7.630284 | 2.0 | 10.746 | 2 | 36.207 | 10.904 | 32.263 | 2 |
| 2025-05-07T17:27:00 | 54.207378 | 7.630375 | 2.0 | 10.789 | 2 | 36.225 | 10.928 | 32.259 | 2 |
| 2025-05-07T17:28:00 | 54.207201 | 7.630486 | 2.0 | 10.797 | 2 | 36.250 | 10.951 | 32.264 | 2 |
| 2025-05-07T17:29:00 | 54.207033 | 7.630581 | 2.0 | 10.834 | 2 | 36.266 | 10.971 | 32.262 | 2 |
| 2025-05-07T17:30:00 | 54.206832 | 7.630699 | 2.0 | 10.860 | 2 | 36.155 | 11.000 | 32.127 | 2 |
| 2025-05-07T17:31:00 | 54.206607 | 7.630877 | 2.0 | 10.846 | 2 | 36.316 | 11.023 | 32.266 | 2 |
| 2025-05-07T17:32:00 | 54.206408 | 7.631026 | 2.0 | 10.871 | 2 | 36.310 | 11.016 | 32.266 | 2 |
| 2025-05-07T17:33:00 | 54.206212 | 7.631160 | 2.0 | 10.909 | 2 | 36.337 | 11.049 | 32.264 | 2 |
| 2025-05-07T17:34:00 | 54.205995 | 7.631314 | 2.0 | 10.919 | 2 | 36.362 | 11.075 | 32.266 | 2 |
| 2025-05-07T17:35:00 | 54.205786 | 7.631454 | 2.0 | 10.919 | 2 | 36.375 | 11.088 | 32.267 | 2 |
| 2025-05-07T17:36:00 | 54.205583 | 7.631570 | 2.0 | 10.894 | 2 | 36.373 | 11.083 | 32.270 | 2 |
| 2025-05-07T17:37:00 | 54.205385 | 7.631673 | 2.0 | 10.889 | 2 | 36.352 | 11.062 | 32.267 | 2 |
| 2025-05-07T17:38:00 | 54.205191 | 7.631755 | 2.0 | 10.868 | 2 | 36.340 | 11.050 | 32.266 | 2 |
| 2025-05-07T17:39:00 | 54.205010 | 7.631818 | 2.0 | 10.829 | 2 | 35.974 | 11.036 | 31.917 | 2 |
| 2025-05-07T17:40:00 | 54.204840 | 7.631868 | 2.0 | 10.786 | 2 | 36.287 | 10.998 | 32.259 | 2 |
| 2025-05-07T17:41:00 | 54.204671 | 7.631918 | 2.0 | 10.761 | 2 | 36.232 | 10.941 | 32.255 | 2 |
| 2025-05-07T17:42:00 | 54.204492 | 7.631987 | 2.0 | 10.857 | 2 | 36.219 | 10.935 | 32.247 | 2 |
| 2025-05-07T17:43:00 | 54.204309 | 7.632071 | 2.0 | 10.889 | 2 | 36.289 | 11.023 | 32.239 | 2 |
| 2025-05-07T17:44:00 | 54.204121 | 7.632172 | 2.0 | 10.823 | 2 | 36.324 | 11.050 | 32.250 | 2 |
| 2025-05-07T17:45:00 | 54.203933 | 7.632272 | 2.0 | 10.874 | 2 | 36.128 | 10.992 | 32.107 | 2 |
| 2025-05-07T17:46:00 | 54.203719 | 7.632365 | 2.0 | 10.892 | 2 | 36.245 | 11.049 | 32.173 | 2 |
| 2025-05-07T17:47:00 | 54.203514 | 7.632444 | 2.0 | 10.885 | 2 | 35.985 | 11.055 | 31.911 | 2 |
| 2025-05-07T17:48:00 | 54.203312 | 7.632527 | 2.0 | 10.885 | 2 | 36.322 | 11.052 | 32.246 | 2 |
| 2025-05-07T17:49:00 | 54.203105 | 7.632597 | 2.0 | 10.900 | 2 | 36.326 | 11.061 | 32.242 | 2 |
| 2025-05-07T17:50:00 | 54.202904 | 7.632656 | 2.0 | 10.884 | 2 | 36.254 | 11.069 | 32.164 | 2 |
| 2025-05-07T17:51:00 | 54.202708 | 7.632705 | 2.0 | 10.867 | 2 | 35.891 | 11.049 | 31.824 | 2 |
| 2025-05-07T17:52:00 | 54.202516 | 7.632754 | 2.0 | 10.892 | 2 | 36.117 | 11.036 | 32.058 | 2 |
| 2025-05-07T17:53:00 | 54.202310 | 7.632815 | 2.0 | 10.901 | 2 | 36.298 | 11.062 | 32.214 | 2 |
| 2025-05-07T17:54:00 | 54.202103 | 7.632892 | 2.0 | 10.898 | 2 | 36.327 | 11.066 | 32.239 | 2 |
| 2025-05-07T17:55:00 | 54.201886 | 7.632954 | 2.0 | 10.925 | 2 | 36.138 | 11.074 | 32.046 | 2 |
| 2025-05-07T17:56:00 | 54.201677 | 7.633016 | 2.0 | 10.962 | 2 | 36.147 | 11.102 | 32.030 | 2 |
| 2025-05-07T17:57:00 | 54.201469 | 7.633086 | 2.0 | 10.995 | 2 | 36.215 | 11.131 | 32.072 | 2 |
| 2025-05-07T17:58:00 | 54.201266 | 7.633146 | 2.0 | 11.039 | 2 | 36.233 | 11.155 | 32.069 | 2 |
| 2025-05-07T17:59:00 | 54.201057 | 7.633207 | 2.0 | 11.057 | 2 | 36.382 | 11.203 | 32.173 | 2 |
| 2025-05-07T18:00:00 | 54.200842 | 7.633282 | 2.0 | 11.049 | 2 | 36.471 | 11.224 | 32.242 | 2 |
| 2025-05-07T18:01:00 | 54.200632 | 7.633344 | 2.0 | 11.096 | 2 | 36.445 | 11.224 | 32.217 | 2 |
| 2025-05-07T18:02:00 | 54.200419 | 7.633389 | 2.0 | 11.118 | 2 | 36.487 | 11.263 | 32.224 | 2 |
| 2025-05-07T18:03:00 | 54.200220 | 7.633407 | 2.0 | 11.099 | 2 | 36.143 | 11.281 | 31.871 | 2 |
| 2025-05-07T18:04:00 | 54.200009 | 7.633439 | 2.0 | 11.098 | 2 | 36.506 | 11.266 | 32.240 | 2 |
| 2025-05-07T18:05:00 | 54.199805 | 7.633464 | 2.0 | 11.062 | 2 | 36.485 | 11.259 | 32.226 | 2 |
| 2025-05-07T18:06:00 | 54.199615 | 7.633459 | 2.0 | 11.018 | 2 | 36.266 | 11.220 | 32.045 | 2 |
| 2025-05-07T18:07:00 | 54.199422 | 7.633441 | 2.0 | 10.995 | 2 | 36.283 | 11.182 | 32.094 | 2 |
| 2025-05-07T18:08:00 | 54.199229 | 7.633408 | 2.0 | 11.035 | 2 | 36.247 | 11.171 | 32.068 | 2 |
| 2025-05-07T18:09:00 | 54.199036 | 7.633375 | 2.0 | 11.112 | 2 | 36.230 | 11.222 | 32.007 | 2 |
| 2025-05-07T18:10:00 | 54.198851 | 7.633338 | 2.0 | 11.110 | 2 | 36.147 | 11.271 | 31.884 | 2 |
| 2025-05-07T18:11:00 | 54.198661 | 7.633300 | 2.0 | 11.070 | 2 | 36.399 | 11.275 | 32.127 | 2 |
| 2025-05-07T18:12:00 | 54.198464 | 7.633261 | 2.0 | 11.086 | 2 | 36.458 | 11.242 | 32.214 | 2 |
| 2025-05-07T18:13:00 | 54.198260 | 7.633225 | 2.0 | 11.155 | 2 | 36.454 | 11.254 | 32.200 | 2 |
| 2025-05-07T18:14:00 | 54.198044 | 7.633201 | 2.0 | 11.161 | 2 | 36.464 | 11.311 | 32.160 | 2 |
| 2025-05-07T18:15:00 | 54.197823 | 7.633186 | 2.0 | 11.141 | 2 | 36.506 | 11.313 | 32.199 | 2 |
| 2025-05-07T18:16:00 | 54.197608 | 7.633150 | 2.0 | 11.167 | 2 | 36.382 | 11.314 | 32.077 | 2 |
| 2025-05-07T18:17:00 | 54.197398 | 7.633097 | 2.0 | 11.123 | 2 | 36.425 | 11.321 | 32.113 | 2 |
| 2025-05-07T18:18:00 | 54.197191 | 7.633044 | 2.0 | 11.073 | 2 | 36.394 | 11.288 | 32.111 | 2 |
| 2025-05-07T18:19:00 | 54.196977 | 7.632990 | 2.0 | 11.034 | 2 | 36.345 | 11.233 | 32.111 | 2 |
| 2025-05-07T18:20:00 | 54.196775 | 7.632928 | 2.0 | 11.020 | 2 | 36.340 | 11.201 | 32.134 | 2 |
| 2025-05-07T18:21:00 | 54.196565 | 7.632872 | 2.0 | 11.014 | 2 | 36.271 | 11.192 | 32.074 | 2 |
| 2025-05-07T18:22:00 | 54.196352 | 7.632834 | 2.0 | 10.991 | 2 | 36.251 | 11.172 | 32.072 | 2 |
| 2025-05-07T18:23:00 | 54.196155 | 7.632787 | 2.0 | 11.022 | 2 | 36.252 | 11.166 | 32.078 | 2 |
| 2025-05-07T18:24:00 | 54.195954 | 7.632739 | 2.0 | 11.012 | 2 | 36.256 | 11.189 | 32.062 | 2 |
| 2025-05-07T18:25:00 | 54.195748 | 7.632712 | 2.0 | 10.989 | 2 | 36.269 | 11.174 | 32.088 | 2 |
| 2025-05-07T18:26:00 | 54.195535 | 7.632684 | 2.0 | 10.949 | 2 | 36.241 | 11.150 | 32.081 | 2 |
| 2025-05-07T18:27:00 | 54.195314 | 7.632650 | 2.0 | 10.900 | 2 | 36.234 | 11.117 | 32.103 | 2 |
| 2025-05-07T18:28:00 | 54.195081 | 7.632601 | 2.0 | 10.885 | 2 | 36.183 | 11.066 | 32.097 | 2 |
| 2025-05-07T18:29:00 | 54.194870 | 7.632528 | 2.0 | 10.889 | 2 | 36.178 | 11.057 | 32.100 | 2 |
| 2025-05-07T18:30:00 | 54.194793 | 7.632546 | 2.0 | 10.889 | 2 | 36.188 | 11.057 | 32.110 | 2 |
| 2025-05-07T18:31:00 | 54.195002 | 7.632801 | 2.0 | 10.893 | 2 | 36.154 | 11.055 | 32.078 | 2 |
| 2025-05-07T18:32:00 | 54.195465 | 7.633087 | 2.0 | 10.864 | 2 | 36.213 | 11.060 | 32.132 | 2 |
| 2025-05-07T18:33:00 | 54.196064 | 7.633317 | 2.0 | 10.914 | 2 | 36.172 | 11.039 | 32.110 | 2 |
| 2025-05-07T18:34:00 | 54.196779 | 7.633489 | 2.0 | 10.968 | 2 | 36.239 | 11.096 | 32.126 | 2 |
| 2025-05-07T18:35:00 | 54.197658 | 7.633621 | 2.0 | 11.052 | 2 | 36.294 | 11.149 | 32.134 | 2 |
| 2025-05-07T18:36:00 | 54.198657 | 7.633730 | 2.0 | 11.124 | 2 | 36.340 | 11.222 | 32.115 | 2 |
| 2025-05-07T18:37:00 | 54.199743 | 7.633828 | 2.0 | 11.187 | 2 | 36.421 | 11.291 | 32.135 | 2 |
| 2025-05-07T18:38:00 | 54.200870 | 7.633910 | 2.0 | 11.190 | 2 | 36.489 | 11.343 | 32.156 | 2 |
| 2025-05-07T18:39:00 | 54.201932 | 7.634029 | 2.0 | 11.159 | 2 | 36.509 | 11.343 | 32.176 | 2 |
| 2025-05-07T18:40:00 | 54.203004 | 7.634134 | 2.0 | 11.139 | 2 | 36.483 | 11.322 | 32.169 | 2 |
| 2025-05-07T18:41:00 | 54.204131 | 7.634214 | 2.0 | 11.098 | 2 | 36.473 | 11.291 | 32.186 | 2 |
| 2025-05-07T18:42:00 | 54.205289 | 7.634294 | 2.0 | 10.982 | 2 | 36.423 | 11.230 | 32.190 | 2 |
| 2025-05-07T18:43:00 | 54.206461 | 7.634363 | 2.0 | 10.939 | 2 | 36.326 | 11.150 | 32.165 | 2 |
| 2025-05-07T18:44:00 | 54.207605 | 7.634443 | 2.0 | 10.886 | 2 | 36.329 | 11.101 | 32.210 | 2 |
| 2025-05-07T18:45:00 | 54.208740 | 7.634512 | 2.0 | 10.879 | 2 | 36.305 | 11.060 | 32.223 | 2 |
| 2025-05-07T18:46:00 | 54.209905 | 7.634569 | 2.0 | 10.807 | 2 | 36.282 | 11.031 | 32.225 | 2 |
| 2025-05-07T18:47:00 | 54.211126 | 7.634602 | 2.0 | 10.701 | 2 | 36.239 | 10.961 | 32.244 | 2 |
| 2025-05-07T18:48:00 | 54.212456 | 7.634453 | 2.0 | 10.709 | 2 | 36.166 | 10.873 | 32.249 | 2 |
| 2025-05-07T18:49:00 | 54.213859 | 7.634336 | 2.0 | 10.757 | 2 | 36.148 | 10.889 | 32.218 | 2 |
| 2025-05-07T18:50:00 | 54.215321 | 7.634212 | 2.0 | 10.788 | 2 | 36.191 | 10.923 | 32.230 | 2 |
| 2025-05-07T18:51:00 | 54.216814 | 7.634063 | 2.0 | 10.858 | 2 | 36.218 | 10.973 | 32.213 | 2 |
| 2025-05-07T18:52:00 | 54.218272 | 7.633986 | 2.0 | 10.908 | 2 | 36.271 | 11.023 | 32.222 | 2 |
| 2025-05-07T18:53:00 | 54.219744 | 7.633936 | 2.0 | 10.942 | 2 | 36.312 | 11.082 | 32.210 | 2 |
| 2025-05-07T18:54:00 | 54.221252 | 7.633928 | 2.0 | 10.994 | 2 | 36.348 | 11.109 | 32.222 | 2 |
| 2025-05-07T18:55:00 | 54.222780 | 7.633901 | 2.0 | 11.030 | 2 | 36.389 | 11.165 | 32.213 | 2 |
| 2025-05-07T18:56:00 | 54.224309 | 7.633899 | 2.0 | 10.960 | 2 | 36.416 | 11.192 | 32.216 | 2 |
| 2025-05-07T18:57:00 | 54.225801 | 7.633930 | 2.0 | 10.826 | 2 | 36.343 | 11.100 | 32.225 | 2 |
| 2025-05-07T18:58:00 | 54.227280 | 7.633931 | 2.0 | 10.698 | 2 | 36.237 | 10.985 | 32.221 | 2 |
| 2025-05-07T18:59:00 | 54.228800 | 7.633901 | 2.0 | 10.719 | 2 | 36.124 | 10.870 | 32.210 | 2 |
| 2025-05-07T19:00:00 | 54.230302 | 7.633918 | 2.0 | 10.739 | 2 | 36.127 | 10.900 | 32.187 | 2 |
| 2025-05-07T19:01:00 | 54.231764 | 7.633900 | 2.0 | 10.869 | 2 | 36.134 | 10.922 | 32.175 | 2 |
| 2025-05-07T19:02:00 | 54.233240 | 7.633894 | 2.0 | 10.892 | 2 | 36.206 | 11.029 | 32.152 | 2 |
| 2025-05-07T19:03:00 | 54.234713 | 7.633887 | 2.0 | 10.877 | 2 | 36.222 | 11.060 | 32.141 | 2 |
| 2025-05-07T19:04:00 | 54.236163 | 7.633908 | 2.0 | 10.794 | 2 | 36.187 | 11.027 | 32.135 | 2 |
| 2025-05-07T19:05:00 | 54.237626 | 7.633919 | 2.0 | 10.843 | 2 | 36.126 | 10.974 | 32.121 | 2 |
| 2025-05-07T19:06:00 | 54.239171 | 7.633917 | 2.0 | 10.974 | 2 | 36.149 | 11.045 | 32.082 | 2 |
| 2025-05-07T19:07:00 | 54.240690 | 7.633871 | 2.0 | 10.923 | 2 | 36.210 | 11.133 | 32.065 | 2 |
| 2025-05-07T19:08:00 | 54.242149 | 7.633872 | 2.0 | 10.827 | 2 | 36.160 | 11.079 | 32.063 | 2 |
| 2025-05-07T19:09:00 | 54.243553 | 7.633884 | 2.0 | 10.801 | 2 | 36.072 | 10.992 | 32.052 | 2 |
| 2025-05-07T19:10:00 | 54.244933 | 7.633859 | 2.0 | 10.821 | 2 | 36.030 | 10.978 | 32.023 | 2 |
| 2025-05-07T19:11:00 | 54.246339 | 7.633865 | 2.0 | 10.827 | 2 | 36.028 | 10.993 | 32.008 | 2 |
| 2025-05-07T19:12:00 | 54.247734 | 7.633877 | 2.0 | 10.813 | 2 | 36.014 | 10.992 | 31.995 | 2 |
| 2025-05-07T19:13:00 | 54.249135 | 7.633831 | 2.0 | 10.806 | 2 | 35.990 | 10.980 | 31.982 | 2 |
| 2025-05-07T19:14:00 | 54.250514 | 7.633680 | 2.0 | 10.823 | 2 | 35.970 | 10.979 | 31.963 | 2 |
| 2025-05-07T19:15:00 | 54.251823 | 7.633480 | 2.0 | 10.848 | 2 | 35.961 | 10.991 | 31.943 | 2 |
| 2025-05-07T19:16:00 | 54.253147 | 7.633284 | 2.0 | 10.902 | 2 | 35.965 | 11.029 | 31.914 | 2 |
| 2025-05-07T19:17:00 | 54.254488 | 7.633167 | 2.0 | 10.859 | 2 | 35.973 | 11.061 | 31.894 | 2 |
| 2025-05-07T19:18:00 | 54.255839 | 7.633046 | 2.0 | 10.857 | 2 | 35.921 | 11.024 | 31.875 | 2 |
| 2025-05-07T19:19:00 | 54.257196 | 7.632833 | 2.0 | 10.884 | 2 | 35.893 | 11.028 | 31.844 | 2 |
| 2025-05-07T19:20:00 | 54.258520 | 7.632642 | 2.0 | 10.884 | 2 | 35.884 | 11.051 | 31.815 | 2 |
| 2025-05-07T19:21:00 | 54.259811 | 7.632388 | 2.0 | 10.844 | 2 | 35.864 | 11.049 | 31.797 | 2 |
| 2025-05-07T19:22:00 | 54.261145 | 7.632127 | 2.0 | 10.800 | 2 | 35.814 | 11.005 | 31.786 | 2 |
| 2025-05-07T19:23:00 | 54.262504 | 7.631915 | 2.0 | 10.756 | 2 | 35.754 | 10.961 | 31.765 | 2 |
| 2025-05-07T19:24:00 | 54.263875 | 7.631701 | 2.0 | 10.722 | 2 | 35.684 | 10.918 | 31.733 | 2 |
| 2025-05-07T19:25:00 | 54.265266 | 7.631434 | 2.0 | 10.736 | 2 | 35.637 | 10.896 | 31.706 | 2 |
| 2025-05-07T19:26:00 | 54.266659 | 7.631137 | 2.0 | 10.743 | 2 | 35.362 | 10.906 | 31.426 | 2 |
| 2025-05-07T19:27:00 | 54.268033 | 7.630873 | 2.0 | 10.808 | 2 | 35.517 | 10.923 | 31.564 | 2 |
| 2025-05-07T19:28:00 | 54.269402 | 7.630590 | 2.0 | 10.856 | 2 | 35.434 | 10.983 | 31.431 | 2 |
| 2025-05-07T19:29:00 | 54.270756 | 7.630319 | 2.0 | 10.839 | 2 | 35.596 | 11.017 | 31.561 | 2 |
| 2025-05-07T19:30:00 | 54.272159 | 7.630080 | 2.0 | 10.894 | 2 | 35.543 | 11.013 | 31.512 | 2 |
| 2025-05-07T19:31:00 | 54.273599 | 7.629892 | 2.0 | 10.913 | 2 | 35.612 | 11.061 | 31.539 | 2 |
| 2025-05-07T19:32:00 | 54.275063 | 7.629650 | 2.0 | 10.925 | 2 | 35.538 | 11.077 | 31.452 | 2 |
| 2025-05-07T19:33:00 | 54.276532 | 7.629372 | 2.0 | 10.984 | 2 | 35.629 | 11.103 | 31.520 | 2 |
| 2025-05-07T19:34:00 | 54.277921 | 7.629116 | 2.0 | 10.990 | 2 | 35.657 | 11.152 | 31.505 | 2 |
| 2025-05-07T19:35:00 | 54.279266 | 7.628848 | 2.0 | 10.974 | 2 | 35.676 | 11.150 | 31.526 | 2 |
| 2025-05-07T19:36:00 | 54.280663 | 7.628590 | 2.0 | 10.994 | 2 | 35.543 | 11.145 | 31.399 | 2 |
| 2025-05-07T19:37:00 | 54.282097 | 7.628347 | 2.0 | 11.006 | 2 | 35.510 | 11.164 | 31.351 | 2 |
| 2025-05-07T19:38:00 | 54.283557 | 7.628141 | 2.0 | 11.004 | 2 | 35.550 | 11.173 | 31.382 | 2 |
| 2025-05-07T19:39:00 | 54.285003 | 7.627887 | 2.0 | 11.025 | 2 | 35.520 | 11.172 | 31.354 | 2 |
| 2025-05-07T19:40:00 | 54.286394 | 7.627612 | 2.0 | 11.011 | 2 | 35.467 | 11.191 | 31.286 | 2 |
| 2025-05-07T19:41:00 | 54.287766 | 7.627338 | 2.0 | 10.984 | 2 | 35.424 | 11.171 | 31.260 | 2 |
| 2025-05-07T19:42:00 | 54.289179 | 7.627082 | 2.0 | 10.981 | 2 | 35.478 | 11.151 | 31.330 | 2 |
| 2025-05-07T19:43:00 | 54.290619 | 7.626826 | 2.0 | 11.031 | 2 | 35.406 | 11.154 | 31.257 | 2 |
| 2025-05-07T19:44:00 | 54.292081 | 7.626566 | 2.0 | 11.068 | 2 | 35.474 | 11.206 | 31.280 | 2 |
| 2025-05-07T19:45:00 | 54.293537 | 7.626288 | 2.0 | 11.075 | 2 | 35.408 | 11.231 | 31.194 | 2 |
| 2025-05-07T19:46:00 | 54.295018 | 7.626032 | 2.0 | 11.087 | 2 | 35.412 | 11.243 | 31.188 | 2 |
| 2025-05-07T19:47:00 | 54.296479 | 7.625827 | 2.0 | 11.098 | 2 | 35.420 | 11.254 | 31.186 | 2 |
| 2025-05-07T19:48:00 | 54.297964 | 7.625547 | 2.0 | 11.095 | 2 | 35.432 | 11.264 | 31.190 | 2 |
| 2025-05-07T19:49:00 | 54.299480 | 7.625241 | 2.0 | 11.115 | 2 | 35.417 | 11.264 | 31.175 | 2 |
| 2025-05-07T19:50:00 | 54.300993 | 7.624952 | 2.0 | 11.161 | 2 | 35.408 | 11.287 | 31.147 | 2 |
| 2025-05-07T19:51:00 | 54.302469 | 7.624697 | 2.0 | 11.194 | 2 | 35.463 | 11.332 | 31.162 | 2 |
| 2025-05-07T19:52:00 | 54.303934 | 7.624448 | 2.0 | 11.180 | 2 | 35.468 | 11.353 | 31.150 | 2 |
| 2025-05-07T19:53:00 | 54.305423 | 7.624189 | 2.0 | 11.221 | 2 | 35.459 | 11.351 | 31.142 | 2 |
| 2025-05-07T19:54:00 | 54.306899 | 7.623943 | 2.0 | 11.238 | 2 | 35.490 | 11.387 | 31.142 | 2 |
| 2025-05-07T19:55:00 | 54.308410 | 7.623662 | 2.0 | 11.224 | 2 | 35.487 | 11.400 | 31.128 | 2 |
| 2025-05-07T19:56:00 | 54.309935 | 7.623359 | 2.0 | 11.206 | 2 | 35.498 | 11.386 | 31.151 | 2 |
| 2025-05-07T19:57:00 | 54.311467 | 7.623051 | 2.0 | 11.183 | 2 | 35.480 | 11.369 | 31.148 | 2 |
| 2025-05-07T19:58:00 | 54.312999 | 7.622759 | 2.0 | 11.174 | 2 | 35.457 | 11.348 | 31.143 | 2 |
| 2025-05-07T19:59:00 | 54.314540 | 7.622474 | 2.0 | 11.173 | 2 | 35.443 | 11.340 | 31.136 | 2 |
| 2025-05-07T20:00:00 | 54.316069 | 7.622226 | 2.0 | 11.163 | 2 | 35.449 | 11.337 | 31.144 | 2 |
| 2025-05-07T20:01:00 | 54.317584 | 7.621968 | 2.0 | 11.159 | 2 | 35.448 | 11.329 | 31.150 | 2 |
| 2025-05-07T20:02:00 | 54.319114 | 7.621636 | 2.0 | 11.138 | 2 | 35.439 | 11.321 | 31.148 | 2 |
| 2025-05-07T20:03:00 | 54.320661 | 7.621341 | 2.0 | 11.145 | 2 | 35.430 | 11.305 | 31.153 | 2 |
| 2025-05-07T20:04:00 | 54.322159 | 7.621074 | 2.0 | 11.147 | 2 | 35.435 | 11.313 | 31.151 | 2 |
| 2025-05-07T20:05:00 | 54.323641 | 7.620796 | 2.0 | 11.152 | 2 | 35.437 | 11.314 | 31.152 | 2 |
| 2025-05-07T20:06:00 | 54.325133 | 7.620565 | 2.0 | 11.171 | 2 | 35.442 | 11.320 | 31.152 | 2 |
| 2025-05-07T20:07:00 | 54.326619 | 7.620321 | 2.0 | 11.204 | 2 | 35.462 | 11.344 | 31.151 | 2 |
| 2025-05-07T20:08:00 | 54.328066 | 7.620036 | 2.0 | 11.247 | 2 | 35.496 | 11.378 | 31.156 | 2 |
| 2025-05-07T20:09:00 | 54.329506 | 7.619790 | 2.0 | 11.305 | 2 | 35.535 | 11.421 | 31.157 | 2 |
| 2025-05-07T20:10:00 | 54.330934 | 7.619529 | 2.0 | 11.310 | 2 | 35.586 | 11.470 | 31.166 | 2 |
| 2025-05-07T20:11:00 | 54.332334 | 7.619192 | 2.0 | 11.311 | 2 | 35.594 | 11.475 | 31.169 | 2 |
| 2025-05-07T20:12:00 | 54.333764 | 7.618909 | 2.0 | 11.403 | 2 | 35.596 | 11.490 | 31.159 | 2 |
| 2025-05-07T20:13:00 | 54.335214 | 7.618724 | 2.0 | 11.424 | 2 | 35.651 | 11.564 | 31.150 | 2 |
| 2025-05-07T20:14:00 | 54.336708 | 7.618493 | 2.0 | 11.408 | 2 | 35.656 | 11.581 | 31.140 | 2 |
| 2025-05-07T20:15:00 | 54.338169 | 7.618240 | 2.0 | 11.387 | 2 | 35.634 | 11.567 | 31.131 | 2 |
| 2025-05-07T20:16:00 | 54.339652 | 7.617948 | 2.0 | 11.361 | 2 | 35.611 | 11.547 | 31.125 | 2 |
| 2025-05-07T20:17:00 | 54.341179 | 7.617678 | 2.0 | 11.353 | 2 | 35.589 | 11.524 | 31.123 | 2 |
| 2025-05-07T20:18:00 | 54.342732 | 7.617414 | 2.0 | 11.339 | 2 | 35.579 | 11.517 | 31.120 | 2 |
| 2025-05-07T20:19:00 | 54.344257 | 7.617117 | 2.0 | 11.323 | 2 | 35.567 | 11.502 | 31.120 | 2 |
| 2025-05-07T20:20:00 | 54.345771 | 7.616803 | 2.0 | 11.324 | 2 | 35.555 | 11.489 | 31.120 | 2 |
| 2025-05-07T20:21:00 | 54.347249 | 7.616539 | 2.0 | 11.318 | 2 | 35.552 | 11.487 | 31.118 | 2 |
| 2025-05-07T20:22:00 | 54.348741 | 7.616237 | 2.0 | 11.310 | 2 | 35.551 | 11.485 | 31.119 | 2 |
| 2025-05-07T20:23:00 | 54.350273 | 7.615987 | 2.0 | 11.324 | 2 | 35.546 | 11.476 | 31.122 | 2 |
| 2025-05-07T20:24:00 | 54.351799 | 7.615708 | 2.0 | 11.353 | 2 | 35.554 | 11.491 | 31.117 | 2 |
| 2025-05-07T20:25:00 | 54.353347 | 7.615419 | 2.0 | 11.370 | 2 | 35.581 | 11.524 | 31.116 | 2 |
| 2025-05-07T20:26:00 | 54.354890 | 7.615153 | 2.0 | 11.361 | 2 | 35.592 | 11.533 | 31.119 | 2 |
| 2025-05-07T20:27:00 | 54.356387 | 7.614858 | 2.0 | 11.310 | 2 | 35.582 | 11.518 | 31.122 | 2 |
| 2025-05-07T20:28:00 | 54.357889 | 7.614558 | 2.0 | 11.273 | 2 | 35.544 | 11.469 | 31.126 | 2 |
| 2025-05-07T20:29:00 | 54.359378 | 7.614294 | 2.0 | 11.244 | 2 | 35.517 | 11.439 | 31.125 | 2 |
| 2025-05-07T20:30:00 | 54.360887 | 7.613999 | 2.0 | 11.250 | 2 | 35.493 | 11.409 | 31.127 | 2 |
| 2025-05-07T20:31:00 | 54.362411 | 7.613734 | 2.0 | 11.261 | 2 | 35.499 | 11.419 | 31.124 | 2 |
| 2025-05-07T20:32:00 | 54.363967 | 7.613450 | 2.0 | 11.271 | 2 | 35.510 | 11.429 | 31.126 | 2 |
| 2025-05-07T20:33:00 | 54.365511 | 7.613181 | 2.0 | 11.264 | 2 | 35.519 | 11.435 | 31.130 | 2 |
| 2025-05-07T20:34:00 | 54.367049 | 7.612936 | 2.0 | 11.271 | 2 | 35.520 | 11.431 | 31.134 | 2 |
| 2025-05-07T20:35:00 | 54.368592 | 7.612649 | 2.0 | 11.251 | 2 | 35.527 | 11.435 | 31.138 | 2 |
| 2025-05-07T20:36:00 | 54.370137 | 7.612354 | 2.0 | 11.214 | 2 | 35.514 | 11.410 | 31.146 | 2 |
| 2025-05-07T20:37:00 | 54.371706 | 7.612092 | 2.0 | 11.252 | 2 | 35.493 | 11.387 | 31.145 | 2 |
| 2025-05-07T20:38:00 | 54.373275 | 7.611837 | 2.0 | 11.267 | 2 | 35.523 | 11.424 | 31.143 | 2 |
| 2025-05-07T20:39:00 | 54.374771 | 7.611578 | 2.0 | 11.248 | 2 | 35.533 | 11.427 | 31.150 | 2 |
| 2025-05-07T20:40:00 | 54.376302 | 7.611282 | 2.0 | 11.224 | 2 | 35.524 | 11.413 | 31.154 | 2 |
| 2025-05-07T20:41:00 | 54.377857 | 7.610979 | 2.0 | 11.165 | 2 | 35.500 | 11.379 | 31.159 | 2 |
| 2025-05-07T20:42:00 | 54.379403 | 7.610685 | 2.0 | 11.141 | 2 | 35.459 | 11.328 | 31.162 | 2 |
| 2025-05-07T20:43:00 | 54.380941 | 7.610383 | 2.0 | 11.126 | 2 | 35.438 | 11.308 | 31.158 | 2 |
| 2025-05-07T20:44:00 | 54.382508 | 7.610116 | 2.0 | 11.092 | 2 | 35.335 | 11.290 | 31.073 | 2 |
| 2025-05-07T20:45:00 | 54.384096 | 7.609840 | 2.0 | 11.066 | 2 | 35.397 | 11.256 | 31.162 | 2 |
| 2025-05-07T20:46:00 | 54.385621 | 7.609547 | 2.0 | 11.054 | 2 | 35.378 | 11.233 | 31.163 | 2 |
| 2025-05-07T20:47:00 | 54.387013 | 7.609267 | 2.0 | 11.044 | 2 | 35.368 | 11.222 | 31.162 | 2 |
| 2025-05-07T20:48:00 | 54.388337 | 7.609031 | 2.0 | 11.079 | 2 | 35.362 | 11.217 | 31.161 | 2 |
| 2025-05-07T20:49:00 | 54.389633 | 7.608785 | 2.0 | 11.110 | 2 | 35.390 | 11.253 | 31.158 | 2 |
| 2025-05-07T20:50:00 | 54.390920 | 7.608536 | 2.0 | 11.160 | 2 | 35.418 | 11.284 | 31.159 | 2 |
| 2025-05-07T20:51:00 | 54.392220 | 7.608303 | 2.0 | 11.182 | 2 | 35.160 | 11.325 | 30.873 | 2 |
| 2025-05-07T20:52:00 | 54.393487 | 7.608068 | 2.0 | 11.210 | 2 | 35.476 | 11.350 | 31.160 | 2 |
| 2025-05-07T20:53:00 | 54.394744 | 7.607826 | 2.0 | 11.246 | 2 | 35.457 | 11.382 | 31.114 | 2 |
| 2025-05-07T20:54:00 | 54.396027 | 7.607578 | 2.0 | 11.271 | 2 | 35.347 | 11.415 | 30.980 | 2 |
| 2025-05-07T20:55:00 | 54.397340 | 7.607325 | 2.0 | 11.286 | 2 | 35.563 | 11.439 | 31.170 | 2 |
| 2025-05-07T20:56:00 | 54.398682 | 7.607073 | 2.0 | 11.301 | 2 | 35.478 | 11.453 | 31.075 | 2 |
| 2025-05-07T20:57:00 | 54.400003 | 7.606835 | 2.0 | 11.301 | 2 | 35.429 | 11.468 | 31.015 | 2 |
| 2025-05-07T20:58:00 | 54.401336 | 7.606600 | 2.0 | 11.291 | 2 | 35.600 | 11.465 | 31.184 | 2 |
| 2025-05-07T20:59:00 | 54.402650 | 7.606391 | 2.0 | 11.303 | 2 | 35.272 | 11.457 | 30.871 | 2 |
| 2025-05-07T21:00:00 | 54.403982 | 7.606160 | 2.0 | 11.344 | 2 | 35.537 | 11.475 | 31.114 | 2 |
| 2025-05-07T21:01:00 | 54.405307 | 7.605915 | 2.0 | 11.379 | 2 | 35.392 | 11.515 | 30.940 | 2 |
| 2025-05-07T21:02:00 | 54.406621 | 7.605660 | 2.0 | 11.387 | 2 | 35.296 | 11.543 | 30.823 | 2 |
| 2025-05-07T21:03:00 | 54.407944 | 7.605395 | 2.0 | 11.362 | 2 | 35.697 | 11.549 | 31.207 | 2 |
| 2025-05-07T21:04:00 | 54.409263 | 7.605179 | 2.0 | 11.309 | 2 | 35.680 | 11.521 | 31.214 | 2 |
| 2025-05-07T21:05:00 | 54.410573 | 7.605022 | 2.0 | 11.248 | 2 | 35.273 | 11.464 | 30.867 | 2 |
| 2025-05-07T21:06:00 | 54.411888 | 7.605011 | 2.0 | 11.229 | 2 | 35.328 | 11.412 | 30.964 | 2 |
| 2025-05-07T21:07:00 | 54.413202 | 7.605035 | 2.0 | 11.245 | 2 | 35.372 | 11.399 | 31.017 | 2 |
| 2025-05-07T21:08:00 | 54.414504 | 7.604991 | 2.0 | 11.267 | 2 | 35.646 | 11.415 | 31.271 | 2 |
| 2025-05-07T21:09:00 | 54.415822 | 7.604872 | 2.0 | 11.289 | 2 | 35.410 | 11.436 | 31.023 | 2 |
| 2025-05-07T21:10:00 | 54.417135 | 7.604803 | 2.0 | 11.301 | 2 | 35.694 | 11.457 | 31.282 | 2 |
| 2025-05-07T21:11:00 | 54.418445 | 7.604791 | 2.0 | 11.295 | 2 | 35.555 | 11.466 | 31.139 | 2 |
| 2025-05-07T21:12:00 | 54.419770 | 7.604762 | 2.0 | 11.277 | 2 | 35.473 | 11.456 | 31.068 | 2 |
| 2025-05-07T21:13:00 | 54.421085 | 7.604727 | 2.0 | 11.266 | 2 | 35.711 | 11.442 | 31.311 | 2 |
| 2025-05-07T21:14:00 | 54.422375 | 7.604690 | 2.0 | 11.264 | 2 | 35.679 | 11.434 | 31.287 | 2 |
| 2025-05-07T21:15:00 | 54.423648 | 7.604648 | 2.0 | 11.272 | 2 | 35.738 | 11.431 | 31.347 | 2 |
| 2025-05-07T21:16:00 | 54.424937 | 7.604597 | 2.0 | 11.297 | 2 | 35.632 | 11.444 | 31.233 | 2 |
| 2025-05-07T21:17:00 | 54.426214 | 7.604565 | 2.0 | 11.291 | 2 | 35.617 | 11.462 | 31.203 | 2 |
| 2025-05-07T21:18:00 | 54.427479 | 7.604534 | 2.0 | 11.252 | 2 | 35.532 | 11.449 | 31.131 | 2 |
| 2025-05-07T21:19:00 | 54.428752 | 7.604486 | 2.0 | 11.192 | 2 | 35.790 | 11.410 | 31.415 | 2 |
| 2025-05-07T21:20:00 | 54.430064 | 7.604453 | 2.0 | 11.141 | 2 | 35.663 | 11.350 | 31.342 | 2 |
| 2025-05-07T21:21:00 | 54.431379 | 7.604435 | 2.0 | 11.136 | 2 | 35.587 | 11.310 | 31.302 | 2 |
| 2025-05-07T21:22:00 | 54.432706 | 7.604390 | 2.0 | 11.133 | 2 | 35.623 | 11.305 | 31.341 | 2 |
| 2025-05-07T21:23:00 | 54.434044 | 7.604365 | 2.0 | 11.128 | 2 | 35.641 | 11.302 | 31.362 | 2 |
| 2025-05-07T21:24:00 | 54.435362 | 7.604318 | 2.0 | 11.070 | 2 | 35.747 | 11.289 | 31.476 | 2 |
| 2025-05-07T21:25:00 | 54.436686 | 7.604268 | 2.0 | 10.932 | 2 | 35.584 | 11.208 | 31.386 | 2 |
| 2025-05-07T21:26:00 | 54.438005 | 7.604232 | 2.0 | 10.860 | 2 | 35.419 | 11.097 | 31.319 | 2 |
| 2025-05-07T21:27:00 | 54.439309 | 7.604183 | 2.0 | 10.800 | 2 | 35.300 | 11.024 | 31.264 | 2 |
| 2025-05-07T21:28:00 | 54.440622 | 7.604121 | 2.0 | 10.778 | 2 | 35.444 | 10.972 | 31.450 | 2 |
| 2025-05-07T21:29:00 | 54.441943 | 7.604110 | 2.0 | 10.756 | 2 | 35.316 | 10.947 | 31.345 | 2 |
| 2025-05-07T21:30:00 | 54.443237 | 7.604121 | 2.0 | 10.758 | 2 | 35.322 | 10.929 | 31.366 | 2 |
| 2025-05-07T21:31:00 | 54.444513 | 7.604053 | 2.0 | 10.763 | 2 | 35.441 | 10.931 | 31.482 | 2 |
| 2025-05-07T21:32:00 | 54.445809 | 7.603953 | 2.0 | 10.780 | 2 | 35.436 | 10.937 | 31.472 | 2 |
| 2025-05-07T21:33:00 | 54.447142 | 7.603907 | 2.0 | 10.873 | 2 | 35.445 | 10.975 | 31.448 | 2 |
| 2025-05-07T21:34:00 | 54.448452 | 7.603907 | 2.0 | 10.881 | 2 | 35.505 | 11.040 | 31.452 | 2 |
| 2025-05-07T21:35:00 | 54.449734 | 7.603889 | 2.0 | 10.874 | 2 | 35.487 | 11.046 | 31.429 | 2 |
| 2025-05-07T21:36:00 | 54.451031 | 7.603836 | 2.0 | 10.865 | 2 | 35.480 | 11.040 | 31.427 | 2 |
| 2025-05-07T21:37:00 | 54.452364 | 7.603778 | 2.0 | 10.849 | 2 | 35.427 | 11.030 | 31.384 | 2 |
| 2025-05-07T21:38:00 | 54.453748 | 7.603756 | 2.0 | 10.835 | 2 | 35.481 | 11.016 | 31.449 | 2 |
| 2025-05-07T21:39:00 | 54.455125 | 7.603764 | 2.0 | 10.860 | 2 | 35.496 | 11.009 | 31.469 | 2 |
| 2025-05-07T21:40:00 | 54.456500 | 7.603745 | 2.0 | 10.887 | 2 | 35.475 | 11.031 | 31.430 | 2 |
| 2025-05-07T21:41:00 | 54.457863 | 7.603712 | 2.0 | 10.921 | 2 | 35.513 | 11.057 | 31.445 | 2 |
| 2025-05-07T21:42:00 | 54.459237 | 7.603598 | 2.0 | 10.988 | 2 | 35.582 | 11.101 | 31.475 | 2 |
| 2025-05-07T21:43:00 | 54.460602 | 7.603505 | 2.0 | 11.005 | 2 | 35.615 | 11.157 | 31.460 | 2 |
| 2025-05-07T21:44:00 | 54.462006 | 7.603435 | 2.0 | 10.989 | 2 | 35.643 | 11.167 | 31.479 | 2 |
| 2025-05-07T21:45:00 | 54.463419 | 7.603390 | 2.0 | 10.985 | 2 | 35.633 | 11.155 | 31.479 | 2 |
| 2025-05-07T21:46:00 | 54.464799 | 7.603354 | 2.0 | 11.008 | 2 | 35.639 | 11.157 | 31.483 | 2 |
| 2025-05-07T21:47:00 | 54.466157 | 7.603305 | 2.0 | 11.029 | 2 | 35.657 | 11.177 | 31.484 | 2 |
| 2025-05-07T21:48:00 | 54.467517 | 7.603245 | 2.0 | 11.053 | 2 | 35.689 | 11.197 | 31.498 | 2 |
| 2025-05-07T21:49:00 | 54.468857 | 7.603236 | 2.0 | 11.025 | 2 | 35.676 | 11.217 | 31.468 | 2 |
| 2025-05-07T21:50:00 | 54.470213 | 7.603271 | 2.0 | 11.075 | 2 | 35.685 | 11.192 | 31.498 | 2 |
| 2025-05-07T21:51:00 | 54.471601 | 7.603169 | 2.0 | 11.073 | 2 | 35.714 | 11.237 | 31.488 | 2 |
| 2025-05-07T21:52:00 | 54.473004 | 7.603159 | 2.0 | 11.066 | 2 | 35.727 | 11.237 | 31.501 | 2 |
| 2025-05-07T21:53:00 | 54.474412 | 7.603167 | 2.0 | 11.061 | 2 | 35.746 | 11.233 | 31.523 | 2 |
| 2025-05-07T21:54:00 | 54.475806 | 7.603089 | 2.0 | 11.044 | 2 | 35.719 | 11.226 | 31.503 | 2 |
| 2025-05-07T21:55:00 | 54.477222 | 7.602969 | 2.0 | 11.036 | 2 | 35.691 | 11.213 | 31.486 | 2 |
| 2025-05-07T21:56:00 | 54.478643 | 7.602910 | 2.0 | 11.038 | 2 | 35.665 | 11.199 | 31.473 | 2 |
| 2025-05-07T21:57:00 | 54.480017 | 7.602919 | 2.0 | 11.053 | 2 | 35.708 | 11.213 | 31.503 | 2 |
| 2025-05-07T21:58:00 | 54.481369 | 7.602881 | 2.0 | 11.034 | 2 | 35.706 | 11.218 | 31.497 | 2 |
| 2025-05-07T21:59:00 | 54.482748 | 7.602819 | 2.0 | 11.007 | 2 | 35.699 | 11.195 | 31.510 | 2 |
| 2025-05-07T22:00:00 | 54.484149 | 7.602742 | 2.0 | 10.982 | 2 | 35.685 | 11.170 | 31.517 | 2 |
| 2025-05-07T22:01:00 | 54.485569 | 7.602683 | 2.0 | 10.985 | 2 | 35.676 | 11.154 | 31.522 | 2 |
| 2025-05-07T22:02:00 | 54.486964 | 7.602655 | 2.0 | 10.963 | 2 | 35.664 | 11.149 | 31.515 | 2 |
| 2025-05-07T22:03:00 | 54.488334 | 7.602623 | 2.0 | 10.968 | 2 | 35.652 | 11.130 | 31.519 | 2 |
| 2025-05-07T22:04:00 | 54.489690 | 7.602537 | 2.0 | 10.984 | 2 | 35.657 | 11.140 | 31.515 | 2 |
| 2025-05-07T22:05:00 | 54.491049 | 7.602528 | 2.0 | 10.946 | 2 | 35.658 | 11.143 | 31.514 | 2 |
| 2025-05-07T22:06:00 | 54.492446 | 7.602498 | 2.0 | 10.883 | 2 | 35.633 | 11.104 | 31.523 | 2 |
| 2025-05-07T22:07:00 | 54.493852 | 7.602417 | 2.0 | 10.810 | 2 | 35.540 | 11.041 | 31.485 | 2 |
| 2025-05-07T22:08:00 | 54.495271 | 7.602378 | 2.0 | 10.787 | 2 | 35.438 | 10.981 | 31.436 | 2 |
| 2025-05-07T22:09:00 | 54.496676 | 7.602408 | 2.0 | 10.765 | 2 | 35.419 | 10.954 | 31.441 | 2 |
| 2025-05-07T22:10:00 | 54.498053 | 7.602376 | 2.0 | 10.754 | 2 | 35.411 | 10.932 | 31.452 | 2 |
| 2025-05-07T22:11:00 | 54.499463 | 7.602300 | 2.0 | 10.746 | 2 | 35.454 | 10.926 | 31.499 | 2 |
| 2025-05-07T22:12:00 | 54.500886 | 7.602231 | 2.0 | 10.721 | 2 | 35.371 | 10.908 | 31.433 | 2 |
| 2025-05-07T22:13:00 | 54.502307 | 7.602197 | 2.0 | 10.714 | 2 | 35.458 | 10.891 | 31.533 | 2 |
| 2025-05-07T22:14:00 | 54.503715 | 7.602120 | 2.0 | 10.710 | 2 | 35.403 | 10.883 | 31.486 | 2 |
| 2025-05-07T22:15:00 | 54.505139 | 7.602049 | 2.0 | 10.713 | 2 | 35.441 | 10.882 | 31.524 | 2 |
| 2025-05-07T22:16:00 | 54.506582 | 7.602006 | 2.0 | 10.716 | 2 | 35.444 | 10.882 | 31.527 | 2 |
| 2025-05-07T22:17:00 | 54.508026 | 7.601987 | 2.0 | 10.712 | 2 | 35.422 | 10.885 | 31.503 | 2 |
| 2025-05-07T22:18:00 | 54.509490 | 7.601969 | 2.0 | 10.693 | 2 | 35.406 | 10.878 | 31.493 | 2 |
| 2025-05-07T22:19:00 | 54.510942 | 7.601944 | 2.0 | 10.717 | 2 | 35.416 | 10.864 | 31.515 | 2 |
| 2025-05-07T22:20:00 | 54.512392 | 7.601867 | 2.0 | 10.740 | 2 | 35.448 | 10.890 | 31.524 | 2 |
| 2025-05-07T22:21:00 | 54.513834 | 7.601798 | 2.0 | 10.728 | 2 | 35.461 | 10.907 | 31.522 | 2 |
| 2025-05-07T22:22:00 | 54.515264 | 7.601705 | 2.0 | 10.706 | 2 | 35.454 | 10.892 | 31.528 | 2 |
| 2025-05-07T22:23:00 | 54.516682 | 7.601659 | 2.0 | 10.714 | 2 | 35.429 | 10.878 | 31.516 | 2 |
| 2025-05-07T22:24:00 | 54.518109 | 7.601600 | 2.0 | 10.747 | 2 | 35.449 | 10.888 | 31.527 | 2 |
| 2025-05-07T22:25:00 | 54.519516 | 7.601565 | 2.0 | 10.798 | 2 | 35.488 | 10.919 | 31.539 | 2 |
| 2025-05-07T22:26:00 | 54.520907 | 7.601498 | 2.0 | 10.820 | 2 | 35.525 | 10.964 | 31.537 | 2 |
| 2025-05-07T22:27:00 | 54.522307 | 7.601461 | 2.0 | 10.868 | 2 | 35.554 | 10.994 | 31.539 | 2 |
| 2025-05-07T22:28:00 | 54.523735 | 7.601408 | 2.0 | 10.873 | 2 | 35.593 | 11.037 | 31.541 | 2 |
| 2025-05-07T22:29:00 | 54.525157 | 7.601443 | 2.0 | 10.862 | 2 | 35.604 | 11.037 | 31.552 | 2 |
| 2025-05-07T22:30:00 | 54.526542 | 7.601434 | 2.0 | 10.837 | 2 | 35.608 | 11.026 | 31.565 | 2 |
| 2025-05-07T22:31:00 | 54.527934 | 7.601423 | 2.0 | 10.820 | 2 | 35.601 | 11.006 | 31.575 | 2 |
| 2025-05-07T22:32:00 | 54.529349 | 7.601392 | 2.0 | 10.783 | 2 | 35.567 | 10.981 | 31.563 | 2 |
| 2025-05-07T22:33:00 | 54.530760 | 7.601364 | 2.0 | 10.733 | 2 | 35.539 | 10.949 | 31.563 | 2 |
| 2025-05-07T22:34:00 | 54.532169 | 7.601443 | 2.0 | 10.689 | 2 | 35.536 | 10.892 | 31.609 | 2 |
| 2025-05-07T22:35:00 | 54.533544 | 7.601632 | 2.0 | 10.661 | 2 | 35.520 | 10.855 | 31.626 | 2 |
| 2025-05-07T22:36:00 | 54.534931 | 7.601797 | 2.0 | 10.673 | 2 | 35.515 | 10.838 | 31.635 | 2 |
| 2025-05-07T22:37:00 | 54.536298 | 7.602037 | 2.0 | 10.708 | 2 | 35.526 | 10.838 | 31.646 | 2 |
| 2025-05-07T22:38:00 | 54.537612 | 7.602543 | 2.0 | 10.660 | 2 | 35.567 | 10.876 | 31.654 | 2 |
| 2025-05-07T22:39:00 | 54.538924 | 7.603070 | 2.0 | 10.654 | 2 | 35.541 | 10.827 | 31.670 | 2 |
| 2025-05-07T22:40:00 | 54.540257 | 7.603568 | 2.0 | 10.653 | 2 | 35.539 | 10.822 | 31.673 | 2 |
| 2025-05-07T22:41:00 | 54.541590 | 7.604120 | 2.0 | 10.620 | 2 | 35.546 | 10.821 | 31.681 | 2 |
| 2025-05-07T22:42:00 | 54.542907 | 7.604622 | 2.0 | 10.597 | 2 | 35.543 | 10.790 | 31.704 | 2 |
| 2025-05-07T22:43:00 | 54.544239 | 7.605067 | 2.0 | 10.557 | 2 | 35.529 | 10.761 | 31.716 | 2 |
| 2025-05-07T22:44:00 | 54.545519 | 7.605515 | 2.0 | 10.498 | 2 | 35.508 | 10.715 | 31.735 | 2 |
| 2025-05-07T22:45:00 | 54.546787 | 7.605944 | 2.0 | 10.537 | 2 | 35.498 | 10.678 | 31.757 | 2 |
| 2025-05-07T22:46:00 | 54.548067 | 7.606401 | 2.0 | 10.542 | 2 | 35.525 | 10.705 | 31.760 | 2 |
| 2025-05-07T22:47:00 | 54.549372 | 7.606909 | 2.0 | 10.555 | 2 | 35.534 | 10.714 | 31.761 | 2 |
| 2025-05-07T22:48:00 | 54.550680 | 7.607442 | 2.0 | 10.556 | 2 | 35.555 | 10.733 | 31.766 | 2 |
| 2025-05-07T22:49:00 | 54.551995 | 7.607911 | 2.0 | 10.572 | 2 | 35.565 | 10.720 | 31.787 | 2 |
| 2025-05-07T22:50:00 | 54.553321 | 7.608371 | 2.0 | 10.632 | 2 | 35.590 | 10.750 | 31.786 | 2 |
| 2025-05-07T22:51:00 | 54.554650 | 7.608866 | 2.0 | 10.624 | 2 | 35.635 | 10.799 | 31.788 | 2 |
| 2025-05-07T22:52:00 | 54.555962 | 7.609378 | 2.0 | 10.617 | 2 | 35.642 | 10.790 | 31.803 | 2 |
| 2025-05-07T22:53:00 | 54.557283 | 7.609860 | 2.0 | 10.604 | 2 | 35.645 | 10.781 | 31.813 | 2 |
| 2025-05-07T22:54:00 | 54.558631 | 7.610319 | 2.0 | 10.625 | 2 | 35.650 | 10.780 | 31.819 | 2 |
| 2025-05-07T22:55:00 | 54.559973 | 7.610782 | 2.0 | 10.596 | 2 | 35.661 | 10.789 | 31.822 | 2 |
| 2025-05-07T22:56:00 | 54.561325 | 7.611279 | 2.0 | 10.590 | 2 | 35.650 | 10.764 | 31.833 | 2 |
| 2025-05-07T22:57:00 | 54.562691 | 7.611800 | 2.0 | 10.620 | 2 | 35.661 | 10.764 | 31.844 | 2 |
| 2025-05-07T22:58:00 | 54.564075 | 7.612326 | 2.0 | 10.640 | 2 | 35.700 | 10.791 | 31.859 | 2 |
| 2025-05-07T22:59:00 | 54.565465 | 7.612866 | 2.0 | 10.650 | 2 | 35.731 | 10.809 | 31.874 | 2 |
| 2025-05-07T23:00:00 | 54.566847 | 7.613387 | 2.0 | 10.656 | 2 | 35.749 | 10.819 | 31.883 | 2 |
| 2025-05-07T23:01:00 | 54.568198 | 7.613877 | 2.0 | 10.641 | 2 | 35.763 | 10.823 | 31.894 | 2 |
| 2025-05-07T23:02:00 | 54.569567 | 7.614379 | 2.0 | 10.636 | 2 | 35.763 | 10.808 | 31.907 | 2 |
| 2025-05-07T23:03:00 | 54.570959 | 7.614897 | 2.0 | 10.632 | 2 | 35.772 | 10.805 | 31.918 | 2 |
| 2025-05-07T23:04:00 | 54.572365 | 7.615411 | 2.0 | 10.595 | 2 | 35.781 | 10.795 | 31.936 | 2 |
| 2025-05-07T23:05:00 | 54.573768 | 7.615930 | 2.0 | 10.542 | 2 | 35.757 | 10.753 | 31.949 | 2 |
| 2025-05-07T23:06:00 | 54.575179 | 7.616403 | 2.0 | 10.525 | 2 | 35.725 | 10.713 | 31.952 | 2 |
| 2025-05-07T23:07:00 | 54.576584 | 7.616775 | 2.0 | 10.529 | 2 | 35.711 | 10.694 | 31.955 | 2 |
| 2025-05-07T23:08:00 | 54.578020 | 7.617163 | 2.0 | 10.544 | 2 | 35.725 | 10.702 | 31.962 | 2 |
| 2025-05-07T23:09:00 | 54.579459 | 7.617624 | 2.0 | 10.550 | 2 | 35.748 | 10.715 | 31.973 | 2 |
| 2025-05-07T23:10:00 | 54.580845 | 7.618229 | 2.0 | 10.528 | 2 | 35.753 | 10.712 | 31.981 | 2 |
| 2025-05-07T23:11:00 | 54.582209 | 7.618799 | 2.0 | 10.487 | 2 | 35.738 | 10.691 | 31.984 | 2 |
| 2025-05-07T23:12:00 | 54.583588 | 7.619368 | 2.0 | 10.470 | 2 | 35.705 | 10.656 | 31.982 | 2 |
| 2025-05-07T23:13:00 | 54.584966 | 7.619918 | 2.0 | 10.493 | 2 | 35.681 | 10.643 | 31.970 | 2 |
| 2025-05-07T23:14:00 | 54.586338 | 7.620299 | 2.0 | 10.527 | 2 | 35.687 | 10.668 | 31.954 | 2 |
| 2025-05-07T23:15:00 | 54.587698 | 7.620648 | 2.0 | 10.549 | 2 | 35.706 | 10.698 | 31.946 | 2 |
| 2025-05-07T23:16:00 | 54.589076 | 7.620980 | 2.0 | 10.566 | 2 | 35.718 | 10.719 | 31.940 | 2 |
| 2025-05-07T23:17:00 | 54.590467 | 7.621335 | 2.0 | 10.586 | 2 | 35.726 | 10.737 | 31.932 | 2 |
| 2025-05-07T23:18:00 | 54.591885 | 7.621690 | 2.0 | 10.605 | 2 | 35.735 | 10.756 | 31.924 | 2 |
| 2025-05-07T23:19:00 | 54.593301 | 7.622087 | 2.0 | 10.626 | 2 | 35.742 | 10.776 | 31.914 | 2 |
| 2025-05-07T23:20:00 | 54.594731 | 7.622464 | 2.0 | 10.631 | 2 | 35.749 | 10.795 | 31.904 | 2 |
| 2025-05-07T23:21:00 | 54.596141 | 7.622841 | 2.0 | 10.616 | 2 | 35.744 | 10.796 | 31.899 | 2 |
| 2025-05-07T23:22:00 | 54.597541 | 7.623224 | 2.0 | 10.589 | 2 | 35.726 | 10.780 | 31.895 | 2 |
| 2025-05-07T23:23:00 | 54.598941 | 7.623614 | 2.0 | 10.568 | 2 | 35.694 | 10.755 | 31.885 | 2 |
| 2025-05-07T23:24:00 | 54.600336 | 7.624022 | 2.0 | 10.545 | 2 | 35.668 | 10.733 | 31.878 | 2 |
| 2025-05-07T23:25:00 | 54.601700 | 7.624431 | 2.0 | 10.517 | 2 | 35.640 | 10.711 | 31.869 | 2 |
| 2025-05-07T23:26:00 | 54.603063 | 7.624800 | 2.0 | 10.497 | 2 | 35.613 | 10.685 | 31.865 | 2 |
| 2025-05-07T23:27:00 | 54.604454 | 7.625184 | 2.0 | 10.478 | 2 | 35.233 | 10.665 | 31.505 | 2 |
| 2025-05-07T23:28:00 | 54.605871 | 7.625591 | 2.0 | 10.473 | 2 | 35.563 | 10.646 | 31.850 | 2 |
| 2025-05-07T23:29:00 | 54.607307 | 7.626001 | 2.0 | 10.475 | 2 | 35.544 | 10.643 | 31.833 | 2 |
| 2025-05-07T23:30:00 | 54.608738 | 7.626416 | 2.0 | 10.476 | 2 | 35.059 | 10.644 | 31.350 | 2 |
| 2025-05-07T23:31:00 | 54.610114 | 7.626867 | 2.0 | 10.490 | 2 | 35.533 | 10.645 | 31.821 | 2 |
| 2025-05-07T23:32:00 | 54.611499 | 7.627239 | 2.0 | 10.545 | 2 | 35.088 | 10.669 | 31.358 | 2 |
| 2025-05-07T23:33:00 | 54.612925 | 7.627670 | 2.0 | 10.582 | 2 | 35.454 | 10.718 | 31.679 | 2 |
| 2025-05-07T23:34:00 | 54.614341 | 7.628132 | 2.0 | 10.595 | 2 | 35.287 | 10.747 | 31.488 | 2 |
| 2025-05-07T23:35:00 | 54.615769 | 7.628590 | 2.0 | 10.614 | 2 | 35.439 | 10.765 | 31.623 | 2 |
| 2025-05-07T23:36:00 | 54.617181 | 7.629034 | 2.0 | 10.634 | 2 | 35.443 | 10.784 | 31.611 | 2 |
| 2025-05-07T23:37:00 | 54.618617 | 7.629492 | 2.0 | 10.651 | 2 | 35.570 | 10.803 | 31.720 | 2 |
| 2025-05-07T23:38:00 | 54.620027 | 7.629944 | 2.0 | 10.652 | 2 | 35.067 | 10.817 | 31.210 | 2 |
| 2025-05-07T23:39:00 | 54.621443 | 7.630395 | 2.0 | 10.651 | 2 | 35.033 | 10.819 | 31.175 | 2 |
| 2025-05-07T23:40:00 | 54.622867 | 7.630837 | 2.0 | 10.641 | 2 | 35.633 | 10.816 | 31.771 | 2 |
| 2025-05-07T23:41:00 | 54.624297 | 7.631280 | 2.0 | 10.627 | 2 | 35.384 | 10.807 | 31.532 | 2 |
| 2025-05-07T23:42:00 | 54.625731 | 7.631745 | 2.0 | 10.596 | 2 | 35.549 | 10.787 | 31.713 | 2 |
| 2025-05-07T23:43:00 | 54.627182 | 7.632201 | 2.0 | 10.591 | 2 | 35.586 | 10.767 | 31.767 | 2 |
| 2025-05-07T23:44:00 | 54.628638 | 7.632675 | 2.0 | 10.520 | 2 | 35.340 | 10.752 | 31.536 | 2 |
| 2025-05-07T23:45:00 | 54.630103 | 7.633114 | 2.0 | 10.508 | 2 | 35.484 | 10.686 | 31.736 | 2 |
| 2025-05-07T23:46:00 | 54.631540 | 7.633528 | 2.0 | 10.508 | 2 | 35.433 | 10.678 | 31.692 | 2 |
| 2025-05-07T23:47:00 | 54.632959 | 7.633957 | 2.0 | 10.509 | 2 | 35.350 | 10.679 | 31.609 | 2 |
| 2025-05-07T23:48:00 | 54.634365 | 7.634466 | 2.0 | 10.503 | 2 | 35.244 | 10.676 | 31.506 | 2 |
| 2025-05-07T23:49:00 | 54.635745 | 7.634978 | 2.0 | 10.540 | 2 | 35.306 | 10.680 | 31.565 | 2 |
| 2025-05-07T23:50:00 | 54.637149 | 7.635501 | 2.0 | 10.559 | 2 | 35.128 | 10.709 | 31.363 | 2 |
| 2025-05-07T23:51:00 | 54.638563 | 7.636081 | 2.0 | 10.560 | 2 | 35.509 | 10.727 | 31.725 | 2 |
| 2025-05-07T23:52:00 | 54.640009 | 7.636622 | 2.0 | 10.555 | 2 | 35.507 | 10.726 | 31.724 | 2 |
| 2025-05-07T23:53:00 | 54.641448 | 7.637168 | 2.0 | 10.550 | 2 | 35.355 | 10.722 | 31.577 | 2 |
| 2025-05-07T23:54:00 | 54.642900 | 7.637691 | 2.0 | 10.617 | 2 | 35.514 | 10.726 | 31.731 | 2 |
| 2025-05-07T23:55:00 | 54.644366 | 7.638226 | 2.0 | 10.642 | 2 | 35.570 | 10.780 | 31.740 | 2 |
| 2025-05-07T23:56:00 | 54.645815 | 7.638762 | 2.0 | 10.667 | 2 | 35.384 | 10.812 | 31.528 | 2 |
| 2025-05-07T23:57:00 | 54.647254 | 7.639286 | 2.0 | 10.668 | 2 | 35.592 | 10.833 | 31.716 | 2 |
| 2025-05-07T23:58:00 | 54.648628 | 7.639774 | 2.0 | 10.651 | 2 | 35.414 | 10.830 | 31.542 | 2 |
| 2025-05-07T23:59:00 | 54.649953 | 7.640237 | 2.0 | 10.635 | 2 | 35.481 | 10.817 | 31.620 | 2 |
| 2025-05-08T00:00:00 | 54.651249 | 7.640704 | 2.0 | 10.627 | 2 | 35.330 | 10.801 | 31.484 | 2 |
| 2025-05-08T00:01:00 | 54.652540 | 7.641188 | 2.0 | 10.599 | 2 | 35.405 | 10.789 | 31.569 | 2 |
| 2025-05-08T00:02:00 | 54.653817 | 7.641682 | 2.0 | 10.563 | 2 | 35.358 | 10.760 | 31.547 | 2 |
| 2025-05-08T00:03:00 | 54.655049 | 7.642146 | 2.0 | 10.564 | 2 | 35.413 | 10.735 | 31.623 | 2 |
| 2025-05-08T00:04:00 | 54.656271 | 7.642505 | 2.0 | 10.546 | 2 | 35.306 | 10.732 | 31.520 | 2 |
| 2025-05-08T00:05:00 | 54.657498 | 7.642883 | 2.0 | 10.476 | 2 | 35.366 | 10.702 | 31.605 | 2 |
| 2025-05-08T00:06:00 | 54.658727 | 7.643306 | 2.0 | 10.426 | 2 | 35.248 | 10.636 | 31.545 | 2 |
| 2025-05-08T00:07:00 | 54.659948 | 7.643756 | 2.0 | 10.510 | 2 | 35.207 | 10.605 | 31.531 | 2 |
| 2025-05-08T00:08:00 | 54.661138 | 7.644157 | 2.0 | 10.585 | 2 | 35.273 | 10.681 | 31.531 | 2 |
| 2025-05-08T00:09:00 | 54.662381 | 7.644614 | 2.0 | 10.685 | 2 | 35.285 | 10.772 | 31.464 | 2 |
| 2025-05-08T00:10:00 | 54.663684 | 7.645180 | 2.0 | 10.721 | 2 | 35.343 | 10.852 | 31.453 | 2 |
| 2025-05-08T00:11:00 | 54.665012 | 7.645719 | 2.0 | 10.747 | 2 | 35.297 | 10.888 | 31.377 | 2 |
| 2025-05-08T00:12:00 | 54.666356 | 7.646216 | 2.0 | 10.773 | 2 | 35.377 | 10.917 | 31.431 | 2 |
| 2025-05-08T00:13:00 | 54.667702 | 7.646756 | 2.0 | 10.794 | 2 | 35.391 | 10.942 | 31.423 | 2 |
| 2025-05-08T00:14:00 | 54.669065 | 7.647266 | 2.0 | 10.797 | 2 | 35.418 | 10.959 | 31.435 | 2 |
| 2025-05-08T00:15:00 | 54.670440 | 7.647761 | 2.0 | 10.804 | 2 | 35.415 | 10.963 | 31.429 | 2 |
| 2025-05-08T00:16:00 | 54.671815 | 7.648269 | 2.0 | 10.807 | 2 | 35.421 | 10.971 | 31.428 | 2 |
| 2025-05-08T00:17:00 | 54.673233 | 7.648804 | 2.0 | 10.811 | 2 | 35.436 | 10.971 | 31.443 | 2 |
| 2025-05-08T00:18:00 | 54.674646 | 7.649351 | 2.0 | 10.823 | 2 | 35.444 | 10.979 | 31.444 | 2 |
| 2025-05-08T00:19:00 | 54.676056 | 7.649880 | 2.0 | 10.824 | 2 | 35.477 | 10.988 | 31.469 | 2 |
| 2025-05-08T00:20:00 | 54.677442 | 7.650381 | 2.0 | 10.827 | 2 | 35.504 | 10.990 | 31.494 | 2 |
| 2025-05-08T00:21:00 | 54.678850 | 7.650843 | 2.0 | 10.846 | 2 | 35.490 | 10.993 | 31.477 | 2 |
| 2025-05-08T00:22:00 | 54.680275 | 7.651381 | 2.0 | 10.855 | 2 | 35.507 | 11.012 | 31.478 | 2 |
| 2025-05-08T00:23:00 | 54.681700 | 7.651954 | 2.0 | 10.862 | 2 | 35.494 | 11.019 | 31.459 | 2 |
| 2025-05-08T00:24:00 | 54.683125 | 7.652466 | 2.0 | 10.868 | 2 | 35.519 | 11.030 | 31.474 | 2 |
| 2025-05-08T00:25:00 | 54.684567 | 7.652892 | 2.0 | 10.872 | 2 | 35.546 | 11.036 | 31.495 | 2 |
| 2025-05-08T00:26:00 | 54.686011 | 7.653302 | 2.0 | 10.877 | 2 | 35.537 | 11.038 | 31.485 | 2 |
| 2025-05-08T00:27:00 | 54.687456 | 7.653706 | 2.0 | 10.883 | 2 | 35.556 | 11.044 | 31.498 | 2 |
| 2025-05-08T00:28:00 | 54.688889 | 7.654125 | 2.0 | 10.885 | 2 | 35.560 | 11.049 | 31.498 | 2 |
| 2025-05-08T00:29:00 | 54.690330 | 7.654522 | 2.0 | 10.895 | 2 | 35.596 | 11.052 | 31.531 | 2 |
| 2025-05-08T00:30:00 | 54.691793 | 7.654935 | 2.0 | 10.888 | 2 | 35.583 | 11.059 | 31.512 | 2 |
| 2025-05-08T00:31:00 | 54.693233 | 7.655394 | 2.0 | 10.897 | 2 | 35.596 | 11.053 | 31.530 | 2 |
| 2025-05-08T00:32:00 | 54.694674 | 7.655825 | 2.0 | 10.911 | 2 | 35.605 | 11.065 | 31.529 | 2 |
| 2025-05-08T00:33:00 | 54.696130 | 7.656239 | 2.0 | 10.924 | 2 | 35.626 | 11.078 | 31.538 | 2 |
| 2025-05-08T00:34:00 | 54.697586 | 7.656669 | 2.0 | 10.927 | 2 | 35.622 | 11.089 | 31.525 | 2 |
| 2025-05-08T00:35:00 | 54.698998 | 7.657162 | 2.0 | 10.928 | 2 | 35.649 | 11.092 | 31.549 | 2 |
| 2025-05-08T00:36:00 | 54.700386 | 7.657683 | 2.0 | 10.927 | 2 | 35.644 | 11.094 | 31.542 | 2 |
| 2025-05-08T00:37:00 | 54.701771 | 7.658278 | 2.0 | 10.925 | 2 | 35.651 | 11.093 | 31.550 | 2 |
| 2025-05-08T00:38:00 | 54.703160 | 7.658941 | 2.0 | 10.925 | 2 | 35.653 | 11.090 | 31.554 | 2 |
| 2025-05-08T00:39:00 | 54.704552 | 7.659568 | 2.0 | 10.932 | 2 | 35.650 | 11.093 | 31.549 | 2 |
| 2025-05-08T00:40:00 | 54.705945 | 7.660155 | 2.0 | 10.944 | 2 | 35.649 | 11.100 | 31.542 | 2 |
| 2025-05-08T00:41:00 | 54.707338 | 7.660713 | 2.0 | 10.947 | 2 | 35.666 | 11.111 | 31.549 | 2 |
| 2025-05-08T00:42:00 | 54.708756 | 7.661260 | 2.0 | 10.958 | 2 | 35.666 | 11.115 | 31.546 | 2 |
| 2025-05-08T00:43:00 | 54.710166 | 7.661872 | 2.0 | 10.962 | 2 | 35.673 | 11.124 | 31.545 | 2 |
| 2025-05-08T00:44:00 | 54.711574 | 7.662476 | 2.0 | 10.974 | 2 | 35.681 | 11.130 | 31.548 | 2 |
| 2025-05-08T00:45:00 | 54.712972 | 7.663062 | 2.0 | 10.992 | 2 | 35.694 | 11.141 | 31.551 | 2 |
| 2025-05-08T00:46:00 | 54.714326 | 7.663633 | 2.0 | 11.022 | 2 | 35.714 | 11.163 | 31.552 | 2 |
| 2025-05-08T00:47:00 | 54.715685 | 7.664173 | 2.0 | 11.028 | 2 | 35.738 | 11.185 | 31.556 | 2 |
| 2025-05-08T00:48:00 | 54.717041 | 7.664731 | 2.0 | 11.040 | 2 | 35.753 | 11.195 | 31.563 | 2 |
| 2025-05-08T00:49:00 | 54.718409 | 7.665324 | 2.0 | 10.989 | 2 | 35.759 | 11.197 | 31.567 | 2 |
| 2025-05-08T00:50:00 | 54.719765 | 7.665917 | 2.0 | 10.869 | 2 | 35.732 | 11.151 | 31.580 | 2 |
| 2025-05-08T00:51:00 | 54.721118 | 7.666495 | 2.0 | 10.710 | 2 | 35.626 | 10.999 | 31.606 | 2 |
| 2025-05-08T00:52:00 | 54.722326 | 7.666979 | 2.0 | 10.703 | 2 | 35.535 | 10.889 | 31.611 | 2 |
| 2025-05-08T00:53:00 | 54.723492 | 7.667397 | 2.0 | 10.692 | 2 | 35.459 | 10.871 | 31.551 | 2 |
| 2025-05-08T00:54:00 | 54.724611 | 7.667864 | 2.0 | 10.672 | 2 | 35.498 | 10.861 | 31.599 | 2 |
| 2025-05-08T00:55:00 | 54.725695 | 7.668340 | 2.0 | 10.667 | 2 | 35.507 | 10.838 | 31.627 | 2 |
| 2025-05-08T00:56:00 | 54.726768 | 7.668782 | 2.0 | 10.697 | 2 | 35.508 | 10.839 | 31.627 | 2 |
| 2025-05-08T00:57:00 | 54.727860 | 7.669206 | 2.0 | 10.708 | 2 | 35.505 | 10.869 | 31.599 | 2 |
| 2025-05-08T00:58:00 | 54.728937 | 7.669696 | 2.0 | 10.705 | 2 | 35.540 | 10.875 | 31.628 | 2 |
| 2025-05-08T00:59:00 | 54.730013 | 7.670194 | 2.0 | 10.676 | 2 | 35.539 | 10.870 | 31.631 | 2 |
| 2025-05-08T01:00:00 | 54.731103 | 7.670691 | 2.0 | 10.636 | 2 | 35.521 | 10.841 | 31.639 | 2 |
| 2025-05-08T01:01:00 | 54.732163 | 7.671187 | 2.0 | 10.629 | 2 | 35.497 | 10.800 | 31.650 | 2 |
| 2025-05-08T01:02:00 | 54.733255 | 7.671652 | 2.0 | 10.653 | 2 | 35.488 | 10.800 | 31.641 | 2 |
| 2025-05-08T01:03:00 | 54.734383 | 7.672078 | 2.0 | 10.666 | 2 | 35.509 | 10.823 | 31.642 | 2 |
| 2025-05-08T01:04:00 | 54.735533 | 7.672529 | 2.0 | 10.667 | 2 | 35.516 | 10.834 | 31.640 | 2 |
| 2025-05-08T01:05:00 | 54.736678 | 7.673047 | 2.0 | 10.664 | 2 | 35.522 | 10.835 | 31.645 | 2 |
| 2025-05-08T01:06:00 | 54.737817 | 7.673574 | 2.0 | 10.646 | 2 | 35.522 | 10.829 | 31.650 | 2 |
| 2025-05-08T01:07:00 | 54.738961 | 7.674070 | 2.0 | 10.611 | 2 | 35.511 | 10.809 | 31.656 | 2 |
| 2025-05-08T01:08:00 | 54.740119 | 7.674569 | 2.0 | 10.587 | 2 | 35.495 | 10.776 | 31.669 | 2 |
| 2025-05-08T01:09:00 | 54.741271 | 7.675046 | 2.0 | 10.569 | 2 | 35.477 | 10.753 | 31.671 | 2 |
| 2025-05-08T01:10:00 | 54.742385 | 7.675513 | 2.0 | 10.556 | 2 | 35.471 | 10.738 | 31.678 | 2 |
| 2025-05-08T01:11:00 | 54.743503 | 7.675952 | 2.0 | 10.565 | 2 | 35.461 | 10.724 | 31.680 | 2 |
| 2025-05-08T01:12:00 | 54.744617 | 7.676394 | 2.0 | 10.600 | 2 | 35.472 | 10.743 | 31.675 | 2 |
| 2025-05-08T01:13:00 | 54.745711 | 7.676881 | 2.0 | 10.613 | 2 | 35.490 | 10.768 | 31.671 | 2 |
| 2025-05-08T01:14:00 | 54.746801 | 7.677386 | 2.0 | 10.607 | 2 | 35.501 | 10.778 | 31.673 | 2 |
| 2025-05-08T01:15:00 | 54.747874 | 7.677879 | 2.0 | 10.617 | 2 | 35.499 | 10.773 | 31.676 | 2 |
| 2025-05-08T01:16:00 | 54.748963 | 7.678330 | 2.0 | 10.622 | 2 | 35.510 | 10.786 | 31.675 | 2 |
| 2025-05-08T01:17:00 | 54.750074 | 7.678789 | 2.0 | 10.627 | 2 | 35.514 | 10.789 | 31.677 | 2 |
| 2025-05-08T01:18:00 | 54.751172 | 7.679283 | 2.0 | 10.628 | 2 | 35.518 | 10.794 | 31.676 | 2 |
| 2025-05-08T01:19:00 | 54.752260 | 7.679754 | 2.0 | 10.629 | 2 | 35.519 | 10.794 | 31.677 | 2 |
| 2025-05-08T01:20:00 | 54.753347 | 7.680212 | 2.0 | 10.636 | 2 | 35.522 | 10.796 | 31.678 | 2 |
| 2025-05-08T01:21:00 | 54.754426 | 7.680652 | 2.0 | 10.645 | 2 | 35.530 | 10.805 | 31.679 | 2 |
| 2025-05-08T01:22:00 | 54.755523 | 7.681068 | 2.0 | 10.652 | 2 | 35.533 | 10.812 | 31.676 | 2 |
| 2025-05-08T01:23:00 | 54.756627 | 7.681511 | 2.0 | 10.652 | 2 | 35.539 | 10.819 | 31.675 | 2 |
| 2025-05-08T01:24:00 | 54.757719 | 7.681972 | 2.0 | 10.658 | 2 | 35.540 | 10.818 | 31.677 | 2 |
| 2025-05-08T01:25:00 | 54.758805 | 7.682446 | 2.0 | 10.669 | 2 | 35.548 | 10.828 | 31.677 | 2 |
| 2025-05-08T01:26:00 | 54.759884 | 7.682919 | 2.0 | 10.668 | 2 | 35.555 | 10.836 | 31.677 | 2 |
| 2025-05-08T01:27:00 | 54.760968 | 7.683373 | 2.0 | 10.672 | 2 | 35.554 | 10.837 | 31.675 | 2 |
| 2025-05-08T01:28:00 | 54.762009 | 7.683785 | 2.0 | 10.676 | 2 | 35.555 | 10.839 | 31.674 | 2 |
| 2025-05-08T01:29:00 | 54.763053 | 7.684192 | 2.0 | 10.675 | 2 | 35.557 | 10.842 | 31.673 | 2 |
| 2025-05-08T01:30:00 | 54.764077 | 7.684618 | 2.0 | 10.679 | 2 | 35.556 | 10.843 | 31.671 | 2 |
| 2025-05-08T01:31:00 | 54.765116 | 7.685078 | 2.0 | 10.682 | 2 | 35.554 | 10.847 | 31.666 | 2 |
| 2025-05-08T01:32:00 | 54.766105 | 7.685531 | 2.0 | 10.681 | 2 | 35.549 | 10.845 | 31.663 | 2 |
| 2025-05-08T01:33:00 | 54.767113 | 7.685948 | 2.0 | 10.681 | 2 | 35.547 | 10.847 | 31.659 | 2 |
| 2025-05-08T01:34:00 | 54.768146 | 7.686391 | 2.0 | 10.674 | 2 | 35.543 | 10.846 | 31.656 | 2 |
| 2025-05-08T01:35:00 | 54.769182 | 7.686868 | 2.0 | 10.669 | 2 | 35.536 | 10.840 | 31.654 | 2 |
| 2025-05-08T01:36:00 | 54.770209 | 7.687314 | 2.0 | 10.665 | 2 | 35.529 | 10.836 | 31.651 | 2 |
| 2025-05-08T01:37:00 | 54.771254 | 7.687728 | 2.0 | 10.662 | 2 | 35.524 | 10.832 | 31.649 | 2 |
| 2025-05-08T01:38:00 | 54.772286 | 7.688139 | 2.0 | 10.660 | 2 | 35.515 | 10.827 | 31.645 | 2 |
| 2025-05-08T01:39:00 | 54.773291 | 7.688527 | 2.0 | 10.653 | 2 | 35.512 | 10.826 | 31.643 | 2 |
| 2025-05-08T01:40:00 | 54.774288 | 7.688928 | 2.0 | 10.652 | 2 | 35.505 | 10.822 | 31.639 | 2 |
| 2025-05-08T01:41:00 | 54.775256 | 7.689333 | 2.0 | 10.650 | 2 | 35.498 | 10.818 | 31.636 | 2 |
| 2025-05-08T01:42:00 | 54.776238 | 7.689722 | 2.0 | 10.653 | 2 | 35.495 | 10.817 | 31.634 | 2 |
| 2025-05-08T01:43:00 | 54.777248 | 7.690162 | 2.0 | 10.653 | 2 | 35.494 | 10.820 | 31.630 | 2 |
| 2025-05-08T01:44:00 | 54.778263 | 7.690635 | 2.0 | 10.652 | 2 | 35.491 | 10.821 | 31.626 | 2 |
| 2025-05-08T01:45:00 | 54.779283 | 7.691109 | 2.0 | 10.653 | 2 | 35.485 | 10.818 | 31.623 | 2 |
| 2025-05-08T01:46:00 | 54.780293 | 7.691541 | 2.0 | 10.646 | 2 | 35.482 | 10.818 | 31.620 | 2 |
| 2025-05-08T01:47:00 | 54.781307 | 7.691983 | 2.0 | 10.646 | 2 | 35.473 | 10.813 | 31.615 | 2 |
| 2025-05-08T01:48:00 | 54.782317 | 7.692420 | 2.0 | 10.645 | 2 | 35.467 | 10.812 | 31.610 | 2 |
| 2025-05-08T01:49:00 | 54.783349 | 7.692853 | 2.0 | 10.645 | 2 | 35.461 | 10.811 | 31.605 | 2 |
| 2025-05-08T01:50:00 | 54.784393 | 7.693294 | 2.0 | 10.646 | 2 | 35.458 | 10.813 | 31.600 | 2 |
| 2025-05-08T01:51:00 | 54.785423 | 7.693742 | 2.0 | 10.647 | 2 | 35.453 | 10.813 | 31.595 | 2 |
| 2025-05-08T01:52:00 | 54.786437 | 7.694187 | 2.0 | 10.646 | 2 | 35.450 | 10.812 | 31.593 | 2 |
| 2025-05-08T01:53:00 | 54.787445 | 7.694594 | 2.0 | 10.644 | 2 | 35.445 | 10.811 | 31.589 | 2 |
| 2025-05-08T01:54:00 | 54.788478 | 7.694996 | 2.0 | 10.649 | 2 | 35.442 | 10.812 | 31.585 | 2 |
| 2025-05-08T01:55:00 | 54.789511 | 7.695456 | 2.0 | 10.652 | 2 | 35.441 | 10.815 | 31.582 | 2 |
| 2025-05-08T01:56:00 | 54.790547 | 7.695897 | 2.0 | 10.650 | 2 | 35.440 | 10.817 | 31.579 | 2 |
| 2025-05-08T01:57:00 | 54.791587 | 7.696351 | 2.0 | 10.655 | 2 | 35.439 | 10.818 | 31.577 | 2 |
| 2025-05-08T01:58:00 | 54.792633 | 7.696793 | 2.0 | 10.658 | 2 | 35.439 | 10.822 | 31.574 | 2 |
| 2025-05-08T01:59:00 | 54.793665 | 7.697209 | 2.0 | 10.662 | 2 | 35.438 | 10.825 | 31.570 | 2 |
| 2025-05-08T02:00:00 | 54.794719 | 7.697623 | 2.0 | 10.661 | 2 | 35.439 | 10.828 | 31.569 | 2 |
| 2025-05-08T02:01:00 | 54.795766 | 7.698077 | 2.0 | 10.665 | 2 | 35.437 | 10.829 | 31.566 | 2 |
| 2025-05-08T02:02:00 | 54.796808 | 7.698535 | 2.0 | 10.665 | 2 | 35.435 | 10.830 | 31.563 | 2 |
| 2025-05-08T02:03:00 | 54.797856 | 7.698974 | 2.0 | 10.666 | 2 | 35.435 | 10.832 | 31.561 | 2 |
| 2025-05-08T02:04:00 | 54.798892 | 7.699426 | 2.0 | 10.660 | 2 | 35.430 | 10.831 | 31.557 | 2 |
| 2025-05-08T02:05:00 | 54.799923 | 7.699864 | 2.0 | 10.657 | 2 | 35.423 | 10.825 | 31.555 | 2 |
| 2025-05-08T02:06:00 | 54.800957 | 7.700290 | 2.0 | 10.652 | 2 | 35.418 | 10.823 | 31.552 | 2 |
| 2025-05-08T02:07:00 | 54.801999 | 7.700733 | 2.0 | 10.652 | 2 | 35.411 | 10.820 | 31.548 | 2 |
| 2025-05-08T02:08:00 | 54.803039 | 7.701171 | 2.0 | 10.658 | 2 | 35.406 | 10.819 | 31.544 | 2 |
| 2025-05-08T02:09:00 | 54.804084 | 7.701623 | 2.0 | 10.663 | 2 | 35.405 | 10.825 | 31.538 | 2 |
| 2025-05-08T02:10:00 | 54.805103 | 7.702091 | 2.0 | 10.664 | 2 | 35.404 | 10.828 | 31.534 | 2 |
| 2025-05-08T02:11:00 | 54.806136 | 7.702502 | 2.0 | 10.666 | 2 | 35.401 | 10.829 | 31.530 | 2 |
| 2025-05-08T02:12:00 | 54.807173 | 7.702929 | 2.0 | 10.669 | 2 | 35.399 | 10.833 | 31.525 | 2 |
| 2025-05-08T02:13:00 | 54.808211 | 7.703355 | 2.0 | 10.666 | 2 | 35.398 | 10.835 | 31.522 | 2 |
| 2025-05-08T02:14:00 | 54.809262 | 7.703830 | 2.0 | 10.664 | 2 | 35.394 | 10.833 | 31.520 | 2 |
| 2025-05-08T02:15:00 | 54.810313 | 7.704319 | 2.0 | 10.657 | 2 | 35.388 | 10.828 | 31.518 | 2 |
| 2025-05-08T02:16:00 | 54.811366 | 7.704780 | 2.0 | 10.651 | 2 | 35.383 | 10.824 | 31.517 | 2 |
| 2025-05-08T02:17:00 | 54.812437 | 7.705215 | 2.0 | 10.641 | 2 | 35.377 | 10.818 | 31.516 | 2 |
| 2025-05-08T02:18:00 | 54.813496 | 7.705666 | 2.0 | 10.634 | 2 | 35.368 | 10.808 | 31.516 | 2 |
| 2025-05-08T02:19:00 | 54.814512 | 7.706110 | 2.0 | 10.627 | 2 | 35.361 | 10.799 | 31.516 | 2 |
| 2025-05-08T02:20:00 | 54.815544 | 7.706502 | 2.0 | 10.631 | 2 | 35.358 | 10.796 | 31.516 | 2 |
| 2025-05-08T02:21:00 | 54.816590 | 7.706904 | 2.0 | 10.628 | 2 | 35.358 | 10.796 | 31.516 | 2 |
| 2025-05-08T02:22:00 | 54.817639 | 7.707337 | 2.0 | 10.631 | 2 | 35.358 | 10.796 | 31.516 | 2 |
| 2025-05-08T02:23:00 | 54.818685 | 7.707794 | 2.0 | 10.628 | 2 | 35.357 | 10.797 | 31.514 | 2 |
| 2025-05-08T02:24:00 | 54.819702 | 7.708257 | 2.0 | 10.632 | 2 | 35.354 | 10.794 | 31.514 | 2 |
| 2025-05-08T02:25:00 | 54.820729 | 7.708694 | 2.0 | 10.630 | 2 | 35.357 | 10.798 | 31.513 | 2 |
| 2025-05-08T02:26:00 | 54.821752 | 7.709139 | 2.0 | 10.624 | 2 | 35.355 | 10.797 | 31.512 | 2 |
| 2025-05-08T02:27:00 | 54.822786 | 7.709566 | 2.0 | 10.625 | 2 | 35.349 | 10.792 | 31.511 | 2 |
| 2025-05-08T02:28:00 | 54.823808 | 7.710013 | 2.0 | 10.616 | 2 | 34.913 | 10.790 | 31.081 | 2 |
| 2025-05-08T02:29:00 | 54.824825 | 7.710452 | 2.0 | 10.613 | 2 | 35.304 | 10.783 | 31.474 | 2 |
| 2025-05-08T02:30:00 | 54.825830 | 7.710868 | 2.0 | 10.608 | 2 | 35.331 | 10.778 | 31.505 | 2 |
| 2025-05-08T02:31:00 | 54.826851 | 7.711264 | 2.0 | 10.602 | 2 | 35.264 | 10.774 | 31.442 | 2 |
| 2025-05-08T02:32:00 | 54.827849 | 7.711697 | 2.0 | 10.597 | 2 | 35.316 | 10.768 | 31.499 | 2 |
| 2025-05-08T02:33:00 | 54.828838 | 7.712126 | 2.0 | 10.595 | 2 | 35.314 | 10.763 | 31.501 | 2 |
| 2025-05-08T02:34:00 | 54.829833 | 7.712541 | 2.0 | 10.596 | 2 | 35.312 | 10.762 | 31.500 | 2 |
| 2025-05-08T02:35:00 | 54.830839 | 7.712960 | 2.0 | 10.598 | 2 | 35.311 | 10.763 | 31.498 | 2 |
| 2025-05-08T02:36:00 | 54.831847 | 7.713416 | 2.0 | 10.598 | 2 | 35.006 | 10.765 | 31.194 | 2 |
| 2025-05-08T02:37:00 | 54.832858 | 7.713867 | 2.0 | 10.593 | 2 | 35.310 | 10.763 | 31.497 | 2 |
| 2025-05-08T02:38:00 | 54.833875 | 7.714299 | 2.0 | 10.593 | 2 | 35.306 | 10.760 | 31.496 | 2 |
| 2025-05-08T02:39:00 | 54.834866 | 7.714726 | 2.0 | 10.585 | 2 | 35.249 | 10.758 | 31.441 | 2 |
| 2025-05-08T02:40:00 | 54.835866 | 7.715130 | 2.0 | 10.581 | 2 | 35.299 | 10.751 | 31.496 | 2 |
| 2025-05-08T02:41:00 | 54.836879 | 7.715548 | 2.0 | 10.584 | 2 | 35.115 | 10.750 | 31.315 | 2 |
| 2025-05-08T02:42:00 | 54.837889 | 7.715994 | 2.0 | 10.577 | 2 | 34.964 | 10.752 | 31.164 | 2 |
| 2025-05-08T02:43:00 | 54.838903 | 7.716448 | 2.0 | 10.580 | 2 | 35.056 | 10.745 | 31.261 | 2 |
| 2025-05-08T02:44:00 | 54.839909 | 7.716884 | 2.0 | 10.589 | 2 | 35.306 | 10.749 | 31.505 | 2 |
| 2025-05-08T02:45:00 | 54.840930 | 7.717285 | 2.0 | 10.591 | 2 | 35.175 | 10.757 | 31.368 | 2 |
| 2025-05-08T02:46:00 | 54.841950 | 7.717712 | 2.0 | 10.582 | 2 | 35.095 | 10.756 | 31.290 | 2 |
| 2025-05-08T02:47:00 | 54.842975 | 7.718131 | 2.0 | 10.573 | 2 | 35.055 | 10.746 | 31.259 | 2 |
| 2025-05-08T02:48:00 | 54.844000 | 7.718572 | 2.0 | 10.576 | 2 | 35.099 | 10.743 | 31.305 | 2 |
| 2025-05-08T02:49:00 | 54.845011 | 7.719010 | 2.0 | 10.562 | 2 | 34.959 | 10.742 | 31.167 | 2 |
| 2025-05-08T02:50:00 | 54.845988 | 7.719450 | 2.0 | 10.553 | 2 | 35.130 | 10.732 | 31.345 | 2 |
| 2025-05-08T02:51:00 | 54.846972 | 7.719859 | 2.0 | 10.552 | 2 | 35.278 | 10.722 | 31.501 | 2 |
| 2025-05-08T02:52:00 | 54.847938 | 7.720269 | 2.0 | 10.590 | 2 | 35.291 | 10.729 | 31.507 | 2 |
| 2025-05-08T02:53:00 | 54.848891 | 7.720676 | 2.0 | 10.589 | 2 | 35.134 | 10.756 | 31.329 | 2 |
| 2025-05-08T02:54:00 | 54.849852 | 7.721062 | 2.0 | 10.591 | 2 | 35.240 | 10.757 | 31.433 | 2 |
| 2025-05-08T02:55:00 | 54.850845 | 7.721458 | 2.0 | 10.594 | 2 | 35.163 | 10.759 | 31.355 | 2 |
| 2025-05-08T02:56:00 | 54.851850 | 7.721899 | 2.0 | 10.602 | 2 | 35.286 | 10.763 | 31.473 | 2 |
| 2025-05-08T02:57:00 | 54.852869 | 7.722353 | 2.0 | 10.615 | 2 | 35.291 | 10.773 | 31.470 | 2 |
| 2025-05-08T02:58:00 | 54.853883 | 7.722818 | 2.0 | 10.618 | 2 | 35.374 | 10.782 | 31.544 | 2 |
| 2025-05-08T02:59:00 | 54.854844 | 7.723255 | 2.0 | 10.614 | 2 | 35.373 | 10.784 | 31.541 | 2 |
| 2025-05-08T03:00:00 | 54.855830 | 7.723624 | 2.0 | 10.615 | 2 | 35.367 | 10.781 | 31.538 | 2 |
| 2025-05-08T03:01:00 | 54.856828 | 7.724025 | 2.0 | 10.607 | 2 | 35.272 | 10.780 | 31.445 | 2 |
| 2025-05-08T03:02:00 | 54.857838 | 7.724445 | 2.0 | 10.615 | 2 | 35.237 | 10.776 | 31.413 | 2 |
| 2025-05-08T03:03:00 | 54.858856 | 7.724873 | 2.0 | 10.606 | 2 | 35.344 | 10.778 | 31.518 | 2 |
| 2025-05-08T03:04:00 | 54.859884 | 7.725303 | 2.0 | 10.600 | 2 | 35.295 | 10.772 | 31.474 | 2 |
| 2025-05-08T03:05:00 | 54.860903 | 7.725761 | 2.0 | 10.591 | 2 | 35.277 | 10.768 | 31.460 | 2 |
| 2025-05-08T03:06:00 | 54.861932 | 7.726202 | 2.0 | 10.586 | 2 | 35.175 | 10.760 | 31.366 | 2 |
| 2025-05-08T03:07:00 | 54.862959 | 7.726655 | 2.0 | 10.589 | 2 | 35.258 | 10.754 | 31.453 | 2 |
| 2025-05-08T03:08:00 | 54.863991 | 7.727103 | 2.0 | 10.575 | 2 | 35.168 | 10.756 | 31.362 | 2 |
| 2025-05-08T03:09:00 | 54.865044 | 7.727520 | 2.0 | 10.570 | 2 | 35.160 | 10.740 | 31.368 | 2 |
| 2025-05-08T03:10:00 | 54.866097 | 7.727967 | 2.0 | 10.562 | 2 | 35.149 | 10.737 | 31.360 | 2 |
| 2025-05-08T03:11:00 | 54.867123 | 7.728417 | 2.0 | 10.560 | 2 | 35.189 | 10.727 | 31.408 | 2 |
| 2025-05-08T03:12:00 | 54.868154 | 7.728834 | 2.0 | 10.580 | 2 | 35.136 | 10.732 | 31.351 | 2 |
| 2025-05-08T03:13:00 | 54.869186 | 7.729251 | 2.0 | 10.582 | 2 | 35.178 | 10.746 | 31.381 | 2 |
| 2025-05-08T03:14:00 | 54.870228 | 7.729683 | 2.0 | 10.583 | 2 | 35.207 | 10.749 | 31.407 | 2 |
| 2025-05-08T03:15:00 | 54.871249 | 7.730157 | 2.0 | 10.578 | 2 | 35.204 | 10.749 | 31.404 | 2 |
| 2025-05-08T03:16:00 | 54.872277 | 7.730594 | 2.0 | 10.565 | 2 | 35.208 | 10.743 | 31.413 | 2 |
| 2025-05-08T03:17:00 | 54.873319 | 7.731029 | 2.0 | 10.564 | 2 | 35.221 | 10.733 | 31.435 | 2 |
| 2025-05-08T03:18:00 | 54.874346 | 7.731486 | 2.0 | 10.553 | 2 | 35.210 | 10.730 | 31.426 | 2 |
| 2025-05-08T03:19:00 | 54.875347 | 7.731930 | 2.0 | 10.538 | 2 | 35.222 | 10.718 | 31.448 | 2 |
| 2025-05-08T03:20:00 | 54.876313 | 7.732329 | 2.0 | 10.538 | 2 | 35.233 | 10.707 | 31.469 | 2 |
| 2025-05-08T03:21:00 | 54.877312 | 7.732702 | 2.0 | 10.534 | 2 | 35.237 | 10.706 | 31.474 | 2 |
| 2025-05-08T03:22:00 | 54.878297 | 7.733140 | 2.0 | 10.536 | 2 | 35.241 | 10.701 | 31.482 | 2 |
| 2025-05-08T03:23:00 | 54.879271 | 7.733587 | 2.0 | 10.528 | 2 | 35.275 | 10.699 | 31.517 | 2 |
| 2025-05-08T03:24:00 | 54.880261 | 7.733993 | 2.0 | 10.533 | 2 | 35.267 | 10.697 | 31.511 | 2 |
| 2025-05-08T03:25:00 | 54.881264 | 7.734401 | 2.0 | 10.531 | 2 | 35.291 | 10.699 | 31.533 | 2 |
| 2025-05-08T03:26:00 | 54.882274 | 7.734823 | 2.0 | 10.525 | 2 | 35.278 | 10.696 | 31.523 | 2 |
| 2025-05-08T03:27:00 | 54.883282 | 7.735243 | 2.0 | 10.532 | 2 | 35.296 | 10.693 | 31.543 | 2 |
| 2025-05-08T03:28:00 | 54.884285 | 7.735678 | 2.0 | 10.526 | 2 | 35.325 | 10.697 | 31.569 | 2 |
| 2025-05-08T03:29:00 | 54.885265 | 7.736114 | 2.0 | 10.525 | 2 | 35.316 | 10.693 | 31.563 | 2 |
| 2025-05-08T03:30:00 | 54.886263 | 7.736534 | 2.0 | 10.521 | 2 | 35.349 | 10.691 | 31.598 | 2 |
| 2025-05-08T03:31:00 | 54.887270 | 7.736956 | 2.0 | 10.518 | 2 | 35.371 | 10.689 | 31.621 | 2 |
| 2025-05-08T03:32:00 | 54.888264 | 7.737408 | 2.0 | 10.519 | 2 | 35.346 | 10.685 | 31.600 | 2 |
| 2025-05-08T03:33:00 | 54.889264 | 7.737838 | 2.0 | 10.530 | 2 | 35.396 | 10.689 | 31.646 | 2 |
| 2025-05-08T03:34:00 | 54.890250 | 7.738246 | 2.0 | 10.524 | 2 | 35.412 | 10.695 | 31.657 | 2 |
| 2025-05-08T03:35:00 | 54.891226 | 7.738651 | 2.0 | 10.513 | 2 | 35.433 | 10.689 | 31.683 | 2 |
| 2025-05-08T03:36:00 | 54.892179 | 7.739067 | 2.0 | 10.509 | 2 | 35.437 | 10.680 | 31.695 | 2 |
| 2025-05-08T03:37:00 | 54.893120 | 7.739473 | 2.0 | 10.498 | 2 | 35.447 | 10.674 | 31.710 | 2 |
| 2025-05-08T03:38:00 | 54.894075 | 7.739871 | 2.0 | 10.508 | 2 | 35.453 | 10.668 | 31.721 | 2 |
| 2025-05-08T03:39:00 | 54.895043 | 7.740270 | 2.0 | 10.560 | 2 | 35.492 | 10.680 | 31.749 | 2 |
| 2025-05-08T03:40:00 | 54.896029 | 7.740674 | 2.0 | 10.590 | 2 | 35.550 | 10.732 | 31.762 | 2 |
| 2025-05-08T03:41:00 | 54.897030 | 7.741102 | 2.0 | 10.579 | 2 | 35.585 | 10.753 | 31.778 | 2 |
| 2025-05-08T03:42:00 | 54.898004 | 7.741560 | 2.0 | 10.556 | 2 | 35.572 | 10.742 | 31.775 | 2 |
| 2025-05-08T03:43:00 | 54.898968 | 7.741980 | 2.0 | 10.546 | 2 | 35.574 | 10.721 | 31.795 | 2 |
| 2025-05-08T03:44:00 | 54.899950 | 7.742376 | 2.0 | 10.545 | 2 | 35.573 | 10.712 | 31.802 | 2 |
| 2025-05-08T03:45:00 | 54.900925 | 7.742800 | 2.0 | 10.556 | 2 | 35.605 | 10.714 | 31.832 | 2 |
| 2025-05-08T03:46:00 | 54.901897 | 7.743199 | 2.0 | 10.556 | 2 | 35.631 | 10.719 | 31.853 | 2 |
| 2025-05-08T03:47:00 | 54.902873 | 7.743603 | 2.0 | 10.551 | 2 | 35.650 | 10.720 | 31.871 | 2 |
| 2025-05-08T03:48:00 | 54.903844 | 7.744033 | 2.0 | 10.541 | 2 | 35.653 | 10.714 | 31.880 | 2 |
| 2025-05-08T03:49:00 | 54.904835 | 7.744462 | 2.0 | 10.516 | 2 | 35.649 | 10.704 | 31.884 | 2 |
| 2025-05-08T03:50:00 | 54.905837 | 7.744900 | 2.0 | 10.475 | 2 | 35.621 | 10.671 | 31.885 | 2 |
| 2025-05-08T03:51:00 | 54.906846 | 7.745323 | 2.0 | 10.465 | 2 | 35.598 | 10.644 | 31.886 | 2 |
| 2025-05-08T03:52:00 | 54.907807 | 7.745743 | 2.0 | 10.462 | 2 | 35.592 | 10.631 | 31.891 | 2 |
| 2025-05-08T03:53:00 | 54.908667 | 7.746133 | 2.0 | 10.449 | 2 | 35.598 | 10.633 | 31.896 | 2 |
| 2025-05-08T03:54:00 | 54.909389 | 7.746496 | 2.0 | 10.447 | 2 | 35.590 | 10.621 | 31.898 | 2 |
| 2025-05-08T03:55:00 | 54.909984 | 7.746830 | 2.0 | 10.453 | 2 | 35.593 | 10.622 | 31.900 | 2 |
| 2025-05-08T03:56:00 | 54.910479 | 7.747146 | 2.0 | 10.444 | 2 | 35.593 | 10.620 | 31.902 | 2 |
| 2025-05-08T03:57:00 | 54.910911 | 7.747458 | 2.0 | 10.449 | 2 | 35.590 | 10.613 | 31.905 | 2 |
| 2025-05-08T03:58:00 | 54.911291 | 7.747755 | 2.0 | 10.442 | 2 | 35.597 | 10.616 | 31.910 | 2 |
| 2025-05-08T03:59:00 | 54.911591 | 7.748042 | 2.0 | 10.446 | 2 | 35.594 | 10.610 | 31.912 | 2 |
| 2025-05-08T04:00:00 | 54.911765 | 7.748351 | 2.0 | 10.449 | 2 | 35.598 | 10.613 | 31.913 | 2 |
| 2025-05-08T04:01:00 | 54.911876 | 7.748706 | 2.0 | 10.445 | 2 | 35.603 | 10.616 | 31.916 | 2 |
| 2025-05-08T04:02:00 | 54.912014 | 7.748963 | 2.0 | 10.438 | 2 | 35.601 | 10.611 | 31.918 | 2 |
| 2025-05-08T04:03:00 | 54.912093 | 7.749112 | 2.0 | 10.446 | 2 | 35.600 | 10.608 | 31.920 | 2 |
| 2025-05-08T04:04:00 | 54.912123 | 7.749188 | 2.0 | 10.453 | 2 | 35.610 | 10.615 | 31.923 | 2 |
| 2025-05-08T04:05:00 | 54.912092 | 7.749206 | 2.0 | 10.458 | 2 | 35.617 | 10.621 | 31.925 | 2 |
| 2025-05-08T04:06:00 | 54.912012 | 7.749211 | 2.0 | 10.459 | 2 | 35.623 | 10.625 | 31.928 | 2 |
| 2025-05-08T04:07:00 | 54.911900 | 7.749209 | 2.0 | 10.470 | 2 | 35.631 | 10.630 | 31.931 | 2 |
| 2025-05-08T04:08:00 | 54.911771 | 7.749221 | 2.0 | 10.508 | 2 | 35.642 | 10.640 | 31.933 | 2 |
| 2025-05-08T04:09:00 | 54.911623 | 7.749260 | 2.0 | 10.538 | 2 | 35.702 | 10.689 | 31.950 | 2 |
| 2025-05-08T04:10:00 | 54.911460 | 7.749332 | 2.0 | 10.534 | 2 | 35.733 | 10.708 | 31.964 | 2 |
| 2025-05-08T04:11:00 | 54.911271 | 7.749441 | 2.0 | 10.473 | 2 | 35.711 | 10.687 | 31.961 | 2 |
| 2025-05-08T04:12:00 | 54.911080 | 7.749575 | 2.0 | 10.484 | 2 | 35.654 | 10.644 | 31.942 | 2 |
| 2025-05-08T04:13:00 | 54.910890 | 7.749727 | 2.0 | 10.469 | 2 | 35.660 | 10.650 | 31.943 | 2 |
| 2025-05-08T04:14:00 | 54.910688 | 7.749882 | 2.0 | 10.460 | 2 | 35.641 | 10.634 | 31.938 | 2 |
| 2025-05-08T04:15:00 | 54.910474 | 7.750042 | 2.0 | 10.459 | 2 | 35.631 | 10.627 | 31.934 | 2 |
| 2025-05-08T04:16:00 | 54.910240 | 7.750212 | 2.0 | 10.460 | 2 | 35.631 | 10.627 | 31.934 | 2 |
| 2025-05-08T04:17:00 | 54.909999 | 7.750394 | 2.0 | 10.457 | 2 | 35.629 | 10.626 | 31.933 | 2 |
| 2025-05-08T04:18:00 | 54.909774 | 7.750584 | 2.0 | 10.454 | 2 | 35.624 | 10.623 | 31.930 | 2 |
| 2025-05-08T04:19:00 | 54.909559 | 7.750761 | 2.0 | 10.457 | 2 | 35.624 | 10.622 | 31.931 | 2 |
| 2025-05-08T04:20:00 | 54.909346 | 7.750901 | 2.0 | 10.454 | 2 | 35.626 | 10.623 | 31.932 | 2 |
| 2025-05-08T04:21:00 | 54.909145 | 7.751007 | 2.0 | 10.451 | 2 | 35.624 | 10.621 | 31.932 | 2 |
| 2025-05-08T04:22:00 | 54.908954 | 7.751104 | 2.0 | 10.447 | 2 | 35.619 | 10.616 | 31.931 | 2 |
| 2025-05-08T04:23:00 | 54.908776 | 7.751197 | 2.0 | 10.446 | 2 | 35.615 | 10.613 | 31.930 | 2 |
| 2025-05-08T04:24:00 | 54.908604 | 7.751274 | 2.0 | 10.453 | 2 | 35.618 | 10.614 | 31.932 | 2 |
| 2025-05-08T04:25:00 | 54.908427 | 7.751343 | 2.0 | 10.467 | 2 | 35.625 | 10.621 | 31.933 | 2 |
| 2025-05-08T04:26:00 | 54.908254 | 7.751409 | 2.0 | 10.472 | 2 | 35.642 | 10.635 | 31.938 | 2 |
| 2025-05-08T04:27:00 | 54.908101 | 7.751457 | 2.0 | 10.472 | 2 | 35.646 | 10.638 | 31.939 | 2 |
| 2025-05-08T04:28:00 | 54.907950 | 7.751506 | 2.0 | 10.471 | 2 | 35.647 | 10.637 | 31.941 | 2 |
| 2025-05-08T04:29:00 | 54.907812 | 7.751547 | 2.0 | 10.475 | 2 | 35.649 | 10.637 | 31.943 | 2 |
| 2025-05-08T04:30:00 | 54.907687 | 7.751578 | 2.0 | 10.497 | 2 | 35.655 | 10.643 | 31.944 | 2 |
| 2025-05-08T04:31:00 | 54.907569 | 7.751608 | 2.0 | 10.510 | 2 | 35.694 | 10.675 | 31.955 | 2 |
| 2025-05-08T04:32:00 | 54.907458 | 7.751626 | 2.0 | 10.477 | 2 | 35.690 | 10.664 | 31.960 | 2 |
| 2025-05-08T04:33:00 | 54.907350 | 7.751651 | 2.0 | 10.475 | 2 | 35.666 | 10.647 | 31.951 | 2 |
| 2025-05-08T04:34:00 | 54.907243 | 7.751680 | 2.0 | 10.473 | 2 | 35.659 | 10.640 | 31.950 | 2 |
| 2025-05-08T04:35:00 | 54.907148 | 7.751705 | 2.0 | 10.507 | 2 | 35.671 | 10.651 | 31.953 | 2 |
| 2025-05-08T04:36:00 | 54.907062 | 7.751721 | 2.0 | 10.511 | 2 | 35.694 | 10.668 | 31.961 | 2 |
| 2025-05-08T04:37:00 | 54.906979 | 7.751740 | 2.0 | 10.484 | 2 | 35.709 | 10.677 | 31.968 | 2 |
| 2025-05-08T04:38:00 | 54.906897 | 7.751754 | 2.0 | 10.471 | 2 | 35.681 | 10.651 | 31.963 | 2 |
| 2025-05-08T04:39:00 | 54.906814 | 7.751776 | 2.0 | 10.477 | 2 | 35.663 | 10.638 | 31.956 | 2 |
| 2025-05-08T04:40:00 | 54.906714 | 7.751807 | 2.0 | 10.508 | 2 | 35.676 | 10.649 | 31.959 | 2 |
| 2025-05-08T04:41:00 | 54.906584 | 7.751868 | 2.0 | 10.516 | 2 | 35.714 | 10.679 | 31.971 | 2 |
| 2025-05-08T04:42:00 | 54.906433 | 7.751968 | 2.0 | 10.525 | 2 | 35.723 | 10.682 | 31.977 | 2 |
| 2025-05-08T04:43:00 | 54.906275 | 7.752092 | 2.0 | 10.509 | 2 | 35.724 | 10.683 | 31.977 | 2 |
| 2025-05-08T04:44:00 | 54.906118 | 7.752241 | 2.0 | 10.492 | 2 | 35.710 | 10.670 | 31.975 | 2 |
| 2025-05-08T04:45:00 | 54.905957 | 7.752378 | 2.0 | 10.492 | 2 | 35.691 | 10.658 | 31.966 | 2 |
| 2025-05-08T04:46:00 | 54.905789 | 7.752463 | 2.0 | 10.489 | 2 | 35.692 | 10.658 | 31.967 | 2 |
| 2025-05-08T04:47:00 | 54.905627 | 7.752501 | 2.0 | 10.495 | 2 | 35.690 | 10.654 | 31.969 | 2 |
| 2025-05-08T04:48:00 | 54.905479 | 7.752514 | 2.0 | 10.510 | 2 | 35.705 | 10.668 | 31.972 | 2 |
| 2025-05-08T04:49:00 | 54.905326 | 7.752522 | 2.0 | 10.496 | 2 | 35.716 | 10.674 | 31.977 | 2 |
| 2025-05-08T04:50:00 | 54.905197 | 7.752516 | 2.0 | 10.497 | 2 | 35.705 | 10.662 | 31.977 | 2 |
| 2025-05-08T04:51:00 | 54.905079 | 7.752504 | 2.0 | 10.499 | 2 | 35.707 | 10.665 | 31.976 | 2 |
| 2025-05-08T04:52:00 | 54.904963 | 7.752495 | 2.0 | 10.505 | 2 | 35.711 | 10.667 | 31.978 | 2 |
| 2025-05-08T04:53:00 | 54.904834 | 7.752510 | 2.0 | 10.503 | 2 | 35.722 | 10.675 | 31.982 | 2 |
| 2025-05-08T04:54:00 | 54.904696 | 7.752546 | 2.0 | 10.536 | 2 | 35.721 | 10.670 | 31.986 | 2 |
| 2025-05-08T04:55:00 | 54.904550 | 7.752611 | 2.0 | 10.561 | 2 | 35.761 | 10.708 | 31.992 | 2 |
| 2025-05-08T04:56:00 | 54.904399 | 7.752712 | 2.0 | 10.572 | 2 | 35.794 | 10.731 | 32.005 | 2 |
| 2025-05-08T04:57:00 | 54.904246 | 7.752838 | 2.0 | 10.541 | 2 | 35.794 | 10.729 | 32.007 | 2 |
| 2025-05-08T04:58:00 | 54.904073 | 7.752975 | 2.0 | 10.523 | 2 | 35.764 | 10.705 | 31.998 | 2 |
| 2025-05-08T04:59:00 | 54.903893 | 7.753074 | 2.0 | 10.516 | 2 | 35.745 | 10.688 | 31.994 | 2 |
| 2025-05-08T05:00:00 | 54.903706 | 7.753156 | 2.0 | 10.525 | 2 | 35.740 | 10.684 | 31.992 | 2 |
| 2025-05-08T05:01:00 | 54.903524 | 7.753229 | 2.0 | 10.527 | 2 | 35.749 | 10.690 | 31.996 | 2 |
| 2025-05-08T05:02:00 | 54.903347 | 7.753289 | 2.0 | 10.538 | 2 | 35.756 | 10.696 | 31.998 | 2 |
| 2025-05-08T05:03:00 | 54.903182 | 7.753328 | 2.0 | 10.544 | 2 | 35.766 | 10.704 | 32.001 | 2 |
| 2025-05-08T05:04:00 | 54.903034 | 7.753343 | 2.0 | 10.526 | 2 | 35.772 | 10.708 | 32.003 | 2 |
| 2025-05-08T05:05:00 | 54.902902 | 7.753345 | 2.0 | 10.532 | 2 | 35.756 | 10.692 | 32.001 | 2 |
| 2025-05-08T05:06:00 | 54.902786 | 7.753330 | 2.0 | 10.533 | 2 | 35.764 | 10.698 | 32.004 | 2 |
| 2025-05-08T05:07:00 | 54.902668 | 7.753314 | 2.0 | 10.548 | 2 | 35.773 | 10.705 | 32.007 | 2 |
| 2025-05-08T05:08:00 | 54.902552 | 7.753297 | 2.0 | 10.546 | 2 | 35.786 | 10.714 | 32.012 | 2 |
| 2025-05-08T05:09:00 | 54.902440 | 7.753280 | 2.0 | 10.546 | 2 | 35.782 | 10.712 | 32.010 | 2 |
| 2025-05-08T05:10:00 | 54.902305 | 7.753274 | 2.0 | 10.557 | 2 | 35.787 | 10.713 | 32.014 | 2 |
| 2025-05-08T05:11:00 | 54.902176 | 7.753266 | 2.0 | 10.536 | 2 | 35.795 | 10.717 | 32.018 | 2 |
| 2025-05-08T05:12:00 | 54.902063 | 7.753241 | 2.0 | 10.538 | 2 | 35.779 | 10.703 | 32.015 | 2 |
| 2025-05-08T05:13:00 | 54.901952 | 7.753216 | 2.0 | 10.553 | 2 | 35.787 | 10.709 | 32.017 | 2 |
| 2025-05-08T05:14:00 | 54.901849 | 7.753184 | 2.0 | 10.546 | 2 | 35.795 | 10.714 | 32.021 | 2 |
| 2025-05-08T05:15:00 | 54.901758 | 7.753144 | 2.0 | 10.562 | 2 | 35.796 | 10.715 | 32.021 | 2 |
| 2025-05-08T05:16:00 | 54.901683 | 7.753095 | 2.0 | 10.562 | 2 | 35.812 | 10.728 | 32.025 | 2 |
| 2025-05-08T05:17:00 | 54.901599 | 7.753039 | 2.0 | 10.559 | 2 | 35.815 | 10.728 | 32.028 | 2 |
| 2025-05-08T05:18:00 | 54.901518 | 7.752991 | 2.0 | 10.568 | 2 | 35.818 | 10.729 | 32.031 | 2 |
| 2025-05-08T05:19:00 | 54.901443 | 7.752943 | 2.0 | 10.568 | 2 | 35.822 | 10.732 | 32.032 | 2 |
| 2025-05-08T05:20:00 | 54.901366 | 7.752891 | 2.0 | 10.575 | 2 | 35.829 | 10.736 | 32.035 | 2 |
| 2025-05-08T05:21:00 | 54.901286 | 7.752843 | 2.0 | 10.577 | 2 | 35.837 | 10.741 | 32.039 | 2 |
| 2025-05-08T05:22:00 | 54.901212 | 7.752783 | 2.0 | 10.591 | 2 | 35.841 | 10.743 | 32.041 | 2 |
| 2025-05-08T05:23:00 | 54.901148 | 7.752713 | 2.0 | 10.588 | 2 | 35.859 | 10.757 | 32.047 | 2 |
| 2025-05-08T05:24:00 | 54.901085 | 7.752638 | 2.0 | 10.595 | 2 | 35.859 | 10.755 | 32.048 | 2 |
| 2025-05-08T05:25:00 | 54.901026 | 7.752556 | 2.0 | 10.599 | 2 | 35.866 | 10.761 | 32.050 | 2 |
| 2025-05-08T05:26:00 | 54.900967 | 7.752471 | 2.0 | 10.588 | 2 | 35.869 | 10.762 | 32.052 | 2 |
| 2025-05-08T05:27:00 | 54.900907 | 7.752387 | 2.0 | 10.595 | 2 | 35.865 | 10.755 | 32.054 | 2 |
| 2025-05-08T05:28:00 | 54.900841 | 7.752306 | 2.0 | 10.597 | 2 | 35.872 | 10.761 | 32.056 | 2 |
| 2025-05-08T05:29:00 | 54.900772 | 7.752225 | 2.0 | 10.603 | 2 | 35.876 | 10.764 | 32.057 | 2 |
| 2025-05-08T05:30:00 | 54.900700 | 7.752149 | 2.0 | 10.613 | 2 | 35.885 | 10.771 | 32.060 | 2 |
| 2025-05-08T05:31:00 | 54.900645 | 7.752108 | 2.0 | 10.610 | 2 | 35.894 | 10.776 | 32.065 | 2 |
| 2025-05-08T05:32:00 | 54.900667 | 7.752248 | 2.0 | 10.615 | 2 | 35.892 | 10.775 | 32.064 | 2 |
| 2025-05-08T05:33:00 | 54.900780 | 7.752479 | 2.0 | 10.623 | 2 | 35.900 | 10.783 | 32.065 | 2 |
| 2025-05-08T05:34:00 | 54.901030 | 7.752762 | 2.0 | 10.623 | 2 | 35.908 | 10.789 | 32.067 | 2 |
| 2025-05-08T05:35:00 | 54.901545 | 7.753055 | 2.0 | 10.628 | 2 | 35.911 | 10.790 | 32.069 | 2 |
| 2025-05-08T05:36:00 | 54.902264 | 7.753368 | 2.0 | 10.626 | 2 | 35.918 | 10.792 | 32.075 | 2 |
| 2025-05-08T05:37:00 | 54.903122 | 7.753677 | 2.0 | 10.634 | 2 | 35.924 | 10.794 | 32.079 | 2 |
| 2025-05-08T05:38:00 | 54.904103 | 7.753989 | 2.0 | 10.638 | 2 | 35.934 | 10.800 | 32.083 | 2 |
| 2025-05-08T05:39:00 | 54.905290 | 7.754312 | 2.0 | 10.641 | 2 | 35.941 | 10.801 | 32.090 | 2 |
| 2025-05-08T05:40:00 | 54.906627 | 7.754640 | 2.0 | 10.649 | 2 | 35.955 | 10.810 | 32.096 | 2 |
| 2025-05-08T05:41:00 | 54.908000 | 7.754798 | 2.0 | 10.656 | 2 | 35.965 | 10.816 | 32.100 | 2 |
| 2025-05-08T05:42:00 | 54.909387 | 7.754859 | 2.0 | 10.668 | 2 | 35.980 | 10.823 | 32.109 | 2 |
| 2025-05-08T05:43:00 | 54.910833 | 7.754891 | 2.0 | 10.671 | 2 | 35.997 | 10.834 | 32.116 | 2 |
| 2025-05-08T05:44:00 | 54.912306 | 7.754890 | 2.0 | 10.679 | 2 | 36.010 | 10.840 | 32.124 | 2 |
| 2025-05-08T05:45:00 | 54.913712 | 7.754466 | 2.0 | 10.678 | 2 | 36.021 | 10.844 | 32.131 | 2 |
| 2025-05-08T05:46:00 | 54.914837 | 7.753800 | 2.0 | 10.681 | 2 | 36.025 | 10.843 | 32.136 | 2 |
| 2025-05-08T05:47:00 | 54.915681 | 7.753191 | 2.0 | 10.688 | 2 | 36.043 | 10.849 | 32.149 | 2 |
| 2025-05-08T05:48:00 | 54.916321 | 7.752591 | 2.0 | 10.721 | 2 | 36.055 | 10.859 | 32.152 | 2 |
| 2025-05-08T05:49:00 | 54.916843 | 7.752077 | 2.0 | 10.741 | 2 | 36.100 | 10.903 | 32.158 | 2 |
| 2025-05-08T05:50:00 | 54.917285 | 7.751646 | 2.0 | 10.735 | 2 | 36.110 | 10.921 | 32.152 | 2 |
| 2025-05-08T05:51:00 | 54.917603 | 7.751199 | 2.0 | 10.745 | 2 | 36.101 | 10.920 | 32.144 | 2 |
| 2025-05-08T05:52:00 | 54.917807 | 7.750700 | 2.0 | 10.771 | 2 | 36.110 | 10.935 | 32.140 | 2 |
| 2025-05-08T05:53:00 | 54.917869 | 7.750438 | 2.0 | 10.799 | 2 | 36.134 | 10.963 | 32.139 | 2 |
| 2025-05-08T05:54:00 | 54.917869 | 7.750325 | 2.0 | 10.799 | 2 | 36.152 | 10.982 | 32.140 | 2 |
| 2025-05-08T05:55:00 | 54.917863 | 7.750307 | 2.0 | 10.808 | 2 | 36.156 | 10.987 | 32.139 | 2 |
| 2025-05-08T05:56:00 | 54.917823 | 7.750290 | 2.0 | 10.819 | 2 | 36.168 | 10.999 | 32.141 | 2 |
| 2025-05-08T05:57:00 | 54.917713 | 7.750195 | 2.0 | 10.818 | 2 | 36.174 | 11.005 | 32.141 | 2 |
| 2025-05-08T05:58:00 | 54.917575 | 7.750053 | 2.0 | 10.806 | 2 | 36.174 | 11.004 | 32.142 | 2 |
| 2025-05-08T05:59:00 | 54.917428 | 7.749957 | 2.0 | 10.807 | 2 | 36.163 | 10.995 | 32.139 | 2 |
| 2025-05-08T06:00:00 | 54.917277 | 7.749907 | 2.0 | 10.820 | 2 | 36.167 | 10.999 | 32.140 | 2 |
| 2025-05-08T06:01:00 | 54.917151 | 7.749851 | 2.0 | 10.820 | 2 | 36.179 | 11.011 | 32.141 | 2 |
| 2025-05-08T06:02:00 | 54.917098 | 7.749654 | 2.0 | 10.821 | 2 | 36.177 | 11.008 | 32.142 | 2 |
| 2025-05-08T06:03:00 | 54.917045 | 7.749489 | 2.0 | 10.820 | 2 | 36.179 | 11.011 | 32.141 | 2 |
| 2025-05-08T06:04:00 | 54.917009 | 7.749318 | 2.0 | 10.833 | 2 | 36.177 | 11.014 | 32.137 | 2 |
| 2025-05-08T06:05:00 | 54.917001 | 7.749250 | 2.0 | 10.834 | 2 | 36.186 | 11.025 | 32.136 | 2 |
| 2025-05-08T06:06:00 | 54.916881 | 7.748780 | 2.0 | 10.828 | 2 | 36.183 | 11.020 | 32.137 | 2 |
| 2025-05-08T06:07:00 | 54.916700 | 7.748132 | 2.0 | 10.840 | 2 | 36.184 | 11.022 | 32.136 | 2 |
| 2025-05-08T06:08:00 | 54.916507 | 7.747493 | 2.0 | 10.847 | 2 | 36.199 | 11.035 | 32.140 | 2 |
| 2025-05-08T06:09:00 | 54.916343 | 7.747042 | 2.0 | 10.842 | 2 | 36.204 | 11.036 | 32.144 | 2 |
| 2025-05-08T06:10:00 | 54.916193 | 7.746919 | 2.0 | 10.857 | 2 | 36.207 | 11.039 | 32.144 | 2 |
| 2025-05-08T06:11:00 | 54.916054 | 7.746914 | 2.0 | 10.864 | 2 | 36.221 | 11.052 | 32.147 | 2 |
| 2025-05-08T06:12:00 | 54.915889 | 7.746924 | 2.0 | 10.860 | 2 | 36.224 | 11.054 | 32.148 | 2 |
| 2025-05-08T06:13:00 | 54.915657 | 7.746848 | 2.0 | 10.863 | 2 | 36.221 | 11.054 | 32.145 | 2 |
| 2025-05-08T06:14:00 | 54.915428 | 7.746741 | 2.0 | 10.858 | 2 | 36.223 | 11.054 | 32.147 | 2 |
| 2025-05-08T06:15:00 | 54.915230 | 7.746680 | 2.0 | 10.852 | 2 | 36.220 | 11.050 | 32.148 | 2 |
| 2025-05-08T06:16:00 | 54.915086 | 7.746656 | 2.0 | 10.851 | 2 | 36.216 | 11.047 | 32.146 | 2 |
| 2025-05-08T06:17:00 | 54.914965 | 7.746473 | 2.0 | 10.849 | 2 | 36.216 | 11.046 | 32.147 | 2 |
| 2025-05-08T06:18:00 | 54.914804 | 7.745835 | 2.0 | 10.849 | 2 | 36.217 | 11.045 | 32.149 | 2 |
| 2025-05-08T06:19:00 | 54.914633 | 7.744982 | 2.0 | 10.851 | 2 | 36.219 | 11.045 | 32.151 | 2 |
| 2025-05-08T06:20:00 | 54.914463 | 7.744408 | 2.0 | 10.862 | 2 | 36.224 | 11.050 | 32.151 | 2 |
| 2025-05-08T06:21:00 | 54.914304 | 7.744232 | 2.0 | 10.862 | 2 | 36.237 | 11.058 | 32.157 | 2 |
| 2025-05-08T06:22:00 | 54.914161 | 7.744164 | 2.0 | 10.865 | 2 | 36.240 | 11.059 | 32.159 | 2 |
| 2025-05-08T06:23:00 | 54.914001 | 7.744152 | 2.0 | 10.867 | 2 | 36.242 | 11.061 | 32.160 | 2 |
| 2025-05-08T06:24:00 | 54.913829 | 7.744108 | 2.0 | 10.874 | 2 | 36.243 | 11.064 | 32.158 | 2 |
| 2025-05-08T06:25:00 | 54.913821 | 7.743960 | 2.0 | 10.871 | 2 | 36.248 | 11.070 | 32.158 | 2 |
| 2025-05-08T06:26:00 | 54.914219 | 7.743418 | 2.0 | 10.877 | 2 | 36.248 | 11.070 | 32.158 | 2 |
| 2025-05-08T06:27:00 | 54.914772 | 7.742687 | 2.0 | 10.882 | 2 | 36.249 | 11.079 | 32.151 | 2 |
| 2025-05-08T06:28:00 | 54.915236 | 7.742074 | 2.0 | 10.881 | 2 | 36.243 | 11.080 | 32.144 | 2 |
| 2025-05-08T06:29:00 | 54.915605 | 7.741559 | 2.0 | 10.879 | 2 | 36.239 | 11.080 | 32.140 | 2 |
| 2025-05-08T06:30:00 | 54.915892 | 7.741132 | 2.0 | 10.880 | 2 | 36.234 | 11.076 | 32.139 | 2 |
| 2025-05-08T06:31:00 | 54.916059 | 7.740897 | 2.0 | 10.879 | 2 | 36.227 | 11.069 | 32.138 | 2 |
| 2025-05-08T06:32:00 | 54.916129 | 7.740852 | 2.0 | 10.878 | 2 | 36.224 | 11.063 | 32.140 | 2 |
| 2025-05-08T06:33:00 | 54.916210 | 7.740854 | 2.0 | 10.879 | 2 | 36.223 | 11.061 | 32.141 | 2 |
| 2025-05-08T06:34:00 | 54.916210 | 7.740821 | 2.0 | 10.879 | 2 | 36.222 | 11.058 | 32.142 | 2 |
| 2025-05-08T06:35:00 | 54.916159 | 7.740747 | 2.0 | 10.881 | 2 | 36.219 | 11.058 | 32.140 | 2 |
| 2025-05-08T06:36:00 | 54.916126 | 7.740704 | 2.0 | 10.884 | 2 | 36.220 | 11.058 | 32.141 | 2 |
| 2025-05-08T06:37:00 | 54.916115 | 7.740678 | 2.0 | 10.889 | 2 | 36.228 | 11.061 | 32.146 | 2 |
| 2025-05-08T06:38:00 | 54.916123 | 7.740626 | 2.0 | 10.893 | 2 | 36.230 | 11.065 | 32.144 | 2 |
| 2025-05-08T06:39:00 | 54.916152 | 7.740558 | 2.0 | 10.897 | 2 | 36.233 | 11.069 | 32.144 | 2 |
| 2025-05-08T06:40:00 | 54.916189 | 7.740481 | 2.0 | 10.899 | 2 | 36.236 | 11.072 | 32.144 | 2 |
| 2025-05-08T06:41:00 | 54.916217 | 7.740403 | 2.0 | 10.887 | 2 | 36.231 | 11.067 | 32.144 | 2 |
| 2025-05-08T06:42:00 | 54.916250 | 7.740313 | 2.0 | 10.893 | 2 | 36.228 | 11.065 | 32.142 | 2 |
| 2025-05-08T06:43:00 | 54.916315 | 7.740194 | 2.0 | 10.900 | 2 | 36.231 | 11.068 | 32.143 | 2 |
| 2025-05-08T06:44:00 | 54.916435 | 7.739994 | 2.0 | 10.915 | 2 | 36.237 | 11.076 | 32.142 | 2 |
| 2025-05-08T06:45:00 | 54.916721 | 7.739589 | 2.0 | 10.931 | 2 | 36.247 | 11.090 | 32.139 | 2 |
| 2025-05-08T06:46:00 | 54.917124 | 7.739044 | 2.0 | 10.958 | 2 | 36.260 | 11.104 | 32.140 | 2 |
| 2025-05-08T06:47:00 | 54.917654 | 7.738282 | 2.0 | 10.972 | 2 | 36.282 | 11.130 | 32.139 | 2 |
| 2025-05-08T06:48:00 | 54.918313 | 7.737279 | 2.0 | 10.975 | 2 | 36.292 | 11.143 | 32.137 | 2 |
| 2025-05-08T06:49:00 | 54.918965 | 7.736293 | 2.0 | 10.965 | 2 | 36.291 | 11.145 | 32.134 | 2 |
| 2025-05-08T06:50:00 | 54.919562 | 7.735399 | 2.0 | 10.953 | 2 | 36.278 | 11.136 | 32.130 | 2 |
| 2025-05-08T06:51:00 | 54.920066 | 7.734638 | 2.0 | 10.938 | 2 | 36.262 | 11.124 | 32.124 | 2 |
| 2025-05-08T06:52:00 | 54.920540 | 7.733910 | 2.0 | 10.931 | 2 | 36.246 | 11.109 | 32.122 | 2 |
| 2025-05-08T06:53:00 | 54.920994 | 7.733228 | 2.0 | 10.928 | 2 | 36.237 | 11.104 | 32.117 | 2 |
| 2025-05-08T06:54:00 | 54.921385 | 7.732645 | 2.0 | 10.947 | 2 | 36.229 | 11.105 | 32.108 | 2 |
| 2025-05-08T06:55:00 | 54.921720 | 7.732151 | 2.0 | 10.945 | 2 | 36.235 | 11.117 | 32.104 | 2 |
| 2025-05-08T06:56:00 | 54.922013 | 7.731711 | 2.0 | 10.929 | 2 | 36.231 | 11.115 | 32.102 | 2 |
| 2025-05-08T06:57:00 | 54.922281 | 7.731298 | 2.0 | 10.915 | 2 | 36.209 | 11.097 | 32.096 | 2 |
| 2025-05-08T06:58:00 | 54.922522 | 7.730915 | 2.0 | 10.910 | 2 | 36.198 | 11.089 | 32.092 | 2 |
| 2025-05-08T06:59:00 | 54.922731 | 7.730583 | 2.0 | 10.911 | 2 | 36.184 | 11.081 | 32.085 | 2 |
| 2025-05-08T07:00:00 | 54.922901 | 7.730308 | 2.0 | 10.903 | 2 | 36.177 | 11.080 | 32.079 | 2 |
| 2025-05-08T07:01:00 | 54.923041 | 7.730062 | 2.0 | 10.902 | 2 | 36.169 | 11.076 | 32.075 | 2 |
| 2025-05-08T07:02:00 | 54.923164 | 7.729845 | 2.0 | 10.889 | 2 | 36.161 | 11.071 | 32.071 | 2 |
| 2025-05-08T07:03:00 | 54.923262 | 7.729653 | 2.0 | 10.891 | 2 | 36.151 | 11.063 | 32.068 | 2 |
| 2025-05-08T07:04:00 | 54.923347 | 7.729485 | 2.0 | 10.901 | 2 | 36.148 | 11.063 | 32.065 | 2 |
| 2025-05-08T07:05:00 | 54.923415 | 7.729324 | 2.0 | 10.902 | 2 | 36.154 | 11.073 | 32.062 | 2 |
| 2025-05-08T07:06:00 | 54.923466 | 7.729193 | 2.0 | 10.895 | 2 | 36.152 | 11.070 | 32.063 | 2 |
| 2025-05-08T07:07:00 | 54.923496 | 7.729099 | 2.0 | 10.898 | 2 | 36.146 | 11.067 | 32.060 | 2 |
| 2025-05-08T07:08:00 | 54.923502 | 7.729059 | 2.0 | 10.903 | 2 | 36.147 | 11.070 | 32.058 | 2 |
| 2025-05-08T07:09:00 | 54.923480 | 7.729042 | 2.0 | 10.896 | 2 | 36.149 | 11.075 | 32.056 | 2 |
| 2025-05-08T07:10:00 | 54.923435 | 7.729049 | 2.0 | 10.883 | 2 | 36.140 | 11.065 | 32.056 | 2 |
| 2025-05-08T07:11:00 | 54.923395 | 7.729065 | 2.0 | 10.893 | 2 | 36.129 | 11.055 | 32.053 | 2 |
| 2025-05-08T07:12:00 | 54.923358 | 7.728994 | 2.0 | 10.890 | 2 | 36.135 | 11.065 | 32.051 | 2 |
| 2025-05-08T07:13:00 | 54.923359 | 7.728865 | 2.0 | 10.893 | 2 | 36.133 | 11.063 | 32.050 | 2 |
| 2025-05-08T07:14:00 | 54.923394 | 7.728690 | 2.0 | 10.895 | 2 | 36.132 | 11.065 | 32.048 | 2 |
| 2025-05-08T07:15:00 | 54.923463 | 7.728487 | 2.0 | 10.896 | 2 | 36.130 | 11.064 | 32.047 | 2 |
| 2025-05-08T07:16:00 | 54.923564 | 7.728259 | 2.0 | 10.906 | 2 | 36.132 | 11.070 | 32.043 | 2 |
| 2025-05-08T07:17:00 | 54.923689 | 7.727997 | 2.0 | 10.891 | 2 | 36.132 | 11.074 | 32.040 | 2 |
| 2025-05-08T07:18:00 | 54.923828 | 7.727710 | 2.0 | 10.887 | 2 | 36.111 | 11.059 | 32.032 | 2 |
| 2025-05-08T07:19:00 | 54.923982 | 7.727404 | 2.0 | 10.869 | 2 | 36.099 | 11.055 | 32.024 | 2 |
| 2025-05-08T07:20:00 | 54.924132 | 7.727105 | 2.0 | 10.859 | 2 | 36.077 | 11.040 | 32.015 | 2 |
| 2025-05-08T07:21:00 | 54.924274 | 7.726807 | 2.0 | 10.859 | 2 | 36.062 | 11.033 | 32.006 | 2 |
| 2025-05-08T07:22:00 | 54.924416 | 7.726499 | 2.0 | 10.863 | 2 | 36.056 | 11.031 | 32.002 | 2 |
| 2025-05-08T07:23:00 | 54.924566 | 7.726184 | 2.0 | 10.856 | 2 | 36.054 | 11.034 | 31.998 | 2 |
| 2025-05-08T07:24:00 | 54.924717 | 7.725880 | 2.0 | 10.869 | 2 | 36.049 | 11.029 | 31.997 | 2 |
| 2025-05-08T07:25:00 | 54.924863 | 7.725593 | 2.0 | 10.849 | 2 | 36.051 | 11.032 | 31.997 | 2 |
| 2025-05-08T07:26:00 | 54.924995 | 7.725319 | 2.0 | 10.869 | 2 | 36.041 | 11.021 | 31.996 | 2 |
| 2025-05-08T07:27:00 | 54.925103 | 7.725061 | 2.0 | 10.845 | 2 | 36.045 | 11.033 | 31.990 | 2 |
| 2025-05-08T07:28:00 | 54.925183 | 7.724824 | 2.0 | 10.840 | 2 | 36.029 | 11.015 | 31.990 | 2 |
| 2025-05-08T07:29:00 | 54.925260 | 7.724591 | 2.0 | 10.846 | 2 | 36.029 | 11.014 | 31.990 | 2 |
| 2025-05-08T07:30:00 | 54.925338 | 7.724368 | 2.0 | 10.840 | 2 | 36.032 | 11.017 | 31.991 | 2 |
| 2025-05-08T07:31:00 | 54.925413 | 7.724155 | 2.0 | 10.837 | 2 | 36.025 | 11.008 | 31.992 | 2 |
| 2025-05-08T07:32:00 | 54.925494 | 7.723943 | 2.0 | 10.836 | 2 | 36.024 | 11.009 | 31.990 | 2 |
| 2025-05-08T07:33:00 | 54.925583 | 7.723730 | 2.0 | 10.832 | 2 | 36.019 | 11.005 | 31.988 | 2 |
| 2025-05-08T07:34:00 | 54.925659 | 7.723526 | 2.0 | 10.845 | 2 | 36.017 | 11.004 | 31.987 | 2 |
| 2025-05-08T07:35:00 | 54.925720 | 7.723325 | 2.0 | 10.847 | 2 | 36.025 | 11.015 | 31.986 | 2 |
| 2025-05-08T07:36:00 | 54.925779 | 7.723126 | 2.0 | 10.848 | 2 | 36.027 | 11.018 | 31.985 | 2 |
| 2025-05-08T07:37:00 | 54.925836 | 7.722937 | 2.0 | 10.852 | 2 | 36.024 | 11.017 | 31.983 | 2 |
| 2025-05-08T07:38:00 | 54.925892 | 7.722752 | 2.0 | 10.830 | 2 | 36.025 | 11.019 | 31.982 | 2 |
| 2025-05-08T07:39:00 | 54.925939 | 7.722569 | 2.0 | 10.811 | 2 | 36.005 | 10.997 | 31.982 | 2 |
| 2025-05-08T07:40:00 | 54.925980 | 7.722382 | 2.0 | 10.814 | 2 | 35.992 | 10.984 | 31.980 | 2 |
| 2025-05-08T07:41:00 | 54.926030 | 7.722197 | 2.0 | 10.816 | 2 | 35.993 | 10.985 | 31.980 | 2 |
| 2025-05-08T07:42:00 | 54.926082 | 7.722010 | 2.0 | 10.827 | 2 | 35.996 | 10.988 | 31.981 | 2 |
| 2025-05-08T07:43:00 | 54.926135 | 7.721819 | 2.0 | 10.837 | 2 | 36.005 | 11.000 | 31.979 | 2 |
| 2025-05-08T07:44:00 | 54.926185 | 7.721623 | 2.0 | 10.841 | 2 | 36.011 | 11.006 | 31.980 | 2 |
| 2025-05-08T07:45:00 | 54.926375 | 7.721221 | 2.0 | 10.876 | 2 | 36.019 | 11.017 | 31.978 | 2 |
| 2025-05-08T07:46:00 | 54.926753 | 7.720556 | 2.0 | 10.884 | 2 | 36.041 | 11.043 | 31.977 | 2 |
| 2025-05-08T07:47:00 | 54.927210 | 7.719789 | 2.0 | 10.891 | 2 | 36.045 | 11.050 | 31.975 | 2 |
| 2025-05-08T07:48:00 | 54.927636 | 7.719078 | 2.0 | 10.890 | 2 | 36.046 | 11.057 | 31.970 | 2 |
| 2025-05-08T07:49:00 | 54.928019 | 7.718422 | 2.0 | 10.913 | 2 | 36.050 | 11.063 | 31.969 | 2 |
| 2025-05-08T07:50:00 | 54.928370 | 7.717811 | 2.0 | 10.920 | 2 | 36.067 | 11.084 | 31.967 | 2 |
| 2025-05-08T07:51:00 | 54.928703 | 7.717227 | 2.0 | 10.912 | 2 | 36.072 | 11.088 | 31.968 | 2 |
| 2025-05-08T07:52:00 | 54.929036 | 7.716645 | 2.0 | 10.932 | 2 | 36.070 | 11.088 | 31.967 | 2 |
| 2025-05-08T07:53:00 | 54.929366 | 7.716083 | 2.0 | 10.969 | 2 | 36.083 | 11.105 | 31.965 | 2 |
| 2025-05-08T07:54:00 | 54.929696 | 7.715501 | 2.0 | 10.961 | 2 | 36.106 | 11.133 | 31.963 | 2 |
| 2025-05-08T07:55:00 | 54.929986 | 7.714967 | 2.0 | 10.982 | 2 | 36.106 | 11.130 | 31.965 | 2 |
| 2025-05-08T07:56:00 | 54.930262 | 7.714471 | 2.0 | 10.990 | 2 | 36.124 | 11.153 | 31.963 | 2 |
| 2025-05-08T07:57:00 | 54.930528 | 7.713989 | 2.0 | 10.989 | 2 | 36.131 | 11.159 | 31.965 | 2 |
| 2025-05-08T07:58:00 | 54.930772 | 7.713531 | 2.0 | 10.961 | 2 | 36.126 | 11.151 | 31.967 | 2 |
| 2025-05-08T07:59:00 | 54.931004 | 7.713089 | 2.0 | 10.948 | 2 | 36.100 | 11.127 | 31.962 | 2 |
| 2025-05-08T08:00:00 | 54.931222 | 7.712664 | 2.0 | 10.952 | 2 | 36.093 | 11.118 | 31.963 | 2 |
| 2025-05-08T08:01:00 | 54.931440 | 7.712249 | 2.0 | 10.941 | 2 | 36.096 | 11.122 | 31.963 | 2 |
| 2025-05-08T08:02:00 | 54.931658 | 7.711834 | 2.0 | 10.997 | 2 | 36.088 | 11.114 | 31.962 | 2 |
| 2025-05-08T08:03:00 | 54.931864 | 7.711429 | 2.0 | 11.026 | 2 | 36.141 | 11.183 | 31.954 | 2 |
| 2025-05-08T08:04:00 | 54.932066 | 7.711019 | 2.0 | 10.999 | 2 | 36.151 | 11.186 | 31.961 | 2 |
| 2025-05-08T08:05:00 | 54.932264 | 7.710611 | 2.0 | 10.988 | 2 | 36.133 | 11.164 | 31.962 | 2 |
| 2025-05-08T08:06:00 | 54.932449 | 7.710222 | 2.0 | 10.977 | 2 | 36.122 | 11.151 | 31.963 | 2 |
| 2025-05-08T08:07:00 | 54.932628 | 7.709839 | 2.0 | 10.974 | 2 | 36.116 | 11.144 | 31.963 | 2 |
| 2025-05-08T08:08:00 | 54.932807 | 7.709464 | 2.0 | 10.976 | 2 | 36.116 | 11.145 | 31.962 | 2 |
| 2025-05-08T08:09:00 | 54.932978 | 7.709095 | 2.0 | 10.976 | 2 | 36.118 | 11.145 | 31.964 | 2 |
| 2025-05-08T08:10:00 | 54.933157 | 7.708725 | 2.0 | 10.984 | 2 | 36.122 | 11.148 | 31.966 | 2 |
| 2025-05-08T08:11:00 | 54.933343 | 7.708336 | 2.0 | 10.981 | 2 | 36.126 | 11.151 | 31.967 | 2 |
| 2025-05-08T08:12:00 | 54.933533 | 7.707946 | 2.0 | 10.981 | 2 | 36.127 | 11.150 | 31.969 | 2 |
| 2025-05-08T08:13:00 | 54.933727 | 7.707554 | 2.0 | 11.007 | 2 | 36.129 | 11.152 | 31.969 | 2 |
| 2025-05-08T08:14:00 | 54.933957 | 7.707109 | 2.0 | 11.042 | 2 | 36.150 | 11.179 | 31.966 | 2 |
| 2025-05-08T08:15:00 | 54.934427 | 7.706270 | 2.0 | 11.060 | 2 | 36.178 | 11.211 | 31.966 | 2 |
| 2025-05-08T08:16:00 | 54.935093 | 7.705132 | 2.0 | 11.032 | 2 | 36.191 | 11.224 | 31.967 | 2 |
| 2025-05-08T08:17:00 | 54.935713 | 7.704061 | 2.0 | 11.006 | 2 | 36.163 | 11.199 | 31.962 | 2 |
| 2025-05-08T08:18:00 | 54.936295 | 7.703063 | 2.0 | 11.001 | 2 | 36.139 | 11.180 | 31.954 | 2 |
| 2025-05-08T08:19:00 | 54.936900 | 7.702018 | 2.0 | 10.955 | 2 | 36.114 | 11.158 | 31.949 | 2 |
| 2025-05-08T08:20:00 | 54.937509 | 7.700952 | 2.0 | 10.949 | 2 | 36.073 | 11.123 | 31.939 | 2 |
| 2025-05-08T08:21:00 | 54.938068 | 7.699962 | 2.0 | 10.952 | 2 | 36.063 | 11.119 | 31.933 | 2 |
| 2025-05-08T08:22:00 | 54.938615 | 7.698997 | 2.0 | 10.965 | 2 | 36.066 | 11.130 | 31.926 | 2 |
| 2025-05-08T08:23:00 | 54.939180 | 7.697997 | 2.0 | 10.965 | 2 | 36.065 | 11.131 | 31.924 | 2 |
| 2025-05-08T08:24:00 | 54.939746 | 7.696995 | 2.0 | 10.953 | 2 | 36.063 | 11.134 | 31.920 | 2 |
| 2025-05-08T08:25:00 | 54.940257 | 7.696089 | 2.0 | 10.954 | 2 | 36.051 | 11.121 | 31.919 | 2 |
| 2025-05-08T08:26:00 | 54.940709 | 7.695342 | 2.0 | 11.019 | 2 | 36.063 | 11.148 | 31.908 | 2 |
| 2025-05-08T08:27:00 | 54.941068 | 7.695197 | 2.0 | 11.018 | 2 | 36.099 | 11.183 | 31.913 | 2 |
| 2025-05-08T08:28:00 | 54.941227 | 7.695356 | 2.0 | 11.114 | 2 | 36.111 | 11.199 | 31.910 | 2 |
| 2025-05-08T08:29:00 | 54.941243 | 7.695570 | 2.0 | 11.177 | 2 | 36.190 | 11.300 | 31.901 | 2 |
| 2025-05-08T08:30:00 | 54.940937 | 7.695987 | 2.0 | 11.022 | 2 | 36.204 | 11.296 | 31.918 | 2 |
| 2025-05-08T08:31:00 | 54.940118 | 7.696924 | 2.0 | 11.010 | 2 | 36.116 | 11.197 | 31.917 | 2 |
| 2025-05-08T08:32:00 | 54.939034 | 7.698355 | 2.0 | 10.977 | 2 | 36.099 | 11.172 | 31.922 | 2 |
| 2025-05-08T08:33:00 | 54.937919 | 7.700259 | 2.0 | 10.981 | 2 | 36.078 | 11.148 | 31.922 | 2 |
| 2025-05-08T08:34:00 | 54.936785 | 7.702416 | 2.0 | 10.987 | 2 | 36.084 | 11.148 | 31.928 | 2 |
| 2025-05-08T08:35:00 | 54.935612 | 7.704681 | 2.0 | 11.036 | 2 | 36.112 | 11.172 | 31.935 | 2 |
| 2025-05-08T08:36:00 | 54.934423 | 7.706993 | 2.0 | 11.071 | 2 | 36.158 | 11.206 | 31.951 | 2 |
| 2025-05-08T08:37:00 | 54.933226 | 7.709335 | 2.0 | 11.059 | 2 | 36.196 | 11.236 | 31.962 | 2 |
| 2025-05-08T08:38:00 | 54.932017 | 7.711696 | 2.0 | 11.016 | 2 | 36.190 | 11.227 | 31.964 | 2 |
| 2025-05-08T08:39:00 | 54.930812 | 7.714070 | 2.0 | 11.020 | 2 | 36.159 | 11.192 | 31.964 | 2 |
| 2025-05-08T08:40:00 | 54.929600 | 7.716439 | 2.0 | 11.053 | 2 | 36.159 | 11.202 | 31.955 | 2 |
| 2025-05-08T08:41:00 | 54.928400 | 7.718821 | 2.0 | 11.014 | 2 | 36.173 | 11.208 | 31.964 | 2 |
| 2025-05-08T08:42:00 | 54.927197 | 7.721183 | 2.0 | 11.013 | 2 | 36.154 | 11.190 | 31.961 | 2 |
| 2025-05-08T08:43:00 | 54.926011 | 7.723555 | 2.0 | 10.959 | 2 | 36.136 | 11.162 | 31.967 | 2 |
| 2025-05-08T08:44:00 | 54.924820 | 7.725913 | 2.0 | 10.943 | 2 | 36.113 | 11.135 | 31.968 | 2 |
| 2025-05-08T08:45:00 | 54.923637 | 7.728290 | 2.0 | 10.939 | 2 | 36.102 | 11.114 | 31.975 | 2 |
| 2025-05-08T08:46:00 | 54.922448 | 7.730650 | 2.0 | 10.919 | 2 | 35.745 | 11.099 | 31.637 | 2 |
| 2025-05-08T08:47:00 | 54.921267 | 7.733011 | 2.0 | 10.887 | 2 | 35.870 | 11.091 | 31.767 | 2 |
| 2025-05-08T08:48:00 | 54.920087 | 7.735361 | 2.0 | 11.066 | 2 | 35.994 | 11.065 | 31.912 | 2 |
| 2025-05-08T08:49:00 | 54.918907 | 7.737705 | 2.0 | 11.056 | 2 | 36.019 | 11.210 | 31.811 | 2 |
| 2025-05-08T08:50:00 | 54.917729 | 7.740039 | 2.0 | 11.035 | 2 | 36.267 | 11.214 | 32.051 | 2 |
| 2025-05-08T08:51:00 | 54.916570 | 7.742341 | 2.0 | 11.111 | 2 | 35.949 | 11.218 | 31.735 | 2 |
| 2025-05-08T08:52:00 | 54.915600 | 7.744305 | 2.0 | 11.143 | 2 | 36.360 | 11.288 | 32.078 | 2 |
| 2025-05-08T08:53:00 | 54.914805 | 7.745928 | 2.0 | 11.143 | 2 | 36.399 | 11.308 | 32.098 | 2 |
| 2025-05-08T08:54:00 | 54.914054 | 7.746667 | 2.0 | 11.087 | 2 | 36.256 | 11.305 | 31.961 | 2 |
| 2025-05-08T08:55:00 | 54.913765 | 7.746114 | 2.0 | 11.030 | 2 | 36.359 | 11.240 | 32.118 | 2 |
| 2025-05-08T08:56:00 | 54.913701 | 7.745116 | 2.0 | 11.077 | 2 | 36.326 | 11.204 | 32.117 | 2 |
| 2025-05-08T08:57:00 | 54.913578 | 7.743806 | 2.0 | 11.106 | 2 | 36.260 | 11.253 | 32.010 | 2 |
| 2025-05-08T08:58:00 | 54.913722 | 7.742457 | 2.0 | 11.069 | 2 | 36.381 | 11.266 | 32.117 | 2 |
| 2025-05-08T08:59:00 | 54.914091 | 7.741499 | 2.0 | 11.071 | 2 | 36.352 | 11.242 | 32.110 | 2 |
| 2025-05-08T09:00:00 | 54.914555 | 7.741141 | 2.0 | 11.083 | 2 | 36.148 | 11.240 | 31.911 | 2 |
| 2025-05-08T09:01:00 | 54.914977 | 7.741065 | 2.0 | 11.096 | 2 | 35.998 | 11.252 | 31.754 | 2 |
| 2025-05-08T09:02:00 | 54.915354 | 7.741134 | 2.0 | 11.177 | 2 | 35.799 | 11.278 | 31.537 | 2 |
| 2025-05-08T09:03:00 | 54.915705 | 7.741236 | 2.0 | 11.153 | 2 | 36.428 | 11.337 | 32.102 | 2 |
| 2025-05-08T09:04:00 | 54.916031 | 7.741319 | 2.0 | 11.146 | 2 | 36.245 | 11.316 | 31.941 | 2 |
| 2025-05-08T09:05:00 | 54.916311 | 7.741404 | 2.0 | 11.231 | 2 | 36.347 | 11.321 | 32.036 | 2 |
| 2025-05-08T09:06:00 | 54.916549 | 7.741484 | 2.0 | 11.263 | 2 | 36.348 | 11.420 | 31.951 | 2 |
| 2025-05-08T09:07:00 | 54.916757 | 7.741549 | 2.0 | 11.099 | 2 | 36.217 | 11.380 | 31.858 | 2 |
| 2025-05-08T09:08:00 | 54.916941 | 7.741582 | 2.0 | 11.365 | 2 | 36.258 | 11.332 | 31.939 | 2 |
| 2025-05-08T09:09:00 | 54.917106 | 7.741585 | 2.0 | 11.474 | 2 | 36.264 | 11.545 | 31.762 | 2 |
| 2025-05-08T09:10:00 | 54.917252 | 7.741555 | 2.0 | 11.512 | 2 | 36.537 | 11.632 | 31.953 | 2 |
| 2025-05-08T09:11:00 | 54.917384 | 7.741497 | 2.0 | 11.506 | 2 | 36.698 | 11.669 | 32.077 | 2 |
| 2025-05-08T09:12:00 | 54.917506 | 7.741411 | 2.0 | 11.527 | 2 | 36.701 | 11.667 | 32.082 | 2 |
| 2025-05-08T09:13:00 | 54.917598 | 7.741319 | 2.0 | 11.555 | 2 | 36.657 | 11.693 | 32.017 | 2 |
| 2025-05-08T09:14:00 | 54.917673 | 7.741208 | 2.0 | 11.568 | 2 | 36.534 | 11.720 | 31.874 | 2 |
| 2025-05-08T09:15:00 | 54.917743 | 7.741098 | 2.0 | 11.655 | 2 | 36.739 | 11.744 | 32.052 | 2 |
| 2025-05-08T09:16:00 | 54.917829 | 7.740991 | 2.0 | 11.699 | 2 | 36.573 | 11.821 | 31.825 | 2 |
| 2025-05-08T09:17:00 | 54.917928 | 7.740919 | 2.0 | 11.689 | 2 | 36.868 | 11.852 | 32.084 | 2 |
| 2025-05-08T09:18:00 | 54.918029 | 7.740909 | 2.0 | 11.622 | 2 | 36.863 | 11.849 | 32.082 | 2 |
| 2025-05-08T09:19:00 | 54.918130 | 7.740940 | 2.0 | 11.582 | 2 | 36.785 | 11.756 | 32.087 | 2 |
| 2025-05-08T09:20:00 | 54.918238 | 7.740985 | 2.0 | 11.672 | 2 | 36.657 | 11.769 | 31.951 | 2 |
| 2025-05-08T09:21:00 | 54.918376 | 7.741020 | 2.0 | 11.601 | 2 | 36.797 | 11.829 | 32.035 | 2 |
| 2025-05-08T09:22:00 | 54.918548 | 7.741030 | 2.0 | 11.568 | 2 | 36.582 | 11.737 | 31.906 | 2 |
| 2025-05-08T09:23:00 | 54.918739 | 7.741041 | 2.0 | 11.612 | 2 | 36.684 | 11.753 | 31.991 | 2 |
| 2025-05-08T09:24:00 | 54.918930 | 7.741080 | 2.0 | 11.341 | 2 | 36.630 | 11.728 | 31.960 | 2 |
| 2025-05-08T09:25:00 | 54.919143 | 7.741115 | 2.0 | 11.507 | 2 | 36.381 | 11.554 | 31.868 | 2 |
| 2025-05-08T09:26:00 | 54.919380 | 7.741141 | 2.0 | 11.510 | 2 | 36.668 | 11.698 | 32.023 | 2 |
| 2025-05-08T09:27:00 | 54.919626 | 7.741195 | 2.0 | 11.359 | 2 | 36.544 | 11.632 | 31.960 | 2 |
| 2025-05-08T09:28:00 | 54.919887 | 7.741255 | 2.0 | 11.529 | 2 | 36.525 | 11.560 | 32.003 | 2 |
| 2025-05-08T09:29:00 | 54.920157 | 7.741335 | 2.0 | 11.444 | 2 | 36.580 | 11.681 | 31.952 | 2 |
| 2025-05-08T09:30:00 | 54.920422 | 7.741445 | 2.0 | 11.363 | 2 | 36.449 | 11.589 | 31.904 | 2 |
| 2025-05-08T09:31:00 | 54.920703 | 7.741551 | 2.0 | 11.445 | 2 | 36.406 | 11.569 | 31.879 | 2 |
| 2025-05-08T09:32:00 | 54.921007 | 7.741686 | 2.0 | 11.409 | 2 | 36.524 | 11.584 | 31.981 | 2 |
| 2025-05-08T09:33:00 | 54.921420 | 7.741702 | 2.0 | 11.390 | 2 | 36.390 | 11.588 | 31.848 | 2 |
| 2025-05-08T09:34:00 | 54.922130 | 7.741700 | 2.0 | 11.216 | 2 | 36.404 | 11.503 | 31.934 | 2 |
| 2025-05-08T09:35:00 | 54.922920 | 7.741703 | 2.0 | 11.226 | 2 | 36.297 | 11.397 | 31.921 | 2 |
| 2025-05-08T09:36:00 | 54.923697 | 7.741711 | 2.0 | 11.223 | 2 | 36.293 | 11.401 | 31.914 | 2 |
| 2025-05-08T09:37:00 | 54.924461 | 7.741726 | 2.0 | 11.225 | 2 | 36.312 | 11.383 | 31.948 | 2 |
| 2025-05-08T09:38:00 | 54.925226 | 7.741740 | 2.0 | 11.272 | 2 | 36.293 | 11.402 | 31.913 | 2 |
| 2025-05-08T09:39:00 | 54.925979 | 7.741760 | 2.0 | 11.250 | 2 | 36.264 | 11.422 | 31.868 | 2 |
| 2025-05-08T09:40:00 | 54.926726 | 7.741776 | 2.0 | 11.236 | 2 | 36.319 | 11.414 | 31.928 | 2 |
| 2025-05-08T09:41:00 | 54.927481 | 7.741786 | 2.0 | 11.245 | 2 | 36.326 | 11.409 | 31.939 | 2 |
| 2025-05-08T09:42:00 | 54.928230 | 7.741797 | 2.0 | 11.214 | 2 | 36.297 | 11.405 | 31.915 | 2 |
| 2025-05-08T09:43:00 | 54.928982 | 7.741814 | 2.0 | 11.267 | 2 | 36.308 | 11.395 | 31.934 | 2 |
| 2025-05-08T09:44:00 | 54.929738 | 7.741820 | 2.0 | 11.330 | 2 | 36.357 | 11.433 | 31.949 | 2 |
| 2025-05-08T09:45:00 | 54.930487 | 7.741830 | 2.0 | 11.330 | 2 | 36.409 | 11.513 | 31.931 | 2 |
| 2025-05-08T09:46:00 | 54.931247 | 7.741827 | 2.0 | 11.358 | 2 | 36.393 | 11.478 | 31.945 | 2 |
| 2025-05-08T09:47:00 | 54.931944 | 7.741829 | 2.0 | 11.203 | 2 | 36.400 | 11.499 | 31.934 | 2 |
| 2025-05-08T09:48:00 | 54.932448 | 7.741918 | 2.0 | 11.281 | 2 | 36.284 | 11.372 | 31.930 | 2 |
| 2025-05-08T09:49:00 | 54.932799 | 7.741997 | 2.0 | 11.219 | 2 | 36.324 | 11.455 | 31.898 | 2 |
| 2025-05-08T09:50:00 | 54.933151 | 7.742087 | 2.0 | 11.271 | 2 | 36.282 | 11.372 | 31.928 | 2 |
| 2025-05-08T09:51:00 | 54.933510 | 7.742109 | 2.0 | 11.335 | 2 | 36.327 | 11.459 | 31.897 | 2 |
| 2025-05-08T09:52:00 | 54.933848 | 7.742074 | 2.0 | 11.411 | 2 | 36.404 | 11.538 | 31.904 | 2 |
| 2025-05-08T09:53:00 | 54.934158 | 7.742031 | 2.0 | 11.370 | 2 | 36.441 | 11.577 | 31.907 | 2 |
| 2025-05-08T09:54:00 | 54.934437 | 7.741984 | 2.0 | 11.364 | 2 | 36.398 | 11.519 | 31.915 | 2 |
| 2025-05-08T09:55:00 | 54.934684 | 7.741936 | 2.0 | 11.334 | 2 | 36.401 | 11.529 | 31.909 | 2 |
| 2025-05-08T09:56:00 | 54.934902 | 7.741880 | 2.0 | 11.500 | 2 | 36.394 | 11.525 | 31.906 | 2 |
| 2025-05-08T09:57:00 | 54.935104 | 7.741828 | 2.0 | 12.128 | 2 | 36.618 | 11.810 | 31.878 | 2 |
| 2025-05-08T09:58:00 | 54.935316 | 7.741789 | 2.0 | 11.347 | 2 | 36.881 | 12.024 | 31.949 | 2 |
| 2025-05-08T09:59:00 | 54.935558 | 7.741703 | 2.0 | 11.943 | 2 | 36.529 | 11.680 | 31.904 | 2 |
| 2025-05-08T10:00:00 | 54.935824 | 7.741587 | 2.0 | 11.467 | 2 | 36.829 | 12.010 | 31.911 | 2 |
| 2025-05-08T10:01:00 | 54.936181 | 7.741473 | 2.0 | 11.222 | 2 | 36.483 | 11.582 | 31.943 | 2 |
| 2025-05-08T10:02:00 | 54.936636 | 7.741374 | 2.0 | 11.325 | 2 | 36.308 | 11.417 | 31.915 | 2 |
| 2025-05-08T10:03:00 | 54.937149 | 7.741268 | 2.0 | 11.307 | 2 | 36.357 | 11.479 | 31.909 | 2 |
| 2025-05-08T10:04:00 | 54.937690 | 7.741156 | 2.0 | 11.265 | 2 | 36.358 | 11.483 | 31.907 | 2 |
| 2025-05-08T10:05:00 | 54.938248 | 7.741055 | 2.0 | 11.244 | 2 | 36.308 | 11.422 | 31.911 | 2 |
| 2025-05-08T10:06:00 | 54.938823 | 7.740948 | 2.0 | 11.320 | 2 | 36.315 | 11.448 | 31.895 | 2 |
| 2025-05-08T10:07:00 | 54.939395 | 7.740836 | 2.0 | 11.292 | 2 | 36.347 | 11.481 | 31.898 | 2 |
| 2025-05-08T10:08:00 | 54.939959 | 7.740724 | 2.0 | 11.305 | 2 | 36.325 | 11.462 | 31.893 | 2 |
| 2025-05-08T10:09:00 | 54.940508 | 7.740620 | 2.0 | 11.343 | 2 | 36.336 | 11.479 | 31.889 | 2 |
| 2025-05-08T10:10:00 | 54.941044 | 7.740507 | 2.0 | 11.326 | 2 | 36.358 | 11.508 | 31.885 | 2 |
| 2025-05-08T10:11:00 | 54.941594 | 7.740398 | 2.0 | 11.319 | 2 | 36.348 | 11.497 | 31.885 | 2 |
| 2025-05-08T10:12:00 | 54.942163 | 7.740289 | 2.0 | 11.271 | 2 | 36.326 | 11.470 | 31.887 | 2 |
| 2025-05-08T10:13:00 | 54.942762 | 7.740166 | 2.0 | 11.365 | 2 | 36.301 | 11.451 | 31.879 | 2 |
| 2025-05-08T10:14:00 | 54.943362 | 7.740315 | 2.0 | 11.486 | 2 | 36.362 | 11.545 | 31.857 | 2 |
| 2025-05-08T10:15:00 | 54.943477 | 7.740741 | 2.0 | 11.202 | 2 | 36.429 | 11.603 | 31.873 | 2 |
| 2025-05-08T10:16:00 | 54.943021 | 7.741078 | 2.0 | 11.194 | 2 | 36.250 | 11.384 | 31.887 | 2 |
| 2025-05-08T10:17:00 | 54.942158 | 7.741221 | 2.0 | 11.264 | 2 | 36.234 | 11.380 | 31.875 | 2 |
| 2025-05-08T10:18:00 | 54.941060 | 7.741375 | 2.0 | 11.247 | 2 | 36.284 | 11.430 | 31.880 | 2 |
| 2025-05-08T10:19:00 | 54.939860 | 7.741646 | 2.0 | 11.204 | 2 | 36.271 | 11.400 | 31.893 | 2 |
| 2025-05-08T10:20:00 | 54.938627 | 7.742038 | 2.0 | 11.241 | 2 | 36.276 | 11.403 | 31.896 | 2 |
| 2025-05-08T10:21:00 | 54.937370 | 7.742455 | 2.0 | 11.173 | 2 | 36.286 | 11.394 | 31.913 | 2 |
| 2025-05-08T10:22:00 | 54.936100 | 7.742886 | 2.0 | 11.214 | 2 | 36.251 | 11.350 | 31.917 | 2 |
| 2025-05-08T10:23:00 | 54.934843 | 7.743316 | 2.0 | 11.422 | 2 | 36.329 | 11.432 | 31.922 | 2 |
| 2025-05-08T10:24:00 | 54.933735 | 7.743670 | 2.0 | 11.410 | 2 | 36.497 | 11.577 | 31.961 | 2 |
| 2025-05-08T10:25:00 | 54.933097 | 7.743136 | 2.0 | 11.211 | 2 | 36.496 | 11.553 | 31.981 | 2 |
| 2025-05-08T10:26:00 | 54.933157 | 7.742336 | 2.0 | 11.158 | 2 | 36.340 | 11.371 | 31.986 | 2 |
| 2025-05-08T10:27:00 | 54.933477 | 7.741824 | 2.0 | 11.227 | 2 | 36.303 | 11.342 | 31.975 | 2 |
| 2025-05-08T10:28:00 | 54.933981 | 7.741618 | 2.0 | 11.342 | 2 | 36.363 | 11.414 | 31.971 | 2 |
| 2025-05-08T10:29:00 | 54.934597 | 7.741543 | 2.0 | 11.423 | 2 | 36.456 | 11.522 | 31.969 | 2 |
| 2025-05-08T10:30:00 | 54.935309 | 7.741511 | 2.0 | 11.417 | 2 | 36.502 | 11.567 | 31.975 | 2 |
| 2025-05-08T10:31:00 | 54.936095 | 7.741506 | 2.0 | 11.429 | 2 | 36.490 | 11.561 | 31.968 | 2 |
| 2025-05-08T10:32:00 | 54.936929 | 7.741509 | 2.0 | 11.474 | 2 | 36.524 | 11.614 | 31.956 | 2 |
| 2025-05-08T10:33:00 | 54.937787 | 7.741510 | 2.0 | 11.296 | 2 | 36.511 | 11.599 | 31.956 | 2 |
| 2025-05-08T10:34:00 | 54.938639 | 7.741666 | 2.0 | 11.213 | 2 | 36.359 | 11.448 | 31.938 | 2 |
| 2025-05-08T10:35:00 | 54.939540 | 7.742066 | 2.0 | 11.236 | 2 | 36.270 | 11.374 | 31.915 | 2 |
| 2025-05-08T10:36:00 | 54.940485 | 7.742948 | 2.0 | 11.280 | 2 | 36.291 | 11.416 | 31.899 | 2 |
| 2025-05-08T10:37:00 | 54.941160 | 7.744304 | 2.0 | 11.269 | 2 | 36.308 | 11.442 | 31.893 | 2 |
| 2025-05-08T10:38:00 | 54.941651 | 7.745693 | 2.0 | 11.244 | 2 | 36.292 | 11.440 | 31.879 | 2 |
| 2025-05-08T10:39:00 | 54.941927 | 7.747092 | 2.0 | 11.220 | 2 | 36.256 | 11.412 | 31.868 | 2 |
| 2025-05-08T10:40:00 | 54.942018 | 7.748499 | 2.0 | 11.239 | 2 | 36.233 | 11.390 | 31.865 | 2 |
| 2025-05-08T10:41:00 | 54.941974 | 7.749864 | 2.0 | 11.231 | 2 | 36.244 | 11.403 | 31.864 | 2 |
| 2025-05-08T10:42:00 | 54.941858 | 7.751222 | 2.0 | 11.254 | 2 | 36.254 | 11.412 | 31.866 | 2 |
| 2025-05-08T10:43:00 | 54.941751 | 7.752519 | 2.0 | 11.279 | 2 | 36.281 | 11.435 | 31.873 | 2 |
| 2025-05-08T10:44:00 | 54.941670 | 7.753655 | 2.0 | 11.257 | 2 | 36.291 | 11.440 | 31.878 | 2 |
| 2025-05-08T10:45:00 | 54.941491 | 7.754630 | 2.0 | 11.183 | 2 | 36.284 | 11.429 | 31.881 | 2 |
| 2025-05-08T10:46:00 | 54.941004 | 7.754765 | 2.0 | 11.201 | 2 | 36.232 | 11.352 | 31.897 | 2 |
| 2025-05-08T10:47:00 | 54.940309 | 7.754382 | 2.0 | 11.454 | 2 | 36.274 | 11.418 | 31.881 | 2 |
| 2025-05-08T10:48:00 | 54.939415 | 7.753831 | 2.0 | 11.490 | 2 | 36.498 | 11.619 | 31.926 | 2 |
| 2025-05-08T10:49:00 | 54.938389 | 7.753215 | 2.0 | 11.418 | 2 | 36.550 | 11.642 | 31.957 | 2 |
| 2025-05-08T10:50:00 | 54.937277 | 7.752575 | 2.0 | 11.374 | 2 | 36.501 | 11.578 | 31.964 | 2 |
| 2025-05-08T10:51:00 | 54.936117 | 7.751920 | 2.0 | 11.378 | 2 | 36.464 | 11.539 | 31.962 | 2 |
| 2025-05-08T10:52:00 | 54.934928 | 7.751250 | 2.0 | 11.378 | 2 | 36.473 | 11.539 | 31.971 | 2 |
| 2025-05-08T10:53:00 | 54.933731 | 7.750573 | 2.0 | 11.359 | 2 | 36.501 | 11.555 | 31.984 | 2 |
| 2025-05-08T10:54:00 | 54.932516 | 7.749902 | 2.0 | 11.281 | 2 | 36.481 | 11.517 | 31.997 | 2 |
| 2025-05-08T10:55:00 | 54.931299 | 7.749230 | 2.0 | 11.221 | 2 | 36.425 | 11.446 | 32.004 | 2 |
| 2025-05-08T10:56:00 | 54.930073 | 7.748554 | 2.0 | 11.186 | 2 | 36.384 | 11.388 | 32.014 | 2 |
| 2025-05-08T10:57:00 | 54.928839 | 7.747869 | 2.0 | 11.166 | 2 | 36.361 | 11.352 | 32.023 | 2 |
| 2025-05-08T10:58:00 | 54.927608 | 7.747198 | 2.0 | 11.170 | 2 | 36.367 | 11.341 | 32.038 | 2 |
| 2025-05-08T10:59:00 | 54.926382 | 7.746519 | 2.0 | 11.184 | 2 | 36.384 | 11.339 | 32.057 | 2 |
| 2025-05-08T11:00:00 | 54.925158 | 7.745843 | 2.0 | 11.188 | 2 | 36.412 | 11.352 | 32.073 | 2 |
| 2025-05-08T11:01:00 | 54.923954 | 7.745167 | 2.0 | 11.185 | 2 | 36.439 | 11.354 | 32.098 | 2 |
| 2025-05-08T11:02:00 | 54.923076 | 7.744124 | 2.0 | 11.145 | 2 | 36.456 | 11.357 | 32.112 | 2 |
| 2025-05-08T11:03:00 | 54.922727 | 7.742545 | 2.0 | 11.196 | 2 | 36.443 | 11.320 | 32.131 | 2 |
| 2025-05-08T11:04:00 | 54.922371 | 7.740979 | 2.0 | 11.371 | 2 | 36.522 | 11.387 | 32.150 | 2 |
| 2025-05-08T11:05:00 | 54.922008 | 7.739383 | 2.0 | 11.539 | 2 | 36.708 | 11.571 | 32.172 | 2 |
| 2025-05-08T11:06:00 | 54.921640 | 7.737752 | 2.0 | 11.364 | 2 | 36.830 | 11.660 | 32.213 | 2 |
| 2025-05-08T11:07:00 | 54.921281 | 7.736141 | 2.0 | 11.278 | 2 | 36.713 | 11.514 | 32.226 | 2 |
| 2025-05-08T11:08:00 | 54.920930 | 7.734539 | 2.0 | 11.264 | 2 | 36.646 | 11.446 | 32.220 | 2 |
| 2025-05-08T11:09:00 | 54.920604 | 7.733035 | 2.0 | 11.242 | 2 | 36.629 | 11.429 | 32.218 | 2 |
| 2025-05-08T11:10:00 | 54.920610 | 7.731725 | 2.0 | 11.228 | 2 | 36.615 | 11.410 | 32.221 | 2 |
| 2025-05-08T11:11:00 | 54.920988 | 7.731040 | 2.0 | 11.251 | 2 | 36.599 | 11.392 | 32.221 | 2 |
| 2025-05-08T11:12:00 | 54.921391 | 7.730819 | 2.0 | 11.299 | 2 | 36.627 | 11.429 | 32.216 | 2 |
| 2025-05-08T11:13:00 | 54.921666 | 7.730870 | 2.0 | 11.240 | 2 | 36.651 | 11.452 | 32.220 | 2 |
| 2025-05-08T11:14:00 | 54.921879 | 7.731082 | 2.0 | 11.282 | 2 | 36.611 | 11.409 | 32.218 | 2 |
| 2025-05-08T11:15:00 | 54.922121 | 7.731447 | 2.0 | 11.296 | 2 | 36.643 | 11.450 | 32.214 | 2 |
| 2025-05-08T11:16:00 | 54.922335 | 7.731916 | 2.0 | 11.252 | 2 | 36.653 | 11.460 | 32.215 | 2 |
| 2025-05-08T11:17:00 | 54.922545 | 7.732359 | 2.0 | 11.278 | 2 | 36.607 | 11.412 | 32.212 | 2 |
| 2025-05-08T11:18:00 | 54.922767 | 7.732705 | 2.0 | 11.306 | 2 | 36.627 | 11.439 | 32.208 | 2 |
| 2025-05-08T11:19:00 | 54.922980 | 7.732802 | 2.0 | 11.308 | 2 | 36.653 | 11.470 | 32.206 | 2 |
| 2025-05-08T11:20:00 | 54.923167 | 7.732707 | 2.0 | 11.457 | 2 | 36.660 | 11.488 | 32.197 | 2 |
| 2025-05-08T11:21:00 | 54.923345 | 7.732600 | 2.0 | 11.695 | 2 | 36.784 | 11.673 | 32.157 | 2 |
| 2025-05-08T11:22:00 | 54.923518 | 7.732490 | 2.0 | 11.747 | 2 | 36.951 | 11.860 | 32.158 | 2 |
| 2025-05-08T11:23:00 | 54.923691 | 7.732372 | 2.0 | 11.766 | 2 | 37.010 | 11.918 | 32.165 | 2 |
| 2025-05-08T11:24:00 | 54.923859 | 7.732254 | 2.0 | 11.546 | 2 | 36.996 | 11.889 | 32.176 | 2 |
| 2025-05-08T11:25:00 | 54.924016 | 7.732129 | 2.0 | 11.500 | 2 | 36.831 | 11.695 | 32.184 | 2 |
| 2025-05-08T11:26:00 | 54.924177 | 7.732002 | 2.0 | 11.492 | 2 | 36.820 | 11.692 | 32.176 | 2 |
| 2025-05-08T11:27:00 | 54.924365 | 7.731955 | 2.0 | 11.501 | 2 | 36.799 | 11.648 | 32.194 | 2 |
| 2025-05-08T11:28:00 | 54.924575 | 7.732169 | 2.0 | 11.505 | 2 | 36.825 | 11.700 | 32.174 | 2 |
| 2025-05-08T11:29:00 | 54.924780 | 7.733028 | 2.0 | 11.237 | 2 | 36.755 | 11.592 | 32.199 | 2 |
| 2025-05-08T11:30:00 | 54.924774 | 7.734138 | 2.0 | 11.257 | 2 | 36.609 | 11.424 | 32.203 | 2 |
| 2025-05-08T11:31:00 | 54.924643 | 7.735415 | 2.0 | 11.374 | 2 | 36.598 | 11.444 | 32.175 | 2 |
| 2025-05-08T11:32:00 | 54.924440 | 7.736732 | 2.0 | 11.390 | 2 | 36.655 | 11.526 | 32.159 | 2 |
| 2025-05-08T11:33:00 | 54.924223 | 7.738063 | 2.0 | 11.461 | 2 | 36.686 | 11.569 | 32.152 | 2 |
| 2025-05-08T11:34:00 | 54.924003 | 7.739395 | 2.0 | 11.389 | 2 | 36.713 | 11.599 | 32.153 | 2 |
| 2025-05-08T11:35:00 | 54.923790 | 7.740727 | 2.0 | 11.441 | 2 | 36.684 | 11.572 | 32.148 | 2 |
| 2025-05-08T11:36:00 | 54.923584 | 7.742071 | 2.0 | 11.326 | 2 | 36.705 | 11.590 | 32.153 | 2 |
| 2025-05-08T11:37:00 | 54.923375 | 7.743418 | 2.0 | 11.250 | 2 | 36.617 | 11.487 | 32.156 | 2 |
| 2025-05-08T11:38:00 | 54.923170 | 7.744774 | 2.0 | 11.125 | 2 | 36.541 | 11.404 | 32.154 | 2 |
| 2025-05-08T11:39:00 | 54.922965 | 7.746139 | 2.0 | 11.057 | 2 | 36.438 | 11.286 | 32.156 | 2 |
| 2025-05-08T11:40:00 | 54.922762 | 7.747513 | 2.0 | 11.102 | 2 | 36.385 | 11.238 | 32.146 | 2 |
| 2025-05-08T11:41:00 | 54.922558 | 7.748888 | 2.0 | 11.052 | 2 | 36.404 | 11.269 | 32.137 | 2 |
| 2025-05-08T11:42:00 | 54.922398 | 7.750130 | 2.0 | 11.036 | 2 | 36.362 | 11.221 | 32.138 | 2 |
| 2025-05-08T11:43:00 | 54.922509 | 7.751181 | 2.0 | 11.124 | 2 | 36.346 | 11.214 | 32.128 | 2 |
| 2025-05-08T11:44:00 | 54.922926 | 7.751778 | 2.0 | 11.146 | 2 | 36.408 | 11.303 | 32.112 | 2 |
| 2025-05-08T11:45:00 | 54.923407 | 7.751990 | 2.0 | 11.146 | 2 | 36.429 | 11.318 | 32.119 | 2 |
| 2025-05-08T11:46:00 | 54.923871 | 7.751935 | 2.0 | 11.093 | 2 | 36.423 | 11.304 | 32.125 | 2 |
| 2025-05-08T11:47:00 | 54.924261 | 7.751673 | 2.0 | 11.053 | 2 | 36.391 | 11.257 | 32.135 | 2 |
| 2025-05-08T11:48:00 | 54.924535 | 7.751273 | 2.0 | 11.105 | 2 | 36.362 | 11.217 | 32.141 | 2 |
| 2025-05-08T11:49:00 | 54.924641 | 7.750511 | 2.0 | 11.142 | 2 | 36.408 | 11.294 | 32.119 | 2 |
| 2025-05-08T11:50:00 | 54.924605 | 7.749270 | 2.0 | 11.048 | 2 | 36.414 | 11.284 | 32.134 | 2 |
| 2025-05-08T11:51:00 | 54.924468 | 7.747689 | 2.0 | 11.073 | 2 | 36.373 | 11.232 | 32.139 | 2 |
| 2025-05-08T11:52:00 | 54.924287 | 7.745869 | 2.0 | 11.017 | 2 | 36.367 | 11.227 | 32.138 | 2 |
| 2025-05-08T11:53:00 | 54.923981 | 7.744340 | 2.0 | 11.087 | 2 | 36.341 | 11.192 | 32.143 | 2 |
| 2025-05-08T11:54:00 | 54.923674 | 7.743285 | 2.0 | 11.028 | 2 | 36.380 | 11.250 | 32.130 | 2 |
| 2025-05-08T11:55:00 | 54.923915 | 7.742486 | 2.0 | 10.966 | 2 | 36.338 | 11.186 | 32.145 | 2 |
| 2025-05-08T11:56:00 | 54.924305 | 7.742080 | 2.0 | 11.033 | 2 | 36.308 | 11.152 | 32.145 | 2 |
| 2025-05-08T11:57:00 | 54.924728 | 7.741930 | 2.0 | 11.065 | 2 | 36.345 | 11.202 | 32.138 | 2 |
| 2025-05-08T11:58:00 | 54.925180 | 7.741900 | 2.0 | 11.088 | 2 | 36.374 | 11.237 | 32.136 | 2 |
| 2025-05-08T11:59:00 | 54.925663 | 7.741911 | 2.0 | 11.115 | 2 | 36.394 | 11.258 | 32.137 | 2 |
| 2025-05-08T12:00:00 | 54.926171 | 7.741936 | 2.0 | 11.083 | 2 | 36.411 | 11.274 | 32.140 | 2 |
| 2025-05-08T12:01:00 | 54.926708 | 7.741969 | 2.0 | 11.192 | 2 | 36.406 | 11.266 | 32.142 | 2 |
| 2025-05-08T12:02:00 | 54.927262 | 7.741998 | 2.0 | 11.200 | 2 | 36.481 | 11.369 | 32.126 | 2 |
| 2025-05-08T12:03:00 | 54.927819 | 7.742022 | 2.0 | 11.158 | 2 | 36.487 | 11.359 | 32.140 | 2 |
| 2025-05-08T12:04:00 | 54.928374 | 7.742036 | 2.0 | 11.164 | 2 | 36.464 | 11.327 | 32.146 | 2 |
| 2025-05-08T12:05:00 | 54.928928 | 7.742055 | 2.0 | 11.197 | 2 | 36.479 | 11.338 | 32.151 | 2 |
| 2025-05-08T12:06:00 | 54.929482 | 7.742066 | 2.0 | 11.183 | 2 | 36.502 | 11.363 | 32.152 | 2 |
| 2025-05-08T12:07:00 | 54.930020 | 7.742074 | 2.0 | 11.248 | 2 | 36.496 | 11.356 | 32.152 | 2 |
| 2025-05-08T12:08:00 | 54.930529 | 7.742080 | 2.0 | 11.281 | 2 | 36.551 | 11.425 | 32.146 | 2 |
| 2025-05-08T12:09:00 | 54.931046 | 7.742077 | 2.0 | 11.401 | 2 | 36.594 | 11.472 | 32.147 | 2 |
| 2025-05-08T12:10:00 | 54.931571 | 7.742074 | 2.0 | 11.503 | 2 | 36.667 | 11.555 | 32.146 | 2 |
| 2025-05-08T12:11:00 | 54.932081 | 7.742055 | 2.0 | 11.619 | 2 | 36.777 | 11.692 | 32.134 | 2 |
| 2025-05-08T12:12:00 | 54.932548 | 7.742028 | 2.0 | 11.481 | 2 | 36.851 | 11.765 | 32.143 | 2 |
| 2025-05-08T12:13:00 | 54.933000 | 7.742008 | 2.0 | 11.513 | 2 | 36.778 | 11.663 | 32.160 | 2 |
| 2025-05-08T12:14:00 | 54.933438 | 7.742110 | 2.0 | 11.963 | 2 | 36.838 | 11.754 | 32.140 | 2 |
| 2025-05-08T12:15:00 | 54.933799 | 7.742376 | 2.0 | 11.570 | 2 | 37.080 | 12.016 | 32.148 | 2 |
| 2025-05-08T12:16:00 | 54.934031 | 7.742733 | 2.0 | 11.582 | 2 | 36.886 | 11.771 | 32.172 | 2 |
| 2025-05-08T12:17:00 | 54.934142 | 7.743109 | 2.0 | 11.769 | 2 | 36.868 | 11.766 | 32.158 | 2 |
| 2025-05-08T12:18:00 | 54.934209 | 7.743556 | 2.0 | 11.687 | 2 | 37.018 | 11.958 | 32.138 | 2 |
| 2025-05-08T12:19:00 | 54.934250 | 7.744079 | 2.0 | 11.641 | 2 | 36.934 | 11.840 | 32.158 | 2 |
| 2025-05-08T12:20:00 | 54.934273 | 7.744664 | 2.0 | 11.831 | 2 | 36.936 | 11.862 | 32.141 | 2 |
| 2025-05-08T12:21:00 | 54.934284 | 7.745311 | 2.0 | 11.874 | 2 | 37.039 | 11.991 | 32.130 | 2 |
| 2025-05-08T12:22:00 | 54.934264 | 7.745987 | 2.0 | 11.859 | 2 | 37.077 | 12.042 | 32.122 | 2 |
| 2025-05-08T12:23:00 | 54.934216 | 7.746694 | 2.0 | 11.855 | 2 | 37.064 | 12.026 | 32.124 | 2 |
| 2025-05-08T12:24:00 | 54.934162 | 7.747429 | 2.0 | 11.781 | 2 | 37.039 | 11.989 | 32.131 | 2 |
| 2025-05-08T12:25:00 | 54.934098 | 7.748180 | 2.0 | 11.757 | 2 | 37.008 | 11.961 | 32.126 | 2 |
| 2025-05-08T12:26:00 | 54.934033 | 7.748958 | 2.0 | 11.717 | 2 | 36.979 | 11.925 | 32.129 | 2 |
| 2025-05-08T12:27:00 | 54.933957 | 7.749797 | 2.0 | 11.609 | 2 | 36.929 | 11.868 | 32.129 | 2 |
| 2025-05-08T12:28:00 | 54.933842 | 7.750788 | 2.0 | 11.498 | 2 | 36.838 | 11.756 | 32.138 | 2 |
| 2025-05-08T12:29:00 | 54.933688 | 7.751900 | 2.0 | 11.437 | 2 | 36.743 | 11.653 | 32.135 | 2 |
| 2025-05-08T12:30:00 | 54.933506 | 7.753190 | 2.0 | 11.462 | 2 | 36.700 | 11.615 | 32.126 | 2 |
| 2025-05-08T12:31:00 | 54.933337 | 7.754641 | 2.0 | 11.354 | 2 | 36.699 | 11.610 | 32.129 | 2 |
| 2025-05-08T12:32:00 | 54.933170 | 7.756112 | 2.0 | 11.352 | 2 | 36.622 | 11.519 | 32.133 | 2 |
| 2025-05-08T12:33:00 | 54.933013 | 7.757506 | 2.0 | 11.406 | 2 | 36.619 | 11.521 | 32.129 | 2 |
| 2025-05-08T12:34:00 | 54.932869 | 7.758850 | 2.0 | 11.385 | 2 | 36.671 | 11.587 | 32.122 | 2 |
| 2025-05-08T12:35:00 | 54.932729 | 7.760154 | 2.0 | 11.381 | 2 | 36.645 | 11.551 | 32.128 | 2 |
| 2025-05-08T12:36:00 | 54.932580 | 7.761483 | 2.0 | 11.386 | 2 | 36.637 | 11.548 | 32.123 | 2 |
| 2025-05-08T12:37:00 | 54.932410 | 7.762854 | 2.0 | 11.375 | 2 | 36.631 | 11.547 | 32.118 | 2 |
| 2025-05-08T12:38:00 | 54.932231 | 7.764259 | 2.0 | 11.494 | 2 | 36.630 | 11.557 | 32.108 | 2 |
| 2025-05-08T12:39:00 | 54.932049 | 7.765686 | 2.0 | 12.116 | 2 | 36.719 | 11.702 | 32.069 | 2 |
| 2025-05-08T12:40:00 | 54.931864 | 7.767129 | 2.0 | 12.158 | 2 | 37.250 | 12.351 | 32.024 | 2 |
| 2025-05-08T12:41:00 | 54.931699 | 7.768527 | 2.0 | 11.838 | 2 | 37.175 | 12.250 | 32.038 | 2 |
| 2025-05-08T12:42:00 | 54.931563 | 7.769771 | 2.0 | 11.642 | 2 | 36.895 | 11.971 | 32.008 | 2 |
| 2025-05-08T12:43:00 | 54.931452 | 7.770850 | 2.0 | 11.502 | 2 | 36.696 | 11.792 | 31.969 | 2 |
| 2025-05-08T12:44:00 | 54.931293 | 7.771723 | 2.0 | 11.536 | 2 | 36.579 | 11.677 | 31.955 | 2 |
| 2025-05-08T12:45:00 | 54.931093 | 7.772335 | 2.0 | 11.582 | 2 | 36.575 | 11.746 | 31.892 | 2 |
| 2025-05-08T12:46:00 | 54.930904 | 7.772177 | 2.0 | 11.499 | 2 | 36.624 | 11.724 | 31.958 | 2 |
| 2025-05-08T12:47:00 | 54.930700 | 7.771229 | 2.0 | 11.696 | 2 | 36.660 | 11.720 | 31.996 | 2 |
| 2025-05-08T12:48:00 | 54.930360 | 7.769876 | 2.0 | 12.017 | 2 | 36.816 | 11.902 | 31.991 | 2 |
| 2025-05-08T12:49:00 | 54.929726 | 7.768462 | 2.0 | 11.564 | 2 | 37.053 | 12.177 | 31.983 | 2 |
| 2025-05-08T12:50:00 | 54.928965 | 7.766903 | 2.0 | 11.059 | 2 | 36.653 | 11.642 | 32.057 | 2 |
| 2025-05-08T12:51:00 | 54.928137 | 7.765249 | 2.0 | 11.006 | 2 | 36.282 | 11.250 | 32.034 | 2 |
| 2025-05-08T12:52:00 | 54.927266 | 7.763522 | 2.0 | 10.979 | 2 | 36.207 | 11.175 | 32.026 | 2 |
| 2025-05-08T12:53:00 | 54.926378 | 7.761758 | 2.0 | 10.993 | 2 | 36.183 | 11.162 | 32.013 | 2 |
| 2025-05-08T12:54:00 | 54.925477 | 7.759972 | 2.0 | 10.992 | 2 | 36.185 | 11.168 | 32.010 | 2 |
| 2025-05-08T12:55:00 | 54.924641 | 7.758138 | 2.0 | 10.968 | 2 | 36.174 | 11.160 | 32.006 | 2 |
| 2025-05-08T12:56:00 | 54.923941 | 7.756277 | 2.0 | 10.971 | 2 | 36.153 | 11.143 | 32.000 | 2 |
| 2025-05-08T12:57:00 | 54.923301 | 7.754531 | 2.0 | 10.961 | 2 | 36.144 | 11.144 | 31.991 | 2 |
| 2025-05-08T12:58:00 | 54.922750 | 7.752966 | 2.0 | 10.983 | 2 | 36.132 | 11.136 | 31.986 | 2 |
| 2025-05-08T12:59:00 | 54.922274 | 7.751542 | 2.0 | 10.988 | 2 | 36.145 | 11.152 | 31.985 | 2 |
| 2025-05-08T13:00:00 | 54.921856 | 7.750333 | 2.0 | 10.979 | 2 | 36.149 | 11.156 | 31.985 | 2 |
| 2025-05-08T13:01:00 | 54.921576 | 7.749277 | 2.0 | 10.947 | 2 | 36.133 | 11.151 | 31.974 | 2 |
| 2025-05-08T13:02:00 | 54.921350 | 7.748425 | 2.0 | 11.092 | 2 | 35.985 | 11.124 | 31.852 | 2 |
| 2025-05-08T13:03:00 | 54.921060 | 7.747999 | 2.0 | 11.084 | 2 | 36.111 | 11.265 | 31.853 | 2 |
| 2025-05-08T13:04:00 | 54.920784 | 7.747839 | 2.0 | 11.082 | 2 | 36.077 | 11.243 | 31.839 | 2 |
| 2025-05-08T13:05:00 | 54.920570 | 7.747871 | 2.0 | 11.135 | 2 | 36.080 | 11.264 | 31.824 | 2 |
| 2025-05-08T13:06:00 | 54.920437 | 7.748005 | 2.0 | 11.114 | 2 | 36.169 | 11.282 | 31.896 | 2 |
| 2025-05-08T13:07:00 | 54.920340 | 7.748254 | 2.0 | 11.151 | 2 | 36.166 | 11.302 | 31.875 | 2 |
| 2025-05-08T13:08:00 | 54.920216 | 7.748526 | 2.0 | 11.024 | 2 | 36.132 | 11.309 | 31.836 | 2 |
| 2025-05-08T13:09:00 | 54.920116 | 7.748686 | 2.0 | 10.863 | 2 | 36.015 | 11.156 | 31.853 | 2 |
| 2025-05-08T13:10:00 | 54.920042 | 7.748776 | 2.0 | 10.949 | 2 | 35.965 | 11.070 | 31.879 | 2 |
| 2025-05-08T13:11:00 | 54.919969 | 7.748856 | 2.0 | 10.925 | 2 | 35.954 | 11.122 | 31.823 | 2 |
| 2025-05-08T13:12:00 | 54.919937 | 7.749012 | 2.0 | 11.355 | 2 | 35.959 | 11.159 | 31.796 | 2 |
| 2025-05-08T13:13:00 | 54.919932 | 7.749120 | 2.0 | 11.239 | 2 | 36.299 | 11.541 | 31.799 | 2 |
| 2025-05-08T13:14:00 | 54.919905 | 7.749148 | 2.0 | 11.163 | 2 | 36.209 | 11.439 | 31.799 | 2 |
| 2025-05-08T13:15:00 | 54.919884 | 7.749156 | 2.0 | 11.156 | 2 | 36.164 | 11.433 | 31.761 | 2 |
| 2025-05-08T13:16:00 | 54.919980 | 7.749331 | 2.0 | 11.537 | 2 | 36.155 | 11.359 | 31.815 | 2 |
| 2025-05-08T13:17:00 | 54.920127 | 7.749512 | 2.0 | 11.444 | 2 | 36.457 | 11.741 | 31.781 | 2 |
| 2025-05-08T13:18:00 | 54.920246 | 7.749625 | 2.0 | 11.341 | 2 | 36.404 | 11.601 | 31.850 | 2 |
| 2025-05-08T13:19:00 | 54.920342 | 7.749718 | 2.0 | 11.246 | 2 | 36.354 | 11.529 | 31.863 | 2 |
| 2025-05-08T13:20:00 | 54.920415 | 7.749808 | 2.0 | 11.324 | 2 | 36.281 | 11.452 | 31.858 | 2 |
| 2025-05-08T13:21:00 | 54.920476 | 7.749900 | 2.0 | 11.380 | 2 | 36.325 | 11.530 | 31.834 | 2 |
| 2025-05-08T13:22:00 | 54.920508 | 7.750004 | 2.0 | 11.466 | 2 | 36.382 | 11.593 | 31.835 | 2 |
| 2025-05-08T13:23:00 | 54.920477 | 7.750099 | 2.0 | 11.645 | 2 | 36.445 | 11.641 | 31.856 | 2 |
| 2025-05-08T13:24:00 | 54.920459 | 7.750144 | 2.0 | 11.918 | 2 | 36.612 | 11.880 | 31.813 | 2 |
| 2025-05-08T13:25:00 | 54.920386 | 7.750055 | 2.0 | 11.577 | 2 | 36.716 | 12.026 | 31.788 | 2 |
| 2025-05-08T13:26:00 | 54.920140 | 7.749968 | 2.0 | 10.985 | 2 | 36.470 | 11.615 | 31.902 | 2 |
| 2025-05-08T13:27:00 | 54.919747 | 7.750024 | 2.0 | 10.998 | 2 | 36.127 | 11.229 | 31.900 | 2 |
| 2025-05-08T13:28:00 | 54.919247 | 7.750304 | 2.0 | 10.968 | 2 | 36.056 | 11.201 | 31.855 | 2 |
| 2025-05-08T13:29:00 | 54.918692 | 7.750615 | 2.0 | 10.964 | 2 | 36.012 | 11.178 | 31.831 | 2 |
| 2025-05-08T13:30:00 | 54.918180 | 7.750533 | 2.0 | 10.977 | 2 | 36.034 | 11.170 | 31.860 | 2 |
| 2025-05-08T13:31:00 | 54.917861 | 7.750175 | 2.0 | 10.881 | 2 | 36.014 | 11.147 | 31.860 | 2 |
| 2025-05-08T13:32:00 | 54.917617 | 7.749963 | 2.0 | 10.913 | 2 | 35.998 | 11.099 | 31.886 | 2 |
| 2025-05-08T13:33:00 | 54.917536 | 7.749958 | 2.0 | 10.920 | 2 | 36.006 | 11.108 | 31.886 | 2 |
| 2025-05-08T13:34:00 | 54.917479 | 7.750146 | 2.0 | 11.358 | 2 | 36.066 | 11.189 | 31.875 | 2 |
| 2025-05-08T13:35:00 | 54.917414 | 7.750396 | 2.0 | 11.569 | 2 | 36.370 | 11.584 | 31.832 | 2 |
| 2025-05-08T13:36:00 | 54.917265 | 7.750486 | 2.0 | 11.278 | 2 | 36.533 | 11.739 | 31.857 | 2 |
| 2025-05-08T13:37:00 | 54.916995 | 7.750171 | 2.0 | 10.994 | 2 | 36.259 | 11.401 | 31.881 | 2 |
| 2025-05-08T13:38:00 | 54.916841 | 7.749571 | 2.0 | 10.975 | 2 | 36.090 | 11.209 | 31.881 | 2 |
| 2025-05-08T13:39:00 | 54.916650 | 7.748624 | 2.0 | 11.102 | 2 | 36.063 | 11.204 | 31.859 | 2 |
| 2025-05-08T13:40:00 | 54.916569 | 7.747987 | 2.0 | 11.196 | 2 | 36.122 | 11.299 | 31.835 | 2 |
| 2025-05-08T13:41:00 | 54.916509 | 7.748048 | 2.0 | 11.615 | 2 | 36.265 | 11.469 | 31.828 | 2 |
| 2025-05-08T13:42:00 | 54.916429 | 7.748008 | 2.0 | 11.522 | 2 | 36.563 | 11.809 | 31.826 | 2 |
| 2025-05-08T13:43:00 | 54.916381 | 7.747856 | 2.0 | 11.619 | 2 | 36.487 | 11.707 | 31.840 | 2 |
| 2025-05-08T13:44:00 | 54.916357 | 7.747568 | 2.0 | 11.942 | 2 | 36.565 | 11.816 | 31.822 | 2 |
| 2025-05-08T13:45:00 | 54.916340 | 7.747257 | 2.0 | 11.993 | 2 | 36.795 | 12.119 | 31.785 | 2 |
| 2025-05-08T13:46:00 | 54.916294 | 7.747056 | 2.0 | 11.061 | 2 | 36.663 | 11.861 | 31.878 | 2 |
| 2025-05-08T13:47:00 | 54.916262 | 7.747083 | 2.0 | 11.629 | 2 | 36.220 | 11.358 | 31.880 | 2 |
| 2025-05-08T13:48:00 | 54.916149 | 7.747267 | 2.0 | 11.306 | 2 | 36.466 | 11.715 | 31.812 | 2 |
| 2025-05-08T13:49:00 | 54.915994 | 7.747486 | 2.0 | 11.284 | 2 | 36.307 | 11.506 | 31.837 | 2 |
| 2025-05-08T13:50:00 | 54.915740 | 7.747564 | 2.0 | 11.127 | 2 | 36.231 | 11.410 | 31.846 | 2 |
| 2025-05-08T13:51:00 | 54.915626 | 7.747550 | 2.0 | 11.244 | 2 | 36.131 | 11.309 | 31.835 | 2 |
| 2025-05-08T13:52:00 | 54.915499 | 7.747452 | 2.0 | 11.200 | 2 | 36.281 | 11.517 | 31.802 | 2 |
| 2025-05-08T13:53:00 | 54.915316 | 7.746772 | 2.0 | 11.039 | 2 | 36.205 | 11.364 | 31.860 | 2 |
| 2025-05-08T13:54:00 | 54.915108 | 7.745859 | 2.0 | 10.950 | 2 | 36.086 | 11.255 | 31.838 | 2 |
| 2025-05-08T13:55:00 | 54.914880 | 7.745300 | 2.0 | 11.459 | 2 | 36.013 | 11.164 | 31.845 | 2 |
| 2025-05-08T13:56:00 | 54.914605 | 7.744927 | 2.0 | 11.651 | 2 | 36.544 | 11.903 | 31.727 | 2 |
| 2025-05-08T13:57:00 | 54.914360 | 7.744705 | 2.0 | 11.017 | 2 | 36.363 | 11.671 | 31.750 | 2 |
| 2025-05-08T13:58:00 | 54.914231 | 7.744668 | 2.0 | 11.204 | 2 | 36.144 | 11.458 | 31.720 | 2 |
| 2025-05-08T13:59:00 | 54.913991 | 7.744570 | 2.0 | 11.281 | 2 | 36.137 | 11.344 | 31.811 | 2 |
| 2025-05-08T14:00:00 | 54.913871 | 7.744543 | 2.0 | 11.752 | 2 | 36.329 | 11.697 | 31.695 | 2 |
| 2025-05-08T14:01:00 | 54.913742 | 7.744488 | 2.0 | 11.212 | 2 | 36.498 | 11.785 | 31.784 | 2 |
| 2025-05-08T14:02:00 | 54.913629 | 7.744365 | 2.0 | 11.567 | 2 | 36.249 | 11.566 | 31.729 | 2 |
| 2025-05-08T14:03:00 | 54.913536 | 7.744204 | 2.0 | 11.822 | 2 | 36.509 | 11.812 | 31.771 | 2 |
| 2025-05-08T14:04:00 | 54.913475 | 7.743993 | 2.0 | 12.176 | 2 | 36.711 | 12.084 | 31.734 | 2 |
| 2025-05-08T14:05:00 | 54.913472 | 7.743760 | 2.0 | 12.124 | 2 | 36.951 | 12.364 | 31.727 | 2 |
| 2025-05-08T14:06:00 | 54.913611 | 7.743671 | 2.0 | 11.664 | 2 | 36.872 | 12.198 | 31.792 | 2 |
| 2025-05-08T14:07:00 | 54.913833 | 7.744232 | 2.0 | 11.076 | 2 | 36.508 | 11.746 | 31.827 | 2 |
| 2025-05-08T14:08:00 | 54.914120 | 7.745092 | 2.0 | 11.422 | 2 | 36.120 | 11.280 | 31.849 | 2 |
| 2025-05-08T14:09:00 | 54.914477 | 7.745890 | 2.0 | 11.643 | 2 | 36.412 | 11.753 | 31.728 | 2 |
| 2025-05-08T14:10:00 | 54.914821 | 7.746656 | 2.0 | 11.562 | 2 | 36.508 | 11.809 | 31.773 | 2 |
| 2025-05-08T14:11:00 | 54.915099 | 7.747456 | 2.0 | 11.519 | 2 | 36.396 | 11.661 | 31.791 | 2 |
| 2025-05-08T14:12:00 | 54.915339 | 7.748254 | 2.0 | 11.356 | 2 | 36.432 | 11.728 | 31.768 | 2 |
| 2025-05-08T14:13:00 | 54.915561 | 7.749028 | 2.0 | 11.219 | 2 | 36.314 | 11.543 | 31.812 | 2 |
| 2025-05-08T14:14:00 | 54.915767 | 7.749794 | 2.0 | 11.280 | 2 | 36.233 | 11.463 | 31.802 | 2 |
| 2025-05-08T14:15:00 | 54.915967 | 7.750568 | 2.0 | 11.567 | 2 | 36.267 | 11.504 | 31.800 | 2 |
| 2025-05-08T14:16:00 | 54.916166 | 7.751348 | 2.0 | 11.627 | 2 | 36.483 | 11.748 | 31.801 | 2 |
| 2025-05-08T14:17:00 | 54.916360 | 7.752126 | 2.0 | 11.564 | 2 | 36.546 | 11.798 | 31.819 | 2 |
| 2025-05-08T14:18:00 | 54.916541 | 7.752826 | 2.0 | 11.778 | 2 | 36.516 | 11.743 | 31.837 | 2 |
| 2025-05-08T14:19:00 | 54.916724 | 7.753287 | 2.0 | 11.989 | 2 | 36.690 | 11.968 | 31.813 | 2 |
| 2025-05-08T14:20:00 | 54.916841 | 7.753547 | 2.0 | 12.017 | 2 | 36.866 | 12.149 | 31.828 | 2 |
| 2025-05-08T14:21:00 | 54.916890 | 7.753744 | 2.0 | 12.008 | 2 | 36.907 | 12.184 | 31.837 | 2 |
| 2025-05-08T14:22:00 | 54.916961 | 7.753942 | 2.0 | 11.970 | 2 | 36.900 | 12.172 | 31.841 | 2 |
| 2025-05-08T14:23:00 | 54.916993 | 7.754069 | 2.0 | 11.960 | 2 | 36.869 | 12.138 | 31.840 | 2 |
| 2025-05-08T14:24:00 | 54.917005 | 7.754147 | 2.0 | 11.866 | 2 | 36.860 | 12.128 | 31.840 | 2 |
| 2025-05-08T14:25:00 | 54.916980 | 7.754152 | 2.0 | 11.761 | 2 | 36.773 | 12.017 | 31.851 | 2 |
| 2025-05-08T14:26:00 | 54.916923 | 7.754031 | 2.0 | 11.715 | 2 | 36.690 | 11.926 | 31.849 | 2 |
| 2025-05-08T14:27:00 | 54.916918 | 7.753749 | 2.0 | 11.669 | 2 | 36.675 | 11.911 | 31.847 | 2 |
| 2025-05-08T14:28:00 | 54.916963 | 7.753387 | 2.0 | 11.209 | 2 | 36.561 | 11.769 | 31.858 | 2 |
| 2025-05-08T14:29:00 | 54.917031 | 7.752983 | 2.0 | 11.009 | 2 | 36.241 | 11.379 | 31.882 | 2 |
| 2025-05-08T14:30:00 | 54.917089 | 7.752571 | 2.0 | 11.010 | 2 | 36.079 | 11.211 | 31.869 | 2 |
| 2025-05-08T14:31:00 | 54.917137 | 7.752187 | 2.0 | 11.041 | 2 | 36.066 | 11.200 | 31.865 | 2 |
| 2025-05-08T14:32:00 | 54.917171 | 7.751827 | 2.0 | 11.100 | 2 | 36.111 | 11.259 | 31.859 | 2 |
| 2025-05-08T14:33:00 | 54.917184 | 7.751483 | 2.0 | 11.176 | 2 | 36.174 | 11.331 | 31.858 | 2 |
| 2025-05-08T14:34:00 | 54.917221 | 7.751082 | 2.0 | 11.148 | 2 | 36.198 | 11.352 | 31.863 | 2 |
| 2025-05-08T14:35:00 | 54.917487 | 7.750248 | 2.0 | 11.541 | 2 | 36.206 | 11.385 | 31.843 | 2 |
| 2025-05-08T14:36:00 | 54.917877 | 7.749127 | 2.0 | 11.531 | 2 | 36.457 | 11.690 | 31.825 | 2 |
| 2025-05-08T14:37:00 | 54.918278 | 7.747943 | 2.0 | 11.568 | 2 | 36.498 | 11.715 | 31.843 | 2 |
| 2025-05-08T14:38:00 | 54.918664 | 7.746764 | 2.0 | 11.577 | 2 | 36.519 | 11.730 | 31.851 | 2 |
| 2025-05-08T14:39:00 | 54.919070 | 7.745550 | 2.0 | 11.297 | 2 | 36.497 | 11.694 | 31.861 | 2 |
| 2025-05-08T14:40:00 | 54.919489 | 7.744325 | 2.0 | 11.351 | 2 | 36.322 | 11.502 | 31.855 | 2 |
| 2025-05-08T14:41:00 | 54.919911 | 7.743090 | 2.0 | 11.356 | 2 | 36.340 | 11.535 | 31.844 | 2 |
| 2025-05-08T14:42:00 | 54.920331 | 7.741863 | 2.0 | 11.249 | 2 | 36.361 | 11.543 | 31.858 | 2 |
| 2025-05-08T14:43:00 | 54.920737 | 7.740667 | 2.0 | 11.234 | 2 | 36.297 | 11.456 | 31.871 | 2 |
| 2025-05-08T14:44:00 | 54.921138 | 7.739500 | 2.0 | 11.225 | 2 | 36.244 | 11.390 | 31.876 | 2 |
| 2025-05-08T14:45:00 | 54.921523 | 7.738376 | 2.0 | 11.201 | 2 | 36.228 | 11.366 | 31.881 | 2 |
| 2025-05-08T14:46:00 | 54.921861 | 7.737451 | 2.0 | 11.339 | 2 | 36.300 | 11.470 | 31.861 | 2 |
| 2025-05-08T14:47:00 | 54.922210 | 7.736923 | 2.0 | 11.052 | 2 | 36.303 | 11.429 | 31.900 | 2 |
| 2025-05-08T14:48:00 | 54.922520 | 7.736565 | 2.0 | 11.397 | 2 | 36.188 | 11.306 | 31.893 | 2 |
| 2025-05-08T14:49:00 | 54.922781 | 7.736218 | 2.0 | 11.176 | 2 | 36.358 | 11.511 | 31.883 | 2 |
| 2025-05-08T14:50:00 | 54.923026 | 7.735926 | 2.0 | 11.199 | 2 | 36.266 | 11.375 | 31.910 | 2 |
| 2025-05-08T14:51:00 | 54.923234 | 7.735685 | 2.0 | 11.238 | 2 | 36.252 | 11.364 | 31.906 | 2 |
| 2025-05-08T14:52:00 | 54.923383 | 7.735488 | 2.0 | 11.049 | 2 | 36.333 | 11.461 | 31.901 | 2 |
| 2025-05-08T14:53:00 | 54.923483 | 7.735316 | 2.0 | 10.940 | 2 | 36.172 | 11.233 | 31.941 | 2 |
| 2025-05-08T14:54:00 | 54.923542 | 7.735147 | 2.0 | 10.933 | 2 | 36.097 | 11.159 | 31.931 | 2 |
| 2025-05-08T14:55:00 | 54.923568 | 7.734977 | 2.0 | 10.897 | 2 | 36.060 | 11.100 | 31.946 | 2 |
| 2025-05-08T14:56:00 | 54.923600 | 7.734844 | 2.0 | 10.885 | 2 | 36.043 | 11.083 | 31.944 | 2 |
| 2025-05-08T14:57:00 | 54.923659 | 7.734767 | 2.0 | 10.894 | 2 | 36.041 | 11.066 | 31.957 | 2 |
| 2025-05-08T14:58:00 | 54.923720 | 7.734710 | 2.0 | 11.204 | 2 | 36.078 | 11.132 | 31.936 | 2 |
| 2025-05-08T14:59:00 | 54.923783 | 7.734652 | 2.0 | 11.374 | 2 | 36.262 | 11.385 | 31.898 | 2 |
| 2025-05-08T15:00:00 | 54.923841 | 7.734606 | 2.0 | 11.260 | 2 | 36.333 | 11.447 | 31.913 | 2 |
| 2025-05-08T15:01:00 | 54.923907 | 7.734554 | 2.0 | 11.711 | 2 | 36.416 | 11.571 | 31.888 | 2 |
| 2025-05-08T15:02:00 | 54.923980 | 7.734496 | 2.0 | 11.647 | 2 | 36.654 | 11.838 | 31.889 | 2 |
| 2025-05-08T15:03:00 | 54.924050 | 7.734436 | 2.0 | 11.575 | 2 | 36.620 | 11.777 | 31.909 | 2 |
| 2025-05-08T15:04:00 | 54.924113 | 7.734375 | 2.0 | 11.513 | 2 | 36.577 | 11.731 | 31.906 | 2 |
| 2025-05-08T15:05:00 | 54.924180 | 7.734318 | 2.0 | 11.697 | 2 | 36.559 | 11.717 | 31.901 | 2 |
| 2025-05-08T15:06:00 | 54.924258 | 7.734262 | 2.0 | 11.690 | 2 | 36.679 | 11.853 | 31.900 | 2 |
| 2025-05-08T15:07:00 | 54.924338 | 7.734208 | 2.0 | 11.761 | 2 | 36.679 | 11.846 | 31.906 | 2 |
| 2025-05-08T15:08:00 | 54.924407 | 7.734157 | 2.0 | 11.816 | 2 | 36.747 | 11.929 | 31.901 | 2 |
| 2025-05-08T15:09:00 | 54.924469 | 7.734101 | 2.0 | 11.778 | 2 | 36.795 | 11.975 | 31.908 | 2 |
| 2025-05-08T15:10:00 | 54.924534 | 7.734041 | 2.0 | 11.672 | 2 | 36.743 | 11.909 | 31.914 | 2 |
| 2025-05-08T15:11:00 | 54.924607 | 7.733983 | 2.0 | 11.777 | 2 | 36.668 | 11.818 | 31.920 | 2 |
| 2025-05-08T15:12:00 | 54.924681 | 7.733937 | 2.0 | 11.951 | 2 | 36.763 | 11.943 | 31.905 | 2 |
| 2025-05-08T15:13:00 | 54.924753 | 7.733909 | 2.0 | 11.911 | 2 | 36.893 | 12.090 | 31.904 | 2 |
| 2025-05-08T15:14:00 | 54.924807 | 7.733890 | 2.0 | 11.958 | 2 | 36.894 | 12.076 | 31.917 | 2 |
| 2025-05-08T15:15:00 | 54.924851 | 7.733875 | 2.0 | 11.932 | 2 | 36.933 | 12.122 | 31.915 | 2 |
| 2025-05-08T15:16:00 | 54.924900 | 7.733867 | 2.0 | 11.877 | 2 | 36.906 | 12.084 | 31.922 | 2 |
| 2025-05-08T15:17:00 | 54.924946 | 7.733859 | 2.0 | 11.828 | 2 | 36.875 | 12.054 | 31.918 | 2 |
| 2025-05-08T15:18:00 | 54.924991 | 7.733856 | 2.0 | 11.827 | 2 | 36.806 | 11.963 | 31.929 | 2 |
| 2025-05-08T15:19:00 | 54.925033 | 7.733851 | 2.0 | 11.898 | 2 | 36.824 | 11.997 | 31.917 | 2 |
| 2025-05-08T15:20:00 | 54.925074 | 7.733844 | 2.0 | 11.916 | 2 | 36.888 | 12.069 | 31.917 | 2 |
| 2025-05-08T15:21:00 | 54.925110 | 7.733846 | 2.0 | 11.809 | 2 | 36.895 | 12.062 | 31.930 | 2 |
| 2025-05-08T15:22:00 | 54.925134 | 7.733861 | 2.0 | 11.778 | 2 | 36.817 | 11.970 | 31.934 | 2 |
| 2025-05-08T15:23:00 | 54.925154 | 7.733879 | 2.0 | 11.668 | 2 | 36.798 | 11.949 | 31.933 | 2 |
| 2025-05-08T15:24:00 | 54.925172 | 7.733892 | 2.0 | 11.555 | 2 | 36.684 | 11.809 | 31.943 | 2 |
| 2025-05-08T15:25:00 | 54.925179 | 7.733917 | 2.0 | 11.433 | 2 | 36.563 | 11.659 | 31.955 | 2 |
| 2025-05-08T15:26:00 | 54.925175 | 7.733963 | 2.0 | 11.572 | 2 | 36.530 | 11.641 | 31.938 | 2 |
| 2025-05-08T15:27:00 | 54.925171 | 7.734006 | 2.0 | 11.673 | 2 | 36.644 | 11.791 | 31.920 | 2 |
| 2025-05-08T15:28:00 | 54.925175 | 7.734045 | 2.0 | 11.628 | 2 | 36.683 | 11.818 | 31.934 | 2 |
| 2025-05-08T15:29:00 | 54.925176 | 7.734085 | 2.0 | 11.505 | 2 | 36.669 | 11.797 | 31.939 | 2 |
| 2025-05-08T15:30:00 | 54.925199 | 7.734097 | 2.0 | 11.615 | 2 | 36.581 | 11.686 | 31.949 | 2 |
| 2025-05-08T15:31:00 | 54.925469 | 7.733795 | 2.0 | 11.701 | 2 | 36.708 | 11.852 | 31.929 | 2 |
| 2025-05-08T15:32:00 | 54.925861 | 7.733310 | 2.0 | 11.708 | 2 | 36.731 | 11.856 | 31.948 | 2 |
| 2025-05-08T15:33:00 | 54.926292 | 7.732741 | 2.0 | 11.666 | 2 | 36.736 | 11.853 | 31.956 | 2 |
| 2025-05-08T15:34:00 | 54.926717 | 7.732164 | 2.0 | 11.644 | 2 | 36.728 | 11.840 | 31.959 | 2 |
| 2025-05-08T15:35:00 | 54.927136 | 7.731586 | 2.0 | 11.622 | 2 | 36.706 | 11.807 | 31.966 | 2 |
| 2025-05-08T15:36:00 | 54.927549 | 7.731017 | 2.0 | 11.529 | 2 | 36.684 | 11.774 | 31.973 | 2 |
| 2025-05-08T15:37:00 | 54.927942 | 7.730477 | 2.0 | 11.572 | 2 | 36.639 | 11.716 | 31.979 | 2 |
| 2025-05-08T15:38:00 | 54.928324 | 7.729954 | 2.0 | 11.627 | 2 | 36.670 | 11.755 | 31.976 | 2 |
| 2025-05-08T15:39:00 | 54.928671 | 7.729486 | 2.0 | 11.682 | 2 | 36.713 | 11.794 | 31.984 | 2 |
| 2025-05-08T15:40:00 | 54.928960 | 7.729103 | 2.0 | 11.639 | 2 | 36.750 | 11.833 | 31.986 | 2 |
| 2025-05-08T15:41:00 | 54.929178 | 7.728821 | 2.0 | 11.615 | 2 | 36.728 | 11.800 | 31.993 | 2 |
| 2025-05-08T15:42:00 | 54.929331 | 7.728620 | 2.0 | 11.649 | 2 | 36.721 | 11.783 | 32.001 | 2 |
| 2025-05-08T15:43:00 | 54.929439 | 7.728483 | 2.0 | 11.644 | 2 | 36.739 | 11.803 | 32.001 | 2 |
| 2025-05-08T15:44:00 | 54.929500 | 7.728420 | 2.0 | 11.596 | 2 | 36.708 | 11.756 | 32.012 | 2 |
| 2025-05-08T15:45:00 | 54.929539 | 7.728405 | 2.0 | 11.708 | 2 | 36.720 | 11.775 | 32.007 | 2 |
| 2025-05-08T15:46:00 | 54.929581 | 7.728427 | 2.0 | 11.702 | 2 | 36.812 | 11.883 | 32.003 | 2 |
| 2025-05-08T15:47:00 | 54.929613 | 7.728459 | 2.0 | 11.712 | 2 | 36.811 | 11.859 | 32.023 | 2 |
| 2025-05-08T15:48:00 | 54.929623 | 7.728488 | 2.0 | 11.707 | 2 | 36.768 | 11.809 | 32.024 | 2 |
| 2025-05-08T15:49:00 | 54.929624 | 7.728517 | 2.0 | 11.700 | 2 | 36.810 | 11.861 | 32.020 | 2 |
| 2025-05-08T15:50:00 | 54.929618 | 7.728553 | 2.0 | 11.430 | 2 | 36.810 | 11.841 | 32.038 | 2 |
| 2025-05-08T15:51:00 | 54.929600 | 7.728588 | 2.0 | 11.346 | 2 | 36.621 | 11.604 | 32.059 | 2 |
| 2025-05-08T15:52:00 | 54.929573 | 7.728621 | 2.0 | 11.270 | 2 | 36.568 | 11.560 | 32.045 | 2 |
| 2025-05-08T15:53:00 | 54.929535 | 7.728661 | 2.0 | 11.055 | 2 | 36.435 | 11.367 | 32.082 | 2 |
| 2025-05-08T15:54:00 | 54.929482 | 7.728703 | 2.0 | 11.189 | 2 | 36.342 | 11.287 | 32.061 | 2 |
| 2025-05-08T15:55:00 | 54.929418 | 7.728740 | 2.0 | 11.283 | 2 | 36.412 | 11.372 | 32.056 | 2 |
| 2025-05-08T15:56:00 | 54.929359 | 7.728794 | 2.0 | 11.357 | 2 | 36.488 | 11.483 | 32.034 | 2 |
| 2025-05-08T15:57:00 | 54.929308 | 7.728852 | 2.0 | 11.336 | 2 | 36.557 | 11.542 | 32.050 | 2 |
| 2025-05-08T15:58:00 | 54.929251 | 7.728904 | 2.0 | 11.377 | 2 | 36.522 | 11.491 | 32.060 | 2 |
| 2025-05-08T15:59:00 | 54.929225 | 7.728906 | 2.0 | 11.446 | 2 | 36.564 | 11.552 | 32.048 | 2 |
| 2025-05-08T16:00:00 | 54.929467 | 7.728413 | 2.0 | 11.571 | 2 | 36.648 | 11.658 | 32.038 | 2 |
| 2025-05-08T16:01:00 | 54.929833 | 7.727641 | 2.0 | 11.614 | 2 | 36.744 | 11.752 | 32.050 | 2 |
| 2025-05-08T16:02:00 | 54.930301 | 7.726650 | 2.0 | 11.589 | 2 | 36.803 | 11.793 | 32.072 | 2 |
| 2025-05-08T16:03:00 | 54.930767 | 7.725633 | 2.0 | 11.687 | 2 | 36.785 | 11.746 | 32.095 | 2 |
| 2025-05-08T16:04:00 | 54.931252 | 7.724560 | 2.0 | 11.782 | 2 | 36.892 | 11.852 | 32.107 | 2 |
| 2025-05-08T16:05:00 | 54.931749 | 7.723461 | 2.0 | 11.757 | 2 | 36.980 | 11.926 | 32.129 | 2 |
| 2025-05-08T16:06:00 | 54.932254 | 7.722344 | 2.0 | 11.793 | 2 | 36.988 | 11.914 | 32.147 | 2 |
| 2025-05-08T16:07:00 | 54.932761 | 7.721198 | 2.0 | 11.845 | 2 | 37.034 | 11.951 | 32.159 | 2 |
| 2025-05-08T16:08:00 | 54.933278 | 7.720059 | 2.0 | 11.840 | 2 | 37.101 | 12.001 | 32.181 | 2 |
| 2025-05-08T16:09:00 | 54.933791 | 7.718908 | 2.0 | 11.661 | 2 | 37.114 | 11.978 | 32.213 | 2 |
| 2025-05-08T16:10:00 | 54.934305 | 7.717755 | 2.0 | 11.469 | 2 | 36.989 | 11.802 | 32.245 | 2 |
| 2025-05-08T16:11:00 | 54.934654 | 7.716732 | 2.0 | 11.460 | 2 | 36.854 | 11.651 | 32.245 | 2 |
| 2025-05-08T16:12:00 | 54.934863 | 7.715910 | 2.0 | 11.393 | 2 | 36.838 | 11.636 | 32.242 | 2 |
| 2025-05-08T16:13:00 | 54.935116 | 7.715845 | 2.0 | 11.534 | 2 | 36.790 | 11.580 | 32.244 | 2 |
| 2025-05-08T16:14:00 | 54.935105 | 7.716701 | 2.0 | 11.370 | 2 | 36.853 | 11.652 | 32.243 | 2 |
| 2025-05-08T16:15:00 | 54.934681 | 7.718298 | 2.0 | 11.414 | 2 | 36.793 | 11.585 | 32.243 | 2 |
| 2025-05-08T16:16:00 | 54.933920 | 7.720550 | 2.0 | 11.575 | 2 | 36.803 | 11.613 | 32.228 | 2 |
| 2025-05-08T16:17:00 | 54.932965 | 7.723256 | 2.0 | 11.691 | 2 | 36.909 | 11.763 | 32.201 | 2 |
| 2025-05-08T16:18:00 | 54.931982 | 7.726044 | 2.0 | 11.620 | 2 | 36.948 | 11.822 | 32.188 | 2 |
| 2025-05-08T16:19:00 | 54.931005 | 7.728820 | 2.0 | 11.622 | 2 | 36.608 | 11.770 | 31.903 | 2 |
| 2025-05-08T16:20:00 | 54.930034 | 7.731583 | 2.0 | 11.540 | 2 | 36.849 | 11.776 | 32.131 | 2 |
| 2025-05-08T16:21:00 | 54.929061 | 7.734345 | 2.0 | 11.595 | 2 | 36.786 | 11.729 | 32.111 | 2 |
| 2025-05-08T16:22:00 | 54.928096 | 7.737101 | 2.0 | 11.682 | 2 | 36.751 | 11.766 | 32.045 | 2 |
| 2025-05-08T16:23:00 | 54.927104 | 7.739844 | 2.0 | 11.675 | 2 | 36.816 | 11.831 | 32.052 | 2 |
| 2025-05-08T16:24:00 | 54.926031 | 7.742407 | 2.0 | 11.731 | 2 | 36.754 | 11.842 | 31.982 | 2 |
| 2025-05-08T16:25:00 | 54.925008 | 7.744817 | 2.0 | 11.739 | 2 | 36.806 | 11.877 | 32.003 | 2 |
| 2025-05-08T16:26:00 | 54.923977 | 7.747088 | 2.0 | 11.803 | 2 | 36.840 | 11.905 | 32.011 | 2 |
| 2025-05-08T16:27:00 | 54.922909 | 7.749233 | 2.0 | 11.744 | 2 | 36.778 | 11.961 | 31.904 | 2 |
| 2025-05-08T16:28:00 | 54.921840 | 7.751350 | 2.0 | 11.733 | 2 | 36.364 | 11.895 | 31.560 | 2 |
| 2025-05-08T16:29:00 | 54.920793 | 7.753426 | 2.0 | 11.741 | 2 | 36.216 | 11.913 | 31.403 | 2 |
| 2025-05-08T16:30:00 | 54.919776 | 7.754780 | 2.0 | 11.676 | 2 | 36.816 | 11.902 | 31.991 | 2 |
| 2025-05-08T16:31:00 | 54.919146 | 7.754772 | 2.0 | 11.621 | 2 | 36.752 | 11.837 | 31.985 | 2 |
| 2025-05-08T16:32:00 | 54.918784 | 7.754216 | 2.0 | 11.675 | 2 | 36.693 | 11.820 | 31.942 | 2 |
| 2025-05-08T16:33:00 | 54.918518 | 7.753119 | 2.0 | 11.629 | 2 | 36.729 | 11.824 | 31.974 | 2 |
| 2025-05-08T16:34:00 | 54.918272 | 7.751891 | 2.0 | 11.651 | 2 | 36.193 | 11.804 | 31.472 | 2 |
| 2025-05-08T16:35:00 | 54.918026 | 7.750731 | 2.0 | 11.569 | 2 | 36.357 | 11.796 | 31.638 | 2 |
| 2025-05-08T16:37:00 | 54.917551 | 7.748255 | 2.0 | 11.571 | 2 | 36.512 | 11.751 | 31.826 | 2 |
| 2025-05-08T16:38:00 | 54.917320 | 7.747002 | 2.0 | 11.520 | 2 | 36.401 | 11.732 | 31.735 | 2 |
| 2025-05-08T16:39:00 | 54.917092 | 7.745760 | 2.0 | 11.509 | 2 | 36.217 | 11.693 | 31.590 | 2 |
| 2025-05-08T16:40:00 | 54.916868 | 7.744687 | 2.0 | 11.528 | 2 | 36.468 | 11.660 | 31.862 | 2 |
| 2025-05-08T16:41:00 | 54.916644 | 7.743857 | 2.0 | 11.464 | 2 | 36.562 | 11.688 | 31.929 | 2 |
| 2025-05-08T16:42:00 | 54.916411 | 7.743230 | 2.0 | 11.437 | 2 | 36.181 | 11.632 | 31.607 | 2 |
| 2025-05-08T16:44:00 | 54.915937 | 7.742489 | 2.0 | 11.333 | 2 | 36.232 | 11.596 | 31.687 | 2 |
| 2025-05-08T16:45:00 | 54.915708 | 7.742330 | 2.0 | 11.267 | 2 | 36.226 | 11.504 | 31.760 | 2 |
| 2025-05-08T16:46:00 | 54.915493 | 7.742268 | 2.0 | 11.411 | 2 | 36.134 | 11.465 | 31.704 | 2 |
| 2025-05-08T16:47:00 | 54.915304 | 7.742279 | 2.0 | 11.439 | 2 | 36.514 | 11.573 | 31.981 | 2 |
| 2025-05-08T16:48:00 | 54.915125 | 7.742310 | 2.0 | 11.414 | 2 | 36.351 | 11.606 | 31.794 | 2 |
| 2025-05-08T16:49:00 | 54.914953 | 7.742345 | 2.0 | 11.465 | 2 | 36.532 | 11.594 | 31.981 | 2 |
| 2025-05-08T16:50:00 | 54.914802 | 7.742381 | 2.0 | 11.431 | 2 | 36.571 | 11.638 | 31.981 | 2 |
| 2025-05-08T16:51:00 | 54.914689 | 7.742419 | 2.0 | 11.368 | 2 | 36.109 | 11.597 | 31.567 | 2 |
| 2025-05-08T16:52:00 | 54.914611 | 7.742451 | 2.0 | 11.237 | 2 | 36.126 | 11.506 | 31.661 | 2 |
| 2025-05-08T16:53:00 | 54.914564 | 7.742480 | 2.0 | 11.238 | 2 | 36.375 | 11.415 | 31.982 | 2 |
| 2025-05-08T16:54:00 | 54.914547 | 7.742508 | 2.0 | 11.250 | 2 | 36.350 | 11.400 | 31.971 | 2 |
| 2025-05-08T16:55:00 | 54.914534 | 7.742522 | 2.0 | 11.251 | 2 | 36.339 | 11.436 | 31.929 | 2 |
| 2025-05-08T16:56:00 | 54.914520 | 7.742499 | 2.0 | 11.285 | 2 | 36.243 | 11.455 | 31.819 | 2 |
| 2025-05-08T16:57:00 | 54.914514 | 7.742467 | 2.0 | 11.286 | 2 | 36.437 | 11.448 | 32.014 | 2 |
| 2025-05-08T16:58:00 | 54.914514 | 7.742435 | 2.0 | 11.311 | 2 | 36.391 | 11.468 | 31.952 | 2 |
| 2025-05-08T16:59:00 | 54.914585 | 7.742291 | 2.0 | 11.365 | 2 | 36.470 | 11.485 | 32.014 | 2 |
| 2025-05-08T17:00:00 | 54.914911 | 7.741822 | 2.0 | 11.399 | 2 | 36.336 | 11.535 | 31.841 | 2 |
| 2025-05-08T17:01:00 | 54.915294 | 7.741305 | 2.0 | 11.404 | 2 | 36.396 | 11.555 | 31.882 | 2 |
| 2025-05-08T17:02:00 | 54.915653 | 7.740819 | 2.0 | 11.393 | 2 | 36.412 | 11.564 | 31.890 | 2 |
| 2025-05-08T17:03:00 | 54.916010 | 7.740341 | 2.0 | 11.381 | 2 | 36.515 | 11.559 | 31.994 | 2 |
| 2025-05-08T17:04:00 | 54.916368 | 7.739850 | 2.0 | 11.375 | 2 | 36.495 | 11.546 | 31.986 | 2 |
| 2025-05-08T17:05:00 | 54.916725 | 7.739369 | 2.0 | 11.406 | 2 | 36.537 | 11.534 | 32.037 | 2 |
| 2025-05-08T17:06:00 | 54.917077 | 7.738875 | 2.0 | 11.534 | 2 | 36.578 | 11.607 | 32.014 | 2 |
| 2025-05-08T17:07:00 | 54.917399 | 7.738418 | 2.0 | 11.588 | 2 | 36.743 | 11.708 | 32.087 | 2 |
| 2025-05-08T17:08:00 | 54.917605 | 7.738113 | 2.0 | 11.554 | 2 | 36.777 | 11.759 | 32.076 | 2 |
| 2025-05-08T17:09:00 | 54.917739 | 7.737947 | 2.0 | 11.698 | 2 | 36.776 | 11.738 | 32.093 | 2 |
| 2025-05-08T17:10:00 | 54.917832 | 7.738256 | 2.0 | 11.686 | 2 | 36.877 | 11.850 | 32.095 | 2 |
| 2025-05-08T17:11:00 | 54.917791 | 7.739170 | 2.0 | 11.631 | 2 | 36.836 | 11.831 | 32.071 | 2 |
| 2025-05-08T17:12:00 | 54.917788 | 7.740450 | 2.0 | 11.599 | 2 | 36.721 | 11.796 | 31.990 | 2 |
| 2025-05-08T17:13:00 | 54.917910 | 7.742010 | 2.0 | 11.497 | 2 | 36.792 | 11.744 | 32.104 | 2 |
| 2025-05-08T17:14:00 | 54.918087 | 7.743720 | 2.0 | 11.463 | 2 | 36.707 | 11.652 | 32.101 | 2 |
| 2025-05-08T17:15:00 | 54.918253 | 7.745388 | 2.0 | 11.433 | 2 | 36.592 | 11.623 | 32.014 | 2 |
| 2025-05-08T17:16:00 | 54.918399 | 7.747010 | 2.0 | 11.415 | 2 | 36.652 | 11.599 | 32.093 | 2 |
| 2025-05-08T17:17:00 | 54.918533 | 7.748602 | 2.0 | 11.374 | 2 | 36.622 | 11.569 | 32.090 | 2 |
| 2025-05-08T17:18:00 | 54.918652 | 7.750171 | 2.0 | 11.389 | 2 | 36.608 | 11.552 | 32.091 | 2 |
| 2025-05-08T17:19:00 | 54.918769 | 7.751718 | 2.0 | 11.423 | 2 | 36.624 | 11.568 | 32.093 | 2 |
| 2025-05-08T17:20:00 | 54.918885 | 7.753253 | 2.0 | 11.348 | 2 | 36.626 | 11.584 | 32.081 | 2 |
| 2025-05-08T17:21:00 | 54.918856 | 7.754739 | 2.0 | 11.358 | 2 | 36.577 | 11.518 | 32.090 | 2 |
| 2025-05-08T17:22:00 | 54.918416 | 7.755853 | 2.0 | 11.340 | 2 | 36.551 | 11.532 | 32.053 | 2 |
| 2025-05-08T17:23:00 | 54.917890 | 7.756293 | 2.0 | 11.298 | 2 | 36.527 | 11.493 | 32.063 | 2 |
| 2025-05-08T17:24:00 | 54.917497 | 7.756380 | 2.0 | 11.350 | 2 | 36.526 | 11.480 | 32.073 | 2 |
| 2025-05-08T17:25:00 | 54.917243 | 7.755987 | 2.0 | 11.415 | 2 | 36.570 | 11.529 | 32.074 | 2 |
| 2025-05-08T17:26:00 | 54.917117 | 7.755191 | 2.0 | 11.376 | 2 | 36.626 | 11.580 | 32.084 | 2 |
| 2025-05-08T17:27:00 | 54.917139 | 7.754168 | 2.0 | 11.202 | 2 | 36.575 | 11.504 | 32.100 | 2 |
| 2025-05-08T17:28:00 | 54.917248 | 7.752877 | 2.0 | 11.318 | 2 | 36.501 | 11.416 | 32.104 | 2 |
| 2025-05-08T17:29:00 | 54.917385 | 7.751482 | 2.0 | 11.380 | 2 | 36.568 | 11.485 | 32.110 | 2 |
| 2025-05-08T17:30:00 | 54.917523 | 7.750121 | 2.0 | 11.444 | 2 | 36.646 | 11.561 | 32.120 | 2 |
| 2025-05-08T17:31:00 | 54.917650 | 7.748766 | 2.0 | 11.512 | 2 | 36.714 | 11.618 | 32.137 | 2 |
| 2025-05-08T17:32:00 | 54.917775 | 7.747428 | 2.0 | 11.522 | 2 | 36.777 | 11.671 | 32.152 | 2 |
| 2025-05-08T17:33:00 | 54.917906 | 7.746105 | 2.0 | 11.519 | 2 | 36.806 | 11.687 | 32.167 | 2 |
| 2025-05-08T17:34:00 | 54.918037 | 7.744782 | 2.0 | 11.535 | 2 | 36.823 | 11.685 | 32.185 | 2 |
| 2025-05-08T17:35:00 | 54.918174 | 7.743448 | 2.0 | 11.584 | 2 | 36.859 | 11.710 | 32.198 | 2 |
| 2025-05-08T17:36:00 | 54.918293 | 7.742112 | 2.0 | 11.542 | 2 | 36.917 | 11.747 | 32.222 | 2 |
| 2025-05-08T17:37:00 | 54.918381 | 7.740951 | 2.0 | 11.434 | 2 | 36.897 | 11.691 | 32.252 | 2 |
| 2025-05-08T17:38:00 | 54.918361 | 7.740036 | 2.0 | 11.339 | 2 | 36.814 | 11.588 | 32.260 | 2 |
| 2025-05-08T17:39:00 | 54.918421 | 7.739661 | 2.0 | 11.251 | 2 | 36.743 | 11.504 | 32.264 | 2 |
| 2025-05-08T17:40:00 | 54.918467 | 7.739794 | 2.0 | 11.245 | 2 | 36.671 | 11.426 | 32.262 | 2 |
| 2025-05-08T17:41:00 | 54.918447 | 7.740134 | 2.0 | 11.216 | 2 | 36.660 | 11.419 | 32.257 | 2 |
| 2025-05-08T17:42:00 | 54.918367 | 7.740473 | 2.0 | 11.217 | 2 | 36.633 | 11.381 | 32.264 | 2 |
| 2025-05-08T17:43:00 | 54.918215 | 7.740644 | 2.0 | 11.230 | 2 | 36.629 | 11.385 | 32.257 | 2 |
| 2025-05-08T17:44:00 | 54.918164 | 7.740508 | 2.0 | 11.178 | 2 | 36.627 | 11.391 | 32.250 | 2 |
| 2025-05-08T17:45:00 | 54.918228 | 7.740312 | 2.0 | 11.153 | 2 | 36.582 | 11.337 | 32.253 | 2 |
| 2025-05-08T17:46:00 | 54.918300 | 7.740139 | 2.0 | 11.158 | 2 | 36.572 | 11.327 | 32.252 | 2 |
| 2025-05-08T17:47:00 | 54.918349 | 7.740001 | 2.0 | 11.188 | 2 | 36.579 | 11.332 | 32.254 | 2 |
| 2025-05-08T17:48:00 | 54.918381 | 7.739900 | 2.0 | 11.205 | 2 | 36.599 | 11.362 | 32.247 | 2 |
| 2025-05-08T17:49:00 | 54.918370 | 7.739809 | 2.0 | 11.243 | 2 | 36.616 | 11.372 | 32.255 | 2 |
| 2025-05-08T17:50:00 | 54.918341 | 7.739747 | 2.0 | 11.207 | 2 | 36.622 | 11.399 | 32.238 | 2 |
| 2025-05-08T17:51:00 | 54.918300 | 7.739711 | 2.0 | 11.252 | 2 | 36.631 | 11.392 | 32.253 | 2 |
| 2025-05-08T17:52:00 | 54.918232 | 7.739675 | 2.0 | 11.221 | 2 | 36.625 | 11.406 | 32.234 | 2 |
| 2025-05-08T17:53:00 | 54.918168 | 7.739643 | 2.0 | 11.239 | 2 | 36.600 | 11.394 | 32.220 | 2 |
| 2025-05-08T17:54:00 | 54.918073 | 7.739587 | 2.0 | 11.247 | 2 | 36.648 | 11.412 | 32.252 | 2 |
| 2025-05-08T17:55:00 | 54.917992 | 7.739538 | 2.0 | 11.258 | 2 | 36.650 | 11.418 | 32.248 | 2 |
| 2025-05-08T17:56:00 | 54.917923 | 7.739494 | 2.0 | 11.269 | 2 | 36.644 | 11.431 | 32.231 | 2 |
| 2025-05-08T17:57:00 | 54.917868 | 7.739447 | 2.0 | 11.252 | 2 | 36.669 | 11.438 | 32.250 | 2 |
| 2025-05-08T17:58:00 | 54.917839 | 7.739413 | 2.0 | 11.249 | 2 | 36.659 | 11.418 | 32.257 | 2 |
| 2025-05-08T17:59:00 | 54.917816 | 7.739366 | 2.0 | 11.257 | 2 | 36.651 | 11.415 | 32.252 | 2 |
| 2025-05-08T18:00:00 | 54.917811 | 7.739322 | 2.0 | 11.245 | 2 | 36.654 | 11.426 | 32.245 | 2 |
| 2025-05-08T18:01:00 | 54.917803 | 7.739241 | 2.0 | 11.224 | 2 | 36.647 | 11.406 | 32.256 | 2 |
| 2025-05-08T18:02:00 | 54.917798 | 7.739173 | 2.0 | 11.234 | 2 | 36.639 | 11.401 | 32.253 | 2 |
| 2025-05-08T18:03:00 | 54.917789 | 7.739063 | 2.0 | 11.251 | 2 | 36.640 | 11.399 | 32.255 | 2 |
| 2025-05-08T18:04:00 | 54.917795 | 7.738973 | 2.0 | 11.255 | 2 | 36.657 | 11.421 | 32.253 | 2 |
| 2025-05-08T18:05:00 | 54.917794 | 7.738878 | 2.0 | 11.271 | 2 | 36.664 | 11.429 | 32.253 | 2 |
| 2025-05-08T18:06:00 | 54.917789 | 7.738772 | 2.0 | 11.271 | 2 | 36.670 | 11.434 | 32.254 | 2 |
| 2025-05-08T18:07:00 | 54.917795 | 7.738672 | 2.0 | 11.288 | 2 | 36.678 | 11.448 | 32.250 | 2 |
| 2025-05-08T18:08:00 | 54.917798 | 7.738567 | 2.0 | 11.298 | 2 | 36.686 | 11.457 | 32.250 | 2 |
| 2025-05-08T18:09:00 | 54.917791 | 7.738450 | 2.0 | 11.329 | 2 | 36.700 | 11.474 | 32.249 | 2 |
| 2025-05-08T18:10:00 | 54.917785 | 7.738339 | 2.0 | 11.321 | 2 | 36.717 | 11.491 | 32.250 | 2 |
| 2025-05-08T18:11:00 | 54.917791 | 7.738230 | 2.0 | 11.333 | 2 | 36.717 | 11.492 | 32.249 | 2 |
| 2025-05-08T18:12:00 | 54.917788 | 7.738149 | 2.0 | 11.325 | 2 | 36.723 | 11.498 | 32.250 | 2 |
| 2025-05-08T18:13:00 | 54.917790 | 7.738053 | 2.0 | 11.337 | 2 | 36.721 | 11.496 | 32.250 | 2 |
| 2025-05-08T18:14:00 | 54.917795 | 7.737954 | 2.0 | 11.341 | 2 | 36.726 | 11.504 | 32.248 | 2 |
| 2025-05-08T18:15:00 | 54.917796 | 7.737844 | 2.0 | 11.333 | 2 | 36.731 | 11.507 | 32.250 | 2 |
| 2025-05-08T18:16:00 | 54.917798 | 7.737728 | 2.0 | 11.340 | 2 | 36.724 | 11.503 | 32.247 | 2 |
| 2025-05-08T18:17:00 | 54.917795 | 7.737607 | 2.0 | 11.330 | 2 | 36.730 | 11.507 | 32.249 | 2 |
| 2025-05-08T18:18:00 | 54.917794 | 7.737485 | 2.0 | 11.321 | 2 | 36.726 | 11.500 | 32.251 | 2 |
| 2025-05-08T18:19:00 | 54.917805 | 7.737373 | 2.0 | 11.308 | 2 | 36.718 | 11.487 | 32.255 | 2 |
| 2025-05-08T18:20:00 | 54.917809 | 7.737257 | 2.0 | 11.338 | 2 | 36.711 | 11.481 | 32.253 | 2 |
| 2025-05-08T18:21:00 | 54.917811 | 7.737138 | 2.0 | 11.354 | 2 | 36.727 | 11.499 | 32.253 | 2 |
| 2025-05-08T18:22:00 | 54.917809 | 7.737019 | 2.0 | 11.415 | 2 | 36.758 | 11.542 | 32.246 | 2 |
| 2025-05-08T18:23:00 | 54.917800 | 7.736889 | 2.0 | 11.464 | 2 | 36.796 | 11.588 | 32.243 | 2 |
| 2025-05-08T18:24:00 | 54.917778 | 7.736766 | 2.0 | 11.459 | 2 | 36.834 | 11.631 | 32.243 | 2 |
| 2025-05-08T18:25:00 | 54.917751 | 7.736633 | 2.0 | 11.475 | 2 | 36.838 | 11.632 | 32.246 | 2 |
| 2025-05-08T18:26:00 | 54.917735 | 7.736512 | 2.0 | 11.477 | 2 | 36.845 | 11.641 | 32.245 | 2 |
| 2025-05-08T18:27:00 | 54.917785 | 7.736330 | 2.0 | 11.481 | 2 | 36.849 | 11.644 | 32.246 | 2 |
| 2025-05-08T18:28:00 | 54.917975 | 7.736000 | 2.0 | 11.558 | 2 | 36.859 | 11.662 | 32.240 | 2 |
| 2025-05-08T18:29:00 | 54.918279 | 7.735569 | 2.0 | 11.623 | 2 | 36.915 | 11.730 | 32.235 | 2 |
| 2025-05-08T18:30:00 | 54.918705 | 7.735086 | 2.0 | 11.635 | 2 | 36.957 | 11.782 | 32.231 | 2 |
| 2025-05-08T18:31:00 | 54.919304 | 7.734523 | 2.0 | 11.701 | 2 | 36.988 | 11.817 | 32.231 | 2 |
| 2025-05-08T18:32:00 | 54.919989 | 7.733865 | 2.0 | 11.712 | 2 | 37.023 | 11.863 | 32.225 | 2 |
| 2025-05-08T18:33:00 | 54.920671 | 7.733111 | 2.0 | 11.711 | 2 | 37.036 | 11.876 | 32.226 | 2 |
| 2025-05-08T18:34:00 | 54.921339 | 7.732276 | 2.0 | 11.704 | 2 | 37.033 | 11.875 | 32.224 | 2 |
| 2025-05-08T18:35:00 | 54.921995 | 7.731434 | 2.0 | 11.686 | 2 | 37.023 | 11.867 | 32.221 | 2 |
| 2025-05-08T18:36:00 | 54.922598 | 7.730669 | 2.0 | 11.662 | 2 | 37.000 | 11.848 | 32.215 | 2 |
| 2025-05-08T18:37:00 | 54.923043 | 7.730138 | 2.0 | 11.651 | 2 | 36.969 | 11.829 | 32.202 | 2 |
| 2025-05-08T18:38:00 | 54.923345 | 7.730223 | 2.0 | 11.649 | 2 | 36.956 | 11.818 | 32.199 | 2 |
| 2025-05-08T18:39:00 | 54.923369 | 7.730802 | 2.0 | 11.665 | 2 | 36.928 | 11.820 | 32.170 | 2 |
| 2025-05-08T18:40:00 | 54.923132 | 7.731510 | 2.0 | 11.674 | 2 | 36.951 | 11.833 | 32.181 | 2 |
| 2025-05-08T18:41:00 | 54.922762 | 7.732301 | 2.0 | 11.684 | 2 | 36.978 | 11.844 | 32.198 | 2 |
| 2025-05-08T18:42:00 | 54.922346 | 7.733191 | 2.0 | 11.690 | 2 | 36.988 | 11.853 | 32.199 | 2 |
| 2025-05-08T18:43:00 | 54.921900 | 7.734164 | 2.0 | 11.687 | 2 | 36.974 | 11.856 | 32.183 | 2 |
| 2025-05-08T18:44:00 | 54.921435 | 7.735194 | 2.0 | 11.677 | 2 | 36.980 | 11.851 | 32.193 | 2 |
| 2025-05-08T18:45:00 | 54.920955 | 7.736274 | 2.0 | 11.689 | 2 | 36.994 | 11.848 | 32.210 | 2 |
| 2025-05-08T18:46:00 | 54.920510 | 7.737401 | 2.0 | 11.684 | 2 | 37.001 | 11.855 | 32.210 | 2 |
| 2025-05-08T18:47:00 | 54.920159 | 7.738517 | 2.0 | 11.682 | 2 | 37.002 | 11.853 | 32.213 | 2 |
| 2025-05-08T18:48:00 | 54.919781 | 7.739596 | 2.0 | 11.654 | 2 | 36.998 | 11.846 | 32.215 | 2 |
| 2025-05-08T18:49:00 | 54.919404 | 7.740681 | 2.0 | 11.666 | 2 | 36.983 | 11.820 | 32.223 | 2 |
| 2025-05-08T18:50:00 | 54.919109 | 7.741750 | 2.0 | 11.691 | 2 | 36.994 | 11.839 | 32.217 | 2 |
| 2025-05-08T18:51:00 | 54.918802 | 7.742788 | 2.0 | 11.710 | 2 | 37.016 | 11.864 | 32.217 | 2 |
| 2025-05-08T18:52:00 | 54.918495 | 7.743842 | 2.0 | 11.693 | 2 | 37.027 | 11.871 | 32.222 | 2 |
| 2025-05-08T18:53:00 | 54.918278 | 7.744861 | 2.0 | 11.675 | 2 | 37.020 | 11.863 | 32.222 | 2 |
| 2025-05-08T18:54:00 | 54.918094 | 7.745857 | 2.0 | 11.639 | 2 | 37.000 | 11.838 | 32.224 | 2 |
| 2025-05-08T18:55:00 | 54.917921 | 7.746859 | 2.0 | 11.610 | 2 | 36.972 | 11.804 | 32.226 | 2 |
| 2025-05-08T18:56:00 | 54.917756 | 7.747862 | 2.0 | 11.578 | 2 | 36.945 | 11.772 | 32.228 | 2 |
| 2025-05-08T18:57:00 | 54.917587 | 7.748875 | 2.0 | 11.564 | 2 | 36.918 | 11.746 | 32.224 | 2 |
| 2025-05-08T18:58:00 | 54.917422 | 7.749869 | 2.0 | 11.566 | 2 | 36.908 | 11.736 | 32.223 | 2 |
| 2025-05-08T18:59:00 | 54.917303 | 7.750664 | 2.0 | 11.555 | 2 | 36.900 | 11.732 | 32.219 | 2 |
| 2025-05-08T19:00:00 | 54.917214 | 7.751290 | 2.0 | 11.551 | 2 | 36.890 | 11.722 | 32.218 | 2 |
| 2025-05-08T19:01:00 | 54.917134 | 7.751854 | 2.0 | 11.555 | 2 | 36.888 | 11.723 | 32.215 | 2 |
| 2025-05-08T19:02:00 | 54.917060 | 7.752380 | 2.0 | 11.542 | 2 | 36.887 | 11.721 | 32.216 | 2 |
| 2025-05-08T19:03:00 | 54.917029 | 7.752816 | 2.0 | 11.540 | 2 | 36.879 | 11.709 | 32.219 | 2 |
| 2025-05-08T19:04:00 | 54.917023 | 7.753043 | 2.0 | 11.537 | 2 | 36.878 | 11.710 | 32.217 | 2 |
| 2025-05-08T19:05:00 | 54.917035 | 7.753002 | 2.0 | 11.544 | 2 | 36.875 | 11.706 | 32.217 | 2 |
| 2025-05-08T19:06:00 | 54.917118 | 7.752792 | 2.0 | 11.553 | 2 | 36.879 | 11.712 | 32.216 | 2 |
| 2025-05-08T19:07:00 | 54.917211 | 7.752513 | 2.0 | 11.555 | 2 | 36.885 | 11.725 | 32.210 | 2 |
| 2025-05-08T19:08:00 | 54.917309 | 7.752237 | 2.0 | 11.554 | 2 | 36.885 | 11.722 | 32.213 | 2 |
| 2025-05-08T19:09:00 | 54.917395 | 7.751951 | 2.0 | 11.572 | 2 | 36.887 | 11.726 | 32.212 | 2 |
| 2025-05-08T19:10:00 | 54.917481 | 7.751688 | 2.0 | 11.566 | 2 | 36.895 | 11.739 | 32.208 | 2 |
| 2025-05-08T19:11:00 | 54.917541 | 7.751411 | 2.0 | 11.587 | 2 | 36.896 | 11.737 | 32.211 | 2 |
| 2025-05-08T19:12:00 | 54.917600 | 7.751159 | 2.0 | 11.587 | 2 | 36.908 | 11.754 | 32.208 | 2 |
| 2025-05-08T19:13:00 | 54.917658 | 7.750910 | 2.0 | 11.605 | 2 | 36.914 | 11.757 | 32.211 | 2 |
| 2025-05-08T19:14:00 | 54.917713 | 7.750664 | 2.0 | 11.620 | 2 | 36.927 | 11.773 | 32.210 | 2 |
| 2025-05-08T19:15:00 | 54.917773 | 7.750421 | 2.0 | 11.629 | 2 | 36.940 | 11.788 | 32.209 | 2 |
| 2025-05-08T19:16:00 | 54.917833 | 7.750177 | 2.0 | 11.650 | 2 | 36.948 | 11.799 | 32.207 | 2 |
| 2025-05-08T19:17:00 | 54.917895 | 7.749936 | 2.0 | 11.661 | 2 | 36.961 | 11.818 | 32.204 | 2 |
| 2025-05-08T19:18:00 | 54.917944 | 7.749698 | 2.0 | 11.675 | 2 | 36.968 | 11.828 | 32.202 | 2 |
| 2025-05-08T19:19:00 | 54.917994 | 7.749455 | 2.0 | 11.683 | 2 | 36.977 | 11.842 | 32.198 | 2 |
| 2025-05-08T19:20:00 | 54.918047 | 7.749205 | 2.0 | 11.691 | 2 | 36.981 | 11.849 | 32.196 | 2 |
| 2025-05-08T19:21:00 | 54.918107 | 7.748946 | 2.0 | 11.692 | 2 | 36.982 | 11.856 | 32.191 | 2 |
| 2025-05-08T19:22:00 | 54.918160 | 7.748681 | 2.0 | 11.694 | 2 | 36.982 | 11.861 | 32.187 | 2 |
| 2025-05-08T19:23:00 | 54.918195 | 7.748431 | 2.0 | 11.693 | 2 | 36.984 | 11.860 | 32.190 | 2 |
| 2025-05-08T19:24:00 | 54.918236 | 7.748206 | 2.0 | 11.700 | 2 | 36.987 | 11.859 | 32.193 | 2 |
| 2025-05-08T19:25:00 | 54.918267 | 7.747948 | 2.0 | 11.709 | 2 | 36.992 | 11.868 | 32.190 | 2 |
| 2025-05-08T19:26:00 | 54.918321 | 7.747642 | 2.0 | 11.729 | 2 | 37.000 | 11.880 | 32.188 | 2 |
| 2025-05-08T19:27:00 | 54.918399 | 7.747298 | 2.0 | 11.735 | 2 | 37.012 | 11.896 | 32.186 | 2 |
| 2025-05-08T19:28:00 | 54.918495 | 7.746920 | 2.0 | 11.735 | 2 | 37.018 | 11.899 | 32.189 | 2 |
| 2025-05-08T19:29:00 | 54.918600 | 7.746497 | 2.0 | 11.744 | 2 | 37.022 | 11.905 | 32.187 | 2 |
| 2025-05-08T19:30:00 | 54.918720 | 7.746043 | 2.0 | 11.746 | 2 | 37.026 | 11.909 | 32.188 | 2 |
| 2025-05-08T19:31:00 | 54.919046 | 7.745232 | 2.0 | 11.758 | 2 | 37.026 | 11.910 | 32.187 | 2 |
| 2025-05-08T19:32:00 | 54.919564 | 7.744136 | 2.0 | 11.778 | 2 | 37.037 | 11.930 | 32.180 | 2 |
| 2025-05-08T19:33:00 | 54.920034 | 7.743117 | 2.0 | 11.778 | 2 | 37.048 | 11.945 | 32.178 | 2 |
| 2025-05-08T19:34:00 | 54.920509 | 7.742084 | 2.0 | 11.731 | 2 | 37.038 | 11.939 | 32.174 | 2 |
| 2025-05-08T19:35:00 | 54.921018 | 7.740995 | 2.0 | 11.634 | 2 | 36.983 | 11.874 | 32.176 | 2 |
| 2025-05-08T19:36:00 | 54.921493 | 7.739968 | 2.0 | 11.611 | 2 | 36.921 | 11.803 | 32.178 | 2 |
| 2025-05-08T19:37:00 | 54.921855 | 7.739121 | 2.0 | 11.604 | 2 | 36.899 | 11.780 | 32.176 | 2 |
| 2025-05-08T19:38:00 | 54.922123 | 7.738420 | 2.0 | 11.587 | 2 | 36.892 | 11.772 | 32.177 | 2 |
| 2025-05-08T19:39:00 | 54.922308 | 7.737844 | 2.0 | 11.580 | 2 | 36.883 | 11.756 | 32.182 | 2 |
| 2025-05-08T19:40:00 | 54.922440 | 7.737427 | 2.0 | 11.576 | 2 | 36.877 | 11.749 | 32.182 | 2 |
| 2025-05-08T19:41:00 | 54.922528 | 7.737367 | 2.0 | 11.574 | 2 | 36.874 | 11.744 | 32.183 | 2 |
| 2025-05-08T19:42:00 | 54.922511 | 7.737620 | 2.0 | 11.569 | 2 | 36.870 | 11.742 | 32.181 | 2 |
| 2025-05-08T19:43:00 | 54.922367 | 7.738108 | 2.0 | 11.570 | 2 | 36.865 | 11.738 | 32.180 | 2 |
| 2025-05-08T19:44:00 | 54.922124 | 7.738771 | 2.0 | 11.575 | 2 | 36.867 | 11.740 | 32.180 | 2 |
| 2025-05-08T19:45:00 | 54.921881 | 7.739554 | 2.0 | 11.586 | 2 | 36.870 | 11.745 | 32.179 | 2 |
| 2025-05-08T19:46:00 | 54.921616 | 7.740437 | 2.0 | 11.595 | 2 | 36.878 | 11.756 | 32.177 | 2 |
| 2025-05-08T19:47:00 | 54.921349 | 7.741391 | 2.0 | 11.598 | 2 | 36.886 | 11.764 | 32.178 | 2 |
| 2025-05-08T19:48:00 | 54.921078 | 7.742415 | 2.0 | 11.602 | 2 | 36.889 | 11.765 | 32.180 | 2 |
| 2025-05-08T19:49:00 | 54.920794 | 7.743481 | 2.0 | 11.627 | 2 | 36.892 | 11.773 | 32.176 | 2 |
| 2025-05-08T19:50:00 | 54.920430 | 7.744564 | 2.0 | 11.718 | 2 | 36.916 | 11.810 | 32.167 | 2 |
| 2025-05-08T19:51:00 | 54.920057 | 7.745687 | 2.0 | 11.781 | 2 | 36.986 | 11.893 | 32.163 | 2 |
| 2025-05-08T19:52:00 | 54.919661 | 7.746832 | 2.0 | 11.780 | 2 | 37.038 | 11.944 | 32.169 | 2 |
| 2025-05-08T19:53:00 | 54.919280 | 7.748009 | 2.0 | 11.751 | 2 | 37.041 | 11.942 | 32.174 | 2 |
| 2025-05-08T19:54:00 | 54.918884 | 7.749205 | 2.0 | 11.721 | 2 | 37.018 | 11.912 | 32.178 | 2 |
| 2025-05-08T19:55:00 | 54.918496 | 7.750421 | 2.0 | 11.712 | 2 | 36.994 | 11.887 | 32.176 | 2 |
| 2025-05-08T19:56:00 | 54.918141 | 7.751585 | 2.0 | 11.710 | 2 | 36.981 | 11.880 | 32.169 | 2 |
| 2025-05-08T19:57:00 | 54.917858 | 7.752624 | 2.0 | 11.702 | 2 | 36.975 | 11.876 | 32.167 | 2 |
| 2025-05-08T19:58:00 | 54.917669 | 7.753510 | 2.0 | 11.693 | 2 | 36.967 | 11.867 | 32.167 | 2 |
| 2025-05-08T19:59:00 | 54.917575 | 7.754313 | 2.0 | 11.688 | 2 | 36.952 | 11.860 | 32.159 | 2 |
| 2025-05-08T20:00:00 | 54.917336 | 7.755148 | 2.0 | 11.669 | 2 | 36.938 | 11.850 | 32.154 | 2 |
| 2025-05-08T20:01:00 | 54.916940 | 7.755411 | 2.0 | 11.669 | 2 | 36.925 | 11.837 | 32.152 | 2 |
| 2025-05-08T20:02:00 | 54.916680 | 7.755298 | 2.0 | 11.659 | 2 | 36.929 | 11.830 | 32.162 | 2 |
| 2025-05-08T20:03:00 | 54.916559 | 7.755097 | 2.0 | 11.669 | 2 | 36.930 | 11.828 | 32.165 | 2 |
| 2025-05-08T20:04:00 | 54.916555 | 7.754789 | 2.0 | 11.673 | 2 | 36.937 | 11.837 | 32.164 | 2 |
| 2025-05-08T20:05:00 | 54.916628 | 7.754408 | 2.0 | 11.667 | 2 | 36.946 | 11.839 | 32.171 | 2 |
| 2025-05-08T20:06:00 | 54.916731 | 7.753990 | 2.0 | 11.690 | 2 | 36.950 | 11.841 | 32.173 | 2 |
| 2025-05-08T20:07:00 | 54.916846 | 7.753565 | 2.0 | 11.689 | 2 | 36.962 | 11.857 | 32.171 | 2 |
| 2025-05-08T20:08:00 | 54.916963 | 7.753141 | 2.0 | 11.682 | 2 | 36.962 | 11.854 | 32.173 | 2 |
| 2025-05-08T20:09:00 | 54.917086 | 7.752723 | 2.0 | 11.656 | 2 | 36.959 | 11.842 | 32.181 | 2 |
| 2025-05-08T20:10:00 | 54.917201 | 7.752307 | 2.0 | 11.671 | 2 | 36.953 | 11.827 | 32.188 | 2 |
| 2025-05-08T20:11:00 | 54.917307 | 7.751901 | 2.0 | 11.695 | 2 | 36.964 | 11.846 | 32.182 | 2 |
| 2025-05-08T20:12:00 | 54.917406 | 7.751497 | 2.0 | 11.703 | 2 | 36.978 | 11.864 | 32.180 | 2 |
| 2025-05-08T20:13:00 | 54.917507 | 7.751101 | 2.0 | 11.682 | 2 | 36.981 | 11.866 | 32.181 | 2 |
| 2025-05-08T20:14:00 | 54.917600 | 7.750704 | 2.0 | 11.681 | 2 | 36.970 | 11.844 | 32.190 | 2 |
| 2025-05-08T20:15:00 | 54.917691 | 7.750311 | 2.0 | 11.698 | 2 | 36.972 | 11.851 | 32.186 | 2 |
| 2025-05-08T20:16:00 | 54.917775 | 7.749920 | 2.0 | 11.686 | 2 | 36.985 | 11.866 | 32.185 | 2 |
| 2025-05-08T20:17:00 | 54.917857 | 7.749536 | 2.0 | 11.656 | 2 | 36.972 | 11.843 | 32.193 | 2 |
| 2025-05-08T20:18:00 | 54.917928 | 7.749155 | 2.0 | 11.691 | 2 | 36.960 | 11.831 | 32.191 | 2 |
| 2025-05-08T20:19:00 | 54.917989 | 7.748776 | 2.0 | 11.677 | 2 | 36.974 | 11.853 | 32.186 | 2 |
| 2025-05-08T20:20:00 | 54.918043 | 7.748402 | 2.0 | 11.584 | 2 | 36.830 | 11.818 | 32.077 | 2 |
| 2025-05-08T20:21:00 | 54.918094 | 7.748030 | 2.0 | 11.574 | 2 | 36.756 | 11.753 | 32.061 | 2 |
| 2025-05-08T20:22:00 | 54.918133 | 7.747648 | 2.0 | 11.590 | 2 | 36.756 | 11.748 | 32.065 | 2 |
| 2025-05-08T20:23:00 | 54.918171 | 7.747280 | 2.0 | 11.562 | 2 | 36.756 | 11.753 | 32.061 | 2 |
| 2025-05-08T20:24:00 | 54.918225 | 7.746932 | 2.0 | 11.553 | 2 | 36.811 | 11.732 | 32.133 | 2 |
| 2025-05-08T20:25:00 | 54.918263 | 7.746567 | 2.0 | 11.549 | 2 | 36.716 | 11.720 | 32.051 | 2 |
| 2025-05-08T20:26:00 | 54.918301 | 7.746212 | 2.0 | 11.554 | 2 | 36.816 | 11.721 | 32.147 | 2 |
| 2025-05-08T20:27:00 | 54.918335 | 7.745854 | 2.0 | 11.552 | 2 | 36.744 | 11.723 | 32.075 | 2 |
| 2025-05-08T20:28:00 | 54.918365 | 7.745484 | 2.0 | 11.550 | 2 | 36.822 | 11.721 | 32.153 | 2 |
| 2025-05-08T20:29:00 | 54.918399 | 7.745112 | 2.0 | 11.536 | 2 | 36.804 | 11.716 | 32.140 | 2 |
| 2025-05-08T20:30:00 | 54.918487 | 7.744671 | 2.0 | 11.535 | 2 | 36.791 | 11.705 | 32.137 | 2 |
| 2025-05-08T20:31:00 | 54.918711 | 7.744019 | 2.0 | 11.532 | 2 | 36.823 | 11.701 | 32.171 | 2 |
| 2025-05-08T20:32:00 | 54.919231 | 7.742934 | 2.0 | 11.538 | 2 | 36.819 | 11.703 | 32.165 | 2 |
| 2025-05-08T20:33:00 | 54.919767 | 7.741874 | 2.0 | 11.539 | 2 | 36.836 | 11.705 | 32.180 | 2 |
| 2025-05-08T20:34:00 | 54.920282 | 7.740830 | 2.0 | 11.536 | 2 | 36.830 | 11.707 | 32.173 | 2 |
| 2025-05-08T20:35:00 | 54.920799 | 7.739787 | 2.0 | 11.528 | 2 | 36.816 | 11.703 | 32.163 | 2 |
| 2025-05-08T20:36:00 | 54.921316 | 7.738747 | 2.0 | 11.522 | 2 | 36.832 | 11.696 | 32.184 | 2 |
| 2025-05-08T20:37:00 | 54.921773 | 7.737770 | 2.0 | 11.520 | 2 | 36.825 | 11.690 | 32.183 | 2 |
| 2025-05-08T20:38:00 | 54.922135 | 7.736957 | 2.0 | 11.525 | 2 | 36.811 | 11.690 | 32.169 | 2 |
| 2025-05-08T20:39:00 | 54.922381 | 7.736286 | 2.0 | 11.526 | 2 | 36.809 | 11.691 | 32.166 | 2 |
| 2025-05-08T20:40:00 | 54.922531 | 7.735744 | 2.0 | 11.536 | 2 | 36.804 | 11.699 | 32.154 | 2 |
| 2025-05-08T20:41:00 | 54.922601 | 7.735285 | 2.0 | 11.539 | 2 | 36.808 | 11.704 | 32.154 | 2 |
| 2025-05-08T20:42:00 | 54.922647 | 7.734884 | 2.0 | 11.547 | 2 | 36.808 | 11.708 | 32.150 | 2 |
| 2025-05-08T20:43:00 | 54.922711 | 7.734656 | 2.0 | 11.545 | 2 | 36.816 | 11.715 | 32.152 | 2 |
| 2025-05-08T20:44:00 | 54.922741 | 7.734682 | 2.0 | 11.542 | 2 | 36.798 | 11.712 | 32.137 | 2 |
| 2025-05-08T20:45:00 | 54.922682 | 7.734998 | 2.0 | 11.537 | 2 | 36.804 | 11.709 | 32.146 | 2 |
| 2025-05-08T20:46:00 | 54.922545 | 7.735557 | 2.0 | 11.528 | 2 | 36.799 | 11.704 | 32.145 | 2 |
| 2025-05-08T20:47:00 | 54.922425 | 7.736274 | 2.0 | 11.515 | 2 | 36.802 | 11.695 | 32.156 | 2 |
| 2025-05-08T20:48:00 | 54.922292 | 7.737135 | 2.0 | 11.501 | 2 | 36.796 | 11.682 | 32.161 | 2 |
| 2025-05-08T20:49:00 | 54.922113 | 7.738057 | 2.0 | 11.495 | 2 | 36.792 | 11.670 | 32.168 | 2 |
| 2025-05-08T20:50:00 | 54.921889 | 7.738996 | 2.0 | 11.489 | 2 | 36.789 | 11.662 | 32.172 | 2 |
| 2025-05-08T20:51:00 | 54.921647 | 7.739937 | 2.0 | 11.493 | 2 | 36.791 | 11.660 | 32.176 | 2 |
| 2025-05-08T20:52:00 | 54.921410 | 7.740871 | 2.0 | 11.491 | 2 | 36.793 | 11.659 | 32.178 | 2 |
| 2025-05-08T20:53:00 | 54.921140 | 7.741776 | 2.0 | 11.495 | 2 | 36.799 | 11.662 | 32.182 | 2 |
| 2025-05-08T20:54:00 | 54.920869 | 7.742678 | 2.0 | 11.499 | 2 | 36.806 | 11.664 | 32.187 | 2 |
| 2025-05-08T20:55:00 | 54.920599 | 7.743583 | 2.0 | 11.496 | 2 | 36.813 | 11.668 | 32.190 | 2 |
| 2025-05-08T20:56:00 | 54.920323 | 7.744489 | 2.0 | 11.497 | 2 | 36.813 | 11.664 | 32.193 | 2 |
| 2025-05-08T20:57:00 | 54.920053 | 7.745404 | 2.0 | 11.506 | 2 | 36.807 | 11.667 | 32.185 | 2 |
| 2025-05-08T20:58:00 | 54.919786 | 7.746314 | 2.0 | 11.508 | 2 | 36.817 | 11.675 | 32.188 | 2 |
| 2025-05-08T20:59:00 | 54.919530 | 7.747221 | 2.0 | 11.507 | 2 | 36.824 | 11.675 | 32.195 | 2 |
| 2025-05-08T21:00:00 | 54.919269 | 7.748131 | 2.0 | 11.525 | 2 | 36.822 | 11.678 | 32.190 | 2 |
| 2025-05-08T21:01:00 | 54.919008 | 7.749045 | 2.0 | 11.582 | 2 | 36.834 | 11.706 | 32.177 | 2 |
| 2025-05-08T21:02:00 | 54.918756 | 7.749954 | 2.0 | 11.637 | 2 | 36.875 | 11.753 | 32.177 | 2 |
| 2025-05-08T21:03:00 | 54.918497 | 7.750850 | 2.0 | 11.663 | 2 | 36.923 | 11.810 | 32.174 | 2 |
| 2025-05-08T21:04:00 | 54.918254 | 7.751747 | 2.0 | 11.659 | 2 | 36.946 | 11.823 | 32.185 | 2 |
| 2025-05-08T21:05:00 | 54.918006 | 7.752627 | 2.0 | 11.618 | 2 | 36.942 | 11.819 | 32.184 | 2 |
| 2025-05-08T21:06:00 | 54.917771 | 7.753510 | 2.0 | 11.615 | 2 | 36.916 | 11.784 | 32.189 | 2 |
| 2025-05-08T21:07:00 | 54.917522 | 7.754386 | 2.0 | 11.617 | 2 | 36.904 | 11.785 | 32.177 | 2 |
| 2025-05-08T21:08:00 | 54.917288 | 7.755256 | 2.0 | 11.620 | 2 | 36.900 | 11.783 | 32.175 | 2 |
| 2025-05-08T21:09:00 | 54.916922 | 7.755608 | 2.0 | 11.579 | 2 | 36.898 | 11.785 | 32.171 | 2 |
| 2025-05-08T21:10:00 | 54.916704 | 7.755469 | 2.0 | 11.560 | 2 | 36.885 | 11.738 | 32.199 | 2 |
| 2025-05-08T21:11:00 | 54.916579 | 7.755277 | 2.0 | 11.564 | 2 | 36.878 | 11.730 | 32.199 | 2 |
| 2025-05-08T21:12:00 | 54.916487 | 7.755033 | 2.0 | 11.560 | 2 | 36.877 | 11.731 | 32.198 | 2 |
| 2025-05-08T21:13:00 | 54.916419 | 7.754753 | 2.0 | 11.556 | 2 | 36.876 | 11.728 | 32.199 | 2 |
| 2025-05-08T21:14:00 | 54.916374 | 7.754435 | 2.0 | 11.562 | 2 | 36.878 | 11.725 | 32.204 | 2 |
| 2025-05-08T21:15:00 | 54.916356 | 7.754085 | 2.0 | 11.575 | 2 | 36.886 | 11.731 | 32.206 | 2 |
| 2025-05-08T21:16:00 | 54.916353 | 7.753718 | 2.0 | 11.585 | 2 | 36.897 | 11.745 | 32.205 | 2 |
| 2025-05-08T21:17:00 | 54.916356 | 7.753350 | 2.0 | 11.592 | 2 | 36.904 | 11.753 | 32.205 | 2 |
| 2025-05-08T21:18:00 | 54.916378 | 7.752970 | 2.0 | 11.596 | 2 | 36.908 | 11.760 | 32.202 | 2 |
| 2025-05-08T21:19:00 | 54.916417 | 7.752578 | 2.0 | 11.597 | 2 | 36.910 | 11.764 | 32.201 | 2 |
| 2025-05-08T21:20:00 | 54.916477 | 7.752171 | 2.0 | 11.599 | 2 | 36.912 | 11.765 | 32.202 | 2 |
| 2025-05-08T21:21:00 | 54.916552 | 7.751737 | 2.0 | 11.597 | 2 | 36.914 | 11.765 | 32.204 | 2 |
| 2025-05-08T21:22:00 | 54.916639 | 7.751279 | 2.0 | 11.591 | 2 | 36.913 | 11.762 | 32.206 | 2 |
| 2025-05-08T21:23:00 | 54.916735 | 7.750798 | 2.0 | 11.604 | 2 | 36.912 | 11.761 | 32.205 | 2 |
| 2025-05-08T21:24:00 | 54.916832 | 7.750298 | 2.0 | 11.591 | 2 | 36.915 | 11.766 | 32.204 | 2 |
| 2025-05-08T21:25:00 | 54.916920 | 7.749790 | 2.0 | 11.602 | 2 | 36.911 | 11.762 | 32.204 | 2 |
| 2025-05-08T21:26:00 | 54.917005 | 7.749287 | 2.0 | 11.608 | 2 | 36.913 | 11.770 | 32.199 | 2 |
| 2025-05-08T21:27:00 | 54.917099 | 7.748784 | 2.0 | 11.598 | 2 | 36.914 | 11.773 | 32.197 | 2 |
| 2025-05-08T21:28:00 | 54.917206 | 7.748280 | 2.0 | 11.585 | 2 | 36.906 | 11.764 | 32.197 | 2 |
| 2025-05-08T21:29:00 | 54.917334 | 7.747750 | 2.0 | 11.538 | 2 | 36.891 | 11.740 | 32.203 | 2 |
| 2025-05-08T21:30:00 | 54.917617 | 7.746977 | 2.0 | 11.519 | 2 | 36.865 | 11.705 | 32.208 | 2 |
| 2025-05-08T21:31:00 | 54.918046 | 7.746047 | 2.0 | 11.498 | 2 | 36.823 | 11.685 | 32.185 | 2 |
| 2025-05-08T21:32:00 | 54.918481 | 7.745099 | 2.0 | 11.487 | 2 | 36.787 | 11.665 | 32.167 | 2 |
| 2025-05-08T21:33:00 | 54.918928 | 7.744101 | 2.0 | 11.480 | 2 | 36.781 | 11.655 | 32.170 | 2 |
| 2025-05-08T21:34:00 | 54.919412 | 7.743055 | 2.0 | 11.476 | 2 | 36.769 | 11.647 | 32.165 | 2 |
| 2025-05-08T21:35:00 | 54.919901 | 7.741991 | 2.0 | 11.484 | 2 | 36.754 | 11.646 | 32.152 | 2 |
| 2025-05-08T21:36:00 | 54.920321 | 7.741052 | 2.0 | 11.491 | 2 | 36.775 | 11.654 | 32.165 | 2 |
| 2025-05-08T21:37:00 | 54.920644 | 7.740245 | 2.0 | 11.495 | 2 | 36.812 | 11.660 | 32.196 | 2 |
| 2025-05-08T21:38:00 | 54.920887 | 7.739572 | 2.0 | 11.497 | 2 | 36.822 | 11.664 | 32.202 | 2 |
| 2025-05-08T21:39:00 | 54.921056 | 7.738995 | 2.0 | 11.497 | 2 | 36.828 | 11.666 | 32.206 | 2 |
| 2025-05-08T21:40:00 | 54.921149 | 7.738496 | 2.0 | 11.495 | 2 | 36.827 | 11.665 | 32.206 | 2 |
| 2025-05-08T21:41:00 | 54.921182 | 7.738054 | 2.0 | 11.493 | 2 | 36.835 | 11.664 | 32.215 | 2 |
| 2025-05-08T21:42:00 | 54.921177 | 7.737625 | 2.0 | 11.493 | 2 | 36.826 | 11.661 | 32.209 | 2 |
| 2025-05-08T21:43:00 | 54.921191 | 7.737146 | 2.0 | 11.493 | 2 | 36.842 | 11.661 | 32.224 | 2 |
| 2025-05-08T21:44:00 | 54.921302 | 7.736724 | 2.0 | 11.496 | 2 | 36.838 | 11.662 | 32.219 | 2 |
| 2025-05-08T21:45:00 | 54.921470 | 7.736583 | 2.0 | 11.492 | 2 | 36.836 | 11.664 | 32.216 | 2 |
| 2025-05-08T21:46:00 | 54.921537 | 7.736789 | 2.0 | 11.412 | 2 | 36.833 | 11.637 | 32.236 | 2 |
| 2025-05-08T21:47:00 | 54.921304 | 7.737138 | 2.0 | 11.468 | 2 | 36.795 | 11.572 | 32.256 | 2 |
| 2025-05-08T21:48:00 | 54.920785 | 7.737567 | 2.0 | 11.481 | 2 | 36.830 | 11.635 | 32.235 | 2 |
| 2025-05-08T21:49:00 | 54.920102 | 7.738143 | 2.0 | 11.473 | 2 | 36.850 | 11.647 | 32.244 | 2 |
| 2025-05-08T21:50:00 | 54.919303 | 7.738854 | 2.0 | 11.478 | 2 | 36.853 | 11.641 | 32.252 | 2 |
| 2025-05-08T21:51:00 | 54.918296 | 7.739767 | 2.0 | 11.473 | 2 | 36.861 | 11.644 | 32.258 | 2 |
| 2025-05-08T21:52:00 | 54.917100 | 7.740729 | 2.0 | 11.458 | 2 | 36.861 | 11.640 | 32.261 | 2 |
| 2025-05-08T21:53:00 | 54.915790 | 7.741773 | 2.0 | 11.443 | 2 | 36.852 | 11.625 | 32.265 | 2 |
| 2025-05-08T21:54:00 | 54.914281 | 7.742737 | 2.0 | 11.405 | 2 | 36.833 | 11.605 | 32.264 | 2 |
| 2025-05-08T21:55:00 | 54.912591 | 7.743541 | 2.0 | 11.365 | 2 | 36.807 | 11.566 | 32.273 | 2 |
| 2025-05-08T21:56:00 | 54.910815 | 7.744497 | 2.0 | 11.336 | 2 | 36.781 | 11.534 | 32.275 | 2 |
| 2025-05-08T21:57:00 | 54.908999 | 7.745542 | 2.0 | 11.317 | 2 | 36.749 | 11.493 | 32.280 | 2 |
| 2025-05-08T21:58:00 | 54.907145 | 7.746542 | 2.0 | 11.312 | 2 | 36.744 | 11.490 | 32.278 | 2 |
| 2025-05-08T21:59:00 | 54.905265 | 7.747515 | 2.0 | 11.244 | 2 | 36.736 | 11.465 | 32.292 | 2 |
| 2025-05-08T22:00:00 | 54.903374 | 7.748528 | 2.0 | 11.134 | 2 | 36.695 | 11.409 | 32.300 | 2 |
| 2025-05-08T22:01:00 | 54.901488 | 7.749612 | 2.0 | 10.717 | 2 | 36.069 | 11.192 | 31.875 | 2 |
| 2025-05-08T22:02:00 | 54.899608 | 7.750541 | 2.0 | 10.743 | 2 | 36.219 | 10.923 | 32.258 | 2 |
| 2025-05-08T22:03:00 | 54.897697 | 7.751104 | 2.0 | 10.791 | 2 | 36.187 | 10.932 | 32.218 | 2 |
| 2025-05-08T22:04:00 | 54.895815 | 7.751835 | 2.0 | 10.811 | 2 | 36.201 | 10.971 | 32.198 | 2 |
| 2025-05-08T22:05:00 | 54.893942 | 7.752691 | 2.0 | 10.811 | 2 | 36.203 | 10.986 | 32.187 | 2 |
| 2025-05-08T22:06:00 | 54.892060 | 7.753470 | 2.0 | 10.852 | 2 | 36.146 | 10.987 | 32.130 | 2 |
| 2025-05-08T22:07:00 | 54.890166 | 7.754171 | 2.0 | 10.974 | 2 | 36.214 | 11.045 | 32.146 | 2 |
| 2025-05-08T22:08:00 | 54.888278 | 7.754891 | 2.0 | 11.028 | 2 | 36.295 | 11.151 | 32.133 | 2 |
| 2025-05-08T22:09:00 | 54.886396 | 7.755686 | 2.0 | 10.857 | 2 | 36.342 | 11.186 | 32.149 | 2 |
| 2025-05-08T22:10:00 | 54.884521 | 7.756516 | 2.0 | 10.765 | 2 | 35.391 | 10.996 | 31.377 | 2 |
| 2025-05-08T22:11:00 | 54.882650 | 7.757296 | 2.0 | 10.779 | 2 | 36.021 | 10.944 | 32.044 | 2 |
| 2025-05-08T22:12:00 | 54.880819 | 7.758203 | 2.0 | 10.789 | 2 | 35.998 | 10.955 | 32.011 | 2 |
| 2025-05-08T22:13:00 | 54.878999 | 7.759175 | 2.0 | 10.829 | 2 | 35.974 | 10.972 | 31.973 | 2 |
| 2025-05-08T22:14:00 | 54.877164 | 7.760085 | 2.0 | 10.804 | 2 | 35.732 | 10.996 | 31.713 | 2 |
| 2025-05-08T22:15:00 | 54.875326 | 7.760886 | 2.0 | 10.811 | 2 | 35.882 | 10.980 | 31.875 | 2 |
| 2025-05-08T22:16:00 | 54.873474 | 7.761640 | 2.0 | 10.810 | 2 | 35.417 | 10.983 | 31.414 | 2 |
| 2025-05-08T22:17:00 | 54.871622 | 7.762364 | 2.0 | 10.746 | 2 | 35.738 | 10.982 | 31.731 | 2 |
| 2025-05-08T22:18:00 | 54.869765 | 7.763045 | 2.0 | 10.710 | 2 | 35.773 | 10.902 | 31.835 | 2 |
| 2025-05-08T22:19:00 | 54.867905 | 7.763703 | 2.0 | 10.729 | 2 | 35.697 | 10.890 | 31.770 | 2 |
| 2025-05-08T22:20:00 | 54.866037 | 7.764269 | 2.0 | 10.733 | 2 | 35.438 | 10.902 | 31.504 | 2 |
| 2025-05-08T22:21:00 | 54.864169 | 7.764736 | 2.0 | 10.723 | 2 | 35.676 | 10.902 | 31.739 | 2 |
| 2025-05-08T22:22:00 | 54.862307 | 7.765278 | 2.0 | 10.727 | 2 | 35.650 | 10.897 | 31.718 | 2 |
| 2025-05-08T22:23:00 | 54.860453 | 7.765844 | 2.0 | 10.738 | 2 | 35.445 | 10.901 | 31.512 | 2 |
| 2025-05-08T22:24:00 | 54.858592 | 7.766327 | 2.0 | 10.751 | 2 | 35.633 | 10.912 | 31.688 | 2 |
| 2025-05-08T22:25:00 | 54.856731 | 7.766860 | 2.0 | 10.768 | 2 | 35.491 | 10.926 | 31.536 | 2 |
| 2025-05-08T22:26:00 | 54.854870 | 7.767412 | 2.0 | 10.751 | 2 | 35.402 | 10.935 | 31.440 | 2 |
| 2025-05-08T22:27:00 | 54.853003 | 7.767878 | 2.0 | 10.749 | 2 | 35.593 | 10.924 | 31.638 | 2 |
| 2025-05-08T22:28:00 | 54.851142 | 7.768378 | 2.0 | 10.758 | 2 | 35.565 | 10.923 | 31.611 | 2 |
| 2025-05-08T22:29:00 | 54.849288 | 7.768924 | 2.0 | 10.769 | 2 | 35.379 | 10.931 | 31.421 | 2 |
| 2025-05-08T22:30:00 | 54.847433 | 7.769480 | 2.0 | 10.774 | 2 | 35.110 | 10.941 | 31.147 | 2 |
| 2025-05-08T22:31:00 | 54.845571 | 7.769965 | 2.0 | 10.775 | 2 | 35.555 | 10.943 | 31.584 | 2 |
| 2025-05-08T22:32:00 | 54.843703 | 7.770417 | 2.0 | 10.787 | 2 | 35.484 | 10.949 | 31.509 | 2 |
| 2025-05-08T22:33:00 | 54.841839 | 7.770920 | 2.0 | 10.801 | 2 | 35.550 | 10.958 | 31.566 | 2 |
| 2025-05-08T22:34:00 | 54.839982 | 7.771473 | 2.0 | 10.805 | 2 | 35.374 | 10.972 | 31.381 | 2 |
| 2025-05-08T22:35:00 | 54.838125 | 7.771996 | 2.0 | 10.801 | 2 | 35.536 | 10.974 | 31.539 | 2 |
| 2025-05-08T22:36:00 | 54.836268 | 7.772503 | 2.0 | 10.808 | 2 | 35.337 | 10.972 | 31.344 | 2 |
| 2025-05-08T22:37:00 | 54.834412 | 7.773035 | 2.0 | 10.841 | 2 | 35.295 | 10.984 | 31.293 | 2 |
| 2025-05-08T22:38:00 | 54.832557 | 7.773571 | 2.0 | 10.851 | 2 | 35.457 | 11.014 | 31.427 | 2 |
| 2025-05-08T22:39:00 | 54.830693 | 7.774044 | 2.0 | 10.835 | 2 | 35.446 | 11.017 | 31.413 | 2 |
| 2025-05-08T22:40:00 | 54.828827 | 7.774507 | 2.0 | 10.829 | 2 | 35.474 | 11.003 | 31.453 | 2 |
| 2025-05-08T22:41:00 | 54.826974 | 7.775060 | 2.0 | 10.824 | 2 | 35.479 | 11.001 | 31.459 | 2 |
| 2025-05-08T22:42:00 | 54.825119 | 7.775579 | 2.0 | 10.819 | 2 | 35.209 | 10.992 | 31.201 | 2 |
| 2025-05-08T22:43:00 | 54.823269 | 7.776064 | 2.0 | 10.825 | 2 | 35.165 | 10.989 | 31.161 | 2 |
| 2025-05-08T22:44:00 | 54.821426 | 7.776580 | 2.0 | 10.838 | 2 | 35.288 | 10.997 | 31.275 | 2 |
| 2025-05-08T22:45:00 | 54.819585 | 7.777082 | 2.0 | 10.854 | 2 | 35.419 | 11.009 | 31.394 | 2 |
| 2025-05-08T22:46:00 | 54.817743 | 7.777608 | 2.0 | 10.864 | 2 | 35.299 | 11.024 | 31.263 | 2 |
| 2025-05-08T22:47:00 | 54.815903 | 7.778143 | 2.0 | 10.886 | 2 | 35.363 | 11.037 | 31.315 | 2 |
| 2025-05-08T22:48:00 | 54.814053 | 7.778622 | 2.0 | 10.898 | 2 | 35.374 | 11.056 | 31.309 | 2 |
| 2025-05-08T22:49:00 | 54.812199 | 7.779082 | 2.0 | 10.955 | 2 | 35.355 | 11.067 | 31.281 | 2 |
| 2025-05-08T22:50:00 | 54.810350 | 7.779603 | 2.0 | 11.029 | 2 | 35.322 | 11.141 | 31.186 | 2 |
| 2025-05-08T22:51:00 | 54.808507 | 7.780167 | 2.0 | 11.020 | 2 | 35.423 | 11.193 | 31.241 | 2 |
| 2025-05-08T22:52:00 | 54.806662 | 7.780670 | 2.0 | 10.998 | 2 | 35.438 | 11.184 | 31.263 | 2 |
| 2025-05-08T22:53:00 | 54.804816 | 7.781142 | 2.0 | 10.990 | 2 | 35.438 | 11.165 | 31.279 | 2 |
| 2025-05-08T22:54:00 | 54.802971 | 7.781663 | 2.0 | 10.987 | 2 | 35.431 | 11.159 | 31.278 | 2 |
| 2025-05-08T22:55:00 | 54.801135 | 7.782184 | 2.0 | 10.983 | 2 | 35.425 | 11.155 | 31.275 | 2 |
| 2025-05-08T22:56:00 | 54.799295 | 7.782701 | 2.0 | 10.986 | 2 | 35.431 | 11.154 | 31.282 | 2 |
| 2025-05-08T22:57:00 | 54.797450 | 7.783169 | 2.0 | 10.975 | 2 | 35.420 | 11.152 | 31.273 | 2 |
| 2025-05-08T22:58:00 | 54.795603 | 7.783668 | 2.0 | 10.976 | 2 | 35.426 | 11.145 | 31.285 | 2 |
| 2025-05-08T22:59:00 | 54.793768 | 7.784234 | 2.0 | 10.974 | 2 | 35.435 | 11.145 | 31.293 | 2 |
| 2025-05-08T23:00:00 | 54.791926 | 7.784752 | 2.0 | 10.978 | 2 | 35.429 | 11.145 | 31.287 | 2 |
| 2025-05-08T23:01:00 | 54.790074 | 7.785214 | 2.0 | 10.974 | 2 | 35.446 | 11.145 | 31.304 | 2 |
| 2025-05-08T23:02:00 | 54.788225 | 7.785723 | 2.0 | 10.978 | 2 | 35.465 | 11.144 | 31.324 | 2 |
| 2025-05-08T23:03:00 | 54.786383 | 7.786264 | 2.0 | 10.980 | 2 | 35.455 | 11.147 | 31.311 | 2 |
| 2025-05-08T23:04:00 | 54.784537 | 7.786772 | 2.0 | 10.986 | 2 | 35.475 | 11.148 | 31.330 | 2 |
| 2025-05-08T23:05:00 | 54.782685 | 7.787248 | 2.0 | 10.999 | 2 | 35.506 | 11.157 | 31.353 | 2 |
| 2025-05-08T23:06:00 | 54.780833 | 7.787730 | 2.0 | 11.019 | 2 | 35.530 | 11.171 | 31.364 | 2 |
| 2025-05-08T23:07:00 | 54.778988 | 7.788267 | 2.0 | 11.040 | 2 | 35.546 | 11.190 | 31.364 | 2 |
| 2025-05-08T23:08:00 | 54.777140 | 7.788805 | 2.0 | 11.042 | 2 | 35.551 | 11.209 | 31.353 | 2 |
| 2025-05-08T23:09:00 | 54.775287 | 7.789284 | 2.0 | 11.048 | 2 | 35.594 | 11.211 | 31.393 | 2 |
| 2025-05-08T23:10:00 | 54.773439 | 7.789771 | 2.0 | 11.049 | 2 | 35.595 | 11.216 | 31.390 | 2 |
| 2025-05-08T23:11:00 | 54.771600 | 7.790305 | 2.0 | 11.011 | 2 | 35.599 | 11.212 | 31.397 | 2 |
| 2025-05-08T23:12:00 | 54.769759 | 7.790825 | 2.0 | 11.004 | 2 | 35.582 | 11.181 | 31.407 | 2 |
| 2025-05-08T23:13:00 | 54.767914 | 7.791301 | 2.0 | 11.002 | 2 | 35.582 | 11.173 | 31.414 | 2 |
| 2025-05-08T23:14:00 | 54.766075 | 7.791794 | 2.0 | 10.993 | 2 | 35.580 | 11.168 | 31.416 | 2 |
| 2025-05-08T23:15:00 | 54.764243 | 7.792324 | 2.0 | 11.007 | 2 | 35.588 | 11.162 | 31.429 | 2 |
| 2025-05-08T23:16:00 | 54.762412 | 7.792857 | 2.0 | 11.016 | 2 | 35.601 | 11.176 | 31.430 | 2 |
| 2025-05-08T23:17:00 | 54.760571 | 7.793323 | 2.0 | 11.026 | 2 | 35.616 | 11.186 | 31.436 | 2 |
| 2025-05-08T23:18:00 | 54.758740 | 7.793790 | 2.0 | 11.031 | 2 | 35.624 | 11.194 | 31.437 | 2 |
| 2025-05-08T23:19:00 | 54.756914 | 7.794321 | 2.0 | 11.037 | 2 | 35.636 | 11.201 | 31.443 | 2 |
| 2025-05-08T23:20:00 | 54.755089 | 7.794857 | 2.0 | 11.033 | 2 | 35.647 | 11.204 | 31.451 | 2 |
| 2025-05-08T23:21:00 | 54.753259 | 7.795343 | 2.0 | 11.037 | 2 | 35.652 | 11.201 | 31.458 | 2 |
| 2025-05-08T23:22:00 | 54.751429 | 7.795791 | 2.0 | 11.029 | 2 | 35.654 | 11.205 | 31.457 | 2 |
| 2025-05-08T23:23:00 | 54.749608 | 7.796319 | 2.0 | 11.002 | 2 | 35.647 | 11.193 | 31.460 | 2 |
| 2025-05-08T23:24:00 | 54.747780 | 7.796865 | 2.0 | 10.993 | 2 | 35.631 | 11.169 | 31.465 | 2 |
| 2025-05-08T23:25:00 | 54.745938 | 7.797365 | 2.0 | 10.992 | 2 | 35.629 | 11.162 | 31.469 | 2 |
| 2025-05-08T23:26:00 | 54.744091 | 7.797839 | 2.0 | 10.997 | 2 | 35.629 | 11.161 | 31.470 | 2 |
| 2025-05-08T23:27:00 | 54.742249 | 7.798346 | 2.0 | 11.002 | 2 | 35.631 | 11.166 | 31.468 | 2 |
| 2025-05-08T23:28:00 | 54.740406 | 7.798843 | 2.0 | 11.000 | 2 | 35.634 | 11.170 | 31.467 | 2 |
| 2025-05-08T23:29:00 | 54.738559 | 7.799383 | 2.0 | 10.971 | 2 | 35.632 | 11.166 | 31.469 | 2 |
| 2025-05-08T23:30:00 | 54.736708 | 7.799903 | 2.0 | 10.951 | 2 | 35.608 | 11.138 | 31.469 | 2 |
| 2025-05-08T23:31:00 | 54.734851 | 7.800290 | 2.0 | 10.945 | 2 | 35.590 | 11.120 | 31.467 | 2 |
| 2025-05-08T23:32:00 | 54.733005 | 7.800708 | 2.0 | 10.948 | 2 | 35.577 | 11.115 | 31.458 | 2 |
| 2025-05-08T23:33:00 | 54.731170 | 7.801130 | 2.0 | 10.959 | 2 | 35.570 | 11.117 | 31.450 | 2 |
| 2025-05-08T23:34:00 | 54.729342 | 7.801534 | 2.0 | 10.974 | 2 | 35.564 | 11.131 | 31.432 | 2 |
| 2025-05-08T23:35:00 | 54.727519 | 7.801973 | 2.0 | 10.987 | 2 | 35.556 | 11.145 | 31.412 | 2 |
| 2025-05-08T23:36:00 | 54.725699 | 7.802405 | 2.0 | 10.990 | 2 | 35.549 | 11.155 | 31.397 | 2 |
| 2025-05-08T23:37:00 | 54.723878 | 7.802836 | 2.0 | 11.014 | 2 | 35.526 | 11.161 | 31.369 | 2 |
| 2025-05-08T23:38:00 | 54.722062 | 7.803251 | 2.0 | 11.043 | 2 | 35.512 | 11.189 | 31.331 | 2 |
| 2025-05-08T23:39:00 | 54.720247 | 7.803658 | 2.0 | 11.051 | 2 | 35.503 | 11.211 | 31.304 | 2 |
| 2025-05-08T23:40:00 | 54.718440 | 7.804061 | 2.0 | 11.055 | 2 | 35.497 | 11.218 | 31.292 | 2 |
| 2025-05-08T23:41:00 | 54.716634 | 7.804474 | 2.0 | 11.063 | 2 | 35.499 | 11.225 | 31.288 | 2 |
| 2025-05-08T23:42:00 | 54.714829 | 7.804880 | 2.0 | 11.070 | 2 | 35.503 | 11.231 | 31.287 | 2 |
| 2025-05-08T23:43:00 | 54.713037 | 7.805368 | 2.0 | 11.080 | 2 | 35.508 | 11.238 | 31.286 | 2 |
| 2025-05-08T23:44:00 | 54.711231 | 7.805755 | 2.0 | 11.088 | 2 | 35.521 | 11.248 | 31.290 | 2 |
| 2025-05-08T23:45:00 | 54.709415 | 7.806163 | 2.0 | 11.090 | 2 | 35.530 | 11.255 | 31.293 | 2 |
| 2025-05-08T23:46:00 | 54.707591 | 7.806567 | 2.0 | 11.096 | 2 | 35.530 | 11.259 | 31.290 | 2 |
| 2025-05-08T23:47:00 | 54.705755 | 7.806970 | 2.0 | 11.095 | 2 | 35.532 | 11.263 | 31.288 | 2 |
| 2025-05-08T23:48:00 | 54.703904 | 7.807230 | 2.0 | 11.095 | 2 | 35.531 | 11.264 | 31.286 | 2 |
| 2025-05-08T23:49:00 | 54.702059 | 7.806774 | 2.0 | 11.084 | 2 | 35.532 | 11.260 | 31.291 | 2 |
| 2025-05-08T23:50:00 | 54.700198 | 7.806506 | 2.0 | 11.080 | 2 | 35.534 | 11.252 | 31.299 | 2 |
| 2025-05-08T23:51:00 | 54.698328 | 7.806238 | 2.0 | 11.072 | 2 | 35.540 | 11.246 | 31.310 | 2 |
| 2025-05-08T23:52:00 | 54.696470 | 7.806246 | 2.0 | 11.065 | 2 | 35.545 | 11.240 | 31.320 | 2 |
| 2025-05-08T23:53:00 | 54.694625 | 7.805955 | 2.0 | 11.064 | 2 | 35.550 | 11.234 | 31.330 | 2 |
| 2025-05-08T23:54:00 | 54.692802 | 7.805982 | 2.0 | 11.064 | 2 | 35.562 | 11.232 | 31.344 | 2 |
| 2025-05-08T23:55:00 | 54.690985 | 7.806441 | 2.0 | 11.065 | 2 | 35.572 | 11.231 | 31.354 | 2 |
| 2025-05-08T23:56:00 | 54.689152 | 7.806889 | 2.0 | 11.067 | 2 | 35.580 | 11.234 | 31.360 | 2 |
| 2025-05-08T23:57:00 | 54.687309 | 7.807347 | 2.0 | 11.067 | 2 | 35.586 | 11.234 | 31.366 | 2 |
| 2025-05-08T23:58:00 | 54.685468 | 7.807860 | 2.0 | 11.071 | 2 | 35.594 | 11.236 | 31.372 | 2 |
| 2025-05-08T23:59:00 | 54.683640 | 7.808453 | 2.0 | 11.077 | 2 | 35.597 | 11.239 | 31.372 | 2 |
| 2025-05-09T00:00:00 | 54.681811 | 7.809037 | 2.0 | 11.081 | 2 | 35.608 | 11.244 | 31.379 | 2 |
| 2025-05-09T00:01:00 | 54.679981 | 7.809608 | 2.0 | 11.084 | 2 | 35.617 | 11.248 | 31.384 | 2 |
| 2025-05-09T00:02:00 | 54.678144 | 7.810196 | 2.0 | 11.083 | 2 | 35.623 | 11.250 | 31.388 | 2 |
| 2025-05-09T00:03:00 | 54.676314 | 7.810784 | 2.0 | 11.078 | 2 | 35.626 | 11.249 | 31.392 | 2 |
| 2025-05-09T00:04:00 | 54.674488 | 7.811408 | 2.0 | 11.071 | 2 | 35.625 | 11.245 | 31.394 | 2 |
| 2025-05-09T00:05:00 | 54.672666 | 7.812046 | 2.0 | 11.061 | 2 | 35.620 | 11.238 | 31.396 | 2 |
| 2025-05-09T00:06:00 | 54.670838 | 7.812676 | 2.0 | 11.044 | 2 | 35.611 | 11.226 | 31.397 | 2 |
| 2025-05-09T00:07:00 | 54.669012 | 7.813304 | 2.0 | 11.025 | 2 | 35.595 | 11.209 | 31.396 | 2 |
| 2025-05-09T00:08:00 | 54.667176 | 7.813925 | 2.0 | 10.998 | 2 | 35.577 | 11.189 | 31.395 | 2 |
| 2025-05-09T00:09:00 | 54.665346 | 7.814528 | 2.0 | 10.959 | 2 | 35.542 | 11.161 | 31.385 | 2 |
| 2025-05-09T00:10:00 | 54.663537 | 7.815277 | 2.0 | 10.940 | 2 | 35.516 | 11.127 | 31.388 | 2 |
| 2025-05-09T00:11:00 | 54.661714 | 7.816022 | 2.0 | 10.929 | 2 | 35.499 | 11.109 | 31.387 | 2 |
| 2025-05-09T00:12:00 | 54.659887 | 7.816764 | 2.0 | 10.921 | 2 | 35.486 | 11.097 | 31.384 | 2 |
| 2025-05-09T00:13:00 | 54.658056 | 7.817506 | 2.0 | 10.910 | 2 | 35.476 | 11.089 | 31.381 | 2 |
| 2025-05-09T00:14:00 | 54.656240 | 7.818322 | 2.0 | 10.896 | 2 | 35.463 | 11.077 | 31.379 | 2 |
| 2025-05-09T00:15:00 | 54.654440 | 7.819228 | 2.0 | 10.875 | 2 | 35.447 | 11.063 | 31.375 | 2 |
| 2025-05-09T00:16:00 | 54.652645 | 7.820136 | 2.0 | 10.846 | 2 | 35.424 | 11.040 | 31.372 | 2 |
| 2025-05-09T00:17:00 | 54.650844 | 7.821050 | 2.0 | 10.823 | 2 | 35.399 | 11.014 | 31.370 | 2 |
| 2025-05-09T00:18:00 | 54.649033 | 7.821960 | 2.0 | 10.801 | 2 | 35.375 | 10.994 | 31.363 | 2 |
| 2025-05-09T00:19:00 | 54.647223 | 7.822902 | 2.0 | 10.785 | 2 | 35.357 | 10.969 | 31.367 | 2 |
| 2025-05-09T00:20:00 | 54.645386 | 7.823696 | 2.0 | 10.781 | 2 | 35.345 | 10.955 | 31.367 | 2 |
| 2025-05-09T00:21:00 | 54.643540 | 7.824439 | 2.0 | 10.781 | 2 | 35.344 | 10.953 | 31.368 | 2 |
| 2025-05-09T00:22:00 | 54.641678 | 7.825066 | 2.0 | 10.777 | 2 | 35.341 | 10.950 | 31.367 | 2 |
| 2025-05-09T00:23:00 | 54.639816 | 7.825677 | 2.0 | 10.774 | 2 | 35.335 | 10.947 | 31.364 | 2 |
| 2025-05-09T00:24:00 | 54.637957 | 7.826295 | 2.0 | 10.769 | 2 | 35.331 | 10.943 | 31.363 | 2 |
| 2025-05-09T00:25:00 | 54.636102 | 7.826899 | 2.0 | 10.762 | 2 | 35.326 | 10.936 | 31.364 | 2 |
| 2025-05-09T00:26:00 | 54.634280 | 7.827495 | 2.0 | 10.752 | 2 | 35.318 | 10.932 | 31.360 | 2 |
| 2025-05-09T00:27:00 | 54.632519 | 7.828069 | 2.0 | 10.746 | 2 | 35.309 | 10.922 | 31.360 | 2 |
| 2025-05-09T00:28:00 | 54.630784 | 7.828632 | 2.0 | 10.736 | 2 | 35.302 | 10.913 | 31.360 | 2 |
| 2025-05-09T00:29:00 | 54.629055 | 7.829166 | 2.0 | 10.732 | 2 | 35.293 | 10.905 | 31.358 | 2 |
| 2025-05-09T00:30:00 | 54.627316 | 7.829598 | 2.0 | 10.786 | 2 | 35.284 | 10.898 | 31.355 | 2 |
| 2025-05-09T00:31:00 | 54.625579 | 7.830019 | 2.0 | 10.929 | 2 | 35.332 | 10.975 | 31.337 | 2 |
| 2025-05-09T00:32:00 | 54.623852 | 7.830455 | 2.0 | 10.956 | 2 | 35.428 | 11.094 | 31.330 | 2 |
| 2025-05-09T00:33:00 | 54.622152 | 7.831040 | 2.0 | 10.938 | 2 | 35.452 | 11.116 | 31.335 | 2 |
| 2025-05-09T00:34:00 | 54.620463 | 7.831677 | 2.0 | 10.919 | 2 | 35.443 | 11.101 | 31.339 | 2 |
| 2025-05-09T00:35:00 | 54.618760 | 7.832256 | 2.0 | 10.885 | 2 | 35.425 | 11.076 | 31.342 | 2 |
| 2025-05-09T00:36:00 | 54.617036 | 7.832671 | 2.0 | 10.902 | 2 | 35.405 | 11.055 | 31.341 | 2 |
| 2025-05-09T00:37:00 | 54.615314 | 7.833062 | 2.0 | 10.889 | 2 | 35.408 | 11.064 | 31.336 | 2 |
| 2025-05-09T00:38:00 | 54.613596 | 7.833558 | 2.0 | 10.857 | 2 | 35.399 | 11.048 | 31.341 | 2 |
| 2025-05-09T00:39:00 | 54.611870 | 7.834114 | 2.0 | 10.845 | 2 | 35.378 | 11.025 | 31.340 | 2 |
| 2025-05-09T00:40:00 | 54.610134 | 7.834628 | 2.0 | 10.828 | 2 | 35.370 | 11.012 | 31.343 | 2 |
| 2025-05-09T00:41:00 | 54.608395 | 7.835088 | 2.0 | 10.819 | 2 | 35.357 | 10.995 | 31.344 | 2 |
| 2025-05-09T00:42:00 | 54.606645 | 7.835511 | 2.0 | 10.819 | 2 | 35.351 | 10.990 | 31.343 | 2 |
| 2025-05-09T00:43:00 | 54.604903 | 7.835981 | 2.0 | 10.806 | 2 | 35.349 | 10.985 | 31.345 | 2 |
| 2025-05-09T00:44:00 | 54.603165 | 7.836470 | 2.0 | 10.797 | 2 | 35.338 | 10.971 | 31.346 | 2 |
| 2025-05-09T00:45:00 | 54.601422 | 7.836945 | 2.0 | 10.804 | 2 | 35.333 | 10.969 | 31.343 | 2 |
| 2025-05-09T00:46:00 | 54.599679 | 7.837429 | 2.0 | 10.807 | 2 | 35.334 | 10.971 | 31.342 | 2 |
| 2025-05-09T00:47:00 | 54.597940 | 7.837932 | 2.0 | 10.808 | 2 | 35.338 | 10.979 | 31.339 | 2 |
| 2025-05-09T00:48:00 | 54.596205 | 7.838426 | 2.0 | 10.798 | 2 | 35.338 | 10.978 | 31.340 | 2 |
| 2025-05-09T00:49:00 | 54.594468 | 7.838888 | 2.0 | 10.784 | 2 | 35.324 | 10.961 | 31.341 | 2 |
| 2025-05-09T00:50:00 | 54.592728 | 7.839321 | 2.0 | 10.785 | 2 | 35.314 | 10.955 | 31.336 | 2 |
| 2025-05-09T00:51:00 | 54.591007 | 7.839858 | 2.0 | 10.789 | 2 | 35.309 | 10.953 | 31.333 | 2 |
| 2025-05-09T00:52:00 | 54.589277 | 7.840308 | 2.0 | 10.786 | 2 | 35.310 | 10.956 | 31.331 | 2 |
| 2025-05-09T00:53:00 | 54.587546 | 7.840711 | 2.0 | 10.814 | 2 | 35.309 | 10.961 | 31.326 | 2 |
| 2025-05-09T00:54:00 | 54.585831 | 7.841181 | 2.0 | 10.840 | 2 | 35.325 | 10.985 | 31.322 | 2 |
| 2025-05-09T00:55:00 | 54.584128 | 7.841701 | 2.0 | 10.832 | 2 | 35.343 | 11.007 | 31.320 | 2 |
| 2025-05-09T00:56:00 | 54.582418 | 7.842186 | 2.0 | 10.818 | 2 | 35.337 | 10.999 | 31.321 | 2 |
| 2025-05-09T00:57:00 | 54.580696 | 7.842647 | 2.0 | 10.773 | 2 | 35.320 | 10.980 | 31.321 | 2 |
| 2025-05-09T00:58:00 | 54.578965 | 7.843072 | 2.0 | 10.759 | 2 | 35.002 | 10.943 | 31.039 | 2 |
| 2025-05-09T00:59:00 | 54.577237 | 7.843538 | 2.0 | 10.758 | 2 | 35.048 | 10.934 | 31.092 | 2 |
| 2025-05-09T01:00:00 | 54.575491 | 7.844050 | 2.0 | 10.722 | 2 | 35.259 | 10.919 | 31.313 | 2 |
| 2025-05-09T01:01:00 | 54.573755 | 7.844537 | 2.0 | 10.690 | 2 | 35.027 | 10.886 | 31.112 | 2 |
| 2025-05-09T01:02:00 | 54.572004 | 7.845020 | 2.0 | 10.688 | 2 | 35.037 | 10.863 | 31.142 | 2 |
| 2025-05-09T01:03:00 | 54.570253 | 7.845495 | 2.0 | 10.687 | 2 | 35.168 | 10.857 | 31.276 | 2 |
| 2025-05-09T01:04:00 | 54.568496 | 7.845951 | 2.0 | 10.702 | 2 | 34.959 | 10.860 | 31.067 | 2 |
| 2025-05-09T01:05:00 | 54.566739 | 7.846384 | 2.0 | 10.711 | 2 | 35.027 | 10.872 | 31.124 | 2 |
| 2025-05-09T01:06:00 | 54.565000 | 7.846878 | 2.0 | 10.710 | 2 | 34.920 | 10.879 | 31.013 | 2 |
| 2025-05-09T01:07:00 | 54.563263 | 7.847415 | 2.0 | 10.711 | 2 | 35.069 | 10.878 | 31.160 | 2 |
| 2025-05-09T01:08:00 | 54.561521 | 7.847916 | 2.0 | 10.710 | 2 | 34.942 | 10.879 | 31.034 | 2 |
| 2025-05-09T01:09:00 | 54.559779 | 7.848379 | 2.0 | 10.712 | 2 | 35.209 | 10.879 | 31.298 | 2 |
| 2025-05-09T01:10:00 | 54.558039 | 7.848813 | 2.0 | 10.710 | 2 | 35.143 | 10.881 | 31.231 | 2 |
| 2025-05-09T01:11:00 | 54.556309 | 7.849264 | 2.0 | 10.712 | 2 | 35.168 | 10.879 | 31.257 | 2 |
| 2025-05-09T01:12:00 | 54.554584 | 7.849730 | 2.0 | 10.723 | 2 | 34.950 | 10.884 | 31.038 | 2 |
| 2025-05-09T01:13:00 | 54.552864 | 7.850222 | 2.0 | 10.726 | 2 | 35.181 | 10.891 | 31.260 | 2 |
| 2025-05-09T01:14:00 | 54.551142 | 7.850696 | 2.0 | 10.730 | 2 | 35.189 | 10.895 | 31.264 | 2 |
| 2025-05-09T01:15:00 | 54.549429 | 7.851210 | 2.0 | 10.734 | 2 | 35.184 | 10.899 | 31.256 | 2 |
| 2025-05-09T01:16:00 | 54.547711 | 7.851697 | 2.0 | 10.741 | 2 | 34.910 | 10.903 | 30.982 | 2 |
| 2025-05-09T01:17:00 | 54.545979 | 7.852121 | 2.0 | 10.761 | 2 | 34.993 | 10.913 | 31.056 | 2 |
| 2025-05-09T01:18:00 | 54.544261 | 7.852599 | 2.0 | 10.764 | 2 | 35.116 | 10.931 | 31.162 | 2 |
| 2025-05-09T01:19:00 | 54.542543 | 7.853093 | 2.0 | 10.766 | 2 | 34.875 | 10.932 | 30.924 | 2 |
| 2025-05-09T01:20:00 | 54.540820 | 7.853584 | 2.0 | 10.765 | 2 | 35.150 | 10.933 | 31.193 | 2 |
| 2025-05-09T01:21:00 | 54.539092 | 7.854046 | 2.0 | 10.764 | 2 | 35.191 | 10.934 | 31.233 | 2 |
| 2025-05-09T01:22:00 | 54.537361 | 7.854517 | 2.0 | 10.760 | 2 | 35.047 | 10.931 | 31.094 | 2 |
| 2025-05-09T01:23:00 | 54.535618 | 7.854978 | 2.0 | 10.757 | 2 | 35.037 | 10.927 | 31.087 | 2 |
| 2025-05-09T01:24:00 | 54.533867 | 7.855446 | 2.0 | 10.756 | 2 | 35.058 | 10.924 | 31.110 | 2 |
| 2025-05-09T01:25:00 | 54.532122 | 7.855934 | 2.0 | 10.753 | 2 | 35.091 | 10.924 | 31.143 | 2 |
| 2025-05-09T01:26:00 | 54.530360 | 7.856431 | 2.0 | 10.750 | 2 | 35.085 | 10.921 | 31.140 | 2 |
| 2025-05-09T01:27:00 | 54.528582 | 7.856897 | 2.0 | 10.745 | 2 | 34.856 | 10.916 | 30.918 | 2 |
| 2025-05-09T01:28:00 | 54.526788 | 7.857346 | 2.0 | 10.747 | 2 | 35.035 | 10.912 | 31.098 | 2 |
| 2025-05-09T01:29:00 | 54.525002 | 7.857813 | 2.0 | 10.751 | 2 | 34.989 | 10.915 | 31.050 | 2 |
| 2025-05-09T01:30:00 | 54.523236 | 7.858333 | 2.0 | 10.750 | 2 | 35.216 | 10.918 | 31.271 | 2 |
| 2025-05-09T01:31:00 | 54.521461 | 7.858844 | 2.0 | 10.746 | 2 | 35.222 | 10.918 | 31.277 | 2 |
| 2025-05-09T01:32:00 | 54.519665 | 7.859327 | 2.0 | 10.744 | 2 | 35.230 | 10.913 | 31.289 | 2 |
| 2025-05-09T01:33:00 | 54.517863 | 7.859828 | 2.0 | 10.747 | 2 | 35.241 | 10.912 | 31.301 | 2 |
| 2025-05-09T01:34:00 | 54.516066 | 7.860360 | 2.0 | 10.743 | 2 | 35.246 | 10.913 | 31.305 | 2 |
| 2025-05-09T01:35:00 | 54.514276 | 7.860903 | 2.0 | 10.736 | 2 | 35.248 | 10.909 | 31.311 | 2 |
| 2025-05-09T01:36:00 | 54.512464 | 7.861376 | 2.0 | 10.728 | 2 | 35.249 | 10.902 | 31.317 | 2 |
| 2025-05-09T01:37:00 | 54.510646 | 7.861826 | 2.0 | 10.723 | 2 | 35.252 | 10.895 | 31.326 | 2 |
| 2025-05-09T01:38:00 | 54.508817 | 7.862295 | 2.0 | 10.731 | 2 | 35.251 | 10.893 | 31.327 | 2 |
| 2025-05-09T01:39:00 | 54.506979 | 7.862763 | 2.0 | 10.740 | 2 | 35.250 | 10.900 | 31.320 | 2 |
| 2025-05-09T01:40:00 | 54.505144 | 7.863296 | 2.0 | 10.749 | 2 | 35.255 | 10.909 | 31.317 | 2 |
| 2025-05-09T01:41:00 | 54.503308 | 7.863810 | 2.0 | 10.763 | 2 | 35.256 | 10.920 | 31.309 | 2 |
| 2025-05-09T01:42:00 | 54.501467 | 7.864274 | 2.0 | 10.773 | 2 | 35.259 | 10.932 | 31.302 | 2 |
| 2025-05-09T01:43:00 | 54.499628 | 7.864776 | 2.0 | 10.780 | 2 | 35.259 | 10.943 | 31.292 | 2 |
| 2025-05-09T01:44:00 | 54.497784 | 7.865269 | 2.0 | 10.771 | 2 | 35.255 | 10.945 | 31.287 | 2 |
| 2025-05-09T01:45:00 | 54.495948 | 7.865795 | 2.0 | 10.759 | 2 | 35.244 | 10.938 | 31.282 | 2 |
| 2025-05-09T01:46:00 | 54.494103 | 7.866294 | 2.0 | 10.751 | 2 | 35.228 | 10.927 | 31.275 | 2 |
| 2025-05-09T01:47:00 | 54.492256 | 7.866800 | 2.0 | 10.751 | 2 | 34.655 | 10.919 | 30.718 | 2 |
| 2025-05-09T01:48:00 | 54.490406 | 7.867297 | 2.0 | 10.755 | 2 | 34.491 | 10.919 | 30.557 | 2 |
| 2025-05-09T01:49:00 | 54.488559 | 7.867769 | 2.0 | 10.779 | 2 | 35.165 | 10.925 | 31.215 | 2 |
| 2025-05-09T01:50:00 | 54.486718 | 7.868270 | 2.0 | 10.788 | 2 | 35.195 | 10.948 | 31.225 | 2 |
| 2025-05-09T01:51:00 | 54.484888 | 7.868816 | 2.0 | 10.804 | 2 | 34.759 | 10.957 | 30.788 | 2 |
| 2025-05-09T01:52:00 | 54.483066 | 7.869360 | 2.0 | 10.833 | 2 | 35.195 | 10.977 | 31.200 | 2 |
| 2025-05-09T01:53:00 | 54.481235 | 7.869887 | 2.0 | 10.815 | 2 | 35.131 | 10.995 | 31.122 | 2 |
| 2025-05-09T01:54:00 | 54.479405 | 7.870420 | 2.0 | 10.788 | 2 | 34.900 | 10.976 | 30.911 | 2 |
| 2025-05-09T01:55:00 | 54.477553 | 7.870862 | 2.0 | 10.893 | 2 | 34.909 | 10.965 | 30.929 | 2 |
| 2025-05-09T01:56:00 | 54.475704 | 7.871276 | 2.0 | 10.966 | 2 | 35.201 | 11.071 | 31.127 | 2 |
| 2025-05-09T01:57:00 | 54.473873 | 7.871805 | 2.0 | 10.996 | 2 | 35.240 | 11.132 | 31.113 | 2 |
| 2025-05-09T01:58:00 | 54.472043 | 7.872353 | 2.0 | 11.008 | 2 | 35.281 | 11.164 | 31.126 | 2 |
| 2025-05-09T01:59:00 | 54.470204 | 7.872856 | 2.0 | 10.953 | 2 | 35.279 | 11.166 | 31.123 | 2 |
| 2025-05-09T02:00:00 | 54.468366 | 7.873341 | 2.0 | 10.915 | 2 | 35.236 | 11.110 | 31.128 | 2 |
| 2025-05-09T02:01:00 | 54.466528 | 7.873861 | 2.0 | 10.867 | 2 | 35.205 | 11.079 | 31.124 | 2 |
| 2025-05-09T02:02:00 | 54.464681 | 7.874383 | 2.0 | 10.852 | 2 | 35.183 | 11.030 | 31.144 | 2 |
| 2025-05-09T02:03:00 | 54.462819 | 7.874866 | 2.0 | 10.814 | 2 | 35.174 | 11.012 | 31.150 | 2 |
| 2025-05-09T02:04:00 | 54.460950 | 7.875313 | 2.0 | 10.851 | 2 | 35.149 | 10.987 | 31.147 | 2 |
| 2025-05-09T02:05:00 | 54.459096 | 7.875771 | 2.0 | 10.996 | 2 | 35.135 | 11.048 | 31.081 | 2 |
| 2025-05-09T02:06:00 | 54.457263 | 7.876257 | 2.0 | 11.104 | 2 | 34.747 | 11.176 | 30.594 | 2 |
| 2025-05-09T02:07:00 | 54.455450 | 7.876768 | 2.0 | 11.153 | 2 | 35.032 | 11.269 | 30.795 | 2 |
| 2025-05-09T02:08:00 | 54.453656 | 7.877319 | 2.0 | 11.155 | 2 | 35.195 | 11.315 | 30.915 | 2 |
| 2025-05-09T02:09:00 | 54.451859 | 7.877880 | 2.0 | 11.186 | 2 | 35.286 | 11.322 | 30.998 | 2 |
| 2025-05-09T02:10:00 | 54.450029 | 7.878333 | 2.0 | 11.210 | 2 | 35.262 | 11.352 | 30.950 | 2 |
| 2025-05-09T02:11:00 | 54.448213 | 7.878802 | 2.0 | 11.210 | 2 | 35.109 | 11.373 | 30.783 | 2 |
| 2025-05-09T02:12:00 | 54.446419 | 7.879342 | 2.0 | 11.225 | 2 | 35.158 | 11.375 | 30.829 | 2 |
| 2025-05-09T02:13:00 | 54.444618 | 7.879872 | 2.0 | 11.193 | 2 | 35.048 | 11.385 | 30.714 | 2 |
| 2025-05-09T02:14:00 | 54.442805 | 7.880334 | 2.0 | 11.203 | 2 | 35.243 | 11.356 | 30.928 | 2 |
| 2025-05-09T02:15:00 | 54.440988 | 7.880762 | 2.0 | 11.218 | 2 | 35.218 | 11.374 | 30.888 | 2 |
| 2025-05-09T02:16:00 | 54.439181 | 7.881252 | 2.0 | 11.184 | 2 | 35.223 | 11.376 | 30.891 | 2 |
| 2025-05-09T02:17:00 | 54.437371 | 7.881739 | 2.0 | 11.168 | 2 | 35.063 | 11.345 | 30.762 | 2 |
| 2025-05-09T02:18:00 | 54.435558 | 7.882227 | 2.0 | 11.196 | 2 | 35.072 | 11.346 | 30.769 | 2 |
| 2025-05-09T02:19:00 | 54.433751 | 7.882737 | 2.0 | 11.147 | 2 | 35.102 | 11.356 | 30.790 | 2 |
| 2025-05-09T02:20:00 | 54.431956 | 7.883273 | 2.0 | 11.115 | 2 | 34.935 | 11.305 | 30.670 | 2 |
| 2025-05-09T02:21:00 | 54.430160 | 7.883808 | 2.0 | 11.143 | 2 | 34.934 | 11.290 | 30.682 | 2 |
| 2025-05-09T02:22:00 | 54.428347 | 7.884257 | 2.0 | 11.174 | 2 | 35.068 | 11.313 | 30.793 | 2 |
| 2025-05-09T02:23:00 | 54.426556 | 7.884774 | 2.0 | 11.284 | 2 | 34.976 | 11.352 | 30.671 | 2 |
| 2025-05-09T02:24:00 | 54.424757 | 7.885287 | 2.0 | 11.389 | 2 | 35.052 | 11.462 | 30.654 | 2 |
| 2025-05-09T02:25:00 | 54.422930 | 7.885733 | 2.0 | 11.429 | 2 | 35.142 | 11.548 | 30.670 | 2 |
| 2025-05-09T02:26:00 | 54.421081 | 7.886160 | 2.0 | 11.463 | 2 | 35.134 | 11.596 | 30.622 | 2 |
| 2025-05-09T02:27:00 | 54.419236 | 7.886637 | 2.0 | 11.470 | 2 | 35.193 | 11.626 | 30.655 | 2 |
| 2025-05-09T02:28:00 | 54.417404 | 7.887203 | 2.0 | 11.487 | 2 | 35.151 | 11.636 | 30.606 | 2 |
| 2025-05-09T02:29:00 | 54.415550 | 7.887730 | 2.0 | 11.532 | 2 | 35.177 | 11.649 | 30.620 | 2 |
| 2025-05-09T02:30:00 | 54.413687 | 7.888208 | 2.0 | 11.534 | 2 | 35.221 | 11.691 | 30.628 | 2 |
| 2025-05-09T02:31:00 | 54.411831 | 7.888718 | 2.0 | 11.542 | 2 | 35.221 | 11.696 | 30.624 | 2 |
| 2025-05-09T02:32:00 | 54.409981 | 7.889252 | 2.0 | 11.578 | 2 | 35.190 | 11.710 | 30.582 | 2 |
| 2025-05-09T02:33:00 | 54.408139 | 7.889781 | 2.0 | 11.609 | 2 | 35.286 | 11.745 | 30.646 | 2 |
| 2025-05-09T02:34:00 | 54.406292 | 7.890289 | 2.0 | 11.669 | 2 | 35.242 | 11.777 | 30.577 | 2 |
| 2025-05-09T02:35:00 | 54.404439 | 7.890745 | 2.0 | 11.706 | 2 | 35.314 | 11.841 | 30.594 | 2 |
| 2025-05-09T02:36:00 | 54.402603 | 7.891245 | 2.0 | 11.716 | 2 | 35.377 | 11.868 | 30.632 | 2 |
| 2025-05-09T02:37:00 | 54.400806 | 7.891741 | 2.0 | 11.725 | 2 | 35.297 | 11.879 | 30.547 | 2 |
| 2025-05-09T02:38:00 | 54.399046 | 7.892244 | 2.0 | 11.732 | 2 | 35.330 | 11.887 | 30.572 | 2 |
| 2025-05-09T02:39:00 | 54.397294 | 7.892721 | 2.0 | 11.714 | 2 | 35.364 | 11.892 | 30.600 | 2 |
| 2025-05-09T02:40:00 | 54.395541 | 7.893179 | 2.0 | 11.691 | 2 | 35.484 | 11.872 | 30.732 | 2 |
| 2025-05-09T02:41:00 | 54.393786 | 7.893634 | 2.0 | 11.745 | 2 | 35.375 | 11.857 | 30.640 | 2 |
| 2025-05-09T02:42:00 | 54.392025 | 7.894080 | 2.0 | 11.854 | 2 | 35.444 | 11.938 | 30.639 | 2 |
| 2025-05-09T02:43:00 | 54.390301 | 7.894602 | 2.0 | 11.846 | 2 | 35.480 | 12.012 | 30.613 | 2 |
| 2025-05-09T02:44:00 | 54.388635 | 7.895087 | 2.0 | 11.822 | 2 | 35.504 | 12.002 | 30.644 | 2 |
| 2025-05-09T02:45:00 | 54.387044 | 7.895519 | 2.0 | 11.798 | 2 | 35.427 | 11.982 | 30.587 | 2 |
| 2025-05-09T02:46:00 | 54.385533 | 7.895942 | 2.0 | 11.755 | 2 | 35.371 | 11.955 | 30.555 | 2 |
| 2025-05-09T02:47:00 | 54.384072 | 7.896375 | 2.0 | 11.729 | 2 | 35.403 | 11.915 | 30.619 | 2 |
| 2025-05-09T02:48:00 | 54.382640 | 7.896783 | 2.0 | 11.723 | 2 | 35.373 | 11.894 | 30.607 | 2 |
| 2025-05-09T02:49:00 | 54.381212 | 7.897156 | 2.0 | 11.694 | 2 | 35.244 | 11.882 | 30.493 | 2 |
| 2025-05-09T02:50:00 | 54.379764 | 7.897522 | 2.0 | 11.661 | 2 | 35.258 | 11.853 | 30.530 | 2 |
| 2025-05-09T02:51:00 | 54.378327 | 7.897894 | 2.0 | 11.633 | 2 | 35.210 | 11.823 | 30.509 | 2 |
| 2025-05-09T02:52:00 | 54.376890 | 7.898324 | 2.0 | 11.621 | 2 | 35.195 | 11.796 | 30.517 | 2 |
| 2025-05-09T02:53:00 | 54.375428 | 7.898734 | 2.0 | 11.623 | 2 | 35.098 | 11.785 | 30.432 | 2 |
| 2025-05-09T02:54:00 | 54.373953 | 7.899100 | 2.0 | 11.623 | 2 | 35.153 | 11.788 | 30.483 | 2 |
| 2025-05-09T02:55:00 | 54.372483 | 7.899485 | 2.0 | 11.603 | 2 | 35.155 | 11.785 | 30.487 | 2 |
| 2025-05-09T02:56:00 | 54.371005 | 7.899882 | 2.0 | 11.581 | 2 | 35.243 | 11.765 | 30.588 | 2 |
| 2025-05-09T02:57:00 | 54.369514 | 7.900283 | 2.0 | 11.570 | 2 | 35.202 | 11.746 | 30.564 | 2 |
| 2025-05-09T02:58:00 | 54.368043 | 7.900704 | 2.0 | 11.560 | 2 | 35.174 | 11.734 | 30.547 | 2 |
| 2025-05-09T02:59:00 | 54.366608 | 7.901125 | 2.0 | 11.564 | 2 | 35.217 | 11.726 | 30.595 | 2 |
| 2025-05-09T03:00:00 | 54.365186 | 7.901527 | 2.0 | 11.577 | 2 | 35.243 | 11.732 | 30.615 | 2 |
| 2025-05-09T03:01:00 | 54.363771 | 7.901947 | 2.0 | 11.592 | 2 | 35.186 | 11.745 | 30.550 | 2 |
| 2025-05-09T03:02:00 | 54.362344 | 7.902344 | 2.0 | 11.592 | 2 | 35.310 | 11.757 | 30.659 | 2 |
| 2025-05-09T03:03:00 | 54.360884 | 7.902597 | 2.0 | 11.588 | 2 | 35.320 | 11.756 | 30.670 | 2 |
| 2025-05-09T03:04:00 | 54.359409 | 7.902798 | 2.0 | 11.569 | 2 | 35.341 | 11.749 | 30.696 | 2 |
| 2025-05-09T03:05:00 | 54.357933 | 7.903026 | 2.0 | 11.563 | 2 | 35.387 | 11.734 | 30.753 | 2 |
| 2025-05-09T03:06:00 | 54.356453 | 7.903262 | 2.0 | 11.554 | 2 | 35.420 | 11.726 | 30.791 | 2 |
| 2025-05-09T03:07:00 | 54.354965 | 7.903476 | 2.0 | 11.560 | 2 | 35.360 | 11.721 | 30.737 | 2 |
| 2025-05-09T03:08:00 | 54.353479 | 7.903664 | 2.0 | 11.531 | 2 | 35.454 | 11.718 | 30.831 | 2 |
| 2025-05-09T03:09:00 | 54.351993 | 7.903884 | 2.0 | 11.480 | 2 | 35.455 | 11.689 | 30.856 | 2 |
| 2025-05-09T03:10:00 | 54.350520 | 7.904122 | 2.0 | 11.426 | 2 | 35.469 | 11.639 | 30.911 | 2 |
| 2025-05-09T03:11:00 | 54.349095 | 7.904353 | 2.0 | 11.361 | 2 | 35.434 | 11.586 | 30.921 | 2 |
| 2025-05-09T03:12:00 | 54.347734 | 7.904586 | 2.0 | 11.323 | 2 | 35.423 | 11.522 | 30.964 | 2 |
| 2025-05-09T03:13:00 | 54.346418 | 7.904807 | 2.0 | 11.250 | 2 | 35.414 | 11.478 | 30.992 | 2 |
| 2025-05-09T03:14:00 | 54.345131 | 7.905038 | 2.0 | 11.209 | 2 | 35.425 | 11.415 | 31.055 | 2 |
| 2025-05-09T03:15:00 | 54.343846 | 7.905252 | 2.0 | 11.196 | 2 | 35.412 | 11.378 | 31.074 | 2 |
| 2025-05-09T03:16:00 | 54.342538 | 7.905431 | 2.0 | 11.198 | 2 | 35.414 | 11.364 | 31.088 | 2 |
| 2025-05-09T03:17:00 | 54.341210 | 7.905593 | 2.0 | 11.265 | 2 | 35.414 | 11.371 | 31.082 | 2 |
| 2025-05-09T03:18:00 | 54.339881 | 7.905799 | 2.0 | 11.299 | 2 | 35.456 | 11.436 | 31.068 | 2 |
| 2025-05-09T03:19:00 | 54.338544 | 7.906002 | 2.0 | 11.367 | 2 | 35.483 | 11.473 | 31.063 | 2 |
| 2025-05-09T03:20:00 | 54.337205 | 7.906161 | 2.0 | 11.414 | 2 | 35.508 | 11.533 | 31.037 | 2 |
| 2025-05-09T03:21:00 | 54.335872 | 7.906330 | 2.0 | 11.434 | 2 | 35.542 | 11.582 | 31.029 | 2 |
| 2025-05-09T03:22:00 | 54.334543 | 7.906523 | 2.0 | 11.424 | 2 | 35.553 | 11.596 | 31.028 | 2 |
| 2025-05-09T03:23:00 | 54.333218 | 7.906765 | 2.0 | 11.392 | 2 | 35.567 | 11.582 | 31.053 | 2 |
| 2025-05-09T03:24:00 | 54.331891 | 7.907015 | 2.0 | 11.361 | 2 | 35.558 | 11.552 | 31.070 | 2 |
| 2025-05-09T03:25:00 | 54.330560 | 7.907246 | 2.0 | 11.344 | 2 | 35.550 | 11.527 | 31.083 | 2 |
| 2025-05-09T03:26:00 | 54.329229 | 7.907458 | 2.0 | 11.317 | 2 | 35.547 | 11.506 | 31.098 | 2 |
| 2025-05-09T03:27:00 | 54.327896 | 7.907653 | 2.0 | 11.273 | 2 | 35.534 | 11.476 | 31.110 | 2 |
| 2025-05-09T03:28:00 | 54.326563 | 7.907842 | 2.0 | 11.218 | 2 | 35.518 | 11.432 | 31.132 | 2 |
| 2025-05-09T03:29:00 | 54.325229 | 7.908038 | 2.0 | 11.167 | 2 | 35.499 | 11.380 | 31.157 | 2 |
| 2025-05-09T03:30:00 | 54.323922 | 7.908389 | 2.0 | 11.134 | 2 | 35.480 | 11.330 | 31.181 | 2 |
| 2025-05-09T03:31:00 | 54.322635 | 7.908822 | 2.0 | 11.101 | 2 | 35.461 | 11.299 | 31.188 | 2 |
| 2025-05-09T03:32:00 | 54.321348 | 7.909225 | 2.0 | 11.065 | 2 | 35.434 | 11.264 | 31.191 | 2 |
| 2025-05-09T03:33:00 | 54.320064 | 7.909628 | 2.0 | 11.041 | 2 | 35.409 | 11.229 | 31.197 | 2 |
| 2025-05-09T03:34:00 | 54.318786 | 7.910044 | 2.0 | 11.028 | 2 | 35.396 | 11.207 | 31.203 | 2 |
| 2025-05-09T03:35:00 | 54.317490 | 7.910428 | 2.0 | 11.025 | 2 | 35.389 | 11.198 | 31.203 | 2 |
| 2025-05-09T03:36:00 | 54.316169 | 7.910791 | 2.0 | 11.008 | 2 | 35.389 | 11.190 | 31.210 | 2 |
| 2025-05-09T03:37:00 | 54.314811 | 7.911150 | 2.0 | 11.002 | 2 | 35.381 | 11.177 | 31.213 | 2 |
| 2025-05-09T03:38:00 | 54.313451 | 7.911551 | 2.0 | 10.979 | 2 | 35.373 | 11.165 | 31.216 | 2 |
| 2025-05-09T03:39:00 | 54.312090 | 7.912001 | 2.0 | 10.961 | 2 | 35.363 | 11.146 | 31.222 | 2 |
| 2025-05-09T03:40:00 | 54.310724 | 7.912438 | 2.0 | 10.952 | 2 | 35.352 | 11.125 | 31.229 | 2 |
| 2025-05-09T03:41:00 | 54.309349 | 7.912843 | 2.0 | 10.918 | 2 | 35.337 | 11.118 | 31.220 | 2 |
| 2025-05-09T03:42:00 | 54.307968 | 7.913252 | 2.0 | 10.885 | 2 | 35.322 | 11.083 | 31.235 | 2 |
| 2025-05-09T03:43:00 | 54.306613 | 7.913685 | 2.0 | 10.861 | 2 | 35.303 | 11.051 | 31.244 | 2 |
| 2025-05-09T03:44:00 | 54.305270 | 7.914106 | 2.0 | 10.834 | 2 | 35.281 | 11.028 | 31.242 | 2 |
| 2025-05-09T03:45:00 | 54.303933 | 7.914532 | 2.0 | 10.789 | 2 | 35.263 | 10.995 | 31.252 | 2 |
| 2025-05-09T03:46:00 | 54.302614 | 7.914962 | 2.0 | 10.789 | 2 | 35.249 | 10.962 | 31.266 | 2 |
| 2025-05-09T03:47:00 | 54.301299 | 7.915403 | 2.0 | 10.779 | 2 | 35.248 | 10.959 | 31.268 | 2 |
| 2025-05-09T03:48:00 | 54.299979 | 7.915827 | 2.0 | 10.756 | 2 | 35.255 | 10.947 | 31.285 | 2 |
| 2025-05-09T03:49:00 | 54.298650 | 7.916217 | 2.0 | 10.752 | 2 | 35.253 | 10.926 | 31.301 | 2 |
| 2025-05-09T03:50:00 | 54.297319 | 7.916563 | 2.0 | 10.792 | 2 | 35.242 | 10.919 | 31.296 | 2 |
| 2025-05-09T03:51:00 | 54.295998 | 7.916946 | 2.0 | 11.114 | 2 | 35.165 | 11.034 | 31.123 | 2 |
| 2025-05-09T03:52:00 | 54.294680 | 7.917338 | 2.0 | 11.120 | 2 | 35.233 | 11.271 | 30.989 | 2 |
| 2025-05-09T03:53:00 | 54.293351 | 7.917681 | 2.0 | 10.809 | 2 | 35.176 | 11.154 | 31.032 | 2 |
| 2025-05-09T03:54:00 | 54.292035 | 7.918008 | 2.0 | 10.839 | 2 | 35.120 | 10.991 | 31.115 | 2 |
| 2025-05-09T03:55:00 | 54.290736 | 7.918391 | 2.0 | 10.989 | 2 | 35.159 | 11.024 | 31.125 | 2 |
| 2025-05-09T03:56:00 | 54.289457 | 7.918843 | 2.0 | 11.067 | 2 | 35.107 | 11.162 | 30.958 | 2 |
| 2025-05-09T03:57:00 | 54.288196 | 7.919334 | 2.0 | 11.124 | 2 | 35.137 | 11.231 | 30.929 | 2 |
| 2025-05-09T03:58:00 | 54.286921 | 7.919803 | 2.0 | 11.274 | 2 | 35.148 | 11.313 | 30.871 | 2 |
| 2025-05-09T03:59:00 | 54.285626 | 7.920208 | 2.0 | 11.316 | 2 | 35.232 | 11.438 | 30.848 | 2 |
| 2025-05-09T04:00:00 | 54.284315 | 7.920550 | 2.0 | 11.256 | 2 | 35.269 | 11.465 | 30.862 | 2 |
| 2025-05-09T04:01:00 | 54.282984 | 7.920905 | 2.0 | 11.281 | 2 | 35.266 | 11.426 | 30.892 | 2 |
| 2025-05-09T04:02:00 | 54.281640 | 7.921297 | 2.0 | 11.313 | 2 | 35.273 | 11.449 | 30.879 | 2 |
| 2025-05-09T04:03:00 | 54.280287 | 7.921734 | 2.0 | 11.334 | 2 | 35.245 | 11.480 | 30.826 | 2 |
| 2025-05-09T04:04:00 | 54.278919 | 7.922167 | 2.0 | 11.323 | 2 | 35.223 | 11.496 | 30.791 | 2 |
| 2025-05-09T04:05:00 | 54.277542 | 7.922582 | 2.0 | 11.295 | 2 | 35.273 | 11.485 | 30.849 | 2 |
| 2025-05-09T04:06:00 | 54.276174 | 7.922993 | 2.0 | 11.308 | 2 | 35.310 | 11.461 | 30.905 | 2 |
| 2025-05-09T04:07:00 | 54.274808 | 7.923428 | 2.0 | 11.409 | 2 | 35.330 | 11.493 | 30.898 | 2 |
| 2025-05-09T04:08:00 | 54.273444 | 7.923898 | 2.0 | 11.468 | 2 | 35.348 | 11.578 | 30.844 | 2 |
| 2025-05-09T04:09:00 | 54.272075 | 7.924359 | 2.0 | 11.527 | 2 | 35.408 | 11.639 | 30.852 | 2 |
| 2025-05-09T04:10:00 | 54.270703 | 7.924793 | 2.0 | 11.573 | 2 | 35.403 | 11.694 | 30.801 | 2 |
| 2025-05-09T04:11:00 | 54.269333 | 7.925218 | 2.0 | 11.600 | 2 | 35.419 | 11.738 | 30.780 | 2 |
| 2025-05-09T04:12:00 | 54.267959 | 7.925648 | 2.0 | 11.608 | 2 | 35.422 | 11.760 | 30.765 | 2 |
| 2025-05-09T04:13:00 | 54.266596 | 7.926092 | 2.0 | 11.597 | 2 | 35.429 | 11.769 | 30.764 | 2 |
| 2025-05-09T04:14:00 | 54.265236 | 7.926539 | 2.0 | 11.587 | 2 | 35.450 | 11.756 | 30.795 | 2 |
| 2025-05-09T04:15:00 | 54.263870 | 7.926934 | 2.0 | 11.604 | 2 | 35.447 | 11.752 | 30.796 | 2 |
| 2025-05-09T04:16:00 | 54.262506 | 7.927303 | 2.0 | 11.652 | 2 | 35.442 | 11.773 | 30.773 | 2 |
| 2025-05-09T04:17:00 | 54.261151 | 7.927724 | 2.0 | 11.683 | 2 | 35.463 | 11.821 | 30.754 | 2 |
| 2025-05-09T04:18:00 | 54.259792 | 7.928153 | 2.0 | 11.701 | 2 | 35.474 | 11.847 | 30.743 | 2 |
| 2025-05-09T04:19:00 | 54.258435 | 7.928576 | 2.0 | 11.709 | 2 | 35.479 | 11.861 | 30.736 | 2 |
| 2025-05-09T04:20:00 | 54.257082 | 7.929001 | 2.0 | 11.744 | 2 | 35.497 | 11.875 | 30.742 | 2 |
| 2025-05-09T04:21:00 | 54.255723 | 7.929352 | 2.0 | 11.790 | 2 | 35.504 | 11.914 | 30.717 | 2 |
| 2025-05-09T04:22:00 | 54.254365 | 7.929724 | 2.0 | 11.794 | 2 | 35.520 | 11.950 | 30.702 | 2 |
| 2025-05-09T04:23:00 | 54.253004 | 7.930167 | 2.0 | 11.766 | 2 | 35.524 | 11.950 | 30.706 | 2 |
| 2025-05-09T04:24:00 | 54.251642 | 7.930632 | 2.0 | 11.754 | 2 | 35.511 | 11.926 | 30.714 | 2 |
| 2025-05-09T04:25:00 | 54.250275 | 7.931068 | 2.0 | 11.749 | 2 | 35.503 | 11.916 | 30.714 | 2 |
| 2025-05-09T04:26:00 | 54.248897 | 7.931468 | 2.0 | 11.754 | 2 | 35.495 | 11.913 | 30.709 | 2 |
| 2025-05-09T04:27:00 | 54.247519 | 7.931856 | 2.0 | 11.752 | 2 | 35.487 | 11.915 | 30.700 | 2 |
| 2025-05-09T04:28:00 | 54.246153 | 7.932279 | 2.0 | 11.758 | 2 | 35.475 | 11.916 | 30.687 | 2 |
| 2025-05-09T04:29:00 | 54.244792 | 7.932733 | 2.0 | 11.761 | 2 | 35.467 | 11.920 | 30.676 | 2 |
| 2025-05-09T04:30:00 | 54.243427 | 7.933163 | 2.0 | 11.758 | 2 | 35.461 | 11.924 | 30.667 | 2 |
| 2025-05-09T04:31:00 | 54.242050 | 7.933586 | 2.0 | 11.755 | 2 | 35.459 | 11.919 | 30.669 | 2 |
| 2025-05-09T04:32:00 | 54.240669 | 7.934014 | 2.0 | 11.736 | 2 | 35.458 | 11.907 | 30.678 | 2 |
| 2025-05-09T04:33:00 | 54.239288 | 7.934430 | 2.0 | 11.736 | 2 | 35.451 | 11.898 | 30.679 | 2 |
| 2025-05-09T04:34:00 | 54.237897 | 7.934817 | 2.0 | 11.710 | 2 | 35.446 | 11.896 | 30.676 | 2 |
| 2025-05-09T04:35:00 | 54.236496 | 7.935203 | 2.0 | 11.692 | 2 | 35.445 | 11.870 | 30.696 | 2 |
| 2025-05-09T04:36:00 | 54.235102 | 7.935615 | 2.0 | 11.666 | 2 | 35.439 | 11.850 | 30.707 | 2 |
| 2025-05-09T04:37:00 | 54.233713 | 7.936071 | 2.0 | 11.599 | 2 | 35.441 | 11.814 | 30.739 | 2 |
| 2025-05-09T04:38:00 | 54.232318 | 7.936526 | 2.0 | 11.587 | 2 | 35.434 | 11.770 | 30.768 | 2 |
| 2025-05-09T04:39:00 | 54.230921 | 7.936958 | 2.0 | 11.585 | 2 | 35.451 | 11.746 | 30.804 | 2 |
| 2025-05-09T04:40:00 | 54.229519 | 7.937423 | 2.0 | 11.539 | 2 | 35.477 | 11.741 | 30.834 | 2 |
| 2025-05-09T04:41:00 | 54.228100 | 7.937855 | 2.0 | 11.530 | 2 | 35.475 | 11.698 | 30.867 | 2 |
| 2025-05-09T04:42:00 | 54.226676 | 7.938250 | 2.0 | 11.449 | 2 | 35.463 | 11.667 | 30.882 | 2 |
| 2025-05-09T04:43:00 | 54.225245 | 7.938620 | 2.0 | 11.381 | 2 | 35.454 | 11.627 | 30.906 | 2 |
| 2025-05-09T04:44:00 | 54.223810 | 7.939017 | 2.0 | 11.472 | 2 | 35.440 | 11.550 | 30.957 | 2 |
| 2025-05-09T04:45:00 | 54.222365 | 7.939389 | 2.0 | 11.397 | 2 | 35.431 | 11.642 | 30.872 | 2 |
| 2025-05-09T04:46:00 | 54.220931 | 7.939828 | 2.0 | 11.361 | 2 | 35.421 | 11.541 | 30.946 | 2 |
| 2025-05-09T04:47:00 | 54.219508 | 7.940218 | 2.0 | 11.113 | 2 | 35.402 | 11.477 | 30.981 | 2 |
| 2025-05-09T04:48:00 | 54.218100 | 7.940681 | 2.0 | 11.196 | 2 | 35.366 | 11.299 | 31.096 | 2 |
| 2025-05-09T04:49:00 | 54.216692 | 7.941177 | 2.0 | 11.284 | 2 | 35.345 | 11.398 | 30.992 | 2 |
| 2025-05-09T04:50:00 | 54.215259 | 7.941312 | 2.0 | 11.246 | 2 | 35.336 | 11.447 | 30.942 | 2 |
| 2025-05-09T04:51:00 | 54.213829 | 7.941205 | 2.0 | 11.116 | 2 | 35.316 | 11.433 | 30.934 | 2 |
| 2025-05-09T12:18:00 | 54.147372 | 7.893763 | 2.0 | 12.741 | 2 | 35.893 | 13.142 | 30.093 | 2 |
| 2025-05-09T12:19:00 | 54.146359 | 7.889467 | 2.0 | 12.821 | 2 | 35.493 | 12.993 | 29.837 | 2 |
| 2025-05-09T12:20:00 | 54.146679 | 7.884926 | 2.0 | 12.500 | 2 | 35.449 | 12.940 | 29.838 | 2 |
| 2025-05-09T12:21:00 | 54.148109 | 7.881429 | 2.0 | 12.787 | 2 | 35.306 | 12.781 | 29.830 | 2 |
| 2025-05-09T12:22:00 | 54.149607 | 7.878099 | 2.0 | 12.855 | 2 | 35.459 | 12.977 | 29.818 | 2 |
| 2025-05-09T12:23:00 | 54.151081 | 7.874739 | 2.0 | 12.845 | 2 | 35.586 | 13.034 | 29.892 | 2 |
| 2025-05-09T12:24:00 | 54.152555 | 7.871410 | 2.0 | 12.817 | 2 | 35.605 | 13.020 | 29.921 | 2 |
| 2025-05-09T12:25:00 | 54.153965 | 7.868032 | 2.0 | 12.782 | 2 | 35.606 | 12.996 | 29.940 | 2 |
| 2025-05-09T12:26:00 | 54.155415 | 7.864759 | 2.0 | 12.709 | 2 | 35.584 | 12.957 | 29.951 | 2 |
| 2025-05-09T12:27:00 | 54.156800 | 7.861410 | 2.0 | 12.823 | 2 | 35.563 | 12.897 | 29.979 | 2 |
| 2025-05-09T12:28:00 | 54.158093 | 7.857992 | 2.0 | 12.851 | 2 | 35.614 | 12.986 | 29.956 | 2 |
| 2025-05-09T12:29:00 | 54.159356 | 7.854601 | 2.0 | 12.883 | 2 | 35.666 | 13.028 | 29.971 | 2 |
| 2025-05-09T12:30:00 | 54.160601 | 7.851224 | 2.0 | 12.860 | 2 | 35.696 | 13.044 | 29.986 | 2 |
| 2025-05-09T12:31:00 | 54.161828 | 7.847791 | 2.0 | 12.749 | 2 | 35.695 | 13.028 | 29.998 | 2 |
| 2025-05-09T12:32:00 | 54.163203 | 7.844052 | 2.0 | 12.523 | 2 | 35.583 | 12.839 | 30.043 | 2 |
| 2025-05-09T12:33:00 | 54.164676 | 7.840187 | 2.0 | 12.752 | 2 | 35.531 | 12.776 | 30.045 | 2 |
| 2025-05-09T12:34:00 | 54.166121 | 7.836224 | 2.0 | 12.760 | 2 | 35.643 | 12.913 | 30.041 | 2 |
| 2025-05-09T12:35:00 | 54.167591 | 7.832258 | 2.0 | 12.844 | 2 | 35.693 | 12.945 | 30.062 | 2 |
| 2025-05-09T12:36:00 | 54.168884 | 7.828106 | 2.0 | 12.825 | 2 | 35.769 | 13.005 | 30.085 | 2 |
| 2025-05-09T12:37:00 | 54.170237 | 7.823979 | 2.0 | 12.876 | 2 | 35.791 | 13.001 | 30.109 | 2 |
| 2025-05-09T12:38:00 | 54.171540 | 7.819836 | 2.0 | 12.834 | 2 | 35.845 | 13.046 | 30.124 | 2 |
| 2025-05-09T12:39:00 | 54.172809 | 7.815665 | 2.0 | 12.791 | 2 | 35.835 | 12.996 | 30.154 | 2 |
| 2025-05-09T12:40:00 | 54.174088 | 7.811531 | 2.0 | 12.798 | 2 | 35.825 | 12.948 | 30.183 | 2 |
| 2025-05-09T12:41:00 | 54.175459 | 7.807093 | 2.0 | 12.617 | 2 | 35.823 | 12.924 | 30.200 | 2 |
| 2025-05-09T12:42:00 | 54.176865 | 7.802351 | 2.0 | 12.849 | 2 | 35.802 | 12.888 | 30.209 | 2 |
| 2025-05-09T12:43:00 | 54.178383 | 7.797661 | 2.0 | 12.297 | 2 | 35.884 | 12.957 | 30.231 | 2 |
| 2025-05-09T12:44:00 | 54.179859 | 7.792889 | 2.0 | 12.266 | 2 | 35.614 | 12.471 | 30.367 | 2 |
| 2025-05-09T12:45:00 | 54.181317 | 7.788111 | 2.0 | 12.307 | 2 | 35.607 | 12.445 | 30.382 | 2 |
| 2025-05-09T12:46:00 | 54.182120 | 7.782972 | 2.0 | 12.051 | 2 | 35.610 | 12.402 | 30.419 | 2 |
| 2025-05-09T12:47:00 | 54.182914 | 7.777754 | 2.0 | 12.179 | 2 | 35.553 | 12.263 | 30.478 | 2 |
| 2025-05-09T12:48:00 | 54.183680 | 7.772497 | 2.0 | 12.592 | 2 | 35.645 | 12.464 | 30.402 | 2 |
| 2025-05-09T12:49:00 | 54.184454 | 7.767223 | 2.0 | 12.573 | 2 | 35.844 | 12.713 | 30.389 | 2 |
| 2025-05-09T12:50:00 | 54.185191 | 7.761935 | 2.0 | 12.490 | 2 | 35.939 | 12.725 | 30.469 | 2 |
| 2025-05-09T12:51:00 | 54.185942 | 7.756465 | 2.0 | 12.505 | 2 | 35.916 | 12.681 | 30.483 | 2 |
| 2025-05-09T12:52:00 | 54.186627 | 7.750704 | 2.0 | 12.464 | 2 | 35.909 | 12.640 | 30.509 | 2 |
| 2025-05-09T12:53:00 | 54.187344 | 7.744940 | 2.0 | 12.554 | 2 | 35.935 | 12.622 | 30.548 | 2 |
| 2025-05-09T12:54:00 | 54.188200 | 7.739726 | 2.0 | 12.352 | 2 | 36.039 | 12.701 | 30.583 | 2 |
| 2025-05-09T12:55:00 | 54.189081 | 7.734941 | 2.0 | 12.133 | 2 | 36.010 | 12.499 | 30.719 | 2 |
| 2025-05-09T12:56:00 | 54.189864 | 7.730375 | 2.0 | 12.450 | 2 | 36.017 | 12.351 | 30.847 | 2 |
| 2025-05-09T12:57:00 | 54.190644 | 7.726405 | 2.0 | 12.239 | 2 | 36.155 | 12.591 | 30.782 | 2 |
| 2025-05-09T12:58:00 | 54.191189 | 7.723123 | 2.0 | 12.298 | 2 | 36.258 | 12.441 | 31.002 | 2 |
| 2025-05-09T12:59:00 | 54.191687 | 7.720234 | 2.0 | 12.185 | 2 | 36.327 | 12.454 | 31.057 | 2 |
| 2025-05-09T13:00:00 | 54.192150 | 7.717592 | 2.0 | 12.166 | 2 | 36.377 | 12.363 | 31.180 | 2 |
| 2025-05-09T13:01:00 | 54.192591 | 7.715016 | 2.0 | 12.361 | 2 | 36.386 | 12.362 | 31.190 | 2 |
| 2025-05-09T13:02:00 | 54.193038 | 7.712420 | 2.0 | 12.234 | 2 | 36.431 | 12.547 | 31.079 | 2 |
| 2025-05-09T13:03:00 | 54.193503 | 7.709788 | 2.0 | 12.103 | 2 | 36.441 | 12.384 | 31.224 | 2 |
| 2025-05-09T13:04:00 | 54.193957 | 7.707133 | 2.0 | 12.113 | 2 | 36.437 | 12.282 | 31.305 | 2 |
| 2025-05-09T13:05:00 | 54.194432 | 7.704487 | 2.0 | 12.255 | 2 | 36.439 | 12.342 | 31.257 | 2 |
| 2025-05-09T13:06:00 | 54.194927 | 7.701860 | 2.0 | 12.676 | 2 | 36.516 | 12.516 | 31.185 | 2 |
| 2025-05-09T13:07:00 | 54.195423 | 7.699224 | 2.0 | 12.566 | 2 | 36.724 | 12.828 | 31.124 | 2 |
| 2025-05-09T13:08:00 | 54.195887 | 7.696495 | 2.0 | 12.201 | 2 | 36.692 | 12.706 | 31.195 | 2 |
| 2025-05-09T13:09:00 | 54.196355 | 7.693698 | 2.0 | 12.573 | 2 | 36.605 | 12.469 | 31.309 | 2 |
| 2025-05-09T13:10:00 | 54.196867 | 7.690877 | 2.0 | 12.634 | 2 | 36.736 | 12.750 | 31.200 | 2 |
| 2025-05-09T13:11:00 | 54.197409 | 7.688045 | 2.0 | 12.318 | 2 | 36.763 | 12.735 | 31.238 | 2 |
| 2025-05-09T13:12:00 | 54.197895 | 7.685169 | 2.0 | 12.071 | 2 | 36.677 | 12.494 | 31.357 | 2 |
| 2025-05-09T13:13:00 | 54.198399 | 7.682298 | 2.0 | 12.003 | 2 | 36.670 | 12.247 | 31.557 | 2 |
| 2025-05-09T13:14:00 | 54.198943 | 7.679434 | 2.0 | 12.082 | 2 | 36.666 | 12.265 | 31.538 | 2 |
| 2025-05-09T13:15:00 | 54.199511 | 7.676579 | 2.0 | 12.116 | 2 | 36.677 | 12.244 | 31.566 | 2 |
| 2025-05-09T13:16:00 | 54.200071 | 7.673706 | 2.0 | 12.152 | 2 | 36.686 | 12.325 | 31.507 | 2 |
| 2025-05-09T13:17:00 | 54.200604 | 7.670813 | 2.0 | 12.097 | 2 | 36.724 | 12.314 | 31.552 | 2 |
| 2025-05-09T13:18:00 | 54.201154 | 7.667919 | 2.0 | 12.373 | 2 | 36.723 | 12.276 | 31.583 | 2 |
| 2025-05-09T13:19:00 | 54.201721 | 7.665027 | 2.0 | 12.622 | 2 | 36.906 | 12.609 | 31.478 | 2 |
| 2025-05-09T13:20:00 | 54.202257 | 7.662127 | 2.0 | 12.465 | 2 | 37.023 | 12.695 | 31.517 | 2 |
| 2025-05-09T13:21:00 | 54.202786 | 7.659227 | 2.0 | 11.933 | 2 | 36.995 | 12.548 | 31.614 | 2 |
| 2025-05-09T13:22:00 | 54.203342 | 7.656342 | 2.0 | 11.964 | 2 | 36.864 | 12.250 | 31.740 | 2 |
| 2025-05-09T13:23:00 | 54.203925 | 7.653454 | 2.0 | 12.006 | 2 | 36.811 | 12.103 | 31.814 | 2 |
| 2025-05-09T13:24:00 | 54.204477 | 7.650554 | 2.0 | 11.739 | 2 | 36.892 | 12.137 | 31.863 | 2 |
| 2025-05-09T13:25:00 | 54.205013 | 7.647639 | 2.0 | 11.619 | 2 | 36.847 | 11.915 | 32.010 | 2 |
| 2025-05-09T13:26:00 | 54.205553 | 7.644843 | 2.0 | 11.658 | 2 | 36.810 | 11.810 | 32.064 | 2 |
| 2025-05-09T13:27:00 | 54.206072 | 7.642341 | 2.0 | 11.734 | 2 | 36.831 | 11.846 | 32.054 | 2 |
| 2025-05-09T13:28:00 | 54.206507 | 7.639956 | 2.0 | 12.158 | 2 | 36.888 | 11.970 | 32.002 | 2 |
| 2025-05-09T13:29:00 | 54.206893 | 7.637607 | 2.0 | 11.812 | 2 | 37.006 | 12.200 | 31.919 | 2 |
| 2025-05-09T13:30:00 | 54.207270 | 7.635302 | 2.0 | 11.882 | 2 | 37.036 | 12.211 | 31.938 | 2 |
| 2025-05-09T13:31:00 | 54.207664 | 7.633033 | 2.0 | 11.676 | 2 | 36.970 | 11.906 | 32.136 | 2 |
| 2025-05-09T13:32:00 | 54.208046 | 7.630772 | 2.0 | 11.360 | 2 | 36.898 | 11.805 | 32.154 | 2 |
| 2025-05-09T13:33:00 | 54.208404 | 7.628525 | 2.0 | 11.647 | 2 | 36.819 | 11.698 | 32.170 | 2 |
| 2025-05-09T13:34:00 | 54.208770 | 7.626275 | 2.0 | 11.546 | 2 | 36.898 | 11.752 | 32.200 | 2 |
| 2025-05-09T13:35:00 | 54.209127 | 7.624026 | 2.0 | 11.367 | 2 | 36.907 | 11.733 | 32.225 | 2 |
| 2025-05-09T13:36:00 | 54.209491 | 7.621776 | 2.0 | 11.198 | 2 | 36.781 | 11.523 | 32.285 | 2 |
| 2025-05-09T13:37:00 | 54.209777 | 7.619489 | 2.0 | 11.501 | 2 | 36.717 | 11.465 | 32.273 | 2 |
| 2025-05-09T13:38:00 | 54.210063 | 7.617242 | 2.0 | 11.595 | 2 | 36.889 | 11.704 | 32.233 | 2 |
| 2025-05-09T13:39:00 | 54.210332 | 7.615095 | 2.0 | 11.604 | 2 | 36.939 | 11.752 | 32.240 | 2 |
| 2025-05-09T13:40:00 | 54.210611 | 7.613082 | 2.0 | 11.523 | 2 | 36.950 | 11.771 | 32.234 | 2 |
| 2025-05-09T13:41:00 | 54.210854 | 7.611157 | 2.0 | 11.574 | 2 | 36.916 | 11.721 | 32.244 | 2 |
| 2025-05-09T13:42:00 | 54.211071 | 7.609300 | 2.0 | 11.601 | 2 | 36.937 | 11.746 | 32.243 | 2 |
| 2025-05-09T13:43:00 | 54.211292 | 7.607500 | 2.0 | 11.627 | 2 | 36.968 | 11.783 | 32.241 | 2 |
| 2025-05-09T13:44:00 | 54.211512 | 7.605729 | 2.0 | 11.576 | 2 | 36.975 | 11.780 | 32.250 | 2 |
| 2025-05-09T13:45:00 | 54.211716 | 7.603980 | 2.0 | 11.622 | 2 | 36.957 | 11.759 | 32.251 | 2 |
| 2025-05-09T13:46:00 | 54.211908 | 7.602248 | 2.0 | 11.691 | 2 | 37.041 | 11.828 | 32.273 | 2 |
| 2025-05-09T13:47:00 | 54.212190 | 7.600728 | 2.0 | 11.652 | 2 | 37.111 | 11.858 | 32.314 | 2 |
| 2025-05-09T13:48:00 | 54.212559 | 7.600206 | 2.0 | 11.648 | 2 | 37.088 | 11.825 | 32.321 | 2 |
| 2025-05-09T13:49:00 | 54.212699 | 7.600040 | 2.0 | 11.656 | 2 | 37.083 | 11.822 | 32.318 | 2 |
| 2025-05-09T13:50:00 | 54.212724 | 7.599926 | 2.0 | 11.659 | 2 | 37.098 | 11.838 | 32.319 | 2 |
| 2025-05-09T13:51:00 | 54.212758 | 7.599887 | 2.0 | 11.679 | 2 | 37.108 | 11.849 | 32.319 | 2 |
| 2025-05-09T13:52:00 | 54.212787 | 7.599896 | 2.0 | 11.806 | 2 | 37.132 | 11.879 | 32.316 | 2 |
| 2025-05-09T13:53:00 | 54.212812 | 7.599886 | 2.0 | 11.855 | 2 | 37.227 | 12.008 | 32.296 | 2 |
| 2025-05-09T13:54:00 | 54.212846 | 7.599902 | 2.0 | 11.877 | 2 | 37.250 | 12.048 | 32.284 | 2 |
| 2025-05-09T13:55:00 | 54.212867 | 7.599955 | 2.0 | 11.927 | 2 | 37.252 | 12.074 | 32.263 | 2 |
| 2025-05-09T13:56:00 | 54.212887 | 7.599966 | 2.0 | 11.929 | 2 | 37.270 | 12.117 | 32.244 | 2 |
| 2025-05-09T13:57:00 | 54.212921 | 7.599926 | 2.0 | 11.982 | 2 | 37.269 | 12.125 | 32.236 | 2 |
| 2025-05-09T13:58:00 | 54.213009 | 7.599933 | 2.0 | 11.993 | 2 | 37.302 | 12.171 | 32.228 | 2 |
| 2025-05-09T13:59:00 | 54.213057 | 7.599994 | 2.0 | 11.956 | 2 | 37.310 | 12.180 | 32.228 | 2 |
| 2025-05-09T14:00:00 | 54.213074 | 7.600027 | 2.0 | 11.993 | 2 | 37.277 | 12.144 | 32.227 | 2 |
| 2025-05-09T14:01:00 | 54.213085 | 7.600047 | 2.0 | 12.032 | 2 | 37.298 | 12.187 | 32.210 | 2 |
| 2025-05-09T14:02:00 | 54.213111 | 7.600024 | 2.0 | 11.922 | 2 | 37.321 | 12.215 | 32.208 | 2 |
| 2025-05-09T14:03:00 | 54.213216 | 7.599965 | 2.0 | 11.881 | 2 | 37.248 | 12.120 | 32.220 | 2 |
| 2025-05-09T14:04:00 | 54.213284 | 7.600099 | 2.0 | 11.769 | 2 | 37.212 | 12.075 | 32.224 | 2 |
| 2025-05-09T14:05:00 | 54.213364 | 7.600698 | 2.0 | 11.914 | 2 | 37.131 | 11.976 | 32.231 | 2 |
| 2025-05-09T14:06:00 | 54.213776 | 7.600607 | 2.0 | 12.090 | 2 | 37.238 | 12.151 | 32.184 | 2 |
| 2025-05-09T14:07:00 | 54.214280 | 7.599711 | 2.0 | 11.851 | 2 | 37.283 | 12.172 | 32.209 | 2 |
| 2025-05-09T14:08:00 | 54.214488 | 7.598067 | 2.0 | 11.689 | 2 | 37.184 | 12.036 | 32.231 | 2 |
| 2025-05-09T14:09:00 | 54.214681 | 7.596181 | 2.0 | 11.724 | 2 | 37.118 | 11.933 | 32.256 | 2 |
| 2025-05-09T14:10:00 | 54.215105 | 7.595560 | 2.0 | 11.856 | 2 | 37.137 | 11.940 | 32.268 | 2 |
| 2025-05-09T14:11:00 | 54.215244 | 7.595653 | 2.0 | 11.605 | 2 | 37.168 | 11.971 | 32.271 | 2 |
| 2025-05-09T14:12:00 | 54.215298 | 7.595696 | 2.0 | 11.871 | 2 | 37.088 | 11.868 | 32.283 | 2 |
| 2025-05-09T14:13:00 | 54.215340 | 7.595693 | 2.0 | 11.828 | 2 | 37.201 | 12.047 | 32.238 | 2 |
| 2025-05-09T14:14:00 | 54.215404 | 7.595679 | 2.0 | 11.785 | 2 | 37.179 | 12.003 | 32.254 | 2 |
| 2025-05-09T14:15:00 | 54.215476 | 7.595818 | 2.0 | 11.598 | 2 | 37.125 | 11.944 | 32.253 | 2 |
| 2025-05-09T14:16:00 | 54.215744 | 7.595788 | 2.0 | 11.682 | 2 | 37.026 | 11.828 | 32.258 | 2 |
| 2025-05-09T14:17:00 | 54.216306 | 7.594992 | 2.0 | 11.728 | 2 | 37.078 | 11.903 | 32.243 | 2 |
| 2025-05-09T14:18:00 | 54.216973 | 7.593653 | 2.0 | 11.617 | 2 | 37.123 | 11.902 | 32.288 | 2 |
| 2025-05-09T14:19:00 | 54.217388 | 7.592141 | 2.0 | 11.595 | 2 | 37.087 | 11.826 | 32.319 | 2 |
| 2025-05-09T14:20:00 | 54.217745 | 7.591980 | 2.0 | 11.586 | 2 | 37.059 | 11.802 | 32.313 | 2 |
| 2025-05-09T14:21:00 | 54.217835 | 7.591932 | 2.0 | 11.607 | 2 | 37.053 | 11.796 | 32.312 | 2 |
| 2025-05-09T14:22:00 | 54.217878 | 7.591822 | 2.0 | 11.610 | 2 | 37.065 | 11.810 | 32.311 | 2 |
| 2025-05-09T14:23:00 | 54.217985 | 7.591801 | 2.0 | 11.600 | 2 | 37.069 | 11.813 | 32.313 | 2 |
| 2025-05-09T14:24:00 | 54.218152 | 7.591791 | 2.0 | 11.591 | 2 | 37.060 | 11.799 | 32.316 | 2 |
| 2025-05-09T14:25:00 | 54.218332 | 7.591902 | 2.0 | 11.591 | 2 | 37.058 | 11.800 | 32.313 | 2 |
| 2025-05-09T14:26:00 | 54.218382 | 7.592239 | 2.0 | 11.599 | 2 | 37.056 | 11.795 | 32.316 | 2 |
| 2025-05-09T14:27:00 | 54.218425 | 7.592601 | 2.0 | 11.782 | 2 | 37.088 | 11.845 | 32.303 | 2 |
| 2025-05-09T14:28:00 | 54.218481 | 7.592948 | 2.0 | 11.820 | 2 | 37.196 | 11.980 | 32.291 | 2 |
| 2025-05-09T14:29:00 | 54.218529 | 7.593263 | 2.0 | 11.765 | 2 | 37.206 | 12.000 | 32.283 | 2 |
| 2025-05-09T14:30:00 | 54.218559 | 7.593518 | 2.0 | 11.808 | 2 | 37.173 | 11.980 | 32.268 | 2 |
| 2025-05-09T14:31:00 | 54.218582 | 7.593746 | 2.0 | 11.832 | 2 | 37.198 | 12.012 | 32.265 | 2 |
| 2025-05-09T14:32:00 | 54.218591 | 7.593987 | 2.0 | 11.873 | 2 | 37.218 | 12.035 | 32.264 | 2 |
| 2025-05-09T14:33:00 | 54.218584 | 7.594265 | 2.0 | 11.872 | 2 | 37.246 | 12.061 | 32.269 | 2 |
| 2025-05-09T14:34:00 | 54.218570 | 7.594542 | 2.0 | 11.857 | 2 | 37.240 | 12.053 | 32.270 | 2 |
| 2025-05-09T14:35:00 | 54.218572 | 7.594773 | 2.0 | 11.850 | 2 | 37.231 | 12.039 | 32.273 | 2 |
| 2025-05-09T14:36:00 | 54.218593 | 7.594984 | 2.0 | 11.843 | 2 | 37.220 | 12.030 | 32.271 | 2 |
| 2025-05-09T14:37:00 | 54.218608 | 7.595207 | 2.0 | 11.828 | 2 | 37.199 | 12.021 | 32.258 | 2 |
| 2025-05-09T14:38:00 | 54.218604 | 7.595439 | 2.0 | 11.837 | 2 | 37.176 | 12.014 | 32.242 | 2 |
| 2025-05-09T14:39:00 | 54.218614 | 7.595614 | 2.0 | 11.873 | 2 | 37.182 | 12.031 | 32.233 | 2 |
| 2025-05-09T14:40:00 | 54.218626 | 7.595726 | 2.0 | 11.874 | 2 | 37.195 | 12.046 | 32.233 | 2 |
| 2025-05-09T14:41:00 | 54.218633 | 7.595784 | 2.0 | 11.898 | 2 | 37.203 | 12.059 | 32.229 | 2 |
| 2025-05-09T14:42:00 | 54.218625 | 7.595816 | 2.0 | 11.909 | 2 | 37.219 | 12.079 | 32.227 | 2 |
| 2025-05-09T14:43:00 | 54.218725 | 7.596017 | 2.0 | 11.926 | 2 | 37.214 | 12.082 | 32.220 | 2 |
| 2025-05-09T14:44:00 | 54.218685 | 7.596285 | 2.0 | 11.780 | 2 | 37.215 | 12.095 | 32.210 | 2 |
| 2025-05-09T14:45:00 | 54.218590 | 7.596366 | 2.0 | 11.477 | 2 | 37.071 | 11.891 | 32.247 | 2 |
| 2025-05-09T14:46:00 | 54.218548 | 7.596287 | 2.0 | 11.378 | 2 | 36.885 | 11.658 | 32.269 | 2 |
| 2025-05-09T14:47:00 | 54.218496 | 7.596181 | 2.0 | 11.397 | 2 | 36.809 | 11.575 | 32.267 | 2 |
| 2025-05-09T14:48:00 | 54.218415 | 7.596051 | 2.0 | 11.425 | 2 | 36.821 | 11.593 | 32.263 | 2 |
| 2025-05-09T14:49:00 | 54.218317 | 7.595887 | 2.0 | 11.533 | 2 | 36.842 | 11.623 | 32.257 | 2 |
| 2025-05-09T14:50:00 | 54.218227 | 7.595724 | 2.0 | 11.335 | 2 | 36.893 | 11.681 | 32.256 | 2 |
| 2025-05-09T14:51:00 | 54.218157 | 7.595588 | 2.0 | 11.488 | 2 | 36.803 | 11.561 | 32.273 | 2 |
| 2025-05-09T14:52:00 | 54.218072 | 7.595444 | 2.0 | 11.795 | 2 | 36.933 | 11.761 | 32.226 | 2 |
| 2025-05-09T14:53:00 | 54.217983 | 7.595285 | 2.0 | 11.730 | 2 | 37.082 | 11.931 | 32.223 | 2 |
| 2025-05-09T14:54:00 | 54.217900 | 7.595140 | 2.0 | 11.739 | 2 | 37.082 | 11.927 | 32.226 | 2 |
| 2025-05-09T14:55:00 | 54.217801 | 7.594854 | 2.0 | 11.609 | 2 | 37.069 | 11.901 | 32.236 | 2 |
| 2025-05-09T14:56:00 | 54.217804 | 7.594367 | 2.0 | 11.331 | 2 | 36.956 | 11.736 | 32.270 | 2 |
| 2025-05-09T14:57:00 | 54.217999 | 7.594107 | 2.0 | 11.681 | 2 | 36.804 | 11.559 | 32.276 | 2 |
| 2025-05-09T14:58:00 | 54.218277 | 7.594087 | 2.0 | 11.446 | 2 | 36.958 | 11.780 | 32.234 | 2 |
| 2025-05-09T14:59:00 | 54.218465 | 7.594147 | 2.0 | 11.593 | 2 | 36.836 | 11.571 | 32.297 | 2 |
| 2025-05-09T15:00:00 | 54.218586 | 7.594255 | 2.0 | 12.074 | 2 | 37.019 | 11.893 | 32.195 | 2 |
| 2025-05-09T15:01:00 | 54.218654 | 7.594373 | 2.0 | 12.081 | 2 | 37.283 | 12.210 | 32.176 | 2 |
| 2025-05-09T15:02:00 | 54.218688 | 7.594482 | 2.0 | 12.086 | 2 | 37.330 | 12.247 | 32.189 | 2 |
| 2025-05-09T15:03:00 | 54.218689 | 7.594601 | 2.0 | 12.082 | 2 | 37.338 | 12.253 | 32.192 | 2 |
| 2025-05-09T15:04:00 | 54.218660 | 7.594717 | 2.0 | 12.087 | 2 | 37.338 | 12.252 | 32.193 | 2 |
| 2025-05-09T15:05:00 | 54.218603 | 7.594858 | 2.0 | 12.092 | 2 | 37.343 | 12.257 | 32.193 | 2 |
| 2025-05-09T15:06:00 | 54.218564 | 7.595044 | 2.0 | 12.082 | 2 | 37.347 | 12.260 | 32.194 | 2 |
| 2025-05-09T15:07:00 | 54.218545 | 7.595224 | 2.0 | 12.100 | 2 | 37.345 | 12.256 | 32.196 | 2 |
| 2025-05-09T15:08:00 | 54.218527 | 7.595390 | 2.0 | 12.101 | 2 | 37.358 | 12.271 | 32.196 | 2 |
| 2025-05-09T15:09:00 | 54.218528 | 7.595557 | 2.0 | 12.089 | 2 | 37.359 | 12.271 | 32.196 | 2 |
| 2025-05-09T15:10:00 | 54.218563 | 7.595701 | 2.0 | 12.082 | 2 | 37.347 | 12.255 | 32.199 | 2 |
| 2025-05-09T15:11:00 | 54.218625 | 7.595837 | 2.0 | 12.085 | 2 | 37.341 | 12.252 | 32.196 | 2 |
| 2025-05-09T15:12:00 | 54.218750 | 7.595875 | 2.0 | 12.097 | 2 | 37.344 | 12.257 | 32.194 | 2 |
| 2025-05-09T15:13:00 | 54.218761 | 7.595891 | 2.0 | 12.098 | 2 | 37.352 | 12.270 | 32.191 | 2 |
| 2025-05-09T15:14:00 | 54.218705 | 7.595899 | 2.0 | 11.573 | 2 | 37.322 | 12.215 | 32.209 | 2 |
| 2025-05-09T15:15:00 | 54.218675 | 7.595846 | 2.0 | 11.387 | 2 | 36.990 | 11.740 | 32.299 | 2 |
| 2025-05-09T15:16:00 | 54.218738 | 7.595605 | 2.0 | 11.592 | 2 | 36.853 | 11.611 | 32.278 | 2 |
| 2025-05-09T15:17:00 | 54.218824 | 7.595323 | 2.0 | 11.410 | 2 | 36.936 | 11.721 | 32.264 | 2 |
| 2025-05-09T15:18:00 | 54.218888 | 7.595133 | 2.0 | 11.388 | 2 | 36.859 | 11.606 | 32.289 | 2 |
| 2025-05-09T15:19:00 | 54.218920 | 7.595011 | 2.0 | 11.456 | 2 | 36.824 | 11.573 | 32.283 | 2 |
| 2025-05-09T15:20:00 | 54.218916 | 7.594960 | 2.0 | 11.282 | 2 | 36.833 | 11.577 | 32.289 | 2 |
| 2025-05-09T15:21:00 | 54.218915 | 7.594971 | 2.0 | 11.292 | 2 | 36.761 | 11.477 | 32.306 | 2 |
| 2025-05-09T15:22:00 | 54.218927 | 7.595062 | 2.0 | 11.418 | 2 | 36.768 | 11.503 | 32.290 | 2 |
| 2025-05-09T15:23:00 | 54.218977 | 7.595126 | 2.0 | 11.440 | 2 | 36.815 | 11.570 | 32.277 | 2 |
| 2025-05-09T15:24:00 | 54.219033 | 7.595100 | 2.0 | 11.636 | 2 | 36.870 | 11.654 | 32.258 | 2 |
| 2025-05-09T15:25:00 | 54.219071 | 7.595036 | 2.0 | 11.384 | 2 | 36.974 | 11.783 | 32.247 | 2 |
| 2025-05-09T15:26:00 | 54.219090 | 7.594963 | 2.0 | 10.977 | 2 | 36.777 | 11.476 | 32.322 | 2 |
| 2025-05-09T15:27:00 | 54.219095 | 7.594912 | 2.0 | 10.907 | 2 | 36.522 | 11.154 | 32.354 | 2 |
| 2025-05-09T15:28:00 | 54.219111 | 7.594878 | 2.0 | 11.569 | 2 | 36.561 | 11.258 | 32.301 | 2 |
| 2025-05-09T15:29:00 | 54.219142 | 7.594809 | 2.0 | 11.878 | 2 | 36.922 | 11.753 | 32.222 | 2 |
| 2025-05-09T15:30:00 | 54.219397 | 7.594522 | 2.0 | 11.740 | 2 | 37.135 | 11.992 | 32.221 | 2 |
| 2025-05-09T15:31:00 | 54.219838 | 7.593780 | 2.0 | 11.577 | 2 | 37.058 | 11.868 | 32.254 | 2 |
| 2025-05-09T15:32:00 | 54.220181 | 7.592861 | 2.0 | 11.822 | 2 | 37.032 | 11.860 | 32.236 | 2 |
| 2025-05-09T15:33:00 | 54.220518 | 7.591816 | 2.0 | 11.844 | 2 | 37.123 | 11.978 | 32.222 | 2 |
| 2025-05-09T15:34:00 | 54.220902 | 7.590650 | 2.0 | 11.638 | 2 | 37.140 | 11.985 | 32.232 | 2 |
| 2025-05-09T15:35:00 | 54.221424 | 7.589602 | 2.0 | 11.740 | 2 | 37.032 | 11.839 | 32.254 | 2 |
| 2025-05-09T15:36:00 | 54.222030 | 7.588873 | 2.0 | 11.778 | 2 | 37.121 | 11.925 | 32.266 | 2 |
| 2025-05-09T15:37:00 | 54.222561 | 7.588491 | 2.0 | 11.848 | 2 | 37.176 | 11.966 | 32.284 | 2 |
| 2025-05-09T15:38:00 | 54.222987 | 7.588178 | 2.0 | 11.802 | 2 | 37.218 | 12.008 | 32.288 | 2 |
| 2025-05-09T15:39:00 | 54.223333 | 7.587882 | 2.0 | 11.716 | 2 | 37.183 | 11.956 | 32.299 | 2 |
| 2025-05-09T15:40:00 | 54.223611 | 7.587622 | 2.0 | 11.677 | 2 | 37.127 | 11.889 | 32.303 | 2 |
| 2025-05-09T15:41:00 | 54.223829 | 7.587390 | 2.0 | 11.646 | 2 | 37.092 | 11.848 | 32.305 | 2 |
| 2025-05-09T15:42:00 | 54.223985 | 7.587169 | 2.0 | 11.591 | 2 | 37.057 | 11.802 | 32.311 | 2 |
| 2025-05-09T15:43:00 | 54.224083 | 7.586722 | 2.0 | 11.601 | 2 | 37.027 | 11.770 | 32.309 | 2 |
| 2025-05-09T15:44:00 | 54.223661 | 7.586190 | 2.0 | 11.647 | 2 | 37.039 | 11.783 | 32.310 | 2 |
| 2025-05-09T15:45:00 | 54.222729 | 7.585723 | 2.0 | 11.765 | 2 | 37.081 | 11.833 | 32.307 | 2 |
| 2025-05-09T15:46:00 | 54.221268 | 7.585713 | 2.0 | 11.709 | 2 | 37.157 | 11.937 | 32.290 | 2 |
| 2025-05-09T15:47:00 | 54.219408 | 7.585734 | 2.0 | 11.274 | 2 | 37.052 | 11.798 | 32.309 | 2 |
| 2025-05-09T15:48:00 | 54.217008 | 7.585788 | 2.0 | 11.378 | 2 | 36.779 | 11.484 | 32.317 | 2 |
| 2025-05-09T15:49:00 | 54.214285 | 7.585929 | 2.0 | 11.616 | 2 | 36.820 | 11.568 | 32.284 | 2 |
| 2025-05-09T15:50:00 | 54.211594 | 7.586992 | 2.0 | 11.736 | 2 | 37.000 | 11.806 | 32.252 | 2 |
| 2025-05-09T15:51:00 | 54.209639 | 7.590228 | 2.0 | 11.786 | 2 | 37.104 | 11.921 | 32.253 | 2 |
| 2025-05-09T15:52:00 | 54.208772 | 7.594666 | 2.0 | 11.474 | 2 | 37.124 | 11.947 | 32.250 | 2 |
| 2025-05-09T15:53:00 | 54.209158 | 7.599229 | 2.0 | 11.537 | 2 | 36.798 | 11.637 | 32.202 | 2 |
| 2025-05-09T15:54:00 | 54.210756 | 7.602820 | 2.0 | 11.360 | 2 | 36.773 | 11.764 | 32.068 | 2 |
| 2025-05-09T15:55:00 | 54.213108 | 7.604674 | 2.0 | 10.821 | 2 | 36.472 | 11.324 | 32.156 | 2 |
| 2025-05-09T15:56:00 | 54.215698 | 7.604857 | 2.0 | 11.099 | 2 | 36.308 | 11.134 | 32.161 | 2 |
| 2025-05-09T15:57:00 | 54.218364 | 7.605164 | 2.0 | 11.605 | 2 | 36.605 | 11.415 | 32.207 | 2 |
| 2025-05-09T15:58:00 | 54.221072 | 7.605787 | 2.0 | 11.975 | 2 | 36.918 | 11.803 | 32.175 | 2 |
| 2025-05-09T15:59:00 | 54.223823 | 7.606356 | 2.0 | 12.055 | 2 | 37.171 | 12.116 | 32.149 | 2 |
| 2025-05-09T16:00:00 | 54.226580 | 7.606961 | 2.0 | 11.848 | 2 | 37.274 | 12.181 | 32.192 | 2 |
| 2025-05-09T16:01:00 | 54.229335 | 7.607523 | 2.0 | 11.698 | 2 | 37.172 | 12.000 | 32.250 | 2 |
| 2025-05-09T16:02:00 | 54.232089 | 7.608077 | 2.0 | 11.602 | 2 | 37.080 | 11.864 | 32.279 | 2 |
| 2025-05-09T16:03:00 | 54.234830 | 7.608672 | 2.0 | 11.213 | 2 | 36.984 | 11.705 | 32.324 | 2 |
| 2025-05-09T16:04:00 | 54.237565 | 7.609318 | 2.0 | 11.189 | 2 | 36.754 | 11.404 | 32.363 | 2 |
| 2025-05-09T16:05:00 | 54.240292 | 7.609999 | 2.0 | 11.293 | 2 | 36.767 | 11.393 | 32.385 | 2 |
| 2025-05-09T16:06:00 | 54.242995 | 7.610807 | 2.0 | 11.612 | 2 | 36.861 | 11.518 | 32.367 | 2 |
| 2025-05-09T16:07:00 | 54.245666 | 7.611608 | 2.0 | 11.831 | 2 | 37.020 | 11.798 | 32.278 | 2 |
| 2025-05-09T16:08:00 | 54.248338 | 7.612351 | 2.0 | 12.207 | 2 | 37.112 | 12.084 | 32.120 | 2 |
| 2025-05-09T16:09:00 | 54.251008 | 7.613190 | 2.0 | 12.107 | 2 | 37.175 | 12.281 | 32.012 | 2 |
| 2025-05-09T16:10:00 | 54.253686 | 7.614013 | 2.0 | 12.165 | 2 | 37.120 | 12.336 | 31.912 | 2 |
| 2025-05-09T16:11:00 | 54.256366 | 7.614826 | 2.0 | 12.521 | 2 | 37.085 | 12.394 | 31.829 | 2 |
| 2025-05-09T16:12:00 | 54.259064 | 7.615620 | 2.0 | 12.361 | 2 | 37.150 | 12.619 | 31.701 | 2 |
| 2025-05-09T16:13:00 | 54.261789 | 7.616505 | 2.0 | 12.392 | 2 | 37.100 | 12.534 | 31.725 | 2 |
| 2025-05-09T16:14:00 | 54.264520 | 7.617407 | 2.0 | 12.369 | 2 | 37.043 | 12.555 | 31.653 | 2 |
| 2025-05-09T16:15:00 | 54.267251 | 7.618270 | 2.0 | 12.082 | 2 | 36.977 | 12.479 | 31.655 | 2 |
| 2025-05-09T16:16:00 | 54.269992 | 7.619078 | 2.0 | 12.031 | 2 | 36.776 | 12.247 | 31.658 | 2 |
| 2025-05-09T16:17:00 | 54.272746 | 7.619815 | 2.0 | 12.094 | 2 | 36.751 | 12.228 | 31.651 | 2 |
| 2025-05-09T16:18:00 | 54.275505 | 7.620655 | 2.0 | 12.043 | 2 | 36.715 | 12.255 | 31.593 | 2 |
| 2025-05-09T16:19:00 | 54.278263 | 7.621566 | 2.0 | 12.000 | 2 | 36.657 | 12.210 | 31.576 | 2 |
| 2025-05-09T16:20:00 | 54.281023 | 7.622450 | 2.0 | 11.989 | 2 | 36.625 | 12.175 | 31.575 | 2 |
| 2025-05-09T16:21:00 | 54.283787 | 7.623326 | 2.0 | 11.951 | 2 | 36.599 | 12.158 | 31.564 | 2 |
| 2025-05-09T16:22:00 | 54.286573 | 7.624090 | 2.0 | 11.911 | 2 | 36.555 | 12.118 | 31.556 | 2 |
| 2025-05-09T16:23:00 | 54.289363 | 7.624889 | 2.0 | 11.933 | 2 | 36.512 | 12.089 | 31.539 | 2 |
| 2025-05-09T16:24:00 | 54.292153 | 7.625765 | 2.0 | 11.924 | 2 | 36.514 | 12.110 | 31.523 | 2 |
| 2025-05-09T16:25:00 | 54.294928 | 7.626637 | 2.0 | 11.843 | 2 | 36.493 | 12.081 | 31.527 | 2 |
| 2025-05-09T16:26:00 | 54.297692 | 7.627411 | 2.0 | 11.839 | 2 | 36.432 | 12.025 | 31.516 | 2 |
| 2025-05-09T16:27:00 | 54.300448 | 7.628281 | 2.0 | 11.819 | 2 | 36.410 | 12.011 | 31.507 | 2 |
| 2025-05-09T16:28:00 | 54.303213 | 7.629162 | 2.0 | 11.810 | 2 | 36.386 | 11.991 | 31.500 | 2 |
| 2025-05-09T16:29:00 | 54.305980 | 7.629998 | 2.0 | 11.749 | 2 | 36.369 | 11.977 | 31.496 | 2 |
| 2025-05-09T16:30:00 | 54.308748 | 7.630822 | 2.0 | 11.684 | 2 | 36.312 | 11.909 | 31.498 | 2 |
| 2025-05-09T16:31:00 | 54.311509 | 7.631641 | 2.0 | 12.137 | 2 | 36.321 | 11.960 | 31.464 | 2 |
| 2025-05-09T16:32:00 | 54.314254 | 7.632440 | 2.0 | 12.207 | 2 | 36.578 | 12.274 | 31.446 | 2 |
| 2025-05-09T16:33:00 | 54.316989 | 7.633311 | 2.0 | 12.316 | 2 | 36.640 | 12.376 | 31.420 | 2 |
| 2025-05-09T16:34:00 | 54.319733 | 7.634146 | 2.0 | 12.283 | 2 | 36.690 | 12.461 | 31.396 | 2 |
| 2025-05-09T16:35:00 | 54.322471 | 7.634982 | 2.0 | 12.351 | 2 | 36.678 | 12.460 | 31.386 | 2 |
| 2025-05-09T16:36:00 | 54.325178 | 7.635817 | 2.0 | 12.391 | 2 | 36.718 | 12.521 | 31.373 | 2 |
| 2025-05-09T16:37:00 | 54.327876 | 7.636651 | 2.0 | 12.395 | 2 | 36.731 | 12.556 | 31.356 | 2 |
| 2025-05-09T16:38:00 | 54.330579 | 7.637454 | 2.0 | 12.369 | 2 | 36.711 | 12.560 | 31.334 | 2 |
| 2025-05-09T16:39:00 | 54.333293 | 7.638267 | 2.0 | 12.368 | 2 | 36.676 | 12.539 | 31.318 | 2 |
| 2025-05-09T16:40:00 | 54.336003 | 7.639105 | 2.0 | 12.391 | 2 | 36.654 | 12.539 | 31.297 | 2 |
| 2025-05-09T16:41:00 | 54.338669 | 7.640210 | 2.0 | 12.389 | 2 | 36.652 | 12.556 | 31.281 | 2 |
| 2025-05-09T16:42:00 | 54.340829 | 7.643090 | 2.0 | 12.347 | 2 | 36.637 | 12.546 | 31.275 | 2 |
| 2025-05-09T16:43:00 | 54.342276 | 7.647235 | 2.0 | 12.389 | 2 | 36.605 | 12.523 | 31.264 | 2 |
| 2025-05-09T16:44:00 | 54.343717 | 7.651443 | 2.0 | 12.433 | 2 | 36.612 | 12.561 | 31.239 | 2 |
| 2025-05-09T16:45:00 | 54.345163 | 7.655587 | 2.0 | 12.505 | 2 | 36.633 | 12.608 | 31.220 | 2 |
| 2025-05-09T16:46:00 | 54.346407 | 7.659906 | 2.0 | 12.460 | 2 | 36.667 | 12.663 | 31.207 | 2 |
| 2025-05-09T16:47:00 | 54.347689 | 7.664193 | 2.0 | 12.457 | 2 | 36.617 | 12.615 | 31.199 | 2 |
| 2025-05-09T16:48:00 | 54.348993 | 7.668453 | 2.0 | 12.451 | 2 | 36.605 | 12.634 | 31.172 | 2 |
| 2025-05-09T16:49:00 | 54.350361 | 7.672633 | 2.0 | 12.484 | 2 | 36.578 | 12.622 | 31.156 | 2 |
| 2025-05-09T16:50:00 | 54.351646 | 7.676893 | 2.0 | 12.531 | 2 | 36.569 | 12.655 | 31.121 | 2 |
| 2025-05-09T16:51:00 | 54.352944 | 7.681167 | 2.0 | 12.551 | 2 | 36.572 | 12.693 | 31.092 | 2 |
| 2025-05-09T16:52:00 | 54.354230 | 7.685465 | 2.0 | 12.428 | 2 | 36.574 | 12.731 | 31.063 | 2 |
| 2025-05-09T16:53:00 | 54.355535 | 7.689742 | 2.0 | 12.421 | 2 | 36.470 | 12.568 | 31.099 | 2 |
| 2025-05-09T16:54:00 | 54.356792 | 7.694068 | 2.0 | 12.553 | 2 | 36.447 | 12.600 | 31.051 | 2 |
| 2025-05-09T16:55:00 | 54.358097 | 7.698354 | 2.0 | 12.584 | 2 | 36.500 | 12.729 | 30.994 | 2 |
| 2025-05-09T16:56:00 | 54.359420 | 7.702633 | 2.0 | 12.568 | 2 | 36.502 | 12.747 | 30.982 | 2 |
| 2025-05-09T16:57:00 | 54.360837 | 7.706809 | 2.0 | 12.546 | 2 | 36.478 | 12.728 | 30.975 | 2 |
| 2025-05-09T16:58:00 | 54.362345 | 7.710888 | 2.0 | 12.538 | 2 | 36.460 | 12.713 | 30.970 | 2 |
| 2025-05-09T16:59:00 | 54.363577 | 7.715273 | 2.0 | 12.496 | 2 | 36.444 | 12.698 | 30.967 | 2 |
| 2025-05-09T17:00:00 | 54.364764 | 7.719718 | 2.0 | 12.481 | 2 | 36.409 | 12.660 | 30.965 | 2 |
| 2025-05-09T17:01:00 | 54.366160 | 7.723948 | 2.0 | 12.490 | 2 | 36.396 | 12.652 | 30.959 | 2 |
| 2025-05-09T17:02:00 | 54.367639 | 7.728097 | 2.0 | 12.459 | 2 | 36.399 | 12.654 | 30.961 | 2 |
| 2025-05-09T17:03:00 | 54.368999 | 7.732382 | 2.0 | 12.408 | 2 | 36.376 | 12.622 | 30.965 | 2 |
| 2025-05-09T17:04:00 | 54.370223 | 7.736816 | 2.0 | 12.467 | 2 | 36.342 | 12.587 | 30.962 | 2 |
| 2025-05-09T17:05:00 | 54.371484 | 7.741229 | 2.0 | 12.474 | 2 | 36.377 | 12.636 | 30.955 | 2 |
| 2025-05-09T17:06:00 | 54.372756 | 7.745631 | 2.0 | 12.462 | 2 | 36.378 | 12.635 | 30.956 | 2 |
| 2025-05-09T17:07:00 | 54.374020 | 7.750040 | 2.0 | 12.482 | 2 | 36.375 | 12.637 | 30.952 | 2 |
| 2025-05-09T17:08:00 | 54.375241 | 7.754489 | 2.0 | 12.477 | 2 | 36.388 | 12.648 | 30.955 | 2 |
| 2025-05-09T17:09:00 | 54.376441 | 7.758955 | 2.0 | 12.455 | 2 | 36.378 | 12.639 | 30.953 | 2 |
| 2025-05-09T17:10:00 | 54.377690 | 7.763383 | 2.0 | 12.439 | 2 | 36.358 | 12.623 | 30.947 | 2 |
| 2025-05-09T17:11:00 | 54.378988 | 7.767751 | 2.0 | 12.431 | 2 | 36.348 | 12.608 | 30.950 | 2 |
| 2025-05-09T17:12:00 | 54.380733 | 7.771335 | 2.0 | 12.473 | 2 | 36.345 | 12.605 | 30.950 | 2 |
| 2025-05-09T17:13:00 | 54.383157 | 7.773079 | 2.0 | 12.447 | 2 | 36.374 | 12.634 | 30.953 | 2 |
| 2025-05-09T17:14:00 | 54.385794 | 7.774153 | 2.0 | 12.510 | 2 | 36.391 | 12.626 | 30.976 | 2 |
| 2025-05-09T17:15:00 | 54.388428 | 7.775620 | 2.0 | 12.527 | 2 | 36.468 | 12.677 | 31.007 | 2 |
| 2025-05-09T17:16:00 | 54.391079 | 7.777057 | 2.0 | 12.527 | 2 | 36.500 | 12.691 | 31.026 | 2 |
| 2025-05-09T17:17:00 | 54.393771 | 7.778271 | 2.0 | 12.567 | 2 | 36.517 | 12.701 | 31.034 | 2 |
| 2025-05-09T17:18:00 | 54.396475 | 7.779364 | 2.0 | 12.586 | 2 | 36.553 | 12.742 | 31.034 | 2 |
| 2025-05-09T17:19:00 | 54.399172 | 7.780575 | 2.0 | 12.599 | 2 | 36.556 | 12.750 | 31.030 | 2 |
| 2025-05-09T17:20:00 | 54.401865 | 7.781787 | 2.0 | 12.605 | 2 | 36.559 | 12.767 | 31.019 | 2 |
| 2025-05-09T17:21:00 | 54.404553 | 7.782919 | 2.0 | 12.612 | 2 | 36.551 | 12.770 | 31.009 | 2 |
| 2025-05-09T17:22:00 | 54.407244 | 7.784077 | 2.0 | 12.656 | 2 | 36.543 | 12.788 | 30.987 | 2 |
| 2025-05-09T17:23:00 | 54.409938 | 7.785225 | 2.0 | 12.647 | 2 | 36.534 | 12.819 | 30.953 | 2 |
| 2025-05-09T17:24:00 | 54.412637 | 7.786380 | 2.0 | 12.593 | 2 | 36.488 | 12.801 | 30.924 | 2 |
| 2025-05-09T17:25:00 | 54.415337 | 7.787542 | 2.0 | 12.542 | 2 | 36.423 | 12.753 | 30.902 | 2 |
| 2025-05-09T17:26:00 | 54.418032 | 7.788751 | 2.0 | 12.505 | 2 | 36.363 | 12.706 | 30.884 | 2 |
| 2025-05-09T17:27:00 | 54.420718 | 7.789943 | 2.0 | 12.497 | 2 | 36.324 | 12.678 | 30.870 | 2 |
| 2025-05-09T17:28:00 | 54.423415 | 7.791081 | 2.0 | 12.454 | 2 | 36.306 | 12.661 | 30.867 | 2 |
| 2025-05-09T17:29:00 | 54.426109 | 7.792222 | 2.0 | 12.389 | 2 | 36.268 | 12.614 | 30.870 | 2 |
| 2025-05-09T17:30:00 | 54.428798 | 7.793437 | 2.0 | 12.300 | 2 | 36.225 | 12.553 | 30.879 | 2 |
| 2025-05-09T17:31:00 | 54.431495 | 7.794611 | 2.0 | 12.218 | 2 | 36.158 | 12.456 | 30.895 | 2 |
| 2025-05-09T17:32:00 | 54.434183 | 7.795729 | 2.0 | 12.264 | 2 | 36.128 | 12.416 | 30.899 | 2 |
| 2025-05-09T17:33:00 | 54.436868 | 7.796874 | 2.0 | 12.173 | 2 | 36.132 | 12.421 | 30.899 | 2 |
| 2025-05-09T17:34:00 | 54.439557 | 7.798061 | 2.0 | 12.080 | 2 | 36.038 | 12.320 | 30.893 | 2 |
| 2025-05-09T17:35:00 | 54.442254 | 7.799172 | 2.0 | 12.092 | 2 | 35.997 | 12.265 | 30.899 | 2 |
| 2025-05-09T17:36:00 | 54.444945 | 7.800336 | 2.0 | 12.080 | 2 | 36.022 | 12.269 | 30.920 | 2 |
| 2025-05-09T17:37:00 | 54.447633 | 7.801534 | 2.0 | 12.034 | 2 | 36.029 | 12.237 | 30.953 | 2 |
| 2025-05-09T17:38:00 | 54.450326 | 7.802705 | 2.0 | 12.024 | 2 | 36.056 | 12.221 | 30.992 | 2 |
| 2025-05-09T17:39:00 | 54.453006 | 7.803888 | 2.0 | 11.940 | 2 | 36.067 | 12.185 | 31.032 | 2 |
| 2025-05-09T17:40:00 | 54.455684 | 7.805040 | 2.0 | 11.825 | 2 | 36.033 | 12.108 | 31.064 | 2 |
| 2025-05-09T17:41:00 | 54.458363 | 7.806218 | 2.0 | 11.697 | 2 | 35.942 | 11.988 | 31.076 | 2 |
| 2025-05-09T17:42:00 | 54.461043 | 7.807349 | 2.0 | 11.538 | 2 | 35.841 | 11.851 | 31.093 | 2 |
| 2025-05-09T17:43:00 | 54.463739 | 7.808539 | 2.0 | 11.449 | 2 | 35.729 | 11.704 | 31.108 | 2 |
| 2025-05-09T17:44:00 | 54.466460 | 7.809687 | 2.0 | 11.523 | 2 | 35.708 | 11.657 | 31.127 | 2 |
| 2025-05-09T17:45:00 | 54.469185 | 7.810817 | 2.0 | 11.369 | 2 | 35.776 | 11.663 | 31.188 | 2 |
| 2025-05-09T17:46:00 | 54.471899 | 7.812005 | 2.0 | 11.300 | 2 | 35.732 | 11.545 | 31.245 | 2 |
| 2025-05-09T17:47:00 | 54.474586 | 7.813217 | 2.0 | 11.628 | 2 | 35.724 | 11.503 | 31.272 | 2 |
| 2025-05-09T17:48:00 | 54.477247 | 7.814387 | 2.0 | 11.801 | 2 | 36.019 | 11.807 | 31.302 | 2 |
| 2025-05-09T17:49:00 | 54.479906 | 7.815461 | 2.0 | 11.728 | 2 | 36.162 | 11.952 | 31.318 | 2 |
| 2025-05-09T17:50:00 | 54.482551 | 7.816553 | 2.0 | 11.798 | 2 | 36.128 | 11.899 | 31.330 | 2 |
| 2025-05-09T17:51:00 | 54.485165 | 7.817702 | 2.0 | 11.828 | 2 | 36.170 | 11.966 | 31.314 | 2 |
| 2025-05-09T17:52:00 | 54.487777 | 7.818883 | 2.0 | 11.826 | 2 | 36.197 | 12.000 | 31.311 | 2 |
| 2025-05-09T17:53:00 | 54.490394 | 7.820008 | 2.0 | 11.782 | 2 | 36.188 | 11.991 | 31.310 | 2 |
| 2025-05-09T17:54:00 | 54.492997 | 7.821161 | 2.0 | 11.812 | 2 | 36.154 | 11.951 | 31.311 | 2 |
| 2025-05-09T17:55:00 | 54.495603 | 7.822283 | 2.0 | 11.822 | 2 | 36.179 | 11.992 | 31.300 | 2 |
| 2025-05-09T17:56:00 | 54.498201 | 7.823401 | 2.0 | 11.761 | 2 | 36.171 | 11.981 | 31.302 | 2 |
| 2025-05-09T17:57:00 | 54.500792 | 7.824512 | 2.0 | 11.693 | 2 | 36.118 | 11.921 | 31.301 | 2 |
| 2025-05-09T17:58:00 | 54.503394 | 7.825654 | 2.0 | 11.633 | 2 | 36.069 | 11.859 | 31.306 | 2 |
| 2025-05-09T17:59:00 | 54.506009 | 7.826813 | 2.0 | 11.545 | 2 | 36.025 | 11.791 | 31.321 | 2 |
| 2025-05-09T18:00:00 | 54.508619 | 7.827957 | 2.0 | 11.553 | 2 | 35.977 | 11.723 | 31.332 | 2 |
| 2025-05-09T18:01:00 | 54.511209 | 7.829079 | 2.0 | 11.520 | 2 | 35.974 | 11.723 | 31.329 | 2 |
| 2025-05-09T18:02:00 | 54.513800 | 7.830194 | 2.0 | 11.578 | 2 | 35.946 | 11.700 | 31.321 | 2 |
| 2025-05-09T18:03:00 | 54.516378 | 7.831290 | 2.0 | 11.663 | 2 | 35.990 | 11.765 | 31.309 | 2 |
| 2025-05-09T18:04:00 | 54.518965 | 7.832372 | 2.0 | 11.680 | 2 | 36.046 | 11.836 | 31.303 | 2 |
| 2025-05-09T18:05:00 | 54.521550 | 7.833518 | 2.0 | 11.607 | 2 | 36.049 | 11.841 | 31.302 | 2 |
| 2025-05-09T18:06:00 | 54.524127 | 7.834651 | 2.0 | 11.466 | 2 | 35.967 | 11.752 | 31.298 | 2 |
| 2025-05-09T18:07:00 | 54.526692 | 7.835757 | 2.0 | 11.348 | 2 | 35.870 | 11.627 | 31.309 | 2 |
| 2025-05-09T18:08:00 | 54.529264 | 7.836863 | 2.0 | 11.364 | 2 | 35.783 | 11.527 | 31.309 | 2 |
| 2025-05-09T18:09:00 | 54.531848 | 7.838040 | 2.0 | 11.467 | 2 | 35.805 | 11.558 | 31.304 | 2 |
| 2025-05-09T18:10:00 | 54.534420 | 7.839167 | 2.0 | 11.627 | 2 | 35.897 | 11.671 | 31.298 | 2 |
| 2025-05-09T18:11:00 | 54.536994 | 7.840235 | 2.0 | 11.624 | 2 | 35.998 | 11.795 | 31.292 | 2 |
| 2025-05-09T18:12:00 | 54.539567 | 7.841336 | 2.0 | 11.647 | 2 | 35.998 | 11.795 | 31.292 | 2 |
| 2025-05-09T18:13:00 | 54.542142 | 7.842420 | 2.0 | 11.650 | 2 | 35.848 | 11.813 | 31.132 | 2 |
| 2025-05-09T18:14:00 | 54.544717 | 7.843543 | 2.0 | 11.676 | 2 | 35.569 | 11.821 | 30.856 | 2 |
| 2025-05-09T18:15:00 | 54.547288 | 7.844696 | 2.0 | 11.678 | 2 | 35.871 | 11.845 | 31.127 | 2 |
| 2025-05-09T18:16:00 | 54.549851 | 7.845808 | 2.0 | 11.672 | 2 | 35.919 | 11.851 | 31.168 | 2 |
| 2025-05-09T18:17:00 | 54.552413 | 7.846915 | 2.0 | 11.771 | 2 | 35.861 | 11.844 | 31.118 | 2 |
| 2025-05-09T18:18:00 | 54.554963 | 7.848019 | 2.0 | 11.823 | 2 | 35.963 | 11.942 | 31.135 | 2 |
| 2025-05-09T18:19:00 | 54.557499 | 7.849134 | 2.0 | 11.947 | 2 | 36.044 | 12.003 | 31.162 | 2 |
| 2025-05-09T18:20:00 | 54.560012 | 7.850214 | 2.0 | 12.004 | 2 | 36.100 | 12.122 | 31.116 | 2 |
| 2025-05-09T18:21:00 | 54.562518 | 7.851281 | 2.0 | 12.022 | 2 | 36.053 | 12.164 | 31.036 | 2 |
| 2025-05-09T18:22:00 | 54.565019 | 7.852351 | 2.0 | 12.071 | 2 | 35.813 | 12.188 | 30.787 | 2 |
| 2025-05-09T18:23:00 | 54.567501 | 7.853444 | 2.0 | 12.145 | 2 | 35.956 | 12.248 | 30.874 | 2 |
| 2025-05-09T18:24:00 | 54.569978 | 7.854538 | 2.0 | 12.139 | 2 | 36.185 | 12.304 | 31.046 | 2 |
| 2025-05-09T18:25:00 | 54.572448 | 7.855621 | 2.0 | 12.152 | 2 | 36.145 | 12.306 | 31.006 | 2 |
| 2025-05-09T18:26:00 | 54.574933 | 7.856664 | 2.0 | 12.190 | 2 | 36.275 | 12.328 | 31.112 | 2 |
| 2025-05-09T18:27:00 | 54.577413 | 7.857769 | 2.0 | 12.150 | 2 | 36.382 | 12.351 | 31.195 | 2 |
| 2025-05-09T18:28:00 | 54.579897 | 7.858870 | 2.0 | 12.078 | 2 | 36.337 | 12.306 | 31.189 | 2 |
| 2025-05-09T18:29:00 | 54.582371 | 7.859954 | 2.0 | 12.023 | 2 | 36.178 | 12.234 | 31.098 | 2 |
| 2025-05-09T18:30:00 | 54.584851 | 7.860960 | 2.0 | 11.994 | 2 | 36.110 | 12.189 | 31.070 | 2 |
| 2025-05-09T18:31:00 | 54.587320 | 7.862045 | 2.0 | 11.982 | 2 | 36.166 | 12.165 | 31.143 | 2 |
| 2025-05-09T18:32:00 | 54.589803 | 7.863116 | 2.0 | 11.983 | 2 | 36.047 | 12.152 | 31.040 | 2 |
| 2025-05-09T18:33:00 | 54.592286 | 7.864186 | 2.0 | 11.968 | 2 | 35.987 | 12.149 | 30.985 | 2 |
| 2025-05-09T18:34:00 | 54.594764 | 7.865249 | 2.0 | 11.972 | 2 | 36.117 | 12.136 | 31.121 | 2 |
| 2025-05-09T18:35:00 | 54.597253 | 7.866315 | 2.0 | 11.965 | 2 | 36.089 | 12.138 | 31.092 | 2 |
| 2025-05-09T18:36:00 | 54.599744 | 7.867430 | 2.0 | 11.947 | 2 | 36.065 | 12.125 | 31.080 | 2 |
| 2025-05-09T18:37:00 | 54.602235 | 7.868499 | 2.0 | 11.977 | 2 | 36.026 | 12.126 | 31.042 | 2 |
| 2025-05-09T18:38:00 | 54.604717 | 7.869575 | 2.0 | 11.938 | 2 | 36.063 | 12.139 | 31.066 | 2 |
| 2025-05-09T18:39:00 | 54.607205 | 7.870641 | 2.0 | 11.918 | 2 | 36.059 | 12.102 | 31.093 | 2 |
| 2025-05-09T18:40:00 | 54.609710 | 7.871754 | 2.0 | 11.966 | 2 | 36.017 | 12.091 | 31.062 | 2 |
| 2025-05-09T18:41:00 | 54.612222 | 7.872867 | 2.0 | 12.081 | 2 | 36.021 | 12.143 | 31.023 | 2 |
| 2025-05-09T18:42:00 | 54.614730 | 7.873956 | 2.0 | 12.140 | 2 | 36.119 | 12.256 | 31.023 | 2 |
| 2025-05-09T18:43:00 | 54.617239 | 7.875038 | 2.0 | 12.134 | 2 | 36.153 | 12.306 | 31.014 | 2 |
| 2025-05-09T18:44:00 | 54.619757 | 7.876106 | 2.0 | 12.037 | 2 | 36.116 | 12.283 | 30.998 | 2 |
| 2025-05-09T18:45:00 | 54.622274 | 7.877168 | 2.0 | 11.937 | 2 | 36.047 | 12.194 | 31.006 | 2 |
| 2025-05-09T18:46:00 | 54.624808 | 7.878262 | 2.0 | 11.956 | 2 | 35.950 | 12.116 | 30.977 | 2 |
| 2025-05-09T18:47:00 | 54.627318 | 7.879430 | 2.0 | 11.985 | 2 | 35.939 | 12.131 | 30.954 | 2 |
| 2025-05-09T18:48:00 | 54.629852 | 7.880505 | 2.0 | 11.982 | 2 | 35.941 | 12.152 | 30.939 | 2 |
| 2025-05-09T18:49:00 | 54.632379 | 7.881576 | 2.0 | 11.842 | 2 | 35.969 | 12.140 | 30.976 | 2 |
| 2025-05-09T18:50:00 | 54.634909 | 7.882681 | 2.0 | 11.703 | 2 | 35.866 | 11.983 | 31.007 | 2 |
| 2025-05-09T18:51:00 | 54.637448 | 7.883782 | 2.0 | 11.608 | 2 | 35.796 | 11.863 | 31.040 | 2 |
| 2025-05-09T18:52:00 | 54.639990 | 7.884894 | 2.0 | 11.584 | 2 | 35.742 | 11.785 | 31.053 | 2 |
| 2025-05-09T18:53:00 | 54.642544 | 7.885987 | 2.0 | 11.573 | 2 | 35.694 | 11.757 | 31.030 | 2 |
| 2025-05-09T18:54:00 | 54.645083 | 7.887074 | 2.0 | 11.563 | 2 | 35.683 | 11.747 | 31.028 | 2 |
| 2025-05-09T18:55:00 | 54.647631 | 7.888175 | 2.0 | 11.554 | 2 | 35.675 | 11.733 | 31.032 | 2 |
| 2025-05-09T18:56:00 | 54.650182 | 7.889306 | 2.0 | 11.553 | 2 | 35.647 | 11.727 | 31.010 | 2 |
| 2025-05-09T18:57:00 | 54.652768 | 7.890420 | 2.0 | 11.549 | 2 | 35.617 | 11.723 | 30.984 | 2 |
| 2025-05-09T18:58:00 | 54.655331 | 7.891542 | 2.0 | 11.553 | 2 | 35.603 | 11.721 | 30.972 | 2 |
| 2025-05-09T18:59:00 | 54.657875 | 7.892634 | 2.0 | 11.561 | 2 | 35.582 | 11.724 | 30.949 | 2 |
| 2025-05-09T19:00:00 | 54.660440 | 7.893760 | 2.0 | 11.577 | 2 | 35.570 | 11.734 | 30.929 | 2 |
| 2025-05-09T19:01:00 | 54.663035 | 7.894926 | 2.0 | 11.596 | 2 | 35.574 | 11.751 | 30.919 | 2 |
| 2025-05-09T19:02:00 | 54.665620 | 7.896086 | 2.0 | 11.612 | 2 | 35.577 | 11.766 | 30.909 | 2 |
| 2025-05-09T19:03:00 | 54.668219 | 7.897142 | 2.0 | 11.628 | 2 | 35.602 | 11.785 | 30.918 | 2 |
| 2025-05-09T19:04:00 | 54.670805 | 7.898313 | 2.0 | 11.640 | 2 | 35.541 | 11.800 | 30.847 | 2 |
| 2025-05-09T19:05:00 | 54.673404 | 7.899441 | 2.0 | 11.644 | 2 | 35.542 | 11.810 | 30.839 | 2 |
| 2025-05-09T19:06:00 | 54.676010 | 7.900569 | 2.0 | 11.638 | 2 | 35.549 | 11.812 | 30.844 | 2 |
| 2025-05-09T19:07:00 | 54.678601 | 7.901722 | 2.0 | 11.631 | 2 | 35.580 | 11.805 | 30.880 | 2 |
| 2025-05-09T19:08:00 | 54.681205 | 7.902838 | 2.0 | 11.624 | 2 | 35.542 | 11.799 | 30.848 | 2 |
| 2025-05-09T19:09:00 | 54.683802 | 7.903980 | 2.0 | 11.630 | 2 | 35.567 | 11.794 | 30.877 | 2 |
| 2025-05-09T19:10:00 | 54.686407 | 7.905135 | 2.0 | 11.645 | 2 | 35.647 | 11.803 | 30.946 | 2 |
| 2025-05-09T19:11:00 | 54.689014 | 7.906224 | 2.0 | 11.650 | 2 | 35.647 | 11.814 | 30.937 | 2 |
| 2025-05-09T19:12:00 | 54.691615 | 7.907348 | 2.0 | 11.661 | 2 | 35.670 | 11.820 | 30.954 | 2 |
| 2025-05-09T19:13:00 | 54.694200 | 7.908494 | 2.0 | 11.672 | 2 | 35.740 | 11.832 | 31.012 | 2 |
| 2025-05-09T19:14:00 | 54.696783 | 7.909616 | 2.0 | 11.677 | 2 | 35.745 | 11.840 | 31.010 | 2 |
| 2025-05-09T19:15:00 | 54.699370 | 7.910736 | 2.0 | 11.687 | 2 | 35.736 | 11.845 | 30.997 | 2 |
| 2025-05-09T19:16:00 | 54.701968 | 7.911838 | 2.0 | 11.691 | 2 | 35.779 | 11.854 | 31.031 | 2 |
| 2025-05-09T19:17:00 | 54.704557 | 7.913009 | 2.0 | 11.685 | 2 | 35.822 | 11.857 | 31.070 | 2 |
| 2025-05-09T19:18:00 | 54.707152 | 7.914157 | 2.0 | 11.674 | 2 | 35.821 | 11.852 | 31.073 | 2 |
| 2025-05-09T19:19:00 | 54.709757 | 7.915276 | 2.0 | 11.657 | 2 | 35.825 | 11.840 | 31.087 | 2 |
| 2025-05-09T19:20:00 | 54.712346 | 7.916370 | 2.0 | 11.640 | 2 | 35.813 | 11.824 | 31.089 | 2 |
| 2025-05-09T19:21:00 | 54.714905 | 7.917473 | 2.0 | 11.616 | 2 | 35.774 | 11.805 | 31.067 | 2 |
| 2025-05-09T19:22:00 | 54.717482 | 7.918608 | 2.0 | 11.591 | 2 | 35.735 | 11.782 | 31.049 | 2 |
| 2025-05-09T19:23:00 | 54.720059 | 7.919748 | 2.0 | 11.585 | 2 | 35.752 | 11.760 | 31.083 | 2 |
| 2025-05-09T19:24:00 | 54.722632 | 7.920851 | 2.0 | 11.566 | 2 | 35.740 | 11.752 | 31.078 | 2 |
| 2025-05-09T19:25:00 | 54.725221 | 7.921940 | 2.0 | 11.538 | 2 | 35.720 | 11.731 | 31.077 | 2 |
| 2025-05-09T19:26:00 | 54.727812 | 7.923113 | 2.0 | 11.529 | 2 | 35.702 | 11.709 | 31.078 | 2 |
| 2025-05-09T19:27:00 | 54.730393 | 7.924247 | 2.0 | 11.525 | 2 | 35.689 | 11.698 | 31.074 | 2 |
| 2025-05-09T19:28:00 | 54.732959 | 7.925363 | 2.0 | 11.524 | 2 | 35.693 | 11.694 | 31.082 | 2 |
| 2025-05-09T19:29:00 | 54.735538 | 7.926435 | 2.0 | 11.518 | 2 | 35.697 | 11.693 | 31.086 | 2 |
| 2025-05-09T19:30:00 | 54.738157 | 7.927557 | 2.0 | 11.502 | 2 | 35.698 | 11.686 | 31.093 | 2 |
| 2025-05-09T19:31:00 | 54.740769 | 7.928735 | 2.0 | 11.488 | 2 | 35.692 | 11.670 | 31.101 | 2 |
| 2025-05-09T19:32:00 | 54.743344 | 7.929841 | 2.0 | 11.476 | 2 | 35.688 | 11.656 | 31.109 | 2 |
| 2025-05-09T19:33:00 | 54.745522 | 7.930676 | 2.0 | 11.473 | 2 | 35.689 | 11.647 | 31.117 | 2 |
| 2025-05-09T19:34:00 | 54.747160 | 7.931292 | 2.0 | 11.471 | 2 | 35.691 | 11.642 | 31.123 | 2 |
| 2025-05-09T19:35:00 | 54.748435 | 7.931906 | 2.0 | 11.468 | 2 | 35.688 | 11.637 | 31.124 | 2 |
| 2025-05-09T19:36:00 | 54.749534 | 7.932507 | 2.0 | 11.466 | 2 | 35.691 | 11.635 | 31.129 | 2 |
| 2025-05-09T19:37:00 | 54.750572 | 7.933341 | 2.0 | 11.461 | 2 | 35.691 | 11.632 | 31.132 | 2 |
| 2025-05-09T19:38:00 | 54.751535 | 7.934589 | 2.0 | 11.451 | 2 | 35.688 | 11.626 | 31.134 | 2 |
| 2025-05-09T19:39:00 | 54.752448 | 7.936204 | 2.0 | 11.442 | 2 | 35.679 | 11.616 | 31.133 | 2 |
| 2025-05-09T19:40:00 | 54.753224 | 7.938211 | 2.0 | 11.442 | 2 | 35.670 | 11.610 | 31.130 | 2 |
| 2025-05-09T19:41:00 | 54.753756 | 7.940632 | 2.0 | 11.445 | 2 | 35.666 | 11.610 | 31.126 | 2 |
| 2025-05-09T19:42:00 | 54.753903 | 7.943322 | 2.0 | 11.456 | 2 | 35.663 | 11.615 | 31.119 | 2 |
| 2025-05-09T19:43:00 | 54.753642 | 7.946040 | 2.0 | 11.461 | 2 | 35.667 | 11.624 | 31.115 | 2 |
| 2025-05-09T19:44:00 | 54.752958 | 7.948570 | 2.0 | 11.471 | 2 | 35.664 | 11.629 | 31.108 | 2 |
| 2025-05-09T19:45:00 | 54.751918 | 7.950711 | 2.0 | 11.479 | 2 | 35.665 | 11.639 | 31.101 | 2 |
| 2025-05-09T19:46:00 | 54.750603 | 7.952325 | 2.0 | 11.493 | 2 | 35.667 | 11.649 | 31.094 | 2 |
| 2025-05-09T19:47:00 | 54.749142 | 7.953261 | 2.0 | 11.501 | 2 | 35.672 | 11.662 | 31.088 | 2 |
| 2025-05-09T19:48:00 | 54.747653 | 7.953540 | 2.0 | 11.504 | 2 | 35.674 | 11.669 | 31.084 | 2 |
| 2025-05-09T19:49:00 | 54.746229 | 7.953231 | 2.0 | 11.514 | 2 | 35.674 | 11.673 | 31.081 | 2 |
| 2025-05-09T19:50:00 | 54.744919 | 7.952494 | 2.0 | 11.528 | 2 | 35.683 | 11.684 | 31.080 | 2 |
| 2025-05-09T19:51:00 | 54.743705 | 7.951507 | 2.0 | 11.540 | 2 | 35.689 | 11.696 | 31.076 | 2 |
| 2025-05-09T19:52:00 | 54.742430 | 7.950714 | 2.0 | 11.546 | 2 | 35.693 | 11.707 | 31.071 | 2 |
| 2025-05-09T19:53:00 | 54.741088 | 7.950134 | 2.0 | 11.545 | 2 | 35.693 | 11.711 | 31.067 | 2 |
| 2025-05-09T19:54:00 | 54.739745 | 7.949520 | 2.0 | 11.547 | 2 | 35.692 | 11.713 | 31.065 | 2 |
| 2025-05-09T19:55:00 | 54.738433 | 7.948786 | 2.0 | 11.543 | 2 | 35.687 | 11.714 | 31.059 | 2 |
| 2025-05-09T19:56:00 | 54.737132 | 7.948021 | 2.0 | 11.540 | 2 | 35.684 | 11.710 | 31.059 | 2 |
| 2025-05-09T19:57:00 | 54.735837 | 7.947249 | 2.0 | 11.537 | 2 | 35.680 | 11.707 | 31.058 | 2 |
| 2025-05-09T19:58:00 | 54.734531 | 7.946506 | 2.0 | 11.538 | 2 | 35.678 | 11.706 | 31.057 | 2 |
| 2025-05-09T19:59:00 | 54.733213 | 7.945814 | 2.0 | 11.542 | 2 | 35.676 | 11.706 | 31.055 | 2 |
| 2025-05-09T20:00:00 | 54.731895 | 7.945147 | 2.0 | 11.543 | 2 | 35.672 | 11.710 | 31.048 | 2 |
| 2025-05-09T20:01:00 | 54.730599 | 7.944440 | 2.0 | 11.544 | 2 | 35.671 | 11.711 | 31.046 | 2 |
| 2025-05-09T20:02:00 | 54.729318 | 7.943703 | 2.0 | 11.547 | 2 | 35.673 | 11.711 | 31.048 | 2 |
| 2025-05-09T20:03:00 | 54.728048 | 7.942928 | 2.0 | 11.548 | 2 | 35.674 | 11.713 | 31.047 | 2 |
| 2025-05-09T20:04:00 | 54.726770 | 7.942191 | 2.0 | 11.552 | 2 | 35.674 | 11.717 | 31.044 | 2 |
| 2025-05-09T20:05:00 | 54.725490 | 7.941469 | 2.0 | 11.551 | 2 | 35.675 | 11.719 | 31.043 | 2 |
| 2025-05-09T20:06:00 | 54.724196 | 7.940752 | 2.0 | 11.550 | 2 | 35.675 | 11.720 | 31.042 | 2 |
| 2025-05-09T20:07:00 | 54.722903 | 7.940034 | 2.0 | 11.547 | 2 | 35.670 | 11.715 | 31.042 | 2 |
| 2025-05-09T20:08:00 | 54.721618 | 7.939324 | 2.0 | 11.546 | 2 | 35.668 | 11.715 | 31.040 | 2 |
| 2025-05-09T20:09:00 | 54.720343 | 7.938590 | 2.0 | 11.538 | 2 | 35.667 | 11.712 | 31.041 | 2 |
| 2025-05-09T20:10:00 | 54.719060 | 7.937865 | 2.0 | 11.534 | 2 | 35.663 | 11.705 | 31.043 | 2 |
| 2025-05-09T20:11:00 | 54.717774 | 7.937148 | 2.0 | 11.529 | 2 | 35.657 | 11.700 | 31.042 | 2 |
| 2025-05-09T20:12:00 | 54.716493 | 7.936429 | 2.0 | 11.536 | 2 | 35.658 | 11.698 | 31.044 | 2 |
| 2025-05-09T20:13:00 | 54.715208 | 7.935749 | 2.0 | 11.548 | 2 | 35.668 | 11.705 | 31.048 | 2 |
| 2025-05-09T20:14:00 | 54.713933 | 7.935060 | 2.0 | 11.558 | 2 | 35.680 | 11.716 | 31.051 | 2 |
| 2025-05-09T20:15:00 | 54.712664 | 7.934367 | 2.0 | 11.569 | 2 | 35.691 | 11.726 | 31.053 | 2 |
| 2025-05-09T20:16:00 | 54.711421 | 7.933604 | 2.0 | 11.581 | 2 | 35.707 | 11.738 | 31.058 | 2 |
| 2025-05-09T20:17:00 | 54.710175 | 7.932847 | 2.0 | 11.597 | 2 | 35.725 | 11.751 | 31.065 | 2 |
| 2025-05-09T20:18:00 | 54.708923 | 7.932130 | 2.0 | 11.607 | 2 | 35.741 | 11.764 | 31.069 | 2 |
| 2025-05-09T20:19:00 | 54.707679 | 7.931428 | 2.0 | 11.622 | 2 | 35.758 | 11.778 | 31.074 | 2 |
| 2025-05-09T20:20:00 | 54.706451 | 7.930680 | 2.0 | 11.632 | 2 | 35.775 | 11.790 | 31.080 | 2 |
| 2025-05-09T20:21:00 | 54.705221 | 7.929958 | 2.0 | 11.643 | 2 | 35.788 | 11.798 | 31.086 | 2 |
| 2025-05-09T20:22:00 | 54.703976 | 7.929290 | 2.0 | 11.655 | 2 | 35.803 | 11.811 | 31.090 | 2 |
| 2025-05-09T20:23:00 | 54.702725 | 7.928645 | 2.0 | 11.666 | 2 | 35.816 | 11.822 | 31.093 | 2 |
| 2025-05-09T20:24:00 | 54.701475 | 7.927991 | 2.0 | 11.672 | 2 | 35.826 | 11.833 | 31.094 | 2 |
| 2025-05-09T20:25:00 | 54.700229 | 7.927285 | 2.0 | 11.678 | 2 | 35.833 | 11.839 | 31.095 | 2 |
| 2025-05-09T20:26:00 | 54.698982 | 7.926567 | 2.0 | 11.676 | 2 | 35.837 | 11.844 | 31.095 | 2 |
| 2025-05-09T20:27:00 | 54.697732 | 7.925842 | 2.0 | 11.681 | 2 | 35.836 | 11.844 | 31.094 | 2 |
| 2025-05-09T20:28:00 | 54.696479 | 7.925157 | 2.0 | 11.674 | 2 | 35.834 | 11.846 | 31.091 | 2 |
| 2025-05-09T20:29:00 | 54.695221 | 7.924499 | 2.0 | 11.668 | 2 | 35.826 | 11.841 | 31.087 | 2 |
| 2025-05-09T20:30:00 | 54.693979 | 7.923777 | 2.0 | 11.661 | 2 | 35.811 | 11.833 | 31.079 | 2 |
| 2025-05-09T20:31:00 | 54.692761 | 7.923006 | 2.0 | 11.656 | 2 | 35.801 | 11.828 | 31.074 | 2 |
| 2025-05-09T20:32:00 | 54.691533 | 7.922275 | 2.0 | 11.654 | 2 | 35.788 | 11.822 | 31.066 | 2 |
| 2025-05-09T20:33:00 | 54.690303 | 7.921582 | 2.0 | 11.648 | 2 | 35.777 | 11.821 | 31.057 | 2 |
| 2025-05-09T20:34:00 | 54.689056 | 7.920940 | 2.0 | 11.640 | 2 | 35.763 | 11.813 | 31.050 | 2 |
| 2025-05-09T20:35:00 | 54.687817 | 7.920292 | 2.0 | 11.630 | 2 | 35.747 | 11.805 | 31.041 | 2 |
| 2025-05-09T20:36:00 | 54.686581 | 7.919672 | 2.0 | 11.626 | 2 | 35.732 | 11.798 | 31.032 | 2 |
| 2025-05-09T20:37:00 | 54.685333 | 7.919141 | 2.0 | 11.622 | 2 | 35.716 | 11.792 | 31.022 | 2 |
| 2025-05-09T20:38:00 | 54.684084 | 7.918634 | 2.0 | 11.606 | 2 | 35.699 | 11.785 | 31.011 | 2 |
| 2025-05-09T20:39:00 | 54.682877 | 7.918041 | 2.0 | 11.590 | 2 | 35.679 | 11.772 | 31.003 | 2 |
| 2025-05-09T20:40:00 | 54.681707 | 7.917456 | 2.0 | 11.585 | 2 | 35.657 | 11.757 | 30.994 | 2 |
| 2025-05-09T20:41:00 | 54.680523 | 7.917054 | 2.0 | 11.585 | 2 | 35.645 | 11.754 | 30.985 | 2 |
| 2025-05-09T20:42:00 | 54.679344 | 7.916651 | 2.0 | 11.588 | 2 | 35.639 | 11.755 | 30.978 | 2 |
| 2025-05-09T20:43:00 | 54.678177 | 7.916299 | 2.0 | 11.593 | 2 | 35.628 | 11.754 | 30.969 | 2 |
| 2025-05-09T20:44:00 | 54.677020 | 7.915890 | 2.0 | 11.592 | 2 | 35.628 | 11.761 | 30.963 | 2 |
| 2025-05-09T20:45:00 | 54.675864 | 7.915445 | 2.0 | 11.600 | 2 | 35.623 | 11.762 | 30.957 | 2 |
| 2025-05-09T20:46:00 | 54.674708 | 7.915020 | 2.0 | 11.603 | 2 | 35.620 | 11.766 | 30.951 | 2 |
| 2025-05-09T20:47:00 | 54.673537 | 7.914647 | 2.0 | 11.601 | 2 | 35.619 | 11.770 | 30.947 | 2 |
| 2025-05-09T20:48:00 | 54.672372 | 7.914320 | 2.0 | 11.598 | 2 | 35.612 | 11.768 | 30.942 | 2 |
| 2025-05-09T20:49:00 | 54.671202 | 7.913992 | 2.0 | 11.586 | 2 | 35.602 | 11.763 | 30.936 | 2 |
| 2025-05-09T20:50:00 | 54.670039 | 7.913656 | 2.0 | 11.581 | 2 | 35.588 | 11.754 | 30.930 | 2 |
| 2025-05-09T20:51:00 | 54.668904 | 7.913224 | 2.0 | 11.575 | 2 | 35.576 | 11.745 | 30.926 | 2 |
| 2025-05-09T20:52:00 | 54.667774 | 7.912767 | 2.0 | 11.569 | 2 | 35.570 | 11.742 | 30.923 | 2 |
| 2025-05-09T20:53:00 | 54.666632 | 7.912361 | 2.0 | 11.562 | 2 | 35.560 | 11.734 | 30.920 | 2 |
| 2025-05-09T20:54:00 | 54.665485 | 7.912037 | 2.0 | 11.553 | 2 | 35.555 | 11.730 | 30.918 | 2 |
| 2025-05-09T20:55:00 | 54.664349 | 7.911676 | 2.0 | 11.550 | 2 | 35.551 | 11.721 | 30.922 | 2 |
| 2025-05-09T20:56:00 | 54.663229 | 7.911269 | 2.0 | 11.540 | 2 | 35.550 | 11.716 | 30.925 | 2 |
| 2025-05-09T20:57:00 | 54.662104 | 7.910871 | 2.0 | 11.532 | 2 | 35.546 | 11.708 | 30.928 | 2 |
| 2025-05-09T20:58:00 | 54.660973 | 7.910485 | 2.0 | 11.525 | 2 | 35.550 | 11.699 | 30.939 | 2 |
| 2025-05-09T20:59:00 | 54.659836 | 7.910107 | 2.0 | 11.521 | 2 | 35.555 | 11.693 | 30.949 | 2 |
| 2025-05-09T21:00:00 | 54.658699 | 7.909744 | 2.0 | 11.521 | 2 | 35.562 | 11.691 | 30.957 | 2 |
| 2025-05-09T21:01:00 | 54.657554 | 7.909387 | 2.0 | 11.522 | 2 | 35.571 | 11.690 | 30.967 | 2 |
| 2025-05-09T21:02:00 | 54.656414 | 7.908973 | 2.0 | 11.524 | 2 | 35.585 | 11.690 | 30.980 | 2 |
| 2025-05-09T21:03:00 | 54.655278 | 7.908567 | 2.0 | 11.525 | 2 | 35.601 | 11.691 | 30.995 | 2 |
| 2025-05-09T21:04:00 | 54.654136 | 7.908206 | 2.0 | 11.524 | 2 | 35.616 | 11.693 | 31.008 | 2 |
| 2025-05-09T21:05:00 | 54.652991 | 7.907874 | 2.0 | 11.521 | 2 | 35.630 | 11.691 | 31.023 | 2 |
| 2025-05-09T21:06:00 | 54.651843 | 7.907536 | 2.0 | 11.516 | 2 | 35.645 | 11.689 | 31.039 | 2 |
| 2025-05-09T21:07:00 | 54.650698 | 7.907171 | 2.0 | 11.509 | 2 | 35.653 | 11.684 | 31.051 | 2 |
| 2025-05-09T21:08:00 | 54.649556 | 7.906774 | 2.0 | 11.495 | 2 | 35.661 | 11.674 | 31.067 | 2 |
| 2025-05-09T21:09:00 | 54.648415 | 7.906353 | 2.0 | 11.477 | 2 | 35.667 | 11.660 | 31.085 | 2 |
| 2025-05-09T21:10:00 | 54.647271 | 7.905967 | 2.0 | 11.469 | 2 | 35.671 | 11.645 | 31.101 | 2 |
| 2025-05-09T21:11:00 | 54.646143 | 7.905539 | 2.0 | 11.467 | 2 | 35.682 | 11.639 | 31.117 | 2 |
| 2025-05-09T21:12:00 | 54.645018 | 7.905094 | 2.0 | 11.455 | 2 | 35.686 | 11.634 | 31.125 | 2 |
| 2025-05-09T21:13:00 | 54.643881 | 7.904723 | 2.0 | 11.438 | 2 | 35.689 | 11.621 | 31.139 | 2 |
| 2025-05-09T21:14:00 | 54.642743 | 7.904450 | 2.0 | 11.430 | 2 | 35.691 | 11.605 | 31.154 | 2 |
| 2025-05-09T21:15:00 | 54.641609 | 7.904125 | 2.0 | 11.420 | 2 | 35.686 | 11.596 | 31.157 | 2 |
| 2025-05-09T21:16:00 | 54.640487 | 7.903690 | 2.0 | 11.414 | 2 | 35.693 | 11.587 | 31.171 | 2 |
| 2025-05-09T21:17:00 | 54.639368 | 7.903258 | 2.0 | 11.409 | 2 | 35.699 | 11.582 | 31.181 | 2 |
| 2025-05-09T21:18:00 | 54.638243 | 7.902849 | 2.0 | 11.403 | 2 | 35.705 | 11.576 | 31.192 | 2 |
| 2025-05-09T21:19:00 | 54.637112 | 7.902481 | 2.0 | 11.401 | 2 | 35.711 | 11.571 | 31.202 | 2 |
| 2025-05-09T21:20:00 | 54.635967 | 7.902194 | 2.0 | 11.404 | 2 | 35.722 | 11.571 | 31.213 | 2 |
| 2025-05-09T21:21:00 | 54.634825 | 7.901867 | 2.0 | 11.407 | 2 | 35.730 | 11.573 | 31.219 | 2 |
| 2025-05-09T21:22:00 | 54.633697 | 7.901475 | 2.0 | 11.406 | 2 | 35.736 | 11.575 | 31.223 | 2 |
| 2025-05-09T21:23:00 | 54.632577 | 7.901059 | 2.0 | 11.407 | 2 | 35.743 | 11.574 | 31.231 | 2 |
| 2025-05-09T21:24:00 | 54.631453 | 7.900714 | 2.0 | 11.408 | 2 | 35.749 | 11.574 | 31.237 | 2 |
| 2025-05-09T21:25:00 | 54.630306 | 7.900658 | 2.0 | 11.414 | 2 | 35.754 | 11.576 | 31.240 | 2 |
| 2025-05-09T21:26:00 | 54.629144 | 7.900744 | 2.0 | 11.418 | 2 | 35.759 | 11.582 | 31.240 | 2 |
| 2025-05-09T21:27:00 | 54.627978 | 7.900728 | 2.0 | 11.422 | 2 | 35.762 | 11.587 | 31.238 | 2 |
| 2025-05-09T21:28:00 | 54.626807 | 7.900640 | 2.0 | 11.432 | 2 | 35.762 | 11.591 | 31.235 | 2 |
| 2025-05-09T21:29:00 | 54.625636 | 7.900578 | 2.0 | 11.440 | 2 | 35.766 | 11.601 | 31.230 | 2 |
| 2025-05-09T21:30:00 | 54.624453 | 7.900588 | 2.0 | 11.461 | 2 | 35.767 | 11.610 | 31.224 | 2 |
| 2025-05-09T21:31:00 | 54.623265 | 7.900626 | 2.0 | 11.490 | 2 | 35.773 | 11.631 | 31.212 | 2 |
| 2025-05-09T21:32:00 | 54.622072 | 7.900647 | 2.0 | 11.514 | 2 | 35.784 | 11.658 | 31.200 | 2 |
| 2025-05-09T21:33:00 | 54.620878 | 7.900626 | 2.0 | 11.540 | 2 | 35.797 | 11.686 | 31.189 | 2 |
| 2025-05-09T21:34:00 | 54.619685 | 7.900585 | 2.0 | 11.582 | 2 | 35.815 | 11.715 | 31.182 | 2 |
| 2025-05-09T21:35:00 | 54.618495 | 7.900571 | 2.0 | 11.618 | 2 | 35.831 | 11.753 | 31.166 | 2 |
| 2025-05-09T21:36:00 | 54.617300 | 7.900550 | 2.0 | 11.630 | 2 | 35.849 | 11.783 | 31.158 | 2 |
| 2025-05-09T21:37:00 | 54.615983 | 7.900548 | 2.0 | 11.623 | 2 | 35.856 | 11.792 | 31.157 | 2 |
| 2025-05-09T21:38:00 | 54.614517 | 7.900559 | 2.0 | 11.643 | 2 | 35.855 | 11.788 | 31.159 | 2 |
| 2025-05-09T21:39:00 | 54.612909 | 7.900561 | 2.0 | 11.584 | 2 | 35.855 | 11.809 | 31.142 | 2 |
| 2025-05-09T21:40:00 | 54.611153 | 7.900728 | 2.0 | 11.458 | 2 | 35.843 | 11.718 | 31.207 | 2 |
| 2025-05-09T21:41:00 | 54.609341 | 7.901057 | 2.0 | 11.458 | 2 | 35.815 | 11.632 | 31.252 | 2 |
| 2025-05-09T21:42:00 | 54.607478 | 7.901224 | 2.0 | 11.436 | 2 | 35.812 | 11.622 | 31.257 | 2 |
| 2025-05-09T21:43:00 | 54.605587 | 7.901414 | 2.0 | 11.433 | 2 | 35.805 | 11.605 | 31.265 | 2 |
| 2025-05-09T21:44:00 | 54.603684 | 7.901603 | 2.0 | 11.412 | 2 | 35.800 | 11.599 | 31.265 | 2 |
| 2025-05-09T21:45:00 | 54.601784 | 7.901813 | 2.0 | 11.383 | 2 | 35.787 | 11.578 | 31.270 | 2 |
| 2025-05-09T21:46:00 | 54.599888 | 7.902052 | 2.0 | 11.382 | 2 | 35.769 | 11.554 | 31.273 | 2 |
| 2025-05-09T21:47:00 | 54.597995 | 7.902304 | 2.0 | 11.349 | 2 | 35.757 | 11.538 | 31.275 | 2 |
| 2025-05-09T21:48:00 | 54.596103 | 7.902516 | 2.0 | 11.340 | 2 | 35.744 | 11.520 | 31.277 | 2 |
| 2025-05-09T21:49:00 | 54.594206 | 7.902736 | 2.0 | 11.331 | 2 | 35.734 | 11.505 | 31.280 | 2 |
| 2025-05-09T21:50:00 | 54.592293 | 7.902988 | 2.0 | 11.344 | 2 | 35.730 | 11.504 | 31.277 | 2 |
| 2025-05-09T21:51:00 | 54.590388 | 7.903218 | 2.0 | 11.330 | 2 | 35.732 | 11.510 | 31.274 | 2 |
| 2025-05-09T21:52:00 | 54.588496 | 7.903397 | 2.0 | 11.310 | 2 | 35.724 | 11.496 | 31.278 | 2 |
| 2025-05-09T21:53:00 | 54.586602 | 7.903565 | 2.0 | 11.279 | 2 | 35.711 | 11.476 | 31.282 | 2 |
| 2025-05-09T21:54:00 | 54.584705 | 7.903839 | 2.0 | 11.292 | 2 | 35.692 | 11.450 | 31.286 | 2 |
| 2025-05-09T21:55:00 | 54.582802 | 7.904133 | 2.0 | 11.297 | 2 | 35.698 | 11.461 | 31.282 | 2 |
| 2025-05-09T21:56:00 | 54.580901 | 7.904357 | 2.0 | 11.320 | 2 | 35.702 | 11.468 | 31.280 | 2 |
| 2025-05-09T21:57:00 | 54.578990 | 7.904539 | 2.0 | 11.287 | 2 | 35.708 | 11.480 | 31.276 | 2 |
| 2025-05-09T21:58:00 | 54.577076 | 7.904727 | 2.0 | 11.310 | 2 | 35.696 | 11.460 | 31.281 | 2 |
| 2025-05-09T21:59:00 | 54.575166 | 7.904965 | 2.0 | 11.339 | 2 | 35.711 | 11.483 | 31.276 | 2 |
| 2025-05-09T22:00:00 | 54.573251 | 7.905211 | 2.0 | 11.361 | 2 | 35.729 | 11.509 | 31.272 | 2 |
| 2025-05-09T22:01:00 | 54.571328 | 7.905428 | 2.0 | 11.400 | 2 | 35.745 | 11.532 | 31.268 | 2 |
| 2025-05-09T22:02:00 | 54.569400 | 7.905568 | 2.0 | 11.433 | 2 | 35.771 | 11.573 | 31.259 | 2 |
| 2025-05-09T22:03:00 | 54.567468 | 7.905791 | 2.0 | 11.453 | 2 | 35.792 | 11.600 | 31.256 | 2 |
| 2025-05-09T22:04:00 | 54.565545 | 7.906167 | 2.0 | 11.480 | 2 | 35.807 | 11.622 | 31.252 | 2 |
| 2025-05-09T22:05:00 | 54.563762 | 7.907342 | 2.0 | 11.505 | 2 | 35.820 | 11.649 | 31.242 | 2 |
| 2025-05-09T22:06:00 | 54.562126 | 7.909040 | 2.0 | 11.509 | 2 | 35.831 | 11.666 | 31.239 | 2 |
| 2025-05-09T22:07:00 | 54.560428 | 7.910605 | 2.0 | 11.502 | 2 | 35.835 | 11.675 | 31.235 | 2 |
| 2025-05-09T22:08:00 | 54.558702 | 7.912108 | 2.0 | 11.503 | 2 | 35.826 | 11.665 | 31.235 | 2 |
| 2025-05-09T22:09:00 | 54.556987 | 7.913673 | 2.0 | 11.482 | 2 | 35.820 | 11.665 | 31.229 | 2 |
| 2025-05-09T22:10:00 | 54.555273 | 7.915246 | 2.0 | 11.475 | 2 | 35.808 | 11.648 | 31.231 | 2 |
| 2025-05-09T22:11:00 | 54.553562 | 7.916803 | 2.0 | 11.465 | 2 | 35.796 | 11.642 | 31.225 | 2 |
| 2025-05-09T22:12:00 | 54.551933 | 7.918316 | 2.0 | 11.448 | 2 | 35.789 | 11.627 | 31.231 | 2 |
| 2025-05-09T22:13:00 | 54.550356 | 7.919732 | 2.0 | 11.444 | 2 | 35.781 | 11.616 | 31.232 | 2 |
| 2025-05-09T22:14:00 | 54.548816 | 7.921140 | 2.0 | 11.406 | 2 | 35.770 | 11.590 | 31.243 | 2 |
| 2025-05-09T22:15:00 | 54.547293 | 7.922534 | 2.0 | 11.443 | 2 | 35.767 | 11.584 | 31.246 | 2 |
| 2025-05-09T22:16:00 | 54.545790 | 7.923912 | 2.0 | 11.413 | 2 | 35.785 | 11.615 | 31.237 | 2 |
| 2025-05-09T22:17:00 | 54.544304 | 7.925311 | 2.0 | 11.223 | 2 | 35.746 | 11.530 | 31.271 | 2 |
| 2025-05-09T22:18:00 | 54.542828 | 7.926694 | 2.0 | 11.244 | 2 | 35.665 | 11.408 | 31.295 | 2 |
| 2025-05-09T22:19:00 | 54.541339 | 7.928022 | 2.0 | 11.263 | 2 | 35.670 | 11.418 | 31.292 | 2 |
| 2025-05-09T22:20:00 | 54.539866 | 7.929341 | 2.0 | 11.254 | 2 | 35.680 | 11.432 | 31.289 | 2 |
| 2025-05-09T22:21:00 | 54.538410 | 7.930714 | 2.0 | 11.245 | 2 | 35.673 | 11.419 | 31.294 | 2 |
| 2025-05-09T22:22:00 | 54.536950 | 7.932069 | 2.0 | 11.236 | 2 | 35.667 | 11.412 | 31.294 | 2 |
| 2025-05-09T22:23:00 | 54.535485 | 7.933381 | 2.0 | 11.232 | 2 | 35.649 | 11.406 | 31.281 | 2 |
| 2025-05-09T22:24:00 | 54.534033 | 7.934716 | 2.0 | 11.218 | 2 | 35.649 | 11.400 | 31.286 | 2 |
| 2025-05-09T22:25:00 | 54.532593 | 7.936080 | 2.0 | 11.222 | 2 | 35.640 | 11.387 | 31.289 | 2 |
| 2025-05-09T22:26:00 | 54.531147 | 7.937398 | 2.0 | 11.225 | 2 | 35.641 | 11.392 | 31.285 | 2 |
| 2025-05-09T22:27:00 | 54.529703 | 7.938714 | 2.0 | 11.213 | 2 | 35.639 | 11.390 | 31.285 | 2 |
| 2025-05-09T22:28:00 | 54.528265 | 7.940025 | 2.0 | 11.202 | 2 | 35.629 | 11.381 | 31.283 | 2 |
| 2025-05-09T22:29:00 | 54.526830 | 7.941332 | 2.0 | 11.190 | 2 | 35.617 | 11.368 | 31.282 | 2 |
| 2025-05-09T22:30:00 | 54.525392 | 7.942632 | 2.0 | 11.181 | 2 | 35.605 | 11.357 | 31.280 | 2 |
| 2025-05-09T22:31:00 | 54.523959 | 7.943919 | 2.0 | 11.193 | 2 | 35.597 | 11.353 | 31.275 | 2 |
| 2025-05-09T22:32:00 | 54.522535 | 7.945223 | 2.0 | 11.199 | 2 | 35.599 | 11.362 | 31.270 | 2 |
| 2025-05-09T22:33:00 | 54.521116 | 7.946543 | 2.0 | 11.188 | 2 | 35.597 | 11.365 | 31.265 | 2 |
| 2025-05-09T22:34:00 | 54.519714 | 7.947861 | 2.0 | 11.193 | 2 | 35.587 | 11.359 | 31.261 | 2 |
| 2025-05-09T22:35:00 | 54.518315 | 7.949173 | 2.0 | 11.204 | 2 | 35.585 | 11.363 | 31.255 | 2 |
| 2025-05-09T22:36:00 | 54.516901 | 7.950413 | 2.0 | 11.205 | 2 | 35.589 | 11.372 | 31.251 | 2 |
| 2025-05-09T22:37:00 | 54.515491 | 7.951670 | 2.0 | 11.201 | 2 | 35.584 | 11.371 | 31.247 | 2 |
| 2025-05-09T22:38:00 | 54.514086 | 7.952961 | 2.0 | 11.208 | 2 | 35.576 | 11.370 | 31.241 | 2 |
| 2025-05-09T22:39:00 | 54.512676 | 7.954242 | 2.0 | 11.221 | 2 | 35.574 | 11.377 | 31.233 | 2 |
| 2025-05-09T22:40:00 | 54.511268 | 7.955513 | 2.0 | 11.226 | 2 | 35.579 | 11.390 | 31.227 | 2 |
| 2025-05-09T22:41:00 | 54.509869 | 7.956800 | 2.0 | 11.234 | 2 | 35.577 | 11.395 | 31.220 | 2 |
| 2025-05-09T22:42:00 | 54.508457 | 7.958057 | 2.0 | 11.242 | 2 | 35.577 | 11.401 | 31.215 | 2 |
| 2025-05-09T22:43:00 | 54.507055 | 7.959323 | 2.0 | 11.248 | 2 | 35.575 | 11.412 | 31.204 | 2 |
| 2025-05-09T22:44:00 | 54.505671 | 7.960620 | 2.0 | 11.253 | 2 | 35.566 | 11.418 | 31.190 | 2 |
| 2025-05-09T22:45:00 | 54.504284 | 7.961914 | 2.0 | 11.253 | 2 | 35.565 | 11.418 | 31.189 | 2 |
| 2025-05-09T22:46:00 | 54.502905 | 7.963190 | 2.0 | 11.256 | 2 | 35.565 | 11.420 | 31.188 | 2 |
| 2025-05-09T22:47:00 | 54.501519 | 7.964458 | 2.0 | 11.237 | 2 | 35.562 | 11.419 | 31.185 | 2 |
| 2025-05-09T22:48:00 | 54.500123 | 7.965701 | 2.0 | 11.215 | 2 | 35.550 | 11.402 | 31.188 | 2 |
| 2025-05-09T22:49:00 | 54.498730 | 7.966945 | 2.0 | 11.207 | 2 | 35.535 | 11.381 | 31.191 | 2 |
| 2025-05-09T22:50:00 | 54.497356 | 7.968220 | 2.0 | 11.197 | 2 | 35.523 | 11.374 | 31.185 | 2 |
| 2025-05-09T22:51:00 | 54.495977 | 7.969488 | 2.0 | 11.191 | 2 | 35.478 | 11.364 | 31.150 | 2 |
| 2025-05-09T22:52:00 | 54.494591 | 7.970717 | 2.0 | 11.193 | 2 | 35.503 | 11.360 | 31.178 | 2 |
| 2025-05-09T22:53:00 | 54.493213 | 7.971950 | 2.0 | 11.175 | 2 | 35.507 | 11.358 | 31.183 | 2 |
| 2025-05-09T22:54:00 | 54.491840 | 7.973221 | 2.0 | 11.164 | 2 | 35.492 | 11.343 | 31.181 | 2 |
| 2025-05-09T22:55:00 | 54.490465 | 7.974491 | 2.0 | 11.140 | 2 | 35.477 | 11.326 | 31.181 | 2 |
| 2025-05-09T22:56:00 | 54.489100 | 7.975765 | 2.0 | 11.131 | 2 | 35.461 | 11.307 | 31.182 | 2 |
| 2025-05-09T22:57:00 | 54.487738 | 7.977021 | 2.0 | 11.116 | 2 | 35.452 | 11.298 | 31.180 | 2 |
| 2025-05-09T22:58:00 | 54.486368 | 7.978259 | 2.0 | 11.111 | 2 | 35.441 | 11.283 | 31.182 | 2 |
| 2025-05-09T22:59:00 | 54.484985 | 7.979505 | 2.0 | 11.118 | 2 | 35.437 | 11.281 | 31.180 | 2 |
| 2025-05-09T23:00:00 | 54.483605 | 7.980754 | 2.0 | 11.139 | 2 | 35.443 | 11.290 | 31.178 | 2 |
| 2025-05-09T23:01:00 | 54.482222 | 7.982015 | 2.0 | 11.160 | 2 | 35.454 | 11.310 | 31.172 | 2 |
| 2025-05-09T23:02:00 | 54.480832 | 7.983263 | 2.0 | 11.179 | 2 | 35.466 | 11.331 | 31.166 | 2 |
| 2025-05-09T23:03:00 | 54.479463 | 7.984524 | 2.0 | 11.194 | 2 | 35.477 | 11.351 | 31.160 | 2 |
| 2025-05-09T23:04:00 | 54.478100 | 7.985774 | 2.0 | 11.196 | 2 | 35.484 | 11.360 | 31.159 | 2 |
| 2025-05-09T23:05:00 | 54.476729 | 7.986988 | 2.0 | 11.195 | 2 | 35.484 | 11.364 | 31.156 | 2 |
| 2025-05-09T23:06:00 | 54.475357 | 7.988209 | 2.0 | 11.188 | 2 | 35.481 | 11.361 | 31.155 | 2 |
| 2025-05-09T23:07:00 | 54.474005 | 7.989490 | 2.0 | 11.179 | 2 | 35.476 | 11.353 | 31.157 | 2 |
| 2025-05-09T23:08:00 | 54.472667 | 7.990769 | 2.0 | 11.176 | 2 | 35.472 | 11.347 | 31.158 | 2 |
| 2025-05-09T23:09:00 | 54.471304 | 7.992016 | 2.0 | 11.160 | 2 | 35.464 | 11.340 | 31.157 | 2 |
| 2025-05-09T23:10:00 | 54.469927 | 7.993224 | 2.0 | 11.153 | 2 | 35.449 | 11.327 | 31.153 | 2 |
| 2025-05-09T23:11:00 | 54.468546 | 7.994460 | 2.0 | 11.161 | 2 | 35.439 | 11.323 | 31.147 | 2 |
| 2025-05-09T23:12:00 | 54.467180 | 7.995729 | 2.0 | 11.190 | 2 | 35.438 | 11.334 | 31.136 | 2 |
| 2025-05-09T23:13:00 | 54.465814 | 7.997004 | 2.0 | 11.198 | 2 | 35.445 | 11.357 | 31.124 | 2 |
| 2025-05-09T23:14:00 | 54.464432 | 7.998228 | 2.0 | 11.212 | 2 | 35.445 | 11.366 | 31.116 | 2 |
| 2025-05-09T23:15:00 | 54.463059 | 7.999478 | 2.0 | 11.233 | 2 | 35.456 | 11.385 | 31.111 | 2 |
| 2025-05-09T23:16:00 | 54.461682 | 8.000707 | 2.0 | 11.235 | 2 | 35.461 | 11.399 | 31.104 | 2 |
| 2025-05-09T23:17:00 | 54.460310 | 8.001960 | 2.0 | 11.236 | 2 | 35.456 | 11.403 | 31.096 | 2 |
| 2025-05-09T23:18:00 | 54.458937 | 8.003205 | 2.0 | 11.219 | 2 | 35.450 | 11.400 | 31.092 | 2 |
| 2025-05-09T23:19:00 | 54.457561 | 8.004454 | 2.0 | 11.208 | 2 | 35.425 | 11.385 | 31.081 | 2 |
| 2025-05-09T23:20:00 | 54.456195 | 8.005756 | 2.0 | 11.201 | 2 | 35.425 | 11.374 | 31.090 | 2 |
| 2025-05-09T23:21:00 | 54.454825 | 8.007025 | 2.0 | 11.192 | 2 | 35.418 | 11.369 | 31.087 | 2 |
| 2025-05-09T23:22:00 | 54.453431 | 8.008241 | 2.0 | 11.184 | 2 | 35.405 | 11.358 | 31.084 | 2 |
| 2025-05-09T23:23:00 | 54.452052 | 8.009469 | 2.0 | 11.157 | 2 | 35.391 | 11.347 | 31.079 | 2 |
| 2025-05-09T23:24:00 | 54.450712 | 8.010733 | 2.0 | 11.142 | 2 | 35.364 | 11.323 | 31.073 | 2 |
| 2025-05-09T23:25:00 | 54.449368 | 8.011996 | 2.0 | 11.140 | 2 | 35.111 | 11.312 | 30.836 | 2 |
| 2025-05-09T23:26:00 | 54.448005 | 8.013207 | 2.0 | 11.128 | 2 | 35.330 | 11.307 | 31.054 | 2 |
| 2025-05-09T23:27:00 | 54.446627 | 8.014406 | 2.0 | 11.112 | 2 | 35.314 | 11.294 | 31.049 | 2 |
| 2025-05-09T23:28:00 | 54.445248 | 8.015614 | 2.0 | 11.107 | 2 | 35.293 | 11.280 | 31.040 | 2 |
| 2025-05-09T23:29:00 | 54.443875 | 8.016836 | 2.0 | 11.099 | 2 | 35.281 | 11.274 | 31.034 | 2 |
| 2025-05-09T23:30:00 | 54.442515 | 8.018087 | 2.0 | 11.095 | 2 | 35.263 | 11.267 | 31.022 | 2 |
| 2025-05-09T23:31:00 | 54.441168 | 8.019360 | 2.0 | 11.083 | 2 | 35.252 | 11.264 | 31.014 | 2 |
| 2025-05-09T23:32:00 | 54.439832 | 8.020641 | 2.0 | 11.058 | 2 | 35.108 | 11.242 | 30.891 | 2 |
| 2025-05-09T23:33:00 | 54.438502 | 8.021943 | 2.0 | 11.115 | 2 | 35.253 | 11.231 | 31.042 | 2 |
| 2025-05-09T23:34:00 | 54.437152 | 8.023187 | 2.0 | 11.130 | 2 | 35.314 | 11.297 | 31.046 | 2 |
| 2025-05-09T23:35:00 | 54.435744 | 8.024289 | 2.0 | 11.132 | 2 | 34.603 | 11.281 | 30.367 | 2 |
| 2025-05-09T23:36:00 | 54.434374 | 8.025528 | 2.0 | 11.115 | 2 | 35.308 | 11.316 | 31.025 | 2 |
| 2025-05-09T23:37:00 | 54.432997 | 8.026792 | 2.0 | 11.107 | 2 | 34.757 | 11.278 | 30.519 | 2 |
| 2025-05-09T23:38:00 | 54.431599 | 8.028036 | 2.0 | 11.046 | 2 | 35.258 | 11.259 | 31.024 | 2 |
| 2025-05-09T23:39:00 | 54.430207 | 8.029285 | 2.0 | 11.038 | 2 | 35.045 | 11.217 | 30.851 | 2 |
| 2025-05-09T23:40:00 | 54.428820 | 8.030563 | 2.0 | 11.032 | 2 | 35.184 | 11.207 | 30.995 | 2 |
| 2025-05-09T23:41:00 | 54.427436 | 8.031840 | 2.0 | 11.028 | 2 | 34.910 | 11.200 | 30.733 | 2 |
| 2025-05-09T23:42:00 | 54.426055 | 8.033113 | 2.0 | 11.024 | 2 | 34.985 | 11.196 | 30.810 | 2 |
| 2025-05-09T23:43:00 | 54.424667 | 8.034355 | 2.0 | 11.020 | 2 | 34.896 | 11.192 | 30.726 | 2 |
| 2025-05-09T23:44:00 | 54.423299 | 8.035598 | 2.0 | 11.017 | 2 | 34.952 | 11.189 | 30.783 | 2 |
| 2025-05-09T23:45:00 | 54.421936 | 8.036846 | 2.0 | 11.011 | 2 | 35.169 | 11.185 | 30.999 | 2 |
| 2025-05-09T23:46:00 | 54.420573 | 8.038084 | 2.0 | 11.008 | 2 | 35.170 | 11.181 | 31.003 | 2 |
| 2025-05-09T23:47:00 | 54.419204 | 8.039318 | 2.0 | 11.015 | 2 | 35.173 | 11.177 | 31.010 | 2 |
| 2025-05-09T23:48:00 | 54.417827 | 8.040532 | 2.0 | 11.034 | 2 | 34.888 | 11.186 | 30.723 | 2 |
| 2025-05-09T23:49:00 | 54.416401 | 8.041574 | 2.0 | 11.053 | 2 | 34.816 | 11.203 | 30.639 | 2 |
| 2025-05-09T23:50:00 | 54.414968 | 8.042606 | 2.0 | 11.075 | 2 | 35.056 | 11.224 | 30.856 | 2 |
| 2025-05-09T23:51:00 | 54.413528 | 8.043634 | 2.0 | 11.094 | 2 | 35.097 | 11.245 | 30.878 | 2 |
| 2025-05-09T23:52:00 | 54.412081 | 8.044661 | 2.0 | 11.109 | 2 | 35.152 | 11.263 | 30.917 | 2 |
| 2025-05-09T23:53:00 | 54.410695 | 8.045831 | 2.0 | 11.122 | 2 | 35.134 | 11.277 | 30.888 | 2 |
| 2025-05-09T23:54:00 | 54.409429 | 8.047278 | 2.0 | 11.139 | 2 | 35.163 | 11.291 | 30.904 | 2 |
| 2025-05-09T23:55:00 | 54.408147 | 8.048711 | 2.0 | 11.148 | 2 | 35.119 | 11.307 | 30.848 | 2 |
| 2025-05-09T23:56:00 | 54.406850 | 8.050149 | 2.0 | 11.153 | 2 | 35.156 | 11.314 | 30.878 | 2 |
| 2025-05-09T23:57:00 | 54.405548 | 8.051585 | 2.0 | 11.270 | 2 | 35.045 | 11.334 | 30.753 | 2 |
| 2025-05-09T23:58:00 | 54.404255 | 8.053025 | 2.0 | 11.583 | 2 | 35.187 | 11.475 | 30.774 | 2 |
| 2025-05-09T23:59:00 | 54.402971 | 8.054495 | 2.0 | 12.041 | 2 | 35.132 | 11.823 | 30.434 | 2 |
| 2025-05-10T00:00:00 | 54.401685 | 8.055943 | 2.0 | 12.133 | 2 | 35.602 | 12.195 | 30.580 | 2 |
| 2025-05-10T00:01:00 | 54.400390 | 8.057372 | 2.0 | 12.149 | 2 | 35.707 | 12.285 | 30.606 | 2 |
| 2025-05-10T00:02:00 | 54.399015 | 8.058590 | 2.0 | 12.157 | 2 | 35.529 | 12.311 | 30.416 | 2 |
| 2025-05-10T00:03:00 | 54.397610 | 8.059760 | 2.0 | 12.113 | 2 | 35.508 | 12.300 | 30.405 | 2 |
| 2025-05-10T00:04:00 | 54.396233 | 8.060993 | 2.0 | 12.082 | 2 | 35.600 | 12.267 | 30.519 | 2 |
| 2025-05-10T00:05:00 | 54.394857 | 8.062224 | 2.0 | 12.069 | 2 | 35.466 | 12.241 | 30.413 | 2 |
| 2025-05-10T00:06:00 | 54.393484 | 8.063459 | 2.0 | 12.084 | 2 | 35.459 | 12.233 | 30.413 | 2 |
| 2025-05-10T00:07:00 | 54.392109 | 8.064689 | 2.0 | 12.083 | 2 | 35.553 | 12.245 | 30.492 | 2 |
| 2025-05-10T00:08:00 | 54.390731 | 8.065906 | 2.0 | 12.082 | 2 | 35.653 | 12.245 | 30.588 | 2 |
| 2025-05-10T00:09:00 | 54.389352 | 8.067107 | 2.0 | 12.063 | 2 | 35.644 | 12.241 | 30.582 | 2 |
| 2025-05-10T00:10:00 | 54.387977 | 8.068308 | 2.0 | 12.040 | 2 | 35.643 | 12.221 | 30.598 | 2 |
| 2025-05-10T00:11:00 | 54.386595 | 8.069505 | 2.0 | 12.042 | 2 | 35.565 | 12.202 | 30.539 | 2 |
| 2025-05-10T00:12:00 | 54.385214 | 8.070700 | 2.0 | 12.052 | 2 | 35.677 | 12.207 | 30.642 | 2 |
| 2025-05-10T00:13:00 | 54.383823 | 8.071883 | 2.0 | 12.054 | 2 | 35.632 | 12.213 | 30.594 | 2 |
| 2025-05-10T00:14:00 | 54.382436 | 8.073073 | 2.0 | 12.049 | 2 | 35.710 | 12.217 | 30.665 | 2 |
| 2025-05-10T00:15:00 | 54.381049 | 8.074262 | 2.0 | 12.024 | 2 | 35.735 | 12.208 | 30.696 | 2 |
| 2025-05-10T00:16:00 | 54.379660 | 8.075445 | 2.0 | 12.002 | 2 | 35.573 | 12.186 | 30.560 | 2 |
| 2025-05-10T00:17:00 | 54.378270 | 8.076624 | 2.0 | 11.967 | 2 | 35.363 | 12.159 | 30.381 | 2 |
| 2025-05-10T00:18:00 | 54.376883 | 8.077802 | 2.0 | 11.952 | 2 | 35.251 | 12.131 | 30.297 | 2 |
| 2025-05-10T00:19:00 | 54.375521 | 8.079034 | 2.0 | 11.941 | 2 | 35.414 | 12.116 | 30.465 | 2 |
| 2025-05-10T00:20:00 | 54.374166 | 8.080281 | 2.0 | 11.933 | 2 | 35.374 | 12.104 | 30.437 | 2 |
| 2025-05-10T00:21:00 | 54.372821 | 8.081569 | 2.0 | 11.918 | 2 | 35.602 | 12.097 | 30.660 | 2 |
| 2025-05-10T00:22:00 | 54.371480 | 8.082843 | 2.0 | 11.890 | 2 | 35.245 | 12.079 | 30.334 | 2 |
| 2025-05-10T00:23:00 | 54.370139 | 8.084102 | 2.0 | 11.858 | 2 | 35.506 | 12.052 | 30.605 | 2 |
| 2025-05-10T00:24:00 | 54.368809 | 8.085365 | 2.0 | 11.828 | 2 | 35.410 | 12.019 | 30.540 | 2 |
| 2025-05-10T00:25:00 | 54.367475 | 8.086626 | 2.0 | 11.784 | 2 | 35.320 | 11.986 | 30.481 | 2 |
| 2025-05-10T00:26:00 | 54.366154 | 8.087884 | 2.0 | 11.750 | 2 | 35.477 | 11.947 | 30.664 | 2 |
| 2025-05-10T00:27:00 | 54.364845 | 8.089156 | 2.0 | 11.698 | 2 | 35.283 | 11.908 | 30.509 | 2 |
| 2025-05-10T00:28:00 | 54.363520 | 8.090392 | 2.0 | 11.621 | 2 | 35.165 | 11.857 | 30.438 | 2 |
| 2025-05-10T00:29:00 | 54.362196 | 8.091641 | 2.0 | 11.528 | 2 | 35.219 | 11.768 | 30.563 | 2 |
| 2025-05-10T00:30:00 | 54.360865 | 8.092874 | 2.0 | 11.497 | 2 | 35.323 | 11.697 | 30.722 | 2 |
| 2025-05-10T00:31:00 | 54.359547 | 8.094135 | 2.0 | 11.473 | 2 | 35.370 | 11.663 | 30.795 | 2 |
| 2025-05-10T00:32:00 | 54.358237 | 8.095400 | 2.0 | 11.446 | 2 | 35.440 | 11.641 | 30.881 | 2 |
| 2025-05-10T00:33:00 | 54.356925 | 8.096659 | 2.0 | 11.406 | 2 | 35.374 | 11.609 | 30.844 | 2 |
| 2025-05-10T00:34:00 | 54.355623 | 8.097939 | 2.0 | 11.359 | 2 | 35.321 | 11.566 | 30.828 | 2 |
| 2025-05-10T00:35:00 | 54.354303 | 8.099185 | 2.0 | 11.329 | 2 | 35.187 | 11.524 | 30.733 | 2 |
| 2025-05-10T00:36:00 | 54.352980 | 8.100433 | 2.0 | 11.309 | 2 | 35.179 | 11.496 | 30.749 | 2 |
| 2025-05-10T00:37:00 | 54.351663 | 8.101718 | 2.0 | 11.315 | 2 | 35.251 | 11.483 | 30.829 | 2 |
| 2025-05-10T00:38:00 | 54.350354 | 8.103010 | 2.0 | 11.269 | 2 | 35.300 | 11.475 | 30.884 | 2 |
| 2025-05-10T00:39:00 | 54.349023 | 8.104268 | 2.0 | 11.253 | 2 | 35.091 | 11.436 | 30.713 | 2 |
| 2025-05-10T00:40:00 | 54.347684 | 8.105508 | 2.0 | 11.242 | 2 | 35.176 | 11.421 | 30.808 | 2 |
| 2025-05-10T00:41:00 | 54.346331 | 8.106722 | 2.0 | 11.233 | 2 | 35.171 | 11.411 | 30.812 | 2 |
| 2025-05-10T00:42:00 | 54.344995 | 8.107988 | 2.0 | 11.212 | 2 | 35.172 | 11.397 | 30.824 | 2 |
| 2025-05-10T00:43:00 | 54.343677 | 8.109300 | 2.0 | 11.193 | 2 | 35.152 | 11.380 | 30.819 | 2 |
| 2025-05-10T00:44:00 | 54.342350 | 8.110574 | 2.0 | 11.171 | 2 | 35.196 | 11.358 | 30.880 | 2 |
| 2025-05-10T00:45:00 | 54.341003 | 8.111811 | 2.0 | 11.143 | 2 | 35.148 | 11.337 | 30.851 | 2 |
| 2025-05-10T00:46:00 | 54.339659 | 8.113055 | 2.0 | 11.136 | 2 | 35.149 | 11.309 | 30.875 | 2 |
| 2025-05-10T00:47:00 | 54.338323 | 8.114324 | 2.0 | 11.137 | 2 | 35.143 | 11.307 | 30.871 | 2 |
| 2025-05-10T00:48:00 | 54.337005 | 8.115633 | 2.0 | 11.109 | 2 | 35.149 | 11.301 | 30.882 | 2 |
| 2025-05-10T00:49:00 | 54.335669 | 8.116925 | 2.0 | 11.099 | 2 | 35.111 | 11.275 | 30.867 | 2 |
| 2025-05-10T00:50:00 | 54.334295 | 8.118118 | 2.0 | 11.119 | 2 | 35.086 | 11.271 | 30.846 | 2 |
| 2025-05-10T00:51:00 | 54.332948 | 8.119357 | 2.0 | 11.137 | 2 | 35.129 | 11.288 | 30.873 | 2 |
| 2025-05-10T00:52:00 | 54.331643 | 8.120650 | 2.0 | 11.179 | 2 | 35.134 | 11.313 | 30.857 | 2 |
| 2025-05-10T00:53:00 | 54.330356 | 8.121951 | 2.0 | 11.209 | 2 | 35.192 | 11.348 | 30.885 | 2 |
| 2025-05-10T00:54:00 | 54.329047 | 8.123185 | 2.0 | 11.238 | 2 | 35.217 | 11.380 | 30.882 | 2 |
| 2025-05-10T00:55:00 | 54.327724 | 8.124409 | 2.0 | 11.266 | 2 | 35.215 | 11.407 | 30.858 | 2 |
| 2025-05-10T00:56:00 | 54.326397 | 8.125625 | 2.0 | 11.312 | 2 | 35.140 | 11.437 | 30.760 | 2 |
| 2025-05-10T00:57:00 | 54.325073 | 8.126862 | 2.0 | 11.342 | 2 | 35.231 | 11.480 | 30.812 | 2 |
| 2025-05-10T00:58:00 | 54.323758 | 8.128132 | 2.0 | 11.347 | 2 | 35.235 | 11.508 | 30.793 | 2 |
| 2025-05-10T00:59:00 | 54.322447 | 8.129414 | 2.0 | 11.314 | 2 | 35.269 | 11.505 | 30.829 | 2 |
| 2025-05-10T01:00:00 | 54.321102 | 8.130651 | 2.0 | 11.415 | 2 | 35.259 | 11.500 | 30.823 | 2 |
| 2025-05-10T01:01:00 | 54.319737 | 8.131851 | 2.0 | 11.478 | 2 | 35.271 | 11.580 | 30.768 | 2 |
| 2025-05-10T01:02:00 | 54.318395 | 8.133102 | 2.0 | 11.526 | 2 | 35.312 | 11.650 | 30.750 | 2 |
| 2025-05-10T01:03:00 | 54.317079 | 8.134382 | 2.0 | 11.546 | 2 | 35.312 | 11.690 | 30.717 | 2 |
| 2025-05-10T01:04:00 | 54.315752 | 8.135648 | 2.0 | 11.542 | 2 | 35.322 | 11.707 | 30.712 | 2 |
| 2025-05-10T01:05:00 | 54.314425 | 8.136911 | 2.0 | 11.522 | 2 | 35.310 | 11.701 | 30.706 | 2 |
| 2025-05-10T01:06:00 | 54.313106 | 8.138191 | 2.0 | 11.563 | 2 | 35.307 | 11.693 | 30.709 | 2 |
| 2025-05-10T01:07:00 | 54.311766 | 8.139422 | 2.0 | 11.614 | 2 | 35.299 | 11.733 | 30.669 | 2 |
| 2025-05-10T01:08:00 | 54.310429 | 8.140638 | 2.0 | 11.693 | 2 | 35.311 | 11.792 | 30.632 | 2 |
| 2025-05-10T01:09:00 | 54.309100 | 8.141875 | 2.0 | 11.719 | 2 | 35.353 | 11.855 | 30.620 | 2 |
| 2025-05-10T01:10:00 | 54.307782 | 8.143143 | 2.0 | 11.712 | 2 | 35.363 | 11.878 | 30.611 | 2 |
| 2025-05-10T01:11:00 | 54.306461 | 8.144413 | 2.0 | 11.722 | 2 | 35.303 | 11.875 | 30.556 | 2 |
| 2025-05-10T01:12:00 | 54.305125 | 8.145666 | 2.0 | 11.719 | 2 | 35.318 | 11.887 | 30.560 | 2 |
| 2025-05-10T01:13:00 | 54.303792 | 8.146921 | 2.0 | 11.713 | 2 | 35.317 | 11.880 | 30.565 | 2 |
| 2025-05-10T01:14:00 | 54.302458 | 8.148182 | 2.0 | 11.713 | 2 | 35.332 | 11.877 | 30.582 | 2 |
| 2025-05-10T01:15:00 | 54.301116 | 8.149425 | 2.0 | 11.713 | 2 | 35.318 | 11.876 | 30.569 | 2 |
| 2025-05-10T01:16:00 | 54.299779 | 8.150678 | 2.0 | 11.712 | 2 | 35.336 | 11.877 | 30.586 | 2 |
| 2025-05-10T01:17:00 | 54.298453 | 8.151947 | 2.0 | 11.724 | 2 | 35.341 | 11.877 | 30.591 | 2 |
| 2025-05-10T01:18:00 | 54.297126 | 8.153215 | 2.0 | 11.734 | 2 | 35.320 | 11.891 | 30.559 | 2 |
| 2025-05-10T01:19:00 | 54.295803 | 8.154480 | 2.0 | 11.730 | 2 | 35.352 | 11.897 | 30.585 | 2 |
| 2025-05-10T01:20:00 | 54.294487 | 8.155735 | 2.0 | 11.738 | 2 | 35.337 | 11.895 | 30.572 | 2 |
| 2025-05-10T01:21:00 | 54.293165 | 8.156988 | 2.0 | 11.741 | 2 | 35.354 | 11.903 | 30.582 | 2 |
| 2025-05-10T01:22:00 | 54.291839 | 8.158230 | 2.0 | 11.713 | 2 | 35.351 | 11.900 | 30.581 | 2 |
| 2025-05-10T01:23:00 | 54.290517 | 8.159482 | 2.0 | 11.696 | 2 | 35.331 | 11.873 | 30.584 | 2 |
| 2025-05-10T01:24:00 | 54.289194 | 8.160723 | 2.0 | 11.688 | 2 | 35.327 | 11.860 | 30.591 | 2 |
| 2025-05-10T01:25:00 | 54.287880 | 8.161974 | 2.0 | 11.666 | 2 | 35.318 | 11.848 | 30.592 | 2 |
| 2025-05-10T01:26:00 | 54.286563 | 8.163220 | 2.0 | 11.661 | 2 | 35.314 | 11.830 | 30.603 | 2 |
| 2025-05-10T01:27:00 | 54.285249 | 8.164467 | 2.0 | 11.652 | 2 | 35.318 | 11.826 | 30.610 | 2 |
| 2025-05-10T01:28:00 | 54.283936 | 8.165732 | 2.0 | 11.641 | 2 | 35.317 | 11.815 | 30.618 | 2 |
| 2025-05-10T01:29:00 | 54.282620 | 8.166986 | 2.0 | 11.629 | 2 | 35.313 | 11.803 | 30.624 | 2 |
| 2025-05-10T01:30:00 | 54.281297 | 8.168221 | 2.0 | 11.619 | 2 | 35.311 | 11.789 | 30.634 | 2 |
| 2025-05-10T01:31:00 | 54.279966 | 8.169466 | 2.0 | 11.628 | 2 | 35.318 | 11.786 | 30.643 | 2 |
| 2025-05-10T01:32:00 | 54.278642 | 8.170729 | 2.0 | 11.630 | 2 | 35.328 | 11.791 | 30.649 | 2 |
| 2025-05-10T01:33:00 | 54.277319 | 8.172012 | 2.0 | 11.674 | 2 | 35.338 | 11.803 | 30.648 | 2 |
| 2025-05-10T01:34:00 | 54.275987 | 8.173279 | 2.0 | 11.713 | 2 | 35.367 | 11.841 | 30.645 | 2 |
| 2025-05-10T01:35:00 | 54.274647 | 8.174532 | 2.0 | 11.738 | 2 | 35.388 | 11.878 | 30.635 | 2 |
| 2025-05-10T01:36:00 | 54.273316 | 8.175792 | 2.0 | 11.777 | 2 | 35.402 | 11.906 | 30.625 | 2 |
| 2025-05-10T01:37:00 | 54.271997 | 8.177067 | 2.0 | 11.787 | 2 | 35.417 | 11.937 | 30.614 | 2 |
| 2025-05-10T01:38:00 | 54.270658 | 8.178318 | 2.0 | 11.783 | 2 | 35.422 | 11.951 | 30.608 | 2 |
| 2025-05-10T01:39:00 | 54.269322 | 8.179576 | 2.0 | 11.748 | 2 | 35.413 | 11.941 | 30.607 | 2 |
| 2025-05-10T01:40:00 | 54.267992 | 8.180853 | 2.0 | 11.723 | 2 | 35.389 | 11.908 | 30.611 | 2 |
| 2025-05-10T01:41:00 | 54.266675 | 8.182138 | 2.0 | 11.730 | 2 | 35.370 | 11.889 | 30.609 | 2 |
| 2025-05-10T01:42:00 | 54.265358 | 8.183410 | 2.0 | 11.743 | 2 | 35.373 | 11.899 | 30.603 | 2 |
| 2025-05-10T01:43:00 | 54.264024 | 8.184657 | 2.0 | 11.747 | 2 | 35.374 | 11.908 | 30.597 | 2 |
| 2025-05-10T01:44:00 | 54.262689 | 8.185913 | 2.0 | 11.764 | 2 | 35.372 | 11.912 | 30.592 | 2 |
| 2025-05-10T01:45:00 | 54.261357 | 8.187165 | 2.0 | 11.775 | 2 | 35.380 | 11.930 | 30.584 | 2 |
| 2025-05-10T01:46:00 | 54.260036 | 8.188440 | 2.0 | 11.806 | 2 | 35.387 | 11.946 | 30.578 | 2 |
| 2025-05-10T01:47:00 | 54.258716 | 8.189731 | 2.0 | 11.814 | 2 | 35.398 | 11.969 | 30.570 | 2 |
| 2025-05-10T01:48:00 | 54.257364 | 8.190973 | 2.0 | 11.817 | 2 | 35.399 | 11.977 | 30.564 | 2 |
| 2025-05-10T01:49:00 | 54.256006 | 8.192211 | 2.0 | 11.812 | 2 | 35.399 | 11.979 | 30.563 | 2 |
| 2025-05-10T01:50:00 | 54.254661 | 8.193491 | 2.0 | 11.803 | 2 | 35.392 | 11.974 | 30.560 | 2 |
| 2025-05-10T01:51:00 | 54.253310 | 8.194779 | 2.0 | 11.808 | 2 | 35.384 | 11.967 | 30.558 | 2 |
| 2025-05-10T01:52:00 | 54.251953 | 8.196087 | 2.0 | 11.821 | 2 | 35.385 | 11.974 | 30.553 | 2 |
| 2025-05-10T01:53:00 | 54.250576 | 8.197390 | 2.0 | 11.835 | 2 | 35.392 | 11.987 | 30.549 | 2 |
| 2025-05-10T01:54:00 | 54.249200 | 8.198722 | 2.0 | 11.853 | 2 | 35.403 | 12.000 | 30.549 | 2 |
| 2025-05-10T01:55:00 | 54.247822 | 8.200062 | 2.0 | 11.862 | 2 | 35.417 | 12.018 | 30.548 | 2 |
| 2025-05-10T01:56:00 | 54.246410 | 8.201343 | 2.0 | 11.855 | 2 | 35.421 | 12.024 | 30.547 | 2 |
| 2025-05-10T01:57:00 | 54.245001 | 8.202642 | 2.0 | 11.847 | 2 | 35.414 | 12.017 | 30.546 | 2 |
| 2025-05-10T01:58:00 | 54.243605 | 8.203996 | 2.0 | 11.828 | 2 | 35.401 | 12.007 | 30.542 | 2 |
| 2025-05-10T01:59:00 | 54.242201 | 8.205360 | 2.0 | 11.806 | 2 | 35.379 | 11.989 | 30.535 | 2 |
| 2025-05-10T02:00:00 | 54.240774 | 8.206689 | 2.0 | 11.777 | 2 | 35.350 | 11.967 | 30.525 | 2 |
| 2025-05-10T02:01:00 | 54.239342 | 8.207984 | 2.0 | 11.761 | 2 | 35.325 | 11.942 | 30.522 | 2 |
| 2025-05-10T02:02:00 | 54.237922 | 8.209316 | 2.0 | 11.759 | 2 | 35.305 | 11.927 | 30.515 | 2 |
| 2025-05-10T02:03:00 | 54.236510 | 8.210651 | 2.0 | 11.763 | 2 | 35.298 | 11.925 | 30.510 | 2 |
| 2025-05-10T02:04:00 | 54.235106 | 8.212014 | 2.0 | 11.774 | 2 | 35.298 | 11.930 | 30.506 | 2 |
| 2025-05-10T02:05:00 | 54.233692 | 8.213372 | 2.0 | 11.782 | 2 | 35.303 | 11.940 | 30.502 | 2 |
| 2025-05-10T02:06:00 | 54.232251 | 8.214700 | 2.0 | 11.783 | 2 | 35.306 | 11.946 | 30.500 | 2 |
| 2025-05-10T02:07:00 | 54.230804 | 8.216014 | 2.0 | 11.788 | 2 | 35.307 | 11.948 | 30.500 | 2 |
| 2025-05-10T02:08:00 | 54.229363 | 8.217367 | 2.0 | 11.810 | 2 | 35.309 | 11.954 | 30.497 | 2 |
| 2025-05-10T02:09:00 | 54.227928 | 8.218755 | 2.0 | 11.829 | 2 | 35.327 | 11.979 | 30.494 | 2 |
| 2025-05-10T02:10:00 | 54.226484 | 8.220125 | 2.0 | 11.829 | 2 | 35.233 | 11.992 | 30.393 | 2 |
| 2025-05-10T02:11:00 | 54.225035 | 8.221484 | 2.0 | 11.829 | 2 | 35.341 | 11.992 | 30.496 | 2 |
| 2025-05-10T02:12:00 | 54.223589 | 8.222837 | 2.0 | 11.830 | 2 | 35.335 | 11.992 | 30.491 | 2 |
| 2025-05-10T02:13:00 | 54.222150 | 8.224188 | 2.0 | 11.826 | 2 | 35.327 | 11.993 | 30.482 | 2 |
| 2025-05-10T02:14:00 | 54.220723 | 8.225569 | 2.0 | 11.823 | 2 | 34.788 | 11.988 | 29.970 | 2 |
| 2025-05-10T02:15:00 | 54.219299 | 8.226924 | 2.0 | 11.816 | 2 | 35.250 | 11.985 | 30.415 | 2 |
| 2025-05-10T02:16:00 | 54.217871 | 8.228269 | 2.0 | 11.800 | 2 | 35.015 | 11.977 | 30.196 | 2 |
| 2025-05-10T02:17:00 | 54.216434 | 8.229598 | 2.0 | 11.787 | 2 | 34.750 | 11.963 | 29.954 | 2 |
| 2025-05-10T02:18:00 | 54.215003 | 8.230949 | 2.0 | 11.778 | 2 | 35.294 | 11.951 | 30.485 | 2 |
| 2025-05-10T02:19:00 | 54.213569 | 8.232306 | 2.0 | 11.772 | 2 | 35.286 | 11.943 | 30.484 | 2 |
| 2025-05-10T02:20:00 | 54.212130 | 8.233653 | 2.0 | 11.766 | 2 | 35.270 | 11.937 | 30.473 | 2 |
| 2025-05-10T02:21:00 | 54.210691 | 8.235009 | 2.0 | 11.756 | 2 | 34.995 | 11.930 | 30.215 | 2 |
| 2025-05-10T02:22:00 | 54.209250 | 8.236354 | 2.0 | 11.742 | 2 | 35.261 | 11.919 | 30.479 | 2 |
| 2025-05-10T02:23:00 | 54.207818 | 8.237690 | 2.0 | 11.740 | 2 | 34.902 | 11.908 | 30.144 | 2 |
| 2025-05-10T02:24:00 | 54.206451 | 8.238975 | 2.0 | 11.747 | 2 | 34.974 | 11.905 | 30.215 | 2 |
| 2025-05-10T02:25:00 | 54.205138 | 8.240224 | 2.0 | 11.756 | 2 | 35.124 | 11.913 | 30.353 | 2 |
| 2025-05-10T02:26:00 | 54.203859 | 8.241451 | 2.0 | 11.778 | 2 | 35.256 | 11.925 | 30.470 | 2 |
| 2025-05-10T02:27:00 | 54.202593 | 8.242631 | 2.0 | 11.783 | 2 | 35.235 | 11.943 | 30.435 | 2 |
| 2025-05-10T02:28:00 | 54.201335 | 8.243792 | 2.0 | 11.794 | 2 | 35.255 | 11.947 | 30.451 | 2 |
| 2025-05-10T02:29:00 | 54.200097 | 8.244939 | 2.0 | 11.794 | 2 | 34.860 | 11.961 | 30.061 | 2 |
| 2025-05-10T02:30:00 | 54.198914 | 8.246078 | 2.0 | 11.796 | 2 | 34.767 | 11.962 | 29.971 | 2 |
| 2025-05-10T02:31:00 | 54.197780 | 8.247177 | 2.0 | 11.779 | 2 | 34.904 | 11.953 | 30.110 | 2 |
| 2025-05-10T02:32:00 | 54.196673 | 8.248240 | 2.0 | 11.773 | 2 | 34.998 | 11.945 | 30.206 | 2 |
| 2025-05-10T02:33:00 | 54.195586 | 8.249293 | 2.0 | 11.785 | 2 | 34.948 | 11.941 | 30.161 | 2 |
| 2025-05-10T02:34:00 | 54.194510 | 8.250331 | 2.0 | 11.798 | 2 | 34.854 | 11.952 | 30.063 | 2 |
| 2025-05-10T02:35:00 | 54.193432 | 8.251357 | 2.0 | 11.805 | 2 | 35.106 | 11.964 | 30.294 | 2 |
| 2025-05-10T02:36:00 | 54.192353 | 8.252364 | 2.0 | 11.828 | 2 | 34.626 | 11.973 | 29.828 | 2 |
| 2025-05-10T02:37:00 | 54.191263 | 8.253358 | 2.0 | 11.858 | 2 | 34.804 | 11.999 | 29.977 | 2 |
| 2025-05-10T02:38:00 | 54.190182 | 8.254349 | 2.0 | 11.883 | 2 | 35.142 | 12.025 | 30.279 | 2 |
| 2025-05-10T02:39:00 | 54.189107 | 8.255355 | 2.0 | 11.904 | 2 | 35.142 | 12.049 | 30.260 | 2 |
| 2025-05-10T02:40:00 | 54.188039 | 8.256370 | 2.0 | 11.928 | 2 | 35.117 | 12.072 | 30.217 | 2 |
| 2025-05-10T02:41:00 | 54.186968 | 8.257378 | 2.0 | 11.956 | 2 | 35.162 | 12.094 | 30.242 | 2 |
| 2025-05-10T02:42:00 | 54.185904 | 8.258396 | 2.0 | 11.978 | 2 | 34.794 | 12.121 | 29.870 | 2 |
| 2025-05-10T02:43:00 | 54.184849 | 8.259430 | 2.0 | 12.008 | 2 | 35.033 | 12.146 | 30.077 | 2 |
| 2025-05-10T02:44:00 | 54.183780 | 8.260431 | 2.0 | 12.023 | 2 | 34.684 | 12.172 | 29.724 | 2 |
| 2025-05-10T02:45:00 | 54.182687 | 8.261392 | 2.0 | 12.047 | 2 | 35.155 | 12.190 | 30.158 | 2 |
| 2025-05-10T02:46:00 | 54.181601 | 8.262383 | 2.0 | 12.060 | 2 | 35.033 | 12.209 | 30.027 | 2 |
| 2025-05-10T02:47:00 | 54.180518 | 8.263379 | 2.0 | 12.077 | 2 | 35.159 | 12.226 | 30.133 | 2 |
| 2025-05-10T02:48:00 | 54.179431 | 8.264392 | 2.0 | 12.095 | 2 | 34.884 | 12.241 | 29.860 | 2 |
| 2025-05-10T02:49:00 | 54.178334 | 8.265398 | 2.0 | 12.109 | 2 | 34.854 | 12.259 | 29.817 | 2 |
| 2025-05-10T02:50:00 | 54.177223 | 8.266372 | 2.0 | 12.123 | 2 | 35.108 | 12.273 | 30.047 | 2 |
| 2025-05-10T02:51:00 | 54.176110 | 8.267338 | 2.0 | 12.130 | 2 | 34.819 | 12.285 | 29.763 | 2 |
| 2025-05-10T02:52:00 | 54.175001 | 8.268324 | 2.0 | 12.142 | 2 | 35.158 | 12.295 | 30.077 | 2 |
| 2025-05-10T02:53:00 | 54.173895 | 8.269339 | 2.0 | 12.162 | 2 | 34.983 | 12.309 | 29.899 | 2 |
| 2025-05-10T02:54:00 | 54.172787 | 8.270376 | 2.0 | 12.159 | 2 | 34.908 | 12.323 | 29.817 | 2 |
| 2025-05-10T02:55:00 | 54.171676 | 8.271403 | 2.0 | 12.156 | 2 | 34.967 | 12.321 | 29.875 | 2 |
| 2025-05-10T02:56:00 | 54.170541 | 8.272392 | 2.0 | 12.160 | 2 | 35.112 | 12.317 | 30.015 | 2 |
| 2025-05-10T02:57:00 | 54.169395 | 8.273378 | 2.0 | 12.167 | 2 | 35.235 | 12.325 | 30.126 | 2 |
| 2025-05-10T02:58:00 | 54.168261 | 8.274387 | 2.0 | 12.172 | 2 | 35.066 | 12.330 | 29.961 | 2 |
| 2025-05-10T02:59:00 | 54.167146 | 8.275422 | 2.0 | 12.163 | 2 | 35.248 | 12.334 | 30.131 | 2 |
| 2025-05-10T03:00:00 | 54.166034 | 8.276462 | 2.0 | 12.145 | 2 | 35.246 | 12.321 | 30.139 | 2 |
| 2025-05-10T03:01:00 | 54.164907 | 8.277497 | 2.0 | 12.123 | 2 | 34.961 | 12.306 | 29.881 | 2 |
| 2025-05-10T03:02:00 | 54.163774 | 8.278518 | 2.0 | 12.117 | 2 | 34.884 | 12.284 | 29.825 | 2 |
| 2025-05-10T03:03:00 | 54.162641 | 8.279528 | 2.0 | 12.122 | 2 | 35.199 | 12.282 | 30.126 | 2 |
| 2025-05-10T03:04:00 | 54.161502 | 8.280537 | 2.0 | 12.117 | 2 | 34.966 | 12.284 | 29.903 | 2 |
| 2025-05-10T03:05:00 | 54.160367 | 8.281548 | 2.0 | 12.127 | 2 | 34.914 | 12.282 | 29.855 | 2 |
| 2025-05-10T03:06:00 | 54.159236 | 8.282591 | 2.0 | 12.145 | 2 | 35.140 | 12.293 | 30.061 | 2 |
| 2025-05-10T03:07:00 | 54.158111 | 8.283640 | 2.0 | 12.151 | 2 | 35.203 | 12.308 | 30.109 | 2 |
| 2025-05-10T03:08:00 | 54.156991 | 8.284714 | 2.0 | 12.171 | 2 | 35.100 | 12.317 | 30.004 | 2 |
| 2025-05-10T03:09:00 | 54.155855 | 8.285780 | 2.0 | 12.202 | 2 | 35.258 | 12.338 | 30.137 | 2 |
| 2025-05-10T03:10:00 | 54.154697 | 8.286803 | 2.0 | 12.224 | 2 | 35.141 | 12.367 | 30.003 | 2 |
| 2025-05-10T03:11:00 | 54.153535 | 8.287823 | 2.0 | 12.242 | 2 | 35.120 | 12.387 | 29.967 | 2 |
| 2025-05-10T03:12:00 | 54.152382 | 8.288883 | 2.0 | 12.261 | 2 | 35.302 | 12.405 | 30.125 | 2 |
| 2025-05-10T03:13:00 | 54.151224 | 8.289952 | 2.0 | 12.281 | 2 | 35.311 | 12.426 | 30.117 | 2 |
| 2025-05-10T03:14:00 | 54.150048 | 8.291010 | 2.0 | 12.298 | 2 | 35.129 | 12.445 | 29.929 | 2 |
| 2025-05-10T03:15:00 | 54.148861 | 8.292070 | 2.0 | 12.326 | 2 | 35.217 | 12.464 | 29.997 | 2 |
| 2025-05-10T03:16:00 | 54.147668 | 8.293138 | 2.0 | 12.345 | 2 | 35.331 | 12.489 | 30.085 | 2 |
| 2025-05-10T03:17:00 | 54.146477 | 8.294211 | 2.0 | 12.375 | 2 | 35.340 | 12.508 | 30.078 | 2 |
| 2025-05-10T03:18:00 | 54.145311 | 8.295281 | 2.0 | 12.398 | 2 | 35.399 | 12.545 | 30.104 | 2 |
| 2025-05-10T03:19:00 | 54.144170 | 8.296377 | 2.0 | 12.395 | 2 | 35.313 | 12.557 | 30.014 | 2 |
| 2025-05-10T03:20:00 | 54.143025 | 8.297456 | 2.0 | 12.403 | 2 | 35.368 | 12.557 | 30.066 | 2 |
| 2025-05-10T03:21:00 | 54.141874 | 8.298514 | 2.0 | 12.429 | 2 | 35.262 | 12.568 | 29.957 | 2 |
| 2025-05-10T03:22:00 | 54.140720 | 8.299553 | 2.0 | 12.495 | 2 | 35.332 | 12.595 | 30.001 | 2 |
| 2025-05-10T03:23:00 | 54.139573 | 8.300591 | 2.0 | 12.553 | 2 | 35.364 | 12.663 | 29.977 | 2 |
| 2025-05-10T03:24:00 | 54.138444 | 8.301649 | 2.0 | 12.584 | 2 | 35.442 | 12.716 | 30.009 | 2 |
| 2025-05-10T03:25:00 | 54.137324 | 8.302725 | 2.0 | 12.668 | 2 | 35.508 | 12.746 | 30.047 | 2 |
| 2025-05-10T03:26:00 | 54.136195 | 8.303730 | 2.0 | 12.716 | 2 | 35.485 | 12.837 | 29.953 | 2 |
| 2025-05-10T03:27:00 | 54.135073 | 8.304710 | 2.0 | 12.747 | 2 | 35.471 | 12.877 | 29.908 | 2 |
| 2025-05-10T03:28:00 | 54.133967 | 8.305688 | 2.0 | 12.798 | 2 | 35.458 | 12.913 | 29.868 | 2 |
| 2025-05-10T03:29:00 | 54.132876 | 8.306656 | 2.0 | 12.866 | 2 | 35.411 | 12.954 | 29.791 | 2 |
| 2025-05-10T03:30:00 | 54.131814 | 8.307651 | 2.0 | 12.934 | 2 | 35.405 | 13.036 | 29.722 | 2 |
| 2025-05-10T03:31:00 | 54.130763 | 8.308650 | 2.0 | 12.966 | 2 | 35.395 | 13.092 | 29.668 | 2 |
| 2025-05-10T03:32:00 | 54.129714 | 8.309618 | 2.0 | 12.997 | 2 | 35.403 | 13.130 | 29.646 | 2 |
| 2025-05-10T03:33:00 | 54.128664 | 8.310551 | 2.0 | 13.009 | 2 | 35.424 | 13.153 | 29.648 | 2 |
| 2025-05-10T03:34:00 | 54.127610 | 8.311465 | 2.0 | 13.024 | 2 | 35.437 | 13.169 | 29.647 | 2 |
| 2025-05-10T03:35:00 | 54.126565 | 8.312393 | 2.0 | 13.027 | 2 | 35.451 | 13.181 | 29.651 | 2 |
| 2025-05-10T03:36:00 | 54.125531 | 8.313340 | 2.0 | 13.030 | 2 | 35.476 | 13.185 | 29.671 | 2 |
| 2025-05-10T03:37:00 | 54.124507 | 8.314301 | 2.0 | 13.033 | 2 | 35.485 | 13.187 | 29.678 | 2 |
| 2025-05-10T03:38:00 | 54.123480 | 8.315269 | 2.0 | 13.031 | 2 | 35.489 | 13.191 | 29.679 | 2 |
| 2025-05-10T03:39:00 | 54.122441 | 8.316230 | 2.0 | 13.033 | 2 | 35.488 | 13.190 | 29.678 | 2 |
| 2025-05-10T03:40:00 | 54.121389 | 8.317154 | 2.0 | 13.049 | 2 | 35.449 | 13.192 | 29.641 | 2 |
| 2025-05-10T03:41:00 | 54.120325 | 8.318042 | 2.0 | 13.060 | 2 | 35.414 | 13.208 | 29.596 | 2 |
| 2025-05-10T03:42:00 | 54.119287 | 8.318912 | 2.0 | 13.075 | 2 | 35.419 | 13.219 | 29.592 | 2 |
| 2025-05-10T03:43:00 | 54.118267 | 8.319737 | 2.0 | 13.207 | 2 | 35.373 | 13.252 | 29.524 | 2 |
| 2025-05-10T03:44:00 | 54.117274 | 8.320527 | 2.0 | 13.241 | 2 | 35.295 | 13.360 | 29.368 | 2 |
| 2025-05-10T03:45:00 | 54.116341 | 8.321350 | 2.0 | 13.279 | 2 | 35.251 | 13.403 | 29.294 | 2 |
| 2025-05-10T03:46:00 | 54.115454 | 8.322185 | 2.0 | 13.300 | 2 | 35.196 | 13.435 | 29.219 | 2 |
| 2025-05-10T03:47:00 | 54.114586 | 8.323014 | 2.0 | 13.318 | 2 | 35.155 | 13.457 | 29.165 | 2 |
| 2025-05-10T03:48:00 | 54.113724 | 8.323822 | 2.0 | 13.321 | 2 | 35.128 | 13.474 | 29.127 | 2 |
| 2025-05-10T03:49:00 | 54.112869 | 8.324604 | 2.0 | 13.322 | 2 | 35.105 | 13.477 | 29.103 | 2 |
| 2025-05-10T03:50:00 | 54.112012 | 8.325348 | 2.0 | 13.320 | 2 | 35.089 | 13.476 | 29.089 | 2 |
| 2025-05-10T03:51:00 | 54.111176 | 8.326051 | 2.0 | 13.312 | 2 | 35.073 | 13.476 | 29.075 | 2 |
| 2025-05-10T03:52:00 | 54.110359 | 8.326749 | 2.0 | 13.281 | 2 | 35.048 | 13.462 | 29.062 | 2 |
| 2025-05-10T03:53:00 | 54.109526 | 8.327517 | 2.0 | 13.223 | 2 | 35.013 | 13.430 | 29.054 | 2 |
| 2025-05-10T03:54:00 | 54.108675 | 8.328341 | 2.0 | 13.175 | 2 | 34.969 | 13.380 | 29.052 | 2 |
| 2025-05-10T03:55:00 | 54.107807 | 8.329207 | 2.0 | 13.138 | 2 | 34.942 | 13.332 | 29.064 | 2 |
| 2025-05-10T03:56:00 | 54.106912 | 8.330083 | 2.0 | 13.111 | 2 | 34.939 | 13.297 | 29.088 | 2 |
| 2025-05-10T03:57:00 | 54.105984 | 8.330953 | 2.0 | 13.084 | 2 | 34.954 | 13.270 | 29.122 | 2 |
| 2025-05-10T03:58:00 | 54.104763 | 8.331648 | 2.0 | 13.063 | 2 | 34.966 | 13.242 | 29.155 | 2 |
| 2025-05-10T03:59:00 | 54.103013 | 8.331281 | 2.0 | 13.000 | 2 | 34.991 | 13.214 | 29.199 | 2 |
| 2025-05-10T04:00:00 | 54.101620 | 8.328860 | 2.0 | 12.966 | 2 | 34.982 | 13.161 | 29.232 | 2 |
| 2025-05-10T04:01:00 | 54.101333 | 8.325356 | 2.0 | 12.947 | 2 | 34.975 | 13.125 | 29.253 | 2 |
| 2025-05-10T04:02:00 | 54.101617 | 8.320908 | 2.0 | 12.952 | 2 | 34.996 | 13.112 | 29.282 | 2 |
| 2025-05-10T04:03:00 | 54.101717 | 8.316074 | 2.0 | 12.953 | 2 | 35.026 | 13.117 | 29.306 | 2 |
| 2025-05-10T04:04:00 | 54.101720 | 8.311208 | 2.0 | 12.953 | 2 | 35.038 | 13.117 | 29.317 | 2 |
| 2025-05-10T04:05:00 | 54.101724 | 8.306322 | 2.0 | 12.937 | 2 | 35.062 | 13.113 | 29.343 | 2 |
| 2025-05-10T04:06:00 | 54.101849 | 8.301435 | 2.0 | 12.930 | 2 | 35.064 | 13.099 | 29.355 | 2 |
| 2025-05-10T04:07:00 | 54.101914 | 8.296545 | 2.0 | 12.920 | 2 | 35.064 | 13.092 | 29.361 | 2 |
| 2025-05-10T04:08:00 | 54.102008 | 8.291676 | 2.0 | 12.909 | 2 | 35.062 | 13.082 | 29.367 | 2 |
| 2025-05-10T04:09:00 | 54.102134 | 8.286881 | 2.0 | 12.887 | 2 | 35.056 | 13.070 | 29.370 | 2 |
| 2025-05-10T04:10:00 | 54.102211 | 8.282107 | 2.0 | 12.856 | 2 | 35.041 | 13.046 | 29.375 | 2 |
| 2025-05-10T04:11:00 | 54.102295 | 8.277335 | 2.0 | 12.840 | 2 | 35.030 | 13.017 | 29.387 | 2 |
| 2025-05-10T04:12:00 | 54.102371 | 8.272569 | 2.0 | 12.844 | 2 | 35.024 | 13.005 | 29.391 | 2 |
| 2025-05-10T04:13:00 | 54.102434 | 8.267782 | 2.0 | 12.851 | 2 | 35.019 | 13.008 | 29.384 | 2 |
| 2025-05-10T04:14:00 | 54.102525 | 8.262978 | 2.0 | 12.859 | 2 | 35.017 | 13.014 | 29.377 | 2 |
| 2025-05-10T04:15:00 | 54.102603 | 8.258186 | 2.0 | 12.869 | 2 | 35.017 | 13.021 | 29.372 | 2 |
| 2025-05-10T04:16:00 | 54.102710 | 8.253393 | 2.0 | 12.876 | 2 | 35.019 | 13.033 | 29.365 | 2 |
| 2025-05-10T04:17:00 | 54.102794 | 8.248593 | 2.0 | 12.900 | 2 | 35.029 | 13.037 | 29.371 | 2 |
| 2025-05-10T04:18:00 | 54.102893 | 8.243792 | 2.0 | 12.941 | 2 | 35.047 | 13.067 | 29.364 | 2 |
| 2025-05-10T04:19:00 | 54.102967 | 8.238988 | 2.0 | 12.976 | 2 | 35.074 | 13.109 | 29.357 | 2 |
| 2025-05-10T04:20:00 | 54.103097 | 8.234188 | 2.0 | 12.954 | 2 | 35.114 | 13.131 | 29.377 | 2 |
| 2025-05-10T04:21:00 | 54.103195 | 8.229411 | 2.0 | 12.915 | 2 | 35.220 | 13.112 | 29.490 | 2 |
| 2025-05-10T04:22:00 | 54.103318 | 8.224651 | 2.0 | 12.886 | 2 | 35.226 | 13.068 | 29.530 | 2 |
| 2025-05-10T04:23:00 | 54.103374 | 8.219909 | 2.0 | 12.882 | 2 | 35.192 | 13.048 | 29.514 | 2 |
| 2025-05-10T04:24:00 | 54.103477 | 8.215160 | 2.0 | 12.893 | 2 | 35.180 | 13.047 | 29.503 | 2 |
| 2025-05-10T04:25:00 | 54.103559 | 8.210415 | 2.0 | 12.864 | 2 | 35.170 | 13.051 | 29.491 | 2 |
| 2025-05-10T04:26:00 | 54.103665 | 8.205677 | 2.0 | 12.843 | 2 | 35.137 | 13.023 | 29.482 | 2 |
| 2025-05-10T04:27:00 | 54.103764 | 8.200958 | 2.0 | 12.824 | 2 | 35.102 | 13.005 | 29.464 | 2 |
| 2025-05-10T04:28:00 | 54.103834 | 8.196247 | 2.0 | 12.820 | 2 | 35.071 | 12.987 | 29.449 | 2 |
| 2025-05-10T04:29:00 | 54.103891 | 8.191535 | 2.0 | 12.830 | 2 | 35.064 | 12.983 | 29.445 | 2 |
| 2025-05-10T04:30:00 | 54.103983 | 8.186825 | 2.0 | 12.855 | 2 | 35.057 | 12.996 | 29.429 | 2 |
| 2025-05-10T04:31:00 | 54.104102 | 8.182128 | 2.0 | 12.887 | 2 | 35.049 | 13.021 | 29.402 | 2 |
| 2025-05-10T04:32:00 | 54.104191 | 8.177445 | 2.0 | 12.987 | 2 | 35.046 | 13.063 | 29.366 | 2 |
| 2025-05-10T04:33:00 | 54.104263 | 8.172776 | 2.0 | 13.094 | 2 | 35.123 | 13.161 | 29.362 | 2 |
| 2025-05-10T04:34:00 | 54.104370 | 8.168118 | 2.0 | 13.138 | 2 | 35.177 | 13.256 | 29.339 | 2 |
| 2025-05-10T04:35:00 | 54.104436 | 8.163467 | 2.0 | 13.212 | 2 | 35.174 | 13.308 | 29.296 | 2 |
| 2025-05-10T04:36:00 | 54.104489 | 8.158811 | 2.0 | 13.335 | 2 | 35.252 | 13.390 | 29.305 | 2 |
| 2025-05-10T04:37:00 | 54.104585 | 8.154170 | 2.0 | 13.352 | 2 | 35.398 | 13.489 | 29.364 | 2 |
| 2025-05-10T04:38:00 | 54.104705 | 8.149532 | 2.0 | 13.324 | 2 | 35.464 | 13.501 | 29.415 | 2 |
| 2025-05-10T04:39:00 | 54.104775 | 8.144884 | 2.0 | 13.304 | 2 | 35.465 | 13.479 | 29.433 | 2 |
| 2025-05-10T04:40:00 | 54.104835 | 8.140253 | 2.0 | 13.285 | 2 | 35.454 | 13.460 | 29.438 | 2 |
| 2025-05-10T04:41:00 | 54.105163 | 8.135676 | 2.0 | 13.250 | 2 | 35.437 | 13.441 | 29.437 | 2 |
| 2025-05-10T04:42:00 | 54.106096 | 8.131342 | 2.0 | 13.195 | 2 | 35.419 | 13.404 | 29.448 | 2 |
| 2025-05-10T04:43:00 | 54.107083 | 8.127015 | 2.0 | 13.047 | 2 | 35.393 | 13.342 | 29.472 | 2 |
| 2025-05-10T04:44:00 | 54.108063 | 8.122689 | 2.0 | 12.814 | 2 | 35.336 | 13.171 | 29.552 | 2 |
| 2025-05-10T04:45:00 | 54.109052 | 8.118399 | 2.0 | 12.712 | 2 | 35.277 | 12.961 | 29.661 | 2 |
| 2025-05-10T04:46:00 | 54.109978 | 8.114095 | 2.0 | 12.749 | 2 | 35.277 | 12.894 | 29.713 | 2 |
| 2025-05-10T04:47:00 | 54.110716 | 8.109739 | 2.0 | 12.807 | 2 | 35.299 | 12.926 | 29.709 | 2 |
| 2025-05-10T04:48:00 | 54.111188 | 8.105289 | 2.0 | 12.849 | 2 | 35.304 | 12.975 | 29.675 | 2 |
| 2025-05-10T04:49:00 | 54.111703 | 8.100782 | 2.0 | 12.848 | 2 | 35.288 | 13.006 | 29.636 | 2 |
| 2025-05-10T04:50:00 | 54.111809 | 8.096133 | 2.0 | 12.959 | 2 | 35.272 | 13.039 | 29.595 | 2 |
| 2025-05-10T04:51:00 | 54.111845 | 8.092203 | 2.0 | 13.003 | 2 | 35.383 | 13.125 | 29.632 | 2 |
| 2025-05-10T04:52:00 | 54.111364 | 8.089067 | 2.0 | 12.991 | 2 | 35.383 | 13.159 | 29.605 | 2 |
| 2025-05-10T04:53:00 | 54.111189 | 8.086074 | 2.0 | 12.980 | 2 | 35.414 | 13.147 | 29.643 | 2 |
| 2025-05-10T04:54:00 | 54.110985 | 8.083237 | 2.0 | 12.971 | 2 | 35.415 | 13.141 | 29.649 | 2 |
| 2025-05-10T04:55:00 | 54.110633 | 8.079869 | 2.0 | 12.962 | 2 | 35.469 | 13.132 | 29.706 | 2 |
| 2025-05-10T04:56:00 | 54.110268 | 8.075708 | 2.0 | 12.751 | 2 | 35.480 | 13.112 | 29.732 | 2 |
| 2025-05-10T04:57:00 | 54.109905 | 8.071298 | 2.0 | 12.553 | 2 | 35.409 | 12.870 | 29.856 | 2 |
| 2025-05-10T04:58:00 | 54.109590 | 8.067162 | 2.0 | 12.542 | 2 | 35.337 | 12.736 | 29.894 | 2 |
| 2025-05-10T04:59:00 | 54.109373 | 8.063734 | 2.0 | 12.485 | 2 | 35.306 | 12.699 | 29.894 | 2 |
| 2025-05-10T05:00:00 | 54.109081 | 8.060714 | 2.0 | 12.489 | 2 | 35.259 | 12.656 | 29.884 | 2 |
| 2025-05-10T05:01:00 | 54.108805 | 8.057931 | 2.0 | 12.490 | 2 | 35.251 | 12.657 | 29.876 | 2 |
| 2025-05-10T05:02:00 | 54.108598 | 8.055271 | 2.0 | 12.467 | 2 | 35.304 | 12.655 | 29.927 | 2 |
| 2025-05-10T05:03:00 | 54.108369 | 8.052543 | 2.0 | 12.439 | 2 | 35.299 | 12.626 | 29.946 | 2 |
| 2025-05-10T05:04:00 | 54.107973 | 8.048687 | 2.0 | 12.506 | 2 | 35.327 | 12.612 | 29.983 | 2 |
| 2025-05-10T05:05:00 | 54.107628 | 8.044260 | 2.0 | 12.514 | 2 | 35.399 | 12.684 | 29.994 | 2 |
| 2025-05-10T05:06:00 | 54.107264 | 8.039656 | 2.0 | 12.322 | 2 | 35.232 | 12.625 | 29.883 | 2 |
| 2025-05-10T05:07:00 | 54.107065 | 8.034970 | 2.0 | 12.356 | 2 | 35.038 | 12.504 | 29.796 | 2 |
| 2025-05-10T05:08:00 | 54.107041 | 8.030271 | 2.0 | 12.373 | 2 | 35.031 | 12.528 | 29.771 | 2 |
| 2025-05-10T05:09:00 | 54.107052 | 8.025587 | 2.0 | 12.392 | 2 | 35.035 | 12.543 | 29.763 | 2 |
| 2025-05-10T05:10:00 | 54.107118 | 8.020910 | 2.0 | 12.361 | 2 | 35.053 | 12.555 | 29.770 | 2 |
| 2025-05-10T05:11:00 | 54.107183 | 8.016229 | 2.0 | 12.336 | 2 | 35.027 | 12.525 | 29.769 | 2 |
| 2025-05-10T05:12:00 | 54.107315 | 8.011543 | 2.0 | 12.335 | 2 | 34.992 | 12.503 | 29.754 | 2 |
| 2025-05-10T05:13:00 | 54.107394 | 8.006845 | 2.0 | 12.357 | 2 | 34.971 | 12.504 | 29.733 | 2 |
| 2025-05-10T05:14:00 | 54.107456 | 8.002135 | 2.0 | 12.379 | 2 | 34.974 | 12.527 | 29.718 | 2 |
| 2025-05-10T05:15:00 | 54.107602 | 7.997438 | 2.0 | 12.373 | 2 | 34.977 | 12.542 | 29.709 | 2 |
| 2025-05-10T05:16:00 | 54.107677 | 7.992726 | 2.0 | 12.367 | 2 | 34.923 | 12.537 | 29.662 | 2 |
| 2025-05-10T05:17:00 | 54.107722 | 7.988018 | 2.0 | 12.378 | 2 | 34.852 | 12.535 | 29.597 | 2 |
| 2025-05-10T05:18:00 | 54.107866 | 7.983326 | 2.0 | 12.408 | 2 | 34.867 | 12.547 | 29.601 | 2 |
| 2025-05-10T05:19:00 | 54.107932 | 7.978631 | 2.0 | 12.427 | 2 | 34.869 | 12.576 | 29.580 | 2 |
| 2025-05-10T05:20:00 | 54.108049 | 7.973919 | 2.0 | 12.431 | 2 | 34.964 | 12.593 | 29.656 | 2 |
| 2025-05-10T05:21:00 | 54.108116 | 7.969204 | 2.0 | 12.411 | 2 | 34.962 | 12.592 | 29.655 | 2 |
| 2025-05-10T05:22:00 | 54.108231 | 7.964483 | 2.0 | 12.402 | 2 | 34.917 | 12.576 | 29.626 | 2 |
| 2025-05-10T05:23:00 | 54.108320 | 7.959758 | 2.0 | 12.409 | 2 | 34.924 | 12.570 | 29.637 | 2 |
| 2025-05-10T05:24:00 | 54.108376 | 7.955027 | 2.0 | 12.388 | 2 | 34.874 | 12.570 | 29.590 | 2 |
| 2025-05-10T05:25:00 | 54.108500 | 7.950289 | 2.0 | 12.389 | 2 | 34.893 | 12.555 | 29.619 | 2 |
| 2025-05-10T05:26:00 | 54.108526 | 7.945551 | 2.0 | 12.413 | 2 | 34.925 | 12.559 | 29.646 | 2 |
| 2025-05-10T05:27:00 | 54.108654 | 7.940801 | 2.0 | 12.445 | 2 | 34.904 | 12.583 | 29.608 | 2 |
| 2025-05-10T05:28:00 | 54.108716 | 7.936027 | 2.0 | 12.418 | 2 | 34.928 | 12.606 | 29.612 | 2 |
| 2025-05-10T05:29:00 | 54.108838 | 7.931249 | 2.0 | 12.349 | 2 | 34.956 | 12.563 | 29.673 | 2 |
| 2025-05-10T05:30:00 | 54.108953 | 7.926465 | 2.0 | 12.354 | 2 | 34.999 | 12.519 | 29.748 | 2 |
| 2025-05-10T05:31:00 | 54.109039 | 7.921663 | 2.0 | 12.344 | 2 | 34.971 | 12.520 | 29.721 | 2 |
| 2025-05-10T05:32:00 | 54.109086 | 7.916856 | 2.0 | 12.258 | 2 | 34.981 | 12.504 | 29.743 | 2 |
| 2025-05-10T05:33:00 | 54.109191 | 7.912060 | 2.0 | 12.223 | 2 | 34.888 | 12.424 | 29.718 | 2 |
| 2025-05-10T05:34:00 | 54.109283 | 7.907273 | 2.0 | 12.205 | 2 | 34.828 | 12.391 | 29.687 | 2 |
| 2025-05-10T05:35:00 | 54.109383 | 7.902503 | 2.0 | 12.188 | 2 | 34.790 | 12.371 | 29.667 | 2 |
| 2025-05-10T05:36:00 | 54.109594 | 7.897787 | 2.0 | 12.215 | 2 | 34.769 | 12.358 | 29.658 | 2 |
| 2025-05-10T05:37:00 | 54.110971 | 7.893742 | 2.0 | 12.323 | 2 | 34.789 | 12.397 | 29.646 | 2 |
| 2025-05-10T05:38:00 | 54.112254 | 7.889665 | 2.0 | 12.571 | 2 | 34.877 | 12.523 | 29.630 | 2 |
| 2025-05-10T05:39:00 | 54.113519 | 7.885623 | 2.0 | 12.729 | 2 | 35.063 | 12.746 | 29.629 | 2 |
| 2025-05-10T05:40:00 | 54.114853 | 7.881687 | 2.0 | 12.920 | 2 | 35.238 | 12.916 | 29.660 | 2 |
| 2025-05-10T05:41:00 | 54.116233 | 7.877813 | 2.0 | 12.905 | 2 | 35.477 | 13.068 | 29.764 | 2 |
| 2025-05-10T05:42:00 | 54.117729 | 7.874071 | 2.0 | 12.851 | 2 | 35.623 | 13.061 | 29.905 | 2 |
| 2025-05-10T05:43:00 | 54.119335 | 7.870467 | 2.0 | 12.830 | 2 | 35.713 | 13.002 | 30.036 | 2 |
| 2025-05-10T05:44:00 | 54.120645 | 7.866549 | 2.0 | 12.877 | 2 | 35.762 | 13.006 | 30.078 | 2 |
| 2025-05-10T05:45:00 | 54.121990 | 7.862687 | 2.0 | 12.852 | 2 | 35.819 | 13.034 | 30.109 | 2 |
| 2025-05-10T05:46:00 | 54.123290 | 7.858752 | 2.0 | 12.600 | 2 | 35.807 | 13.004 | 30.122 | 2 |
| 2025-05-10T05:47:00 | 54.124599 | 7.854801 | 2.0 | 12.409 | 2 | 35.445 | 12.705 | 30.020 | 2 |
| 2025-05-10T05:48:00 | 54.125980 | 7.850961 | 2.0 | 12.475 | 2 | 35.220 | 12.588 | 29.901 | 2 |
| 2025-05-10T05:49:00 | 54.127332 | 7.847122 | 2.0 | 12.662 | 2 | 35.265 | 12.683 | 29.868 | 2 |
| 2025-05-10T05:50:00 | 54.128535 | 7.843128 | 2.0 | 12.744 | 2 | 35.327 | 12.830 | 29.811 | 2 |
| 2025-05-10T05:51:00 | 54.129892 | 7.839243 | 2.0 | 12.761 | 2 | 35.353 | 12.905 | 29.776 | 2 |
| 2025-05-10T05:52:00 | 54.131224 | 7.835358 | 2.0 | 12.745 | 2 | 35.366 | 12.918 | 29.778 | 2 |
| 2025-05-10T05:53:00 | 54.132555 | 7.831462 | 2.0 | 12.705 | 2 | 35.395 | 12.908 | 29.813 | 2 |
| 2025-05-10T05:54:00 | 54.133851 | 7.827567 | 2.0 | 12.688 | 2 | 35.302 | 12.866 | 29.759 | 2 |
| 2025-05-10T05:55:00 | 54.135168 | 7.823668 | 2.0 | 12.679 | 2 | 35.392 | 12.849 | 29.856 | 2 |
| 2025-05-10T05:56:00 | 54.136544 | 7.819827 | 2.0 | 12.642 | 2 | 35.328 | 12.840 | 29.804 | 2 |
| 2025-05-10T05:57:00 | 54.137880 | 7.815973 | 2.0 | 12.616 | 2 | 35.323 | 12.801 | 29.830 | 2 |
| 2025-05-10T05:58:00 | 54.139194 | 7.812091 | 2.0 | 12.649 | 2 | 35.271 | 12.787 | 29.792 | 2 |
| 2025-05-10T05:59:00 | 54.140523 | 7.808264 | 2.0 | 12.608 | 2 | 35.291 | 12.807 | 29.795 | 2 |
| 2025-05-10T06:00:00 | 54.141903 | 7.804488 | 2.0 | 12.597 | 2 | 35.268 | 12.772 | 29.801 | 2 |
| 2025-05-10T06:01:00 | 54.143181 | 7.800612 | 2.0 | 12.571 | 2 | 35.274 | 12.755 | 29.820 | 2 |
| 2025-05-10T06:02:00 | 54.144484 | 7.796741 | 2.0 | 12.515 | 2 | 35.266 | 12.729 | 29.833 | 2 |
| 2025-05-10T06:03:00 | 54.145899 | 7.792996 | 2.0 | 12.476 | 2 | 35.241 | 12.679 | 29.849 | 2 |
| 2025-05-10T06:04:00 | 54.147172 | 7.789174 | 2.0 | 12.461 | 2 | 35.303 | 12.635 | 29.942 | 2 |
| 2025-05-10T06:05:00 | 54.148542 | 7.785487 | 2.0 | 12.487 | 2 | 35.377 | 12.635 | 30.012 | 2 |
| 2025-05-10T06:06:00 | 54.149835 | 7.781688 | 2.0 | 12.486 | 2 | 35.399 | 12.651 | 30.020 | 2 |
| 2025-05-10T06:07:00 | 54.151149 | 7.777920 | 2.0 | 12.503 | 2 | 35.440 | 12.657 | 30.054 | 2 |
| 2025-05-10T06:08:00 | 54.152462 | 7.774134 | 2.0 | 12.516 | 2 | 35.476 | 12.668 | 30.079 | 2 |
| 2025-05-10T06:09:00 | 54.153818 | 7.770394 | 2.0 | 12.556 | 2 | 35.567 | 12.683 | 30.152 | 2 |
| 2025-05-10T06:10:00 | 54.155121 | 7.766644 | 2.0 | 12.561 | 2 | 35.672 | 12.726 | 30.217 | 2 |
| 2025-05-10T06:11:00 | 54.156398 | 7.762846 | 2.0 | 12.586 | 2 | 35.769 | 12.722 | 30.311 | 2 |
| 2025-05-10T06:12:00 | 54.157726 | 7.759102 | 2.0 | 12.630 | 2 | 35.885 | 12.763 | 30.388 | 2 |
| 2025-05-10T06:13:00 | 54.159094 | 7.755382 | 2.0 | 12.624 | 2 | 35.961 | 12.785 | 30.441 | 2 |
| 2025-05-10T06:14:00 | 54.160415 | 7.751679 | 2.0 | 12.630 | 2 | 35.114 | 12.792 | 29.641 | 2 |
| 2025-05-10T06:15:00 | 54.161683 | 7.747929 | 2.0 | 12.587 | 2 | 35.933 | 12.785 | 30.415 | 2 |
| 2025-05-10T06:16:00 | 54.163048 | 7.744274 | 2.0 | 12.578 | 2 | 36.035 | 12.755 | 30.535 | 2 |
| 2025-05-10T06:17:00 | 54.164353 | 7.740563 | 2.0 | 12.563 | 2 | 35.702 | 12.741 | 30.233 | 2 |
| 2025-05-10T06:18:00 | 54.165609 | 7.736805 | 2.0 | 12.496 | 2 | 35.714 | 12.724 | 30.258 | 2 |
| 2025-05-10T06:19:00 | 54.166902 | 7.733095 | 2.0 | 12.389 | 2 | 35.620 | 12.653 | 30.226 | 2 |
| 2025-05-10T06:20:00 | 54.168165 | 7.729355 | 2.0 | 12.361 | 2 | 36.054 | 12.553 | 30.717 | 2 |
| 2025-05-10T06:21:00 | 54.169455 | 7.725667 | 2.0 | 12.339 | 2 | 36.018 | 12.531 | 30.701 | 2 |
| 2025-05-10T06:22:00 | 54.170763 | 7.721948 | 2.0 | 12.311 | 2 | 35.988 | 12.501 | 30.697 | 2 |
| 2025-05-10T06:23:00 | 54.172070 | 7.718158 | 2.0 | 12.325 | 2 | 35.528 | 12.483 | 30.276 | 2 |
| 2025-05-10T06:24:00 | 54.173384 | 7.714400 | 2.0 | 12.326 | 2 | 35.925 | 12.495 | 30.642 | 2 |
| 2025-05-10T06:25:00 | 54.174683 | 7.710612 | 2.0 | 12.325 | 2 | 35.703 | 12.492 | 30.434 | 2 |
| 2025-05-10T06:26:00 | 54.176035 | 7.706874 | 2.0 | 12.311 | 2 | 36.022 | 12.490 | 30.738 | 2 |
| 2025-05-10T06:27:00 | 54.177330 | 7.703082 | 2.0 | 12.300 | 2 | 35.967 | 12.478 | 30.696 | 2 |
| 2025-05-10T06:28:00 | 54.178624 | 7.699353 | 2.0 | 12.317 | 2 | 36.149 | 12.470 | 30.875 | 2 |
| 2025-05-10T06:29:00 | 54.179894 | 7.695568 | 2.0 | 12.266 | 2 | 36.145 | 12.478 | 30.865 | 2 |
| 2025-05-10T06:30:00 | 54.181259 | 7.691917 | 2.0 | 12.157 | 2 | 35.760 | 12.404 | 30.560 | 2 |
| 2025-05-10T06:31:00 | 54.182549 | 7.688182 | 2.0 | 12.129 | 2 | 36.440 | 12.337 | 31.262 | 2 |
| 2025-05-10T06:32:00 | 54.183812 | 7.684444 | 2.0 | 12.115 | 2 | 36.300 | 12.298 | 31.161 | 2 |
| 2025-05-10T06:33:00 | 54.185132 | 7.680789 | 2.0 | 12.098 | 2 | 36.508 | 12.283 | 31.372 | 2 |
| 2025-05-10T06:34:00 | 54.186399 | 7.677127 | 2.0 | 12.055 | 2 | 36.655 | 12.266 | 31.527 | 2 |
| 2025-05-10T06:35:00 | 54.187681 | 7.673477 | 2.0 | 12.050 | 2 | 36.507 | 12.218 | 31.425 | 2 |
| 2025-05-10T06:36:00 | 54.188969 | 7.669839 | 2.0 | 12.003 | 2 | 36.559 | 12.216 | 31.477 | 2 |
| 2025-05-10T06:37:00 | 54.190241 | 7.666161 | 2.0 | 12.003 | 2 | 36.858 | 12.169 | 31.803 | 2 |
| 2025-05-10T06:38:00 | 54.191508 | 7.662450 | 2.0 | 11.966 | 2 | 36.514 | 12.165 | 31.477 | 2 |
| 2025-05-10T06:39:00 | 54.192827 | 7.658833 | 2.0 | 11.920 | 2 | 36.759 | 12.127 | 31.744 | 2 |
| 2025-05-10T06:40:00 | 54.194073 | 7.655140 | 2.0 | 11.829 | 2 | 36.712 | 12.083 | 31.736 | 2 |
| 2025-05-10T06:41:00 | 54.195373 | 7.651491 | 2.0 | 11.798 | 2 | 36.706 | 11.997 | 31.803 | 2 |
| 2025-05-10T06:42:00 | 54.196628 | 7.647805 | 2.0 | 11.692 | 2 | 36.756 | 11.959 | 31.884 | 2 |
| 2025-05-10T06:43:00 | 54.197879 | 7.644170 | 2.0 | 11.517 | 2 | 36.753 | 11.847 | 31.977 | 2 |
| 2025-05-10T06:44:00 | 54.199136 | 7.640554 | 2.0 | 11.115 | 2 | 36.448 | 11.628 | 31.870 | 2 |
| 2025-05-10T06:45:00 | 54.200408 | 7.636902 | 2.0 | 10.989 | 2 | 36.103 | 11.261 | 31.849 | 2 |
| 2025-05-10T06:46:00 | 54.201725 | 7.633290 | 2.0 | 11.062 | 2 | 36.117 | 11.174 | 31.938 | 2 |
| 2025-05-10T06:47:00 | 54.203006 | 7.629643 | 2.0 | 11.216 | 2 | 36.102 | 11.265 | 31.845 | 2 |
| 2025-05-10T06:48:00 | 54.204287 | 7.625930 | 2.0 | 11.250 | 2 | 36.435 | 11.395 | 32.058 | 2 |
| 2025-05-10T06:49:00 | 54.205584 | 7.622284 | 2.0 | 11.270 | 2 | 36.468 | 11.424 | 32.065 | 2 |
| 2025-05-10T06:50:00 | 54.206868 | 7.618591 | 2.0 | 11.256 | 2 | 36.489 | 11.445 | 32.068 | 2 |
| 2025-05-10T06:51:00 | 54.208129 | 7.614911 | 2.0 | 11.090 | 2 | 36.489 | 11.391 | 32.114 | 2 |
| 2025-05-10T06:52:00 | 54.209386 | 7.611313 | 2.0 | 10.997 | 2 | 36.427 | 11.257 | 32.170 | 2 |
| 2025-05-10T06:53:00 | 54.210374 | 7.608483 | 2.0 | 10.968 | 2 | 36.361 | 11.170 | 32.182 | 2 |
| 2025-05-10T06:54:00 | 54.210957 | 7.606396 | 2.0 | 11.005 | 2 | 36.233 | 11.150 | 32.073 | 2 |
| 2025-05-10T06:55:00 | 54.211408 | 7.604916 | 2.0 | 11.123 | 2 | 36.238 | 11.201 | 32.034 | 2 |
| 2025-05-10T06:56:00 | 54.211716 | 7.603815 | 2.0 | 11.227 | 2 | 36.396 | 11.331 | 32.076 | 2 |
| 2025-05-10T06:57:00 | 54.211954 | 7.602967 | 2.0 | 11.264 | 2 | 36.523 | 11.413 | 32.129 | 2 |
| 2025-05-10T06:58:00 | 54.212096 | 7.602364 | 2.0 | 11.297 | 2 | 36.475 | 11.459 | 32.042 | 2 |
| 2025-05-10T06:59:00 | 54.212264 | 7.601956 | 2.0 | 11.307 | 2 | 36.587 | 11.488 | 32.126 | 2 |
| 2025-05-10T07:00:00 | 54.212354 | 7.601587 | 2.0 | 11.319 | 2 | 36.531 | 11.499 | 32.062 | 2 |
| 2025-05-10T07:01:00 | 54.212387 | 7.601283 | 2.0 | 11.331 | 2 | 36.533 | 11.510 | 32.054 | 2 |
| 2025-05-10T07:02:00 | 54.212444 | 7.601051 | 2.0 | 11.347 | 2 | 36.551 | 11.525 | 32.059 | 2 |
| 2025-05-10T07:03:00 | 54.212474 | 7.600870 | 2.0 | 11.374 | 2 | 36.585 | 11.547 | 32.073 | 2 |
| 2025-05-10T07:04:00 | 54.212517 | 7.600693 | 2.0 | 11.388 | 2 | 36.643 | 11.568 | 32.111 | 2 |
| 2025-05-10T07:05:00 | 54.212640 | 7.600479 | 2.0 | 11.410 | 2 | 36.615 | 11.580 | 32.074 | 2 |
| 2025-05-10T07:06:00 | 54.212801 | 7.600260 | 2.0 | 11.419 | 2 | 36.609 | 11.601 | 32.050 | 2 |
| 2025-05-10T07:07:00 | 54.212846 | 7.600073 | 2.0 | 11.443 | 2 | 36.689 | 11.612 | 32.118 | 2 |
| 2025-05-10T07:08:00 | 54.212876 | 7.599910 | 2.0 | 11.460 | 2 | 36.717 | 11.636 | 32.124 | 2 |
| 2025-05-10T07:09:00 | 54.212853 | 7.599789 | 2.0 | 11.463 | 2 | 36.707 | 11.654 | 32.099 | 2 |
| 2025-05-10T07:10:00 | 54.212860 | 7.599663 | 2.0 | 11.475 | 2 | 36.707 | 11.658 | 32.096 | 2 |
| 2025-05-10T07:11:00 | 54.212997 | 7.599545 | 2.0 | 11.469 | 2 | 36.717 | 11.665 | 32.099 | 2 |
| 2025-05-10T07:12:00 | 54.213332 | 7.599150 | 2.0 | 11.498 | 2 | 36.728 | 11.674 | 32.102 | 2 |
| 2025-05-10T07:13:00 | 54.213771 | 7.598437 | 2.0 | 11.379 | 2 | 36.737 | 11.673 | 32.112 | 2 |
| 2025-05-10T07:14:00 | 54.214163 | 7.597824 | 2.0 | 11.365 | 2 | 36.726 | 11.584 | 32.178 | 2 |
| 2025-05-10T07:15:00 | 54.214428 | 7.597333 | 2.0 | 11.344 | 2 | 36.733 | 11.559 | 32.207 | 2 |
| 2025-05-10T07:16:00 | 54.214627 | 7.596916 | 2.0 | 11.499 | 2 | 36.738 | 11.584 | 32.190 | 2 |
| 2025-05-10T07:17:00 | 54.214761 | 7.596541 | 2.0 | 11.528 | 2 | 36.829 | 11.689 | 32.187 | 2 |
| 2025-05-10T07:18:00 | 54.214853 | 7.596223 | 2.0 | 11.544 | 2 | 36.863 | 11.725 | 32.189 | 2 |
| 2025-05-10T07:19:00 | 54.214929 | 7.595991 | 2.0 | 11.543 | 2 | 36.874 | 11.737 | 32.189 | 2 |
| 2025-05-10T07:20:00 | 54.214977 | 7.595794 | 2.0 | 11.562 | 2 | 36.872 | 11.739 | 32.186 | 2 |
| 2025-05-10T07:21:00 | 54.215036 | 7.595664 | 2.0 | 11.560 | 2 | 36.883 | 11.755 | 32.183 | 2 |
| 2025-05-10T07:22:00 | 54.215148 | 7.595495 | 2.0 | 11.557 | 2 | 36.882 | 11.753 | 32.183 | 2 |
| 2025-05-10T07:23:00 | 54.215278 | 7.595282 | 2.0 | 11.565 | 2 | 36.883 | 11.753 | 32.184 | 2 |
| 2025-05-10T07:24:00 | 54.215502 | 7.595144 | 2.0 | 11.600 | 2 | 36.889 | 11.766 | 32.179 | 2 |
| 2025-05-10T07:25:00 | 54.215905 | 7.594661 | 2.0 | 11.623 | 2 | 36.903 | 11.798 | 32.165 | 2 |
| 2025-05-10T07:26:00 | 54.216398 | 7.593967 | 2.0 | 11.643 | 2 | 36.909 | 11.824 | 32.148 | 2 |
| 2025-05-10T07:27:00 | 54.216841 | 7.593362 | 2.0 | 11.648 | 2 | 36.909 | 11.839 | 32.135 | 2 |
| 2025-05-10T07:28:00 | 54.217149 | 7.592857 | 2.0 | 11.652 | 2 | 36.904 | 11.845 | 32.125 | 2 |
| 2025-05-10T07:29:00 | 54.217380 | 7.592493 | 2.0 | 11.638 | 2 | 36.900 | 11.843 | 32.123 | 2 |
| 2025-05-10T07:30:00 | 54.217503 | 7.592233 | 2.0 | 11.635 | 2 | 36.889 | 11.833 | 32.121 | 2 |
| 2025-05-10T07:31:00 | 54.217517 | 7.592099 | 2.0 | 11.628 | 2 | 36.883 | 11.832 | 32.116 | 2 |
| 2025-05-10T07:32:00 | 54.217540 | 7.591926 | 2.0 | 11.627 | 2 | 36.873 | 11.822 | 32.115 | 2 |
| 2025-05-10T07:33:00 | 54.217609 | 7.591556 | 2.0 | 11.620 | 2 | 36.867 | 11.823 | 32.108 | 2 |
| 2025-05-10T07:34:00 | 54.217657 | 7.591278 | 2.0 | 11.622 | 2 | 36.859 | 11.820 | 32.103 | 2 |
| 2025-05-10T07:35:00 | 54.217655 | 7.591122 | 2.0 | 11.623 | 2 | 36.860 | 11.825 | 32.100 | 2 |
| 2025-05-10T07:36:00 | 54.217655 | 7.590981 | 2.0 | 11.613 | 2 | 36.853 | 11.819 | 32.098 | 2 |
| 2025-05-10T07:37:00 | 54.217725 | 7.590608 | 2.0 | 11.609 | 2 | 36.843 | 11.813 | 32.094 | 2 |
| 2025-05-10T07:38:00 | 54.217764 | 7.590278 | 2.0 | 11.595 | 2 | 36.828 | 11.800 | 32.090 | 2 |
| 2025-05-10T07:39:00 | 54.217753 | 7.590128 | 2.0 | 11.583 | 2 | 36.804 | 11.779 | 32.085 | 2 |
| 2025-05-10T07:40:00 | 54.217723 | 7.590118 | 2.0 | 11.584 | 2 | 36.788 | 11.766 | 32.081 | 2 |
| 2025-05-10T07:41:00 | 54.217687 | 7.590059 | 2.0 | 11.592 | 2 | 36.786 | 11.769 | 32.076 | 2 |
| 2025-05-10T07:42:00 | 54.217677 | 7.589956 | 2.0 | 11.589 | 2 | 36.785 | 11.771 | 32.074 | 2 |
| 2025-05-10T07:43:00 | 54.217655 | 7.589831 | 2.0 | 11.591 | 2 | 36.775 | 11.768 | 32.067 | 2 |
| 2025-05-10T07:44:00 | 54.217640 | 7.589712 | 2.0 | 11.592 | 2 | 36.774 | 11.771 | 32.063 | 2 |
| 2025-05-10T07:45:00 | 54.217651 | 7.589589 | 2.0 | 11.599 | 2 | 36.770 | 11.772 | 32.058 | 2 |
| 2025-05-10T07:46:00 | 54.217644 | 7.589492 | 2.0 | 11.609 | 2 | 36.771 | 11.777 | 32.055 | 2 |
| 2025-05-10T07:47:00 | 54.217634 | 7.589419 | 2.0 | 11.605 | 2 | 36.774 | 11.784 | 32.052 | 2 |
| 2025-05-10T07:48:00 | 54.217622 | 7.589351 | 2.0 | 11.610 | 2 | 36.764 | 11.782 | 32.044 | 2 |
| 2025-05-10T07:49:00 | 54.217610 | 7.589293 | 2.0 | 11.610 | 2 | 36.761 | 11.786 | 32.037 | 2 |
| 2025-05-10T07:50:00 | 54.217582 | 7.589264 | 2.0 | 11.609 | 2 | 36.753 | 11.784 | 32.031 | 2 |
| 2025-05-10T07:51:00 | 54.217571 | 7.589232 | 2.0 | 11.615 | 2 | 36.748 | 11.783 | 32.027 | 2 |
| 2025-05-10T07:52:00 | 54.217567 | 7.589190 | 2.0 | 11.617 | 2 | 36.749 | 11.791 | 32.022 | 2 |
| 2025-05-10T07:53:00 | 54.217515 | 7.589142 | 2.0 | 11.617 | 2 | 36.746 | 11.792 | 32.018 | 2 |
| 2025-05-10T07:54:00 | 54.217469 | 7.589107 | 2.0 | 11.615 | 2 | 36.741 | 11.790 | 32.015 | 2 |
| 2025-05-10T07:55:00 | 54.217446 | 7.589052 | 2.0 | 11.604 | 2 | 36.736 | 11.786 | 32.013 | 2 |
| 2025-05-10T07:56:00 | 54.217440 | 7.588974 | 2.0 | 11.579 | 2 | 36.716 | 11.773 | 32.005 | 2 |
| 2025-05-10T07:57:00 | 54.217432 | 7.588873 | 2.0 | 11.553 | 2 | 36.682 | 11.748 | 31.994 | 2 |
| 2025-05-10T07:58:00 | 54.217421 | 7.588752 | 2.0 | 11.547 | 2 | 36.650 | 11.726 | 31.981 | 2 |
| 2025-05-10T07:59:00 | 54.217401 | 7.588638 | 2.0 | 11.559 | 2 | 36.634 | 11.723 | 31.969 | 2 |
| 2025-05-10T08:00:00 | 54.217382 | 7.588521 | 2.0 | 11.567 | 2 | 36.645 | 11.733 | 31.971 | 2 |
| 2025-05-10T08:01:00 | 54.217357 | 7.588434 | 2.0 | 11.573 | 2 | 36.650 | 11.740 | 31.969 | 2 |
| 2025-05-10T08:02:00 | 54.217324 | 7.588405 | 2.0 | 11.588 | 2 | 36.656 | 11.748 | 31.968 | 2 |
| 2025-05-10T08:03:00 | 54.217282 | 7.588401 | 2.0 | 11.600 | 2 | 36.666 | 11.761 | 31.967 | 2 |
| 2025-05-10T08:04:00 | 54.217227 | 7.588409 | 2.0 | 11.611 | 2 | 36.674 | 11.772 | 31.965 | 2 |
| 2025-05-10T08:05:00 | 54.217154 | 7.588442 | 2.0 | 11.629 | 2 | 36.684 | 11.785 | 31.964 | 2 |
| 2025-05-10T08:06:00 | 54.217048 | 7.588516 | 2.0 | 11.638 | 2 | 36.697 | 11.803 | 31.961 | 2 |
| 2025-05-10T08:07:00 | 54.216952 | 7.588594 | 2.0 | 11.646 | 2 | 36.706 | 11.811 | 31.963 | 2 |
| 2025-05-10T08:08:00 | 54.216851 | 7.588675 | 2.0 | 11.665 | 2 | 36.715 | 11.820 | 31.964 | 2 |
| 2025-05-10T08:09:00 | 54.216771 | 7.588757 | 2.0 | 11.670 | 2 | 36.728 | 11.837 | 31.962 | 2 |
| 2025-05-10T08:10:00 | 54.216685 | 7.588831 | 2.0 | 11.677 | 2 | 36.731 | 11.840 | 31.962 | 2 |
| 2025-05-10T08:11:00 | 54.216561 | 7.588936 | 2.0 | 11.686 | 2 | 36.709 | 11.850 | 31.932 | 2 |
| 2025-05-10T08:12:00 | 54.216460 | 7.589041 | 2.0 | 11.691 | 2 | 36.726 | 11.859 | 31.941 | 2 |
| 2025-05-10T08:13:00 | 54.216361 | 7.589135 | 2.0 | 11.689 | 2 | 36.702 | 11.857 | 31.919 | 2 |
| 2025-05-10T08:14:00 | 54.216258 | 7.589229 | 2.0 | 11.702 | 2 | 36.748 | 11.862 | 31.959 | 2 |
| 2025-05-10T08:15:00 | 54.216147 | 7.589328 | 2.0 | 11.719 | 2 | 36.751 | 11.877 | 31.950 | 2 |
| 2025-05-10T08:16:00 | 54.216039 | 7.589443 | 2.0 | 11.729 | 2 | 36.758 | 11.892 | 31.943 | 2 |
| 2025-05-10T08:17:00 | 54.215933 | 7.589549 | 2.0 | 11.723 | 2 | 36.745 | 11.897 | 31.927 | 2 |
| 2025-05-10T08:18:00 | 54.215825 | 7.589640 | 2.0 | 11.712 | 2 | 36.762 | 11.892 | 31.947 | 2 |
| 2025-05-10T08:19:00 | 54.215724 | 7.589722 | 2.0 | 11.706 | 2 | 36.744 | 11.882 | 31.938 | 2 |
| 2025-05-10T08:20:00 | 54.215611 | 7.589812 | 2.0 | 11.715 | 2 | 36.753 | 11.883 | 31.946 | 2 |
| 2025-05-10T08:21:00 | 54.215513 | 7.589897 | 2.0 | 11.722 | 2 | 36.746 | 11.884 | 31.939 | 2 |
| 2025-05-10T08:22:00 | 54.215415 | 7.589990 | 2.0 | 11.722 | 2 | 36.760 | 11.892 | 31.945 | 2 |
| 2025-05-10T08:23:00 | 54.215326 | 7.590084 | 2.0 | 11.725 | 2 | 36.761 | 11.894 | 31.945 | 2 |
| 2025-05-10T08:24:00 | 54.215233 | 7.590182 | 2.0 | 11.717 | 2 | 36.761 | 11.893 | 31.945 | 2 |
| 2025-05-10T08:25:00 | 54.215149 | 7.590273 | 2.0 | 11.730 | 2 | 36.757 | 11.892 | 31.942 | 2 |
| 2025-05-10T08:26:00 | 54.215048 | 7.590384 | 2.0 | 11.736 | 2 | 36.763 | 11.900 | 31.941 | 2 |
| 2025-05-10T08:27:00 | 54.214945 | 7.590509 | 2.0 | 11.774 | 2 | 36.773 | 11.913 | 31.940 | 2 |
| 2025-05-10T08:28:00 | 54.214846 | 7.590657 | 2.0 | 11.786 | 2 | 36.795 | 11.943 | 31.935 | 2 |
| 2025-05-10T08:29:00 | 54.214742 | 7.590801 | 2.0 | 11.773 | 2 | 36.802 | 11.950 | 31.936 | 2 |
| 2025-05-10T08:30:00 | 54.214627 | 7.590951 | 2.0 | 11.791 | 2 | 36.800 | 11.949 | 31.935 | 2 |
| 2025-05-10T08:31:00 | 54.214504 | 7.591108 | 2.0 | 11.787 | 2 | 36.809 | 11.960 | 31.934 | 2 |
| 2025-05-10T08:32:00 | 54.214371 | 7.591257 | 2.0 | 11.781 | 2 | 36.806 | 11.956 | 31.935 | 2 |
| 2025-05-10T08:33:00 | 54.214256 | 7.591344 | 2.0 | 11.745 | 2 | 36.795 | 11.942 | 31.936 | 2 |
| 2025-05-10T08:34:00 | 54.214167 | 7.591355 | 2.0 | 11.717 | 2 | 36.765 | 11.910 | 31.935 | 2 |
| 2025-05-10T08:35:00 | 54.214102 | 7.591299 | 2.0 | 11.714 | 2 | 36.744 | 11.891 | 31.931 | 2 |
| 2025-05-10T08:36:00 | 54.214063 | 7.591183 | 2.0 | 11.705 | 2 | 36.732 | 11.881 | 31.928 | 2 |
| 2025-05-10T08:37:00 | 54.214029 | 7.591081 | 2.0 | 11.726 | 2 | 36.729 | 11.881 | 31.925 | 2 |
| 2025-05-10T08:38:00 | 54.213985 | 7.591004 | 2.0 | 11.735 | 2 | 36.743 | 11.896 | 31.925 | 2 |
| 2025-05-10T08:39:00 | 54.213948 | 7.590935 | 2.0 | 11.750 | 2 | 36.754 | 11.909 | 31.925 | 2 |
| 2025-05-10T08:40:00 | 54.213907 | 7.590863 | 2.0 | 11.738 | 2 | 36.761 | 11.917 | 31.925 | 2 |
| 2025-05-10T08:41:00 | 54.213852 | 7.590791 | 2.0 | 11.722 | 2 | 36.749 | 11.909 | 31.920 | 2 |
| 2025-05-10T08:42:00 | 54.213793 | 7.590726 | 2.0 | 11.706 | 2 | 36.730 | 11.893 | 31.915 | 2 |
| 2025-05-10T08:43:00 | 54.213734 | 7.590664 | 2.0 | 11.691 | 2 | 36.708 | 11.874 | 31.911 | 2 |
| 2025-05-10T08:44:00 | 54.213659 | 7.590605 | 2.0 | 11.686 | 2 | 36.697 | 11.868 | 31.905 | 2 |
| 2025-05-10T08:45:00 | 54.213558 | 7.590559 | 2.0 | 11.673 | 2 | 36.686 | 11.859 | 31.902 | 2 |
| 2025-05-10T08:46:00 | 54.213467 | 7.590514 | 2.0 | 11.663 | 2 | 36.663 | 11.848 | 31.889 | 2 |
| 2025-05-10T08:47:00 | 54.213394 | 7.590456 | 2.0 | 11.697 | 2 | 36.669 | 11.853 | 31.891 | 2 |
| 2025-05-10T08:48:00 | 54.213319 | 7.590395 | 2.0 | 11.666 | 2 | 36.678 | 11.861 | 31.893 | 2 |
| 2025-05-10T08:49:00 | 54.213213 | 7.590330 | 2.0 | 11.661 | 2 | 36.655 | 11.840 | 31.888 | 2 |
| 2025-05-10T08:50:00 | 54.213129 | 7.590258 | 2.0 | 11.649 | 2 | 36.643 | 11.833 | 31.883 | 2 |
| 2025-05-10T08:51:00 | 54.213037 | 7.590187 | 2.0 | 11.625 | 2 | 36.630 | 11.822 | 31.880 | 2 |
| 2025-05-10T08:52:00 | 54.212936 | 7.590130 | 2.0 | 11.641 | 2 | 36.607 | 11.806 | 31.871 | 2 |
| 2025-05-10T08:53:00 | 54.212849 | 7.590070 | 2.0 | 11.624 | 2 | 36.610 | 11.810 | 31.871 | 2 |
| 2025-05-10T08:54:00 | 54.212779 | 7.589984 | 2.0 | 11.638 | 2 | 36.606 | 11.808 | 31.868 | 2 |
| 2025-05-10T08:55:00 | 54.212716 | 7.589886 | 2.0 | 11.636 | 2 | 36.601 | 11.803 | 31.868 | 2 |
| 2025-05-10T08:56:00 | 54.212659 | 7.589783 | 2.0 | 11.620 | 2 | 36.602 | 11.806 | 31.866 | 2 |
| 2025-05-10T08:57:00 | 54.212609 | 7.589673 | 2.0 | 11.614 | 2 | 36.584 | 11.785 | 31.867 | 2 |
| 2025-05-10T08:58:00 | 54.212559 | 7.589545 | 2.0 | 11.645 | 2 | 36.589 | 11.794 | 31.864 | 2 |
| 2025-05-10T08:59:00 | 54.212511 | 7.589401 | 2.0 | 11.692 | 2 | 36.617 | 11.824 | 31.865 | 2 |
| 2025-05-10T09:00:00 | 54.212459 | 7.589257 | 2.0 | 11.710 | 2 | 36.650 | 11.862 | 31.865 | 2 |
| 2025-05-10T09:01:00 | 54.212398 | 7.589116 | 2.0 | 11.805 | 2 | 36.678 | 11.901 | 31.858 | 2 |
| 2025-05-10T09:02:00 | 54.212327 | 7.588967 | 2.0 | 11.799 | 2 | 36.753 | 11.990 | 31.855 | 2 |
| 2025-05-10T09:03:00 | 54.212259 | 7.588818 | 2.0 | 11.855 | 2 | 36.740 | 11.968 | 31.861 | 2 |
| 2025-05-10T09:04:00 | 54.212185 | 7.588676 | 2.0 | 11.883 | 2 | 36.776 | 12.024 | 31.848 | 2 |
| 2025-05-10T09:05:00 | 54.212075 | 7.588534 | 2.0 | 11.890 | 2 | 36.807 | 12.063 | 31.844 | 2 |
| 2025-05-10T09:06:00 | 54.211978 | 7.588401 | 2.0 | 11.923 | 2 | 36.818 | 12.081 | 31.840 | 2 |
| 2025-05-10T09:07:00 | 54.211893 | 7.588279 | 2.0 | 11.835 | 2 | 36.809 | 12.067 | 31.843 | 2 |
| 2025-05-10T09:08:00 | 54.211803 | 7.588178 | 2.0 | 11.887 | 2 | 36.777 | 12.027 | 31.846 | 2 |
| 2025-05-10T09:09:00 | 54.211706 | 7.588091 | 2.0 | 11.876 | 2 | 36.785 | 12.041 | 31.842 | 2 |
| 2025-05-10T09:10:00 | 54.211596 | 7.588040 | 2.0 | 11.884 | 2 | 36.796 | 12.049 | 31.846 | 2 |
| 2025-05-10T09:11:00 | 54.211485 | 7.587968 | 2.0 | 12.068 | 2 | 36.810 | 12.069 | 31.842 | 2 |
| 2025-05-10T09:12:00 | 54.211441 | 7.587884 | 2.0 | 12.291 | 2 | 36.928 | 12.263 | 31.790 | 2 |
| 2025-05-10T09:13:00 | 54.211551 | 7.588255 | 2.0 | 12.170 | 2 | 37.064 | 12.456 | 31.757 | 2 |
| 2025-05-10T09:14:00 | 54.211765 | 7.590036 | 2.0 | 12.067 | 2 | 36.990 | 12.298 | 31.820 | 2 |
| 2025-05-10T09:15:00 | 54.212336 | 7.593478 | 2.0 | 11.968 | 2 | 36.932 | 12.223 | 31.828 | 2 |
| 2025-05-10T09:16:00 | 54.213209 | 7.597909 | 2.0 | 11.969 | 2 | 36.883 | 12.135 | 31.856 | 2 |
| 2025-05-10T09:17:00 | 54.214132 | 7.602516 | 2.0 | 11.920 | 2 | 36.880 | 12.128 | 31.859 | 2 |
| 2025-05-10T09:18:00 | 54.214847 | 7.607167 | 2.0 | 11.986 | 2 | 36.872 | 12.111 | 31.866 | 2 |
| 2025-05-10T09:19:00 | 54.215673 | 7.611709 | 2.0 | 11.887 | 2 | 36.901 | 12.144 | 31.866 | 2 |
| 2025-05-10T09:20:00 | 54.216698 | 7.616095 | 2.0 | 11.872 | 2 | 36.859 | 12.068 | 31.890 | 2 |
| 2025-05-10T09:21:00 | 54.217746 | 7.620471 | 2.0 | 11.851 | 2 | 36.667 | 12.045 | 31.725 | 2 |
| 2025-05-10T09:22:00 | 54.218725 | 7.624899 | 2.0 | 11.866 | 2 | 36.797 | 12.023 | 31.869 | 2 |
| 2025-05-10T09:23:00 | 54.219687 | 7.629295 | 2.0 | 11.857 | 2 | 36.776 | 12.041 | 31.833 | 2 |
| 2025-05-10T09:24:00 | 54.220708 | 7.633667 | 2.0 | 11.841 | 2 | 36.847 | 12.023 | 31.917 | 2 |
| 2025-05-10T09:25:00 | 54.221686 | 7.638036 | 2.0 | 11.773 | 2 | 36.309 | 12.019 | 31.403 | 2 |
| 2025-05-10T09:26:00 | 54.222668 | 7.642418 | 2.0 | 11.749 | 2 | 36.369 | 11.942 | 31.525 | 2 |
| 2025-05-10T09:27:00 | 54.223677 | 7.646809 | 2.0 | 11.759 | 2 | 36.491 | 11.928 | 31.655 | 2 |
| 2025-05-10T09:28:00 | 54.224676 | 7.651211 | 2.0 | 11.717 | 2 | 36.797 | 11.939 | 31.941 | 2 |
| 2025-05-10T09:29:00 | 54.225693 | 7.655603 | 2.0 | 11.715 | 2 | 36.775 | 11.887 | 31.964 | 2 |
| 2025-05-10T09:30:00 | 54.226692 | 7.660028 | 2.0 | 11.741 | 2 | 36.502 | 11.911 | 31.680 | 2 |
| 2025-05-10T09:31:00 | 54.227729 | 7.664400 | 2.0 | 11.984 | 2 | 36.880 | 11.988 | 31.979 | 2 |
| 2025-05-10T09:32:00 | 54.228803 | 7.668729 | 2.0 | 11.921 | 2 | 36.650 | 12.090 | 31.670 | 2 |
| 2025-05-10T09:33:00 | 54.229785 | 7.673073 | 2.0 | 11.834 | 2 | 36.612 | 12.075 | 31.647 | 2 |
| 2025-05-10T09:34:00 | 54.230754 | 7.677349 | 2.0 | 11.757 | 2 | 36.817 | 11.999 | 31.909 | 2 |
| 2025-05-10T09:35:00 | 54.231693 | 7.681660 | 2.0 | 11.676 | 2 | 36.666 | 11.921 | 31.830 | 2 |
| 2025-05-10T09:36:00 | 54.232690 | 7.685958 | 2.0 | 11.621 | 2 | 36.686 | 11.851 | 31.909 | 2 |
| 2025-05-10T09:37:00 | 54.233692 | 7.690282 | 2.0 | 11.541 | 2 | 36.559 | 11.785 | 31.843 | 2 |
| 2025-05-10T09:38:00 | 54.234668 | 7.694627 | 2.0 | 11.560 | 2 | 36.174 | 11.728 | 31.518 | 2 |
| 2025-05-10T09:39:00 | 54.235640 | 7.698991 | 2.0 | 11.578 | 2 | 35.999 | 11.733 | 31.345 | 2 |
| 2025-05-10T09:40:00 | 54.236672 | 7.703322 | 2.0 | 11.777 | 2 | 36.109 | 11.774 | 31.417 | 2 |
| 2025-05-10T09:41:00 | 54.237710 | 7.707591 | 2.0 | 11.861 | 2 | 36.078 | 11.957 | 31.233 | 2 |
| 2025-05-10T09:42:00 | 54.238660 | 7.711864 | 2.0 | 11.608 | 2 | 36.667 | 12.013 | 31.752 | 2 |
| 2025-05-10T09:43:00 | 54.239587 | 7.716186 | 2.0 | 11.550 | 2 | 36.165 | 11.798 | 31.450 | 2 |
| 2025-05-10T09:44:00 | 54.240572 | 7.720499 | 2.0 | 11.466 | 2 | 36.393 | 11.673 | 31.778 | 2 |
| 2025-05-10T09:45:00 | 54.241585 | 7.724802 | 2.0 | 11.510 | 2 | 36.482 | 11.619 | 31.910 | 2 |
| 2025-05-10T09:46:00 | 54.242580 | 7.729139 | 2.0 | 11.665 | 2 | 36.188 | 11.738 | 31.523 | 2 |
| 2025-05-10T09:47:00 | 54.243588 | 7.733471 | 2.0 | 11.608 | 2 | 35.922 | 11.823 | 31.195 | 2 |
| 2025-05-10T09:48:00 | 54.244622 | 7.737782 | 2.0 | 11.636 | 2 | 36.098 | 11.801 | 31.383 | 2 |
| 2025-05-10T09:49:00 | 54.245627 | 7.742142 | 2.0 | 11.700 | 2 | 36.055 | 11.793 | 31.348 | 2 |
| 2025-05-10T09:50:00 | 54.246617 | 7.746497 | 2.0 | 11.581 | 2 | 36.314 | 11.848 | 31.552 | 2 |
| 2025-05-10T09:51:00 | 54.247635 | 7.750831 | 2.0 | 11.631 | 2 | 35.983 | 11.732 | 31.330 | 2 |
| 2025-05-10T09:52:00 | 54.248597 | 7.755241 | 2.0 | 11.740 | 2 | 36.321 | 11.820 | 31.583 | 2 |
| 2025-05-10T09:53:00 | 54.249577 | 7.759616 | 2.0 | 11.694 | 2 | 36.365 | 11.886 | 31.569 | 2 |
| 2025-05-10T09:54:00 | 54.250595 | 7.763999 | 2.0 | 11.617 | 2 | 36.037 | 11.862 | 31.273 | 2 |
| 2025-05-10T09:55:00 | 54.251638 | 7.768314 | 2.0 | 11.531 | 2 | 36.280 | 11.771 | 31.584 | 2 |
| 2025-05-10T09:56:00 | 54.252669 | 7.772652 | 2.0 | 11.410 | 2 | 36.193 | 11.688 | 31.571 | 2 |
| 2025-05-10T09:57:00 | 54.253632 | 7.777029 | 2.0 | 11.368 | 2 | 35.839 | 11.592 | 31.309 | 2 |
| 2025-05-10T09:58:00 | 54.254594 | 7.781432 | 2.0 | 11.308 | 2 | 35.881 | 11.537 | 31.396 | 2 |
| 2025-05-10T09:59:00 | 54.255606 | 7.785781 | 2.0 | 11.313 | 2 | 35.921 | 11.482 | 31.482 | 2 |
| 2025-05-10T10:00:00 | 54.256591 | 7.790170 | 2.0 | 11.317 | 2 | 35.781 | 11.482 | 31.345 | 2 |
| 2025-05-10T10:01:00 | 54.257604 | 7.794544 | 2.0 | 11.352 | 2 | 35.870 | 11.489 | 31.426 | 2 |
| 2025-05-10T10:02:00 | 54.258574 | 7.798963 | 2.0 | 11.534 | 2 | 35.735 | 11.549 | 31.244 | 2 |
| 2025-05-10T10:03:00 | 54.259553 | 7.803373 | 2.0 | 11.683 | 2 | 36.025 | 11.777 | 31.333 | 2 |
| 2025-05-10T10:04:00 | 54.260554 | 7.807699 | 2.0 | 11.557 | 2 | 35.981 | 11.803 | 31.268 | 2 |
| 2025-05-10T10:05:00 | 54.261573 | 7.811966 | 2.0 | 11.343 | 2 | 36.005 | 11.743 | 31.342 | 2 |
| 2025-05-10T10:06:00 | 54.262537 | 7.816281 | 2.0 | 10.863 | 2 | 35.840 | 11.419 | 31.456 | 2 |
| 2025-05-10T10:07:00 | 54.263520 | 7.820615 | 2.0 | 11.707 | 2 | 35.747 | 11.154 | 31.592 | 2 |
| 2025-05-10T10:08:00 | 54.264538 | 7.824942 | 2.0 | 11.454 | 2 | 35.916 | 11.788 | 31.218 | 2 |
| 2025-05-10T10:09:00 | 54.265563 | 7.829245 | 2.0 | 11.543 | 2 | 35.924 | 11.597 | 31.387 | 2 |
| 2025-05-10T10:10:00 | 54.266535 | 7.833605 | 2.0 | 11.138 | 2 | 35.940 | 11.695 | 31.320 | 2 |
| 2025-05-10T10:11:00 | 54.267530 | 7.837969 | 2.0 | 11.033 | 2 | 35.821 | 11.278 | 31.558 | 2 |
| 2025-05-10T10:12:00 | 54.268551 | 7.842311 | 2.0 | 11.176 | 2 | 35.763 | 11.239 | 31.535 | 2 |
| 2025-05-10T10:13:00 | 54.269554 | 7.846681 | 2.0 | 11.213 | 2 | 35.785 | 11.363 | 31.450 | 2 |
| 2025-05-10T10:14:00 | 54.270542 | 7.851082 | 2.0 | 11.533 | 2 | 35.733 | 11.429 | 31.344 | 2 |
| 2025-05-10T10:15:00 | 54.271543 | 7.855452 | 2.0 | 11.593 | 2 | 35.903 | 11.694 | 31.285 | 2 |
| 2025-05-10T10:16:00 | 54.272567 | 7.859824 | 2.0 | 11.546 | 2 | 35.960 | 11.737 | 31.304 | 2 |
| 2025-05-10T10:17:00 | 54.273604 | 7.864205 | 2.0 | 11.551 | 2 | 35.988 | 11.717 | 31.348 | 2 |
| 2025-05-10T10:18:00 | 54.274628 | 7.868614 | 2.0 | 11.577 | 2 | 36.009 | 11.717 | 31.368 | 2 |
| 2025-05-10T10:19:00 | 54.275637 | 7.873052 | 2.0 | 11.565 | 2 | 36.053 | 11.741 | 31.390 | 2 |
| 2025-05-10T10:20:00 | 54.276645 | 7.877518 | 2.0 | 11.377 | 2 | 36.013 | 11.717 | 31.372 | 2 |
| 2025-05-10T10:21:00 | 54.277657 | 7.882006 | 2.0 | 11.341 | 2 | 35.909 | 11.537 | 31.423 | 2 |
| 2025-05-10T10:22:00 | 54.278661 | 7.885805 | 2.0 | 11.492 | 2 | 35.870 | 11.561 | 31.365 | 2 |
| 2025-05-10T10:23:00 | 54.279319 | 7.888741 | 2.0 | 11.541 | 2 | 35.943 | 11.657 | 31.355 | 2 |
| 2025-05-10T10:24:00 | 54.280003 | 7.890956 | 2.0 | 11.587 | 2 | 35.978 | 11.720 | 31.335 | 2 |
| 2025-05-10T10:25:00 | 54.280742 | 7.892894 | 2.0 | 11.561 | 2 | 36.013 | 11.740 | 31.352 | 2 |
| 2025-05-10T10:26:00 | 54.281521 | 7.894167 | 2.0 | 11.561 | 2 | 36.006 | 11.733 | 31.352 | 2 |
| 2025-05-10T10:27:00 | 54.282252 | 7.895235 | 2.0 | 11.541 | 2 | 36.008 | 11.723 | 31.362 | 2 |
| 2025-05-10T10:28:00 | 54.282846 | 7.896738 | 2.0 | 11.593 | 2 | 35.998 | 11.727 | 31.349 | 2 |
| 2025-05-10T10:29:00 | 54.283045 | 7.898826 | 2.0 | 11.550 | 2 | 36.017 | 11.748 | 31.350 | 2 |
| 2025-05-10T10:30:00 | 54.282882 | 7.900893 | 2.0 | 11.540 | 2 | 36.002 | 11.717 | 31.361 | 2 |
| 2025-05-10T10:31:00 | 54.282358 | 7.901511 | 2.0 | 11.512 | 2 | 35.998 | 11.705 | 31.367 | 2 |
| 2025-05-10T10:32:00 | 54.282103 | 7.901628 | 2.0 | 11.547 | 2 | 35.987 | 11.685 | 31.374 | 2 |
| 2025-05-10T10:33:00 | 54.281959 | 7.901669 | 2.0 | 11.632 | 2 | 36.008 | 11.733 | 31.353 | 2 |
| 2025-05-10T10:34:00 | 54.281848 | 7.901544 | 2.0 | 11.553 | 2 | 36.043 | 11.799 | 31.332 | 2 |
| 2025-05-10T10:35:00 | 54.281763 | 7.901331 | 2.0 | 11.536 | 2 | 36.015 | 11.726 | 31.366 | 2 |
| 2025-05-10T10:36:00 | 54.281679 | 7.901100 | 2.0 | 11.556 | 2 | 36.007 | 11.712 | 31.370 | 2 |
| 2025-05-10T10:37:00 | 54.281576 | 7.900876 | 2.0 | 11.533 | 2 | 36.011 | 11.722 | 31.366 | 2 |
| 2025-05-10T10:38:00 | 54.281479 | 7.900646 | 2.0 | 11.532 | 2 | 36.006 | 11.705 | 31.375 | 2 |
| 2025-05-10T10:39:00 | 54.281391 | 7.900419 | 2.0 | 11.515 | 2 | 36.002 | 11.696 | 31.379 | 2 |
| 2025-05-10T10:40:00 | 54.281312 | 7.900185 | 2.0 | 11.520 | 2 | 35.998 | 11.688 | 31.382 | 2 |
| 2025-05-10T10:41:00 | 54.281260 | 7.899959 | 2.0 | 11.523 | 2 | 36.003 | 11.697 | 31.379 | 2 |
| 2025-05-10T10:42:00 | 54.281237 | 7.899746 | 2.0 | 11.530 | 2 | 36.002 | 11.694 | 31.381 | 2 |
| 2025-05-10T10:43:00 | 54.281244 | 7.899536 | 2.0 | 11.525 | 2 | 35.996 | 11.694 | 31.375 | 2 |
| 2025-05-10T10:44:00 | 54.281243 | 7.899321 | 2.0 | 11.594 | 2 | 36.007 | 11.710 | 31.372 | 2 |
| 2025-05-10T10:45:00 | 54.281212 | 7.899145 | 2.0 | 11.542 | 2 | 36.038 | 11.758 | 31.361 | 2 |
| 2025-05-10T10:46:00 | 54.281157 | 7.899027 | 2.0 | 11.596 | 2 | 36.020 | 11.715 | 31.380 | 2 |
| 2025-05-10T10:47:00 | 54.281088 | 7.898950 | 2.0 | 11.619 | 2 | 36.051 | 11.755 | 31.377 | 2 |
| 2025-05-10T10:48:00 | 54.280997 | 7.898911 | 2.0 | 11.736 | 2 | 36.071 | 11.804 | 31.355 | 2 |
| 2025-05-10T10:49:00 | 54.280879 | 7.898911 | 2.0 | 11.814 | 2 | 36.124 | 11.908 | 31.318 | 2 |
| 2025-05-10T10:50:00 | 54.280750 | 7.898883 | 2.0 | 11.770 | 2 | 36.157 | 11.953 | 31.312 | 2 |
| 2025-05-10T10:51:00 | 54.280633 | 7.898829 | 2.0 | 11.863 | 2 | 36.159 | 11.964 | 31.305 | 2 |
| 2025-05-10T10:52:00 | 54.280537 | 7.898753 | 2.0 | 11.816 | 2 | 36.194 | 12.023 | 31.289 | 2 |
| 2025-05-10T10:53:00 | 54.280455 | 7.898637 | 2.0 | 11.808 | 2 | 36.184 | 11.991 | 31.306 | 2 |
| 2025-05-10T10:54:00 | 54.280393 | 7.898494 | 2.0 | 11.812 | 2 | 36.173 | 11.975 | 31.309 | 2 |
| 2025-05-10T10:55:00 | 54.280373 | 7.898255 | 2.0 | 11.819 | 2 | 36.175 | 11.980 | 31.307 | 2 |
| 2025-05-10T10:56:00 | 54.280697 | 7.898128 | 2.0 | 11.567 | 2 | 36.164 | 11.948 | 31.323 | 2 |
| 2025-05-10T10:57:00 | 54.281845 | 7.898514 | 2.0 | 11.546 | 2 | 36.044 | 11.745 | 31.378 | 2 |
| 2025-05-10T10:58:00 | 54.283876 | 7.899240 | 2.0 | 11.562 | 2 | 36.019 | 11.720 | 31.375 | 2 |
| 2025-05-10T10:59:00 | 54.286330 | 7.899831 | 2.0 | 11.683 | 2 | 36.024 | 11.753 | 31.352 | 2 |
| 2025-05-10T11:00:00 | 54.288948 | 7.899798 | 2.0 | 11.682 | 2 | 36.070 | 11.861 | 31.306 | 2 |
| 2025-05-10T11:01:00 | 54.291627 | 7.899872 | 2.0 | 11.840 | 2 | 35.640 | 11.879 | 30.876 | 2 |
| 2025-05-10T11:02:00 | 54.294316 | 7.899902 | 2.0 | 11.925 | 2 | 36.081 | 12.006 | 31.195 | 2 |
| 2025-05-10T11:03:00 | 54.297012 | 7.899961 | 2.0 | 12.087 | 2 | 36.095 | 12.097 | 31.132 | 2 |
| 2025-05-10T11:04:00 | 54.299699 | 7.899954 | 2.0 | 12.264 | 2 | 35.986 | 12.301 | 30.859 | 2 |
| 2025-05-10T11:05:00 | 54.302388 | 7.899990 | 2.0 | 12.276 | 2 | 36.314 | 12.418 | 31.075 | 2 |
| 2025-05-10T11:06:00 | 54.305076 | 7.900051 | 2.0 | 12.101 | 2 | 36.388 | 12.411 | 31.151 | 2 |
| 2025-05-10T11:07:00 | 54.307765 | 7.900106 | 2.0 | 12.002 | 2 | 36.209 | 12.252 | 31.112 | 2 |
| 2025-05-10T11:08:00 | 54.310468 | 7.900092 | 2.0 | 11.997 | 2 | 35.705 | 12.160 | 30.707 | 2 |
| 2025-05-10T11:09:00 | 54.313167 | 7.900077 | 2.0 | 12.108 | 2 | 35.897 | 12.181 | 30.873 | 2 |
| 2025-05-10T11:10:00 | 54.315832 | 7.900056 | 2.0 | 12.072 | 2 | 36.188 | 12.269 | 31.078 | 2 |
| 2025-05-10T11:11:00 | 54.318539 | 7.900057 | 2.0 | 12.161 | 2 | 36.165 | 12.229 | 31.089 | 2 |
| 2025-05-10T11:12:00 | 54.321280 | 7.899986 | 2.0 | 12.272 | 2 | 35.900 | 12.341 | 30.744 | 2 |
| 2025-05-10T11:13:00 | 54.324040 | 7.900024 | 2.0 | 12.269 | 2 | 36.034 | 12.424 | 30.804 | 2 |
| 2025-05-10T11:14:00 | 54.326800 | 7.900078 | 2.0 | 12.233 | 2 | 35.926 | 12.419 | 30.705 | 2 |
| 2025-05-10T11:15:00 | 54.329571 | 7.900129 | 2.0 | 12.237 | 2 | 36.170 | 12.389 | 30.962 | 2 |
| 2025-05-10T11:16:00 | 54.332333 | 7.900032 | 2.0 | 12.490 | 2 | 35.773 | 12.475 | 30.514 | 2 |
| 2025-05-10T11:17:00 | 54.335080 | 7.900067 | 2.0 | 12.491 | 2 | 36.090 | 12.649 | 30.673 | 2 |
| 2025-05-10T11:18:00 | 54.337847 | 7.900078 | 2.0 | 12.568 | 2 | 36.099 | 12.661 | 30.672 | 2 |
| 2025-05-10T11:19:00 | 54.340631 | 7.900046 | 2.0 | 12.521 | 2 | 36.282 | 12.710 | 30.804 | 2 |
| 2025-05-10T11:20:00 | 54.343398 | 7.900069 | 2.0 | 12.522 | 2 | 36.237 | 12.695 | 30.774 | 2 |
| 2025-05-10T11:21:00 | 54.346156 | 7.900054 | 2.0 | 12.504 | 2 | 36.038 | 12.675 | 30.603 | 2 |
| 2025-05-10T11:22:00 | 54.348933 | 7.900049 | 2.0 | 12.549 | 2 | 35.911 | 12.683 | 30.476 | 2 |
| 2025-05-10T11:23:00 | 54.351703 | 7.900055 | 2.0 | 12.509 | 2 | 36.118 | 12.688 | 30.668 | 2 |
| 2025-05-10T11:24:00 | 54.354458 | 7.900059 | 2.0 | 12.527 | 2 | 36.088 | 12.684 | 30.643 | 2 |
| 2025-05-10T11:25:00 | 54.357207 | 7.900068 | 2.0 | 12.509 | 2 | 35.870 | 12.678 | 30.442 | 2 |
| 2025-05-10T11:26:00 | 54.359949 | 7.900053 | 2.0 | 12.581 | 2 | 35.697 | 12.691 | 30.268 | 2 |
| 2025-05-10T11:27:00 | 54.362699 | 7.900038 | 2.0 | 12.650 | 2 | 36.014 | 12.750 | 30.519 | 2 |
| 2025-05-10T11:28:00 | 54.365446 | 7.900070 | 2.0 | 12.662 | 2 | 36.034 | 12.809 | 30.491 | 2 |
| 2025-05-10T11:29:00 | 54.368207 | 7.900082 | 2.0 | 12.646 | 2 | 36.250 | 12.821 | 30.684 | 2 |
| 2025-05-10T11:30:00 | 54.370964 | 7.900065 | 2.0 | 12.711 | 2 | 36.022 | 12.807 | 30.481 | 2 |
| 2025-05-10T11:31:00 | 54.373714 | 7.900054 | 2.0 | 12.743 | 2 | 36.029 | 12.892 | 30.419 | 2 |
| 2025-05-10T11:32:00 | 54.376449 | 7.900043 | 2.0 | 12.709 | 2 | 36.124 | 12.891 | 30.509 | 2 |
| 2025-05-10T11:33:00 | 54.379209 | 7.900039 | 2.0 | 12.744 | 2 | 36.246 | 12.874 | 30.637 | 2 |
| 2025-05-10T11:34:00 | 54.381982 | 7.900038 | 2.0 | 12.650 | 2 | 36.038 | 12.889 | 30.430 | 2 |
| 2025-05-10T11:35:00 | 54.384778 | 7.900022 | 2.0 | 12.569 | 2 | 36.182 | 12.805 | 30.633 | 2 |
| 2025-05-10T11:36:00 | 54.387584 | 7.900036 | 2.0 | 12.592 | 2 | 36.135 | 12.718 | 30.659 | 2 |
| 2025-05-10T11:37:00 | 54.390391 | 7.900011 | 2.0 | 12.653 | 2 | 36.229 | 12.777 | 30.700 | 2 |
| 2025-05-10T11:38:00 | 54.393201 | 7.900065 | 2.0 | 12.591 | 2 | 36.103 | 12.799 | 30.563 | 2 |
| 2025-05-10T11:39:00 | 54.396020 | 7.900056 | 2.0 | 12.581 | 2 | 36.102 | 12.755 | 30.598 | 2 |
| 2025-05-10T11:40:00 | 54.398842 | 7.900076 | 2.0 | 12.612 | 2 | 36.081 | 12.759 | 30.575 | 2 |
| 2025-05-10T11:41:00 | 54.401575 | 7.900112 | 2.0 | 12.567 | 2 | 36.093 | 12.763 | 30.583 | 2 |
| 2025-05-10T11:42:00 | 54.404317 | 7.900113 | 2.0 | 12.575 | 2 | 36.077 | 12.729 | 30.596 | 2 |
| 2025-05-10T11:43:00 | 54.407102 | 7.900096 | 2.0 | 12.565 | 2 | 36.052 | 12.737 | 30.566 | 2 |
| 2025-05-10T11:44:00 | 54.409900 | 7.900131 | 2.0 | 12.500 | 2 | 36.099 | 12.712 | 30.630 | 2 |
| 2025-05-10T11:45:00 | 54.412700 | 7.900171 | 2.0 | 12.424 | 2 | 36.028 | 12.654 | 30.610 | 2 |
| 2025-05-10T11:46:00 | 54.415496 | 7.900133 | 2.0 | 12.393 | 2 | 36.034 | 12.600 | 30.660 | 2 |
| 2025-05-10T11:47:00 | 54.418292 | 7.900089 | 2.0 | 12.277 | 2 | 36.043 | 12.543 | 30.715 | 2 |
| 2025-05-10T11:48:00 | 54.421073 | 7.900085 | 2.0 | 12.207 | 2 | 35.987 | 12.443 | 30.743 | 2 |
| 2025-05-10T11:49:00 | 54.423856 | 7.900083 | 2.0 | 12.126 | 2 | 35.917 | 12.366 | 30.740 | 2 |
| 2025-05-10T11:50:00 | 54.426643 | 7.900118 | 2.0 | 12.026 | 2 | 35.935 | 12.294 | 30.816 | 2 |
| 2025-05-10T11:51:00 | 54.429448 | 7.900087 | 2.0 | 11.891 | 2 | 35.789 | 12.170 | 30.779 | 2 |
| 2025-05-10T11:52:00 | 54.432268 | 7.900093 | 2.0 | 11.890 | 2 | 35.757 | 12.064 | 30.836 | 2 |
| 2025-05-10T11:53:00 | 54.435091 | 7.900154 | 2.0 | 11.863 | 2 | 35.780 | 12.052 | 30.868 | 2 |
| 2025-05-10T11:54:00 | 54.437913 | 7.900167 | 2.0 | 11.798 | 2 | 35.730 | 12.019 | 30.847 | 2 |
| 2025-05-10T11:55:00 | 54.440715 | 7.900137 | 2.0 | 11.760 | 2 | 35.737 | 11.968 | 30.896 | 2 |
| 2025-05-10T11:56:00 | 54.443518 | 7.900078 | 2.0 | 11.599 | 2 | 35.713 | 11.906 | 30.924 | 2 |
| 2025-05-10T11:57:00 | 54.446307 | 7.900104 | 2.0 | 11.464 | 2 | 35.608 | 11.742 | 30.959 | 2 |
| 2025-05-10T11:58:00 | 54.449089 | 7.900111 | 2.0 | 11.210 | 2 | 35.524 | 11.598 | 30.998 | 2 |
| 2025-05-10T11:59:00 | 54.451901 | 7.900128 | 2.0 | 11.165 | 2 | 35.393 | 11.388 | 31.047 | 2 |
| 2025-05-10T12:00:00 | 54.454744 | 7.900079 | 2.0 | 11.261 | 2 | 35.371 | 11.358 | 31.051 | 2 |
| 2025-05-10T12:01:00 | 54.457591 | 7.900100 | 2.0 | 11.465 | 2 | 35.490 | 11.481 | 31.063 | 2 |
| 2025-05-10T12:02:00 | 54.460444 | 7.900143 | 2.0 | 11.137 | 2 | 35.724 | 11.588 | 31.201 | 2 |
| 2025-05-10T12:03:00 | 54.463306 | 7.900114 | 2.0 | 11.173 | 2 | 35.527 | 11.313 | 31.241 | 2 |
| 2025-05-10T12:04:00 | 54.466145 | 7.900145 | 2.0 | 11.246 | 2 | 35.630 | 11.380 | 31.285 | 2 |
| 2025-05-10T12:05:00 | 54.468969 | 7.900241 | 2.0 | 11.361 | 2 | 35.688 | 11.448 | 31.284 | 2 |
| 2025-05-10T12:06:00 | 54.471795 | 7.900258 | 2.0 | 11.390 | 2 | 35.772 | 11.541 | 31.287 | 2 |
| 2025-05-10T12:07:00 | 54.474617 | 7.900203 | 2.0 | 11.371 | 2 | 35.788 | 11.521 | 31.319 | 2 |
| 2025-05-10T12:08:00 | 54.477462 | 7.900126 | 2.0 | 11.430 | 2 | 35.857 | 11.590 | 31.328 | 2 |
| 2025-05-10T12:09:00 | 54.480323 | 7.900104 | 2.0 | 11.361 | 2 | 35.870 | 11.597 | 31.335 | 2 |
| 2025-05-10T12:10:00 | 54.483208 | 7.900128 | 2.0 | 11.244 | 2 | 35.793 | 11.517 | 31.327 | 2 |
| 2025-05-10T12:11:00 | 54.486105 | 7.900142 | 2.0 | 11.029 | 2 | 35.692 | 11.397 | 31.331 | 2 |
| 2025-05-10T12:12:00 | 54.489007 | 7.900215 | 2.0 | 11.196 | 2 | 35.544 | 11.219 | 31.337 | 2 |
| 2025-05-10T12:13:00 | 54.491864 | 7.900212 | 2.0 | 11.281 | 2 | 35.632 | 11.353 | 31.310 | 2 |
| 2025-05-10T12:14:00 | 54.494630 | 7.900125 | 2.0 | 11.379 | 2 | 35.771 | 11.470 | 31.346 | 2 |
| 2025-05-10T12:15:00 | 54.497365 | 7.900068 | 2.0 | 11.405 | 2 | 35.834 | 11.555 | 31.335 | 2 |
| 2025-05-10T12:16:00 | 54.500087 | 7.900187 | 2.0 | 11.380 | 2 | 35.839 | 11.573 | 31.325 | 2 |
| 2025-05-10T12:17:00 | 54.502802 | 7.900142 | 2.0 | 11.358 | 2 | 35.803 | 11.535 | 31.322 | 2 |
| 2025-05-10T12:18:00 | 54.505517 | 7.900115 | 2.0 | 11.372 | 2 | 35.781 | 11.527 | 31.307 | 2 |
| 2025-05-10T12:19:00 | 54.508139 | 7.900110 | 2.0 | 11.305 | 2 | 35.783 | 11.539 | 31.299 | 2 |
| 2025-05-10T12:20:00 | 54.510162 | 7.899792 | 2.0 | 11.390 | 2 | 35.737 | 11.494 | 31.292 | 2 |
| 2025-05-10T12:21:00 | 54.511757 | 7.899456 | 2.0 | 11.299 | 2 | 35.763 | 11.531 | 31.286 | 2 |
| 2025-05-10T12:22:00 | 54.513055 | 7.899241 | 2.0 | 11.282 | 2 | 35.710 | 11.469 | 31.287 | 2 |
| 2025-05-10T12:23:00 | 54.514159 | 7.899035 | 2.0 | 11.407 | 2 | 35.483 | 11.458 | 31.076 | 2 |
| 2025-05-10T12:24:00 | 54.515117 | 7.898967 | 2.0 | 11.493 | 2 | 35.801 | 11.596 | 31.269 | 2 |
| 2025-05-10T12:25:00 | 54.515441 | 7.899323 | 2.0 | 11.475 | 2 | 35.849 | 11.635 | 31.282 | 2 |
| 2025-05-10T12:26:00 | 54.515467 | 7.899590 | 2.0 | 11.473 | 2 | 35.843 | 11.643 | 31.270 | 2 |
| 2025-05-10T12:27:00 | 54.515422 | 7.899857 | 2.0 | 11.637 | 2 | 35.849 | 11.651 | 31.269 | 2 |
| 2025-05-10T12:28:00 | 54.515419 | 7.900040 | 2.0 | 11.591 | 2 | 35.966 | 11.788 | 31.267 | 2 |
| 2025-05-10T12:29:00 | 54.515464 | 7.900230 | 2.0 | 11.699 | 2 | 35.960 | 11.778 | 31.269 | 2 |
| 2025-05-10T12:30:00 | 54.515542 | 7.900463 | 2.0 | 11.687 | 2 | 36.037 | 11.868 | 31.268 | 2 |
| 2025-05-10T12:31:00 | 54.515637 | 7.900698 | 2.0 | 11.677 | 2 | 36.013 | 11.833 | 31.274 | 2 |
| 2025-05-10T12:32:00 | 54.515787 | 7.900867 | 2.0 | 11.679 | 2 | 36.007 | 11.841 | 31.262 | 2 |
| 2025-05-10T12:33:00 | 54.515974 | 7.901044 | 2.0 | 11.622 | 2 | 36.007 | 11.833 | 31.268 | 2 |
| 2025-05-10T12:34:00 | 54.516138 | 7.901341 | 2.0 | 11.631 | 2 | 35.969 | 11.784 | 31.273 | 2 |
| 2025-05-10T12:35:00 | 54.516296 | 7.901693 | 2.0 | 11.660 | 2 | 35.976 | 11.803 | 31.264 | 2 |
| 2025-05-10T12:36:00 | 54.516419 | 7.901723 | 2.0 | 11.667 | 2 | 36.001 | 11.830 | 31.265 | 2 |
| 2025-05-10T12:37:00 | 54.516554 | 7.901893 | 2.0 | 11.675 | 2 | 36.008 | 11.838 | 31.265 | 2 |
| 2025-05-10T12:38:00 | 54.516658 | 7.902231 | 2.0 | 11.669 | 2 | 36.006 | 11.838 | 31.263 | 2 |
| 2025-05-10T12:39:00 | 54.516750 | 7.902322 | 2.0 | 11.640 | 2 | 35.996 | 11.827 | 31.263 | 2 |
| 2025-05-10T12:40:00 | 54.516848 | 7.902418 | 2.0 | 11.654 | 2 | 35.980 | 11.813 | 31.259 | 2 |
| 2025-05-10T12:41:00 | 54.516902 | 7.902633 | 2.0 | 11.644 | 2 | 35.972 | 11.804 | 31.259 | 2 |
| 2025-05-10T12:42:00 | 54.516895 | 7.902849 | 2.0 | 11.586 | 2 | 35.960 | 11.791 | 31.258 | 2 |
| 2025-05-10T12:43:00 | 54.516858 | 7.903026 | 2.0 | 11.588 | 2 | 35.930 | 11.759 | 31.256 | 2 |
| 2025-05-10T12:44:00 | 54.516809 | 7.903186 | 2.0 | 11.587 | 2 | 35.906 | 11.732 | 31.256 | 2 |
| 2025-05-10T12:45:00 | 54.516762 | 7.903350 | 2.0 | 11.569 | 2 | 35.908 | 11.746 | 31.246 | 2 |
| 2025-05-10T12:46:00 | 54.516705 | 7.903499 | 2.0 | 11.601 | 2 | 35.891 | 11.721 | 31.250 | 2 |
| 2025-05-10T12:47:00 | 54.516636 | 7.903683 | 2.0 | 11.644 | 2 | 35.910 | 11.758 | 31.238 | 2 |
| 2025-05-10T12:48:00 | 54.516440 | 7.903514 | 2.0 | 11.585 | 2 | 35.955 | 11.804 | 31.242 | 2 |
| 2025-05-10T12:49:00 | 54.516485 | 7.902319 | 2.0 | 11.466 | 2 | 35.880 | 11.699 | 31.258 | 2 |
| 2025-05-10T12:50:00 | 54.517060 | 7.900422 | 2.0 | 11.681 | 2 | 35.854 | 11.689 | 31.242 | 2 |
| 2025-05-10T12:51:00 | 54.517846 | 7.897978 | 2.0 | 11.684 | 2 | 35.973 | 11.817 | 31.249 | 2 |
| 2025-05-10T12:52:00 | 54.518987 | 7.895306 | 2.0 | 11.477 | 2 | 36.013 | 11.833 | 31.274 | 2 |
| 2025-05-10T12:53:00 | 54.520597 | 7.891892 | 2.0 | 11.522 | 2 | 35.861 | 11.662 | 31.271 | 2 |
| 2025-05-10T12:54:00 | 54.522377 | 7.888043 | 2.0 | 11.444 | 2 | 35.869 | 11.667 | 31.275 | 2 |
| 2025-05-10T12:55:00 | 54.524267 | 7.884153 | 2.0 | 11.367 | 2 | 35.819 | 11.598 | 31.284 | 2 |
| 2025-05-10T12:56:00 | 54.526161 | 7.880189 | 2.0 | 11.322 | 2 | 35.763 | 11.526 | 31.291 | 2 |
| 2025-05-10T12:57:00 | 54.528079 | 7.876239 | 2.0 | 11.298 | 2 | 35.747 | 11.499 | 31.298 | 2 |
| 2025-05-10T12:58:00 | 54.530098 | 7.872451 | 2.0 | 11.328 | 2 | 35.736 | 11.480 | 31.303 | 2 |
| 2025-05-10T12:59:00 | 54.532116 | 7.868656 | 2.0 | 11.382 | 2 | 35.770 | 11.510 | 31.311 | 2 |
| 2025-05-10T13:00:00 | 54.534086 | 7.864989 | 2.0 | 11.320 | 2 | 35.785 | 11.509 | 31.326 | 2 |
| 2025-05-10T13:01:00 | 54.536011 | 7.861365 | 2.0 | 11.308 | 2 | 35.779 | 11.488 | 31.338 | 2 |
| 2025-05-10T13:02:00 | 54.537893 | 7.857713 | 2.0 | 11.295 | 2 | 35.781 | 11.475 | 31.351 | 2 |
| 2025-05-10T13:03:00 | 54.539801 | 7.854102 | 2.0 | 11.387 | 2 | 35.799 | 11.488 | 31.358 | 2 |
| 2025-05-10T13:04:00 | 54.541704 | 7.850487 | 2.0 | 11.342 | 2 | 35.841 | 11.517 | 31.374 | 2 |
| 2025-05-10T13:05:00 | 54.543630 | 7.846976 | 2.0 | 11.401 | 2 | 35.866 | 11.532 | 31.386 | 2 |
| 2025-05-10T13:06:00 | 54.545508 | 7.843477 | 2.0 | 11.073 | 2 | 35.884 | 11.514 | 31.419 | 2 |
| 2025-05-10T13:07:00 | 54.547359 | 7.840024 | 2.0 | 11.226 | 2 | 35.752 | 11.305 | 31.468 | 2 |
| 2025-05-10T13:08:00 | 54.549167 | 7.836505 | 2.0 | 11.287 | 2 | 35.827 | 11.423 | 31.440 | 2 |
| 2025-05-10T13:09:00 | 54.551030 | 7.833051 | 2.0 | 11.248 | 2 | 35.863 | 11.426 | 31.473 | 2 |
| 2025-05-10T13:10:00 | 54.552872 | 7.829574 | 2.0 | 11.395 | 2 | 35.893 | 11.455 | 31.477 | 2 |
| 2025-05-10T13:11:00 | 54.554702 | 7.826110 | 2.0 | 11.438 | 2 | 36.007 | 11.577 | 31.485 | 2 |
| 2025-05-10T13:12:00 | 54.556563 | 7.822689 | 2.0 | 11.450 | 2 | 36.057 | 11.620 | 31.497 | 2 |
| 2025-05-10T13:13:00 | 54.558399 | 7.819212 | 2.0 | 11.391 | 2 | 36.054 | 11.592 | 31.518 | 2 |
| 2025-05-10T13:14:00 | 54.560252 | 7.815771 | 2.0 | 11.350 | 2 | 36.027 | 11.555 | 31.523 | 2 |
| 2025-05-10T13:15:00 | 54.562116 | 7.812328 | 2.0 | 11.337 | 2 | 35.989 | 11.503 | 31.530 | 2 |
| 2025-05-10T13:16:00 | 54.563939 | 7.808818 | 2.0 | 11.465 | 2 | 36.002 | 11.521 | 31.527 | 2 |
| 2025-05-10T13:17:00 | 54.565742 | 7.805302 | 2.0 | 11.758 | 2 | 36.158 | 11.697 | 31.529 | 2 |
| 2025-05-10T13:18:00 | 54.567495 | 7.801696 | 2.0 | 11.734 | 2 | 36.363 | 11.908 | 31.548 | 2 |
| 2025-05-10T13:19:00 | 54.569455 | 7.798395 | 2.0 | 11.700 | 2 | 36.353 | 11.882 | 31.561 | 2 |
| 2025-05-10T13:20:00 | 54.571367 | 7.795019 | 2.0 | 11.713 | 2 | 36.323 | 11.856 | 31.554 | 2 |
| 2025-05-10T13:21:00 | 54.573156 | 7.791451 | 2.0 | 11.712 | 2 | 36.321 | 11.865 | 31.544 | 2 |
| 2025-05-10T13:22:00 | 54.575028 | 7.788011 | 2.0 | 11.712 | 2 | 36.334 | 11.871 | 31.552 | 2 |
| 2025-05-10T13:23:00 | 54.576843 | 7.784490 | 2.0 | 11.566 | 2 | 36.333 | 11.855 | 31.564 | 2 |
| 2025-05-10T13:24:00 | 54.578675 | 7.781023 | 2.0 | 11.481 | 2 | 36.262 | 11.744 | 31.590 | 2 |
| 2025-05-10T13:25:00 | 54.580523 | 7.777564 | 2.0 | 11.465 | 2 | 36.192 | 11.656 | 31.597 | 2 |
| 2025-05-10T13:26:00 | 54.582375 | 7.774145 | 2.0 | 11.405 | 2 | 36.181 | 11.642 | 31.598 | 2 |
| 2025-05-10T13:27:00 | 54.584190 | 7.770673 | 2.0 | 11.259 | 2 | 36.111 | 11.540 | 31.617 | 2 |
| 2025-05-10T13:28:00 | 54.586028 | 7.767183 | 2.0 | 11.251 | 2 | 36.017 | 11.426 | 31.623 | 2 |
| 2025-05-10T13:29:00 | 54.587884 | 7.763728 | 2.0 | 11.456 | 2 | 36.000 | 11.416 | 31.615 | 2 |
| 2025-05-10T13:30:00 | 54.589728 | 7.760252 | 2.0 | 11.506 | 2 | 36.146 | 11.662 | 31.547 | 2 |
| 2025-05-10T13:31:00 | 54.591589 | 7.756787 | 2.0 | 11.379 | 2 | 36.157 | 11.616 | 31.597 | 2 |
| 2025-05-10T13:32:00 | 54.593437 | 7.753262 | 2.0 | 11.343 | 2 | 36.114 | 11.572 | 31.593 | 2 |
| 2025-05-10T13:33:00 | 54.595314 | 7.749732 | 2.0 | 11.514 | 2 | 36.093 | 11.561 | 31.582 | 2 |
| 2025-05-10T13:34:00 | 54.597204 | 7.746223 | 2.0 | 11.644 | 2 | 36.202 | 11.727 | 31.546 | 2 |
| 2025-05-10T13:35:00 | 54.599095 | 7.742723 | 2.0 | 11.588 | 2 | 36.272 | 11.769 | 31.578 | 2 |
| 2025-05-10T13:36:00 | 54.600938 | 7.739195 | 2.0 | 11.664 | 2 | 36.282 | 11.744 | 31.609 | 2 |
| 2025-05-10T13:37:00 | 54.602814 | 7.735732 | 2.0 | 11.586 | 2 | 36.352 | 11.798 | 31.631 | 2 |
| 2025-05-10T13:38:00 | 54.604658 | 7.732214 | 2.0 | 11.447 | 2 | 36.335 | 11.731 | 31.672 | 2 |
| 2025-05-10T13:39:00 | 54.606505 | 7.728695 | 2.0 | 11.446 | 2 | 36.273 | 11.625 | 31.702 | 2 |
| 2025-05-10T13:40:00 | 54.608406 | 7.725266 | 2.0 | 11.169 | 2 | 36.238 | 11.551 | 31.731 | 2 |
| 2025-05-10T13:41:00 | 54.610251 | 7.721769 | 2.0 | 10.947 | 2 | 36.064 | 11.295 | 31.781 | 2 |
| 2025-05-10T13:42:00 | 54.612074 | 7.718253 | 2.0 | 10.914 | 2 | 35.934 | 11.135 | 31.792 | 2 |
| 2025-05-10T13:43:00 | 54.613913 | 7.714780 | 2.0 | 11.009 | 2 | 35.932 | 11.142 | 31.784 | 2 |
| 2025-05-10T13:44:00 | 54.615767 | 7.711350 | 2.0 | 10.924 | 2 | 35.963 | 11.153 | 31.805 | 2 |
| 2025-05-10T13:45:00 | 54.617590 | 7.707871 | 2.0 | 10.928 | 2 | 35.775 | 11.133 | 31.637 | 2 |
| 2025-05-10T13:46:00 | 54.619440 | 7.704430 | 2.0 | 11.046 | 2 | 35.808 | 11.115 | 31.685 | 2 |
| 2025-05-10T13:47:00 | 54.621277 | 7.700983 | 2.0 | 11.029 | 2 | 35.848 | 11.210 | 31.643 | 2 |
| 2025-05-10T13:48:00 | 54.623121 | 7.697538 | 2.0 | 10.998 | 2 | 35.881 | 11.238 | 31.651 | 2 |
| 2025-05-10T13:49:00 | 54.624957 | 7.694074 | 2.0 | 11.215 | 2 | 35.741 | 11.230 | 31.521 | 2 |
| 2025-05-10T13:50:00 | 54.626810 | 7.690648 | 2.0 | 11.323 | 2 | 35.921 | 11.373 | 31.575 | 2 |
| 2025-05-10T13:51:00 | 54.628625 | 7.687151 | 2.0 | 11.382 | 2 | 35.889 | 11.499 | 31.436 | 2 |
| 2025-05-10T13:52:00 | 54.630472 | 7.683680 | 2.0 | 11.428 | 2 | 35.959 | 11.540 | 31.469 | 2 |
| 2025-05-10T13:53:00 | 54.632321 | 7.680186 | 2.0 | 11.488 | 2 | 36.138 | 11.598 | 31.594 | 2 |
| 2025-05-10T13:54:00 | 54.634166 | 7.676693 | 2.0 | 11.576 | 2 | 36.236 | 11.665 | 31.632 | 2 |
| 2025-05-10T13:55:00 | 54.636042 | 7.673218 | 2.0 | 11.613 | 2 | 36.237 | 11.726 | 31.581 | 2 |
| 2025-05-10T13:56:00 | 54.637909 | 7.669741 | 2.0 | 11.666 | 2 | 36.251 | 11.786 | 31.544 | 2 |
| 2025-05-10T13:57:00 | 54.639782 | 7.666264 | 2.0 | 11.614 | 2 | 36.260 | 11.825 | 31.519 | 2 |
| 2025-05-10T13:58:00 | 54.641648 | 7.662776 | 2.0 | 11.527 | 2 | 36.235 | 11.764 | 31.547 | 2 |
| 2025-05-10T13:59:00 | 54.643489 | 7.659259 | 2.0 | 11.475 | 2 | 36.247 | 11.690 | 31.621 | 2 |
| 2025-05-10T14:00:00 | 54.645367 | 7.655825 | 2.0 | 11.536 | 2 | 36.168 | 11.658 | 31.572 | 2 |
| 2025-05-10T14:01:00 | 54.647189 | 7.652321 | 2.0 | 11.573 | 2 | 36.177 | 11.700 | 31.545 | 2 |
| 2025-05-10T14:02:00 | 54.649010 | 7.648802 | 2.0 | 11.598 | 2 | 36.183 | 11.734 | 31.522 | 2 |
| 2025-05-10T14:03:00 | 54.650871 | 7.645331 | 2.0 | 11.657 | 2 | 36.314 | 11.773 | 31.616 | 2 |
| 2025-05-10T14:04:00 | 54.652689 | 7.641790 | 2.0 | 11.719 | 2 | 36.352 | 11.829 | 31.605 | 2 |
| 2025-05-10T14:05:00 | 54.654544 | 7.638330 | 2.0 | 11.827 | 2 | 36.345 | 11.886 | 31.550 | 2 |
| 2025-05-10T14:06:00 | 54.656388 | 7.634844 | 2.0 | 11.888 | 2 | 36.470 | 12.008 | 31.567 | 2 |
| 2025-05-10T14:07:00 | 54.658217 | 7.631348 | 2.0 | 11.926 | 2 | 36.464 | 12.038 | 31.536 | 2 |
| 2025-05-10T14:08:00 | 54.660109 | 7.627909 | 2.0 | 11.910 | 2 | 36.500 | 12.090 | 31.526 | 2 |
| 2025-05-10T14:09:00 | 54.661934 | 7.624377 | 2.0 | 11.917 | 2 | 36.501 | 12.059 | 31.554 | 2 |
| 2025-05-10T14:10:00 | 54.663784 | 7.620869 | 2.0 | 11.917 | 2 | 36.494 | 12.065 | 31.542 | 2 |
| 2025-05-10T14:11:00 | 54.665619 | 7.617346 | 2.0 | 11.948 | 2 | 36.514 | 12.085 | 31.544 | 2 |
| 2025-05-10T14:12:00 | 54.667489 | 7.613836 | 2.0 | 11.925 | 2 | 36.518 | 12.103 | 31.533 | 2 |
| 2025-05-10T14:13:00 | 54.669344 | 7.610289 | 2.0 | 11.952 | 2 | 36.408 | 12.097 | 31.432 | 2 |
| 2025-05-10T14:14:00 | 54.671238 | 7.606837 | 2.0 | 11.982 | 2 | 36.469 | 12.120 | 31.471 | 2 |
| 2025-05-10T14:15:00 | 54.673104 | 7.603367 | 2.0 | 11.957 | 2 | 36.280 | 12.134 | 31.278 | 2 |
| 2025-05-10T14:16:00 | 54.674968 | 7.599885 | 2.0 | 11.988 | 2 | 36.199 | 12.123 | 31.210 | 2 |
| 2025-05-10T14:17:00 | 54.676726 | 7.596332 | 2.0 | 12.018 | 2 | 36.656 | 12.161 | 31.616 | 2 |
| 2025-05-10T14:18:00 | 54.678220 | 7.592952 | 2.0 | 12.010 | 2 | 36.675 | 12.173 | 31.624 | 2 |
| 2025-05-10T14:19:00 | 54.679676 | 7.589763 | 2.0 | 12.056 | 2 | 36.686 | 12.187 | 31.623 | 2 |
| 2025-05-10T14:20:00 | 54.680903 | 7.586939 | 2.0 | 12.094 | 2 | 36.734 | 12.235 | 31.628 | 2 |
| 2025-05-10T14:21:00 | 54.681850 | 7.584439 | 2.0 | 12.104 | 2 | 36.772 | 12.271 | 31.634 | 2 |
| 2025-05-10T14:22:00 | 54.682646 | 7.582471 | 2.0 | 12.112 | 2 | 36.789 | 12.282 | 31.641 | 2 |
| 2025-05-10T14:23:00 | 54.683271 | 7.582263 | 2.0 | 12.123 | 2 | 36.801 | 12.295 | 31.642 | 2 |
| 2025-05-10T14:24:00 | 54.683361 | 7.582458 | 2.0 | 12.011 | 2 | 36.780 | 12.259 | 31.652 | 2 |
| 2025-05-10T14:25:00 | 54.683365 | 7.582606 | 2.0 | 12.092 | 2 | 36.734 | 12.220 | 31.641 | 2 |
| 2025-05-10T14:26:00 | 54.683432 | 7.582672 | 2.0 | 12.088 | 2 | 36.770 | 12.259 | 31.643 | 2 |
| 2025-05-10T14:27:00 | 54.683527 | 7.582646 | 2.0 | 12.104 | 2 | 36.779 | 12.272 | 31.640 | 2 |
| 2025-05-10T14:28:00 | 54.683594 | 7.582573 | 2.0 | 12.096 | 2 | 36.792 | 12.285 | 31.642 | 2 |
| 2025-05-10T14:29:00 | 54.683632 | 7.582439 | 2.0 | 12.099 | 2 | 36.788 | 12.281 | 31.641 | 2 |
| 2025-05-10T14:30:00 | 54.683752 | 7.582316 | 2.0 | 12.097 | 2 | 36.789 | 12.283 | 31.640 | 2 |
| 2025-05-10T14:31:00 | 54.684000 | 7.582223 | 2.0 | 12.063 | 2 | 36.778 | 12.267 | 31.643 | 2 |
| 2025-05-10T14:32:00 | 54.684280 | 7.581913 | 2.0 | 11.976 | 2 | 36.758 | 12.244 | 31.644 | 2 |
| 2025-05-10T14:33:00 | 54.684555 | 7.581514 | 2.0 | 11.939 | 2 | 36.699 | 12.163 | 31.656 | 2 |
| 2025-05-10T14:34:00 | 54.684806 | 7.581079 | 2.0 | 11.971 | 2 | 36.673 | 12.144 | 31.647 | 2 |
| 2025-05-10T14:35:00 | 54.685063 | 7.580681 | 2.0 | 11.951 | 2 | 36.680 | 12.149 | 31.649 | 2 |
| 2025-05-10T14:36:00 | 54.685329 | 7.580297 | 2.0 | 12.034 | 2 | 36.684 | 12.166 | 31.639 | 2 |
| 2025-05-10T14:37:00 | 54.685559 | 7.580013 | 2.0 | 12.033 | 2 | 36.730 | 12.216 | 31.641 | 2 |
| 2025-05-10T14:38:00 | 54.685705 | 7.579790 | 2.0 | 12.058 | 2 | 36.742 | 12.230 | 31.640 | 2 |
| 2025-05-10T14:39:00 | 54.685872 | 7.579597 | 2.0 | 12.045 | 2 | 36.760 | 12.249 | 31.641 | 2 |
| 2025-05-10T14:40:00 | 54.686159 | 7.579332 | 2.0 | 11.932 | 2 | 36.673 | 12.209 | 31.592 | 2 |
| 2025-05-10T14:41:00 | 54.686449 | 7.578923 | 2.0 | 11.939 | 2 | 36.609 | 12.139 | 31.590 | 2 |
| 2025-05-10T14:42:00 | 54.686725 | 7.578417 | 2.0 | 11.957 | 2 | 36.676 | 12.150 | 31.645 | 2 |
| 2025-05-10T14:43:00 | 54.687047 | 7.577935 | 2.0 | 11.958 | 2 | 36.681 | 12.148 | 31.651 | 2 |
| 2025-05-10T14:44:00 | 54.687440 | 7.577592 | 2.0 | 11.985 | 2 | 36.579 | 12.166 | 31.538 | 2 |
| 2025-05-10T14:45:00 | 54.687687 | 7.577386 | 2.0 | 11.961 | 2 | 36.656 | 12.173 | 31.606 | 2 |
| 2025-05-10T14:46:00 | 54.687829 | 7.577182 | 2.0 | 11.987 | 2 | 36.689 | 12.165 | 31.644 | 2 |
| 2025-05-10T14:47:00 | 54.688014 | 7.577005 | 2.0 | 11.991 | 2 | 36.548 | 12.184 | 31.493 | 2 |
| 2025-05-10T14:48:00 | 54.688236 | 7.576794 | 2.0 | 11.828 | 2 | 36.480 | 12.170 | 31.440 | 2 |
| 2025-05-10T14:49:00 | 54.688523 | 7.576568 | 2.0 | 11.759 | 2 | 36.110 | 12.011 | 31.218 | 2 |
| 2025-05-10T14:50:00 | 54.688771 | 7.576277 | 2.0 | 11.862 | 2 | 36.264 | 11.969 | 31.402 | 2 |
| 2025-05-10T14:51:00 | 54.688952 | 7.575956 | 2.0 | 11.920 | 2 | 36.508 | 12.086 | 31.537 | 2 |
| 2025-05-10T14:52:00 | 54.689071 | 7.575702 | 2.0 | 11.963 | 2 | 36.289 | 12.130 | 31.290 | 2 |
| 2025-05-10T14:53:00 | 54.689204 | 7.575511 | 2.0 | 11.967 | 2 | 36.469 | 12.164 | 31.434 | 2 |
| 2025-05-10T14:54:00 | 54.689291 | 7.575358 | 2.0 | 11.994 | 2 | 36.295 | 12.173 | 31.260 | 2 |
| 2025-05-10T14:55:00 | 54.689343 | 7.575225 | 2.0 | 11.999 | 2 | 36.344 | 12.194 | 31.290 | 2 |
| 2025-05-10T14:56:00 | 54.689447 | 7.575223 | 2.0 | 11.995 | 2 | 36.687 | 12.201 | 31.612 | 2 |
| 2025-05-10T14:57:00 | 54.689559 | 7.575227 | 2.0 | 11.992 | 2 | 36.531 | 12.196 | 31.467 | 2 |
| 2025-05-10T14:58:00 | 54.689651 | 7.575204 | 2.0 | 11.985 | 2 | 36.617 | 12.195 | 31.550 | 2 |
| 2025-05-10T14:59:00 | 54.689774 | 7.575210 | 2.0 | 11.989 | 2 | 36.499 | 12.190 | 31.441 | 2 |
| 2025-05-10T15:00:00 | 54.689917 | 7.575433 | 2.0 | 11.990 | 2 | 36.694 | 12.189 | 31.629 | 2 |
| 2025-05-10T15:01:00 | 54.689826 | 7.575494 | 2.0 | 11.865 | 2 | 36.697 | 12.181 | 31.639 | 2 |
| 2025-05-10T15:02:00 | 54.689562 | 7.575319 | 2.0 | 11.946 | 2 | 36.441 | 12.090 | 31.470 | 2 |
| 2025-05-10T15:03:00 | 54.689172 | 7.574988 | 2.0 | 11.999 | 2 | 36.620 | 12.153 | 31.588 | 2 |
| 2025-05-10T15:04:00 | 54.688676 | 7.574622 | 2.0 | 12.031 | 2 | 36.462 | 12.203 | 31.395 | 2 |
| 2025-05-10T15:05:00 | 54.688111 | 7.574276 | 2.0 | 12.083 | 2 | 36.712 | 12.239 | 31.604 | 2 |
| 2025-05-10T15:06:00 | 54.687494 | 7.574021 | 2.0 | 12.075 | 2 | 36.782 | 12.288 | 31.630 | 2 |
| 2025-05-10T15:07:00 | 54.686857 | 7.573831 | 2.0 | 12.099 | 2 | 36.534 | 12.257 | 31.418 | 2 |
| 2025-05-10T15:08:00 | 54.686227 | 7.573697 | 2.0 | 12.097 | 2 | 36.503 | 12.288 | 31.363 | 2 |
| 2025-05-10T15:09:00 | 54.685603 | 7.573575 | 2.0 | 12.113 | 2 | 36.607 | 12.288 | 31.462 | 2 |
| 2025-05-10T15:10:00 | 54.684975 | 7.573424 | 2.0 | 12.116 | 2 | 36.686 | 12.294 | 31.533 | 2 |
| 2025-05-10T15:11:00 | 54.684368 | 7.573409 | 2.0 | 12.110 | 2 | 36.750 | 12.298 | 31.590 | 2 |
| 2025-05-10T15:12:00 | 54.683820 | 7.573626 | 2.0 | 12.086 | 2 | 36.428 | 12.283 | 31.295 | 2 |
| 2025-05-10T15:13:00 | 54.683289 | 7.573858 | 2.0 | 12.107 | 2 | 36.639 | 12.267 | 31.510 | 2 |
| 2025-05-10T15:14:00 | 54.682887 | 7.574296 | 2.0 | 12.101 | 2 | 36.606 | 12.283 | 31.465 | 2 |
| 2025-05-10T15:15:00 | 54.682657 | 7.574923 | 2.0 | 12.105 | 2 | 36.669 | 12.278 | 31.530 | 2 |
| 2025-05-10T15:16:00 | 54.682419 | 7.575558 | 2.0 | 12.110 | 2 | 36.563 | 12.281 | 31.426 | 2 |
| 2025-05-10T15:17:00 | 54.682176 | 7.576200 | 2.0 | 12.094 | 2 | 36.660 | 12.283 | 31.517 | 2 |
| 2025-05-10T15:18:00 | 54.682044 | 7.576842 | 2.0 | 12.090 | 2 | 36.539 | 12.275 | 31.408 | 2 |
| 2025-05-10T15:19:00 | 54.681956 | 7.577432 | 2.0 | 12.065 | 2 | 36.700 | 12.262 | 31.573 | 2 |
| 2025-05-10T15:20:00 | 54.681889 | 7.577985 | 2.0 | 12.055 | 2 | 36.596 | 12.243 | 31.490 | 2 |
| 2025-05-10T15:21:00 | 54.681704 | 7.578179 | 2.0 | 12.009 | 2 | 36.512 | 12.224 | 31.425 | 2 |
| 2025-05-10T15:22:00 | 54.681533 | 7.578052 | 2.0 | 11.899 | 2 | 36.539 | 12.174 | 31.493 | 2 |
| 2025-05-10T15:23:00 | 54.681424 | 7.577802 | 2.0 | 11.963 | 2 | 36.461 | 12.086 | 31.492 | 2 |
| 2025-05-10T15:24:00 | 54.681354 | 7.577533 | 2.0 | 12.027 | 2 | 36.408 | 12.154 | 31.384 | 2 |
| 2025-05-10T15:25:00 | 54.681301 | 7.577293 | 2.0 | 12.051 | 2 | 36.487 | 12.205 | 31.417 | 2 |
| 2025-05-10T15:26:00 | 54.681257 | 7.577138 | 2.0 | 12.064 | 2 | 36.514 | 12.225 | 31.426 | 2 |
| 2025-05-10T15:27:00 | 54.681229 | 7.577046 | 2.0 | 12.085 | 2 | 36.510 | 12.239 | 31.411 | 2 |
| 2025-05-10T15:28:00 | 54.681223 | 7.576961 | 2.0 | 12.089 | 2 | 36.508 | 12.256 | 31.394 | 2 |
| 2025-05-10T15:29:00 | 54.681216 | 7.576853 | 2.0 | 12.075 | 2 | 36.563 | 12.260 | 31.444 | 2 |
| 2025-05-10T15:30:00 | 54.681205 | 7.576726 | 2.0 | 12.077 | 2 | 36.598 | 12.246 | 31.489 | 2 |
| 2025-05-10T15:31:00 | 54.681196 | 7.576580 | 2.0 | 12.072 | 2 | 36.588 | 12.247 | 31.479 | 2 |
| 2025-05-10T15:32:00 | 54.681188 | 7.576415 | 2.0 | 12.069 | 2 | 36.616 | 12.245 | 31.507 | 2 |
| 2025-05-10T15:33:00 | 54.681186 | 7.576243 | 2.0 | 12.058 | 2 | 36.630 | 12.241 | 31.524 | 2 |
| 2025-05-10T15:34:00 | 54.681176 | 7.576053 | 2.0 | 12.057 | 2 | 36.570 | 12.231 | 31.475 | 2 |
| 2025-05-10T15:35:00 | 54.681163 | 7.575870 | 2.0 | 12.033 | 2 | 36.432 | 12.221 | 31.351 | 2 |
| 2025-05-10T15:36:00 | 54.681152 | 7.575695 | 2.0 | 12.000 | 2 | 36.509 | 12.202 | 31.441 | 2 |
| 2025-05-10T15:37:00 | 54.681134 | 7.575534 | 2.0 | 12.028 | 2 | 36.447 | 12.177 | 31.402 | 2 |
| 2025-05-10T15:38:00 | 54.681114 | 7.575382 | 2.0 | 12.033 | 2 | 36.658 | 12.200 | 31.585 | 2 |
| 2025-05-10T15:39:00 | 54.681095 | 7.575234 | 2.0 | 12.051 | 2 | 36.480 | 12.210 | 31.406 | 2 |
| 2025-05-10T15:40:00 | 54.681072 | 7.575101 | 2.0 | 12.077 | 2 | 36.629 | 12.225 | 31.536 | 2 |
| 2025-05-10T15:41:00 | 54.681041 | 7.574984 | 2.0 | 12.079 | 2 | 36.384 | 12.245 | 31.285 | 2 |
| 2025-05-10T15:42:00 | 54.681001 | 7.574878 | 2.0 | 12.082 | 2 | 36.608 | 12.251 | 31.494 | 2 |
| 2025-05-10T15:43:00 | 54.680968 | 7.574774 | 2.0 | 12.088 | 2 | 36.605 | 12.253 | 31.490 | 2 |
| 2025-05-10T15:44:00 | 54.680937 | 7.574678 | 2.0 | 12.077 | 2 | 36.592 | 12.257 | 31.474 | 2 |
| 2025-05-10T15:45:00 | 54.680916 | 7.574588 | 2.0 | 12.034 | 2 | 36.686 | 12.244 | 31.575 | 2 |
| 2025-05-10T15:46:00 | 54.680886 | 7.574466 | 2.0 | 11.948 | 2 | 36.481 | 12.185 | 31.428 | 2 |
| 2025-05-10T15:47:00 | 54.680840 | 7.574289 | 2.0 | 11.970 | 2 | 36.354 | 12.125 | 31.357 | 2 |
| 2025-05-10T15:48:00 | 54.680799 | 7.574130 | 2.0 | 12.046 | 2 | 36.521 | 12.154 | 31.493 | 2 |
| 2025-05-10T15:49:00 | 54.680750 | 7.573986 | 2.0 | 12.055 | 2 | 36.537 | 12.218 | 31.454 | 2 |
| 2025-05-10T15:50:00 | 54.680731 | 7.573767 | 2.0 | 12.058 | 2 | 36.448 | 12.226 | 31.362 | 2 |
| 2025-05-10T15:51:00 | 54.680681 | 7.573459 | 2.0 | 12.092 | 2 | 36.647 | 12.233 | 31.547 | 2 |
| 2025-05-10T15:52:00 | 54.680569 | 7.573211 | 2.0 | 12.078 | 2 | 36.536 | 12.257 | 31.420 | 2 |
| 2025-05-10T15:53:00 | 54.680445 | 7.573132 | 2.0 | 12.075 | 2 | 36.556 | 12.248 | 31.447 | 2 |
| 2025-05-10T15:54:00 | 54.680402 | 7.573687 | 2.0 | 12.068 | 2 | 36.638 | 12.244 | 31.529 | 2 |
| 2025-05-10T15:55:00 | 54.680534 | 7.575315 | 2.0 | 12.088 | 2 | 36.595 | 12.241 | 31.490 | 2 |
| 2025-05-10T15:56:00 | 54.680796 | 7.577824 | 2.0 | 12.043 | 2 | 36.632 | 12.250 | 31.518 | 2 |
| 2025-05-10T15:57:00 | 54.681138 | 7.581411 | 2.0 | 12.043 | 2 | 36.584 | 12.215 | 31.502 | 2 |
| 2025-05-10T15:58:00 | 54.681794 | 7.585558 | 2.0 | 12.084 | 2 | 36.642 | 12.218 | 31.555 | 2 |
| 2025-05-10T15:59:00 | 54.683277 | 7.589308 | 2.0 | 12.080 | 2 | 36.619 | 12.258 | 31.499 | 2 |
| 2025-05-10T16:00:00 | 54.684834 | 7.593174 | 2.0 | 12.082 | 2 | 36.660 | 12.250 | 31.545 | 2 |
| 2025-05-10T16:01:00 | 54.686418 | 7.597085 | 2.0 | 11.980 | 2 | 36.623 | 12.231 | 31.525 | 2 |
| 2025-05-10T16:02:00 | 54.688027 | 7.600977 | 2.0 | 11.921 | 2 | 36.521 | 12.154 | 31.493 | 2 |
| 2025-05-10T16:03:00 | 54.689604 | 7.604929 | 2.0 | 11.902 | 2 | 36.493 | 12.085 | 31.524 | 2 |
| 2025-05-10T16:04:00 | 54.691120 | 7.608906 | 2.0 | 11.845 | 2 | 36.488 | 12.076 | 31.527 | 2 |
| 2025-05-10T16:05:00 | 54.692488 | 7.613047 | 2.0 | 11.473 | 2 | 36.399 | 11.949 | 31.548 | 2 |
| 2025-05-10T16:06:00 | 54.693859 | 7.617210 | 2.0 | 11.458 | 2 | 36.252 | 11.728 | 31.594 | 2 |
| 2025-05-10T16:07:00 | 54.695210 | 7.621414 | 2.0 | 11.457 | 2 | 36.159 | 11.553 | 31.653 | 2 |
| 2025-05-10T16:08:00 | 54.696546 | 7.625630 | 2.0 | 11.775 | 2 | 36.224 | 11.726 | 31.569 | 2 |
| 2025-05-10T16:09:00 | 54.697906 | 7.629810 | 2.0 | 11.766 | 2 | 36.358 | 11.838 | 31.603 | 2 |
| 2025-05-10T16:10:00 | 54.699247 | 7.633989 | 2.0 | 11.808 | 2 | 36.322 | 11.860 | 31.550 | 2 |
| 2025-05-10T16:11:00 | 54.700596 | 7.638162 | 2.0 | 11.610 | 2 | 36.421 | 11.946 | 31.572 | 2 |
| 2025-05-10T16:12:00 | 54.701940 | 7.642344 | 2.0 | 11.731 | 2 | 36.321 | 11.804 | 31.596 | 2 |
| 2025-05-10T16:13:00 | 54.703281 | 7.646552 | 2.0 | 11.792 | 2 | 36.364 | 11.848 | 31.600 | 2 |
| 2025-05-10T16:14:00 | 54.704615 | 7.650763 | 2.0 | 11.557 | 2 | 36.399 | 11.935 | 31.560 | 2 |
| 2025-05-10T16:15:00 | 54.705959 | 7.654952 | 2.0 | 11.185 | 2 | 36.200 | 11.572 | 31.676 | 2 |
| 2025-05-10T16:16:00 | 54.707292 | 7.659147 | 2.0 | 12.031 | 2 | 36.153 | 11.605 | 31.603 | 2 |
| 2025-05-10T16:17:00 | 54.708647 | 7.663310 | 2.0 | 12.023 | 2 | 36.572 | 12.191 | 31.510 | 2 |
| 2025-05-10T16:18:00 | 54.710008 | 7.667470 | 2.0 | 12.015 | 2 | 36.543 | 12.122 | 31.541 | 2 |
| 2025-05-10T16:19:00 | 54.711322 | 7.671685 | 2.0 | 12.047 | 2 | 36.564 | 12.176 | 31.515 | 2 |
| 2025-05-10T16:20:00 | 54.712645 | 7.675893 | 2.0 | 12.117 | 2 | 36.616 | 12.236 | 31.515 | 2 |
| 2025-05-10T16:21:00 | 54.714002 | 7.680058 | 2.0 | 11.972 | 2 | 36.593 | 12.262 | 31.471 | 2 |
| 2025-05-10T16:22:00 | 54.715339 | 7.684246 | 2.0 | 11.449 | 2 | 36.382 | 12.056 | 31.442 | 2 |
| 2025-05-10T16:23:00 | 54.716663 | 7.688446 | 2.0 | 11.424 | 2 | 36.130 | 11.580 | 31.602 | 2 |
| 2025-05-10T16:24:00 | 54.718009 | 7.692607 | 2.0 | 12.226 | 2 | 36.107 | 11.667 | 31.505 | 2 |
| 2025-05-10T16:25:00 | 54.719335 | 7.696765 | 2.0 | 12.414 | 2 | 36.498 | 12.386 | 31.276 | 2 |
| 2025-05-10T16:26:00 | 54.720672 | 7.700941 | 2.0 | 12.324 | 2 | 36.650 | 12.505 | 31.322 | 2 |
| 2025-05-10T16:27:00 | 54.721984 | 7.705146 | 2.0 | 12.223 | 2 | 36.590 | 12.454 | 31.307 | 2 |
| 2025-05-10T16:28:00 | 54.723324 | 7.709338 | 2.0 | 12.269 | 2 | 36.530 | 12.353 | 31.334 | 2 |
| 2025-05-10T16:29:00 | 54.724653 | 7.713544 | 2.0 | 12.393 | 2 | 36.587 | 12.454 | 31.304 | 2 |
| 2025-05-10T16:30:00 | 54.725997 | 7.717727 | 2.0 | 12.410 | 2 | 36.666 | 12.555 | 31.295 | 2 |
| 2025-05-10T16:31:00 | 54.727363 | 7.721882 | 2.0 | 12.372 | 2 | 36.679 | 12.565 | 31.299 | 2 |
| 2025-05-10T16:32:00 | 54.728661 | 7.726114 | 2.0 | 12.212 | 2 | 36.605 | 12.461 | 31.316 | 2 |
| 2025-05-10T16:33:00 | 54.729975 | 7.730303 | 2.0 | 12.052 | 2 | 36.526 | 12.393 | 31.297 | 2 |
| 2025-05-10T16:34:00 | 54.731311 | 7.734475 | 2.0 | 12.115 | 2 | 36.495 | 12.244 | 31.392 | 2 |
| 2025-05-10T16:35:00 | 54.732674 | 7.738599 | 2.0 | 11.670 | 2 | 36.479 | 12.174 | 31.436 | 2 |
| 2025-05-10T16:36:00 | 54.733983 | 7.742785 | 2.0 | 12.048 | 2 | 36.229 | 11.911 | 31.417 | 2 |
| 2025-05-10T16:37:00 | 54.735332 | 7.746923 | 2.0 | 12.263 | 2 | 36.432 | 12.256 | 31.322 | 2 |
| 2025-05-10T16:38:00 | 54.736690 | 7.751050 | 2.0 | 12.249 | 2 | 36.530 | 12.408 | 31.288 | 2 |
| 2025-05-10T16:39:00 | 54.737997 | 7.755254 | 2.0 | 12.155 | 2 | 36.503 | 12.406 | 31.264 | 2 |
| 2025-05-10T16:40:00 | 54.739311 | 7.759459 | 2.0 | 12.054 | 2 | 36.399 | 12.310 | 31.245 | 2 |
| 2025-05-10T16:41:00 | 54.740639 | 7.763650 | 2.0 | 12.140 | 2 | 36.301 | 12.247 | 31.204 | 2 |
| 2025-05-10T16:42:00 | 54.741967 | 7.767852 | 2.0 | 12.153 | 2 | 36.351 | 12.312 | 31.198 | 2 |
| 2025-05-10T16:43:00 | 54.743328 | 7.772031 | 2.0 | 12.093 | 2 | 36.355 | 12.302 | 31.210 | 2 |
| 2025-05-10T16:44:00 | 54.744687 | 7.776198 | 2.0 | 12.055 | 2 | 36.301 | 12.246 | 31.205 | 2 |
| 2025-05-10T16:45:00 | 54.746001 | 7.780419 | 2.0 | 12.093 | 2 | 36.275 | 12.233 | 31.191 | 2 |
| 2025-05-10T16:46:00 | 54.747337 | 7.784609 | 2.0 | 12.098 | 2 | 36.301 | 12.257 | 31.196 | 2 |
| 2025-05-10T16:47:00 | 54.748673 | 7.788763 | 2.0 | 12.103 | 2 | 36.311 | 12.267 | 31.197 | 2 |
| 2025-05-10T16:48:00 | 54.750009 | 7.792903 | 2.0 | 12.115 | 2 | 36.320 | 12.273 | 31.201 | 2 |
| 2025-05-10T16:49:00 | 54.751326 | 7.797070 | 2.0 | 12.149 | 2 | 36.329 | 12.291 | 31.194 | 2 |
| 2025-05-10T16:50:00 | 54.752641 | 7.801220 | 2.0 | 12.164 | 2 | 36.362 | 12.318 | 31.203 | 2 |
| 2025-05-10T16:51:00 | 54.753951 | 7.805370 | 2.0 | 12.170 | 2 | 36.367 | 12.323 | 31.204 | 2 |
| 2025-05-10T16:52:00 | 54.755281 | 7.809501 | 2.0 | 12.137 | 2 | 36.372 | 12.334 | 31.200 | 2 |
| 2025-05-10T16:53:00 | 54.756320 | 7.813888 | 2.0 | 12.175 | 2 | 36.353 | 12.320 | 31.193 | 2 |
| 2025-05-10T16:54:00 | 54.757426 | 7.818202 | 2.0 | 12.230 | 2 | 36.349 | 12.347 | 31.167 | 2 |
| 2025-05-10T16:55:00 | 54.758813 | 7.822226 | 2.0 | 12.215 | 2 | 36.387 | 12.403 | 31.156 | 2 |
| 2025-05-10T16:56:00 | 54.760171 | 7.826309 | 2.0 | 12.156 | 2 | 36.345 | 12.368 | 31.146 | 2 |
| 2025-05-10T16:57:00 | 54.761519 | 7.830389 | 2.0 | 12.124 | 2 | 36.282 | 12.319 | 31.126 | 2 |
| 2025-05-10T16:58:00 | 54.762867 | 7.834466 | 2.0 | 12.074 | 2 | 36.249 | 12.283 | 31.125 | 2 |
| 2025-05-10T16:59:00 | 54.764219 | 7.838524 | 2.0 | 12.036 | 2 | 36.223 | 12.247 | 31.130 | 2 |
| 2025-05-10T17:00:00 | 54.765577 | 7.842567 | 2.0 | 12.036 | 2 | 36.197 | 12.213 | 31.133 | 2 |
| 2025-05-10T17:01:00 | 54.766943 | 7.846609 | 2.0 | 12.045 | 2 | 35.748 | 12.208 | 30.709 | 2 |
| 2025-05-10T17:02:00 | 54.768266 | 7.850666 | 2.0 | 12.114 | 2 | 35.688 | 12.222 | 30.640 | 2 |
| 2025-05-10T17:03:00 | 54.769613 | 7.854735 | 2.0 | 12.202 | 2 | 36.130 | 12.300 | 30.997 | 2 |
| 2025-05-10T17:04:00 | 54.770947 | 7.858800 | 2.0 | 12.157 | 2 | 35.921 | 12.363 | 30.746 | 2 |
| 2025-05-10T17:05:00 | 54.772269 | 7.862907 | 2.0 | 12.126 | 2 | 36.312 | 12.312 | 31.161 | 2 |
| 2025-05-10T17:06:00 | 54.773578 | 7.867039 | 2.0 | 12.141 | 2 | 36.295 | 12.299 | 31.155 | 2 |
| 2025-05-10T17:07:00 | 54.774891 | 7.871164 | 2.0 | 12.137 | 2 | 36.307 | 12.312 | 31.156 | 2 |
| 2025-05-10T17:08:00 | 54.776220 | 7.875280 | 2.0 | 12.072 | 2 | 36.108 | 12.297 | 30.979 | 2 |
| 2025-05-10T17:09:00 | 54.777543 | 7.879408 | 2.0 | 12.058 | 2 | 35.916 | 12.237 | 30.845 | 2 |
| 2025-05-10T17:10:00 | 54.778862 | 7.883541 | 2.0 | 12.080 | 2 | 36.076 | 12.240 | 30.995 | 2 |
| 2025-05-10T17:11:00 | 54.780047 | 7.887291 | 2.0 | 12.083 | 2 | 36.007 | 12.247 | 30.924 | 2 |
| 2025-05-10T17:12:00 | 54.780721 | 7.890337 | 2.0 | 12.091 | 2 | 36.217 | 12.248 | 31.123 | 2 |
| 2025-05-10T17:13:00 | 54.781011 | 7.893072 | 2.0 | 12.084 | 2 | 36.121 | 12.259 | 31.022 | 2 |
| 2025-05-10T17:14:00 | 54.781227 | 7.895612 | 2.0 | 12.091 | 2 | 35.860 | 12.251 | 30.780 | 2 |
| 2025-05-10T17:15:00 | 54.781600 | 7.897744 | 2.0 | 12.116 | 2 | 35.984 | 12.262 | 30.889 | 2 |
| 2025-05-10T17:16:00 | 54.781787 | 7.899611 | 2.0 | 12.089 | 2 | 36.203 | 12.276 | 31.087 | 2 |
| 2025-05-10T17:17:00 | 54.782078 | 7.900339 | 2.0 | 12.097 | 2 | 35.875 | 12.257 | 30.789 | 2 |
| 2025-05-10T17:18:00 | 54.782535 | 7.900429 | 2.0 | 12.096 | 2 | 36.045 | 12.261 | 30.948 | 2 |
| 2025-05-10T17:19:00 | 54.783044 | 7.900315 | 2.0 | 12.090 | 2 | 36.007 | 12.263 | 30.910 | 2 |
| 2025-05-10T17:20:00 | 54.783394 | 7.900179 | 2.0 | 12.080 | 2 | 36.029 | 12.254 | 30.939 | 2 |
| 2025-05-10T17:21:00 | 54.783630 | 7.900182 | 2.0 | 12.076 | 2 | 36.195 | 12.246 | 31.104 | 2 |
| 2025-05-10T17:22:00 | 54.783745 | 7.900193 | 2.0 | 12.092 | 2 | 36.170 | 12.245 | 31.081 | 2 |
| 2025-05-10T17:23:00 | 54.783731 | 7.900095 | 2.0 | 12.093 | 2 | 36.200 | 12.256 | 31.100 | 2 |
| 2025-05-10T17:24:00 | 54.783699 | 7.899919 | 2.0 | 12.089 | 2 | 36.219 | 12.258 | 31.117 | 2 |
| 2025-05-10T17:25:00 | 54.783667 | 7.899869 | 2.0 | 12.079 | 2 | 36.182 | 12.249 | 31.089 | 2 |
| 2025-05-10T17:26:00 | 54.783664 | 7.899887 | 2.0 | 12.087 | 2 | 36.198 | 12.246 | 31.107 | 2 |
| 2025-05-10T17:27:00 | 54.783691 | 7.899910 | 2.0 | 12.096 | 2 | 35.967 | 12.255 | 30.879 | 2 |
| 2025-05-10T17:28:00 | 54.783729 | 7.899886 | 2.0 | 12.093 | 2 | 36.118 | 12.260 | 31.019 | 2 |
| 2025-05-10T17:29:00 | 54.783794 | 7.899828 | 2.0 | 12.058 | 2 | 36.196 | 12.248 | 31.103 | 2 |
| 2025-05-10T17:30:00 | 54.783865 | 7.899765 | 2.0 | 12.079 | 2 | 36.049 | 12.235 | 30.974 | 2 |
| 2025-05-10T17:31:00 | 54.783935 | 7.899696 | 2.0 | 12.066 | 2 | 36.047 | 12.244 | 30.964 | 2 |
| 2025-05-10T17:32:00 | 54.784005 | 7.899632 | 2.0 | 12.076 | 2 | 36.013 | 12.233 | 30.941 | 2 |
| 2025-05-10T17:33:00 | 54.784028 | 7.899587 | 2.0 | 12.093 | 2 | 36.068 | 12.241 | 30.987 | 2 |
| 2025-05-10T17:34:00 | 54.784000 | 7.899556 | 2.0 | 12.104 | 2 | 36.019 | 12.255 | 30.928 | 2 |
| 2025-05-10T17:35:00 | 54.783925 | 7.899534 | 2.0 | 12.087 | 2 | 36.071 | 12.267 | 30.968 | 2 |
| 2025-05-10T17:36:00 | 54.783819 | 7.899455 | 2.0 | 12.081 | 2 | 36.126 | 12.248 | 31.036 | 2 |
| 2025-05-10T17:37:00 | 54.783731 | 7.899427 | 2.0 | 12.060 | 2 | 36.111 | 12.242 | 31.027 | 2 |
| 2025-05-10T17:38:00 | 54.783641 | 7.899467 | 2.0 | 12.086 | 2 | 36.066 | 12.227 | 30.996 | 2 |
| 2025-05-10T17:39:00 | 54.783556 | 7.899525 | 2.0 | 12.087 | 2 | 36.105 | 12.251 | 31.014 | 2 |
| 2025-05-10T17:40:00 | 54.783474 | 7.899583 | 2.0 | 12.090 | 2 | 36.113 | 12.253 | 31.020 | 2 |
| 2025-05-10T17:41:00 | 54.783400 | 7.899637 | 2.0 | 12.093 | 2 | 36.058 | 12.256 | 30.965 | 2 |
| 2025-05-10T17:42:00 | 54.783318 | 7.899696 | 2.0 | 12.093 | 2 | 36.075 | 12.258 | 30.979 | 2 |
| 2025-05-10T17:43:00 | 54.783239 | 7.899744 | 2.0 | 12.101 | 2 | 36.093 | 12.262 | 30.993 | 2 |
| 2025-05-10T17:44:00 | 54.783164 | 7.899787 | 2.0 | 12.071 | 2 | 36.113 | 12.266 | 31.009 | 2 |
| 2025-05-10T17:45:00 | 54.783087 | 7.899830 | 2.0 | 12.069 | 2 | 36.092 | 12.236 | 31.014 | 2 |
| 2025-05-10T17:46:00 | 54.783014 | 7.899872 | 2.0 | 12.078 | 2 | 36.091 | 12.233 | 31.015 | 2 |
| 2025-05-10T17:47:00 | 54.782956 | 7.899910 | 2.0 | 12.063 | 2 | 36.101 | 12.241 | 31.018 | 2 |
| 2025-05-10T17:48:00 | 54.782905 | 7.899952 | 2.0 | 12.058 | 2 | 36.138 | 12.228 | 31.064 | 2 |
| 2025-05-10T17:49:00 | 54.782865 | 7.899987 | 2.0 | 12.045 | 2 | 36.136 | 12.218 | 31.071 | 2 |
| 2025-05-10T17:50:00 | 54.782820 | 7.900029 | 2.0 | 12.059 | 2 | 36.086 | 12.214 | 31.026 | 2 |
| 2025-05-10T17:51:00 | 54.782777 | 7.900064 | 2.0 | 12.043 | 2 | 36.145 | 12.224 | 31.074 | 2 |
| 2025-05-10T17:52:00 | 54.782730 | 7.900105 | 2.0 | 12.027 | 2 | 36.129 | 12.204 | 31.076 | 2 |
| 2025-05-10T17:53:00 | 54.782670 | 7.900145 | 2.0 | 12.046 | 2 | 36.104 | 12.198 | 31.057 | 2 |
| 2025-05-10T17:54:00 | 54.782606 | 7.900187 | 2.0 | 12.040 | 2 | 36.147 | 12.206 | 31.091 | 2 |
| 2025-05-10T17:55:00 | 54.782542 | 7.900225 | 2.0 | 12.044 | 2 | 36.159 | 12.206 | 31.103 | 2 |
| 2025-05-10T17:56:00 | 54.782480 | 7.900266 | 2.0 | 12.050 | 2 | 36.155 | 12.217 | 31.090 | 2 |
| 2025-05-10T17:57:00 | 54.782407 | 7.900307 | 2.0 | 12.057 | 2 | 36.168 | 12.217 | 31.102 | 2 |
| 2025-05-10T17:58:00 | 54.782335 | 7.900349 | 2.0 | 12.061 | 2 | 36.183 | 12.220 | 31.114 | 2 |
| 2025-05-10T17:59:00 | 54.782269 | 7.900397 | 2.0 | 12.059 | 2 | 36.159 | 12.226 | 31.086 | 2 |
| 2025-05-10T18:00:00 | 54.782516 | 7.900444 | 2.0 | 12.032 | 2 | 36.181 | 12.221 | 31.111 | 2 |
| 2025-05-10T18:01:00 | 54.783377 | 7.900595 | 2.0 | 12.030 | 2 | 36.174 | 12.198 | 31.124 | 2 |
| 2025-05-10T18:02:00 | 54.784921 | 7.900720 | 2.0 | 12.049 | 2 | 36.183 | 12.202 | 31.129 | 2 |
| 2025-05-10T18:03:00 | 54.786975 | 7.900648 | 2.0 | 12.159 | 2 | 36.188 | 12.223 | 31.116 | 2 |
| 2025-05-10T18:04:00 | 54.789232 | 7.900273 | 2.0 | 12.183 | 2 | 36.265 | 12.325 | 31.105 | 2 |
| 2025-05-10T18:05:00 | 54.791586 | 7.900041 | 2.0 | 12.178 | 2 | 36.293 | 12.340 | 31.119 | 2 |
| 2025-05-10T18:06:00 | 54.794111 | 7.900159 | 2.0 | 12.091 | 2 | 36.305 | 12.352 | 31.121 | 2 |
| 2025-05-10T18:07:00 | 54.796715 | 7.900193 | 2.0 | 12.191 | 2 | 36.221 | 12.261 | 31.116 | 2 |
| 2025-05-10T18:08:00 | 54.799389 | 7.900151 | 2.0 | 12.243 | 2 | 36.242 | 12.354 | 31.059 | 2 |
| 2025-05-10T18:09:00 | 54.802144 | 7.900133 | 2.0 | 12.232 | 2 | 36.274 | 12.388 | 31.061 | 2 |
| 2025-05-10T18:10:00 | 54.804917 | 7.900108 | 2.0 | 12.293 | 2 | 36.276 | 12.415 | 31.041 | 2 |
| 2025-05-10T18:11:00 | 54.807645 | 7.900067 | 2.0 | 12.256 | 2 | 36.292 | 12.447 | 31.030 | 2 |
| 2025-05-10T18:12:00 | 54.810328 | 7.900010 | 2.0 | 12.215 | 2 | 36.265 | 12.419 | 31.027 | 2 |
| 2025-05-10T18:13:00 | 54.813007 | 7.899999 | 2.0 | 12.228 | 2 | 36.234 | 12.391 | 31.021 | 2 |
| 2025-05-10T18:14:00 | 54.815692 | 7.899990 | 2.0 | 12.171 | 2 | 36.223 | 12.384 | 31.016 | 2 |
| 2025-05-10T18:15:00 | 54.818380 | 7.900001 | 2.0 | 12.235 | 2 | 36.192 | 12.345 | 31.019 | 2 |
| 2025-05-10T18:16:00 | 54.821071 | 7.899983 | 2.0 | 12.364 | 2 | 36.222 | 12.430 | 30.977 | 2 |
| 2025-05-10T18:17:00 | 54.823760 | 7.899996 | 2.0 | 12.415 | 2 | 36.297 | 12.528 | 30.968 | 2 |
| 2025-05-10T18:18:00 | 54.826443 | 7.899988 | 2.0 | 12.409 | 2 | 36.369 | 12.578 | 30.995 | 2 |
| 2025-05-10T18:19:00 | 54.829122 | 7.899985 | 2.0 | 12.375 | 2 | 36.373 | 12.563 | 31.011 | 2 |
| 2025-05-10T18:20:00 | 54.831815 | 7.900012 | 2.0 | 12.427 | 2 | 36.368 | 12.553 | 31.014 | 2 |
| 2025-05-10T18:21:00 | 54.834512 | 7.899978 | 2.0 | 12.478 | 2 | 36.399 | 12.600 | 31.005 | 2 |
| 2025-05-10T18:22:00 | 54.837211 | 7.899988 | 2.0 | 12.490 | 2 | 36.436 | 12.640 | 31.007 | 2 |
| 2025-05-10T18:23:00 | 54.839911 | 7.899978 | 2.0 | 12.486 | 2 | 36.445 | 12.649 | 31.008 | 2 |
| 2025-05-10T18:24:00 | 54.842605 | 7.899953 | 2.0 | 12.546 | 2 | 36.459 | 12.668 | 31.006 | 2 |
| 2025-05-10T18:25:00 | 54.845288 | 7.899972 | 2.0 | 12.557 | 2 | 36.490 | 12.708 | 31.002 | 2 |
| 2025-05-10T18:26:00 | 54.847970 | 7.900005 | 2.0 | 12.626 | 2 | 36.513 | 12.732 | 31.004 | 2 |
| 2025-05-10T18:27:00 | 54.850658 | 7.900035 | 2.0 | 12.629 | 2 | 36.552 | 12.786 | 30.997 | 2 |
| 2025-05-10T18:28:00 | 54.853353 | 7.900056 | 2.0 | 12.611 | 2 | 36.549 | 12.792 | 30.989 | 2 |
| 2025-05-10T18:29:00 | 54.856043 | 7.900030 | 2.0 | 12.608 | 2 | 36.524 | 12.774 | 30.980 | 2 |
| 2025-05-10T18:30:00 | 54.858743 | 7.899997 | 2.0 | 12.598 | 2 | 36.529 | 12.776 | 30.983 | 2 |
| 2025-05-10T18:31:00 | 54.861444 | 7.900036 | 2.0 | 12.561 | 2 | 36.511 | 12.757 | 30.982 | 2 |
| 2025-05-10T18:32:00 | 54.864144 | 7.900052 | 2.0 | 12.564 | 2 | 36.482 | 12.725 | 30.981 | 2 |
| 2025-05-10T18:33:00 | 54.866839 | 7.900055 | 2.0 | 12.556 | 2 | 36.493 | 12.739 | 30.980 | 2 |
| 2025-05-10T18:34:00 | 54.869528 | 7.900060 | 2.0 | 12.516 | 2 | 36.469 | 12.717 | 30.975 | 2 |
| 2025-05-10T18:35:00 | 54.872230 | 7.900052 | 2.0 | 12.498 | 2 | 36.431 | 12.684 | 30.966 | 2 |
| 2025-05-10T18:36:00 | 54.874933 | 7.900024 | 2.0 | 12.500 | 2 | 36.409 | 12.663 | 30.963 | 2 |
| 2025-05-10T18:37:00 | 54.877635 | 7.900037 | 2.0 | 12.521 | 2 | 36.423 | 12.674 | 30.967 | 2 |
| 2025-05-10T18:38:00 | 54.880343 | 7.900078 | 2.0 | 12.496 | 2 | 36.435 | 12.680 | 30.973 | 2 |
| 2025-05-10T18:39:00 | 54.883054 | 7.900066 | 2.0 | 12.456 | 2 | 36.412 | 12.654 | 30.973 | 2 |
| 2025-05-10T18:40:00 | 54.885763 | 7.900052 | 2.0 | 12.486 | 2 | 36.392 | 12.633 | 30.971 | 2 |
| 2025-05-10T18:41:00 | 54.888467 | 7.900021 | 2.0 | 12.447 | 2 | 36.397 | 12.647 | 30.965 | 2 |
| 2025-05-10T18:42:00 | 54.891168 | 7.900014 | 2.0 | 12.385 | 2 | 36.352 | 12.607 | 30.955 | 2 |
| 2025-05-10T18:43:00 | 54.893872 | 7.900049 | 2.0 | 12.309 | 2 | 36.294 | 12.544 | 30.952 | 2 |
| 2025-05-10T18:44:00 | 54.896580 | 7.900032 | 2.0 | 12.272 | 2 | 36.219 | 12.473 | 30.939 | 2 |
| 2025-05-10T18:45:00 | 54.899289 | 7.900024 | 2.0 | 12.252 | 2 | 36.216 | 12.441 | 30.963 | 2 |
| 2025-05-10T18:46:00 | 54.901994 | 7.900059 | 2.0 | 12.254 | 2 | 36.213 | 12.416 | 30.980 | 2 |
| 2025-05-10T18:47:00 | 54.904692 | 7.900007 | 2.0 | 12.365 | 2 | 36.249 | 12.458 | 30.980 | 2 |
| 2025-05-10T18:48:00 | 54.907388 | 7.900000 | 2.0 | 12.299 | 2 | 36.327 | 12.517 | 31.005 | 2 |
| 2025-05-10T18:49:00 | 54.910089 | 7.900014 | 2.0 | 12.257 | 2 | 36.287 | 12.461 | 31.013 | 2 |
| 2025-05-10T18:50:00 | 54.912788 | 7.899982 | 2.0 | 12.229 | 2 | 36.239 | 12.424 | 30.998 | 2 |
| 2025-05-10T18:51:00 | 54.915479 | 7.899997 | 2.0 | 12.195 | 2 | 36.217 | 12.392 | 31.004 | 2 |
| 2025-05-10T18:52:00 | 54.918162 | 7.899998 | 2.0 | 12.153 | 2 | 36.192 | 12.359 | 31.007 | 2 |
| 2025-05-10T18:53:00 | 54.920861 | 7.899987 | 2.0 | 12.087 | 2 | 36.162 | 12.313 | 31.017 | 2 |
| 2025-05-10T18:54:00 | 54.923567 | 7.899991 | 2.0 | 12.105 | 2 | 36.127 | 12.262 | 31.026 | 2 |
| 2025-05-10T18:55:00 | 54.926280 | 7.900017 | 2.0 | 12.153 | 2 | 36.137 | 12.284 | 31.017 | 2 |
| 2025-05-10T18:56:00 | 54.928985 | 7.899971 | 2.0 | 12.201 | 2 | 36.161 | 12.325 | 31.006 | 2 |
| 2025-05-10T18:57:00 | 54.931697 | 7.899997 | 2.0 | 12.217 | 2 | 36.178 | 12.375 | 30.981 | 2 |
| 2025-05-10T18:58:00 | 54.934409 | 7.900009 | 2.0 | 12.211 | 2 | 36.163 | 12.383 | 30.960 | 2 |
| 2025-05-10T18:59:00 | 54.937111 | 7.900042 | 2.0 | 12.181 | 2 | 36.115 | 12.372 | 30.923 | 2 |
| 2025-05-10T19:00:00 | 54.939804 | 7.900031 | 2.0 | 12.154 | 2 | 36.055 | 12.347 | 30.887 | 2 |
| 2025-05-10T19:01:00 | 54.942503 | 7.900009 | 2.0 | 12.124 | 2 | 36.007 | 12.319 | 30.864 | 2 |
| 2025-05-10T19:02:00 | 54.945216 | 7.900043 | 2.0 | 12.102 | 2 | 35.971 | 12.292 | 30.852 | 2 |
| 2025-05-10T19:03:00 | 54.947924 | 7.900074 | 2.0 | 12.073 | 2 | 35.946 | 12.267 | 30.849 | 2 |
| 2025-05-10T19:04:00 | 54.950633 | 7.900014 | 2.0 | 12.059 | 2 | 35.930 | 12.243 | 30.853 | 2 |
| 2025-05-10T19:05:00 | 54.953146 | 7.900025 | 2.0 | 12.166 | 2 | 35.963 | 12.265 | 30.867 | 2 |
| 2025-05-10T19:06:00 | 54.954937 | 7.899965 | 2.0 | 12.133 | 2 | 36.022 | 12.317 | 30.880 | 2 |
| 2025-05-10T19:07:00 | 54.956234 | 7.899848 | 2.0 | 12.139 | 2 | 36.011 | 12.298 | 30.885 | 2 |
| 2025-05-10T19:08:00 | 54.957166 | 7.899652 | 2.0 | 12.164 | 2 | 36.034 | 12.311 | 30.896 | 2 |
| 2025-05-10T19:09:00 | 54.957875 | 7.899625 | 2.0 | 12.153 | 2 | 36.056 | 12.327 | 30.904 | 2 |
| 2025-05-10T19:10:00 | 54.958391 | 7.899585 | 2.0 | 12.148 | 2 | 36.049 | 12.317 | 30.906 | 2 |
| 2025-05-10T19:11:00 | 54.958781 | 7.899477 | 2.0 | 12.143 | 2 | 36.046 | 12.312 | 30.907 | 2 |
| 2025-05-10T19:12:00 | 54.959090 | 7.899623 | 2.0 | 12.143 | 2 | 36.025 | 12.308 | 30.890 | 2 |
| 2025-05-10T19:13:00 | 54.959285 | 7.899730 | 2.0 | 12.144 | 2 | 36.051 | 12.309 | 30.914 | 2 |
| 2025-05-10T19:14:00 | 54.959342 | 7.899640 | 2.0 | 12.142 | 2 | 36.042 | 12.308 | 30.907 | 2 |
| 2025-05-10T19:15:00 | 54.959378 | 7.899493 | 2.0 | 12.141 | 2 | 36.040 | 12.306 | 30.906 | 2 |
| 2025-05-10T19:16:00 | 54.959368 | 7.899358 | 2.0 | 12.142 | 2 | 36.054 | 12.306 | 30.920 | 2 |
| 2025-05-10T19:17:00 | 54.959339 | 7.899232 | 2.0 | 12.141 | 2 | 36.058 | 12.308 | 30.922 | 2 |
| 2025-05-10T19:18:00 | 54.959300 | 7.899115 | 2.0 | 12.138 | 2 | 36.057 | 12.304 | 30.924 | 2 |
| 2025-05-10T19:19:00 | 54.959228 | 7.899017 | 2.0 | 12.135 | 2 | 36.056 | 12.302 | 30.925 | 2 |
| 2025-05-10T19:20:00 | 54.959157 | 7.898919 | 2.0 | 12.128 | 2 | 36.055 | 12.298 | 30.927 | 2 |
| 2025-05-10T19:21:00 | 54.959076 | 7.898829 | 2.0 | 12.121 | 2 | 36.048 | 12.290 | 30.927 | 2 |
| 2025-05-10T19:22:00 | 54.958981 | 7.898734 | 2.0 | 12.119 | 2 | 36.046 | 12.287 | 30.928 | 2 |
| 2025-05-10T19:23:00 | 54.958886 | 7.898648 | 2.0 | 12.114 | 2 | 36.043 | 12.282 | 30.929 | 2 |
| 2025-05-10T19:24:00 | 54.958779 | 7.898570 | 2.0 | 12.107 | 2 | 36.040 | 12.277 | 30.930 | 2 |
| 2025-05-10T19:25:00 | 54.958670 | 7.898491 | 2.0 | 12.107 | 2 | 36.037 | 12.273 | 30.931 | 2 |
| 2025-05-10T19:26:00 | 54.958546 | 7.898416 | 2.0 | 12.102 | 2 | 36.037 | 12.271 | 30.932 | 2 |
| 2025-05-10T19:27:00 | 54.958430 | 7.898344 | 2.0 | 12.100 | 2 | 36.034 | 12.267 | 30.933 | 2 |
| 2025-05-10T19:28:00 | 54.958317 | 7.898263 | 2.0 | 12.096 | 2 | 36.033 | 12.264 | 30.934 | 2 |
| 2025-05-10T19:29:00 | 54.958182 | 7.898184 | 2.0 | 12.096 | 2 | 36.032 | 12.261 | 30.936 | 2 |
| 2025-05-10T19:30:00 | 54.958050 | 7.898108 | 2.0 | 12.094 | 2 | 36.032 | 12.261 | 30.936 | 2 |
| 2025-05-10T19:31:00 | 54.957902 | 7.898035 | 2.0 | 12.094 | 2 | 36.031 | 12.259 | 30.937 | 2 |
| 2025-05-10T19:32:00 | 54.957741 | 7.897969 | 2.0 | 12.090 | 2 | 36.032 | 12.258 | 30.938 | 2 |
| 2025-05-10T19:33:00 | 54.957588 | 7.897914 | 2.0 | 12.091 | 2 | 36.032 | 12.256 | 30.940 | 2 |
| 2025-05-10T19:34:00 | 54.957433 | 7.897863 | 2.0 | 12.092 | 2 | 36.033 | 12.257 | 30.940 | 2 |
| 2025-05-10T19:35:00 | 54.957257 | 7.897815 | 2.0 | 12.090 | 2 | 36.034 | 12.258 | 30.940 | 2 |
| 2025-05-10T19:36:00 | 54.957076 | 7.897767 | 2.0 | 12.086 | 2 | 36.029 | 12.255 | 30.938 | 2 |
| 2025-05-10T19:37:00 | 54.956887 | 7.897721 | 2.0 | 12.084 | 2 | 36.020 | 12.251 | 30.933 | 2 |
| 2025-05-10T19:38:00 | 54.956686 | 7.897682 | 2.0 | 12.081 | 2 | 36.027 | 12.250 | 30.940 | 2 |
| 2025-05-10T19:39:00 | 54.956468 | 7.897659 | 2.0 | 12.074 | 2 | 36.027 | 12.246 | 30.943 | 2 |
| 2025-05-10T19:40:00 | 54.956225 | 7.897650 | 2.0 | 12.069 | 2 | 36.021 | 12.239 | 30.944 | 2 |
| 2025-05-10T19:41:00 | 54.955965 | 7.897660 | 2.0 | 12.066 | 2 | 36.016 | 12.234 | 30.943 | 2 |
| 2025-05-10T19:42:00 | 54.955690 | 7.897687 | 2.0 | 12.062 | 2 | 36.013 | 12.231 | 30.942 | 2 |
| 2025-05-10T19:43:00 | 54.955405 | 7.897695 | 2.0 | 12.059 | 2 | 36.009 | 12.229 | 30.940 | 2 |
| 2025-05-10T19:44:00 | 54.955137 | 7.897636 | 2.0 | 12.060 | 2 | 36.008 | 12.225 | 30.943 | 2 |
| 2025-05-10T19:45:00 | 54.954909 | 7.897525 | 2.0 | 12.056 | 2 | 36.008 | 12.224 | 30.943 | 2 |
| 2025-05-10T19:46:00 | 54.954730 | 7.897363 | 2.0 | 12.052 | 2 | 36.008 | 12.221 | 30.946 | 2 |
| 2025-05-10T19:47:00 | 54.954609 | 7.897147 | 2.0 | 12.033 | 2 | 36.004 | 12.214 | 30.948 | 2 |
| 2025-05-10T19:48:00 | 54.954547 | 7.896879 | 2.0 | 12.037 | 2 | 35.991 | 12.200 | 30.947 | 2 |
| 2025-05-10T19:49:00 | 54.954509 | 7.896595 | 2.0 | 12.044 | 2 | 35.993 | 12.206 | 30.944 | 2 |
| 2025-05-10T19:50:00 | 54.954470 | 7.896306 | 2.0 | 12.040 | 2 | 35.999 | 12.209 | 30.947 | 2 |
| 2025-05-10T19:51:00 | 54.954432 | 7.896020 | 2.0 | 12.040 | 2 | 36.000 | 12.207 | 30.950 | 2 |
| 2025-05-10T19:52:00 | 54.954395 | 7.895737 | 2.0 | 12.034 | 2 | 36.001 | 12.205 | 30.953 | 2 |
| 2025-05-10T19:53:00 | 54.954357 | 7.895448 | 2.0 | 12.026 | 2 | 35.998 | 12.198 | 30.955 | 2 |
| 2025-05-10T19:54:00 | 54.954316 | 7.895167 | 2.0 | 12.023 | 2 | 35.996 | 12.194 | 30.957 | 2 |
| 2025-05-10T19:55:00 | 54.954256 | 7.894904 | 2.0 | 12.010 | 2 | 35.993 | 12.184 | 30.962 | 2 |
| 2025-05-10T19:56:00 | 54.954191 | 7.894642 | 2.0 | 12.009 | 2 | 35.990 | 12.177 | 30.965 | 2 |
| 2025-05-10T19:57:00 | 54.954134 | 7.894381 | 2.0 | 11.997 | 2 | 35.991 | 12.174 | 30.969 | 2 |
| 2025-05-10T19:58:00 | 54.954090 | 7.894117 | 2.0 | 11.992 | 2 | 35.985 | 12.162 | 30.973 | 2 |
| 2025-05-10T19:59:00 | 54.954048 | 7.893840 | 2.0 | 11.986 | 2 | 35.985 | 12.157 | 30.977 | 2 |
| 2025-05-10T20:00:00 | 54.954016 | 7.893566 | 2.0 | 11.988 | 2 | 35.980 | 12.153 | 30.975 | 2 |
| 2025-05-10T20:01:00 | 54.953987 | 7.893286 | 2.0 | 11.977 | 2 | 35.980 | 12.154 | 30.975 | 2 |
| 2025-05-10T20:02:00 | 54.953967 | 7.892986 | 2.0 | 11.960 | 2 | 35.968 | 12.140 | 30.975 | 2 |
| 2025-05-10T20:03:00 | 54.953949 | 7.892691 | 2.0 | 11.941 | 2 | 35.953 | 12.124 | 30.974 | 2 |
| 2025-05-10T20:04:00 | 54.953937 | 7.892395 | 2.0 | 11.944 | 2 | 35.928 | 12.107 | 30.964 | 2 |
| 2025-05-10T20:05:00 | 54.953924 | 7.892092 | 2.0 | 11.951 | 2 | 35.929 | 12.113 | 30.960 | 2 |
| 2025-05-10T20:06:00 | 54.953915 | 7.891780 | 2.0 | 11.958 | 2 | 35.934 | 12.118 | 30.960 | 2 |
| 2025-05-10T20:07:00 | 54.953905 | 7.891463 | 2.0 | 11.959 | 2 | 35.948 | 12.123 | 30.970 | 2 |
| 2025-05-10T20:08:00 | 54.953884 | 7.891215 | 2.0 | 11.952 | 2 | 35.959 | 12.126 | 30.978 | 2 |
| 2025-05-10T20:09:00 | 54.953879 | 7.891150 | 2.0 | 11.950 | 2 | 35.955 | 12.117 | 30.981 | 2 |
| 2025-05-10T20:10:00 | 54.953893 | 7.891225 | 2.0 | 11.949 | 2 | 35.951 | 12.117 | 30.978 | 2 |
| 2025-05-10T20:11:00 | 54.953931 | 7.891354 | 2.0 | 11.946 | 2 | 35.947 | 12.115 | 30.975 | 2 |
| 2025-05-10T20:12:00 | 54.953979 | 7.891498 | 2.0 | 11.949 | 2 | 35.946 | 12.112 | 30.977 | 2 |
| 2025-05-10T20:13:00 | 54.954043 | 7.891655 | 2.0 | 11.942 | 2 | 35.947 | 12.112 | 30.978 | 2 |
| 2025-05-10T20:14:00 | 54.954111 | 7.891796 | 2.0 | 11.947 | 2 | 35.946 | 12.110 | 30.979 | 2 |
| 2025-05-10T20:15:00 | 54.954170 | 7.891863 | 2.0 | 11.948 | 2 | 35.950 | 12.112 | 30.981 | 2 |
| 2025-05-10T20:16:00 | 54.954230 | 7.891870 | 2.0 | 11.974 | 2 | 35.956 | 12.115 | 30.984 | 2 |
| 2025-05-10T20:17:00 | 54.954304 | 7.891917 | 2.0 | 11.978 | 2 | 35.997 | 12.144 | 30.999 | 2 |
| 2025-05-10T20:18:00 | 54.954380 | 7.891914 | 2.0 | 11.976 | 2 | 36.000 | 12.142 | 31.004 | 2 |
| 2025-05-10T20:19:00 | 54.954447 | 7.891900 | 2.0 | 11.975 | 2 | 36.009 | 12.144 | 31.011 | 2 |
| 2025-05-10T20:20:00 | 54.954511 | 7.891914 | 2.0 | 11.956 | 2 | 36.004 | 12.135 | 31.013 | 2 |
| 2025-05-10T20:21:00 | 54.954568 | 7.891885 | 2.0 | 11.941 | 2 | 35.997 | 12.120 | 31.019 | 2 |
| 2025-05-10T20:22:00 | 54.954625 | 7.891896 | 2.0 | 11.926 | 2 | 35.977 | 12.104 | 31.013 | 2 |
| 2025-05-10T20:23:00 | 54.954684 | 7.891887 | 2.0 | 11.911 | 2 | 35.953 | 12.090 | 31.002 | 2 |
| 2025-05-10T20:24:00 | 54.954742 | 7.891863 | 2.0 | 11.903 | 2 | 35.949 | 12.077 | 31.009 | 2 |
| 2025-05-10T20:25:00 | 54.954809 | 7.891847 | 2.0 | 11.911 | 2 | 35.957 | 12.070 | 31.022 | 2 |
| 2025-05-10T20:26:00 | 54.954878 | 7.891811 | 2.0 | 11.898 | 2 | 35.980 | 12.078 | 31.038 | 2 |
| 2025-05-10T20:27:00 | 54.954946 | 7.891794 | 2.0 | 11.908 | 2 | 35.981 | 12.065 | 31.049 | 2 |
| 2025-05-10T20:28:00 | 54.955007 | 7.891757 | 2.0 | 11.910 | 2 | 35.989 | 12.074 | 31.050 | 2 |
| 2025-05-10T20:29:00 | 54.955066 | 7.891741 | 2.0 | 11.911 | 2 | 35.993 | 12.073 | 31.054 | 2 |
| 2025-05-10T20:30:00 | 54.955136 | 7.891720 | 2.0 | 11.929 | 2 | 35.995 | 12.083 | 31.048 | 2 |
| 2025-05-10T20:31:00 | 54.955216 | 7.891678 | 2.0 | 11.931 | 2 | 36.002 | 12.093 | 31.046 | 2 |
| 2025-05-10T20:32:00 | 54.955305 | 7.891648 | 2.0 | 11.929 | 2 | 36.005 | 12.095 | 31.047 | 2 |
| 2025-05-10T20:33:00 | 54.955407 | 7.891593 | 2.0 | 11.946 | 2 | 35.947 | 12.098 | 30.989 | 2 |
| 2025-05-10T20:34:00 | 54.955519 | 7.891537 | 2.0 | 11.940 | 2 | 35.946 | 12.109 | 30.979 | 2 |
| 2025-05-10T20:35:00 | 54.955631 | 7.891470 | 2.0 | 11.945 | 2 | 35.922 | 12.106 | 30.959 | 2 |
| 2025-05-10T20:36:00 | 54.955745 | 7.891418 | 2.0 | 11.933 | 2 | 35.965 | 12.109 | 30.998 | 2 |
| 2025-05-10T20:37:00 | 54.955872 | 7.891353 | 2.0 | 11.926 | 2 | 35.945 | 12.098 | 30.988 | 2 |
| 2025-05-10T20:38:00 | 54.956005 | 7.891286 | 2.0 | 11.914 | 2 | 35.944 | 12.089 | 30.994 | 2 |
| 2025-05-10T20:39:00 | 54.956142 | 7.891217 | 2.0 | 11.904 | 2 | 35.950 | 12.078 | 31.009 | 2 |
| 2025-05-10T20:40:00 | 54.956284 | 7.891146 | 2.0 | 11.887 | 2 | 35.899 | 12.067 | 30.969 | 2 |
| 2025-05-10T20:41:00 | 54.956417 | 7.891052 | 2.0 | 11.881 | 2 | 35.935 | 12.052 | 31.016 | 2 |
| 2025-05-10T20:42:00 | 54.956556 | 7.890959 | 2.0 | 11.863 | 2 | 35.915 | 12.045 | 31.003 | 2 |
| 2025-05-10T20:43:00 | 54.956701 | 7.890868 | 2.0 | 11.854 | 2 | 35.915 | 12.030 | 31.015 | 2 |
| 2025-05-10T20:44:00 | 54.956852 | 7.890759 | 2.0 | 11.841 | 2 | 35.885 | 12.018 | 30.996 | 2 |
| 2025-05-10T20:45:00 | 54.957002 | 7.890661 | 2.0 | 11.833 | 2 | 35.822 | 12.004 | 30.948 | 2 |
| 2025-05-10T20:46:00 | 54.957156 | 7.890544 | 2.0 | 11.817 | 2 | 35.774 | 11.996 | 30.908 | 2 |
| 2025-05-10T20:47:00 | 54.957319 | 7.890444 | 2.0 | 11.805 | 2 | 35.891 | 11.984 | 31.030 | 2 |
| 2025-05-10T20:48:00 | 54.957475 | 7.890338 | 2.0 | 11.781 | 2 | 35.874 | 11.968 | 31.027 | 2 |
| 2025-05-10T20:49:00 | 54.957624 | 7.890241 | 2.0 | 11.768 | 2 | 35.854 | 11.947 | 31.026 | 2 |
| 2025-05-10T20:50:00 | 54.957776 | 7.890134 | 2.0 | 11.754 | 2 | 35.844 | 11.931 | 31.029 | 2 |
| 2025-05-10T20:51:00 | 54.957925 | 7.890035 | 2.0 | 11.756 | 2 | 35.848 | 11.927 | 31.037 | 2 |
| 2025-05-10T20:52:00 | 54.958071 | 7.889935 | 2.0 | 11.726 | 2 | 35.847 | 11.917 | 31.044 | 2 |
| 2025-05-10T20:53:00 | 54.958222 | 7.889836 | 2.0 | 11.684 | 2 | 35.824 | 11.892 | 31.043 | 2 |
| 2025-05-10T20:54:00 | 54.958377 | 7.889736 | 2.0 | 11.689 | 2 | 35.788 | 11.856 | 31.038 | 2 |
| 2025-05-10T20:55:00 | 54.958542 | 7.889628 | 2.0 | 11.690 | 2 | 35.226 | 11.849 | 30.503 | 2 |
| 2025-05-10T20:56:00 | 54.958712 | 7.889534 | 2.0 | 11.695 | 2 | 35.183 | 11.868 | 30.446 | 2 |
| 2025-05-10T20:57:00 | 54.958870 | 7.889427 | 2.0 | 11.710 | 2 | 35.833 | 11.869 | 31.070 | 2 |
| 2025-05-10T20:58:00 | 54.959002 | 7.889344 | 2.0 | 11.685 | 2 | 35.842 | 11.866 | 31.082 | 2 |
| 2025-05-10T20:59:00 | 54.959133 | 7.889248 | 2.0 | 11.681 | 2 | 35.557 | 11.854 | 30.817 | 2 |
| 2025-05-10T21:00:00 | 54.959258 | 7.889169 | 2.0 | 11.688 | 2 | 35.840 | 11.851 | 31.092 | 2 |
| 2025-05-10T21:01:00 | 54.959395 | 7.889084 | 2.0 | 11.692 | 2 | 35.844 | 11.855 | 31.093 | 2 |
| 2025-05-10T21:02:00 | 54.959541 | 7.888990 | 2.0 | 11.677 | 2 | 35.399 | 11.856 | 30.664 | 2 |
| 2025-05-10T21:03:00 | 54.959702 | 7.888897 | 2.0 | 11.663 | 2 | 35.832 | 11.842 | 31.092 | 2 |
| 2025-05-10T21:04:00 | 54.959878 | 7.888784 | 2.0 | 11.664 | 2 | 35.173 | 11.832 | 30.466 | 2 |
| 2025-05-10T21:05:00 | 54.960068 | 7.888686 | 2.0 | 11.676 | 2 | 35.581 | 11.837 | 30.854 | 2 |
| 2025-05-10T21:06:00 | 54.960251 | 7.888563 | 2.0 | 11.688 | 2 | 35.829 | 11.845 | 31.087 | 2 |
| 2025-05-10T21:07:00 | 54.960441 | 7.888455 | 2.0 | 11.697 | 2 | 35.656 | 11.856 | 30.911 | 2 |
| 2025-05-10T21:08:00 | 54.960630 | 7.888336 | 2.0 | 11.696 | 2 | 35.651 | 11.864 | 30.899 | 2 |
| 2025-05-10T21:09:00 | 54.960824 | 7.888210 | 2.0 | 11.694 | 2 | 35.836 | 11.862 | 31.079 | 2 |
| 2025-05-10T21:10:00 | 54.961023 | 7.888080 | 2.0 | 11.691 | 2 | 35.356 | 11.860 | 30.619 | 2 |
| 2025-05-10T21:11:00 | 54.961221 | 7.887965 | 2.0 | 11.688 | 2 | 35.668 | 11.857 | 30.922 | 2 |
| 2025-05-10T21:12:00 | 54.961407 | 7.887835 | 2.0 | 11.685 | 2 | 35.659 | 11.854 | 30.915 | 2 |
| 2025-05-10T21:13:00 | 54.961592 | 7.887708 | 2.0 | 11.689 | 2 | 35.740 | 11.852 | 30.995 | 2 |
| 2025-05-10T21:14:00 | 54.961788 | 7.887588 | 2.0 | 11.688 | 2 | 35.611 | 11.855 | 30.868 | 2 |
| 2025-05-10T21:15:00 | 54.961992 | 7.887454 | 2.0 | 11.686 | 2 | 35.725 | 11.853 | 30.980 | 2 |
| 2025-05-10T21:16:00 | 54.962192 | 7.887302 | 2.0 | 11.686 | 2 | 35.727 | 11.853 | 30.982 | 2 |
| 2025-05-10T21:17:00 | 54.962391 | 7.887152 | 2.0 | 11.687 | 2 | 35.884 | 11.853 | 31.133 | 2 |
| 2025-05-10T21:18:00 | 54.962593 | 7.887015 | 2.0 | 11.678 | 2 | 35.833 | 11.852 | 31.085 | 2 |
| 2025-05-10T21:19:00 | 54.962798 | 7.886863 | 2.0 | 11.671 | 2 | 35.613 | 11.841 | 30.882 | 2 |
| 2025-05-10T21:20:00 | 54.963012 | 7.886717 | 2.0 | 11.664 | 2 | 35.649 | 11.837 | 30.920 | 2 |
| 2025-05-10T21:21:00 | 54.963225 | 7.886547 | 2.0 | 11.660 | 2 | 35.568 | 11.830 | 30.848 | 2 |
| 2025-05-10T21:22:00 | 54.963438 | 7.886392 | 2.0 | 11.657 | 2 | 35.769 | 11.826 | 31.045 | 2 |
| 2025-05-10T21:23:00 | 54.963655 | 7.886219 | 2.0 | 11.653 | 2 | 35.673 | 11.824 | 30.954 | 2 |
| 2025-05-10T21:24:00 | 54.963879 | 7.886052 | 2.0 | 11.651 | 2 | 35.679 | 11.819 | 30.964 | 2 |
| 2025-05-10T21:25:00 | 54.964103 | 7.885926 | 2.0 | 11.645 | 2 | 35.756 | 11.816 | 31.040 | 2 |
| 2025-05-10T21:26:00 | 54.964341 | 7.885786 | 2.0 | 11.639 | 2 | 35.794 | 11.812 | 31.080 | 2 |
| 2025-05-10T21:27:00 | 54.964590 | 7.885657 | 2.0 | 11.633 | 2 | 35.796 | 11.806 | 31.087 | 2 |
| 2025-05-10T21:28:00 | 54.964843 | 7.885521 | 2.0 | 11.634 | 2 | 35.707 | 11.800 | 31.007 | 2 |
| 2025-05-10T21:29:00 | 54.965100 | 7.885389 | 2.0 | 11.621 | 2 | 35.690 | 11.800 | 30.990 | 2 |
| 2025-05-10T21:30:00 | 54.965347 | 7.885267 | 2.0 | 11.622 | 2 | 35.798 | 11.790 | 31.103 | 2 |
| 2025-05-10T21:31:00 | 54.965588 | 7.885147 | 2.0 | 11.612 | 2 | 35.755 | 11.785 | 31.065 | 2 |
| 2025-05-10T21:32:00 | 54.965840 | 7.885022 | 2.0 | 11.607 | 2 | 35.692 | 11.779 | 31.010 | 2 |
| 2025-05-10T21:33:00 | 54.966085 | 7.884904 | 2.0 | 11.600 | 2 | 35.736 | 11.773 | 31.057 | 2 |
| 2025-05-10T21:34:00 | 54.966341 | 7.884780 | 2.0 | 11.592 | 2 | 35.746 | 11.767 | 31.072 | 2 |
| 2025-05-10T21:35:00 | 54.966591 | 7.884643 | 2.0 | 11.582 | 2 | 35.653 | 11.757 | 30.990 | 2 |
| 2025-05-10T21:36:00 | 54.966858 | 7.884673 | 2.0 | 11.576 | 2 | 35.710 | 11.748 | 31.053 | 2 |
| 2025-05-10T21:37:00 | 54.967140 | 7.884850 | 2.0 | 11.578 | 2 | 35.677 | 11.744 | 31.024 | 2 |
| 2025-05-10T21:38:00 | 54.967372 | 7.885174 | 2.0 | 11.558 | 2 | 35.653 | 11.743 | 31.002 | 2 |
| 2025-05-10T21:39:00 | 54.967387 | 7.885705 | 2.0 | 11.552 | 2 | 35.650 | 11.722 | 31.017 | 2 |
| 2025-05-10T21:40:00 | 54.967179 | 7.886402 | 2.0 | 11.566 | 2 | 35.587 | 11.721 | 30.957 | 2 |
| 2025-05-10T21:41:00 | 54.966649 | 7.887205 | 2.0 | 11.582 | 2 | 35.684 | 11.735 | 31.039 | 2 |
| 2025-05-10T21:42:00 | 54.965894 | 7.888113 | 2.0 | 11.587 | 2 | 35.729 | 11.748 | 31.071 | 2 |
| 2025-05-10T21:43:00 | 54.964995 | 7.889104 | 2.0 | 11.593 | 2 | 35.683 | 11.754 | 31.022 | 2 |
| 2025-05-10T21:44:00 | 54.964011 | 7.890175 | 2.0 | 11.604 | 2 | 35.681 | 11.760 | 31.015 | 2 |
| 2025-05-10T21:45:00 | 54.962971 | 7.891301 | 2.0 | 11.628 | 2 | 35.723 | 11.772 | 31.045 | 2 |
| 2025-05-10T21:46:00 | 54.961892 | 7.892470 | 2.0 | 11.652 | 2 | 35.755 | 11.798 | 31.055 | 2 |
| 2025-05-10T21:47:00 | 54.960794 | 7.893661 | 2.0 | 11.664 | 2 | 35.756 | 11.819 | 31.038 | 2 |
| 2025-05-10T21:48:00 | 54.959740 | 7.894808 | 2.0 | 11.669 | 2 | 35.785 | 11.829 | 31.058 | 2 |
| 2025-05-10T21:49:00 | 54.958742 | 7.895875 | 2.0 | 11.708 | 2 | 35.759 | 11.842 | 31.022 | 2 |
| 2025-05-10T21:50:00 | 54.957791 | 7.896888 | 2.0 | 11.733 | 2 | 35.843 | 11.877 | 31.073 | 2 |
| 2025-05-10T21:51:00 | 54.956875 | 7.897874 | 2.0 | 11.698 | 2 | 35.815 | 11.894 | 31.032 | 2 |
| 2025-05-10T21:52:00 | 54.955986 | 7.898838 | 2.0 | 11.690 | 2 | 35.768 | 11.859 | 31.016 | 2 |
| 2025-05-10T21:53:00 | 54.955110 | 7.899783 | 2.0 | 11.703 | 2 | 35.769 | 11.858 | 31.018 | 2 |
| 2025-05-10T21:54:00 | 54.954248 | 7.900699 | 2.0 | 11.706 | 2 | 35.763 | 11.870 | 31.002 | 2 |
| 2025-05-10T21:55:00 | 54.953388 | 7.901604 | 2.0 | 11.746 | 2 | 35.754 | 11.874 | 30.990 | 2 |
| 2025-05-10T21:56:00 | 54.952540 | 7.902516 | 2.0 | 11.823 | 2 | 35.816 | 11.928 | 31.005 | 2 |
| 2025-05-10T21:57:00 | 54.951699 | 7.903425 | 2.0 | 11.843 | 2 | 35.819 | 11.992 | 30.955 | 2 |
| 2025-05-10T21:58:00 | 54.950861 | 7.904330 | 2.0 | 11.840 | 2 | 35.854 | 12.004 | 30.978 | 2 |
| 2025-05-10T21:59:00 | 54.950025 | 7.905222 | 2.0 | 11.845 | 2 | 35.875 | 12.006 | 30.997 | 2 |
| 2025-05-10T22:00:00 | 54.949191 | 7.906101 | 2.0 | 11.841 | 2 | 35.863 | 12.009 | 30.983 | 2 |
| 2025-05-10T22:01:00 | 54.948371 | 7.906985 | 2.0 | 11.824 | 2 | 35.875 | 11.999 | 31.003 | 2 |
| 2025-05-10T22:02:00 | 54.947553 | 7.907877 | 2.0 | 11.835 | 2 | 35.867 | 11.984 | 31.007 | 2 |
| 2025-05-10T22:03:00 | 54.946732 | 7.908765 | 2.0 | 11.861 | 2 | 35.875 | 12.005 | 30.998 | 2 |
| 2025-05-10T22:04:00 | 54.945916 | 7.909634 | 2.0 | 11.909 | 2 | 35.891 | 12.038 | 30.986 | 2 |
| 2025-05-10T22:05:00 | 54.945097 | 7.910500 | 2.0 | 11.915 | 2 | 35.921 | 12.070 | 30.988 | 2 |
| 2025-05-10T22:06:00 | 54.944280 | 7.911373 | 2.0 | 11.941 | 2 | 35.920 | 12.083 | 30.976 | 2 |
| 2025-05-10T22:07:00 | 54.943471 | 7.912246 | 2.0 | 11.952 | 2 | 35.936 | 12.108 | 30.971 | 2 |
| 2025-05-10T22:08:00 | 54.942663 | 7.913117 | 2.0 | 11.958 | 2 | 35.939 | 12.115 | 30.968 | 2 |
| 2025-05-10T22:09:00 | 54.941854 | 7.913971 | 2.0 | 11.958 | 2 | 35.937 | 12.120 | 30.962 | 2 |
| 2025-05-10T22:10:00 | 54.941042 | 7.914829 | 2.0 | 11.967 | 2 | 35.938 | 12.125 | 30.958 | 2 |
| 2025-05-10T22:11:00 | 54.940170 | 7.915758 | 2.0 | 11.945 | 2 | 35.934 | 12.125 | 30.955 | 2 |
| 2025-05-10T22:12:00 | 54.939200 | 7.916784 | 2.0 | 11.964 | 2 | 35.922 | 12.113 | 30.953 | 2 |
| 2025-05-10T22:13:00 | 54.938169 | 7.917888 | 2.0 | 11.971 | 2 | 35.931 | 12.130 | 30.948 | 2 |
| 2025-05-10T22:14:00 | 54.937098 | 7.919028 | 2.0 | 11.961 | 2 | 35.832 | 12.132 | 30.851 | 2 |
| 2025-05-10T22:15:00 | 54.936005 | 7.920190 | 2.0 | 11.957 | 2 | 35.817 | 12.123 | 30.844 | 2 |
| 2025-05-10T22:16:00 | 54.934895 | 7.921368 | 2.0 | 11.950 | 2 | 35.875 | 12.120 | 30.902 | 2 |
| 2025-05-10T22:17:00 | 54.933777 | 7.922557 | 2.0 | 11.958 | 2 | 35.826 | 12.116 | 30.859 | 2 |
| 2025-05-10T22:18:00 | 54.932654 | 7.923740 | 2.0 | 11.949 | 2 | 35.817 | 12.120 | 30.847 | 2 |
| 2025-05-10T22:19:00 | 54.931522 | 7.924919 | 2.0 | 11.952 | 2 | 35.794 | 12.113 | 30.831 | 2 |
| 2025-05-10T22:20:00 | 54.930386 | 7.926096 | 2.0 | 11.959 | 2 | 35.714 | 12.119 | 30.749 | 2 |
| 2025-05-10T22:21:00 | 54.929254 | 7.927270 | 2.0 | 11.962 | 2 | 35.861 | 12.123 | 30.886 | 2 |
| 2025-05-10T22:22:00 | 54.928116 | 7.928437 | 2.0 | 11.964 | 2 | 35.895 | 12.126 | 30.916 | 2 |
| 2025-05-10T22:23:00 | 54.926980 | 7.929599 | 2.0 | 11.972 | 2 | 35.890 | 12.129 | 30.909 | 2 |
| 2025-05-10T22:24:00 | 54.925846 | 7.930758 | 2.0 | 11.969 | 2 | 35.891 | 12.135 | 30.905 | 2 |
| 2025-05-10T22:25:00 | 54.924715 | 7.931919 | 2.0 | 11.972 | 2 | 35.880 | 12.133 | 30.896 | 2 |
| 2025-05-10T22:26:00 | 54.923589 | 7.933075 | 2.0 | 11.959 | 2 | 35.870 | 12.133 | 30.887 | 2 |
| 2025-05-10T22:27:00 | 54.922460 | 7.934229 | 2.0 | 11.956 | 2 | 35.851 | 12.122 | 30.878 | 2 |
| 2025-05-10T22:28:00 | 54.921334 | 7.935376 | 2.0 | 11.967 | 2 | 35.834 | 12.123 | 30.861 | 2 |
| 2025-05-10T22:29:00 | 54.920208 | 7.936511 | 2.0 | 11.977 | 2 | 35.835 | 12.132 | 30.854 | 2 |
| 2025-05-10T22:30:00 | 54.919085 | 7.937640 | 2.0 | 11.986 | 2 | 35.844 | 12.143 | 30.854 | 2 |
| 2025-05-10T22:31:00 | 54.917979 | 7.938749 | 2.0 | 11.984 | 2 | 35.858 | 12.150 | 30.861 | 2 |
| 2025-05-10T22:32:00 | 54.916966 | 7.939755 | 2.0 | 11.988 | 2 | 35.866 | 12.149 | 30.870 | 2 |
| 2025-05-10T22:33:00 | 54.916042 | 7.940658 | 2.0 | 11.998 | 2 | 35.864 | 12.154 | 30.864 | 2 |
| 2025-05-10T22:34:00 | 54.915179 | 7.941486 | 2.0 | 12.015 | 2 | 35.860 | 12.165 | 30.851 | 2 |
| 2025-05-10T22:35:00 | 54.914358 | 7.942260 | 2.0 | 12.024 | 2 | 35.867 | 12.181 | 30.844 | 2 |
| 2025-05-10T22:36:00 | 54.913566 | 7.942995 | 2.0 | 12.030 | 2 | 35.868 | 12.187 | 30.840 | 2 |
| 2025-05-10T22:37:00 | 54.912798 | 7.943699 | 2.0 | 12.036 | 2 | 35.870 | 12.195 | 30.836 | 2 |
| 2025-05-10T22:38:00 | 54.912049 | 7.944381 | 2.0 | 12.040 | 2 | 35.874 | 12.201 | 30.835 | 2 |
| 2025-05-10T22:39:00 | 54.911326 | 7.945039 | 2.0 | 12.044 | 2 | 35.876 | 12.204 | 30.834 | 2 |
| 2025-05-10T22:40:00 | 54.910632 | 7.945669 | 2.0 | 12.055 | 2 | 35.871 | 12.209 | 30.825 | 2 |
| 2025-05-10T22:41:00 | 54.909958 | 7.946277 | 2.0 | 12.067 | 2 | 35.872 | 12.220 | 30.817 | 2 |
| 2025-05-10T22:42:00 | 54.909300 | 7.946864 | 2.0 | 12.084 | 2 | 35.877 | 12.235 | 30.809 | 2 |
| 2025-05-10T22:43:00 | 54.908655 | 7.947437 | 2.0 | 12.087 | 2 | 35.890 | 12.246 | 30.813 | 2 |
| 2025-05-10T22:44:00 | 54.908019 | 7.948001 | 2.0 | 12.096 | 2 | 35.894 | 12.252 | 30.812 | 2 |
| 2025-05-10T22:45:00 | 54.907392 | 7.948557 | 2.0 | 12.099 | 2 | 35.898 | 12.259 | 30.810 | 2 |
| 2025-05-10T22:46:00 | 54.906772 | 7.949107 | 2.0 | 12.098 | 2 | 35.617 | 12.262 | 30.540 | 2 |
| 2025-05-10T22:47:00 | 54.906158 | 7.949647 | 2.0 | 12.101 | 2 | 35.729 | 12.263 | 30.645 | 2 |
| 2025-05-10T22:48:00 | 54.905550 | 7.950181 | 2.0 | 12.097 | 2 | 35.721 | 12.263 | 30.638 | 2 |
| 2025-05-10T22:49:00 | 54.904945 | 7.950711 | 2.0 | 12.095 | 2 | 35.898 | 12.260 | 30.809 | 2 |
| 2025-05-10T22:50:00 | 54.904346 | 7.951234 | 2.0 | 12.092 | 2 | 35.896 | 12.259 | 30.808 | 2 |
| 2025-05-10T22:51:00 | 54.903747 | 7.951751 | 2.0 | 12.090 | 2 | 35.897 | 12.255 | 30.812 | 2 |
| 2025-05-10T22:52:00 | 54.903153 | 7.952262 | 2.0 | 12.092 | 2 | 35.641 | 12.254 | 30.569 | 2 |
| 2025-05-10T22:53:00 | 54.902562 | 7.952773 | 2.0 | 12.094 | 2 | 35.897 | 12.256 | 30.811 | 2 |
| 2025-05-10T22:54:00 | 54.901975 | 7.953283 | 2.0 | 12.097 | 2 | 35.712 | 12.258 | 30.633 | 2 |
| 2025-05-10T22:55:00 | 54.901391 | 7.953784 | 2.0 | 12.100 | 2 | 35.667 | 12.260 | 30.589 | 2 |
| 2025-05-10T22:56:00 | 54.900808 | 7.954279 | 2.0 | 12.109 | 2 | 35.902 | 12.265 | 30.809 | 2 |
| 2025-05-10T22:57:00 | 54.900226 | 7.954768 | 2.0 | 12.115 | 2 | 35.627 | 12.272 | 30.541 | 2 |
| 2025-05-10T22:58:00 | 54.899650 | 7.955256 | 2.0 | 12.120 | 2 | 35.565 | 12.279 | 30.476 | 2 |
| 2025-05-10T22:59:00 | 54.899068 | 7.955744 | 2.0 | 12.121 | 2 | 35.795 | 12.283 | 30.692 | 2 |
| 2025-05-10T23:00:00 | 54.898484 | 7.956242 | 2.0 | 12.122 | 2 | 35.767 | 12.286 | 30.663 | 2 |
| 2025-05-10T23:01:00 | 54.897899 | 7.956739 | 2.0 | 12.121 | 2 | 35.643 | 12.285 | 30.546 | 2 |
| 2025-05-10T23:02:00 | 54.897317 | 7.957240 | 2.0 | 12.114 | 2 | 35.664 | 12.283 | 30.567 | 2 |
| 2025-05-10T23:03:00 | 54.896740 | 7.957737 | 2.0 | 12.113 | 2 | 35.850 | 12.278 | 30.748 | 2 |
| 2025-05-10T23:04:00 | 54.896164 | 7.958232 | 2.0 | 12.114 | 2 | 35.441 | 12.276 | 30.361 | 2 |
| 2025-05-10T23:05:00 | 54.895590 | 7.958725 | 2.0 | 12.116 | 2 | 35.793 | 12.278 | 30.694 | 2 |
| 2025-05-10T23:06:00 | 54.895021 | 7.959206 | 2.0 | 12.120 | 2 | 35.701 | 12.280 | 30.605 | 2 |
| 2025-05-10T23:07:00 | 54.894456 | 7.959680 | 2.0 | 12.126 | 2 | 35.487 | 12.284 | 30.398 | 2 |
| 2025-05-10T23:08:00 | 54.893897 | 7.960153 | 2.0 | 12.131 | 2 | 35.909 | 12.290 | 30.795 | 2 |
| 2025-05-10T23:09:00 | 54.893338 | 7.960625 | 2.0 | 12.138 | 2 | 35.872 | 12.295 | 30.755 | 2 |
| 2025-05-10T23:10:00 | 54.892731 | 7.961143 | 2.0 | 12.144 | 2 | 35.745 | 12.302 | 30.629 | 2 |
| 2025-05-10T23:11:00 | 54.892018 | 7.961387 | 2.0 | 12.146 | 2 | 35.934 | 12.308 | 30.804 | 2 |
| 2025-05-10T23:12:00 | 54.891227 | 7.961480 | 2.0 | 12.139 | 2 | 35.771 | 12.308 | 30.649 | 2 |
| 2025-05-10T23:13:00 | 54.890378 | 7.961537 | 2.0 | 12.123 | 2 | 35.790 | 12.299 | 30.674 | 2 |
| 2025-05-10T23:14:00 | 54.889491 | 7.961595 | 2.0 | 12.106 | 2 | 35.584 | 12.283 | 30.491 | 2 |
| 2025-05-10T23:15:00 | 54.888574 | 7.961657 | 2.0 | 12.088 | 2 | 35.799 | 12.265 | 30.710 | 2 |
| 2025-05-10T23:16:00 | 54.887644 | 7.961720 | 2.0 | 12.086 | 2 | 35.713 | 12.253 | 30.638 | 2 |
| 2025-05-10T23:17:00 | 54.886705 | 7.961783 | 2.0 | 12.084 | 2 | 35.827 | 12.251 | 30.749 | 2 |
| 2025-05-10T23:18:00 | 54.885759 | 7.961853 | 2.0 | 12.079 | 2 | 35.722 | 12.246 | 30.653 | 2 |
| 2025-05-10T23:19:00 | 54.884808 | 7.961921 | 2.0 | 12.081 | 2 | 35.832 | 12.243 | 30.760 | 2 |
| 2025-05-10T23:20:00 | 54.883854 | 7.962001 | 2.0 | 12.099 | 2 | 35.687 | 12.247 | 30.618 | 2 |
| 2025-05-10T23:21:00 | 54.882902 | 7.962073 | 2.0 | 12.120 | 2 | 35.729 | 12.265 | 30.644 | 2 |
| 2025-05-10T23:22:00 | 54.881948 | 7.962153 | 2.0 | 12.142 | 2 | 35.803 | 12.287 | 30.696 | 2 |
| 2025-05-10T23:23:00 | 54.880995 | 7.962227 | 2.0 | 12.155 | 2 | 35.827 | 12.306 | 30.704 | 2 |
| 2025-05-10T23:24:00 | 54.880040 | 7.962301 | 2.0 | 12.167 | 2 | 35.841 | 12.319 | 30.706 | 2 |
| 2025-05-10T23:25:00 | 54.879090 | 7.962380 | 2.0 | 12.174 | 2 | 35.780 | 12.329 | 30.640 | 2 |
| 2025-05-10T23:26:00 | 54.878141 | 7.962465 | 2.0 | 12.183 | 2 | 35.794 | 12.338 | 30.646 | 2 |
| 2025-05-10T23:27:00 | 54.877193 | 7.962550 | 2.0 | 12.188 | 2 | 35.845 | 12.345 | 30.689 | 2 |
| 2025-05-10T23:28:00 | 54.876247 | 7.962634 | 2.0 | 12.183 | 2 | 35.912 | 12.350 | 30.748 | 2 |
| 2025-05-10T23:29:00 | 54.875301 | 7.962719 | 2.0 | 12.182 | 2 | 35.851 | 12.343 | 30.696 | 2 |
| 2025-05-10T23:30:00 | 54.874356 | 7.962795 | 2.0 | 12.197 | 2 | 35.867 | 12.347 | 30.708 | 2 |
| 2025-05-10T23:31:00 | 54.873415 | 7.962868 | 2.0 | 12.188 | 2 | 35.917 | 12.359 | 30.746 | 2 |
| 2025-05-10T23:32:00 | 54.872495 | 7.963078 | 2.0 | 12.182 | 2 | 35.906 | 12.346 | 30.746 | 2 |
| 2025-05-10T23:33:00 | 54.871571 | 7.963223 | 2.0 | 12.177 | 2 | 35.906 | 12.347 | 30.745 | 2 |
| 2025-05-10T23:34:00 | 54.870663 | 7.963488 | 2.0 | 12.175 | 2 | 35.910 | 12.341 | 30.754 | 2 |
| 2025-05-10T23:35:00 | 54.869759 | 7.963773 | 2.0 | 12.184 | 2 | 35.902 | 12.340 | 30.747 | 2 |
| 2025-05-10T23:36:00 | 54.868853 | 7.964042 | 2.0 | 12.197 | 2 | 35.855 | 12.349 | 30.695 | 2 |
| 2025-05-10T23:37:00 | 54.867943 | 7.964280 | 2.0 | 12.202 | 2 | 35.925 | 12.360 | 30.753 | 2 |
| 2025-05-10T23:38:00 | 54.867028 | 7.964492 | 2.0 | 12.214 | 2 | 35.893 | 12.367 | 30.716 | 2 |
| 2025-05-10T23:39:00 | 54.866118 | 7.964723 | 2.0 | 12.224 | 2 | 35.871 | 12.376 | 30.688 | 2 |
| 2025-05-10T23:40:00 | 54.865207 | 7.964963 | 2.0 | 12.236 | 2 | 35.945 | 12.386 | 30.750 | 2 |
| 2025-05-10T23:41:00 | 54.864297 | 7.965204 | 2.0 | 12.257 | 2 | 35.946 | 12.402 | 30.738 | 2 |
| 2025-05-10T23:42:00 | 54.863387 | 7.965460 | 2.0 | 12.265 | 2 | 35.957 | 12.419 | 30.735 | 2 |
| 2025-05-10T23:43:00 | 54.862476 | 7.965709 | 2.0 | 12.281 | 2 | 35.976 | 12.430 | 30.744 | 2 |
| 2025-05-10T23:44:00 | 54.861567 | 7.965949 | 2.0 | 12.304 | 2 | 36.006 | 12.443 | 30.761 | 2 |
| 2025-05-10T23:45:00 | 54.860663 | 7.966193 | 2.0 | 12.344 | 2 | 36.012 | 12.472 | 30.743 | 2 |
| 2025-05-10T23:46:00 | 54.859760 | 7.966446 | 2.0 | 12.358 | 2 | 36.022 | 12.506 | 30.725 | 2 |
| 2025-05-10T23:47:00 | 54.858860 | 7.966709 | 2.0 | 12.353 | 2 | 36.038 | 12.516 | 30.732 | 2 |
| 2025-05-10T23:48:00 | 54.857964 | 7.966980 | 2.0 | 12.351 | 2 | 36.016 | 12.516 | 30.711 | 2 |
| 2025-05-10T23:49:00 | 54.857063 | 7.967220 | 2.0 | 12.328 | 2 | 36.000 | 12.506 | 30.704 | 2 |
| 2025-05-10T23:50:00 | 54.856160 | 7.967434 | 2.0 | 12.324 | 2 | 35.991 | 12.489 | 30.710 | 2 |
| 2025-05-10T23:51:00 | 54.855263 | 7.967661 | 2.0 | 12.328 | 2 | 35.987 | 12.486 | 30.708 | 2 |
| 2025-05-10T23:52:00 | 54.854375 | 7.967921 | 2.0 | 12.334 | 2 | 35.995 | 12.490 | 30.713 | 2 |
| 2025-05-10T23:53:00 | 54.853485 | 7.968178 | 2.0 | 12.338 | 2 | 35.997 | 12.496 | 30.710 | 2 |
| 2025-05-10T23:54:00 | 54.852594 | 7.968421 | 2.0 | 12.328 | 2 | 35.991 | 12.499 | 30.701 | 2 |
| 2025-05-10T23:55:00 | 54.851704 | 7.968667 | 2.0 | 12.316 | 2 | 35.975 | 12.488 | 30.695 | 2 |
| 2025-05-10T23:56:00 | 54.850814 | 7.968922 | 2.0 | 12.305 | 2 | 35.959 | 12.477 | 30.689 | 2 |
| 2025-05-10T23:57:00 | 54.849931 | 7.969166 | 2.0 | 12.293 | 2 | 35.950 | 12.467 | 30.689 | 2 |
| 2025-05-10T23:58:00 | 54.849047 | 7.969396 | 2.0 | 12.274 | 2 | 35.941 | 12.453 | 30.692 | 2 |
| 2025-05-10T23:59:00 | 54.848167 | 7.969620 | 2.0 | 12.263 | 2 | 35.927 | 12.434 | 30.694 | 2 |
| 2025-05-11T00:00:00 | 54.847291 | 7.969837 | 2.0 | 12.250 | 2 | 35.918 | 12.424 | 30.693 | 2 |
| 2025-05-11T00:01:00 | 54.846413 | 7.970060 | 2.0 | 12.236 | 2 | 35.908 | 12.411 | 30.695 | 2 |
| 2025-05-11T00:02:00 | 54.845542 | 7.970286 | 2.0 | 12.212 | 2 | 35.902 | 12.397 | 30.700 | 2 |
| 2025-05-11T00:03:00 | 54.844673 | 7.970526 | 2.0 | 12.196 | 2 | 35.900 | 12.367 | 30.723 | 2 |
| 2025-05-11T00:04:00 | 54.843803 | 7.970756 | 2.0 | 12.190 | 2 | 35.892 | 12.363 | 30.719 | 2 |
| 2025-05-11T00:05:00 | 54.842937 | 7.970999 | 2.0 | 12.186 | 2 | 35.883 | 12.354 | 30.717 | 2 |
| 2025-05-11T00:06:00 | 54.842075 | 7.971258 | 2.0 | 12.172 | 2 | 35.873 | 12.343 | 30.717 | 2 |
| 2025-05-11T00:07:00 | 54.841213 | 7.971501 | 2.0 | 12.140 | 2 | 35.860 | 12.331 | 30.714 | 2 |
| 2025-05-11T00:08:00 | 54.840347 | 7.971737 | 2.0 | 12.144 | 2 | 35.847 | 12.307 | 30.722 | 2 |
| 2025-05-11T00:09:00 | 54.839478 | 7.971966 | 2.0 | 12.106 | 2 | 35.848 | 12.303 | 30.726 | 2 |
| 2025-05-11T00:10:00 | 54.838613 | 7.972211 | 2.0 | 12.089 | 2 | 35.841 | 12.268 | 30.748 | 2 |
| 2025-05-11T00:11:00 | 54.837748 | 7.972455 | 2.0 | 12.060 | 2 | 35.830 | 12.252 | 30.751 | 2 |
| 2025-05-11T00:12:00 | 54.836889 | 7.972701 | 2.0 | 12.044 | 2 | 35.828 | 12.222 | 30.773 | 2 |
| 2025-05-11T00:13:00 | 54.836028 | 7.972935 | 2.0 | 12.031 | 2 | 35.825 | 12.205 | 30.784 | 2 |
| 2025-05-11T00:14:00 | 54.835173 | 7.973178 | 2.0 | 11.980 | 2 | 35.823 | 12.182 | 30.801 | 2 |
| 2025-05-11T00:15:00 | 54.834318 | 7.973412 | 2.0 | 11.968 | 2 | 35.813 | 12.144 | 30.823 | 2 |
| 2025-05-11T00:16:00 | 54.833467 | 7.973635 | 2.0 | 11.947 | 2 | 35.809 | 12.131 | 30.830 | 2 |
| 2025-05-11T00:17:00 | 54.832621 | 7.973873 | 2.0 | 11.924 | 2 | 35.807 | 12.107 | 30.848 | 2 |
| 2025-05-11T00:18:00 | 54.831778 | 7.974119 | 2.0 | 11.889 | 2 | 35.794 | 12.081 | 30.857 | 2 |
| 2025-05-11T00:19:00 | 54.830929 | 7.974352 | 2.0 | 11.850 | 2 | 35.783 | 12.051 | 30.871 | 2 |
| 2025-05-11T00:20:00 | 54.830080 | 7.974571 | 2.0 | 11.803 | 2 | 35.766 | 12.010 | 30.889 | 2 |
| 2025-05-11T00:21:00 | 54.829228 | 7.974784 | 2.0 | 11.766 | 2 | 35.747 | 11.967 | 30.906 | 2 |
| 2025-05-11T00:22:00 | 54.828379 | 7.975009 | 2.0 | 11.724 | 2 | 35.728 | 11.927 | 30.921 | 2 |
| 2025-05-11T00:23:00 | 54.827526 | 7.975250 | 2.0 | 11.701 | 2 | 35.713 | 11.887 | 30.940 | 2 |
| 2025-05-11T00:24:00 | 54.826517 | 7.975559 | 2.0 | 11.680 | 2 | 35.703 | 11.866 | 30.948 | 2 |
| 2025-05-11T00:25:00 | 54.825359 | 7.975877 | 2.0 | 11.661 | 2 | 35.695 | 11.844 | 30.958 | 2 |
| 2025-05-11T00:26:00 | 54.824108 | 7.976171 | 2.0 | 11.643 | 2 | 35.688 | 11.827 | 30.966 | 2 |
| 2025-05-11T00:27:00 | 54.822802 | 7.976484 | 2.0 | 11.617 | 2 | 35.681 | 11.807 | 30.976 | 2 |
| 2025-05-11T00:28:00 | 54.821471 | 7.976839 | 2.0 | 11.581 | 2 | 35.668 | 11.779 | 30.986 | 2 |
| 2025-05-11T00:29:00 | 54.820127 | 7.977227 | 2.0 | 11.560 | 2 | 35.650 | 11.749 | 30.994 | 2 |
| 2025-05-11T00:30:00 | 54.818772 | 7.977603 | 2.0 | 11.554 | 2 | 35.623 | 11.726 | 30.987 | 2 |
| 2025-05-11T00:31:00 | 54.817411 | 7.977980 | 2.0 | 11.565 | 2 | 35.601 | 11.725 | 30.967 | 2 |
| 2025-05-11T00:32:00 | 54.816053 | 7.978367 | 2.0 | 11.579 | 2 | 35.596 | 11.736 | 30.953 | 2 |
| 2025-05-11T00:33:00 | 54.814695 | 7.978752 | 2.0 | 11.575 | 2 | 35.607 | 11.744 | 30.957 | 2 |
| 2025-05-11T00:34:00 | 54.813336 | 7.979140 | 2.0 | 11.587 | 2 | 35.612 | 11.745 | 30.961 | 2 |
| 2025-05-11T00:35:00 | 54.811977 | 7.979526 | 2.0 | 11.601 | 2 | 35.617 | 11.754 | 30.958 | 2 |
| 2025-05-11T00:36:00 | 54.810619 | 7.979907 | 2.0 | 11.625 | 2 | 35.610 | 11.772 | 30.936 | 2 |
| 2025-05-11T00:37:00 | 54.809265 | 7.980289 | 2.0 | 11.644 | 2 | 35.476 | 11.793 | 30.790 | 2 |
| 2025-05-11T00:38:00 | 54.807910 | 7.980649 | 2.0 | 11.663 | 2 | 35.538 | 11.811 | 30.834 | 2 |
| 2025-05-11T00:39:00 | 54.806554 | 7.981008 | 2.0 | 11.673 | 2 | 35.443 | 11.828 | 30.729 | 2 |
| 2025-05-11T00:40:00 | 54.805207 | 7.981392 | 2.0 | 11.683 | 2 | 35.492 | 11.839 | 30.767 | 2 |
| 2025-05-11T00:41:00 | 54.803863 | 7.981771 | 2.0 | 11.691 | 2 | 35.539 | 11.849 | 30.804 | 2 |
| 2025-05-11T00:42:00 | 54.802516 | 7.982149 | 2.0 | 11.692 | 2 | 35.455 | 11.856 | 30.717 | 2 |
| 2025-05-11T00:43:00 | 54.801174 | 7.982521 | 2.0 | 11.687 | 2 | 35.456 | 11.855 | 30.719 | 2 |
| 2025-05-11T00:44:00 | 54.799831 | 7.982884 | 2.0 | 11.682 | 2 | 35.637 | 11.852 | 30.896 | 2 |
| 2025-05-11T00:45:00 | 54.798488 | 7.983232 | 2.0 | 11.676 | 2 | 35.565 | 11.844 | 30.833 | 2 |
| 2025-05-11T00:46:00 | 54.797144 | 7.983630 | 2.0 | 11.691 | 2 | 35.587 | 11.844 | 30.854 | 2 |
| 2025-05-11T00:47:00 | 54.795803 | 7.984027 | 2.0 | 11.703 | 2 | 35.526 | 11.857 | 30.785 | 2 |
| 2025-05-11T00:48:00 | 54.794455 | 7.984384 | 2.0 | 11.714 | 2 | 35.564 | 11.870 | 30.811 | 2 |
| 2025-05-11T00:49:00 | 54.793104 | 7.984738 | 2.0 | 11.722 | 2 | 35.505 | 11.880 | 30.746 | 2 |
| 2025-05-11T00:50:00 | 54.791753 | 7.985101 | 2.0 | 11.720 | 2 | 35.617 | 11.885 | 30.849 | 2 |
| 2025-05-11T00:51:00 | 54.790302 | 7.985504 | 2.0 | 11.713 | 2 | 35.633 | 11.882 | 30.867 | 2 |
| 2025-05-11T00:52:00 | 54.788701 | 7.985962 | 2.0 | 11.719 | 2 | 35.591 | 11.879 | 30.829 | 2 |
| 2025-05-11T00:53:00 | 54.787019 | 7.986416 | 2.0 | 11.740 | 2 | 35.615 | 11.887 | 30.846 | 2 |
| 2025-05-11T00:54:00 | 54.785289 | 7.986863 | 2.0 | 11.759 | 2 | 35.641 | 11.908 | 30.853 | 2 |
| 2025-05-11T00:55:00 | 54.783539 | 7.987301 | 2.0 | 11.776 | 2 | 35.639 | 11.925 | 30.837 | 2 |
| 2025-05-11T00:56:00 | 54.781785 | 7.987808 | 2.0 | 11.793 | 2 | 35.704 | 11.942 | 30.886 | 2 |
| 2025-05-11T00:57:00 | 54.780023 | 7.988298 | 2.0 | 11.813 | 2 | 35.737 | 11.961 | 30.902 | 2 |
| 2025-05-11T00:58:00 | 54.778262 | 7.988800 | 2.0 | 11.835 | 2 | 35.740 | 11.980 | 30.889 | 2 |
| 2025-05-11T00:59:00 | 54.776501 | 7.989260 | 2.0 | 11.839 | 2 | 35.785 | 11.998 | 30.917 | 2 |
| 2025-05-11T01:00:00 | 54.774749 | 7.989724 | 2.0 | 11.840 | 2 | 35.802 | 12.003 | 30.929 | 2 |
| 2025-05-11T01:01:00 | 54.773002 | 7.990216 | 2.0 | 11.848 | 2 | 35.818 | 12.004 | 30.944 | 2 |
| 2025-05-11T01:02:00 | 54.771261 | 7.990710 | 2.0 | 11.866 | 2 | 35.816 | 12.015 | 30.933 | 2 |
| 2025-05-11T01:03:00 | 54.769520 | 7.991156 | 2.0 | 11.882 | 2 | 35.834 | 12.032 | 30.936 | 2 |
| 2025-05-11T01:04:00 | 54.767789 | 7.991605 | 2.0 | 11.895 | 2 | 35.820 | 12.047 | 30.910 | 2 |
| 2025-05-11T01:05:00 | 54.766059 | 7.992078 | 2.0 | 11.904 | 2 | 35.832 | 12.059 | 30.912 | 2 |
| 2025-05-11T01:06:00 | 54.764331 | 7.992563 | 2.0 | 11.913 | 2 | 35.879 | 12.068 | 30.949 | 2 |
| 2025-05-11T01:07:00 | 54.762600 | 7.993054 | 2.0 | 11.916 | 2 | 35.867 | 12.077 | 30.930 | 2 |
| 2025-05-11T01:08:00 | 54.760871 | 7.993552 | 2.0 | 11.916 | 2 | 35.871 | 12.079 | 30.932 | 2 |
| 2025-05-11T01:09:00 | 54.759136 | 7.994006 | 2.0 | 11.912 | 2 | 35.878 | 12.079 | 30.939 | 2 |
| 2025-05-11T01:10:00 | 54.757405 | 7.994472 | 2.0 | 11.910 | 2 | 35.853 | 12.075 | 30.918 | 2 |
| 2025-05-11T01:11:00 | 54.755671 | 7.994930 | 2.0 | 11.909 | 2 | 35.833 | 12.074 | 30.900 | 2 |
| 2025-05-11T01:12:00 | 54.753936 | 7.995413 | 2.0 | 11.909 | 2 | 35.831 | 12.072 | 30.900 | 2 |
| 2025-05-11T01:13:00 | 54.752207 | 7.995901 | 2.0 | 11.909 | 2 | 35.825 | 12.072 | 30.894 | 2 |
| 2025-05-11T01:14:00 | 54.750477 | 7.996347 | 2.0 | 11.910 | 2 | 35.853 | 12.073 | 30.920 | 2 |
| 2025-05-11T01:15:00 | 54.748758 | 7.996819 | 2.0 | 11.916 | 2 | 35.846 | 12.075 | 30.912 | 2 |
| 2025-05-11T01:16:00 | 54.747090 | 7.997275 | 2.0 | 11.917 | 2 | 35.838 | 12.079 | 30.901 | 2 |
| 2025-05-11T01:17:00 | 54.745459 | 7.997711 | 2.0 | 11.919 | 2 | 35.850 | 12.081 | 30.911 | 2 |
| 2025-05-11T01:18:00 | 54.743851 | 7.998171 | 2.0 | 11.920 | 2 | 35.847 | 12.083 | 30.906 | 2 |
| 2025-05-11T01:19:00 | 54.742253 | 7.998592 | 2.0 | 11.920 | 2 | 35.842 | 12.084 | 30.900 | 2 |
| 2025-05-11T01:20:00 | 54.740660 | 7.999038 | 2.0 | 11.922 | 2 | 35.836 | 12.084 | 30.895 | 2 |
| 2025-05-11T01:21:00 | 54.739069 | 7.999488 | 2.0 | 11.921 | 2 | 35.829 | 12.085 | 30.887 | 2 |
| 2025-05-11T01:22:00 | 54.737474 | 7.999924 | 2.0 | 11.921 | 2 | 35.823 | 12.084 | 30.882 | 2 |
| 2025-05-11T01:23:00 | 54.735881 | 8.000349 | 2.0 | 11.925 | 2 | 35.817 | 12.085 | 30.876 | 2 |
| 2025-05-11T01:24:00 | 54.734277 | 8.000775 | 2.0 | 11.929 | 2 | 35.814 | 12.088 | 30.870 | 2 |
| 2025-05-11T01:25:00 | 54.732673 | 8.001192 | 2.0 | 11.936 | 2 | 35.811 | 12.093 | 30.863 | 2 |
| 2025-05-11T01:26:00 | 54.731075 | 8.001625 | 2.0 | 11.944 | 2 | 35.811 | 12.100 | 30.858 | 2 |
| 2025-05-11T01:27:00 | 54.729474 | 8.002067 | 2.0 | 11.954 | 2 | 35.814 | 12.108 | 30.854 | 2 |
| 2025-05-11T01:28:00 | 54.727870 | 8.002520 | 2.0 | 11.962 | 2 | 35.817 | 12.118 | 30.848 | 2 |
| 2025-05-11T01:29:00 | 54.726264 | 8.002947 | 2.0 | 11.972 | 2 | 35.820 | 12.127 | 30.844 | 2 |
| 2025-05-11T01:30:00 | 54.724658 | 8.003378 | 2.0 | 11.983 | 2 | 35.822 | 12.137 | 30.838 | 2 |
| 2025-05-11T01:31:00 | 54.723052 | 8.003810 | 2.0 | 11.994 | 2 | 35.826 | 12.147 | 30.833 | 2 |
| 2025-05-11T01:32:00 | 54.721446 | 8.004234 | 2.0 | 12.005 | 2 | 35.827 | 12.158 | 30.825 | 2 |
| 2025-05-11T01:33:00 | 54.719842 | 8.004659 | 2.0 | 12.018 | 2 | 35.834 | 12.170 | 30.822 | 2 |
| 2025-05-11T01:34:00 | 54.718242 | 8.005104 | 2.0 | 12.030 | 2 | 35.841 | 12.183 | 30.818 | 2 |
| 2025-05-11T01:35:00 | 54.716643 | 8.005565 | 2.0 | 12.044 | 2 | 35.847 | 12.195 | 30.814 | 2 |
| 2025-05-11T01:36:00 | 54.715045 | 8.006006 | 2.0 | 12.055 | 2 | 35.856 | 12.208 | 30.812 | 2 |
| 2025-05-11T01:37:00 | 54.713446 | 8.006429 | 2.0 | 12.063 | 2 | 35.862 | 12.218 | 30.809 | 2 |
| 2025-05-11T01:38:00 | 54.711845 | 8.006864 | 2.0 | 12.073 | 2 | 35.868 | 12.227 | 30.807 | 2 |
| 2025-05-11T01:39:00 | 54.710241 | 8.007292 | 2.0 | 12.081 | 2 | 35.874 | 12.237 | 30.805 | 2 |
| 2025-05-11T01:40:00 | 54.708636 | 8.007714 | 2.0 | 12.089 | 2 | 35.882 | 12.244 | 30.807 | 2 |
| 2025-05-11T01:41:00 | 54.707050 | 8.008121 | 2.0 | 12.097 | 2 | 35.889 | 12.252 | 30.807 | 2 |
| 2025-05-11T01:42:00 | 54.705527 | 8.008530 | 2.0 | 12.102 | 2 | 35.896 | 12.260 | 30.807 | 2 |
| 2025-05-11T01:43:00 | 54.704139 | 8.008936 | 2.0 | 12.107 | 2 | 35.903 | 12.266 | 30.809 | 2 |
| 2025-05-11T01:44:00 | 54.702914 | 8.009343 | 2.0 | 12.110 | 2 | 35.908 | 12.269 | 30.811 | 2 |
| 2025-05-11T01:45:00 | 54.701784 | 8.009665 | 2.0 | 12.114 | 2 | 35.915 | 12.273 | 30.814 | 2 |
| 2025-05-11T01:46:00 | 54.700718 | 8.009937 | 2.0 | 12.118 | 2 | 35.925 | 12.277 | 30.821 | 2 |
| 2025-05-11T01:47:00 | 54.699692 | 8.010178 | 2.0 | 12.120 | 2 | 35.934 | 12.281 | 30.826 | 2 |
| 2025-05-11T01:48:00 | 54.698694 | 8.010423 | 2.0 | 12.122 | 2 | 35.941 | 12.283 | 30.831 | 2 |
| 2025-05-11T01:49:00 | 54.697714 | 8.010663 | 2.0 | 12.122 | 2 | 35.860 | 12.285 | 30.752 | 2 |
| 2025-05-11T01:50:00 | 54.696753 | 8.010908 | 2.0 | 12.122 | 2 | 35.864 | 12.284 | 30.757 | 2 |
| 2025-05-11T01:51:00 | 54.695811 | 8.011194 | 2.0 | 12.120 | 2 | 35.866 | 12.284 | 30.759 | 2 |
| 2025-05-11T01:52:00 | 54.694852 | 8.011477 | 2.0 | 12.111 | 2 | 35.916 | 12.281 | 30.809 | 2 |
| 2025-05-11T01:53:00 | 54.693889 | 8.011729 | 2.0 | 12.106 | 2 | 35.917 | 12.274 | 30.815 | 2 |
| 2025-05-11T01:54:00 | 54.692921 | 8.011978 | 2.0 | 12.107 | 2 | 35.836 | 12.269 | 30.742 | 2 |
| 2025-05-11T01:55:00 | 54.691953 | 8.012232 | 2.0 | 12.093 | 2 | 35.904 | 12.267 | 30.809 | 2 |
| 2025-05-11T01:56:00 | 54.690982 | 8.012497 | 2.0 | 12.073 | 2 | 35.935 | 12.255 | 30.848 | 2 |
| 2025-05-11T01:57:00 | 54.690006 | 8.012765 | 2.0 | 12.055 | 2 | 35.931 | 12.234 | 30.862 | 2 |
| 2025-05-11T01:58:00 | 54.689029 | 8.013042 | 2.0 | 12.031 | 2 | 35.893 | 12.215 | 30.841 | 2 |
| 2025-05-11T01:59:00 | 54.688049 | 8.013305 | 2.0 | 12.020 | 2 | 35.905 | 12.195 | 30.869 | 2 |
| 2025-05-11T02:00:00 | 54.687064 | 8.013567 | 2.0 | 11.995 | 2 | 35.928 | 12.179 | 30.904 | 2 |
| 2025-05-11T02:01:00 | 54.686084 | 8.013839 | 2.0 | 11.990 | 2 | 35.925 | 12.160 | 30.917 | 2 |
| 2025-05-11T02:02:00 | 54.685100 | 8.014113 | 2.0 | 11.968 | 2 | 35.931 | 12.151 | 30.930 | 2 |
| 2025-05-11T02:03:00 | 54.684114 | 8.014368 | 2.0 | 11.959 | 2 | 35.920 | 12.132 | 30.935 | 2 |
| 2025-05-11T02:04:00 | 54.683128 | 8.014634 | 2.0 | 11.940 | 2 | 35.932 | 12.121 | 30.956 | 2 |
| 2025-05-11T02:05:00 | 54.682143 | 8.014888 | 2.0 | 11.924 | 2 | 35.862 | 12.101 | 30.906 | 2 |
| 2025-05-11T02:06:00 | 54.681162 | 8.015151 | 2.0 | 11.910 | 2 | 35.875 | 12.087 | 30.930 | 2 |
| 2025-05-11T02:07:00 | 54.680183 | 8.015415 | 2.0 | 11.895 | 2 | 35.945 | 12.074 | 31.007 | 2 |
| 2025-05-11T02:08:00 | 54.679201 | 8.015666 | 2.0 | 11.877 | 2 | 35.935 | 12.057 | 31.012 | 2 |
| 2025-05-11T02:09:00 | 54.678228 | 8.015916 | 2.0 | 11.866 | 2 | 35.937 | 12.042 | 31.026 | 2 |
| 2025-05-11T02:10:00 | 54.677268 | 8.016182 | 2.0 | 11.860 | 2 | 35.874 | 12.030 | 30.976 | 2 |
| 2025-05-11T02:11:00 | 54.676317 | 8.016466 | 2.0 | 11.856 | 2 | 35.945 | 12.025 | 31.048 | 2 |
| 2025-05-11T02:12:00 | 54.675365 | 8.016745 | 2.0 | 11.854 | 2 | 35.904 | 12.020 | 31.013 | 2 |
| 2025-05-11T02:13:00 | 54.674412 | 8.017016 | 2.0 | 11.856 | 2 | 35.953 | 12.019 | 31.061 | 2 |
| 2025-05-11T02:14:00 | 54.673458 | 8.017281 | 2.0 | 11.855 | 2 | 35.936 | 12.019 | 31.045 | 2 |
| 2025-05-11T02:15:00 | 54.672499 | 8.017504 | 2.0 | 11.860 | 2 | 35.942 | 12.020 | 31.049 | 2 |
| 2025-05-11T02:16:00 | 54.671546 | 8.017714 | 2.0 | 11.862 | 2 | 35.952 | 12.024 | 31.056 | 2 |
| 2025-05-11T02:17:00 | 54.670610 | 8.017978 | 2.0 | 11.864 | 2 | 35.911 | 12.027 | 31.014 | 2 |
| 2025-05-11T02:18:00 | 54.669686 | 8.018267 | 2.0 | 11.865 | 2 | 35.970 | 12.029 | 31.069 | 2 |
| 2025-05-11T02:19:00 | 54.668764 | 8.018547 | 2.0 | 11.870 | 2 | 35.967 | 12.030 | 31.065 | 2 |
| 2025-05-11T02:20:00 | 54.667841 | 8.018787 | 2.0 | 11.870 | 2 | 35.969 | 12.033 | 31.065 | 2 |
| 2025-05-11T02:21:00 | 54.666923 | 8.019034 | 2.0 | 11.871 | 2 | 35.944 | 12.035 | 31.039 | 2 |
| 2025-05-11T02:22:00 | 54.666006 | 8.019288 | 2.0 | 11.871 | 2 | 35.946 | 12.035 | 31.041 | 2 |
| 2025-05-11T02:23:00 | 54.665094 | 8.019539 | 2.0 | 11.869 | 2 | 35.962 | 12.034 | 31.057 | 2 |
| 2025-05-11T02:24:00 | 54.664191 | 8.019861 | 2.0 | 11.869 | 2 | 35.970 | 12.033 | 31.065 | 2 |
| 2025-05-11T02:25:00 | 54.663364 | 8.020424 | 2.0 | 11.869 | 2 | 35.966 | 12.032 | 31.062 | 2 |
| 2025-05-11T02:26:00 | 54.662639 | 8.021227 | 2.0 | 11.867 | 2 | 35.971 | 12.032 | 31.067 | 2 |
| 2025-05-11T02:27:00 | 54.661910 | 8.022117 | 2.0 | 11.867 | 2 | 35.973 | 12.032 | 31.069 | 2 |
| 2025-05-11T02:28:00 | 54.661126 | 8.022985 | 2.0 | 11.864 | 2 | 35.973 | 12.030 | 31.071 | 2 |
| 2025-05-11T02:29:00 | 54.660316 | 8.023857 | 2.0 | 11.862 | 2 | 35.971 | 12.027 | 31.071 | 2 |
| 2025-05-11T02:30:00 | 54.659502 | 8.024759 | 2.0 | 11.864 | 2 | 35.972 | 12.027 | 31.072 | 2 |
| 2025-05-11T02:31:00 | 54.658687 | 8.025677 | 2.0 | 11.864 | 2 | 35.972 | 12.027 | 31.072 | 2 |
| 2025-05-11T02:32:00 | 54.657871 | 8.026612 | 2.0 | 11.864 | 2 | 35.974 | 12.028 | 31.073 | 2 |
| 2025-05-11T02:33:00 | 54.657054 | 8.027572 | 2.0 | 11.865 | 2 | 35.976 | 12.028 | 31.075 | 2 |
| 2025-05-11T02:34:00 | 54.656222 | 8.028523 | 2.0 | 11.865 | 2 | 35.977 | 12.029 | 31.076 | 2 |
| 2025-05-11T02:35:00 | 54.655391 | 8.029471 | 2.0 | 11.865 | 2 | 35.978 | 12.029 | 31.076 | 2 |
| 2025-05-11T02:36:00 | 54.654571 | 8.030429 | 2.0 | 11.866 | 2 | 35.980 | 12.029 | 31.078 | 2 |
| 2025-05-11T02:37:00 | 54.653763 | 8.031367 | 2.0 | 11.867 | 2 | 35.977 | 12.030 | 31.075 | 2 |
| 2025-05-11T02:38:00 | 54.652969 | 8.032297 | 2.0 | 11.868 | 2 | 35.970 | 12.031 | 31.067 | 2 |
| 2025-05-11T02:39:00 | 54.652183 | 8.033219 | 2.0 | 11.869 | 2 | 35.983 | 12.032 | 31.079 | 2 |
| 2025-05-11T02:40:00 | 54.651392 | 8.034140 | 2.0 | 11.869 | 2 | 35.984 | 12.032 | 31.080 | 2 |
| 2025-05-11T02:41:00 | 54.650600 | 8.035078 | 2.0 | 11.868 | 2 | 35.988 | 12.033 | 31.083 | 2 |
| 2025-05-11T02:42:00 | 54.649811 | 8.036021 | 2.0 | 11.869 | 2 | 35.989 | 12.033 | 31.084 | 2 |
| 2025-05-11T02:43:00 | 54.649018 | 8.036966 | 2.0 | 11.870 | 2 | 35.989 | 12.033 | 31.084 | 2 |
| 2025-05-11T02:44:00 | 54.648203 | 8.037884 | 2.0 | 11.870 | 2 | 35.991 | 12.034 | 31.085 | 2 |
| 2025-05-11T02:45:00 | 54.647397 | 8.038825 | 2.0 | 11.870 | 2 | 35.992 | 12.034 | 31.086 | 2 |
| 2025-05-11T02:46:00 | 54.646716 | 8.039986 | 2.0 | 11.869 | 2 | 35.991 | 12.032 | 31.086 | 2 |
| 2025-05-11T02:47:00 | 54.646214 | 8.041379 | 2.0 | 11.867 | 2 | 35.989 | 12.031 | 31.085 | 2 |
| 2025-05-11T02:48:00 | 54.645910 | 8.042949 | 2.0 | 11.865 | 2 | 35.986 | 12.031 | 31.083 | 2 |
| 2025-05-11T02:49:00 | 54.645784 | 8.044636 | 2.0 | 11.865 | 2 | 35.973 | 12.029 | 31.072 | 2 |
| 2025-05-11T02:50:00 | 54.645713 | 8.046340 | 2.0 | 11.859 | 2 | 35.973 | 12.028 | 31.073 | 2 |
| 2025-05-11T02:51:00 | 54.645614 | 8.048048 | 2.0 | 11.853 | 2 | 35.936 | 12.023 | 31.041 | 2 |
| 2025-05-11T02:52:00 | 54.645521 | 8.049764 | 2.0 | 11.843 | 2 | 35.946 | 12.016 | 31.057 | 2 |
| 2025-05-11T02:53:00 | 54.645424 | 8.051486 | 2.0 | 11.832 | 2 | 35.930 | 12.007 | 31.049 | 2 |
| 2025-05-11T02:54:00 | 54.645331 | 8.053208 | 2.0 | 11.822 | 2 | 35.927 | 11.996 | 31.055 | 2 |
| 2025-05-11T02:55:00 | 54.645244 | 8.054929 | 2.0 | 11.819 | 2 | 35.912 | 11.986 | 31.049 | 2 |
| 2025-05-11T02:56:00 | 54.645156 | 8.056646 | 2.0 | 11.821 | 2 | 35.903 | 11.984 | 31.042 | 2 |
| 2025-05-11T02:57:00 | 54.645072 | 8.058354 | 2.0 | 11.830 | 2 | 35.898 | 11.987 | 31.035 | 2 |
| 2025-05-11T02:58:00 | 54.644993 | 8.060047 | 2.0 | 11.841 | 2 | 35.901 | 11.996 | 31.030 | 2 |
| 2025-05-11T02:59:00 | 54.644911 | 8.061722 | 2.0 | 11.849 | 2 | 35.903 | 12.006 | 31.024 | 2 |
| 2025-05-11T03:00:00 | 54.644812 | 8.063399 | 2.0 | 11.859 | 2 | 35.901 | 12.015 | 31.014 | 2 |
| 2025-05-11T03:01:00 | 54.644707 | 8.065072 | 2.0 | 11.871 | 2 | 35.912 | 12.024 | 31.017 | 2 |
| 2025-05-11T03:02:00 | 54.644616 | 8.066748 | 2.0 | 11.886 | 2 | 35.919 | 12.037 | 31.013 | 2 |
| 2025-05-11T03:03:00 | 54.644533 | 8.068423 | 2.0 | 11.900 | 2 | 35.921 | 12.051 | 31.004 | 2 |
| 2025-05-11T03:04:00 | 54.644446 | 8.070093 | 2.0 | 11.919 | 2 | 35.925 | 12.066 | 30.995 | 2 |
| 2025-05-11T03:05:00 | 54.644356 | 8.071766 | 2.0 | 11.941 | 2 | 35.930 | 12.086 | 30.983 | 2 |
| 2025-05-11T03:06:00 | 54.644262 | 8.073447 | 2.0 | 11.959 | 2 | 35.936 | 12.106 | 30.972 | 2 |
| 2025-05-11T03:07:00 | 54.644166 | 8.075135 | 2.0 | 11.968 | 2 | 35.938 | 12.123 | 30.960 | 2 |
| 2025-05-11T03:08:00 | 54.644066 | 8.076825 | 2.0 | 11.967 | 2 | 35.931 | 12.130 | 30.948 | 2 |
| 2025-05-11T03:09:00 | 54.643969 | 8.078524 | 2.0 | 11.961 | 2 | 35.916 | 12.130 | 30.933 | 2 |
| 2025-05-11T03:10:00 | 54.643882 | 8.080247 | 2.0 | 11.952 | 2 | 35.893 | 12.122 | 30.918 | 2 |
| 2025-05-11T03:11:00 | 54.643819 | 8.081984 | 2.0 | 11.949 | 2 | 35.866 | 12.115 | 30.898 | 2 |
| 2025-05-11T03:12:00 | 54.643754 | 8.083723 | 2.0 | 11.948 | 2 | 35.840 | 12.112 | 30.875 | 2 |
| 2025-05-11T03:13:00 | 54.643664 | 8.085464 | 2.0 | 11.955 | 2 | 35.814 | 12.113 | 30.850 | 2 |
| 2025-05-11T03:14:00 | 54.643546 | 8.087207 | 2.0 | 11.965 | 2 | 35.776 | 12.120 | 30.808 | 2 |
| 2025-05-11T03:15:00 | 54.643426 | 8.088960 | 2.0 | 11.979 | 2 | 35.775 | 12.131 | 30.798 | 2 |
| 2025-05-11T03:16:00 | 54.643336 | 8.090701 | 2.0 | 11.987 | 2 | 35.668 | 12.144 | 30.685 | 2 |
| 2025-05-11T03:17:00 | 54.643250 | 8.092438 | 2.0 | 11.994 | 2 | 35.537 | 12.152 | 30.553 | 2 |
| 2025-05-11T03:18:00 | 54.643151 | 8.094184 | 2.0 | 11.997 | 2 | 35.636 | 12.157 | 30.643 | 2 |
| 2025-05-11T03:19:00 | 54.643050 | 8.095937 | 2.0 | 11.990 | 2 | 35.645 | 12.159 | 30.650 | 2 |
| 2025-05-11T03:20:00 | 54.642959 | 8.097673 | 2.0 | 11.989 | 2 | 35.699 | 12.154 | 30.706 | 2 |
| 2025-05-11T03:21:00 | 54.642869 | 8.099404 | 2.0 | 11.989 | 2 | 35.654 | 12.152 | 30.665 | 2 |
| 2025-05-11T03:22:00 | 54.642776 | 8.101127 | 2.0 | 11.991 | 2 | 35.616 | 12.151 | 30.629 | 2 |
| 2025-05-11T03:23:00 | 54.642703 | 8.102840 | 2.0 | 11.996 | 2 | 35.653 | 12.155 | 30.661 | 2 |
| 2025-05-11T03:24:00 | 54.642619 | 8.104536 | 2.0 | 12.006 | 2 | 35.694 | 12.161 | 30.696 | 2 |
| 2025-05-11T03:25:00 | 54.642529 | 8.106224 | 2.0 | 12.015 | 2 | 35.677 | 12.169 | 30.673 | 2 |
| 2025-05-11T03:26:00 | 54.642441 | 8.107902 | 2.0 | 12.023 | 2 | 35.674 | 12.178 | 30.663 | 2 |
| 2025-05-11T03:27:00 | 54.642333 | 8.109579 | 2.0 | 12.032 | 2 | 35.690 | 12.187 | 30.670 | 2 |
| 2025-05-11T03:28:00 | 54.642235 | 8.111258 | 2.0 | 12.038 | 2 | 35.653 | 12.195 | 30.629 | 2 |
| 2025-05-11T03:29:00 | 54.642156 | 8.112946 | 2.0 | 12.046 | 2 | 35.698 | 12.201 | 30.667 | 2 |
| 2025-05-11T03:30:00 | 54.642069 | 8.114636 | 2.0 | 12.052 | 2 | 35.737 | 12.209 | 30.697 | 2 |
| 2025-05-11T03:31:00 | 54.641984 | 8.116319 | 2.0 | 12.062 | 2 | 35.764 | 12.216 | 30.717 | 2 |
| 2025-05-11T03:32:00 | 54.641894 | 8.118001 | 2.0 | 12.067 | 2 | 35.758 | 12.225 | 30.704 | 2 |
| 2025-05-11T03:33:00 | 54.641802 | 8.119691 | 2.0 | 12.077 | 2 | 35.754 | 12.232 | 30.695 | 2 |
| 2025-05-11T03:34:00 | 54.641696 | 8.121390 | 2.0 | 12.085 | 2 | 35.780 | 12.241 | 30.712 | 2 |
| 2025-05-11T03:35:00 | 54.641595 | 8.123084 | 2.0 | 12.094 | 2 | 35.795 | 12.248 | 30.721 | 2 |
| 2025-05-11T03:36:00 | 54.641500 | 8.124780 | 2.0 | 12.108 | 2 | 35.816 | 12.258 | 30.732 | 2 |
| 2025-05-11T03:37:00 | 54.641419 | 8.126470 | 2.0 | 12.130 | 2 | 35.808 | 12.274 | 30.712 | 2 |
| 2025-05-11T03:38:00 | 54.641348 | 8.128151 | 2.0 | 12.163 | 2 | 35.839 | 12.299 | 30.721 | 2 |
| 2025-05-11T03:39:00 | 54.641263 | 8.129819 | 2.0 | 12.183 | 2 | 35.855 | 12.326 | 30.714 | 2 |
| 2025-05-11T03:40:00 | 54.641166 | 8.131487 | 2.0 | 12.199 | 2 | 35.867 | 12.347 | 30.708 | 2 |
| 2025-05-11T03:41:00 | 54.641073 | 8.133143 | 2.0 | 12.204 | 2 | 35.854 | 12.361 | 30.684 | 2 |
| 2025-05-11T03:42:00 | 54.640975 | 8.134806 | 2.0 | 12.205 | 2 | 35.849 | 12.365 | 30.676 | 2 |
| 2025-05-11T03:43:00 | 54.640908 | 8.136472 | 2.0 | 12.285 | 2 | 35.823 | 12.376 | 30.642 | 2 |
| 2025-05-11T03:44:00 | 54.640868 | 8.138123 | 2.0 | 12.341 | 2 | 35.820 | 12.456 | 30.574 | 2 |
| 2025-05-11T03:45:00 | 54.640755 | 8.139705 | 2.0 | 12.371 | 2 | 35.836 | 12.505 | 30.550 | 2 |
| 2025-05-11T03:46:00 | 54.640622 | 8.141303 | 2.0 | 12.397 | 2 | 35.854 | 12.534 | 30.543 | 2 |
| 2025-05-11T03:47:00 | 54.640510 | 8.142929 | 2.0 | 12.412 | 2 | 35.863 | 12.558 | 30.532 | 2 |
| 2025-05-11T03:48:00 | 54.640411 | 8.144598 | 2.0 | 12.423 | 2 | 35.871 | 12.574 | 30.527 | 2 |
| 2025-05-11T03:49:00 | 54.640332 | 8.146285 | 2.0 | 12.421 | 2 | 35.869 | 12.582 | 30.519 | 2 |
| 2025-05-11T03:50:00 | 54.640278 | 8.147988 | 2.0 | 12.423 | 2 | 35.852 | 12.582 | 30.502 | 2 |
| 2025-05-11T03:51:00 | 54.640219 | 8.149709 | 2.0 | 12.437 | 2 | 35.837 | 12.583 | 30.488 | 2 |
| 2025-05-11T03:52:00 | 54.640132 | 8.151481 | 2.0 | 12.489 | 2 | 35.822 | 12.604 | 30.456 | 2 |
| 2025-05-11T03:53:00 | 54.640023 | 8.153476 | 2.0 | 12.515 | 2 | 35.819 | 12.653 | 30.414 | 2 |
| 2025-05-11T03:54:00 | 54.639692 | 8.155681 | 2.0 | 12.520 | 2 | 35.823 | 12.673 | 30.402 | 2 |
| 2025-05-11T03:55:00 | 54.638460 | 8.157467 | 2.0 | 12.535 | 2 | 35.825 | 12.682 | 30.396 | 2 |
| 2025-05-11T03:56:00 | 54.636684 | 8.157158 | 2.0 | 12.552 | 2 | 35.822 | 12.698 | 30.381 | 2 |
| 2025-05-11T03:57:00 | 54.635788 | 8.154818 | 2.0 | 12.543 | 2 | 35.822 | 12.710 | 30.371 | 2 |
| 2025-05-11T03:58:00 | 54.635957 | 8.151919 | 2.0 | 12.500 | 2 | 35.826 | 12.696 | 30.386 | 2 |
| 2025-05-11T03:59:00 | 54.636302 | 8.148041 | 2.0 | 12.448 | 2 | 35.814 | 12.656 | 30.407 | 2 |
| 2025-05-11T04:00:00 | 54.636699 | 8.143483 | 2.0 | 12.420 | 2 | 35.839 | 12.607 | 30.470 | 2 |
| 2025-05-11T04:01:00 | 54.637159 | 8.138725 | 2.0 | 12.398 | 2 | 35.530 | 12.583 | 30.198 | 2 |
| 2025-05-11T04:02:00 | 54.637580 | 8.133869 | 2.0 | 12.328 | 2 | 35.851 | 12.555 | 30.523 | 2 |
| 2025-05-11T04:03:00 | 54.638010 | 8.129048 | 2.0 | 12.205 | 2 | 35.852 | 12.463 | 30.599 | 2 |
| 2025-05-11T04:04:00 | 54.638336 | 8.124230 | 2.0 | 12.175 | 2 | 35.366 | 12.375 | 30.210 | 2 |
| 2025-05-11T04:05:00 | 54.638677 | 8.119434 | 2.0 | 12.119 | 2 | 35.844 | 12.336 | 30.695 | 2 |
| 2025-05-11T04:06:00 | 54.639090 | 8.114690 | 2.0 | 12.094 | 2 | 35.839 | 12.286 | 30.731 | 2 |
| 2025-05-11T04:07:00 | 54.639476 | 8.109951 | 2.0 | 12.072 | 2 | 35.653 | 12.258 | 30.577 | 2 |
| 2025-05-11T04:08:00 | 54.639890 | 8.105226 | 2.0 | 12.062 | 2 | 35.508 | 12.239 | 30.454 | 2 |
| 2025-05-11T04:09:00 | 54.640291 | 8.100479 | 2.0 | 12.053 | 2 | 35.375 | 12.228 | 30.337 | 2 |
| 2025-05-11T04:10:00 | 54.640712 | 8.095728 | 2.0 | 12.030 | 2 | 35.533 | 12.217 | 30.496 | 2 |
| 2025-05-11T04:11:00 | 54.641100 | 8.090951 | 2.0 | 12.008 | 2 | 35.745 | 12.192 | 30.719 | 2 |
| 2025-05-11T04:12:00 | 54.641501 | 8.086186 | 2.0 | 12.007 | 2 | 35.439 | 12.174 | 30.442 | 2 |
| 2025-05-11T04:13:00 | 54.641872 | 8.081411 | 2.0 | 12.019 | 2 | 35.536 | 12.177 | 30.532 | 2 |
| 2025-05-11T04:14:00 | 54.642309 | 8.076659 | 2.0 | 12.003 | 2 | 35.576 | 12.182 | 30.566 | 2 |
| 2025-05-11T04:15:00 | 54.642739 | 8.071906 | 2.0 | 11.975 | 2 | 35.547 | 12.164 | 30.553 | 2 |
| 2025-05-11T04:16:00 | 54.643115 | 8.067102 | 2.0 | 11.948 | 2 | 35.655 | 12.137 | 30.678 | 2 |
| 2025-05-11T04:17:00 | 54.643511 | 8.062279 | 2.0 | 11.955 | 2 | 35.667 | 12.117 | 30.706 | 2 |
| 2025-05-11T04:18:00 | 54.643904 | 8.057459 | 2.0 | 11.959 | 2 | 35.703 | 12.124 | 30.735 | 2 |
| 2025-05-11T04:19:00 | 54.644357 | 8.052680 | 2.0 | 11.924 | 2 | 35.700 | 12.122 | 30.733 | 2 |
| 2025-05-11T04:20:00 | 54.644715 | 8.047879 | 2.0 | 11.886 | 2 | 35.818 | 12.086 | 30.876 | 2 |
| 2025-05-11T04:21:00 | 54.645101 | 8.043097 | 2.0 | 11.857 | 2 | 35.906 | 12.049 | 30.991 | 2 |
| 2025-05-11T04:22:00 | 54.645526 | 8.038358 | 2.0 | 11.832 | 2 | 35.871 | 12.021 | 30.980 | 2 |
| 2025-05-11T04:23:00 | 54.645894 | 8.033625 | 2.0 | 11.819 | 2 | 35.907 | 11.997 | 31.035 | 2 |
| 2025-05-11T04:24:00 | 54.646318 | 8.028927 | 2.0 | 11.834 | 2 | 35.848 | 11.990 | 30.984 | 2 |
| 2025-05-11T04:25:00 | 54.646730 | 8.024231 | 2.0 | 11.853 | 2 | 35.671 | 12.004 | 30.803 | 2 |
| 2025-05-11T04:26:00 | 54.647124 | 8.019520 | 2.0 | 11.863 | 2 | 35.901 | 12.020 | 31.010 | 2 |
| 2025-05-11T04:27:00 | 54.647540 | 8.014806 | 2.0 | 11.864 | 2 | 35.785 | 12.028 | 30.892 | 2 |
| 2025-05-11T04:28:00 | 54.647932 | 8.010082 | 2.0 | 11.866 | 2 | 35.977 | 12.030 | 31.075 | 2 |
| 2025-05-11T04:29:00 | 54.648336 | 8.005352 | 2.0 | 11.869 | 2 | 35.919 | 12.033 | 31.017 | 2 |
| 2025-05-11T04:30:00 | 54.648727 | 8.000606 | 2.0 | 11.874 | 2 | 35.748 | 12.036 | 30.850 | 2 |
| 2025-05-11T04:31:00 | 54.649120 | 7.995837 | 2.0 | 11.880 | 2 | 35.813 | 12.041 | 30.908 | 2 |
| 2025-05-11T04:32:00 | 54.649532 | 7.991064 | 2.0 | 11.882 | 2 | 35.862 | 12.047 | 30.950 | 2 |
| 2025-05-11T04:33:00 | 54.649926 | 7.986271 | 2.0 | 11.881 | 2 | 35.872 | 12.048 | 30.959 | 2 |
| 2025-05-11T04:34:00 | 54.650338 | 7.981487 | 2.0 | 11.885 | 2 | 35.896 | 12.048 | 30.982 | 2 |
| 2025-05-11T04:35:00 | 54.650745 | 7.976701 | 2.0 | 11.895 | 2 | 35.667 | 12.052 | 30.759 | 2 |
| 2025-05-11T04:36:00 | 54.651122 | 7.971907 | 2.0 | 11.907 | 2 | 35.811 | 12.062 | 30.889 | 2 |
| 2025-05-11T04:37:00 | 54.651500 | 7.967123 | 2.0 | 11.918 | 2 | 35.794 | 12.073 | 30.864 | 2 |
| 2025-05-11T04:38:00 | 54.651930 | 7.962378 | 2.0 | 11.917 | 2 | 35.761 | 12.082 | 30.825 | 2 |
| 2025-05-11T04:39:00 | 54.652340 | 7.957635 | 2.0 | 11.907 | 2 | 35.834 | 12.081 | 30.895 | 2 |
| 2025-05-11T04:40:00 | 54.652735 | 7.952874 | 2.0 | 11.893 | 2 | 35.814 | 12.072 | 30.884 | 2 |
| 2025-05-11T04:41:00 | 54.653142 | 7.948120 | 2.0 | 11.879 | 2 | 35.808 | 12.058 | 30.889 | 2 |
| 2025-05-11T04:42:00 | 54.653538 | 7.943375 | 2.0 | 11.876 | 2 | 35.827 | 12.046 | 30.918 | 2 |
| 2025-05-11T04:43:00 | 54.653928 | 7.938610 | 2.0 | 11.898 | 2 | 35.816 | 12.044 | 30.909 | 2 |
| 2025-05-11T04:44:00 | 54.654332 | 7.933860 | 2.0 | 11.968 | 2 | 35.836 | 12.075 | 30.902 | 2 |
| 2025-05-11T04:45:00 | 54.654734 | 7.929104 | 2.0 | 12.046 | 2 | 35.884 | 12.148 | 30.888 | 2 |
| 2025-05-11T04:46:00 | 54.655170 | 7.924363 | 2.0 | 12.077 | 2 | 35.920 | 12.212 | 30.869 | 2 |
| 2025-05-11T04:47:00 | 54.655540 | 7.919604 | 2.0 | 12.097 | 2 | 35.919 | 12.242 | 30.844 | 2 |
| 2025-05-11T04:48:00 | 54.655938 | 7.914844 | 2.0 | 12.105 | 2 | 35.981 | 12.261 | 30.887 | 2 |
| 2025-05-11T04:49:00 | 54.656345 | 7.910073 | 2.0 | 12.111 | 2 | 35.963 | 12.269 | 30.863 | 2 |
| 2025-05-11T04:50:00 | 54.656759 | 7.905315 | 2.0 | 12.125 | 2 | 35.999 | 12.277 | 30.891 | 2 |
| 2025-05-11T04:51:00 | 54.657184 | 7.900564 | 2.0 | 12.139 | 2 | 36.014 | 12.291 | 30.894 | 2 |
| 2025-05-11T04:52:00 | 54.657524 | 7.895787 | 2.0 | 12.128 | 2 | 36.040 | 12.301 | 30.910 | 2 |
| 2025-05-11T04:53:00 | 54.657929 | 7.891023 | 2.0 | 12.080 | 2 | 36.026 | 12.284 | 30.911 | 2 |
| 2025-05-11T04:54:00 | 54.658334 | 7.886257 | 2.0 | 12.039 | 2 | 35.972 | 12.239 | 30.897 | 2 |
| 2025-05-11T04:55:00 | 54.658748 | 7.881475 | 2.0 | 12.005 | 2 | 35.946 | 12.202 | 30.902 | 2 |
| 2025-05-11T04:56:00 | 54.659139 | 7.876654 | 2.0 | 11.960 | 2 | 35.930 | 12.166 | 30.917 | 2 |
| 2025-05-11T04:57:00 | 54.659569 | 7.871844 | 2.0 | 11.910 | 2 | 35.892 | 12.121 | 30.918 | 2 |
| 2025-05-11T04:58:00 | 54.659957 | 7.867030 | 2.0 | 11.859 | 2 | 35.882 | 12.070 | 30.950 | 2 |
| 2025-05-11T04:59:00 | 54.660362 | 7.862213 | 2.0 | 11.813 | 2 | 35.862 | 12.021 | 30.972 | 2 |
| 2025-05-11T05:00:00 | 54.660774 | 7.857405 | 2.0 | 11.771 | 2 | 35.867 | 11.976 | 31.014 | 2 |
| 2025-05-11T05:01:00 | 54.661177 | 7.852604 | 2.0 | 11.706 | 2 | 35.486 | 11.932 | 30.685 | 2 |
| 2025-05-11T05:02:00 | 54.661548 | 7.847794 | 2.0 | 11.621 | 2 | 35.470 | 11.863 | 30.726 | 2 |
| 2025-05-11T05:03:00 | 54.661932 | 7.842998 | 2.0 | 11.597 | 2 | 35.169 | 11.793 | 30.494 | 2 |
| 2025-05-11T05:04:00 | 54.662377 | 7.838254 | 2.0 | 11.582 | 2 | 35.612 | 11.766 | 30.943 | 2 |
| 2025-05-11T05:05:00 | 54.662773 | 7.833508 | 2.0 | 11.565 | 2 | 35.519 | 11.749 | 30.868 | 2 |
| 2025-05-11T05:06:00 | 54.663161 | 7.828762 | 2.0 | 11.539 | 2 | 35.544 | 11.731 | 30.907 | 2 |
| 2025-05-11T05:07:00 | 54.663576 | 7.824039 | 2.0 | 11.495 | 2 | 35.655 | 11.704 | 31.036 | 2 |
| 2025-05-11T05:08:00 | 54.664003 | 7.819345 | 2.0 | 11.446 | 2 | 35.690 | 11.659 | 31.108 | 2 |
| 2025-05-11T05:09:00 | 54.664378 | 7.814648 | 2.0 | 11.423 | 2 | 35.540 | 11.615 | 31.000 | 2 |
| 2025-05-11T05:10:00 | 54.664790 | 7.809974 | 2.0 | 11.406 | 2 | 35.536 | 11.591 | 31.016 | 2 |
| 2025-05-11T05:11:00 | 54.665206 | 7.805308 | 2.0 | 11.382 | 2 | 35.720 | 11.574 | 31.208 | 2 |
| 2025-05-11T05:12:00 | 54.665573 | 7.800625 | 2.0 | 11.351 | 2 | 35.741 | 11.547 | 31.252 | 2 |
| 2025-05-11T05:13:00 | 54.665955 | 7.795964 | 2.0 | 11.333 | 2 | 35.594 | 11.518 | 31.133 | 2 |
| 2025-05-11T05:14:00 | 54.666387 | 7.791339 | 2.0 | 11.326 | 2 | 35.606 | 11.503 | 31.158 | 2 |
| 2025-05-11T05:15:00 | 54.666756 | 7.786693 | 2.0 | 11.315 | 2 | 35.610 | 11.492 | 31.171 | 2 |
| 2025-05-11T05:16:00 | 54.667124 | 7.782053 | 2.0 | 11.313 | 2 | 35.744 | 11.485 | 31.307 | 2 |
| 2025-05-11T05:17:00 | 54.667510 | 7.777415 | 2.0 | 11.307 | 2 | 35.710 | 11.482 | 31.276 | 2 |
| 2025-05-11T05:18:00 | 54.667885 | 7.772754 | 2.0 | 11.294 | 2 | 35.510 | 11.475 | 31.088 | 2 |
| 2025-05-11T05:19:00 | 54.668318 | 7.768043 | 2.0 | 11.274 | 2 | 35.637 | 11.460 | 31.224 | 2 |
| 2025-05-11T05:20:00 | 54.668704 | 7.763267 | 2.0 | 11.246 | 2 | 35.679 | 11.440 | 31.282 | 2 |
| 2025-05-11T05:21:00 | 54.669089 | 7.758474 | 2.0 | 11.216 | 2 | 35.564 | 11.413 | 31.192 | 2 |
| 2025-05-11T05:22:00 | 54.669511 | 7.753696 | 2.0 | 11.189 | 2 | 35.605 | 11.384 | 31.257 | 2 |
| 2025-05-11T05:23:00 | 54.669947 | 7.748921 | 2.0 | 11.163 | 2 | 35.537 | 11.356 | 31.214 | 2 |
| 2025-05-11T05:24:00 | 54.670318 | 7.744135 | 2.0 | 11.135 | 2 | 35.552 | 11.330 | 31.251 | 2 |
| 2025-05-11T05:25:00 | 54.670755 | 7.739375 | 2.0 | 11.107 | 2 | 35.490 | 11.302 | 31.214 | 2 |
| 2025-05-11T05:26:00 | 54.671144 | 7.734598 | 2.0 | 11.099 | 2 | 35.448 | 11.277 | 31.194 | 2 |
| 2025-05-11T05:27:00 | 54.671518 | 7.729819 | 2.0 | 11.086 | 2 | 35.441 | 11.270 | 31.193 | 2 |
| 2025-05-11T05:28:00 | 54.671898 | 7.725044 | 2.0 | 11.076 | 2 | 35.502 | 11.255 | 31.266 | 2 |
| 2025-05-11T05:29:00 | 54.672315 | 7.720293 | 2.0 | 11.073 | 2 | 35.554 | 11.246 | 31.324 | 2 |
| 2025-05-11T05:30:00 | 54.672711 | 7.715551 | 2.0 | 11.059 | 2 | 35.553 | 11.241 | 31.327 | 2 |
| 2025-05-11T05:31:00 | 54.673116 | 7.710833 | 2.0 | 11.045 | 2 | 35.598 | 11.229 | 31.382 | 2 |
| 2025-05-11T05:32:00 | 54.673490 | 7.706127 | 2.0 | 11.039 | 2 | 35.594 | 11.215 | 31.390 | 2 |
| 2025-05-11T05:33:00 | 54.673898 | 7.701437 | 2.0 | 11.020 | 2 | 35.515 | 11.208 | 31.318 | 2 |
| 2025-05-11T05:34:00 | 54.674278 | 7.696744 | 2.0 | 10.981 | 2 | 35.593 | 11.185 | 31.414 | 2 |
| 2025-05-11T05:35:00 | 54.674671 | 7.692057 | 2.0 | 10.907 | 2 | 35.564 | 11.142 | 31.422 | 2 |
| 2025-05-11T05:36:00 | 54.675054 | 7.687364 | 2.0 | 10.812 | 2 | 35.559 | 11.065 | 31.483 | 2 |
| 2025-05-11T05:37:00 | 54.675455 | 7.682695 | 2.0 | 10.777 | 2 | 35.557 | 10.981 | 31.554 | 2 |
| 2025-05-11T05:38:00 | 54.675870 | 7.678062 | 2.0 | 10.794 | 2 | 35.529 | 10.957 | 31.547 | 2 |
| 2025-05-11T05:39:00 | 54.676244 | 7.673443 | 2.0 | 10.803 | 2 | 35.562 | 10.970 | 31.568 | 2 |
| 2025-05-11T05:40:00 | 54.676623 | 7.668836 | 2.0 | 10.796 | 2 | 35.570 | 10.972 | 31.574 | 2 |
| 2025-05-11T05:41:00 | 54.677005 | 7.664224 | 2.0 | 10.780 | 2 | 35.600 | 10.966 | 31.609 | 2 |
| 2025-05-11T05:42:00 | 54.677390 | 7.659617 | 2.0 | 10.721 | 2 | 35.590 | 10.945 | 31.617 | 2 |
| 2025-05-11T05:43:00 | 54.677785 | 7.655015 | 2.0 | 10.713 | 2 | 35.574 | 10.890 | 31.649 | 2 |
| 2025-05-11T05:44:00 | 54.678184 | 7.650421 | 2.0 | 10.704 | 2 | 35.574 | 10.886 | 31.652 | 2 |
| 2025-05-11T05:45:00 | 54.678551 | 7.645823 | 2.0 | 10.709 | 2 | 35.615 | 10.876 | 31.701 | 2 |
| 2025-05-11T05:46:00 | 54.678992 | 7.641263 | 2.0 | 10.841 | 2 | 35.617 | 10.903 | 31.680 | 2 |
| 2025-05-11T05:47:00 | 54.679345 | 7.636702 | 2.0 | 11.017 | 2 | 35.718 | 11.038 | 31.663 | 2 |
| 2025-05-11T05:48:00 | 54.679700 | 7.632141 | 2.0 | 11.063 | 2 | 35.852 | 11.180 | 31.673 | 2 |
| 2025-05-11T05:49:00 | 54.680087 | 7.627578 | 2.0 | 11.073 | 2 | 35.949 | 11.231 | 31.724 | 2 |
| 2025-05-11T05:50:00 | 54.680469 | 7.623002 | 2.0 | 11.026 | 2 | 35.950 | 11.214 | 31.739 | 2 |
| 2025-05-11T05:51:00 | 54.680845 | 7.618435 | 2.0 | 10.974 | 2 | 35.946 | 11.188 | 31.758 | 2 |
| 2025-05-11T05:52:00 | 54.681258 | 7.613885 | 2.0 | 10.952 | 2 | 35.900 | 11.139 | 31.755 | 2 |
| 2025-05-11T05:53:00 | 54.681660 | 7.609334 | 2.0 | 10.979 | 2 | 35.944 | 11.133 | 31.803 | 2 |
| 2025-05-11T05:54:00 | 54.682070 | 7.604779 | 2.0 | 11.021 | 2 | 35.942 | 11.152 | 31.785 | 2 |
| 2025-05-11T05:55:00 | 54.682458 | 7.600222 | 2.0 | 11.336 | 2 | 36.019 | 11.230 | 31.793 | 2 |
| 2025-05-11T05:56:00 | 54.682812 | 7.595682 | 2.0 | 11.435 | 2 | 36.260 | 11.520 | 31.779 | 2 |
| 2025-05-11T05:57:00 | 54.683026 | 7.591159 | 2.0 | 11.409 | 2 | 36.352 | 11.581 | 31.817 | 2 |
| 2025-05-11T05:58:00 | 54.682911 | 7.586672 | 2.0 | 11.434 | 2 | 36.337 | 11.580 | 31.803 | 2 |
| 2025-05-11T05:59:00 | 54.682622 | 7.583162 | 2.0 | 11.457 | 2 | 36.338 | 11.606 | 31.782 | 2 |
| 2025-05-11T06:00:00 | 54.682226 | 7.580659 | 2.0 | 11.457 | 2 | 36.341 | 11.635 | 31.760 | 2 |
| 2025-05-11T06:01:00 | 54.681347 | 7.580263 | 2.0 | 11.445 | 2 | 36.367 | 11.635 | 31.785 | 2 |
| 2025-05-11T06:02:00 | 54.680520 | 7.580405 | 2.0 | 11.451 | 2 | 36.367 | 11.627 | 31.792 | 2 |
| 2025-05-11T06:03:00 | 54.680168 | 7.581263 | 2.0 | 11.438 | 2 | 36.372 | 11.634 | 31.791 | 2 |
| 2025-05-11T06:04:00 | 54.680246 | 7.582417 | 2.0 | 11.286 | 2 | 36.333 | 11.605 | 31.778 | 2 |
| 2025-05-11T06:05:00 | 54.680627 | 7.582992 | 2.0 | 11.381 | 2 | 36.289 | 11.477 | 31.845 | 2 |
| 2025-05-11T06:06:00 | 54.681137 | 7.582866 | 2.0 | 11.414 | 2 | 36.306 | 11.555 | 31.794 | 2 |
| 2025-05-11T06:07:00 | 54.681627 | 7.582366 | 2.0 | 11.155 | 2 | 36.331 | 11.574 | 31.802 | 2 |
| 2025-05-11T06:08:00 | 54.682277 | 7.581891 | 2.0 | 11.460 | 2 | 36.197 | 11.359 | 31.856 | 2 |
| 2025-05-11T06:09:00 | 54.682940 | 7.581450 | 2.0 | 11.476 | 2 | 36.353 | 11.624 | 31.781 | 2 |
| 2025-05-11T06:10:00 | 54.683464 | 7.581483 | 2.0 | 11.474 | 2 | 36.394 | 11.661 | 31.789 | 2 |
| 2025-05-11T06:11:00 | 54.683619 | 7.581971 | 2.0 | 11.479 | 2 | 36.385 | 11.660 | 31.781 | 2 |
| 2025-05-11T06:12:00 | 54.683611 | 7.582503 | 2.0 | 11.499 | 2 | 36.399 | 11.670 | 31.786 | 2 |
| 2025-05-11T06:13:00 | 54.683543 | 7.582779 | 2.0 | 11.489 | 2 | 36.407 | 11.683 | 31.783 | 2 |
| 2025-05-11T06:14:00 | 54.683435 | 7.582906 | 2.0 | 11.453 | 2 | 36.393 | 11.663 | 31.786 | 2 |
| 2025-05-11T06:15:00 | 54.683298 | 7.582946 | 2.0 | 11.388 | 2 | 36.383 | 11.645 | 31.792 | 2 |
| 2025-05-11T06:16:00 | 54.683166 | 7.583011 | 2.0 | 11.054 | 2 | 36.288 | 11.494 | 31.829 | 2 |
| 2025-05-11T06:17:00 | 54.683171 | 7.583019 | 2.0 | 11.294 | 2 | 36.150 | 11.289 | 31.871 | 2 |
| 2025-05-11T06:18:00 | 54.683230 | 7.582996 | 2.0 | 11.422 | 2 | 36.200 | 11.518 | 31.723 | 2 |
| 2025-05-11T06:19:00 | 54.683252 | 7.583019 | 2.0 | 11.480 | 2 | 36.342 | 11.618 | 31.775 | 2 |
| 2025-05-11T06:20:00 | 54.683238 | 7.583034 | 2.0 | 11.489 | 2 | 36.391 | 11.673 | 31.776 | 2 |
| 2025-05-11T06:21:00 | 54.683010 | 7.582909 | 2.0 | 11.499 | 2 | 36.392 | 11.682 | 31.769 | 2 |
| 2025-05-11T06:22:00 | 54.683006 | 7.582540 | 2.0 | 11.468 | 2 | 36.413 | 11.693 | 31.780 | 2 |
| 2025-05-11T06:23:00 | 54.683474 | 7.582545 | 2.0 | 11.479 | 2 | 36.380 | 11.663 | 31.774 | 2 |
| 2025-05-11T06:24:00 | 54.684107 | 7.582494 | 2.0 | 11.491 | 2 | 36.147 | 11.676 | 31.536 | 2 |
| 2025-05-11T06:25:00 | 54.684469 | 7.581759 | 2.0 | 11.507 | 2 | 36.216 | 11.691 | 31.591 | 2 |
| 2025-05-11T06:26:00 | 54.684740 | 7.580861 | 2.0 | 11.494 | 2 | 36.405 | 11.699 | 31.767 | 2 |
| 2025-05-11T06:27:00 | 54.684906 | 7.580272 | 2.0 | 11.484 | 2 | 36.220 | 11.673 | 31.610 | 2 |
| 2025-05-11T06:28:00 | 54.684924 | 7.580180 | 2.0 | 11.513 | 2 | 35.800 | 11.680 | 31.197 | 2 |
| 2025-05-11T06:29:00 | 54.685068 | 7.579885 | 2.0 | 11.500 | 2 | 36.187 | 11.707 | 31.549 | 2 |
| 2025-05-11T06:30:00 | 54.685405 | 7.579626 | 2.0 | 11.478 | 2 | 36.393 | 11.695 | 31.759 | 2 |
| 2025-05-11T06:31:00 | 54.685741 | 7.579525 | 2.0 | 11.467 | 2 | 36.062 | 11.677 | 31.453 | 2 |
| 2025-05-11T06:32:00 | 54.686185 | 7.579609 | 2.0 | 11.445 | 2 | 36.108 | 11.659 | 31.513 | 2 |
| 2025-05-11T06:33:00 | 54.686699 | 7.579791 | 2.0 | 11.437 | 2 | 36.274 | 11.639 | 31.691 | 2 |
| 2025-05-11T06:34:00 | 54.686946 | 7.579480 | 2.0 | 11.448 | 2 | 36.186 | 11.640 | 31.605 | 2 |
| 2025-05-11T06:35:00 | 54.687057 | 7.578807 | 2.0 | 11.431 | 2 | 36.178 | 11.644 | 31.594 | 2 |
| 2025-05-11T06:36:00 | 54.687201 | 7.577973 | 2.0 | 11.420 | 2 | 36.080 | 11.627 | 31.513 | 2 |
| 2025-05-11T06:37:00 | 54.687356 | 7.577342 | 2.0 | 11.380 | 2 | 36.204 | 11.613 | 31.645 | 2 |
| 2025-05-11T06:38:00 | 54.687349 | 7.577240 | 2.0 | 11.382 | 2 | 36.095 | 11.565 | 31.580 | 2 |
| 2025-05-11T06:39:00 | 54.687449 | 7.576999 | 2.0 | 11.400 | 2 | 36.246 | 11.585 | 31.710 | 2 |
| 2025-05-11T06:40:00 | 54.687747 | 7.576839 | 2.0 | 11.398 | 2 | 36.199 | 11.597 | 31.654 | 2 |
| 2025-05-11T06:41:00 | 54.687996 | 7.576849 | 2.0 | 11.334 | 2 | 36.208 | 11.581 | 31.677 | 2 |
| 2025-05-11T06:42:00 | 54.688144 | 7.577052 | 2.0 | 11.363 | 2 | 36.149 | 11.540 | 31.654 | 2 |
| 2025-05-11T06:43:00 | 54.688224 | 7.577413 | 2.0 | 11.405 | 2 | 36.074 | 11.568 | 31.557 | 2 |
| 2025-05-11T06:44:00 | 54.688250 | 7.577977 | 2.0 | 11.409 | 2 | 36.311 | 11.606 | 31.755 | 2 |
| 2025-05-11T06:45:00 | 54.688167 | 7.578830 | 2.0 | 11.388 | 2 | 36.050 | 11.598 | 31.509 | 2 |
| 2025-05-11T06:46:00 | 54.688038 | 7.579616 | 2.0 | 11.415 | 2 | 36.177 | 11.593 | 31.636 | 2 |
| 2025-05-11T06:47:00 | 54.688048 | 7.580351 | 2.0 | 11.434 | 2 | 36.111 | 11.617 | 31.552 | 2 |
| 2025-05-11T06:48:00 | 54.688203 | 7.580806 | 2.0 | 11.416 | 2 | 36.208 | 11.619 | 31.644 | 2 |
| 2025-05-11T06:49:00 | 54.688383 | 7.580962 | 2.0 | 11.429 | 2 | 36.281 | 11.606 | 31.726 | 2 |
| 2025-05-11T06:50:00 | 54.688582 | 7.580838 | 2.0 | 11.446 | 2 | 36.266 | 11.618 | 31.701 | 2 |
| 2025-05-11T06:51:00 | 54.688747 | 7.580502 | 2.0 | 11.437 | 2 | 36.157 | 11.622 | 31.592 | 2 |
| 2025-05-11T06:52:00 | 54.688780 | 7.579992 | 2.0 | 11.434 | 2 | 36.147 | 11.620 | 31.584 | 2 |
| 2025-05-11T06:53:00 | 54.688743 | 7.579442 | 2.0 | 11.421 | 2 | 36.112 | 11.612 | 31.557 | 2 |
| 2025-05-11T06:54:00 | 54.688693 | 7.578911 | 2.0 | 11.420 | 2 | 36.161 | 11.601 | 31.614 | 2 |
| 2025-05-11T06:55:00 | 54.688608 | 7.578405 | 2.0 | 11.422 | 2 | 36.179 | 11.602 | 31.630 | 2 |
| 2025-05-11T06:56:00 | 54.688457 | 7.577969 | 2.0 | 11.414 | 2 | 36.198 | 11.598 | 31.652 | 2 |
| 2025-05-11T06:57:00 | 54.688268 | 7.577579 | 2.0 | 11.415 | 2 | 36.154 | 11.590 | 31.616 | 2 |
| 2025-05-11T06:58:00 | 54.688109 | 7.577175 | 2.0 | 11.403 | 2 | 36.127 | 11.591 | 31.589 | 2 |
| 2025-05-11T06:59:00 | 54.688081 | 7.576733 | 2.0 | 11.423 | 2 | 36.203 | 11.584 | 31.669 | 2 |
| 2025-05-11T07:00:00 | 54.688097 | 7.576217 | 2.0 | 11.435 | 2 | 36.209 | 11.599 | 31.662 | 2 |
| 2025-05-11T07:01:00 | 54.688210 | 7.575266 | 2.0 | 11.417 | 2 | 36.186 | 11.608 | 31.632 | 2 |
| 2025-05-11T07:02:00 | 54.688441 | 7.573953 | 2.0 | 11.396 | 2 | 36.186 | 11.587 | 31.650 | 2 |
| 2025-05-11T07:03:00 | 54.688669 | 7.572647 | 2.0 | 11.385 | 2 | 36.121 | 11.573 | 31.599 | 2 |
| 2025-05-11T07:04:00 | 54.688890 | 7.571313 | 2.0 | 11.378 | 2 | 36.200 | 11.554 | 31.692 | 2 |
| 2025-05-11T07:05:00 | 54.689108 | 7.570013 | 2.0 | 11.379 | 2 | 36.196 | 11.558 | 31.685 | 2 |
| 2025-05-11T07:06:00 | 54.689312 | 7.568764 | 2.0 | 11.336 | 2 | 36.127 | 11.544 | 31.629 | 2 |
| 2025-05-11T07:07:00 | 54.689486 | 7.567627 | 2.0 | 11.347 | 2 | 36.161 | 11.514 | 31.688 | 2 |
| 2025-05-11T07:08:00 | 54.689631 | 7.566634 | 2.0 | 11.400 | 2 | 36.112 | 11.527 | 31.629 | 2 |
| 2025-05-11T07:09:00 | 54.689758 | 7.565733 | 2.0 | 11.429 | 2 | 36.176 | 11.574 | 31.651 | 2 |
| 2025-05-11T07:10:00 | 54.689880 | 7.564889 | 2.0 | 11.422 | 2 | 36.232 | 11.603 | 31.681 | 2 |
| 2025-05-11T07:11:00 | 54.689870 | 7.564213 | 2.0 | 11.452 | 2 | 36.180 | 11.596 | 31.637 | 2 |
| 2025-05-11T07:12:00 | 54.689593 | 7.564033 | 2.0 | 11.497 | 2 | 36.282 | 11.641 | 31.697 | 2 |
| 2025-05-11T07:13:00 | 54.689195 | 7.564128 | 2.0 | 11.501 | 2 | 36.309 | 11.667 | 31.701 | 2 |
| 2025-05-11T07:14:00 | 54.688925 | 7.565084 | 2.0 | 11.486 | 2 | 36.283 | 11.665 | 31.678 | 2 |
| 2025-05-11T07:15:00 | 54.688930 | 7.567429 | 2.0 | 11.374 | 2 | 36.251 | 11.633 | 31.674 | 2 |
| 2025-05-11T07:16:00 | 54.689129 | 7.571027 | 2.0 | 11.364 | 2 | 36.207 | 11.537 | 31.713 | 2 |
| 2025-05-11T07:17:00 | 54.690189 | 7.574792 | 2.0 | 11.369 | 2 | 36.206 | 11.533 | 31.716 | 2 |
| 2025-05-11T07:18:00 | 54.692278 | 7.576912 | 2.0 | 11.417 | 2 | 36.250 | 11.556 | 31.739 | 2 |
| 2025-05-11T07:19:00 | 54.694668 | 7.576929 | 2.0 | 11.455 | 2 | 36.254 | 11.594 | 31.710 | 2 |
| 2025-05-11T07:20:00 | 54.697161 | 7.576492 | 2.0 | 11.346 | 2 | 36.237 | 11.597 | 31.691 | 2 |
| 2025-05-11T07:21:00 | 54.699775 | 7.575998 | 2.0 | 11.372 | 2 | 36.198 | 11.527 | 31.713 | 2 |
| 2025-05-11T07:22:00 | 54.702422 | 7.575401 | 2.0 | 11.408 | 2 | 36.193 | 11.551 | 31.688 | 2 |
| 2025-05-11T07:23:00 | 54.705136 | 7.575026 | 2.0 | 11.447 | 2 | 36.225 | 11.589 | 31.686 | 2 |
| 2025-05-11T07:24:00 | 54.707881 | 7.574799 | 2.0 | 11.416 | 2 | 36.238 | 11.612 | 31.679 | 2 |
| 2025-05-11T07:25:00 | 54.710623 | 7.574502 | 2.0 | 11.391 | 2 | 36.215 | 11.585 | 31.680 | 2 |
| 2025-05-11T07:26:00 | 54.713377 | 7.574223 | 2.0 | 11.348 | 2 | 36.182 | 11.560 | 31.669 | 2 |
| 2025-05-11T07:27:00 | 54.716122 | 7.573926 | 2.0 | 11.310 | 2 | 36.160 | 11.518 | 31.684 | 2 |
| 2025-05-11T07:28:00 | 54.718863 | 7.573617 | 2.0 | 11.313 | 2 | 36.150 | 11.488 | 31.700 | 2 |
| 2025-05-11T07:29:00 | 54.721604 | 7.573249 | 2.0 | 11.303 | 2 | 36.127 | 11.483 | 31.682 | 2 |
| 2025-05-11T07:30:00 | 54.724345 | 7.572899 | 2.0 | 11.300 | 2 | 36.108 | 11.475 | 31.670 | 2 |
| 2025-05-11T07:31:00 | 54.727075 | 7.572489 | 2.0 | 11.271 | 2 | 36.098 | 11.471 | 31.664 | 2 |
| 2025-05-11T07:32:00 | 54.729821 | 7.572136 | 2.0 | 11.251 | 2 | 36.081 | 11.447 | 31.668 | 2 |
| 2025-05-11T07:33:00 | 54.732568 | 7.571725 | 2.0 | 11.224 | 2 | 36.061 | 11.419 | 31.672 | 2 |
| 2025-05-11T07:34:00 | 54.735326 | 7.571400 | 2.0 | 11.274 | 2 | 36.046 | 11.413 | 31.662 | 2 |
| 2025-05-11T07:35:00 | 54.738084 | 7.570955 | 2.0 | 11.342 | 2 | 36.078 | 11.461 | 31.653 | 2 |
| 2025-05-11T07:36:00 | 54.740855 | 7.570578 | 2.0 | 11.354 | 2 | 36.088 | 11.517 | 31.614 | 2 |
| 2025-05-11T07:37:00 | 54.743636 | 7.570186 | 2.0 | 11.367 | 2 | 36.117 | 11.524 | 31.637 | 2 |
| 2025-05-11T07:38:00 | 54.746418 | 7.569761 | 2.0 | 11.399 | 2 | 36.123 | 11.544 | 31.625 | 2 |
| 2025-05-11T07:39:00 | 54.749209 | 7.569376 | 2.0 | 11.331 | 2 | 36.158 | 11.567 | 31.640 | 2 |
| 2025-05-11T07:40:00 | 54.752005 | 7.568930 | 2.0 | 11.061 | 2 | 36.109 | 11.433 | 31.707 | 2 |
| 2025-05-11T07:41:00 | 54.754777 | 7.568580 | 2.0 | 11.029 | 2 | 36.002 | 11.251 | 31.759 | 2 |
| 2025-05-11T07:42:00 | 54.757543 | 7.568280 | 2.0 | 10.975 | 2 | 35.974 | 11.199 | 31.776 | 2 |
| 2025-05-11T07:43:00 | 54.760305 | 7.567963 | 2.0 | 10.969 | 2 | 35.966 | 11.154 | 31.807 | 2 |
| 2025-05-11T07:44:00 | 54.763060 | 7.567490 | 2.0 | 11.003 | 2 | 35.987 | 11.154 | 31.828 | 2 |
| 2025-05-11T07:45:00 | 54.765825 | 7.567144 | 2.0 | 11.017 | 2 | 36.018 | 11.183 | 31.833 | 2 |
| 2025-05-11T07:46:00 | 54.768591 | 7.566766 | 2.0 | 11.020 | 2 | 36.040 | 11.195 | 31.844 | 2 |
| 2025-05-11T07:47:00 | 54.771358 | 7.566365 | 2.0 | 11.007 | 2 | 36.048 | 11.198 | 31.849 | 2 |
| 2025-05-11T07:48:00 | 54.774126 | 7.565956 | 2.0 | 10.969 | 2 | 36.054 | 11.176 | 31.874 | 2 |
| 2025-05-11T07:49:00 | 54.776884 | 7.565570 | 2.0 | 10.964 | 2 | 36.058 | 11.146 | 31.904 | 2 |
| 2025-05-11T07:50:00 | 54.779645 | 7.565186 | 2.0 | 10.963 | 2 | 36.062 | 11.141 | 31.913 | 2 |
| 2025-05-11T07:51:00 | 54.782410 | 7.564759 | 2.0 | 10.962 | 2 | 36.069 | 11.138 | 31.922 | 2 |
| 2025-05-11T07:52:00 | 54.785181 | 7.564436 | 2.0 | 10.972 | 2 | 36.082 | 11.140 | 31.933 | 2 |
| 2025-05-11T07:53:00 | 54.787962 | 7.564047 | 2.0 | 10.975 | 2 | 36.104 | 11.151 | 31.945 | 2 |
| 2025-05-11T07:54:00 | 54.790746 | 7.563662 | 2.0 | 10.978 | 2 | 36.127 | 11.150 | 31.969 | 2 |
| 2025-05-11T07:55:00 | 54.793531 | 7.563247 | 2.0 | 11.037 | 2 | 36.152 | 11.165 | 31.980 | 2 |
| 2025-05-11T07:56:00 | 54.796317 | 7.562873 | 2.0 | 11.054 | 2 | 36.209 | 11.213 | 31.995 | 2 |
| 2025-05-11T07:57:00 | 54.799105 | 7.562513 | 2.0 | 11.059 | 2 | 36.237 | 11.230 | 32.007 | 2 |
| 2025-05-11T07:58:00 | 54.801885 | 7.562073 | 2.0 | 11.077 | 2 | 36.252 | 11.237 | 32.016 | 2 |
| 2025-05-11T07:59:00 | 54.804676 | 7.561729 | 2.0 | 11.108 | 2 | 36.277 | 11.254 | 32.026 | 2 |
| 2025-05-11T08:00:00 | 54.807452 | 7.561304 | 2.0 | 11.130 | 2 | 36.322 | 11.286 | 32.042 | 2 |
| 2025-05-11T08:01:00 | 54.810235 | 7.560921 | 2.0 | 11.141 | 2 | 36.360 | 11.305 | 32.063 | 2 |
| 2025-05-11T08:02:00 | 54.813000 | 7.560460 | 2.0 | 11.148 | 2 | 36.368 | 11.312 | 32.065 | 2 |
| 2025-05-11T08:03:00 | 54.815785 | 7.560124 | 2.0 | 11.170 | 2 | 36.386 | 11.324 | 32.072 | 2 |
| 2025-05-11T08:04:00 | 54.818570 | 7.559699 | 2.0 | 11.158 | 2 | 36.462 | 11.343 | 32.130 | 2 |
| 2025-05-11T08:05:00 | 54.821358 | 7.559352 | 2.0 | 11.133 | 2 | 36.522 | 11.326 | 32.203 | 2 |
| 2025-05-11T08:06:00 | 54.824129 | 7.558915 | 2.0 | 11.120 | 2 | 36.565 | 11.314 | 32.256 | 2 |
| 2025-05-11T08:07:00 | 54.826899 | 7.558575 | 2.0 | 11.081 | 2 | 36.651 | 11.292 | 32.360 | 2 |
| 2025-05-11T08:08:00 | 54.829658 | 7.558234 | 2.0 | 11.035 | 2 | 36.662 | 11.246 | 32.411 | 2 |
| 2025-05-11T08:09:00 | 54.832407 | 7.557856 | 2.0 | 11.002 | 2 | 36.630 | 11.208 | 32.413 | 2 |
| 2025-05-11T08:10:00 | 54.835154 | 7.557460 | 2.0 | 10.950 | 2 | 36.593 | 11.169 | 32.411 | 2 |
| 2025-05-11T08:11:00 | 54.837912 | 7.557113 | 2.0 | 10.917 | 2 | 36.546 | 11.122 | 32.406 | 2 |
| 2025-05-11T08:12:00 | 54.840668 | 7.556729 | 2.0 | 10.809 | 2 | 36.492 | 11.068 | 32.400 | 2 |
| 2025-05-11T08:13:00 | 54.843429 | 7.556381 | 2.0 | 10.836 | 2 | 36.402 | 10.997 | 32.374 | 2 |
| 2025-05-11T08:14:00 | 54.846176 | 7.555993 | 2.0 | 10.885 | 2 | 36.413 | 11.018 | 32.366 | 2 |
| 2025-05-11T08:15:00 | 54.848915 | 7.555508 | 2.0 | 10.900 | 2 | 36.448 | 11.065 | 32.359 | 2 |
| 2025-05-11T08:16:00 | 54.851662 | 7.555129 | 2.0 | 10.902 | 2 | 36.151 | 11.075 | 32.058 | 2 |
| 2025-05-11T08:17:00 | 54.854421 | 7.554819 | 2.0 | 10.956 | 2 | 36.468 | 11.088 | 32.359 | 2 |
| 2025-05-11T08:18:00 | 54.857187 | 7.554443 | 2.0 | 11.054 | 2 | 36.400 | 11.146 | 32.241 | 2 |
| 2025-05-11T08:19:00 | 54.859973 | 7.553999 | 2.0 | 11.087 | 2 | 36.304 | 11.228 | 32.075 | 2 |
| 2025-05-11T08:20:00 | 54.862767 | 7.553613 | 2.0 | 11.102 | 2 | 36.453 | 11.266 | 32.188 | 2 |
| 2025-05-11T08:21:00 | 54.865550 | 7.553201 | 2.0 | 11.122 | 2 | 36.749 | 11.276 | 32.470 | 2 |
| 2025-05-11T08:22:00 | 54.868325 | 7.552875 | 2.0 | 11.168 | 2 | 36.650 | 11.301 | 32.351 | 2 |
| 2025-05-11T08:23:00 | 54.871101 | 7.552510 | 2.0 | 11.225 | 2 | 36.826 | 11.348 | 32.482 | 2 |
| 2025-05-11T08:24:00 | 54.873860 | 7.552073 | 2.0 | 11.263 | 2 | 36.874 | 11.401 | 32.483 | 2 |
| 2025-05-11T08:25:00 | 54.876620 | 7.551718 | 2.0 | 11.323 | 2 | 36.618 | 11.441 | 32.197 | 2 |
| 2025-05-11T08:26:00 | 54.879396 | 7.551389 | 2.0 | 11.389 | 2 | 36.890 | 11.497 | 32.414 | 2 |
| 2025-05-11T08:27:00 | 54.882165 | 7.550969 | 2.0 | 11.450 | 2 | 36.796 | 11.565 | 32.263 | 2 |
| 2025-05-11T08:28:00 | 54.884944 | 7.550543 | 2.0 | 11.480 | 2 | 36.704 | 11.620 | 32.126 | 2 |
| 2025-05-11T08:29:00 | 54.887719 | 7.550180 | 2.0 | 11.575 | 2 | 36.836 | 11.663 | 32.217 | 2 |
| 2025-05-11T08:30:00 | 54.890487 | 7.549820 | 2.0 | 11.668 | 2 | 36.901 | 11.761 | 32.195 | 2 |
| 2025-05-11T08:31:00 | 54.893185 | 7.549442 | 2.0 | 11.664 | 2 | 37.147 | 11.828 | 32.375 | 2 |
| 2025-05-11T08:32:00 | 54.895374 | 7.549332 | 2.0 | 11.663 | 2 | 36.981 | 11.829 | 32.213 | 2 |
| 2025-05-11T08:33:00 | 54.897092 | 7.549311 | 2.0 | 11.665 | 2 | 36.966 | 11.829 | 32.199 | 2 |
| 2025-05-11T08:34:00 | 54.898480 | 7.549316 | 2.0 | 11.679 | 2 | 37.028 | 11.835 | 32.254 | 2 |
| 2025-05-11T08:35:00 | 54.899661 | 7.549329 | 2.0 | 11.689 | 2 | 36.866 | 11.847 | 32.087 | 2 |
| 2025-05-11T08:36:00 | 54.900619 | 7.549604 | 2.0 | 11.689 | 2 | 37.074 | 11.861 | 32.276 | 2 |
| 2025-05-11T08:37:00 | 54.900882 | 7.550386 | 2.0 | 11.694 | 2 | 36.964 | 11.869 | 32.162 | 2 |
| 2025-05-11T08:38:00 | 54.900859 | 7.551059 | 2.0 | 11.691 | 2 | 36.778 | 11.876 | 31.976 | 2 |
| 2025-05-11T08:39:00 | 54.900754 | 7.551655 | 2.0 | 11.694 | 2 | 36.420 | 11.875 | 31.631 | 2 |
| 2025-05-11T08:40:00 | 54.900641 | 7.552281 | 2.0 | 11.699 | 2 | 36.744 | 11.878 | 31.942 | 2 |
| 2025-05-11T08:41:00 | 54.900439 | 7.552621 | 2.0 | 11.699 | 2 | 37.088 | 11.885 | 32.269 | 2 |
| 2025-05-11T08:42:00 | 54.900271 | 7.552651 | 2.0 | 11.699 | 2 | 37.006 | 11.887 | 32.188 | 2 |
| 2025-05-11T08:43:00 | 54.900218 | 7.552628 | 2.0 | 11.708 | 2 | 36.873 | 11.887 | 32.059 | 2 |
| 2025-05-11T08:44:00 | 54.900240 | 7.552657 | 2.0 | 11.604 | 2 | 36.855 | 11.891 | 32.038 | 2 |
| 2025-05-11T08:45:00 | 54.900242 | 7.552795 | 2.0 | 11.590 | 2 | 36.926 | 11.788 | 32.196 | 2 |
| 2025-05-11T08:46:00 | 54.900146 | 7.552924 | 2.0 | 11.638 | 2 | 37.019 | 11.796 | 32.279 | 2 |
| 2025-05-11T08:47:00 | 54.899947 | 7.553045 | 2.0 | 11.640 | 2 | 36.852 | 11.830 | 32.088 | 2 |
| 2025-05-11T08:48:00 | 54.899416 | 7.552864 | 2.0 | 11.627 | 2 | 36.772 | 11.829 | 32.011 | 2 |
| 2025-05-11T08:49:00 | 54.898777 | 7.552696 | 2.0 | 11.712 | 2 | 37.066 | 11.838 | 32.288 | 2 |
| 2025-05-11T08:50:00 | 54.898179 | 7.552263 | 2.0 | 11.718 | 2 | 37.029 | 11.905 | 32.194 | 2 |
| 2025-05-11T08:51:00 | 54.897655 | 7.551654 | 2.0 | 11.715 | 2 | 37.133 | 11.912 | 32.289 | 2 |
| 2025-05-11T08:52:00 | 54.897462 | 7.551045 | 2.0 | 11.712 | 2 | 36.971 | 11.911 | 32.133 | 2 |
| 2025-05-11T08:53:00 | 54.897483 | 7.550906 | 2.0 | 11.656 | 2 | 37.043 | 11.902 | 32.210 | 2 |
| 2025-05-11T08:54:00 | 54.897464 | 7.550845 | 2.0 | 11.609 | 2 | 37.095 | 11.830 | 32.323 | 2 |
| 2025-05-11T08:55:00 | 54.897486 | 7.550724 | 2.0 | 11.683 | 2 | 36.886 | 11.809 | 32.139 | 2 |
| 2025-05-11T08:56:00 | 54.897527 | 7.550565 | 2.0 | 11.718 | 2 | 37.002 | 11.882 | 32.188 | 2 |
| 2025-05-11T08:57:00 | 54.897579 | 7.550399 | 2.0 | 11.730 | 2 | 36.922 | 11.914 | 32.083 | 2 |
| 2025-05-11T08:58:00 | 54.897615 | 7.550240 | 2.0 | 11.742 | 2 | 36.917 | 11.928 | 32.066 | 2 |
| 2025-05-11T08:59:00 | 54.897771 | 7.550144 | 2.0 | 11.747 | 2 | 36.942 | 11.940 | 32.080 | 2 |
| 2025-05-11T09:00:00 | 54.897625 | 7.549537 | 2.0 | 11.758 | 2 | 37.039 | 11.949 | 32.166 | 2 |
| 2025-05-11T09:01:00 | 54.897132 | 7.549016 | 2.0 | 11.760 | 2 | 37.054 | 11.959 | 32.172 | 2 |
| 2025-05-11T09:02:00 | 54.896652 | 7.548905 | 2.0 | 11.761 | 2 | 37.076 | 11.961 | 32.191 | 2 |
| 2025-05-11T09:03:00 | 54.896113 | 7.549228 | 2.0 | 11.754 | 2 | 37.084 | 11.958 | 32.202 | 2 |
| 2025-05-11T09:04:00 | 54.895499 | 7.549511 | 2.0 | 11.748 | 2 | 37.038 | 11.955 | 32.160 | 2 |
| 2025-05-11T09:05:00 | 54.894770 | 7.549476 | 2.0 | 11.747 | 2 | 37.087 | 11.947 | 32.214 | 2 |
| 2025-05-11T09:06:00 | 54.894514 | 7.548985 | 2.0 | 11.736 | 2 | 37.044 | 11.944 | 32.175 | 2 |
| 2025-05-11T09:07:00 | 54.894525 | 7.548818 | 2.0 | 11.700 | 2 | 37.164 | 11.931 | 32.302 | 2 |
| 2025-05-11T09:08:00 | 54.894506 | 7.548690 | 2.0 | 11.651 | 2 | 37.072 | 11.841 | 32.291 | 2 |
| 2025-05-11T09:09:00 | 54.894544 | 7.548492 | 2.0 | 11.722 | 2 | 37.098 | 11.866 | 32.295 | 2 |
| 2025-05-11T09:10:00 | 54.894580 | 7.548284 | 2.0 | 11.748 | 2 | 37.061 | 11.922 | 32.210 | 2 |
| 2025-05-11T09:11:00 | 54.894628 | 7.548094 | 2.0 | 11.755 | 2 | 37.100 | 11.949 | 32.225 | 2 |
| 2025-05-11T09:12:00 | 54.894862 | 7.548056 | 2.0 | 11.760 | 2 | 37.157 | 11.959 | 32.271 | 2 |
| 2025-05-11T09:13:00 | 54.895256 | 7.548150 | 2.0 | 11.758 | 2 | 37.192 | 11.962 | 32.302 | 2 |
| 2025-05-11T09:14:00 | 54.895876 | 7.548114 | 2.0 | 11.769 | 2 | 37.151 | 11.965 | 32.260 | 2 |
| 2025-05-11T09:15:00 | 54.897298 | 7.547802 | 2.0 | 11.780 | 2 | 37.227 | 11.975 | 32.325 | 2 |
| 2025-05-11T09:16:00 | 54.899463 | 7.546830 | 2.0 | 11.793 | 2 | 37.196 | 11.989 | 32.283 | 2 |
| 2025-05-11T09:17:00 | 54.901655 | 7.544630 | 2.0 | 11.793 | 2 | 37.234 | 11.994 | 32.315 | 2 |
| 2025-05-11T09:18:00 | 54.903973 | 7.542214 | 2.0 | 11.774 | 2 | 37.240 | 11.983 | 32.331 | 2 |
| 2025-05-11T09:19:00 | 54.906283 | 7.539482 | 2.0 | 11.744 | 2 | 37.228 | 11.962 | 32.337 | 2 |
| 2025-05-11T09:20:00 | 54.908587 | 7.536666 | 2.0 | 11.742 | 2 | 37.217 | 11.933 | 32.352 | 2 |
| 2025-05-11T09:21:00 | 54.910908 | 7.534025 | 2.0 | 11.715 | 2 | 37.225 | 11.931 | 32.361 | 2 |
| 2025-05-11T09:22:00 | 54.913112 | 7.531315 | 2.0 | 11.650 | 2 | 37.188 | 11.893 | 32.358 | 2 |
| 2025-05-11T09:23:00 | 54.915248 | 7.528480 | 2.0 | 11.610 | 2 | 37.107 | 11.831 | 32.334 | 2 |
| 2025-05-11T09:24:00 | 54.917504 | 7.525708 | 2.0 | 11.584 | 2 | 37.051 | 11.792 | 32.313 | 2 |
| 2025-05-11T09:25:00 | 54.919777 | 7.522846 | 2.0 | 11.565 | 2 | 37.023 | 11.767 | 32.308 | 2 |
| 2025-05-11T09:26:00 | 54.922033 | 7.520014 | 2.0 | 11.610 | 2 | 37.006 | 11.759 | 32.298 | 2 |
| 2025-05-11T09:27:00 | 54.924269 | 7.517133 | 2.0 | 11.673 | 2 | 37.033 | 11.802 | 32.287 | 2 |
| 2025-05-11T09:28:00 | 54.926498 | 7.514260 | 2.0 | 11.696 | 2 | 37.067 | 11.858 | 32.272 | 2 |
| 2025-05-11T09:29:00 | 54.928733 | 7.511417 | 2.0 | 11.752 | 2 | 37.071 | 11.884 | 32.253 | 2 |
| 2025-05-11T09:30:00 | 54.930996 | 7.508573 | 2.0 | 11.873 | 2 | 37.103 | 11.946 | 32.230 | 2 |
| 2025-05-11T09:31:00 | 54.933229 | 7.505745 | 2.0 | 11.985 | 2 | 37.168 | 12.064 | 32.191 | 2 |
| 2025-05-11T09:32:00 | 54.935442 | 7.502840 | 2.0 | 12.061 | 2 | 37.213 | 12.168 | 32.145 | 2 |
| 2025-05-11T09:33:00 | 54.937675 | 7.499966 | 2.0 | 12.128 | 2 | 37.236 | 12.241 | 32.104 | 2 |
| 2025-05-11T09:34:00 | 54.939946 | 7.497125 | 2.0 | 12.160 | 2 | 37.230 | 12.303 | 32.045 | 2 |
| 2025-05-11T09:35:00 | 54.942189 | 7.494268 | 2.0 | 12.195 | 2 | 37.205 | 12.336 | 31.993 | 2 |
| 2025-05-11T09:36:00 | 54.944423 | 7.491365 | 2.0 | 12.174 | 2 | 37.183 | 12.356 | 31.955 | 2 |
| 2025-05-11T09:37:00 | 54.946695 | 7.488495 | 2.0 | 12.246 | 2 | 37.156 | 12.365 | 31.922 | 2 |
| 2025-05-11T09:38:00 | 54.948931 | 7.485651 | 2.0 | 12.256 | 2 | 37.175 | 12.422 | 31.891 | 2 |
| 2025-05-11T09:39:00 | 54.951170 | 7.482762 | 2.0 | 12.244 | 2 | 37.158 | 12.423 | 31.874 | 2 |
| 2025-05-11T09:40:00 | 54.953425 | 7.479917 | 2.0 | 12.221 | 2 | 37.154 | 12.414 | 31.878 | 2 |
| 2025-05-11T09:41:00 | 54.955660 | 7.477039 | 2.0 | 12.202 | 2 | 37.152 | 12.390 | 31.897 | 2 |
| 2025-05-11T09:42:00 | 54.957912 | 7.474175 | 2.0 | 12.213 | 2 | 37.160 | 12.374 | 31.918 | 2 |
| 2025-05-11T09:43:00 | 54.960183 | 7.471324 | 2.0 | 12.231 | 2 | 37.179 | 12.388 | 31.924 | 2 |
| 2025-05-11T09:44:00 | 54.962421 | 7.468428 | 2.0 | 12.245 | 2 | 37.204 | 12.403 | 31.935 | 2 |
| 2025-05-11T09:45:00 | 54.964653 | 7.465489 | 2.0 | 12.262 | 2 | 37.235 | 12.423 | 31.948 | 2 |
| 2025-05-11T09:46:00 | 54.966958 | 7.462662 | 2.0 | 12.266 | 2 | 37.254 | 12.435 | 31.956 | 2 |
| 2025-05-11T09:47:00 | 54.969230 | 7.459748 | 2.0 | 12.276 | 2 | 37.263 | 12.439 | 31.961 | 2 |
| 2025-05-11T09:48:00 | 54.971485 | 7.456853 | 2.0 | 12.295 | 2 | 37.281 | 12.449 | 31.970 | 2 |
| 2025-05-11T09:49:00 | 54.973749 | 7.453977 | 2.0 | 12.323 | 2 | 37.303 | 12.467 | 31.975 | 2 |
| 2025-05-11T09:50:00 | 54.976028 | 7.451102 | 2.0 | 12.357 | 2 | 37.340 | 12.499 | 31.983 | 2 |
| 2025-05-11T09:51:00 | 54.978278 | 7.448182 | 2.0 | 12.375 | 2 | 37.382 | 12.532 | 31.995 | 2 |
| 2025-05-11T09:52:00 | 54.980554 | 7.445291 | 2.0 | 12.379 | 2 | 37.410 | 12.548 | 32.008 | 2 |
| 2025-05-11T09:53:00 | 54.982815 | 7.442382 | 2.0 | 12.380 | 2 | 37.425 | 12.548 | 32.023 | 2 |
| 2025-05-11T09:54:00 | 54.985095 | 7.439489 | 2.0 | 12.381 | 2 | 37.450 | 12.552 | 32.043 | 2 |
| 2025-05-11T09:55:00 | 54.987378 | 7.436611 | 2.0 | 12.358 | 2 | 37.472 | 12.548 | 32.067 | 2 |
| 2025-05-11T09:56:00 | 54.989636 | 7.433706 | 2.0 | 12.350 | 2 | 37.483 | 12.533 | 32.091 | 2 |
| 2025-05-11T09:57:00 | 54.991902 | 7.430825 | 2.0 | 12.345 | 2 | 37.499 | 12.522 | 32.115 | 2 |
| 2025-05-11T09:58:00 | 54.994163 | 7.427930 | 2.0 | 12.383 | 2 | 37.525 | 12.520 | 32.142 | 2 |
| 2025-05-11T09:59:00 | 54.996434 | 7.425076 | 2.0 | 12.407 | 2 | 37.615 | 12.560 | 32.193 | 2 |
| 2025-05-11T10:00:00 | 54.998695 | 7.422137 | 2.0 | 12.395 | 2 | 37.652 | 12.578 | 32.213 | 2 |
| 2025-05-11T10:01:00 | 55.000974 | 7.419279 | 2.0 | 12.360 | 2 | 37.650 | 12.562 | 32.225 | 2 |
| 2025-05-11T10:02:00 | 55.003218 | 7.416351 | 2.0 | 12.308 | 2 | 37.632 | 12.523 | 32.241 | 2 |
| 2025-05-11T10:03:00 | 55.005526 | 7.413500 | 2.0 | 12.216 | 2 | 37.599 | 12.469 | 32.256 | 2 |
| 2025-05-11T10:04:00 | 55.007787 | 7.410589 | 2.0 | 12.150 | 2 | 37.533 | 12.381 | 32.269 | 2 |
| 2025-05-11T10:05:00 | 55.010059 | 7.407709 | 2.0 | 12.075 | 2 | 37.476 | 12.313 | 32.273 | 2 |
| 2025-05-11T10:06:00 | 55.012317 | 7.404771 | 2.0 | 12.053 | 2 | 37.428 | 12.250 | 32.281 | 2 |
| 2025-05-11T10:07:00 | 55.014580 | 7.401840 | 2.0 | 12.015 | 2 | 37.413 | 12.225 | 32.288 | 2 |
| 2025-05-11T10:08:00 | 55.016856 | 7.398958 | 2.0 | 12.001 | 2 | 37.399 | 12.192 | 32.303 | 2 |
| 2025-05-11T10:09:00 | 55.019141 | 7.396077 | 2.0 | 11.983 | 2 | 37.393 | 12.174 | 32.313 | 2 |
| 2025-05-11T10:10:00 | 55.021406 | 7.393181 | 2.0 | 11.982 | 2 | 37.390 | 12.159 | 32.323 | 2 |
| 2025-05-11T10:11:00 | 55.023692 | 7.390294 | 2.0 | 11.990 | 2 | 37.389 | 12.159 | 32.322 | 2 |
| 2025-05-11T10:12:00 | 55.025953 | 7.387346 | 2.0 | 11.997 | 2 | 37.395 | 12.170 | 32.318 | 2 |
| 2025-05-11T10:13:00 | 55.028095 | 7.384279 | 2.0 | 11.993 | 2 | 37.394 | 12.171 | 32.316 | 2 |
| 2025-05-11T10:14:00 | 55.029773 | 7.381658 | 2.0 | 11.987 | 2 | 37.387 | 12.162 | 32.317 | 2 |
| 2025-05-11T10:15:00 | 55.031211 | 7.379549 | 2.0 | 11.987 | 2 | 37.384 | 12.158 | 32.318 | 2 |
| 2025-05-11T10:16:00 | 55.032509 | 7.377673 | 2.0 | 11.995 | 2 | 37.384 | 12.157 | 32.319 | 2 |
| 2025-05-11T10:17:00 | 55.033722 | 7.376272 | 2.0 | 11.989 | 2 | 37.385 | 12.163 | 32.315 | 2 |
| 2025-05-11T10:18:00 | 55.034577 | 7.376814 | 2.0 | 11.984 | 2 | 37.385 | 12.159 | 32.318 | 2 |
| 2025-05-11T10:19:00 | 55.034819 | 7.377476 | 2.0 | 11.998 | 2 | 37.384 | 12.158 | 32.318 | 2 |
| 2025-05-11T10:20:00 | 55.034882 | 7.377899 | 2.0 | 12.008 | 2 | 37.392 | 12.167 | 32.318 | 2 |
| 2025-05-11T10:21:00 | 55.034962 | 7.378089 | 2.0 | 12.014 | 2 | 37.401 | 12.177 | 32.318 | 2 |
| 2025-05-11T10:22:00 | 55.035002 | 7.378358 | 2.0 | 12.011 | 2 | 37.406 | 12.181 | 32.319 | 2 |
| 2025-05-11T10:23:00 | 55.034993 | 7.378777 | 2.0 | 12.008 | 2 | 37.404 | 12.179 | 32.319 | 2 |
| 2025-05-11T10:24:00 | 55.034971 | 7.379213 | 2.0 | 12.011 | 2 | 37.404 | 12.180 | 32.318 | 2 |
| 2025-05-11T10:25:00 | 55.034954 | 7.379650 | 2.0 | 12.014 | 2 | 37.408 | 12.184 | 32.319 | 2 |
| 2025-05-11T10:26:00 | 55.034928 | 7.380094 | 2.0 | 12.019 | 2 | 37.405 | 12.179 | 32.320 | 2 |
| 2025-05-11T10:27:00 | 55.034895 | 7.380547 | 2.0 | 12.003 | 2 | 37.406 | 12.181 | 32.319 | 2 |
| 2025-05-11T10:28:00 | 55.034857 | 7.381006 | 2.0 | 12.013 | 2 | 37.400 | 12.175 | 32.319 | 2 |
| 2025-05-11T10:29:00 | 55.034826 | 7.381469 | 2.0 | 12.026 | 2 | 37.407 | 12.184 | 32.318 | 2 |
| 2025-05-11T10:30:00 | 55.034781 | 7.381962 | 2.0 | 12.027 | 2 | 37.416 | 12.194 | 32.318 | 2 |
| 2025-05-11T10:31:00 | 55.034790 | 7.382804 | 2.0 | 12.031 | 2 | 37.417 | 12.194 | 32.319 | 2 |
| 2025-05-11T10:32:00 | 55.034929 | 7.384044 | 2.0 | 12.039 | 2 | 37.422 | 12.201 | 32.317 | 2 |
| 2025-05-11T10:33:00 | 55.035129 | 7.385484 | 2.0 | 12.044 | 2 | 37.430 | 12.212 | 32.315 | 2 |
| 2025-05-11T10:34:00 | 55.035326 | 7.386890 | 2.0 | 12.040 | 2 | 37.434 | 12.216 | 32.316 | 2 |
| 2025-05-11T10:35:00 | 55.035512 | 7.388180 | 2.0 | 12.057 | 2 | 37.434 | 12.216 | 32.316 | 2 |
| 2025-05-11T10:36:00 | 55.035712 | 7.389503 | 2.0 | 12.063 | 2 | 37.439 | 12.222 | 32.315 | 2 |
| 2025-05-11T10:37:00 | 55.035914 | 7.390927 | 2.0 | 12.067 | 2 | 37.447 | 12.232 | 32.315 | 2 |
| 2025-05-11T10:38:00 | 55.036106 | 7.392422 | 2.0 | 12.066 | 2 | 37.448 | 12.234 | 32.314 | 2 |
| 2025-05-11T10:39:00 | 55.036297 | 7.393661 | 2.0 | 12.067 | 2 | 37.447 | 12.234 | 32.313 | 2 |
| 2025-05-11T10:40:00 | 55.036477 | 7.394618 | 2.0 | 12.070 | 2 | 37.448 | 12.238 | 32.310 | 2 |
| 2025-05-11T10:41:00 | 55.036692 | 7.395334 | 2.0 | 12.076 | 2 | 37.450 | 12.242 | 32.309 | 2 |
| 2025-05-11T10:42:00 | 55.036898 | 7.395957 | 2.0 | 12.076 | 2 | 37.452 | 12.242 | 32.311 | 2 |
| 2025-05-11T10:43:00 | 55.036791 | 7.396887 | 2.0 | 12.086 | 2 | 37.454 | 12.244 | 32.311 | 2 |
| 2025-05-11T10:44:00 | 55.036186 | 7.397962 | 2.0 | 12.098 | 2 | 37.456 | 12.251 | 32.307 | 2 |
| 2025-05-11T10:45:00 | 55.035065 | 7.398125 | 2.0 | 12.102 | 2 | 37.467 | 12.266 | 32.304 | 2 |
| 2025-05-11T10:46:00 | 55.033881 | 7.396939 | 2.0 | 12.109 | 2 | 37.474 | 12.275 | 32.303 | 2 |
| 2025-05-11T10:47:00 | 55.032794 | 7.395005 | 2.0 | 12.110 | 2 | 37.477 | 12.277 | 32.305 | 2 |
| 2025-05-11T10:48:00 | 55.032296 | 7.392562 | 2.0 | 12.104 | 2 | 37.479 | 12.276 | 32.307 | 2 |
| 2025-05-11T10:49:00 | 55.032506 | 7.389953 | 2.0 | 12.088 | 2 | 37.476 | 12.268 | 32.311 | 2 |
| 2025-05-11T10:50:00 | 55.033314 | 7.386893 | 2.0 | 12.068 | 2 | 37.467 | 12.255 | 32.314 | 2 |
| 2025-05-11T10:51:00 | 55.034620 | 7.383562 | 2.0 | 12.046 | 2 | 37.456 | 12.238 | 32.318 | 2 |
| 2025-05-11T10:52:00 | 55.036054 | 7.379938 | 2.0 | 11.979 | 2 | 37.420 | 12.183 | 32.331 | 2 |
| 2025-05-11T10:53:00 | 55.037594 | 7.376222 | 2.0 | 12.042 | 2 | 37.407 | 12.179 | 32.322 | 2 |
| 2025-05-11T10:54:00 | 55.039502 | 7.373093 | 2.0 | 12.048 | 2 | 37.444 | 12.213 | 32.328 | 2 |
| 2025-05-11T10:55:00 | 55.041955 | 7.371242 | 2.0 | 12.046 | 2 | 37.455 | 12.216 | 32.336 | 2 |
| 2025-05-11T10:56:00 | 55.044359 | 7.369220 | 2.0 | 12.013 | 2 | 37.464 | 12.213 | 32.347 | 2 |
| 2025-05-11T10:57:00 | 55.046726 | 7.367044 | 2.0 | 11.991 | 2 | 37.453 | 12.179 | 32.366 | 2 |
| 2025-05-11T10:58:00 | 55.049164 | 7.365108 | 2.0 | 11.997 | 2 | 37.453 | 12.166 | 32.377 | 2 |
| 2025-05-11T10:59:00 | 55.051660 | 7.363359 | 2.0 | 11.906 | 2 | 37.462 | 12.161 | 32.390 | 2 |
| 2025-05-11T11:00:00 | 55.054108 | 7.361454 | 2.0 | 11.817 | 2 | 37.399 | 12.061 | 32.416 | 2 |
| 2025-05-11T11:01:00 | 55.056578 | 7.359575 | 2.0 | 11.808 | 2 | 37.345 | 11.994 | 32.422 | 2 |
| 2025-05-11T11:02:00 | 55.059105 | 7.357642 | 2.0 | 11.800 | 2 | 37.338 | 11.983 | 32.425 | 2 |
| 2025-05-11T11:03:00 | 55.061671 | 7.355682 | 2.0 | 11.636 | 2 | 37.329 | 11.956 | 32.440 | 2 |
| 2025-05-11T11:04:00 | 55.064246 | 7.353741 | 2.0 | 11.568 | 2 | 37.197 | 11.796 | 32.452 | 2 |
| 2025-05-11T11:05:00 | 55.066767 | 7.351904 | 2.0 | 11.608 | 2 | 37.139 | 11.752 | 32.434 | 2 |
| 2025-05-11T11:06:00 | 55.069269 | 7.350127 | 2.0 | 11.666 | 2 | 37.170 | 11.792 | 32.429 | 2 |
| 2025-05-11T11:07:00 | 55.071765 | 7.348271 | 2.0 | 11.734 | 2 | 37.218 | 11.850 | 32.425 | 2 |
| 2025-05-11T11:08:00 | 55.074301 | 7.346343 | 2.0 | 11.768 | 2 | 37.273 | 11.907 | 32.429 | 2 |
| 2025-05-11T11:09:00 | 55.076859 | 7.344404 | 2.0 | 11.776 | 2 | 37.306 | 11.937 | 32.434 | 2 |
| 2025-05-11T11:10:00 | 55.079425 | 7.342506 | 2.0 | 11.773 | 2 | 37.322 | 11.945 | 32.443 | 2 |
| 2025-05-11T11:11:00 | 55.082000 | 7.340573 | 2.0 | 11.782 | 2 | 37.327 | 11.949 | 32.444 | 2 |
| 2025-05-11T11:12:00 | 55.084588 | 7.338683 | 2.0 | 11.766 | 2 | 37.330 | 11.949 | 32.447 | 2 |
| 2025-05-11T11:13:00 | 55.087145 | 7.336643 | 2.0 | 11.665 | 2 | 37.315 | 11.927 | 32.452 | 2 |
| 2025-05-11T11:14:00 | 55.089752 | 7.334782 | 2.0 | 11.670 | 2 | 37.250 | 11.849 | 32.457 | 2 |
| 2025-05-11T11:15:00 | 55.092343 | 7.332853 | 2.0 | 11.656 | 2 | 37.240 | 11.843 | 32.452 | 2 |
| 2025-05-11T11:16:00 | 55.094930 | 7.330882 | 2.0 | 11.675 | 2 | 37.229 | 11.833 | 32.450 | 2 |
| 2025-05-11T11:17:00 | 55.097524 | 7.328952 | 2.0 | 11.696 | 2 | 37.244 | 11.849 | 32.451 | 2 |
| 2025-05-11T11:18:00 | 55.100125 | 7.327013 | 2.0 | 11.688 | 2 | 37.265 | 11.867 | 32.456 | 2 |
| 2025-05-11T11:19:00 | 55.102720 | 7.325079 | 2.0 | 11.678 | 2 | 37.269 | 11.860 | 32.466 | 2 |
| 2025-05-11T11:20:00 | 55.105307 | 7.323150 | 2.0 | 11.655 | 2 | 37.262 | 11.840 | 32.476 | 2 |
| 2025-05-11T11:21:00 | 55.107906 | 7.321248 | 2.0 | 11.639 | 2 | 37.253 | 11.829 | 32.477 | 2 |
| 2025-05-11T11:22:00 | 55.110507 | 7.319305 | 2.0 | 11.600 | 2 | 37.222 | 11.786 | 32.485 | 2 |
| 2025-05-11T11:23:00 | 55.113098 | 7.317338 | 2.0 | 11.615 | 2 | 37.211 | 11.779 | 32.480 | 2 |
| 2025-05-11T11:24:00 | 55.115718 | 7.315377 | 2.0 | 11.694 | 2 | 37.238 | 11.808 | 32.481 | 2 |
| 2025-05-11T11:25:00 | 55.118327 | 7.313355 | 2.0 | 11.663 | 2 | 37.278 | 11.854 | 32.480 | 2 |
| 2025-05-11T11:26:00 | 55.120952 | 7.311410 | 2.0 | 11.668 | 2 | 37.270 | 11.838 | 32.486 | 2 |
| 2025-05-11T11:27:00 | 55.123575 | 7.309425 | 2.0 | 11.810 | 2 | 37.281 | 11.857 | 32.480 | 2 |
| 2025-05-11T11:28:00 | 55.126214 | 7.307524 | 2.0 | 11.809 | 2 | 37.380 | 11.972 | 32.475 | 2 |
| 2025-05-11T11:29:00 | 55.128826 | 7.305515 | 2.0 | 11.869 | 2 | 37.398 | 11.985 | 32.482 | 2 |
| 2025-05-11T11:30:00 | 55.131441 | 7.303508 | 2.0 | 11.873 | 2 | 37.442 | 12.033 | 32.482 | 2 |
| 2025-05-11T11:31:00 | 55.134091 | 7.301542 | 2.0 | 11.875 | 2 | 37.457 | 12.034 | 32.496 | 2 |
| 2025-05-11T11:32:00 | 55.136726 | 7.299587 | 2.0 | 11.797 | 2 | 37.467 | 12.032 | 32.507 | 2 |
| 2025-05-11T11:33:00 | 55.139374 | 7.297641 | 2.0 | 11.775 | 2 | 37.421 | 11.958 | 32.527 | 2 |
| 2025-05-11T11:34:00 | 55.142013 | 7.295715 | 2.0 | 11.857 | 2 | 37.428 | 11.968 | 32.525 | 2 |
| 2025-05-11T11:35:00 | 55.144619 | 7.293707 | 2.0 | 11.894 | 2 | 37.485 | 12.022 | 32.533 | 2 |
| 2025-05-11T11:36:00 | 55.147241 | 7.291799 | 2.0 | 11.948 | 2 | 37.530 | 12.076 | 32.530 | 2 |
| 2025-05-11T11:37:00 | 55.149838 | 7.289795 | 2.0 | 11.929 | 2 | 37.558 | 12.104 | 32.532 | 2 |
| 2025-05-11T11:38:00 | 55.152456 | 7.287895 | 2.0 | 11.945 | 2 | 37.555 | 12.107 | 32.527 | 2 |
| 2025-05-11T11:39:00 | 55.155058 | 7.285947 | 2.0 | 11.964 | 2 | 37.574 | 12.118 | 32.536 | 2 |
| 2025-05-11T11:40:00 | 55.157663 | 7.283983 | 2.0 | 11.939 | 2 | 37.590 | 12.137 | 32.534 | 2 |
| 2025-05-11T11:41:00 | 55.160271 | 7.282001 | 2.0 | 11.836 | 2 | 37.550 | 12.079 | 32.546 | 2 |
| 2025-05-11T11:42:00 | 55.162891 | 7.280015 | 2.0 | 11.836 | 2 | 37.487 | 12.009 | 32.547 | 2 |
| 2025-05-11T11:43:00 | 55.165512 | 7.278060 | 2.0 | 11.853 | 2 | 37.497 | 12.009 | 32.556 | 2 |
| 2025-05-11T11:44:00 | 55.168130 | 7.276101 | 2.0 | 11.884 | 2 | 37.530 | 12.025 | 32.574 | 2 |
| 2025-05-11T11:45:00 | 55.170753 | 7.274160 | 2.0 | 11.945 | 2 | 37.596 | 12.054 | 32.613 | 2 |
| 2025-05-11T11:46:00 | 55.173366 | 7.272156 | 2.0 | 12.023 | 2 | 37.703 | 12.121 | 32.657 | 2 |
| 2025-05-11T11:47:00 | 55.175993 | 7.270195 | 2.0 | 12.098 | 2 | 37.838 | 12.206 | 32.713 | 2 |
| 2025-05-11T11:48:00 | 55.178618 | 7.268216 | 2.0 | 12.131 | 2 | 37.950 | 12.279 | 32.757 | 2 |
| 2025-05-11T11:49:00 | 55.181242 | 7.266259 | 2.0 | 12.107 | 2 | 38.021 | 12.303 | 32.804 | 2 |
| 2025-05-11T11:50:00 | 55.183866 | 7.264299 | 2.0 | 12.125 | 2 | 38.058 | 12.264 | 32.874 | 2 |
| 2025-05-11T11:51:00 | 55.186490 | 7.262313 | 2.0 | 12.102 | 2 | 38.112 | 12.296 | 32.898 | 2 |
| 2025-05-11T11:52:00 | 55.189117 | 7.260328 | 2.0 | 11.803 | 2 | 38.153 | 12.227 | 32.998 | 2 |
| 2025-05-11T11:53:00 | 55.191748 | 7.258379 | 2.0 | 11.777 | 2 | 37.984 | 12.000 | 33.035 | 2 |
| 2025-05-11T11:54:00 | 55.194374 | 7.256425 | 2.0 | 11.836 | 2 | 37.937 | 11.964 | 33.022 | 2 |
| 2025-05-11T11:55:00 | 55.197008 | 7.254466 | 2.0 | 11.847 | 2 | 37.967 | 12.001 | 33.018 | 2 |
| 2025-05-11T11:56:00 | 55.199625 | 7.252441 | 2.0 | 11.952 | 2 | 38.011 | 12.047 | 33.020 | 2 |
| 2025-05-11T11:57:00 | 55.202261 | 7.250471 | 2.0 | 11.958 | 2 | 38.103 | 12.110 | 33.053 | 2 |
| 2025-05-11T11:58:00 | 55.204897 | 7.248519 | 2.0 | 11.945 | 2 | 38.122 | 12.128 | 33.056 | 2 |
| 2025-05-11T11:59:00 | 55.207409 | 7.246189 | 2.0 | 11.971 | 2 | 38.117 | 12.119 | 33.059 | 2 |
| 2025-05-11T12:00:00 | 55.209789 | 7.243950 | 2.0 | 12.011 | 2 | 38.128 | 12.140 | 33.051 | 2 |
| 2025-05-11T12:01:00 | 55.211697 | 7.242358 | 2.0 | 11.990 | 2 | 38.125 | 12.182 | 33.011 | 2 |
| 2025-05-11T12:02:00 | 55.213160 | 7.240698 | 2.0 | 12.039 | 2 | 38.059 | 12.158 | 32.968 | 2 |
| 2025-05-11T12:03:00 | 55.214392 | 7.239064 | 2.0 | 12.041 | 2 | 38.083 | 12.193 | 32.960 | 2 |
| 2025-05-11T12:04:00 | 55.215511 | 7.237928 | 2.0 | 11.893 | 2 | 38.016 | 12.154 | 32.930 | 2 |
| 2025-05-11T12:05:00 | 55.216456 | 7.237953 | 2.0 | 11.923 | 2 | 37.908 | 12.086 | 32.886 | 2 |
| 2025-05-11T12:06:00 | 55.216870 | 7.238391 | 2.0 | 11.918 | 2 | 37.907 | 12.090 | 32.881 | 2 |
| 2025-05-11T12:07:00 | 55.217149 | 7.238948 | 2.0 | 12.010 | 2 | 37.912 | 12.070 | 32.904 | 2 |
| 2025-05-11T12:08:00 | 55.217321 | 7.239594 | 2.0 | 12.036 | 2 | 37.983 | 12.210 | 32.849 | 2 |
| 2025-05-11T12:09:00 | 55.217347 | 7.240063 | 2.0 | 11.938 | 2 | 38.072 | 12.186 | 32.956 | 2 |
| 2025-05-11T12:10:00 | 55.217431 | 7.240064 | 2.0 | 11.837 | 2 | 37.984 | 12.087 | 32.958 | 2 |
| 2025-05-11T12:11:00 | 55.217486 | 7.240020 | 2.0 | 11.929 | 2 | 37.394 | 12.022 | 32.445 | 2 |
| 2025-05-11T12:12:00 | 55.217534 | 7.239957 | 2.0 | 12.158 | 2 | 37.661 | 12.148 | 32.593 | 2 |
| 2025-05-11T12:13:00 | 55.217597 | 7.239811 | 2.0 | 12.155 | 2 | 37.763 | 12.307 | 32.553 | 2 |
| 2025-05-11T12:14:00 | 55.217644 | 7.239647 | 2.0 | 12.157 | 2 | 37.733 | 12.315 | 32.517 | 2 |
| 2025-05-11T12:15:00 | 55.217703 | 7.239509 | 2.0 | 12.158 | 2 | 38.001 | 12.321 | 32.769 | 2 |
| 2025-05-11T12:16:00 | 55.217776 | 7.239399 | 2.0 | 12.148 | 2 | 38.217 | 12.322 | 32.976 | 2 |
| 2025-05-11T12:17:00 | 55.217909 | 7.239126 | 2.0 | 11.879 | 2 | 37.947 | 12.254 | 32.776 | 2 |
| 2025-05-11T12:18:00 | 55.218050 | 7.238805 | 2.0 | 11.645 | 2 | 37.739 | 12.032 | 32.770 | 2 |
| 2025-05-11T12:19:00 | 55.218164 | 7.238469 | 2.0 | 11.847 | 2 | 37.635 | 11.852 | 32.828 | 2 |
| 2025-05-11T12:20:00 | 55.218070 | 7.238677 | 2.0 | 11.885 | 2 | 37.673 | 11.949 | 32.779 | 2 |
| 2025-05-11T12:21:00 | 55.217881 | 7.239946 | 2.0 | 12.032 | 2 | 37.672 | 12.116 | 32.632 | 2 |
| 2025-05-11T12:22:00 | 55.217542 | 7.241911 | 2.0 | 11.987 | 2 | 38.186 | 12.199 | 33.054 | 2 |
| 2025-05-11T12:23:00 | 55.216943 | 7.244787 | 2.0 | 11.955 | 2 | 37.932 | 12.148 | 32.854 | 2 |
| 2025-05-11T12:24:00 | 55.216240 | 7.248609 | 2.0 | 11.993 | 2 | 37.833 | 12.135 | 32.770 | 2 |
| 2025-05-11T12:25:00 | 55.215425 | 7.252672 | 2.0 | 11.947 | 2 | 37.890 | 12.157 | 32.806 | 2 |
| 2025-05-11T12:26:00 | 55.214619 | 7.256838 | 2.0 | 11.876 | 2 | 37.948 | 12.101 | 32.911 | 2 |
| 2025-05-11T12:27:00 | 55.213784 | 7.261169 | 2.0 | 11.829 | 2 | 37.882 | 12.043 | 32.899 | 2 |
| 2025-05-11T12:28:00 | 55.213166 | 7.265737 | 2.0 | 11.793 | 2 | 38.014 | 11.994 | 33.070 | 2 |
| 2025-05-11T12:29:00 | 55.212201 | 7.270170 | 2.0 | 11.760 | 2 | 37.811 | 11.964 | 32.900 | 2 |
| 2025-05-11T12:30:00 | 55.211266 | 7.274614 | 2.0 | 11.706 | 2 | 37.877 | 11.937 | 32.987 | 2 |
| 2025-05-11T12:31:00 | 55.210324 | 7.279073 | 2.0 | 11.664 | 2 | 37.830 | 11.866 | 33.005 | 2 |
| 2025-05-11T12:32:00 | 55.209457 | 7.283602 | 2.0 | 11.696 | 2 | 37.915 | 11.849 | 33.103 | 2 |
| 2025-05-11T12:33:00 | 55.208531 | 7.288094 | 2.0 | 11.696 | 2 | 37.982 | 11.879 | 33.141 | 2 |
| 2025-05-11T12:34:00 | 55.207603 | 7.292662 | 2.0 | 11.751 | 2 | 37.834 | 11.869 | 33.006 | 2 |
| 2025-05-11T12:35:00 | 55.206699 | 7.297243 | 2.0 | 11.872 | 2 | 37.857 | 11.945 | 32.961 | 2 |
| 2025-05-11T12:36:00 | 55.205772 | 7.301804 | 2.0 | 11.867 | 2 | 37.966 | 12.034 | 32.988 | 2 |
| 2025-05-11T12:37:00 | 55.204808 | 7.306336 | 2.0 | 11.781 | 2 | 37.973 | 12.030 | 32.998 | 2 |
| 2025-05-11T12:38:00 | 55.203885 | 7.310914 | 2.0 | 11.883 | 2 | 37.860 | 11.997 | 32.918 | 2 |
| 2025-05-11T12:39:00 | 55.202969 | 7.315486 | 2.0 | 11.929 | 2 | 37.988 | 12.039 | 33.005 | 2 |
| 2025-05-11T12:40:00 | 55.202080 | 7.320064 | 2.0 | 11.880 | 2 | 37.901 | 12.089 | 32.876 | 2 |
| 2025-05-11T12:41:00 | 55.201166 | 7.324631 | 2.0 | 11.965 | 2 | 37.939 | 12.065 | 32.934 | 2 |
| 2025-05-11T12:42:00 | 55.200260 | 7.329204 | 2.0 | 12.033 | 2 | 37.951 | 12.132 | 32.887 | 2 |
| 2025-05-11T12:43:00 | 55.199329 | 7.333779 | 2.0 | 12.173 | 2 | 37.967 | 12.220 | 32.825 | 2 |
| 2025-05-11T12:44:00 | 55.198437 | 7.338369 | 2.0 | 12.366 | 2 | 38.056 | 12.377 | 32.773 | 2 |
| 2025-05-11T12:45:00 | 55.197469 | 7.342907 | 2.0 | 12.318 | 2 | 38.154 | 12.511 | 32.750 | 2 |
| 2025-05-11T12:46:00 | 55.196568 | 7.347443 | 2.0 | 12.292 | 2 | 38.087 | 12.476 | 32.716 | 2 |
| 2025-05-11T12:47:00 | 55.195663 | 7.352014 | 2.0 | 12.283 | 2 | 38.011 | 12.453 | 32.664 | 2 |
| 2025-05-11T12:48:00 | 55.194741 | 7.356569 | 2.0 | 12.237 | 2 | 37.986 | 12.449 | 32.643 | 2 |
| 2025-05-11T12:49:00 | 55.193837 | 7.361138 | 2.0 | 12.168 | 2 | 37.915 | 12.388 | 32.628 | 2 |
| 2025-05-11T12:50:00 | 55.192921 | 7.365738 | 2.0 | 12.133 | 2 | 37.794 | 12.328 | 32.564 | 2 |
| 2025-05-11T12:51:00 | 55.192006 | 7.370325 | 2.0 | 12.140 | 2 | 37.748 | 12.314 | 32.532 | 2 |
| 2025-05-11T12:52:00 | 55.191095 | 7.374892 | 2.0 | 12.089 | 2 | 37.733 | 12.309 | 32.522 | 2 |
| 2025-05-11T12:53:00 | 55.190172 | 7.379471 | 2.0 | 11.922 | 2 | 37.591 | 12.233 | 32.452 | 2 |
| 2025-05-11T12:54:00 | 55.189246 | 7.384053 | 2.0 | 11.774 | 2 | 37.430 | 12.069 | 32.439 | 2 |
| 2025-05-11T12:55:00 | 55.188368 | 7.388650 | 2.0 | 11.664 | 2 | 37.303 | 11.940 | 32.429 | 2 |
| 2025-05-11T12:56:00 | 55.187440 | 7.393230 | 2.0 | 11.539 | 2 | 37.190 | 11.822 | 32.422 | 2 |
| 2025-05-11T12:57:00 | 55.186505 | 7.397742 | 2.0 | 11.448 | 2 | 37.109 | 11.728 | 32.426 | 2 |
| 2025-05-11T12:58:00 | 55.185587 | 7.402278 | 2.0 | 11.268 | 2 | 37.014 | 11.597 | 32.448 | 2 |
| 2025-05-11T12:59:00 | 55.184666 | 7.406812 | 2.0 | 11.157 | 2 | 36.859 | 11.447 | 32.428 | 2 |
| 2025-05-11T13:00:00 | 55.183728 | 7.411335 | 2.0 | 11.082 | 2 | 36.790 | 11.324 | 32.468 | 2 |
| 2025-05-11T13:01:00 | 55.182809 | 7.415857 | 2.0 | 11.019 | 2 | 36.714 | 11.263 | 32.447 | 2 |
| 2025-05-11T13:02:00 | 55.181879 | 7.420388 | 2.0 | 10.995 | 2 | 36.648 | 11.201 | 32.437 | 2 |
| 2025-05-11T13:03:00 | 55.180968 | 7.424943 | 2.0 | 10.949 | 2 | 36.636 | 11.165 | 32.457 | 2 |
| 2025-05-11T13:04:00 | 55.180082 | 7.429505 | 2.0 | 10.927 | 2 | 36.567 | 11.131 | 32.419 | 2 |
| 2025-05-11T13:05:00 | 55.179179 | 7.434089 | 2.0 | 10.890 | 2 | 36.540 | 11.112 | 32.409 | 2 |
| 2025-05-11T13:06:00 | 55.178261 | 7.438678 | 2.0 | 10.950 | 2 | 36.510 | 11.068 | 32.418 | 2 |
| 2025-05-11T13:07:00 | 55.177352 | 7.443278 | 2.0 | 11.045 | 2 | 36.560 | 11.142 | 32.402 | 2 |
| 2025-05-11T13:08:00 | 55.176420 | 7.447883 | 2.0 | 11.030 | 2 | 36.650 | 11.239 | 32.405 | 2 |
| 2025-05-11T13:09:00 | 55.175469 | 7.452493 | 2.0 | 10.937 | 2 | 36.608 | 11.191 | 32.406 | 2 |
| 2025-05-11T13:10:00 | 55.174547 | 7.457123 | 2.0 | 10.927 | 2 | 36.566 | 11.128 | 32.420 | 2 |
| 2025-05-11T13:11:00 | 55.173637 | 7.461746 | 2.0 | 10.880 | 2 | 36.515 | 11.100 | 32.395 | 2 |
| 2025-05-11T13:12:00 | 55.172701 | 7.466347 | 2.0 | 10.827 | 2 | 36.480 | 11.048 | 32.406 | 2 |
| 2025-05-11T13:13:00 | 55.171763 | 7.470939 | 2.0 | 10.840 | 2 | 36.435 | 11.006 | 32.399 | 2 |
| 2025-05-11T13:14:00 | 55.170841 | 7.475509 | 2.0 | 10.753 | 2 | 36.425 | 11.005 | 32.390 | 2 |
| 2025-05-11T13:15:00 | 55.169944 | 7.480089 | 2.0 | 10.661 | 2 | 36.342 | 10.913 | 32.389 | 2 |
| 2025-05-11T13:16:00 | 55.169035 | 7.484627 | 2.0 | 10.556 | 2 | 36.270 | 10.836 | 32.385 | 2 |
| 2025-05-11T13:17:00 | 55.168130 | 7.489145 | 2.0 | 10.607 | 2 | 36.188 | 10.758 | 32.373 | 2 |
| 2025-05-11T13:18:00 | 55.167228 | 7.493655 | 2.0 | 10.562 | 2 | 36.197 | 10.779 | 32.363 | 2 |
| 2025-05-11T13:19:00 | 55.166374 | 7.497854 | 2.0 | 10.570 | 2 | 36.169 | 10.748 | 32.363 | 2 |
| 2025-05-11T13:20:00 | 55.165880 | 7.501167 | 2.0 | 10.641 | 2 | 36.164 | 10.748 | 32.358 | 2 |
| 2025-05-11T13:21:00 | 55.165512 | 7.503842 | 2.0 | 10.692 | 2 | 36.254 | 10.870 | 32.339 | 2 |
| 2025-05-11T13:22:00 | 55.165211 | 7.506126 | 2.0 | 10.525 | 2 | 36.237 | 10.820 | 32.367 | 2 |
| 2025-05-11T13:23:00 | 55.164843 | 7.507931 | 2.0 | 10.574 | 2 | 36.132 | 10.717 | 32.353 | 2 |
| 2025-05-11T13:24:00 | 55.164486 | 7.509340 | 2.0 | 10.532 | 2 | 36.141 | 10.730 | 32.351 | 2 |
| 2025-05-11T13:25:00 | 55.164191 | 7.510516 | 2.0 | 10.519 | 2 | 36.113 | 10.698 | 32.351 | 2 |
| 2025-05-11T13:26:00 | 55.163928 | 7.511481 | 2.0 | 10.529 | 2 | 36.102 | 10.690 | 32.347 | 2 |
| 2025-05-11T13:27:00 | 55.163714 | 7.512240 | 2.0 | 10.648 | 2 | 36.131 | 10.730 | 32.341 | 2 |
| 2025-05-11T13:28:00 | 55.163704 | 7.512501 | 2.0 | 10.801 | 2 | 36.211 | 10.821 | 32.340 | 2 |
| 2025-05-11T13:29:00 | 55.163759 | 7.512570 | 2.0 | 10.837 | 2 | 36.359 | 11.009 | 32.321 | 2 |
| 2025-05-11T13:30:00 | 55.163788 | 7.512726 | 2.0 | 10.922 | 2 | 36.384 | 11.014 | 32.341 | 2 |
| 2025-05-11T13:31:00 | 55.163803 | 7.512924 | 2.0 | 10.951 | 2 | 36.453 | 11.093 | 32.340 | 2 |
| 2025-05-11T13:32:00 | 55.163836 | 7.513070 | 2.0 | 11.047 | 2 | 36.487 | 11.139 | 32.333 | 2 |
| 2025-05-11T13:33:00 | 55.163894 | 7.513180 | 2.0 | 11.035 | 2 | 36.540 | 11.192 | 32.338 | 2 |
| 2025-05-11T13:34:00 | 55.163969 | 7.513260 | 2.0 | 11.206 | 2 | 36.583 | 11.252 | 32.328 | 2 |
| 2025-05-11T13:35:00 | 55.164055 | 7.513292 | 2.0 | 11.327 | 2 | 36.678 | 11.361 | 32.326 | 2 |
| 2025-05-11T13:36:00 | 55.164141 | 7.513345 | 2.0 | 11.304 | 2 | 36.792 | 11.491 | 32.324 | 2 |
| 2025-05-11T13:37:00 | 55.163991 | 7.513441 | 2.0 | 10.845 | 2 | 36.740 | 11.401 | 32.351 | 2 |
| 2025-05-11T13:38:00 | 55.163245 | 7.513253 | 2.0 | 10.661 | 2 | 36.395 | 10.985 | 32.378 | 2 |
| 2025-05-11T13:39:00 | 55.161987 | 7.513081 | 2.0 | 10.565 | 2 | 36.249 | 10.853 | 32.349 | 2 |
| 2025-05-11T13:40:00 | 55.160062 | 7.513398 | 2.0 | 10.482 | 2 | 36.165 | 10.752 | 32.355 | 2 |
| 2025-05-11T13:41:00 | 55.157697 | 7.514096 | 2.0 | 10.540 | 2 | 36.096 | 10.683 | 32.348 | 2 |
| 2025-05-11T13:42:00 | 55.155114 | 7.514291 | 2.0 | 10.547 | 2 | 36.157 | 10.752 | 32.347 | 2 |
| 2025-05-11T13:43:00 | 55.152491 | 7.514664 | 2.0 | 11.030 | 2 | 36.247 | 10.879 | 32.324 | 2 |
| 2025-05-11T13:44:00 | 55.149854 | 7.515077 | 2.0 | 10.838 | 2 | 36.544 | 11.190 | 32.344 | 2 |
| 2025-05-11T13:45:00 | 55.147158 | 7.515464 | 2.0 | 10.896 | 2 | 36.370 | 11.017 | 32.325 | 2 |
| 2025-05-11T13:46:00 | 55.144456 | 7.515878 | 2.0 | 11.795 | 2 | 36.622 | 11.390 | 32.246 | 2 |
| 2025-05-11T13:47:00 | 55.141763 | 7.516297 | 2.0 | 11.827 | 2 | 37.040 | 11.860 | 32.244 | 2 |
| 2025-05-11T13:48:00 | 55.139055 | 7.516689 | 2.0 | 11.735 | 2 | 37.150 | 11.992 | 32.236 | 2 |
| 2025-05-11T13:49:00 | 55.136339 | 7.517090 | 2.0 | 11.758 | 2 | 37.134 | 11.907 | 32.294 | 2 |
| 2025-05-11T13:50:00 | 55.133598 | 7.517497 | 2.0 | 11.907 | 2 | 37.137 | 11.914 | 32.291 | 2 |
| 2025-05-11T13:51:00 | 55.130863 | 7.517948 | 2.0 | 11.918 | 2 | 37.248 | 12.083 | 32.252 | 2 |
| 2025-05-11T13:52:00 | 55.128114 | 7.518347 | 2.0 | 11.782 | 2 | 37.216 | 12.062 | 32.239 | 2 |
| 2025-05-11T13:53:00 | 55.125342 | 7.518711 | 2.0 | 11.748 | 2 | 37.094 | 11.952 | 32.216 | 2 |
| 2025-05-11T13:54:00 | 55.122557 | 7.519104 | 2.0 | 11.862 | 2 | 37.082 | 11.960 | 32.198 | 2 |
| 2025-05-11T13:55:00 | 55.119762 | 7.519474 | 2.0 | 11.955 | 2 | 37.152 | 12.009 | 32.223 | 2 |
| 2025-05-11T13:56:00 | 55.116959 | 7.519924 | 2.0 | 12.050 | 2 | 37.271 | 12.174 | 32.195 | 2 |
| 2025-05-11T13:57:00 | 55.114161 | 7.520358 | 2.0 | 11.997 | 2 | 37.324 | 12.204 | 32.221 | 2 |
| 2025-05-11T13:58:00 | 55.111354 | 7.520751 | 2.0 | 12.163 | 2 | 37.323 | 12.219 | 32.207 | 2 |
| 2025-05-11T13:59:00 | 55.108534 | 7.521096 | 2.0 | 12.025 | 2 | 37.392 | 12.289 | 32.213 | 2 |
| 2025-05-11T14:00:00 | 55.105696 | 7.521059 | 2.0 | 11.947 | 2 | 37.302 | 12.186 | 32.215 | 2 |
| 2025-05-11T14:01:00 | 55.102873 | 7.521545 | 2.0 | 11.888 | 2 | 37.227 | 12.108 | 32.210 | 2 |
| 2025-05-11T14:02:00 | 55.100080 | 7.522161 | 2.0 | 11.871 | 2 | 37.167 | 12.056 | 32.197 | 2 |
| 2025-05-11T14:03:00 | 55.097300 | 7.522775 | 2.0 | 11.968 | 2 | 37.153 | 12.057 | 32.183 | 2 |
| 2025-05-11T14:04:00 | 55.094522 | 7.523190 | 2.0 | 11.916 | 2 | 37.210 | 12.133 | 32.172 | 2 |
| 2025-05-11T14:05:00 | 55.091739 | 7.523587 | 2.0 | 11.977 | 2 | 37.185 | 12.103 | 32.174 | 2 |
| 2025-05-11T14:06:00 | 55.088958 | 7.524005 | 2.0 | 11.881 | 2 | 37.193 | 12.120 | 32.167 | 2 |
| 2025-05-11T14:07:00 | 55.086169 | 7.524383 | 2.0 | 11.861 | 2 | 37.142 | 12.065 | 32.165 | 2 |
| 2025-05-11T14:08:00 | 55.083382 | 7.524806 | 2.0 | 11.783 | 2 | 37.123 | 12.011 | 32.193 | 2 |
| 2025-05-11T14:09:00 | 55.080587 | 7.525237 | 2.0 | 11.881 | 2 | 37.112 | 11.997 | 32.195 | 2 |
| 2025-05-11T14:10:00 | 55.077787 | 7.525646 | 2.0 | 11.881 | 2 | 37.124 | 12.039 | 32.170 | 2 |
| 2025-05-11T14:11:00 | 55.074990 | 7.526078 | 2.0 | 11.936 | 2 | 37.121 | 12.056 | 32.153 | 2 |
| 2025-05-11T14:12:00 | 55.072184 | 7.526466 | 2.0 | 12.033 | 2 | 37.144 | 12.099 | 32.138 | 2 |
| 2025-05-11T14:13:00 | 55.069365 | 7.526825 | 2.0 | 12.242 | 2 | 37.244 | 12.249 | 32.105 | 2 |
| 2025-05-11T14:14:00 | 55.066545 | 7.527258 | 2.0 | 12.334 | 2 | 37.383 | 12.419 | 32.093 | 2 |
| 2025-05-11T14:15:00 | 55.063710 | 7.527641 | 2.0 | 12.510 | 2 | 37.454 | 12.516 | 32.078 | 2 |
| 2025-05-11T14:16:00 | 55.060881 | 7.528062 | 2.0 | 12.793 | 2 | 37.590 | 12.725 | 32.029 | 2 |
| 2025-05-11T14:17:00 | 55.058073 | 7.528500 | 2.0 | 12.772 | 2 | 37.735 | 12.936 | 31.987 | 2 |
| 2025-05-11T14:18:00 | 55.055265 | 7.528909 | 2.0 | 12.623 | 2 | 37.697 | 12.909 | 31.974 | 2 |
| 2025-05-11T14:19:00 | 55.052454 | 7.529273 | 2.0 | 12.527 | 2 | 37.572 | 12.780 | 31.965 | 2 |
| 2025-05-11T14:20:00 | 55.049649 | 7.529658 | 2.0 | 12.500 | 2 | 37.478 | 12.689 | 31.953 | 2 |
| 2025-05-11T14:21:00 | 55.046847 | 7.530034 | 2.0 | 12.454 | 2 | 37.418 | 12.660 | 31.921 | 2 |
| 2025-05-11T14:22:00 | 55.044049 | 7.530497 | 2.0 | 12.397 | 2 | 37.274 | 12.611 | 31.826 | 2 |
| 2025-05-11T14:23:00 | 55.041255 | 7.530896 | 2.0 | 12.386 | 2 | 37.209 | 12.567 | 31.801 | 2 |
| 2025-05-11T14:24:00 | 55.038458 | 7.531267 | 2.0 | 12.366 | 2 | 37.158 | 12.549 | 31.768 | 2 |
| 2025-05-11T14:25:00 | 55.035674 | 7.531662 | 2.0 | 12.354 | 2 | 37.139 | 12.528 | 31.767 | 2 |
| 2025-05-11T14:26:00 | 55.032876 | 7.532004 | 2.0 | 12.343 | 2 | 37.160 | 12.524 | 31.791 | 2 |
| 2025-05-11T14:27:00 | 55.030094 | 7.532489 | 2.0 | 12.396 | 2 | 37.125 | 12.517 | 31.763 | 2 |
| 2025-05-11T14:28:00 | 55.027314 | 7.532911 | 2.0 | 12.368 | 2 | 37.150 | 12.558 | 31.753 | 2 |
| 2025-05-11T14:29:00 | 55.024545 | 7.533314 | 2.0 | 12.359 | 2 | 37.157 | 12.544 | 31.771 | 2 |
| 2025-05-11T14:30:00 | 55.021769 | 7.533657 | 2.0 | 12.326 | 2 | 37.091 | 12.516 | 31.732 | 2 |
| 2025-05-11T14:31:00 | 55.019004 | 7.534073 | 2.0 | 12.324 | 2 | 37.094 | 12.495 | 31.752 | 2 |
| 2025-05-11T14:32:00 | 55.016235 | 7.534483 | 2.0 | 12.361 | 2 | 37.067 | 12.500 | 31.722 | 2 |
| 2025-05-11T14:33:00 | 55.013472 | 7.534915 | 2.0 | 12.344 | 2 | 37.111 | 12.515 | 31.752 | 2 |
| 2025-05-11T14:34:00 | 55.010692 | 7.535322 | 2.0 | 12.366 | 2 | 37.114 | 12.530 | 31.742 | 2 |
| 2025-05-11T14:35:00 | 55.007909 | 7.535689 | 2.0 | 12.378 | 2 | 37.122 | 12.530 | 31.750 | 2 |
| 2025-05-11T14:36:00 | 55.005142 | 7.536070 | 2.0 | 12.383 | 2 | 37.132 | 12.550 | 31.742 | 2 |
| 2025-05-11T14:37:00 | 55.002348 | 7.536487 | 2.0 | 12.411 | 2 | 37.131 | 12.557 | 31.735 | 2 |
| 2025-05-11T14:38:00 | 54.999554 | 7.536910 | 2.0 | 12.425 | 2 | 37.150 | 12.581 | 31.733 | 2 |
| 2025-05-11T14:39:00 | 54.996756 | 7.537281 | 2.0 | 12.474 | 2 | 37.173 | 12.599 | 31.740 | 2 |
| 2025-05-11T14:40:00 | 54.993962 | 7.537694 | 2.0 | 12.461 | 2 | 37.236 | 12.634 | 31.770 | 2 |
| 2025-05-11T14:41:00 | 54.991164 | 7.538104 | 2.0 | 12.472 | 2 | 37.263 | 12.636 | 31.794 | 2 |
| 2025-05-11T14:42:00 | 54.988369 | 7.538542 | 2.0 | 12.402 | 2 | 37.285 | 12.625 | 31.824 | 2 |
| 2025-05-11T14:43:00 | 54.985557 | 7.538949 | 2.0 | 12.410 | 2 | 37.270 | 12.565 | 31.861 | 2 |
| 2025-05-11T14:44:00 | 54.982737 | 7.539357 | 2.0 | 12.434 | 2 | 37.344 | 12.590 | 31.910 | 2 |
| 2025-05-11T14:45:00 | 54.979921 | 7.539782 | 2.0 | 12.381 | 2 | 37.435 | 12.601 | 31.987 | 2 |
| 2025-05-11T14:46:00 | 54.977109 | 7.540229 | 2.0 | 12.421 | 2 | 37.472 | 12.565 | 32.053 | 2 |
| 2025-05-11T14:47:00 | 54.974306 | 7.540669 | 2.0 | 12.020 | 2 | 37.527 | 12.501 | 32.160 | 2 |
| 2025-05-11T14:48:00 | 54.971502 | 7.540997 | 2.0 | 11.959 | 2 | 37.244 | 12.177 | 32.167 | 2 |
| 2025-05-11T14:49:00 | 54.968702 | 7.541333 | 2.0 | 12.080 | 2 | 37.212 | 12.159 | 32.152 | 2 |
| 2025-05-11T14:50:00 | 54.965908 | 7.541706 | 2.0 | 12.110 | 2 | 37.309 | 12.253 | 32.164 | 2 |
| 2025-05-11T14:51:00 | 54.963118 | 7.542087 | 2.0 | 12.101 | 2 | 37.326 | 12.276 | 32.161 | 2 |
| 2025-05-11T14:52:00 | 54.960335 | 7.542516 | 2.0 | 12.211 | 2 | 37.347 | 12.298 | 32.162 | 2 |
| 2025-05-11T14:53:00 | 54.957545 | 7.542916 | 2.0 | 12.098 | 2 | 37.407 | 12.349 | 32.175 | 2 |
| 2025-05-11T14:54:00 | 54.954756 | 7.543279 | 2.0 | 12.108 | 2 | 37.351 | 12.279 | 32.182 | 2 |
| 2025-05-11T14:55:00 | 54.951982 | 7.543669 | 2.0 | 12.074 | 2 | 37.334 | 12.275 | 32.169 | 2 |
| 2025-05-11T14:56:00 | 54.949212 | 7.544074 | 2.0 | 11.974 | 2 | 37.280 | 12.229 | 32.157 | 2 |
| 2025-05-11T14:57:00 | 54.946441 | 7.544515 | 2.0 | 12.201 | 2 | 37.200 | 12.151 | 32.147 | 2 |
| 2025-05-11T14:58:00 | 54.943667 | 7.544894 | 2.0 | 11.794 | 2 | 37.462 | 12.380 | 32.202 | 2 |
| 2025-05-11T14:59:00 | 54.940917 | 7.545272 | 2.0 | 11.841 | 2 | 37.213 | 11.955 | 32.329 | 2 |
| 2025-05-11T15:00:00 | 54.938164 | 7.545716 | 2.0 | 11.985 | 2 | 37.270 | 12.108 | 32.251 | 2 |
| 2025-05-11T15:01:00 | 54.935413 | 7.546102 | 2.0 | 11.389 | 2 | 37.273 | 11.980 | 32.365 | 2 |
| 2025-05-11T15:02:00 | 54.932669 | 7.546515 | 2.0 | 11.400 | 2 | 36.953 | 11.591 | 32.393 | 2 |
| 2025-05-11T15:03:00 | 54.929920 | 7.546948 | 2.0 | 11.502 | 2 | 36.972 | 11.614 | 32.392 | 2 |
| 2025-05-11T15:04:00 | 54.927173 | 7.547287 | 2.0 | 11.426 | 2 | 37.027 | 11.656 | 32.409 | 2 |
| 2025-05-11T15:05:00 | 54.924438 | 7.547717 | 2.0 | 11.450 | 2 | 37.009 | 11.604 | 32.437 | 2 |
| 2025-05-11T15:06:00 | 54.921704 | 7.548126 | 2.0 | 11.429 | 2 | 37.110 | 11.700 | 32.451 | 2 |
| 2025-05-11T15:07:00 | 54.918967 | 7.548484 | 2.0 | 11.630 | 2 | 37.030 | 11.612 | 32.450 | 2 |
| 2025-05-11T15:08:00 | 54.916216 | 7.548905 | 2.0 | 11.502 | 2 | 37.194 | 11.816 | 32.431 | 2 |
| 2025-05-11T15:09:00 | 54.913468 | 7.549321 | 2.0 | 11.636 | 2 | 37.122 | 11.711 | 32.453 | 2 |
| 2025-05-11T15:10:00 | 54.910710 | 7.549718 | 2.0 | 11.646 | 2 | 37.205 | 11.816 | 32.442 | 2 |
| 2025-05-11T15:11:00 | 54.907945 | 7.550098 | 2.0 | 11.524 | 2 | 37.196 | 11.811 | 32.438 | 2 |
| 2025-05-11T15:12:00 | 54.905599 | 7.550497 | 2.0 | 11.563 | 2 | 37.059 | 11.708 | 32.394 | 2 |
| 2025-05-11T15:13:00 | 54.903836 | 7.550486 | 2.0 | 11.532 | 2 | 37.056 | 11.729 | 32.373 | 2 |
| 2025-05-11T15:14:00 | 54.902368 | 7.550017 | 2.0 | 11.542 | 2 | 36.969 | 11.721 | 32.296 | 2 |
| 2025-05-11T15:15:00 | 54.901297 | 7.549679 | 2.0 | 11.956 | 2 | 36.564 | 11.738 | 31.888 | 2 |
| 2025-05-11T15:16:00 | 54.901116 | 7.550185 | 2.0 | 12.339 | 2 | 37.044 | 12.241 | 31.920 | 2 |
| 2025-05-11T15:17:00 | 54.901076 | 7.550687 | 2.0 | 12.227 | 2 | 37.369 | 12.465 | 32.040 | 2 |
| 2025-05-11T15:18:00 | 54.901003 | 7.551171 | 2.0 | 12.004 | 2 | 37.565 | 12.287 | 32.380 | 2 |
| 2025-05-11T15:19:00 | 54.900891 | 7.551599 | 2.0 | 12.202 | 2 | 37.243 | 12.220 | 32.129 | 2 |
| 2025-05-11T15:20:00 | 54.900754 | 7.551931 | 2.0 | 11.749 | 2 | 37.338 | 12.347 | 32.111 | 2 |
| 2025-05-11T15:21:00 | 54.900704 | 7.552110 | 2.0 | 12.280 | 2 | 37.105 | 12.018 | 32.170 | 2 |
| 2025-05-11T15:22:00 | 54.900694 | 7.552195 | 2.0 | 12.426 | 2 | 37.537 | 12.444 | 32.218 | 2 |
| 2025-05-11T15:23:00 | 54.900669 | 7.552245 | 2.0 | 12.430 | 2 | 37.579 | 12.600 | 32.125 | 2 |
| 2025-05-11T15:24:00 | 54.900615 | 7.552512 | 2.0 | 12.435 | 2 | 37.756 | 12.607 | 32.287 | 2 |
| 2025-05-11T15:25:00 | 54.900581 | 7.552745 | 2.0 | 12.422 | 2 | 37.807 | 12.623 | 32.322 | 2 |
| 2025-05-11T15:26:00 | 54.900568 | 7.552856 | 2.0 | 12.462 | 2 | 37.812 | 12.611 | 32.337 | 2 |
| 2025-05-11T15:27:00 | 54.900563 | 7.552828 | 2.0 | 12.458 | 2 | 37.855 | 12.649 | 32.345 | 2 |
| 2025-05-11T15:28:00 | 54.900358 | 7.552777 | 2.0 | 11.732 | 2 | 37.556 | 12.574 | 32.125 | 2 |
| 2025-05-11T15:29:00 | 54.899891 | 7.552023 | 2.0 | 11.401 | 2 | 36.967 | 11.805 | 32.221 | 2 |
| 2025-05-11T15:30:00 | 54.899373 | 7.551011 | 2.0 | 11.426 | 2 | 36.897 | 11.630 | 32.305 | 2 |
| 2025-05-11T15:31:00 | 54.898876 | 7.550048 | 2.0 | 11.483 | 2 | 36.747 | 11.632 | 32.157 | 2 |
| 2025-05-11T15:32:00 | 54.898512 | 7.549799 | 2.0 | 12.002 | 2 | 37.041 | 11.914 | 32.198 | 2 |
| 2025-05-11T15:33:00 | 54.897982 | 7.550155 | 2.0 | 11.671 | 2 | 37.282 | 12.035 | 32.326 | 2 |
| 2025-05-11T15:34:00 | 54.897618 | 7.550570 | 2.0 | 11.663 | 2 | 37.124 | 11.928 | 32.266 | 2 |
| 2025-05-11T15:35:00 | 54.897590 | 7.550527 | 2.0 | 11.149 | 2 | 36.975 | 11.719 | 32.303 | 2 |
| 2025-05-11T15:36:00 | 54.897582 | 7.550692 | 2.0 | 12.083 | 2 | 36.757 | 11.540 | 32.247 | 2 |
| 2025-05-11T15:37:00 | 54.897565 | 7.550793 | 2.0 | 12.457 | 2 | 37.430 | 12.294 | 32.245 | 2 |
| 2025-05-11T15:38:00 | 54.897548 | 7.550808 | 2.0 | 12.487 | 2 | 37.765 | 12.634 | 32.273 | 2 |
| 2025-05-11T15:39:00 | 54.897302 | 7.550809 | 2.0 | 11.650 | 2 | 37.705 | 12.574 | 32.267 | 2 |
| 2025-05-11T15:40:00 | 54.896784 | 7.549991 | 2.0 | 11.647 | 2 | 37.177 | 11.923 | 32.322 | 2 |
| 2025-05-11T15:41:00 | 54.896274 | 7.548889 | 2.0 | 11.596 | 2 | 37.085 | 11.885 | 32.266 | 2 |
| 2025-05-11T15:42:00 | 54.895773 | 7.547809 | 2.0 | 11.532 | 2 | 37.037 | 11.789 | 32.302 | 2 |
| 2025-05-11T15:43:00 | 54.895344 | 7.547577 | 2.0 | 11.847 | 2 | 36.976 | 11.752 | 32.275 | 2 |
| 2025-05-11T15:44:00 | 54.895077 | 7.547936 | 2.0 | 12.113 | 2 | 37.280 | 12.141 | 32.233 | 2 |
| 2025-05-11T15:45:00 | 54.894807 | 7.548460 | 2.0 | 11.869 | 2 | 37.437 | 12.215 | 32.320 | 2 |
| 2025-05-11T15:46:00 | 54.894680 | 7.548727 | 2.0 | 12.203 | 2 | 37.335 | 12.125 | 32.299 | 2 |
| 2025-05-11T15:47:00 | 54.894614 | 7.548885 | 2.0 | 12.215 | 2 | 37.544 | 12.373 | 32.286 | 2 |
| 2025-05-11T15:48:00 | 54.894558 | 7.549032 | 2.0 | 12.204 | 2 | 37.571 | 12.390 | 32.297 | 2 |
| 2025-05-11T15:49:00 | 54.894534 | 7.548858 | 2.0 | 12.218 | 2 | 37.601 | 12.403 | 32.315 | 2 |
| 2025-05-11T15:50:00 | 54.894516 | 7.548627 | 2.0 | 12.228 | 2 | 37.632 | 12.419 | 32.331 | 2 |
| 2025-05-11T15:51:00 | 54.894476 | 7.548489 | 2.0 | 12.212 | 2 | 37.637 | 12.422 | 32.333 | 2 |
| 2025-05-11T15:52:00 | 54.894212 | 7.548400 | 2.0 | 11.779 | 2 | 37.635 | 12.399 | 32.351 | 2 |
| 2025-05-11T15:53:00 | 54.894180 | 7.547532 | 2.0 | 11.414 | 2 | 37.211 | 11.860 | 32.409 | 2 |
| 2025-05-11T15:54:00 | 54.894781 | 7.546103 | 2.0 | 11.589 | 2 | 36.960 | 11.641 | 32.357 | 2 |
| 2025-05-11T15:55:00 | 54.895958 | 7.544808 | 2.0 | 11.555 | 2 | 37.127 | 11.862 | 32.326 | 2 |
| 2025-05-11T15:56:00 | 54.897606 | 7.544450 | 2.0 | 11.449 | 2 | 36.955 | 11.528 | 32.450 | 2 |
| 2025-05-11T15:57:00 | 54.899119 | 7.545745 | 2.0 | 11.546 | 2 | 37.076 | 11.769 | 32.358 | 2 |
| 2025-05-11T15:58:00 | 54.899915 | 7.548295 | 2.0 | 11.562 | 2 | 37.042 | 11.652 | 32.427 | 2 |
| 2025-05-11T15:59:00 | 54.899822 | 7.551221 | 2.0 | 11.572 | 2 | 37.155 | 11.825 | 32.386 | 2 |
| 2025-05-11T16:00:00 | 54.899119 | 7.554089 | 2.0 | 11.403 | 2 | 37.155 | 11.786 | 32.420 | 2 |
| 2025-05-11T16:01:00 | 54.898018 | 7.557429 | 2.0 | 11.414 | 2 | 36.954 | 11.598 | 32.388 | 2 |
| 2025-05-11T16:02:00 | 54.896701 | 7.560941 | 2.0 | 11.535 | 2 | 36.963 | 11.614 | 32.383 | 2 |
| 2025-05-11T16:03:00 | 54.895422 | 7.564680 | 2.0 | 11.690 | 2 | 37.097 | 11.762 | 32.384 | 2 |
| 2025-05-11T16:04:00 | 54.894096 | 7.568555 | 2.0 | 11.761 | 2 | 37.189 | 11.859 | 32.389 | 2 |
| 2025-05-11T16:05:00 | 54.892724 | 7.572497 | 2.0 | 11.965 | 2 | 37.185 | 11.971 | 32.288 | 2 |
| 2025-05-11T16:06:00 | 54.891343 | 7.576493 | 2.0 | 11.919 | 2 | 37.202 | 12.147 | 32.152 | 2 |
| 2025-05-11T16:07:00 | 54.889959 | 7.580487 | 2.0 | 11.736 | 2 | 37.106 | 12.083 | 32.115 | 2 |
| 2025-05-11T16:08:00 | 54.888594 | 7.584536 | 2.0 | 11.651 | 2 | 36.912 | 11.890 | 32.094 | 2 |
| 2025-05-11T16:09:00 | 54.887156 | 7.588514 | 2.0 | 11.761 | 2 | 36.847 | 11.865 | 32.053 | 2 |
| 2025-05-11T16:10:00 | 54.885706 | 7.592467 | 2.0 | 11.748 | 2 | 36.897 | 11.939 | 32.037 | 2 |
| 2025-05-11T16:11:00 | 54.884250 | 7.596436 | 2.0 | 11.716 | 2 | 36.841 | 11.899 | 32.018 | 2 |
| 2025-05-11T16:12:00 | 54.882829 | 7.600451 | 2.0 | 12.099 | 2 | 36.830 | 11.964 | 31.951 | 2 |
| 2025-05-11T16:13:00 | 54.881407 | 7.604482 | 2.0 | 12.218 | 2 | 37.033 | 12.308 | 31.853 | 2 |
| 2025-05-11T16:14:00 | 54.879927 | 7.608484 | 2.0 | 12.021 | 2 | 37.073 | 12.352 | 31.853 | 2 |
| 2025-05-11T16:15:00 | 54.878525 | 7.612551 | 2.0 | 11.837 | 2 | 36.954 | 12.216 | 31.855 | 2 |
| 2025-05-11T16:16:00 | 54.877103 | 7.616618 | 2.0 | 11.559 | 2 | 36.719 | 11.929 | 31.874 | 2 |
| 2025-05-11T16:17:00 | 54.875607 | 7.620632 | 2.0 | 11.469 | 2 | 36.602 | 11.800 | 31.871 | 2 |
| 2025-05-11T16:18:00 | 54.874161 | 7.624720 | 2.0 | 11.529 | 2 | 36.515 | 11.681 | 31.889 | 2 |
| 2025-05-11T16:19:00 | 54.872702 | 7.628806 | 2.0 | 11.669 | 2 | 36.581 | 11.768 | 31.878 | 2 |
| 2025-05-11T16:20:00 | 54.871254 | 7.632908 | 2.0 | 11.696 | 2 | 36.677 | 11.869 | 31.885 | 2 |
| 2025-05-11T16:21:00 | 54.869807 | 7.637025 | 2.0 | 11.583 | 2 | 36.687 | 11.866 | 31.897 | 2 |
| 2025-05-11T16:22:00 | 54.868350 | 7.641126 | 2.0 | 11.567 | 2 | 36.641 | 11.783 | 31.924 | 2 |
| 2025-05-11T16:23:00 | 54.866900 | 7.645260 | 2.0 | 11.524 | 2 | 36.635 | 11.751 | 31.945 | 2 |
| 2025-05-11T16:24:00 | 54.865449 | 7.649415 | 2.0 | 11.550 | 2 | 36.601 | 11.720 | 31.939 | 2 |
| 2025-05-11T16:25:00 | 54.863971 | 7.653526 | 2.0 | 11.556 | 2 | 36.592 | 11.726 | 31.925 | 2 |
| 2025-05-11T16:26:00 | 54.862502 | 7.657672 | 2.0 | 11.792 | 2 | 36.636 | 11.799 | 31.905 | 2 |
| 2025-05-11T16:27:00 | 54.861019 | 7.661776 | 2.0 | 11.911 | 2 | 36.803 | 12.007 | 31.888 | 2 |
| 2025-05-11T16:28:00 | 54.859541 | 7.665905 | 2.0 | 11.959 | 2 | 36.884 | 12.119 | 31.871 | 2 |
| 2025-05-11T16:29:00 | 54.858079 | 7.670046 | 2.0 | 12.009 | 2 | 36.904 | 12.148 | 31.865 | 2 |
| 2025-05-11T16:30:00 | 54.856610 | 7.674155 | 2.0 | 11.993 | 2 | 36.893 | 12.177 | 31.830 | 2 |
| 2025-05-11T16:31:00 | 54.855134 | 7.678270 | 2.0 | 12.051 | 2 | 36.849 | 12.174 | 31.790 | 2 |
| 2025-05-11T16:32:00 | 54.853657 | 7.682365 | 2.0 | 12.023 | 2 | 36.846 | 12.225 | 31.744 | 2 |
| 2025-05-11T16:33:00 | 54.852181 | 7.686476 | 2.0 | 11.930 | 2 | 36.790 | 12.178 | 31.730 | 2 |
| 2025-05-11T16:34:00 | 54.850731 | 7.690599 | 2.0 | 12.085 | 2 | 36.715 | 12.122 | 31.706 | 2 |
| 2025-05-11T16:35:00 | 54.849262 | 7.694705 | 2.0 | 12.191 | 2 | 36.774 | 12.266 | 31.640 | 2 |
| 2025-05-11T16:36:00 | 54.847799 | 7.698824 | 2.0 | 12.108 | 2 | 36.804 | 12.346 | 31.602 | 2 |
| 2025-05-11T16:37:00 | 54.846321 | 7.702948 | 2.0 | 12.019 | 2 | 36.712 | 12.276 | 31.573 | 2 |
| 2025-05-11T16:38:00 | 54.844841 | 7.707060 | 2.0 | 11.928 | 2 | 36.592 | 12.189 | 31.531 | 2 |
| 2025-05-11T16:39:00 | 54.843369 | 7.711190 | 2.0 | 11.834 | 2 | 36.471 | 12.084 | 31.504 | 2 |
| 2025-05-11T16:40:00 | 54.841907 | 7.715362 | 2.0 | 11.917 | 2 | 36.396 | 12.033 | 31.475 | 2 |
| 2025-05-11T16:41:00 | 54.840425 | 7.719490 | 2.0 | 11.944 | 2 | 36.415 | 12.091 | 31.444 | 2 |
| 2025-05-11T16:42:00 | 54.838954 | 7.723637 | 2.0 | 12.238 | 2 | 36.431 | 12.129 | 31.427 | 2 |
| 2025-05-11T16:43:00 | 54.837467 | 7.727765 | 2.0 | 12.297 | 2 | 36.642 | 12.432 | 31.375 | 2 |
| 2025-05-11T16:44:00 | 54.835982 | 7.731899 | 2.0 | 11.996 | 2 | 36.594 | 12.391 | 31.364 | 2 |
| 2025-05-11T16:45:00 | 54.834470 | 7.736023 | 2.0 | 11.783 | 2 | 36.345 | 12.149 | 31.328 | 2 |
| 2025-05-11T16:46:00 | 54.833015 | 7.740209 | 2.0 | 11.747 | 2 | 36.154 | 11.953 | 31.309 | 2 |
| 2025-05-11T16:47:00 | 54.831548 | 7.744383 | 2.0 | 11.862 | 2 | 36.142 | 11.954 | 31.297 | 2 |
| 2025-05-11T16:48:00 | 54.830066 | 7.748551 | 2.0 | 11.953 | 2 | 36.219 | 12.048 | 31.292 | 2 |
| 2025-05-11T16:49:00 | 54.828576 | 7.752716 | 2.0 | 12.040 | 2 | 36.295 | 12.142 | 31.286 | 2 |
| 2025-05-11T16:50:00 | 54.827098 | 7.756874 | 2.0 | 11.996 | 2 | 36.355 | 12.204 | 31.292 | 2 |
| 2025-05-11T16:51:00 | 54.825601 | 7.761044 | 2.0 | 11.988 | 2 | 36.330 | 12.159 | 31.305 | 2 |
| 2025-05-11T16:52:00 | 54.824130 | 7.765213 | 2.0 | 12.049 | 2 | 36.343 | 12.183 | 31.298 | 2 |
| 2025-05-11T16:53:00 | 54.822619 | 7.769336 | 2.0 | 11.822 | 2 | 36.315 | 12.152 | 31.297 | 2 |
| 2025-05-11T16:54:00 | 54.821146 | 7.773467 | 2.0 | 11.843 | 2 | 36.156 | 12.018 | 31.257 | 2 |
| 2025-05-11T16:55:00 | 54.819691 | 7.777599 | 2.0 | 11.765 | 2 | 36.136 | 12.003 | 31.250 | 2 |
| 2025-05-11T16:56:00 | 54.818209 | 7.781711 | 2.0 | 11.769 | 2 | 36.074 | 11.948 | 31.236 | 2 |
| 2025-05-11T16:57:00 | 54.816734 | 7.785804 | 2.0 | 11.767 | 2 | 36.055 | 11.941 | 31.224 | 2 |
| 2025-05-11T16:58:00 | 54.815285 | 7.789944 | 2.0 | 11.778 | 2 | 36.051 | 11.940 | 31.221 | 2 |
| 2025-05-11T16:59:00 | 54.813833 | 7.794087 | 2.0 | 11.805 | 2 | 36.056 | 11.955 | 31.213 | 2 |
| 2025-05-11T17:00:00 | 54.812356 | 7.798200 | 2.0 | 11.822 | 2 | 36.073 | 11.982 | 31.207 | 2 |
| 2025-05-11T17:01:00 | 54.810881 | 7.802337 | 2.0 | 11.819 | 2 | 36.079 | 11.994 | 31.203 | 2 |
| 2025-05-11T17:02:00 | 54.809394 | 7.806444 | 2.0 | 11.835 | 2 | 36.075 | 11.996 | 31.197 | 2 |
| 2025-05-11T17:03:00 | 54.807926 | 7.810591 | 2.0 | 11.865 | 2 | 36.084 | 12.009 | 31.195 | 2 |
| 2025-05-11T17:04:00 | 54.806458 | 7.814749 | 2.0 | 11.923 | 2 | 36.123 | 12.063 | 31.187 | 2 |
| 2025-05-11T17:05:00 | 54.804954 | 7.818889 | 2.0 | 11.970 | 2 | 36.161 | 12.103 | 31.190 | 2 |
| 2025-05-11T17:06:00 | 54.803464 | 7.823053 | 2.0 | 12.002 | 2 | 36.194 | 12.147 | 31.185 | 2 |
| 2025-05-11T17:07:00 | 54.801977 | 7.827229 | 2.0 | 12.017 | 2 | 36.222 | 12.190 | 31.176 | 2 |
| 2025-05-11T17:08:00 | 54.800469 | 7.831392 | 2.0 | 12.002 | 2 | 36.211 | 12.180 | 31.174 | 2 |
| 2025-05-11T17:09:00 | 54.798975 | 7.835574 | 2.0 | 12.050 | 2 | 36.201 | 12.179 | 31.165 | 2 |
| 2025-05-11T17:10:00 | 54.797471 | 7.839757 | 2.0 | 12.125 | 2 | 36.249 | 12.248 | 31.154 | 2 |
| 2025-05-11T17:11:00 | 54.795977 | 7.843948 | 2.0 | 12.039 | 2 | 36.115 | 12.296 | 30.986 | 2 |
| 2025-05-11T17:12:00 | 54.794500 | 7.848142 | 2.0 | 12.030 | 2 | 36.227 | 12.214 | 31.161 | 2 |
| 2025-05-11T17:13:00 | 54.793003 | 7.852338 | 2.0 | 12.086 | 2 | 36.210 | 12.208 | 31.150 | 2 |
| 2025-05-11T17:14:00 | 54.791518 | 7.856546 | 2.0 | 12.341 | 2 | 36.260 | 12.289 | 31.130 | 2 |
| 2025-05-11T17:15:00 | 54.790019 | 7.860730 | 2.0 | 12.435 | 2 | 36.436 | 12.515 | 31.110 | 2 |
| 2025-05-11T17:16:00 | 54.788522 | 7.864932 | 2.0 | 12.410 | 2 | 36.511 | 12.601 | 31.110 | 2 |
| 2025-05-11T17:17:00 | 54.787028 | 7.869107 | 2.0 | 12.411 | 2 | 36.483 | 12.582 | 31.099 | 2 |
| 2025-05-11T17:18:00 | 54.785550 | 7.873290 | 2.0 | 12.361 | 2 | 36.431 | 12.540 | 31.085 | 2 |
| 2025-05-11T17:19:00 | 54.784070 | 7.877468 | 2.0 | 12.346 | 2 | 36.396 | 12.523 | 31.066 | 2 |
| 2025-05-11T17:20:00 | 54.782582 | 7.881651 | 2.0 | 12.328 | 2 | 36.379 | 12.515 | 31.056 | 2 |
| 2025-05-11T17:21:00 | 54.781090 | 7.885821 | 2.0 | 12.348 | 2 | 36.353 | 12.498 | 31.046 | 2 |
| 2025-05-11T17:22:00 | 54.779608 | 7.890003 | 2.0 | 12.363 | 2 | 36.355 | 12.518 | 31.031 | 2 |
| 2025-05-11T17:23:00 | 54.778106 | 7.894183 | 2.0 | 12.339 | 2 | 36.352 | 12.526 | 31.022 | 2 |
| 2025-05-11T17:24:00 | 54.776581 | 7.898368 | 2.0 | 12.351 | 2 | 36.327 | 12.509 | 31.012 | 2 |
| 2025-05-11T17:25:00 | 54.775090 | 7.902565 | 2.0 | 12.361 | 2 | 36.326 | 12.520 | 31.002 | 2 |
| 2025-05-11T17:26:00 | 54.773598 | 7.906758 | 2.0 | 12.374 | 2 | 36.327 | 12.531 | 30.994 | 2 |
| 2025-05-11T17:27:00 | 54.772113 | 7.910944 | 2.0 | 12.367 | 2 | 36.331 | 12.544 | 30.987 | 2 |
| 2025-05-11T17:28:00 | 54.770624 | 7.915127 | 2.0 | 12.344 | 2 | 36.314 | 12.534 | 30.979 | 2 |
| 2025-05-11T17:29:00 | 54.769149 | 7.919292 | 2.0 | 12.331 | 2 | 36.286 | 12.513 | 30.970 | 2 |
| 2025-05-11T17:30:00 | 54.767657 | 7.923456 | 2.0 | 12.310 | 2 | 36.258 | 12.498 | 30.955 | 2 |
| 2025-05-11T17:31:00 | 54.766171 | 7.927614 | 2.0 | 12.294 | 2 | 36.226 | 12.479 | 30.941 | 2 |
| 2025-05-11T17:32:00 | 54.764688 | 7.931777 | 2.0 | 12.290 | 2 | 36.199 | 12.465 | 30.927 | 2 |
| 2025-05-11T17:33:00 | 54.763198 | 7.935929 | 2.0 | 12.288 | 2 | 36.185 | 12.458 | 30.919 | 2 |
| 2025-05-11T17:34:00 | 54.761712 | 7.940101 | 2.0 | 12.286 | 2 | 36.172 | 12.454 | 30.910 | 2 |
| 2025-05-11T17:35:00 | 54.760234 | 7.944250 | 2.0 | 12.324 | 2 | 36.175 | 12.469 | 30.901 | 2 |
| 2025-05-11T17:36:00 | 54.758748 | 7.948413 | 2.0 | 12.369 | 2 | 36.190 | 12.494 | 30.894 | 2 |
| 2025-05-11T17:37:00 | 54.757257 | 7.952559 | 2.0 | 12.430 | 2 | 36.225 | 12.543 | 30.887 | 2 |
| 2025-05-11T17:38:00 | 54.755770 | 7.956698 | 2.0 | 12.447 | 2 | 36.268 | 12.602 | 30.879 | 2 |
| 2025-05-11T17:39:00 | 54.754265 | 7.960846 | 2.0 | 12.478 | 2 | 36.283 | 12.620 | 30.879 | 2 |
| 2025-05-11T17:40:00 | 54.752776 | 7.964995 | 2.0 | 12.494 | 2 | 36.305 | 12.648 | 30.877 | 2 |
| 2025-05-11T17:41:00 | 54.751279 | 7.969168 | 2.0 | 12.478 | 2 | 36.315 | 12.657 | 30.879 | 2 |
| 2025-05-11T17:42:00 | 54.749799 | 7.973361 | 2.0 | 12.469 | 2 | 36.305 | 12.643 | 30.881 | 2 |
| 2025-05-11T17:43:00 | 54.748302 | 7.977528 | 2.0 | 12.463 | 2 | 36.301 | 12.635 | 30.884 | 2 |
| 2025-05-11T17:44:00 | 54.746805 | 7.981719 | 2.0 | 12.465 | 2 | 36.298 | 12.632 | 30.883 | 2 |
| 2025-05-11T17:45:00 | 54.745306 | 7.985877 | 2.0 | 12.474 | 2 | 36.300 | 12.636 | 30.882 | 2 |
| 2025-05-11T17:46:00 | 54.743806 | 7.990056 | 2.0 | 12.480 | 2 | 36.305 | 12.642 | 30.882 | 2 |
| 2025-05-11T17:47:00 | 54.742335 | 7.994231 | 2.0 | 12.489 | 2 | 36.312 | 12.650 | 30.882 | 2 |
| 2025-05-11T17:48:00 | 54.740846 | 7.998396 | 2.0 | 12.508 | 2 | 36.316 | 12.660 | 30.877 | 2 |
| 2025-05-11T17:49:00 | 54.739357 | 8.002560 | 2.0 | 12.519 | 2 | 36.322 | 12.674 | 30.872 | 2 |
| 2025-05-11T17:50:00 | 54.737864 | 8.006718 | 2.0 | 12.530 | 2 | 36.323 | 12.688 | 30.861 | 2 |
| 2025-05-11T17:51:00 | 54.736399 | 8.010874 | 2.0 | 12.555 | 2 | 36.324 | 12.702 | 30.851 | 2 |
| 2025-05-11T17:52:00 | 54.734914 | 8.015009 | 2.0 | 12.555 | 2 | 36.327 | 12.721 | 30.838 | 2 |
| 2025-05-11T17:53:00 | 54.733425 | 8.019159 | 2.0 | 12.545 | 2 | 36.314 | 12.717 | 30.829 | 2 |
| 2025-05-11T17:54:00 | 54.731950 | 8.023311 | 2.0 | 12.517 | 2 | 36.296 | 12.703 | 30.823 | 2 |
| 2025-05-11T17:55:00 | 54.730473 | 8.027464 | 2.0 | 12.490 | 2 | 36.270 | 12.679 | 30.818 | 2 |
| 2025-05-11T17:56:00 | 54.728977 | 8.031605 | 2.0 | 12.472 | 2 | 36.243 | 12.654 | 30.813 | 2 |
| 2025-05-11T17:57:00 | 54.727499 | 8.035774 | 2.0 | 12.469 | 2 | 36.224 | 12.640 | 30.807 | 2 |
| 2025-05-11T17:58:00 | 54.726005 | 8.039944 | 2.0 | 12.479 | 2 | 36.220 | 12.637 | 30.805 | 2 |
| 2025-05-11T17:59:00 | 54.724538 | 8.044124 | 2.0 | 12.502 | 2 | 36.235 | 12.651 | 30.808 | 2 |
| 2025-05-11T18:00:00 | 54.723029 | 8.048279 | 2.0 | 12.523 | 2 | 36.263 | 12.671 | 30.818 | 2 |
| 2025-05-11T18:01:00 | 54.721522 | 8.052431 | 2.0 | 12.505 | 2 | 36.279 | 12.686 | 30.821 | 2 |
| 2025-05-11T18:02:00 | 54.720056 | 8.056582 | 2.0 | 12.480 | 2 | 36.243 | 12.668 | 30.802 | 2 |
| 2025-05-11T18:03:00 | 54.718548 | 8.060710 | 2.0 | 12.461 | 2 | 36.199 | 12.645 | 30.779 | 2 |
| 2025-05-11T18:04:00 | 54.717090 | 8.064856 | 2.0 | 12.437 | 2 | 36.164 | 12.624 | 30.763 | 2 |
| 2025-05-11T18:05:00 | 54.715612 | 8.069002 | 2.0 | 12.428 | 2 | 36.135 | 12.602 | 30.754 | 2 |
| 2025-05-11T18:06:00 | 54.714130 | 8.073142 | 2.0 | 12.441 | 2 | 36.123 | 12.597 | 30.746 | 2 |
| 2025-05-11T18:07:00 | 54.712645 | 8.077289 | 2.0 | 12.463 | 2 | 36.121 | 12.608 | 30.736 | 2 |
| 2025-05-11T18:08:00 | 54.711153 | 8.081459 | 2.0 | 12.499 | 2 | 36.135 | 12.636 | 30.726 | 2 |
| 2025-05-11T18:09:00 | 54.709635 | 8.085630 | 2.0 | 12.530 | 2 | 36.155 | 12.668 | 30.719 | 2 |
| 2025-05-11T18:10:00 | 54.708121 | 8.089820 | 2.0 | 12.557 | 2 | 36.177 | 12.699 | 30.714 | 2 |
| 2025-05-11T18:11:00 | 54.706612 | 8.094006 | 2.0 | 12.584 | 2 | 36.189 | 12.724 | 30.705 | 2 |
| 2025-05-11T18:12:00 | 54.705096 | 8.098146 | 2.0 | 12.648 | 2 | 36.199 | 12.765 | 30.681 | 2 |
| 2025-05-11T18:13:00 | 54.703624 | 8.102183 | 2.0 | 12.669 | 2 | 36.206 | 12.813 | 30.649 | 2 |
| 2025-05-11T18:14:00 | 54.702235 | 8.106031 | 2.0 | 12.694 | 2 | 36.130 | 12.834 | 30.561 | 2 |
| 2025-05-11T18:15:00 | 54.700980 | 8.109492 | 2.0 | 12.718 | 2 | 36.080 | 12.866 | 30.488 | 2 |
| 2025-05-11T18:16:00 | 54.699851 | 8.112728 | 2.0 | 12.715 | 2 | 36.056 | 12.882 | 30.452 | 2 |
| 2025-05-11T18:17:00 | 54.698781 | 8.115884 | 2.0 | 12.730 | 2 | 36.026 | 12.874 | 30.431 | 2 |
| 2025-05-11T18:18:00 | 54.697726 | 8.118989 | 2.0 | 12.722 | 2 | 36.007 | 12.893 | 30.398 | 2 |
| 2025-05-11T18:19:00 | 54.696763 | 8.121747 | 2.0 | 12.699 | 2 | 36.047 | 12.879 | 30.446 | 2 |
| 2025-05-11T18:20:00 | 54.696003 | 8.123701 | 2.0 | 12.684 | 2 | 35.983 | 12.860 | 30.402 | 2 |
| 2025-05-11T18:21:00 | 54.696013 | 8.124345 | 2.0 | 12.681 | 2 | 36.001 | 12.848 | 30.428 | 2 |
| 2025-05-11T18:22:00 | 54.696090 | 8.124410 | 2.0 | 12.682 | 2 | 35.983 | 12.845 | 30.414 | 2 |
| 2025-05-11T18:23:00 | 54.696078 | 8.124405 | 2.0 | 12.681 | 2 | 36.021 | 12.844 | 30.450 | 2 |
| 2025-05-11T18:24:00 | 54.696050 | 8.124333 | 2.0 | 12.681 | 2 | 36.008 | 12.844 | 30.438 | 2 |
| 2025-05-11T18:25:00 | 54.696014 | 8.124245 | 2.0 | 12.680 | 2 | 36.002 | 12.843 | 30.433 | 2 |
| 2025-05-11T18:26:00 | 54.696016 | 8.124267 | 2.0 | 12.680 | 2 | 36.006 | 12.843 | 30.437 | 2 |
| 2025-05-11T18:27:00 | 54.696045 | 8.124393 | 2.0 | 12.677 | 2 | 36.035 | 12.842 | 30.465 | 2 |
| 2025-05-11T18:28:00 | 54.696070 | 8.124532 | 2.0 | 12.671 | 2 | 36.051 | 12.840 | 30.482 | 2 |
| 2025-05-11T18:29:00 | 54.696088 | 8.124629 | 2.0 | 12.669 | 2 | 36.065 | 12.835 | 30.499 | 2 |
| 2025-05-11T18:30:00 | 54.696092 | 8.124667 | 2.0 | 12.672 | 2 | 36.041 | 12.833 | 30.478 | 2 |
| 2025-05-11T18:31:00 | 54.696080 | 8.124650 | 2.0 | 12.671 | 2 | 36.045 | 12.835 | 30.480 | 2 |
| 2025-05-11T18:32:00 | 54.696059 | 8.124622 | 2.0 | 12.667 | 2 | 36.067 | 12.834 | 30.501 | 2 |
| 2025-05-11T18:33:00 | 54.696048 | 8.124634 | 2.0 | 12.665 | 2 | 36.057 | 12.830 | 30.495 | 2 |
| 2025-05-11T18:34:00 | 54.696056 | 8.124686 | 2.0 | 12.668 | 2 | 36.064 | 12.829 | 30.503 | 2 |
| 2025-05-11T18:35:00 | 54.696062 | 8.124768 | 2.0 | 12.668 | 2 | 36.071 | 12.831 | 30.508 | 2 |
| 2025-05-11T18:36:00 | 54.696064 | 8.124868 | 2.0 | 12.667 | 2 | 36.070 | 12.831 | 30.507 | 2 |
| 2025-05-11T18:37:00 | 54.696064 | 8.124968 | 2.0 | 12.666 | 2 | 36.073 | 12.830 | 30.510 | 2 |
| 2025-05-11T18:38:00 | 54.696060 | 8.125049 | 2.0 | 12.666 | 2 | 36.075 | 12.829 | 30.513 | 2 |
| 2025-05-11T18:39:00 | 54.696052 | 8.125103 | 2.0 | 12.665 | 2 | 36.080 | 12.830 | 30.517 | 2 |
| 2025-05-11T18:40:00 | 54.696030 | 8.125117 | 2.0 | 12.663 | 2 | 36.082 | 12.829 | 30.519 | 2 |
| 2025-05-11T18:41:00 | 54.696012 | 8.125098 | 2.0 | 12.661 | 2 | 36.081 | 12.826 | 30.521 | 2 |
| 2025-05-11T18:42:00 | 54.695996 | 8.125036 | 2.0 | 12.660 | 2 | 36.083 | 12.824 | 30.524 | 2 |
| 2025-05-11T18:43:00 | 54.695975 | 8.125020 | 2.0 | 12.659 | 2 | 36.079 | 12.824 | 30.521 | 2 |
| 2025-05-11T18:44:00 | 54.695963 | 8.125032 | 2.0 | 12.658 | 2 | 36.083 | 12.822 | 30.526 | 2 |
| 2025-05-11T18:45:00 | 54.695970 | 8.125085 | 2.0 | 12.656 | 2 | 36.086 | 12.821 | 30.530 | 2 |
| 2025-05-11T18:46:00 | 54.695979 | 8.125174 | 2.0 | 12.654 | 2 | 36.088 | 12.819 | 30.533 | 2 |
| 2025-05-11T18:47:00 | 54.695986 | 8.125286 | 2.0 | 12.652 | 2 | 36.089 | 12.818 | 30.535 | 2 |
| 2025-05-11T18:48:00 | 54.696002 | 8.125383 | 2.0 | 12.648 | 2 | 36.090 | 12.815 | 30.538 | 2 |
| 2025-05-11T18:49:00 | 54.696003 | 8.125447 | 2.0 | 12.646 | 2 | 36.090 | 12.812 | 30.541 | 2 |
| 2025-05-11T18:50:00 | 54.695990 | 8.125480 | 2.0 | 12.644 | 2 | 36.090 | 12.809 | 30.543 | 2 |
| 2025-05-11T18:51:00 | 54.695977 | 8.125486 | 2.0 | 12.642 | 2 | 36.090 | 12.807 | 30.545 | 2 |
| 2025-05-11T18:52:00 | 54.695970 | 8.125478 | 2.0 | 12.638 | 2 | 36.089 | 12.805 | 30.545 | 2 |
| 2025-05-11T18:53:00 | 54.695966 | 8.125488 | 2.0 | 12.637 | 2 | 36.089 | 12.802 | 30.548 | 2 |
| 2025-05-11T18:54:00 | 54.695943 | 8.125514 | 2.0 | 12.635 | 2 | 36.091 | 12.801 | 30.551 | 2 |
| 2025-05-11T18:55:00 | 54.695931 | 8.125617 | 2.0 | 12.632 | 2 | 36.091 | 12.798 | 30.553 | 2 |
| 2025-05-11T18:56:00 | 54.695951 | 8.125754 | 2.0 | 12.625 | 2 | 36.091 | 12.795 | 30.555 | 2 |
| 2025-05-11T18:57:00 | 54.695971 | 8.125896 | 2.0 | 12.616 | 2 | 36.086 | 12.787 | 30.557 | 2 |
| 2025-05-11T18:58:00 | 54.695971 | 8.125956 | 2.0 | 12.615 | 2 | 36.084 | 12.781 | 30.560 | 2 |
| 2025-05-11T18:59:00 | 54.695947 | 8.125929 | 2.0 | 12.608 | 2 | 36.084 | 12.778 | 30.563 | 2 |
| 2025-05-11T19:00:00 | 54.695934 | 8.125892 | 2.0 | 12.604 | 2 | 36.081 | 12.771 | 30.565 | 2 |
| 2025-05-11T19:01:00 | 54.695926 | 8.125854 | 2.0 | 12.595 | 2 | 36.080 | 12.767 | 30.568 | 2 |
| 2025-05-11T19:02:00 | 54.695906 | 8.125784 | 2.0 | 12.589 | 2 | 36.077 | 12.758 | 30.572 | 2 |
| 2025-05-11T19:03:00 | 54.695890 | 8.125664 | 2.0 | 12.585 | 2 | 36.075 | 12.752 | 30.575 | 2 |
| 2025-05-11T19:04:00 | 54.695880 | 8.125556 | 2.0 | 12.583 | 2 | 36.075 | 12.748 | 30.578 | 2 |
| 2025-05-11T19:05:00 | 54.695800 | 8.125249 | 2.0 | 12.580 | 2 | 36.076 | 12.746 | 30.581 | 2 |
| 2025-05-11T19:06:00 | 54.695791 | 8.125188 | 2.0 | 12.579 | 2 | 36.078 | 12.744 | 30.584 | 2 |
| 2025-05-11T19:07:00 | 54.695838 | 8.125203 | 2.0 | 12.577 | 2 | 36.075 | 12.743 | 30.582 | 2 |
| 2025-05-11T19:08:00 | 54.695893 | 8.125287 | 2.0 | 12.575 | 2 | 36.078 | 12.740 | 30.588 | 2 |
| 2025-05-11T19:09:00 | 54.695933 | 8.125390 | 2.0 | 12.574 | 2 | 36.082 | 12.739 | 30.592 | 2 |
| 2025-05-11T19:10:00 | 54.695960 | 8.125475 | 2.0 | 12.574 | 2 | 36.085 | 12.738 | 30.596 | 2 |
| 2025-05-11T19:11:00 | 54.695982 | 8.125521 | 2.0 | 12.572 | 2 | 36.086 | 12.737 | 30.598 | 2 |
| 2025-05-11T19:12:00 | 54.695995 | 8.125550 | 2.0 | 12.571 | 2 | 36.087 | 12.736 | 30.599 | 2 |
| 2025-05-11T19:13:00 | 54.695994 | 8.125561 | 2.0 | 12.569 | 2 | 36.088 | 12.735 | 30.601 | 2 |
| 2025-05-11T19:14:00 | 54.695985 | 8.125549 | 2.0 | 12.569 | 2 | 36.089 | 12.733 | 30.604 | 2 |
| 2025-05-11T19:15:00 | 54.695985 | 8.125531 | 2.0 | 12.569 | 2 | 36.091 | 12.733 | 30.606 | 2 |
| 2025-05-11T19:16:00 | 54.695985 | 8.125509 | 2.0 | 12.568 | 2 | 36.093 | 12.733 | 30.607 | 2 |
| 2025-05-11T19:17:00 | 54.695980 | 8.125498 | 2.0 | 12.568 | 2 | 36.096 | 12.732 | 30.611 | 2 |
| 2025-05-11T19:18:00 | 54.696000 | 8.125433 | 2.0 | 12.567 | 2 | 36.095 | 12.732 | 30.610 | 2 |
| 2025-05-11T19:19:00 | 54.696049 | 8.125514 | 2.0 | 12.567 | 2 | 36.098 | 12.731 | 30.614 | 2 |
| 2025-05-11T19:20:00 | 54.696102 | 8.125675 | 2.0 | 12.566 | 2 | 36.101 | 12.731 | 30.617 | 2 |
| 2025-05-11T19:21:00 | 54.696139 | 8.125789 | 2.0 | 12.566 | 2 | 36.103 | 12.730 | 30.619 | 2 |
| 2025-05-11T19:22:00 | 54.696145 | 8.125786 | 2.0 | 12.564 | 2 | 36.104 | 12.729 | 30.621 | 2 |
| 2025-05-11T19:23:00 | 54.696124 | 8.125697 | 2.0 | 12.564 | 2 | 36.106 | 12.729 | 30.623 | 2 |
| 2025-05-11T19:24:00 | 54.696072 | 8.125513 | 2.0 | 12.563 | 2 | 36.107 | 12.728 | 30.625 | 2 |
| 2025-05-11T19:25:00 | 54.696017 | 8.125288 | 2.0 | 12.563 | 2 | 36.108 | 12.727 | 30.626 | 2 |
| 2025-05-11T19:26:00 | 54.695988 | 8.125166 | 2.0 | 12.563 | 2 | 36.111 | 12.727 | 30.629 | 2 |
| 2025-05-11T19:27:00 | 54.695994 | 8.125151 | 2.0 | 12.563 | 2 | 36.113 | 12.727 | 30.631 | 2 |
| 2025-05-11T19:28:00 | 54.695993 | 8.125139 | 2.0 | 12.563 | 2 | 36.108 | 12.727 | 30.626 | 2 |
| 2025-05-11T19:29:00 | 54.696008 | 8.125128 | 2.0 | 12.564 | 2 | 36.116 | 12.727 | 30.634 | 2 |
| 2025-05-11T19:30:00 | 54.696081 | 8.125146 | 2.0 | 12.563 | 2 | 36.121 | 12.728 | 30.638 | 2 |
| 2025-05-11T19:31:00 | 54.696151 | 8.125257 | 2.0 | 12.563 | 2 | 36.124 | 12.727 | 30.642 | 2 |
| 2025-05-11T19:32:00 | 54.696199 | 8.125365 | 2.0 | 12.564 | 2 | 36.128 | 12.728 | 30.645 | 2 |
| 2025-05-11T19:33:00 | 54.696232 | 8.125394 | 2.0 | 12.562 | 2 | 36.130 | 12.728 | 30.646 | 2 |
| 2025-05-11T19:34:00 | 54.696235 | 8.125301 | 2.0 | 12.563 | 2 | 36.132 | 12.727 | 30.649 | 2 |
| 2025-05-11T19:35:00 | 54.696221 | 8.125183 | 2.0 | 12.561 | 2 | 36.134 | 12.726 | 30.652 | 2 |
| 2025-05-11T19:36:00 | 54.696226 | 8.125130 | 2.0 | 12.560 | 2 | 36.134 | 12.725 | 30.653 | 2 |
| 2025-05-11T19:37:00 | 54.696218 | 8.125057 | 2.0 | 12.557 | 2 | 36.133 | 12.723 | 30.653 | 2 |
| 2025-05-11T19:38:00 | 54.696181 | 8.124742 | 2.0 | 12.554 | 2 | 36.132 | 12.720 | 30.655 | 2 |
| 2025-05-11T19:39:00 | 54.696158 | 8.124589 | 2.0 | 12.554 | 2 | 36.136 | 12.718 | 30.660 | 2 |
| 2025-05-11T19:40:00 | 54.696132 | 8.124391 | 2.0 | 12.552 | 2 | 36.138 | 12.718 | 30.662 | 2 |
| 2025-05-11T19:41:00 | 54.696118 | 8.124223 | 2.0 | 12.551 | 2 | 36.141 | 12.717 | 30.666 | 2 |
| 2025-05-11T19:42:00 | 54.696117 | 8.124106 | 2.0 | 12.550 | 2 | 36.142 | 12.715 | 30.668 | 2 |
| 2025-05-11T19:43:00 | 54.696139 | 8.124008 | 2.0 | 12.549 | 2 | 36.144 | 12.714 | 30.671 | 2 |
| 2025-05-11T19:44:00 | 54.696183 | 8.123942 | 2.0 | 12.548 | 2 | 36.145 | 12.713 | 30.673 | 2 |
| 2025-05-11T19:45:00 | 54.696243 | 8.123935 | 2.0 | 12.547 | 2 | 36.141 | 12.712 | 30.670 | 2 |
| 2025-05-11T19:46:00 | 54.696328 | 8.124009 | 2.0 | 12.546 | 2 | 36.145 | 12.711 | 30.674 | 2 |
| 2025-05-11T19:47:00 | 54.696440 | 8.124160 | 2.0 | 12.545 | 2 | 36.152 | 12.710 | 30.682 | 2 |
| 2025-05-11T19:48:00 | 54.696534 | 8.124260 | 2.0 | 12.544 | 2 | 36.150 | 12.709 | 30.681 | 2 |
| 2025-05-11T19:49:00 | 54.696585 | 8.124198 | 2.0 | 12.542 | 2 | 36.153 | 12.708 | 30.684 | 2 |
| 2025-05-11T19:50:00 | 54.696604 | 8.124018 | 2.0 | 12.542 | 2 | 36.144 | 12.706 | 30.677 | 2 |
| 2025-05-11T19:51:00 | 54.696622 | 8.123820 | 2.0 | 12.541 | 2 | 36.150 | 12.706 | 30.683 | 2 |
| 2025-05-11T19:52:00 | 54.696640 | 8.123627 | 2.0 | 12.540 | 2 | 36.073 | 12.704 | 30.612 | 2 |
| 2025-05-11T19:53:00 | 54.696670 | 8.123465 | 2.0 | 12.540 | 2 | 36.136 | 12.704 | 30.672 | 2 |
| 2025-05-11T19:54:00 | 54.696730 | 8.123390 | 2.0 | 12.538 | 2 | 36.147 | 12.703 | 30.683 | 2 |
| 2025-05-11T19:55:00 | 54.696836 | 8.123422 | 2.0 | 12.535 | 2 | 36.130 | 12.702 | 30.668 | 2 |
| 2025-05-11T19:56:00 | 54.696979 | 8.123543 | 2.0 | 12.534 | 2 | 36.132 | 12.699 | 30.672 | 2 |
| 2025-05-11T19:57:00 | 54.697121 | 8.123763 | 2.0 | 12.532 | 2 | 36.150 | 12.697 | 30.690 | 2 |
| 2025-05-11T19:58:00 | 54.697287 | 8.123988 | 2.0 | 12.531 | 2 | 36.147 | 12.696 | 30.688 | 2 |
| 2025-05-11T19:59:00 | 54.697457 | 8.124277 | 2.0 | 12.528 | 2 | 36.155 | 12.695 | 30.697 | 2 |
| 2025-05-11T20:00:00 | 54.697646 | 8.124619 | 2.0 | 12.526 | 2 | 36.145 | 12.692 | 30.690 | 2 |
| 2025-05-11T20:01:00 | 54.697852 | 8.124964 | 2.0 | 12.526 | 2 | 36.158 | 12.690 | 30.704 | 2 |
| 2025-05-11T20:02:00 | 54.698063 | 8.125343 | 2.0 | 12.527 | 2 | 36.164 | 12.690 | 30.709 | 2 |
| 2025-05-11T20:03:00 | 54.698283 | 8.125749 | 2.0 | 12.527 | 2 | 36.168 | 12.691 | 30.712 | 2 |
| 2025-05-11T20:04:00 | 54.698509 | 8.126164 | 2.0 | 12.526 | 2 | 36.171 | 12.690 | 30.716 | 2 |
| 2025-05-11T20:05:00 | 54.698739 | 8.126576 | 2.0 | 12.528 | 2 | 36.174 | 12.691 | 30.718 | 2 |
| 2025-05-11T20:06:00 | 54.698979 | 8.126972 | 2.0 | 12.525 | 2 | 36.177 | 12.691 | 30.721 | 2 |
| 2025-05-11T20:07:00 | 54.699213 | 8.127349 | 2.0 | 12.524 | 2 | 36.178 | 12.689 | 30.723 | 2 |
| 2025-05-11T20:08:00 | 54.699418 | 8.127636 | 2.0 | 12.523 | 2 | 36.178 | 12.689 | 30.723 | 2 |
| 2025-05-11T20:09:00 | 54.699594 | 8.127832 | 2.0 | 12.525 | 2 | 36.175 | 12.689 | 30.721 | 2 |
| 2025-05-11T20:10:00 | 54.699747 | 8.127978 | 2.0 | 12.526 | 2 | 36.175 | 12.689 | 30.721 | 2 |
| 2025-05-11T20:11:00 | 54.699881 | 8.128044 | 2.0 | 12.523 | 2 | 36.178 | 12.690 | 30.723 | 2 |
| 2025-05-11T20:12:00 | 54.699979 | 8.127951 | 2.0 | 12.524 | 2 | 36.179 | 12.688 | 30.725 | 2 |
| 2025-05-11T20:13:00 | 54.700042 | 8.127781 | 2.0 | 12.523 | 2 | 36.181 | 12.687 | 30.728 | 2 |
| 2025-05-11T20:14:00 | 54.700112 | 8.127614 | 2.0 | 12.521 | 2 | 36.181 | 12.686 | 30.729 | 2 |
| 2025-05-11T20:15:00 | 54.700172 | 8.127445 | 2.0 | 12.519 | 2 | 36.181 | 12.685 | 30.729 | 2 |
| 2025-05-11T20:16:00 | 54.700233 | 8.127278 | 2.0 | 12.516 | 2 | 36.182 | 12.683 | 30.732 | 2 |
| 2025-05-11T20:17:00 | 54.700318 | 8.127080 | 2.0 | 12.513 | 2 | 36.179 | 12.680 | 30.732 | 2 |
| 2025-05-11T20:18:00 | 54.700418 | 8.126930 | 2.0 | 12.508 | 2 | 36.180 | 12.676 | 30.736 | 2 |
| 2025-05-11T20:19:00 | 54.700525 | 8.126819 | 2.0 | 12.507 | 2 | 36.180 | 12.672 | 30.739 | 2 |
| 2025-05-11T20:20:00 | 54.700652 | 8.126716 | 2.0 | 12.502 | 2 | 36.180 | 12.669 | 30.742 | 2 |
| 2025-05-11T20:21:00 | 54.700797 | 8.126716 | 2.0 | 12.500 | 2 | 36.179 | 12.666 | 30.743 | 2 |
| 2025-05-11T20:22:00 | 54.700923 | 8.126861 | 2.0 | 12.499 | 2 | 36.179 | 12.664 | 30.745 | 2 |
| 2025-05-11T20:23:00 | 54.700963 | 8.127152 | 2.0 | 12.495 | 2 | 36.178 | 12.662 | 30.745 | 2 |
| 2025-05-11T20:24:00 | 54.700910 | 8.127448 | 2.0 | 12.495 | 2 | 36.177 | 12.660 | 30.746 | 2 |
| 2025-05-11T20:25:00 | 54.700838 | 8.127759 | 2.0 | 12.495 | 2 | 36.177 | 12.660 | 30.746 | 2 |
| 2025-05-11T20:26:00 | 54.700756 | 8.128097 | 2.0 | 12.492 | 2 | 36.177 | 12.660 | 30.746 | 2 |
| 2025-05-11T20:27:00 | 54.700673 | 8.128434 | 2.0 | 12.492 | 2 | 36.169 | 12.657 | 30.741 | 2 |
| 2025-05-11T20:28:00 | 54.700576 | 8.128751 | 2.0 | 12.492 | 2 | 36.161 | 12.658 | 30.733 | 2 |
| 2025-05-11T20:29:00 | 54.700511 | 8.128962 | 2.0 | 12.491 | 2 | 36.173 | 12.657 | 30.745 | 2 |
| 2025-05-11T20:30:00 | 54.700469 | 8.129022 | 2.0 | 12.492 | 2 | 36.174 | 12.656 | 30.746 | 2 |
| 2025-05-11T20:31:00 | 54.700463 | 8.129064 | 2.0 | 12.491 | 2 | 36.172 | 12.656 | 30.745 | 2 |
| 2025-05-11T20:32:00 | 54.700433 | 8.129198 | 2.0 | 12.489 | 2 | 36.174 | 12.656 | 30.746 | 2 |
| 2025-05-11T20:33:00 | 54.700379 | 8.129295 | 2.0 | 12.488 | 2 | 36.175 | 12.654 | 30.749 | 2 |
| 2025-05-11T20:34:00 | 54.700336 | 8.129342 | 2.0 | 12.489 | 2 | 36.173 | 12.653 | 30.748 | 2 |
| 2025-05-11T20:35:00 | 54.700311 | 8.129388 | 2.0 | 12.486 | 2 | 36.173 | 12.653 | 30.748 | 2 |
| 2025-05-11T20:36:00 | 54.700279 | 8.129505 | 2.0 | 12.485 | 2 | 36.174 | 12.651 | 30.751 | 2 |
| 2025-05-11T20:37:00 | 54.700253 | 8.129705 | 2.0 | 12.485 | 2 | 36.174 | 12.650 | 30.751 | 2 |
| 2025-05-11T20:38:00 | 54.700219 | 8.129915 | 2.0 | 12.485 | 2 | 36.173 | 12.650 | 30.750 | 2 |
| 2025-05-11T20:39:00 | 54.700202 | 8.130060 | 2.0 | 12.485 | 2 | 36.174 | 12.650 | 30.751 | 2 |
| 2025-05-11T20:40:00 | 54.700210 | 8.130139 | 2.0 | 12.483 | 2 | 36.172 | 12.649 | 30.750 | 2 |
| 2025-05-11T20:41:00 | 54.700220 | 8.130185 | 2.0 | 12.481 | 2 | 36.171 | 12.647 | 30.751 | 2 |
| 2025-05-11T20:42:00 | 54.700217 | 8.130276 | 2.0 | 12.481 | 2 | 36.170 | 12.645 | 30.752 | 2 |
| 2025-05-11T20:43:00 | 54.700205 | 8.130445 | 2.0 | 12.480 | 2 | 36.170 | 12.645 | 30.752 | 2 |
| 2025-05-11T20:44:00 | 54.700179 | 8.130645 | 2.0 | 12.480 | 2 | 36.170 | 12.644 | 30.753 | 2 |
| 2025-05-11T20:45:00 | 54.700151 | 8.130817 | 2.0 | 12.480 | 2 | 36.171 | 12.645 | 30.753 | 2 |
| 2025-05-11T20:46:00 | 54.700149 | 8.130948 | 2.0 | 12.478 | 2 | 36.171 | 12.644 | 30.753 | 2 |
| 2025-05-11T20:47:00 | 54.700142 | 8.131075 | 2.0 | 12.476 | 2 | 36.171 | 12.643 | 30.754 | 2 |
| 2025-05-11T20:48:00 | 54.700148 | 8.131161 | 2.0 | 12.475 | 2 | 36.170 | 12.640 | 30.756 | 2 |
| 2025-05-11T20:49:00 | 54.700139 | 8.131198 | 2.0 | 12.474 | 2 | 36.169 | 12.639 | 30.756 | 2 |
| 2025-05-11T20:50:00 | 54.700143 | 8.131183 | 2.0 | 12.473 | 2 | 36.168 | 12.639 | 30.755 | 2 |
| 2025-05-11T20:51:00 | 54.700187 | 8.131140 | 2.0 | 12.472 | 2 | 36.167 | 12.637 | 30.755 | 2 |
| 2025-05-11T20:52:00 | 54.700215 | 8.131263 | 2.0 | 12.470 | 2 | 36.167 | 12.636 | 30.756 | 2 |
| 2025-05-11T20:53:00 | 54.700204 | 8.131499 | 2.0 | 12.467 | 2 | 36.165 | 12.634 | 30.756 | 2 |
| 2025-05-11T20:54:00 | 54.700176 | 8.131757 | 2.0 | 12.467 | 2 | 36.163 | 12.631 | 30.756 | 2 |
| 2025-05-11T20:55:00 | 54.700137 | 8.131991 | 2.0 | 12.468 | 2 | 36.163 | 12.632 | 30.756 | 2 |
| 2025-05-11T20:56:00 | 54.700092 | 8.132212 | 2.0 | 12.470 | 2 | 36.164 | 12.633 | 30.756 | 2 |
| 2025-05-11T20:57:00 | 54.700071 | 8.132417 | 2.0 | 12.476 | 2 | 36.167 | 12.636 | 30.756 | 2 |
| 2025-05-11T20:58:00 | 54.700079 | 8.132615 | 2.0 | 12.475 | 2 | 36.171 | 12.641 | 30.756 | 2 |
| 2025-05-11T20:59:00 | 54.700098 | 8.132780 | 2.0 | 12.470 | 2 | 36.170 | 12.638 | 30.757 | 2 |
| 2025-05-11T21:00:00 | 54.700122 | 8.132924 | 2.0 | 12.470 | 2 | 36.167 | 12.635 | 30.757 | 2 |
| 2025-05-11T21:01:00 | 54.700147 | 8.133059 | 2.0 | 12.468 | 2 | 36.166 | 12.634 | 30.757 | 2 |
| 2025-05-11T21:02:00 | 54.700193 | 8.133101 | 2.0 | 12.466 | 2 | 36.165 | 12.633 | 30.757 | 2 |
| 2025-05-11T21:03:00 | 54.700238 | 8.133015 | 2.0 | 12.466 | 2 | 36.163 | 12.631 | 30.756 | 2 |
| 2025-05-11T21:04:00 | 54.700285 | 8.132812 | 2.0 | 12.466 | 2 | 36.163 | 12.630 | 30.757 | 2 |
| 2025-05-11T21:05:00 | 54.700419 | 8.132765 | 2.0 | 12.463 | 2 | 36.163 | 12.629 | 30.758 | 2 |
| 2025-05-11T21:06:00 | 54.700526 | 8.132873 | 2.0 | 12.460 | 2 | 36.160 | 12.627 | 30.757 | 2 |
| 2025-05-11T21:07:00 | 54.700556 | 8.133143 | 2.0 | 12.459 | 2 | 36.159 | 12.624 | 30.758 | 2 |
| 2025-05-11T21:08:00 | 54.700550 | 8.133518 | 2.0 | 12.457 | 2 | 36.157 | 12.623 | 30.757 | 2 |
| 2025-05-11T21:09:00 | 54.700569 | 8.133930 | 2.0 | 12.461 | 2 | 36.157 | 12.622 | 30.758 | 2 |
| 2025-05-11T21:10:00 | 54.700594 | 8.134303 | 2.0 | 12.463 | 2 | 36.159 | 12.626 | 30.757 | 2 |
| 2025-05-11T21:11:00 | 54.700620 | 8.134616 | 2.0 | 12.464 | 2 | 36.159 | 12.628 | 30.755 | 2 |
| 2025-05-11T21:12:00 | 54.700670 | 8.134844 | 2.0 | 12.463 | 2 | 35.866 | 12.628 | 30.478 | 2 |
| 2025-05-11T21:13:00 | 54.700732 | 8.134983 | 2.0 | 12.462 | 2 | 36.162 | 12.628 | 30.758 | 2 |
| 2025-05-11T21:14:00 | 54.700809 | 8.134983 | 2.0 | 12.461 | 2 | 36.162 | 12.628 | 30.758 | 2 |
| 2025-05-11T21:15:00 | 54.700915 | 8.134892 | 2.0 | 12.458 | 2 | 36.144 | 12.624 | 30.744 | 2 |
| 2025-05-11T21:16:00 | 54.701122 | 8.134948 | 2.0 | 12.457 | 2 | 35.889 | 12.621 | 30.506 | 2 |
| 2025-05-11T21:17:00 | 54.701326 | 8.135306 | 2.0 | 12.455 | 2 | 35.985 | 12.620 | 30.597 | 2 |
| 2025-05-11T21:18:00 | 54.701406 | 8.135798 | 2.0 | 12.454 | 2 | 35.714 | 12.619 | 30.342 | 2 |
| 2025-05-11T21:19:00 | 54.701333 | 8.136198 | 2.0 | 12.458 | 2 | 36.114 | 12.619 | 30.720 | 2 |
| 2025-05-11T21:20:00 | 54.701287 | 8.136575 | 2.0 | 12.461 | 2 | 36.035 | 12.622 | 30.643 | 2 |
| 2025-05-11T21:21:00 | 54.701216 | 8.136876 | 2.0 | 12.454 | 2 | 35.950 | 12.623 | 30.562 | 2 |
| 2025-05-11T21:22:00 | 54.701073 | 8.137017 | 2.0 | 12.456 | 2 | 36.069 | 12.618 | 30.678 | 2 |
| 2025-05-11T21:23:00 | 54.700934 | 8.137061 | 2.0 | 12.457 | 2 | 35.994 | 12.621 | 30.605 | 2 |
| 2025-05-11T21:24:00 | 54.700851 | 8.137039 | 2.0 | 12.458 | 2 | 36.046 | 12.621 | 30.654 | 2 |
| 2025-05-11T21:25:00 | 54.700915 | 8.137078 | 2.0 | 12.458 | 2 | 36.139 | 12.622 | 30.741 | 2 |
| 2025-05-11T21:26:00 | 54.701226 | 8.137225 | 2.0 | 12.456 | 2 | 36.158 | 12.621 | 30.760 | 2 |
| 2025-05-11T21:27:00 | 54.701547 | 8.137518 | 2.0 | 12.455 | 2 | 36.157 | 12.620 | 30.760 | 2 |
| 2025-05-11T21:28:00 | 54.701671 | 8.138053 | 2.0 | 12.455 | 2 | 36.153 | 12.619 | 30.757 | 2 |
| 2025-05-11T21:29:00 | 54.701611 | 8.138724 | 2.0 | 12.460 | 2 | 36.153 | 12.620 | 30.756 | 2 |
| 2025-05-11T21:30:00 | 54.701517 | 8.139455 | 2.0 | 12.462 | 2 | 36.077 | 12.625 | 30.680 | 2 |
| 2025-05-11T21:31:00 | 54.701407 | 8.140011 | 2.0 | 12.465 | 2 | 36.045 | 12.626 | 30.649 | 2 |
| 2025-05-11T21:32:00 | 54.701332 | 8.140469 | 2.0 | 12.465 | 2 | 35.927 | 12.629 | 30.535 | 2 |
| 2025-05-11T21:33:00 | 54.701200 | 8.140775 | 2.0 | 12.467 | 2 | 36.009 | 12.630 | 30.612 | 2 |
| 2025-05-11T21:34:00 | 54.701049 | 8.141023 | 2.0 | 12.469 | 2 | 36.066 | 12.631 | 30.665 | 2 |
| 2025-05-11T21:35:00 | 54.700958 | 8.141337 | 2.0 | 12.467 | 2 | 36.152 | 12.632 | 30.745 | 2 |
| 2025-05-11T21:36:00 | 54.700951 | 8.141755 | 2.0 | 12.473 | 2 | 36.085 | 12.634 | 30.680 | 2 |
| 2025-05-11T21:37:00 | 54.701022 | 8.142208 | 2.0 | 12.474 | 2 | 36.123 | 12.635 | 30.715 | 2 |
| 2025-05-11T21:38:00 | 54.701137 | 8.142684 | 2.0 | 12.476 | 2 | 36.040 | 12.638 | 30.635 | 2 |
| 2025-05-11T21:39:00 | 54.701229 | 8.143028 | 2.0 | 12.476 | 2 | 36.020 | 12.641 | 30.613 | 2 |
| 2025-05-11T21:40:00 | 54.701203 | 8.143154 | 2.0 | 12.474 | 2 | 36.167 | 12.639 | 30.754 | 2 |
| 2025-05-11T21:41:00 | 54.701064 | 8.143009 | 2.0 | 12.471 | 2 | 36.068 | 12.637 | 30.662 | 2 |
| 2025-05-11T21:42:00 | 54.700855 | 8.142782 | 2.0 | 12.471 | 2 | 36.154 | 12.635 | 30.745 | 2 |
| 2025-05-11T21:43:00 | 54.700643 | 8.142493 | 2.0 | 12.472 | 2 | 35.929 | 12.634 | 30.533 | 2 |
| 2025-05-11T21:44:00 | 54.700453 | 8.142175 | 2.0 | 12.465 | 2 | 36.029 | 12.634 | 30.627 | 2 |
| 2025-05-11T21:45:00 | 54.700261 | 8.141875 | 2.0 | 12.463 | 2 | 35.908 | 12.627 | 30.519 | 2 |
| 2025-05-11T21:46:00 | 54.700064 | 8.141583 | 2.0 | 12.463 | 2 | 36.089 | 12.626 | 30.691 | 2 |
| 2025-05-11T21:47:00 | 54.699867 | 8.141295 | 2.0 | 12.459 | 2 | 35.986 | 12.625 | 30.594 | 2 |
| 2025-05-11T21:48:00 | 54.699671 | 8.141031 | 2.0 | 12.460 | 2 | 35.931 | 12.623 | 30.544 | 2 |
| 2025-05-11T21:49:00 | 54.699480 | 8.140800 | 2.0 | 12.467 | 2 | 36.013 | 12.625 | 30.620 | 2 |
| 2025-05-11T21:50:00 | 54.699281 | 8.140645 | 2.0 | 12.460 | 2 | 36.077 | 12.628 | 30.678 | 2 |
| 2025-05-11T21:51:00 | 54.699077 | 8.140707 | 2.0 | 12.462 | 2 | 36.040 | 12.625 | 30.645 | 2 |
| 2025-05-11T21:52:00 | 54.698856 | 8.141137 | 2.0 | 12.465 | 2 | 36.022 | 12.626 | 30.627 | 2 |
| 2025-05-11T21:53:00 | 54.698578 | 8.141641 | 2.0 | 12.470 | 2 | 35.956 | 12.629 | 30.563 | 2 |
| 2025-05-11T21:54:00 | 54.698250 | 8.142081 | 2.0 | 12.476 | 2 | 35.987 | 12.634 | 30.588 | 2 |
| 2025-05-11T21:55:00 | 54.697927 | 8.142579 | 2.0 | 12.482 | 2 | 36.017 | 12.640 | 30.611 | 2 |
| 2025-05-11T21:56:00 | 54.697566 | 8.143084 | 2.0 | 12.482 | 2 | 36.056 | 12.645 | 30.644 | 2 |
| 2025-05-11T21:57:00 | 54.697192 | 8.143631 | 2.0 | 12.486 | 2 | 36.005 | 12.646 | 30.595 | 2 |
| 2025-05-11T21:58:00 | 54.696787 | 8.144108 | 2.0 | 12.485 | 2 | 36.042 | 12.650 | 30.627 | 2 |
| 2025-05-11T21:59:00 | 54.696411 | 8.144545 | 2.0 | 12.490 | 2 | 36.048 | 12.648 | 30.634 | 2 |
| 2025-05-11T22:00:00 | 54.696047 | 8.144906 | 2.0 | 12.489 | 2 | 36.085 | 12.653 | 30.665 | 2 |
| 2025-05-11T22:01:00 | 54.695697 | 8.145214 | 2.0 | 12.490 | 2 | 36.098 | 12.653 | 30.677 | 2 |
| 2025-05-11T22:02:00 | 54.695368 | 8.145515 | 2.0 | 12.496 | 2 | 36.022 | 12.654 | 30.605 | 2 |
| 2025-05-11T22:03:00 | 54.695038 | 8.145782 | 2.0 | 12.492 | 2 | 36.015 | 12.657 | 30.596 | 2 |
| 2025-05-11T22:04:00 | 54.694713 | 8.146042 | 2.0 | 12.494 | 2 | 35.959 | 12.656 | 30.544 | 2 |
| 2025-05-11T22:05:00 | 54.694381 | 8.146290 | 2.0 | 12.497 | 2 | 36.024 | 12.658 | 30.603 | 2 |
| 2025-05-11T22:06:00 | 54.694024 | 8.146500 | 2.0 | 12.497 | 2 | 36.077 | 12.660 | 30.652 | 2 |
| 2025-05-11T22:07:00 | 54.693655 | 8.146742 | 2.0 | 12.498 | 2 | 36.054 | 12.661 | 30.629 | 2 |
| 2025-05-11T22:08:00 | 54.693258 | 8.146973 | 2.0 | 12.501 | 2 | 36.069 | 12.662 | 30.642 | 2 |
| 2025-05-11T22:09:00 | 54.692851 | 8.147171 | 2.0 | 12.500 | 2 | 36.126 | 12.664 | 30.695 | 2 |
| 2025-05-11T22:10:00 | 54.692445 | 8.147358 | 2.0 | 12.504 | 2 | 36.122 | 12.665 | 30.690 | 2 |
| 2025-05-11T22:11:00 | 54.692044 | 8.147538 | 2.0 | 12.505 | 2 | 36.119 | 12.667 | 30.686 | 2 |
| 2025-05-11T22:12:00 | 54.691633 | 8.147702 | 2.0 | 12.507 | 2 | 36.055 | 12.668 | 30.624 | 2 |
| 2025-05-11T22:13:00 | 54.691232 | 8.147852 | 2.0 | 12.510 | 2 | 36.122 | 12.671 | 30.685 | 2 |
| 2025-05-11T22:14:00 | 54.690837 | 8.148020 | 2.0 | 12.510 | 2 | 36.059 | 12.673 | 30.624 | 2 |
| 2025-05-11T22:15:00 | 54.690436 | 8.148185 | 2.0 | 12.510 | 2 | 36.104 | 12.673 | 30.667 | 2 |
| 2025-05-11T22:16:00 | 54.690027 | 8.148303 | 2.0 | 12.510 | 2 | 36.057 | 12.673 | 30.622 | 2 |
| 2025-05-11T22:17:00 | 54.689620 | 8.148440 | 2.0 | 12.509 | 2 | 36.118 | 12.673 | 30.680 | 2 |
| 2025-05-11T22:18:00 | 54.689213 | 8.148513 | 2.0 | 12.509 | 2 | 36.078 | 12.672 | 30.643 | 2 |
| 2025-05-11T22:19:00 | 54.688783 | 8.148438 | 2.0 | 12.510 | 2 | 36.111 | 12.673 | 30.673 | 2 |
| 2025-05-11T22:20:00 | 54.688369 | 8.148350 | 2.0 | 12.511 | 2 | 36.119 | 12.674 | 30.680 | 2 |
| 2025-05-11T22:21:00 | 54.687953 | 8.148295 | 2.0 | 12.510 | 2 | 36.119 | 12.674 | 30.680 | 2 |
| 2025-05-11T22:22:00 | 54.687539 | 8.148235 | 2.0 | 12.510 | 2 | 36.108 | 12.673 | 30.670 | 2 |
| 2025-05-11T22:23:00 | 54.687129 | 8.148140 | 2.0 | 12.514 | 2 | 36.111 | 12.674 | 30.672 | 2 |
| 2025-05-11T22:24:00 | 54.686734 | 8.148059 | 2.0 | 12.515 | 2 | 36.108 | 12.677 | 30.667 | 2 |
| 2025-05-11T22:25:00 | 54.686334 | 8.147987 | 2.0 | 12.514 | 2 | 36.109 | 12.676 | 30.669 | 2 |
| 2025-05-11T22:26:00 | 54.685944 | 8.147888 | 2.0 | 12.515 | 2 | 36.111 | 12.677 | 30.670 | 2 |
| 2025-05-11T22:27:00 | 54.685563 | 8.147800 | 2.0 | 12.515 | 2 | 36.109 | 12.678 | 30.667 | 2 |
| 2025-05-11T22:28:00 | 54.685179 | 8.147686 | 2.0 | 12.516 | 2 | 36.107 | 12.678 | 30.665 | 2 |
| 2025-05-11T22:29:00 | 54.684796 | 8.147613 | 2.0 | 12.516 | 2 | 36.107 | 12.679 | 30.665 | 2 |
| 2025-05-11T22:30:00 | 54.684421 | 8.147510 | 2.0 | 12.519 | 2 | 36.104 | 12.681 | 30.660 | 2 |
| 2025-05-11T22:31:00 | 54.684040 | 8.147422 | 2.0 | 12.522 | 2 | 36.104 | 12.682 | 30.659 | 2 |
| 2025-05-11T22:32:00 | 54.683674 | 8.147333 | 2.0 | 12.518 | 2 | 36.102 | 12.683 | 30.657 | 2 |
| 2025-05-11T22:33:00 | 54.683313 | 8.147158 | 2.0 | 12.517 | 2 | 36.102 | 12.681 | 30.658 | 2 |
| 2025-05-11T22:34:00 | 54.682956 | 8.147027 | 2.0 | 12.519 | 2 | 36.103 | 12.681 | 30.659 | 2 |
| 2025-05-11T22:35:00 | 54.682598 | 8.146957 | 2.0 | 12.522 | 2 | 36.101 | 12.684 | 30.655 | 2 |
| 2025-05-11T22:36:00 | 54.682240 | 8.146827 | 2.0 | 12.522 | 2 | 36.102 | 12.685 | 30.655 | 2 |
| 2025-05-11T22:37:00 | 54.681887 | 8.146703 | 2.0 | 12.525 | 2 | 36.100 | 12.687 | 30.651 | 2 |
| 2025-05-11T22:38:00 | 54.681533 | 8.146541 | 2.0 | 12.524 | 2 | 36.095 | 12.687 | 30.647 | 2 |
| 2025-05-11T22:39:00 | 54.681197 | 8.146409 | 2.0 | 12.523 | 2 | 36.081 | 12.686 | 30.634 | 2 |
| 2025-05-11T22:40:00 | 54.680858 | 8.146287 | 2.0 | 12.528 | 2 | 36.098 | 12.688 | 30.649 | 2 |
| 2025-05-11T22:41:00 | 54.680507 | 8.146190 | 2.0 | 12.526 | 2 | 36.082 | 12.691 | 30.631 | 2 |
| 2025-05-11T22:42:00 | 54.680146 | 8.146092 | 2.0 | 12.530 | 2 | 36.093 | 12.690 | 30.642 | 2 |
| 2025-05-11T22:43:00 | 54.679810 | 8.145944 | 2.0 | 12.531 | 2 | 36.093 | 12.693 | 30.640 | 2 |
| 2025-05-11T22:44:00 | 54.679475 | 8.145785 | 2.0 | 12.529 | 2 | 36.091 | 12.693 | 30.638 | 2 |
| 2025-05-11T22:45:00 | 54.679150 | 8.145627 | 2.0 | 12.527 | 2 | 36.088 | 12.692 | 30.636 | 2 |
| 2025-05-11T22:46:00 | 54.678825 | 8.145478 | 2.0 | 12.530 | 2 | 36.081 | 12.692 | 30.629 | 2 |
| 2025-05-11T22:47:00 | 54.678494 | 8.145354 | 2.0 | 12.529 | 2 | 36.090 | 12.693 | 30.637 | 2 |
| 2025-05-11T22:48:00 | 54.678162 | 8.145206 | 2.0 | 12.528 | 2 | 36.089 | 12.692 | 30.637 | 2 |
| 2025-05-11T22:49:00 | 54.677829 | 8.145085 | 2.0 | 12.533 | 2 | 36.082 | 12.693 | 30.630 | 2 |
| 2025-05-11T22:50:00 | 54.677506 | 8.144884 | 2.0 | 12.533 | 2 | 36.087 | 12.696 | 30.632 | 2 |
| 2025-05-11T22:51:00 | 54.677192 | 8.144738 | 2.0 | 12.531 | 2 | 36.083 | 12.696 | 30.628 | 2 |
| 2025-05-11T22:52:00 | 54.676879 | 8.144592 | 2.0 | 12.530 | 2 | 36.082 | 12.694 | 30.629 | 2 |
| 2025-05-11T22:53:00 | 54.676569 | 8.144400 | 2.0 | 12.529 | 2 | 36.079 | 12.694 | 30.626 | 2 |
| 2025-05-11T22:54:00 | 54.676262 | 8.144217 | 2.0 | 12.533 | 2 | 36.079 | 12.694 | 30.626 | 2 |
| 2025-05-11T22:55:00 | 54.675959 | 8.144027 | 2.0 | 12.533 | 2 | 36.079 | 12.696 | 30.624 | 2 |
| 2025-05-11T22:56:00 | 54.675659 | 8.143831 | 2.0 | 12.531 | 2 | 36.079 | 12.695 | 30.625 | 2 |
| 2025-05-11T22:57:00 | 54.675368 | 8.143619 | 2.0 | 12.530 | 2 | 36.075 | 12.694 | 30.622 | 2 |
| 2025-05-11T22:58:00 | 54.675067 | 8.143425 | 2.0 | 12.532 | 2 | 36.075 | 12.695 | 30.621 | 2 |
| 2025-05-11T22:59:00 | 54.674761 | 8.143238 | 2.0 | 12.532 | 2 | 36.076 | 12.695 | 30.622 | 2 |
| 2025-05-11T23:00:00 | 54.674455 | 8.143054 | 2.0 | 12.532 | 2 | 36.074 | 12.695 | 30.620 | 2 |
| 2025-05-11T23:01:00 | 54.674153 | 8.142862 | 2.0 | 12.531 | 2 | 36.070 | 12.694 | 30.617 | 2 |
| 2025-05-11T23:02:00 | 54.673848 | 8.142682 | 2.0 | 12.529 | 2 | 36.072 | 12.694 | 30.619 | 2 |
| 2025-05-11T23:03:00 | 54.673547 | 8.142490 | 2.0 | 12.529 | 2 | 36.070 | 12.692 | 30.619 | 2 |
| 2025-05-11T23:04:00 | 54.673253 | 8.142245 | 2.0 | 12.532 | 2 | 36.071 | 12.693 | 30.619 | 2 |
| 2025-05-11T23:05:00 | 54.672955 | 8.142018 | 2.0 | 12.528 | 2 | 36.073 | 12.694 | 30.620 | 2 |
| 2025-05-11T23:06:00 | 54.672662 | 8.141795 | 2.0 | 12.529 | 2 | 36.069 | 12.691 | 30.619 | 2 |
| 2025-05-11T23:07:00 | 54.672361 | 8.141621 | 2.0 | 12.527 | 2 | 36.070 | 12.691 | 30.620 | 2 |
| 2025-05-11T23:08:00 | 54.672061 | 8.141405 | 2.0 | 12.528 | 2 | 36.068 | 12.691 | 30.618 | 2 |
| 2025-05-11T23:09:00 | 54.671765 | 8.141176 | 2.0 | 12.527 | 2 | 36.066 | 12.690 | 30.617 | 2 |
| 2025-05-11T23:10:00 | 54.671490 | 8.141011 | 2.0 | 12.526 | 2 | 36.064 | 12.690 | 30.615 | 2 |
| 2025-05-11T23:11:00 | 54.671215 | 8.140819 | 2.0 | 12.525 | 2 | 36.063 | 12.689 | 30.615 | 2 |
| 2025-05-11T23:12:00 | 54.670941 | 8.140593 | 2.0 | 12.523 | 2 | 36.065 | 12.688 | 30.618 | 2 |
| 2025-05-11T23:13:00 | 54.670670 | 8.140375 | 2.0 | 12.523 | 2 | 36.066 | 12.687 | 30.619 | 2 |
| 2025-05-11T23:14:00 | 54.670394 | 8.140210 | 2.0 | 12.520 | 2 | 36.065 | 12.686 | 30.619 | 2 |
| 2025-05-11T23:15:00 | 54.670125 | 8.139999 | 2.0 | 12.518 | 2 | 36.062 | 12.684 | 30.618 | 2 |
| 2025-05-11T23:16:00 | 54.669849 | 8.139819 | 2.0 | 12.518 | 2 | 36.060 | 12.682 | 30.618 | 2 |
| 2025-05-11T23:17:00 | 54.669578 | 8.139647 | 2.0 | 12.515 | 2 | 36.062 | 12.680 | 30.621 | 2 |
| 2025-05-11T23:18:00 | 54.669300 | 8.139490 | 2.0 | 12.512 | 2 | 36.062 | 12.678 | 30.623 | 2 |
| 2025-05-11T23:19:00 | 54.669018 | 8.139359 | 2.0 | 12.514 | 2 | 36.054 | 12.676 | 30.617 | 2 |
| 2025-05-11T23:20:00 | 54.668741 | 8.139204 | 2.0 | 12.515 | 2 | 36.056 | 12.677 | 30.618 | 2 |
| 2025-05-11T23:21:00 | 54.668461 | 8.138963 | 2.0 | 12.514 | 2 | 36.057 | 12.677 | 30.619 | 2 |
| 2025-05-11T23:22:00 | 54.668200 | 8.138717 | 2.0 | 12.516 | 2 | 36.057 | 12.676 | 30.620 | 2 |
| 2025-05-11T23:23:00 | 54.667946 | 8.138488 | 2.0 | 12.513 | 2 | 36.058 | 12.678 | 30.619 | 2 |
| 2025-05-11T23:24:00 | 54.667694 | 8.138268 | 2.0 | 12.512 | 2 | 36.056 | 12.676 | 30.619 | 2 |
| 2025-05-11T23:25:00 | 54.667441 | 8.138025 | 2.0 | 12.511 | 2 | 36.051 | 12.675 | 30.615 | 2 |
| 2025-05-11T23:26:00 | 54.667195 | 8.137787 | 2.0 | 12.514 | 2 | 36.052 | 12.675 | 30.616 | 2 |
| 2025-05-11T23:27:00 | 54.666952 | 8.137546 | 2.0 | 12.511 | 2 | 36.053 | 12.677 | 30.615 | 2 |
| 2025-05-11T23:28:00 | 54.666702 | 8.137313 | 2.0 | 12.511 | 2 | 36.053 | 12.675 | 30.617 | 2 |
| 2025-05-11T23:29:00 | 54.666460 | 8.137037 | 2.0 | 12.508 | 2 | 36.052 | 12.673 | 30.618 | 2 |
| 2025-05-11T23:30:00 | 54.666224 | 8.136771 | 2.0 | 12.511 | 2 | 36.050 | 12.672 | 30.616 | 2 |
| 2025-05-11T23:31:00 | 54.665990 | 8.136531 | 2.0 | 12.506 | 2 | 36.052 | 12.672 | 30.618 | 2 |
| 2025-05-11T23:32:00 | 54.665750 | 8.136318 | 2.0 | 12.508 | 2 | 36.052 | 12.670 | 30.620 | 2 |
| 2025-05-11T23:33:00 | 54.665506 | 8.136097 | 2.0 | 12.506 | 2 | 36.052 | 12.670 | 30.620 | 2 |
| 2025-05-11T23:34:00 | 54.665268 | 8.135899 | 2.0 | 12.506 | 2 | 36.053 | 12.670 | 30.621 | 2 |
| 2025-05-11T23:35:00 | 54.665047 | 8.135735 | 2.0 | 12.504 | 2 | 36.051 | 12.669 | 30.620 | 2 |
| 2025-05-11T23:36:00 | 54.664824 | 8.135555 | 2.0 | 12.504 | 2 | 36.049 | 12.667 | 30.620 | 2 |
| 2025-05-11T23:37:00 | 54.664598 | 8.135291 | 2.0 | 12.504 | 2 | 36.049 | 12.667 | 30.620 | 2 |
| 2025-05-11T23:38:00 | 54.664411 | 8.135059 | 2.0 | 12.501 | 2 | 36.048 | 12.667 | 30.619 | 2 |
| 2025-05-11T23:39:00 | 54.664285 | 8.134816 | 2.0 | 12.498 | 2 | 36.047 | 12.664 | 30.620 | 2 |
| 2025-05-11T23:40:00 | 54.664217 | 8.134494 | 2.0 | 12.499 | 2 | 36.046 | 12.661 | 30.622 | 2 |
| 2025-05-11T23:41:00 | 54.664156 | 8.134187 | 2.0 | 12.492 | 2 | 36.047 | 12.660 | 30.623 | 2 |
| 2025-05-11T23:42:00 | 54.664069 | 8.133987 | 2.0 | 12.492 | 2 | 36.045 | 12.654 | 30.626 | 2 |
| 2025-05-11T23:43:00 | 54.663953 | 8.133967 | 2.0 | 12.489 | 2 | 36.046 | 12.654 | 30.627 | 2 |
| 2025-05-11T23:44:00 | 54.663841 | 8.134057 | 2.0 | 12.491 | 2 | 36.045 | 12.653 | 30.627 | 2 |
| 2025-05-11T23:45:00 | 54.663711 | 8.134134 | 2.0 | 12.491 | 2 | 36.045 | 12.653 | 30.627 | 2 |
| 2025-05-11T23:46:00 | 54.663621 | 8.134207 | 2.0 | 12.489 | 2 | 36.043 | 12.653 | 30.625 | 2 |
| 2025-05-11T23:47:00 | 54.663512 | 8.134082 | 2.0 | 12.488 | 2 | 36.040 | 12.652 | 30.623 | 2 |
| 2025-05-11T23:48:00 | 54.663440 | 8.133837 | 2.0 | 12.484 | 2 | 36.040 | 12.650 | 30.625 | 2 |
| 2025-05-11T23:49:00 | 54.663430 | 8.133505 | 2.0 | 12.479 | 2 | 36.036 | 12.646 | 30.624 | 2 |
| 2025-05-11T23:50:00 | 54.663481 | 8.132987 | 2.0 | 12.473 | 2 | 36.037 | 12.641 | 30.629 | 2 |
| 2025-05-11T23:51:00 | 54.663554 | 8.132388 | 2.0 | 12.464 | 2 | 36.033 | 12.633 | 30.632 | 2 |
| 2025-05-11T23:52:00 | 54.663643 | 8.131788 | 2.0 | 12.459 | 2 | 36.031 | 12.626 | 30.636 | 2 |
| 2025-05-11T23:53:00 | 54.663742 | 8.131164 | 2.0 | 12.452 | 2 | 36.032 | 12.621 | 30.641 | 2 |
| 2025-05-11T23:54:00 | 54.663842 | 8.130515 | 2.0 | 12.442 | 2 | 36.032 | 12.612 | 30.648 | 2 |
| 2025-05-11T23:55:00 | 54.663894 | 8.129917 | 2.0 | 12.436 | 2 | 36.032 | 12.603 | 30.656 | 2 |
| 2025-05-11T23:56:00 | 54.663910 | 8.129500 | 2.0 | 12.432 | 2 | 36.032 | 12.597 | 30.660 | 2 |
| 2025-05-11T23:57:00 | 54.663945 | 8.129504 | 2.0 | 12.433 | 2 | 36.028 | 12.595 | 30.658 | 2 |
| 2025-05-11T23:58:00 | 54.664145 | 8.129962 | 2.0 | 12.443 | 2 | 36.029 | 12.598 | 30.657 | 2 |
| 2025-05-11T23:59:00 | 54.664177 | 8.130613 | 2.0 | 12.453 | 2 | 36.032 | 12.607 | 30.652 | 2 |
| 2025-05-12T00:00:00 | 54.663996 | 8.131044 | 2.0 | 12.456 | 2 | 36.032 | 12.616 | 30.645 | 2 |
| 2025-05-12T00:01:00 | 54.663815 | 8.131281 | 2.0 | 12.462 | 2 | 36.028 | 12.620 | 30.638 | 2 |
| 2025-05-12T00:02:00 | 54.663581 | 8.131229 | 2.0 | 12.464 | 2 | 36.029 | 12.624 | 30.636 | 2 |
| 2025-05-12T00:03:00 | 54.663345 | 8.131100 | 2.0 | 12.462 | 2 | 36.030 | 12.626 | 30.635 | 2 |
| 2025-05-12T00:04:00 | 54.663115 | 8.130980 | 2.0 | 12.463 | 2 | 36.028 | 12.626 | 30.633 | 2 |
| 2025-05-12T00:05:00 | 54.662873 | 8.130800 | 2.0 | 12.464 | 2 | 35.906 | 12.626 | 30.518 | 2 |
| 2025-05-12T00:06:00 | 54.662654 | 8.130592 | 2.0 | 12.463 | 2 | 35.857 | 12.626 | 30.472 | 2 |
| 2025-05-12T00:07:00 | 54.662434 | 8.130354 | 2.0 | 12.463 | 2 | 35.809 | 12.625 | 30.427 | 2 |
| 2025-05-12T00:08:00 | 54.662213 | 8.130205 | 2.0 | 12.462 | 2 | 35.974 | 12.626 | 30.582 | 2 |
| 2025-05-12T00:09:00 | 54.661973 | 8.129971 | 2.0 | 12.461 | 2 | 35.942 | 12.624 | 30.553 | 2 |
| 2025-05-12T00:10:00 | 54.661756 | 8.129814 | 2.0 | 12.460 | 2 | 35.964 | 12.624 | 30.574 | 2 |
| 2025-05-12T00:11:00 | 54.661513 | 8.129627 | 2.0 | 12.459 | 2 | 35.808 | 12.623 | 30.428 | 2 |
| 2025-05-12T00:12:00 | 54.661268 | 8.129442 | 2.0 | 12.456 | 2 | 35.916 | 12.621 | 30.531 | 2 |
| 2025-05-12T00:13:00 | 54.661031 | 8.129219 | 2.0 | 12.454 | 2 | 35.965 | 12.619 | 30.579 | 2 |
| 2025-05-12T00:14:00 | 54.660809 | 8.129034 | 2.0 | 12.455 | 2 | 35.911 | 12.617 | 30.530 | 2 |
| 2025-05-12T00:15:00 | 54.660570 | 8.128853 | 2.0 | 12.452 | 2 | 35.804 | 12.617 | 30.429 | 2 |
| 2025-05-12T00:16:00 | 54.660330 | 8.128698 | 2.0 | 12.447 | 2 | 35.878 | 12.614 | 30.501 | 2 |
| 2025-05-12T00:17:00 | 54.660080 | 8.128519 | 2.0 | 12.449 | 2 | 35.779 | 12.610 | 30.411 | 2 |
| 2025-05-12T00:18:00 | 54.659829 | 8.128373 | 2.0 | 12.445 | 2 | 35.890 | 12.611 | 30.515 | 2 |
| 2025-05-12T00:19:00 | 54.659568 | 8.128212 | 2.0 | 12.443 | 2 | 35.868 | 12.608 | 30.497 | 2 |
| 2025-05-12T00:20:00 | 54.659318 | 8.128091 | 2.0 | 12.443 | 2 | 35.819 | 12.604 | 30.454 | 2 |
| 2025-05-12T00:21:00 | 54.659065 | 8.127968 | 2.0 | 12.440 | 2 | 35.809 | 12.604 | 30.444 | 2 |
| 2025-05-12T00:22:00 | 54.658816 | 8.127828 | 2.0 | 12.439 | 2 | 35.840 | 12.602 | 30.475 | 2 |
| 2025-05-12T00:23:00 | 54.658566 | 8.127685 | 2.0 | 12.438 | 2 | 35.877 | 12.601 | 30.511 | 2 |
| 2025-05-12T00:24:00 | 54.658313 | 8.127549 | 2.0 | 12.434 | 2 | 35.888 | 12.600 | 30.522 | 2 |
| 2025-05-12T00:25:00 | 54.658061 | 8.127436 | 2.0 | 12.434 | 2 | 35.897 | 12.597 | 30.533 | 2 |
| 2025-05-12T00:26:00 | 54.657818 | 8.127320 | 2.0 | 12.429 | 2 | 35.862 | 12.595 | 30.501 | 2 |
| 2025-05-12T00:27:00 | 54.657565 | 8.127191 | 2.0 | 12.434 | 2 | 35.910 | 12.592 | 30.549 | 2 |
| 2025-05-12T00:28:00 | 54.657301 | 8.127078 | 2.0 | 12.431 | 2 | 35.897 | 12.596 | 30.534 | 2 |
| 2025-05-12T00:29:00 | 54.657053 | 8.126968 | 2.0 | 12.431 | 2 | 35.944 | 12.593 | 30.580 | 2 |
| 2025-05-12T00:30:00 | 54.656816 | 8.126848 | 2.0 | 12.426 | 2 | 35.922 | 12.592 | 30.561 | 2 |
| 2025-05-12T00:31:00 | 54.656578 | 8.126707 | 2.0 | 12.426 | 2 | 35.944 | 12.590 | 30.583 | 2 |
| 2025-05-12T00:32:00 | 54.656353 | 8.126507 | 2.0 | 12.427 | 2 | 35.928 | 12.589 | 30.569 | 2 |
| 2025-05-12T00:33:00 | 54.656130 | 8.126332 | 2.0 | 12.424 | 2 | 35.956 | 12.588 | 30.596 | 2 |
| 2025-05-12T00:34:00 | 54.655922 | 8.126153 | 2.0 | 12.419 | 2 | 35.928 | 12.585 | 30.572 | 2 |
| 2025-05-12T00:35:00 | 54.655733 | 8.125829 | 2.0 | 12.418 | 2 | 35.948 | 12.581 | 30.594 | 2 |
| 2025-05-12T00:36:00 | 54.655573 | 8.125564 | 2.0 | 12.417 | 2 | 35.963 | 12.580 | 30.609 | 2 |
| 2025-05-12T00:37:00 | 54.655340 | 8.125358 | 2.0 | 12.417 | 2 | 36.001 | 12.580 | 30.645 | 2 |
| 2025-05-12T00:38:00 | 54.655028 | 8.125239 | 2.0 | 12.417 | 2 | 35.980 | 12.578 | 30.627 | 2 |
| 2025-05-12T00:39:00 | 54.654678 | 8.125235 | 2.0 | 12.415 | 2 | 35.999 | 12.577 | 30.645 | 2 |
| 2025-05-12T00:40:00 | 54.654358 | 8.125188 | 2.0 | 12.411 | 2 | 35.974 | 12.576 | 30.623 | 2 |
| 2025-05-12T00:41:00 | 54.654082 | 8.125044 | 2.0 | 12.406 | 2 | 36.018 | 12.572 | 30.668 | 2 |
| 2025-05-12T00:42:00 | 54.653822 | 8.124865 | 2.0 | 12.409 | 2 | 35.973 | 12.569 | 30.627 | 2 |
| 2025-05-12T00:43:00 | 54.653542 | 8.124679 | 2.0 | 12.408 | 2 | 36.022 | 12.570 | 30.673 | 2 |
| 2025-05-12T00:44:00 | 54.653270 | 8.124475 | 2.0 | 12.399 | 2 | 36.004 | 12.568 | 30.658 | 2 |
| 2025-05-12T00:45:00 | 54.652999 | 8.124227 | 2.0 | 12.398 | 2 | 36.021 | 12.561 | 30.679 | 2 |
| 2025-05-12T00:46:00 | 54.652671 | 8.124127 | 2.0 | 12.401 | 2 | 36.010 | 12.561 | 30.669 | 2 |
| 2025-05-12T00:47:00 | 54.652290 | 8.124101 | 2.0 | 12.394 | 2 | 36.020 | 12.562 | 30.678 | 2 |
| 2025-05-12T00:48:00 | 54.651882 | 8.124141 | 2.0 | 12.390 | 2 | 36.026 | 12.556 | 30.688 | 2 |
| 2025-05-12T00:49:00 | 54.651482 | 8.124208 | 2.0 | 12.385 | 2 | 36.012 | 12.552 | 30.678 | 2 |
| 2025-05-12T00:50:00 | 54.651075 | 8.124234 | 2.0 | 12.377 | 2 | 36.027 | 12.546 | 30.697 | 2 |
| 2025-05-12T00:51:00 | 54.650667 | 8.124287 | 2.0 | 12.373 | 2 | 36.023 | 12.538 | 30.700 | 2 |
| 2025-05-12T00:52:00 | 54.650252 | 8.124361 | 2.0 | 12.367 | 2 | 36.023 | 12.534 | 30.703 | 2 |
| 2025-05-12T00:53:00 | 54.649827 | 8.124443 | 2.0 | 12.367 | 2 | 36.013 | 12.529 | 30.698 | 2 |
| 2025-05-12T00:54:00 | 54.649412 | 8.124486 | 2.0 | 12.355 | 2 | 36.017 | 12.527 | 30.703 | 2 |
| 2025-05-12T00:55:00 | 54.649022 | 8.124493 | 2.0 | 12.347 | 2 | 36.014 | 12.517 | 30.709 | 2 |
| 2025-05-12T00:56:00 | 54.648620 | 8.124523 | 2.0 | 12.343 | 2 | 36.008 | 12.508 | 30.710 | 2 |
| 2025-05-12T00:57:00 | 54.648214 | 8.124575 | 2.0 | 12.335 | 2 | 36.009 | 12.505 | 30.714 | 2 |
| 2025-05-12T00:58:00 | 54.647796 | 8.124654 | 2.0 | 12.337 | 2 | 36.007 | 12.497 | 30.718 | 2 |
| 2025-05-12T00:59:00 | 54.647362 | 8.124690 | 2.0 | 12.329 | 2 | 36.009 | 12.498 | 30.719 | 2 |
| 2025-05-12T01:00:00 | 54.646944 | 8.124706 | 2.0 | 12.321 | 2 | 36.006 | 12.490 | 30.723 | 2 |
| 2025-05-12T01:01:00 | 54.646528 | 8.124780 | 2.0 | 12.315 | 2 | 36.002 | 12.482 | 30.726 | 2 |
| 2025-05-12T01:02:00 | 54.646098 | 8.124862 | 2.0 | 12.314 | 2 | 35.998 | 12.476 | 30.727 | 2 |
| 2025-05-12T01:03:00 | 54.645710 | 8.125027 | 2.0 | 12.313 | 2 | 35.999 | 12.475 | 30.729 | 2 |
| 2025-05-12T01:04:00 | 54.645378 | 8.125278 | 2.0 | 12.305 | 2 | 35.990 | 12.474 | 30.721 | 2 |
| 2025-05-12T01:05:00 | 54.645112 | 8.125487 | 2.0 | 12.296 | 2 | 35.988 | 12.467 | 30.725 | 2 |
| 2025-05-12T01:06:00 | 54.645046 | 8.125827 | 2.0 | 12.289 | 2 | 35.984 | 12.458 | 30.728 | 2 |
| 2025-05-12T01:07:00 | 54.645029 | 8.126107 | 2.0 | 12.291 | 2 | 35.982 | 12.451 | 30.732 | 2 |
| 2025-05-12T01:08:00 | 54.644933 | 8.126139 | 2.0 | 12.288 | 2 | 35.984 | 12.452 | 30.733 | 2 |
| 2025-05-12T01:09:00 | 54.644910 | 8.126161 | 2.0 | 12.285 | 2 | 35.984 | 12.451 | 30.734 | 2 |
| 2025-05-12T01:10:00 | 54.644915 | 8.126139 | 2.0 | 12.284 | 2 | 35.983 | 12.447 | 30.736 | 2 |
| 2025-05-12T01:11:00 | 54.644893 | 8.126154 | 2.0 | 12.281 | 2 | 35.983 | 12.446 | 30.737 | 2 |
| 2025-05-12T01:12:00 | 54.644865 | 8.126167 | 2.0 | 12.276 | 2 | 35.981 | 12.442 | 30.739 | 2 |
| 2025-05-12T01:13:00 | 54.644824 | 8.126100 | 2.0 | 12.276 | 2 | 35.975 | 12.439 | 30.735 | 2 |
| 2025-05-12T01:14:00 | 54.644760 | 8.126034 | 2.0 | 12.273 | 2 | 35.945 | 12.438 | 30.708 | 2 |
| 2025-05-12T01:15:00 | 54.644685 | 8.126054 | 2.0 | 12.270 | 2 | 35.948 | 12.434 | 30.714 | 2 |
| 2025-05-12T01:16:00 | 54.644594 | 8.126143 | 2.0 | 12.266 | 2 | 35.929 | 12.432 | 30.697 | 2 |
| 2025-05-12T01:17:00 | 54.644535 | 8.126349 | 2.0 | 12.259 | 2 | 35.851 | 12.425 | 30.629 | 2 |
| 2025-05-12T01:18:00 | 54.644464 | 8.126557 | 2.0 | 12.265 | 2 | 35.814 | 12.423 | 30.596 | 2 |
| 2025-05-12T01:19:00 | 54.644391 | 8.126683 | 2.0 | 12.265 | 2 | 35.864 | 12.427 | 30.640 | 2 |
| 2025-05-12T01:20:00 | 54.644351 | 8.126814 | 2.0 | 12.265 | 2 | 35.813 | 12.427 | 30.591 | 2 |
| 2025-05-12T01:21:00 | 54.644341 | 8.126911 | 2.0 | 12.263 | 2 | 35.857 | 12.427 | 30.633 | 2 |
| 2025-05-12T01:22:00 | 54.644306 | 8.126919 | 2.0 | 12.263 | 2 | 35.850 | 12.425 | 30.628 | 2 |
| 2025-05-12T01:23:00 | 54.644289 | 8.126937 | 2.0 | 12.256 | 2 | 35.881 | 12.424 | 30.658 | 2 |
| 2025-05-12T01:24:00 | 54.644289 | 8.126876 | 2.0 | 12.256 | 2 | 35.777 | 12.418 | 30.565 | 2 |
| 2025-05-12T01:25:00 | 54.644317 | 8.126781 | 2.0 | 12.254 | 2 | 35.743 | 12.417 | 30.533 | 2 |
| 2025-05-12T01:26:00 | 54.644317 | 8.126732 | 2.0 | 12.248 | 2 | 35.895 | 12.415 | 30.679 | 2 |
| 2025-05-12T01:27:00 | 54.644309 | 8.126726 | 2.0 | 12.258 | 2 | 35.871 | 12.413 | 30.658 | 2 |
| 2025-05-12T01:28:00 | 54.644288 | 8.126759 | 2.0 | 12.260 | 2 | 35.887 | 12.419 | 30.668 | 2 |
| 2025-05-12T01:29:00 | 54.644246 | 8.126799 | 2.0 | 12.252 | 2 | 35.845 | 12.419 | 30.628 | 2 |
| 2025-05-12T01:30:00 | 54.644206 | 8.126820 | 2.0 | 12.257 | 2 | 35.846 | 12.417 | 30.631 | 2 |
| 2025-05-12T01:31:00 | 54.644176 | 8.126852 | 2.0 | 12.255 | 2 | 35.925 | 12.418 | 30.705 | 2 |
| 2025-05-12T01:32:00 | 54.644127 | 8.126842 | 2.0 | 12.261 | 2 | 35.911 | 12.418 | 30.692 | 2 |
| 2025-05-12T01:33:00 | 54.644080 | 8.126874 | 2.0 | 12.260 | 2 | 35.837 | 12.421 | 30.619 | 2 |
| 2025-05-12T01:34:00 | 54.644037 | 8.126912 | 2.0 | 12.262 | 2 | 35.900 | 12.424 | 30.676 | 2 |
| 2025-05-12T01:35:00 | 54.643985 | 8.126902 | 2.0 | 12.260 | 2 | 35.859 | 12.424 | 30.638 | 2 |
| 2025-05-12T01:36:00 | 54.643946 | 8.126883 | 2.0 | 12.262 | 2 | 35.797 | 12.423 | 30.579 | 2 |
| 2025-05-12T01:37:00 | 54.643922 | 8.126836 | 2.0 | 12.260 | 2 | 35.886 | 12.423 | 30.664 | 2 |
| 2025-05-12T01:38:00 | 54.643877 | 8.126821 | 2.0 | 12.260 | 2 | 35.930 | 12.421 | 30.707 | 2 |
| 2025-05-12T01:39:00 | 54.643784 | 8.126775 | 2.0 | 12.259 | 2 | 35.961 | 12.422 | 30.736 | 2 |
| 2025-05-12T01:40:00 | 54.643729 | 8.126791 | 2.0 | 12.263 | 2 | 35.976 | 12.422 | 30.750 | 2 |
| 2025-05-12T01:41:00 | 54.643688 | 8.126756 | 2.0 | 12.261 | 2 | 35.985 | 12.424 | 30.757 | 2 |
| 2025-05-12T01:42:00 | 54.643627 | 8.126757 | 2.0 | 12.260 | 2 | 35.975 | 12.422 | 30.749 | 2 |
| 2025-05-12T01:43:00 | 54.643557 | 8.126751 | 2.0 | 12.257 | 2 | 35.983 | 12.421 | 30.758 | 2 |
| 2025-05-12T01:44:00 | 54.643483 | 8.126720 | 2.0 | 12.260 | 2 | 36.034 | 12.421 | 30.806 | 2 |
| 2025-05-12T01:45:00 | 54.643439 | 8.126679 | 2.0 | 12.259 | 2 | 36.039 | 12.422 | 30.810 | 2 |
| 2025-05-12T01:46:00 | 54.643366 | 8.126597 | 2.0 | 12.258 | 2 | 36.039 | 12.420 | 30.812 | 2 |
| 2025-05-12T01:47:00 | 54.643275 | 8.126516 | 2.0 | 12.257 | 2 | 36.043 | 12.420 | 30.815 | 2 |
| 2025-05-12T01:48:00 | 54.643202 | 8.126432 | 2.0 | 12.255 | 2 | 36.067 | 12.420 | 30.838 | 2 |
| 2025-05-12T01:49:00 | 54.643141 | 8.126356 | 2.0 | 12.256 | 2 | 36.069 | 12.418 | 30.842 | 2 |
| 2025-05-12T01:50:00 | 54.643054 | 8.126289 | 2.0 | 12.254 | 2 | 36.046 | 12.417 | 30.821 | 2 |
| 2025-05-12T01:51:00 | 54.643018 | 8.126261 | 2.0 | 12.257 | 2 | 36.069 | 12.417 | 30.843 | 2 |
| 2025-05-12T01:52:00 | 54.642915 | 8.126151 | 2.0 | 12.258 | 2 | 36.075 | 12.418 | 30.847 | 2 |
| 2025-05-12T01:53:00 | 54.642811 | 8.126100 | 2.0 | 12.260 | 2 | 36.088 | 12.421 | 30.857 | 2 |
| 2025-05-12T01:54:00 | 54.642705 | 8.126107 | 2.0 | 12.261 | 2 | 36.096 | 12.422 | 30.864 | 2 |
| 2025-05-12T01:55:00 | 54.642610 | 8.126152 | 2.0 | 12.263 | 2 | 36.098 | 12.424 | 30.864 | 2 |
| 2025-05-12T01:56:00 | 54.642545 | 8.126165 | 2.0 | 12.266 | 2 | 36.107 | 12.426 | 30.871 | 2 |
| 2025-05-12T01:57:00 | 54.642468 | 8.126171 | 2.0 | 12.267 | 2 | 36.106 | 12.428 | 30.869 | 2 |
| 2025-05-12T01:58:00 | 54.642369 | 8.126147 | 2.0 | 12.266 | 2 | 36.110 | 12.428 | 30.873 | 2 |
| 2025-05-12T01:59:00 | 54.642287 | 8.126095 | 2.0 | 12.267 | 2 | 36.085 | 12.428 | 30.849 | 2 |
| 2025-05-12T02:00:00 | 54.642181 | 8.126037 | 2.0 | 12.266 | 2 | 35.973 | 12.429 | 30.742 | 2 |
| 2025-05-12T02:01:00 | 54.642078 | 8.126043 | 2.0 | 12.270 | 2 | 36.028 | 12.429 | 30.794 | 2 |
| 2025-05-12T02:02:00 | 54.641999 | 8.126109 | 2.0 | 12.273 | 2 | 36.003 | 12.432 | 30.768 | 2 |
| 2025-05-12T02:03:00 | 54.641872 | 8.126115 | 2.0 | 12.271 | 2 | 35.907 | 12.434 | 30.675 | 2 |
| 2025-05-12T02:04:00 | 54.641767 | 8.126176 | 2.0 | 12.273 | 2 | 36.011 | 12.435 | 30.773 | 2 |
| 2025-05-12T02:05:00 | 54.641650 | 8.126220 | 2.0 | 12.272 | 2 | 35.957 | 12.435 | 30.722 | 2 |
| 2025-05-12T02:06:00 | 54.641533 | 8.126219 | 2.0 | 12.271 | 2 | 35.961 | 12.434 | 30.726 | 2 |
| 2025-05-12T02:07:00 | 54.641419 | 8.126243 | 2.0 | 12.276 | 2 | 35.985 | 12.434 | 30.749 | 2 |
| 2025-05-12T02:08:00 | 54.641305 | 8.126271 | 2.0 | 12.277 | 2 | 36.055 | 12.438 | 30.812 | 2 |
| 2025-05-12T02:09:00 | 54.641197 | 8.126313 | 2.0 | 12.279 | 2 | 35.994 | 12.439 | 30.753 | 2 |
| 2025-05-12T02:10:00 | 54.641064 | 8.126373 | 2.0 | 12.280 | 2 | 36.047 | 12.441 | 30.802 | 2 |
| 2025-05-12T02:11:00 | 54.640925 | 8.126443 | 2.0 | 12.277 | 2 | 36.005 | 12.440 | 30.763 | 2 |
| 2025-05-12T02:12:00 | 54.640757 | 8.126498 | 2.0 | 12.276 | 2 | 36.068 | 12.439 | 30.824 | 2 |
| 2025-05-12T02:13:00 | 54.640596 | 8.126527 | 2.0 | 12.277 | 2 | 36.075 | 12.439 | 30.830 | 2 |
| 2025-05-12T02:14:00 | 54.640431 | 8.126525 | 2.0 | 12.278 | 2 | 36.092 | 12.438 | 30.847 | 2 |
| 2025-05-12T02:15:00 | 54.640286 | 8.126485 | 2.0 | 12.275 | 2 | 36.041 | 12.438 | 30.799 | 2 |
| 2025-05-12T02:16:00 | 54.640165 | 8.126442 | 2.0 | 12.273 | 2 | 36.095 | 12.436 | 30.852 | 2 |
| 2025-05-12T02:17:00 | 54.640025 | 8.126396 | 2.0 | 12.272 | 2 | 36.083 | 12.436 | 30.840 | 2 |
| 2025-05-12T02:18:00 | 54.639887 | 8.126330 | 2.0 | 12.269 | 2 | 36.084 | 12.433 | 30.844 | 2 |
| 2025-05-12T02:19:00 | 54.639767 | 8.126324 | 2.0 | 12.264 | 2 | 36.114 | 12.430 | 30.875 | 2 |
| 2025-05-12T02:20:00 | 54.639622 | 8.126366 | 2.0 | 12.270 | 2 | 36.114 | 12.428 | 30.876 | 2 |
| 2025-05-12T02:21:00 | 54.639479 | 8.126357 | 2.0 | 12.269 | 2 | 36.108 | 12.432 | 30.867 | 2 |
| 2025-05-12T02:22:00 | 54.639351 | 8.126373 | 2.0 | 12.265 | 2 | 36.042 | 12.430 | 30.806 | 2 |
| 2025-05-12T02:23:00 | 54.639203 | 8.126375 | 2.0 | 12.262 | 2 | 36.060 | 12.425 | 30.827 | 2 |
| 2025-05-12T02:24:00 | 54.639062 | 8.126382 | 2.0 | 12.266 | 2 | 36.083 | 12.426 | 30.849 | 2 |
| 2025-05-12T02:25:00 | 54.638927 | 8.126359 | 2.0 | 12.268 | 2 | 36.007 | 12.428 | 30.775 | 2 |
| 2025-05-12T02:26:00 | 54.638767 | 8.126275 | 2.0 | 12.265 | 2 | 36.048 | 12.429 | 30.813 | 2 |
| 2025-05-12T02:27:00 | 54.638612 | 8.126202 | 2.0 | 12.257 | 2 | 36.130 | 12.425 | 30.894 | 2 |
| 2025-05-12T02:28:00 | 54.638468 | 8.126140 | 2.0 | 12.255 | 2 | 36.107 | 12.417 | 30.879 | 2 |
| 2025-05-12T02:29:00 | 54.638334 | 8.126145 | 2.0 | 12.258 | 2 | 36.071 | 12.419 | 30.843 | 2 |
| 2025-05-12T02:30:00 | 54.638178 | 8.126160 | 2.0 | 12.257 | 2 | 36.102 | 12.420 | 30.871 | 2 |
| 2025-05-12T02:31:00 | 54.638028 | 8.126164 | 2.0 | 12.256 | 2 | 36.107 | 12.419 | 30.877 | 2 |
| 2025-05-12T02:32:00 | 54.637880 | 8.126153 | 2.0 | 12.255 | 2 | 36.130 | 12.418 | 30.900 | 2 |
| 2025-05-12T02:33:00 | 54.637695 | 8.126072 | 2.0 | 12.254 | 2 | 36.109 | 12.417 | 30.881 | 2 |
| 2025-05-12T02:34:00 | 54.637495 | 8.125967 | 2.0 | 12.247 | 2 | 36.123 | 12.414 | 30.896 | 2 |
| 2025-05-12T02:35:00 | 54.637307 | 8.125919 | 2.0 | 12.248 | 2 | 36.122 | 12.409 | 30.900 | 2 |
| 2025-05-12T02:36:00 | 54.637146 | 8.125905 | 2.0 | 12.244 | 2 | 36.130 | 12.408 | 30.908 | 2 |
| 2025-05-12T02:37:00 | 54.636972 | 8.125832 | 2.0 | 12.247 | 2 | 36.114 | 12.406 | 30.894 | 2 |
| 2025-05-12T02:38:00 | 54.636786 | 8.125788 | 2.0 | 12.245 | 2 | 36.125 | 12.408 | 30.903 | 2 |
| 2025-05-12T02:39:00 | 54.636603 | 8.125793 | 2.0 | 12.249 | 2 | 36.127 | 12.407 | 30.906 | 2 |
| 2025-05-12T02:40:00 | 54.636420 | 8.125778 | 2.0 | 12.249 | 2 | 36.127 | 12.410 | 30.903 | 2 |
| 2025-05-12T02:41:00 | 54.636249 | 8.125750 | 2.0 | 12.248 | 2 | 36.130 | 12.411 | 30.905 | 2 |
| 2025-05-12T02:42:00 | 54.636051 | 8.125697 | 2.0 | 12.247 | 2 | 36.125 | 12.409 | 30.902 | 2 |
| 2025-05-12T02:43:00 | 54.635860 | 8.125680 | 2.0 | 12.249 | 2 | 36.126 | 12.408 | 30.904 | 2 |
| 2025-05-12T02:44:00 | 54.635655 | 8.125693 | 2.0 | 12.257 | 2 | 36.128 | 12.412 | 30.903 | 2 |
| 2025-05-12T02:45:00 | 54.635490 | 8.125734 | 2.0 | 12.255 | 2 | 36.127 | 12.417 | 30.898 | 2 |
| 2025-05-12T02:46:00 | 54.635332 | 8.125776 | 2.0 | 12.254 | 2 | 36.113 | 12.417 | 30.884 | 2 |
| 2025-05-12T02:47:00 | 54.635160 | 8.125868 | 2.0 | 12.257 | 2 | 36.111 | 12.416 | 30.883 | 2 |
| 2025-05-12T02:48:00 | 54.634962 | 8.125954 | 2.0 | 12.260 | 2 | 36.115 | 12.419 | 30.885 | 2 |
| 2025-05-12T02:49:00 | 54.634780 | 8.126077 | 2.0 | 12.261 | 2 | 36.122 | 12.422 | 30.889 | 2 |
| 2025-05-12T02:50:00 | 54.634566 | 8.126123 | 2.0 | 12.266 | 2 | 36.117 | 12.426 | 30.881 | 2 |
| 2025-05-12T02:51:00 | 54.634363 | 8.126089 | 2.0 | 12.269 | 2 | 36.124 | 12.428 | 30.886 | 2 |
| 2025-05-12T02:52:00 | 54.634183 | 8.126076 | 2.0 | 12.272 | 2 | 36.123 | 12.431 | 30.882 | 2 |
| 2025-05-12T02:53:00 | 54.633994 | 8.126056 | 2.0 | 12.273 | 2 | 36.121 | 12.433 | 30.879 | 2 |
| 2025-05-12T02:54:00 | 54.633803 | 8.126006 | 2.0 | 12.268 | 2 | 36.118 | 12.432 | 30.877 | 2 |
| 2025-05-12T02:55:00 | 54.633580 | 8.125962 | 2.0 | 12.275 | 2 | 36.122 | 12.432 | 30.881 | 2 |
| 2025-05-12T02:56:00 | 54.633390 | 8.125971 | 2.0 | 12.280 | 2 | 36.126 | 12.437 | 30.880 | 2 |
| 2025-05-12T02:57:00 | 54.633202 | 8.125997 | 2.0 | 12.278 | 2 | 36.127 | 12.441 | 30.878 | 2 |
| 2025-05-12T02:58:00 | 54.632987 | 8.125984 | 2.0 | 12.277 | 2 | 36.124 | 12.439 | 30.877 | 2 |
| 2025-05-12T02:59:00 | 54.632760 | 8.125957 | 2.0 | 12.278 | 2 | 36.125 | 12.437 | 30.879 | 2 |
| 2025-05-12T03:00:00 | 54.632530 | 8.125949 | 2.0 | 12.280 | 2 | 36.128 | 12.439 | 30.881 | 2 |
| 2025-05-12T03:01:00 | 54.632307 | 8.125994 | 2.0 | 12.284 | 2 | 36.126 | 12.441 | 30.877 | 2 |
| 2025-05-12T03:02:00 | 54.632061 | 8.126048 | 2.0 | 12.282 | 2 | 36.126 | 12.445 | 30.874 | 2 |
| 2025-05-12T03:03:00 | 54.631812 | 8.126102 | 2.0 | 12.283 | 2 | 35.844 | 12.443 | 30.608 | 2 |
| 2025-05-12T03:04:00 | 54.631579 | 8.126191 | 2.0 | 12.288 | 2 | 35.993 | 12.446 | 30.747 | 2 |
| 2025-05-12T03:05:00 | 54.631335 | 8.126299 | 2.0 | 12.290 | 2 | 36.023 | 12.450 | 30.772 | 2 |
| 2025-05-12T03:06:00 | 54.631080 | 8.126345 | 2.0 | 12.292 | 2 | 35.994 | 12.451 | 30.744 | 2 |
| 2025-05-12T03:07:00 | 54.630826 | 8.126411 | 2.0 | 12.297 | 2 | 35.935 | 12.455 | 30.684 | 2 |
| 2025-05-12T03:08:00 | 54.630554 | 8.126433 | 2.0 | 12.292 | 2 | 35.948 | 12.456 | 30.696 | 2 |
| 2025-05-12T03:09:00 | 54.630309 | 8.126505 | 2.0 | 12.293 | 2 | 35.987 | 12.453 | 30.735 | 2 |
| 2025-05-12T03:10:00 | 54.630078 | 8.126572 | 2.0 | 12.297 | 2 | 35.840 | 12.455 | 30.594 | 2 |
| 2025-05-12T03:11:00 | 54.629832 | 8.126633 | 2.0 | 12.294 | 2 | 35.935 | 12.458 | 30.682 | 2 |
| 2025-05-12T03:12:00 | 54.629640 | 8.126725 | 2.0 | 12.306 | 2 | 35.906 | 12.458 | 30.654 | 2 |
| 2025-05-12T03:13:00 | 54.629415 | 8.126752 | 2.0 | 12.292 | 2 | 35.969 | 12.465 | 30.708 | 2 |
| 2025-05-12T03:14:00 | 54.629174 | 8.126761 | 2.0 | 12.296 | 2 | 35.964 | 12.454 | 30.713 | 2 |
| 2025-05-12T03:15:00 | 54.628909 | 8.126766 | 2.0 | 12.306 | 2 | 35.920 | 12.460 | 30.666 | 2 |
| 2025-05-12T03:16:00 | 54.628651 | 8.126794 | 2.0 | 12.302 | 2 | 35.912 | 12.465 | 30.654 | 2 |
| 2025-05-12T03:17:00 | 54.628402 | 8.126834 | 2.0 | 12.312 | 2 | 35.978 | 12.466 | 30.716 | 2 |
| 2025-05-12T03:18:00 | 54.628150 | 8.126885 | 2.0 | 12.313 | 2 | 35.929 | 12.472 | 30.665 | 2 |
| 2025-05-12T03:19:00 | 54.627973 | 8.126898 | 2.0 | 12.315 | 2 | 35.963 | 12.473 | 30.696 | 2 |
| 2025-05-12T03:20:00 | 54.627818 | 8.126891 | 2.0 | 12.315 | 2 | 35.982 | 12.476 | 30.712 | 2 |
| 2025-05-12T03:21:00 | 54.627435 | 8.126063 | 2.0 | 12.302 | 2 | 36.006 | 12.475 | 30.735 | 2 |
| 2025-05-12T03:22:00 | 54.626853 | 8.125161 | 2.0 | 12.291 | 2 | 35.943 | 12.463 | 30.685 | 2 |
| 2025-05-12T03:23:00 | 54.626063 | 8.124227 | 2.0 | 12.275 | 2 | 36.001 | 12.449 | 30.752 | 2 |
| 2025-05-12T03:24:00 | 54.625052 | 8.123268 | 2.0 | 12.270 | 2 | 36.002 | 12.437 | 30.763 | 2 |
| 2025-05-12T03:25:00 | 54.623921 | 8.122314 | 2.0 | 12.262 | 2 | 35.983 | 12.431 | 30.749 | 2 |
| 2025-05-12T03:26:00 | 54.622782 | 8.121378 | 2.0 | 12.253 | 2 | 36.021 | 12.423 | 30.792 | 2 |
| 2025-05-12T03:27:00 | 54.621697 | 8.120409 | 2.0 | 12.243 | 2 | 36.026 | 12.414 | 30.804 | 2 |
| 2025-05-12T03:28:00 | 54.620684 | 8.119437 | 2.0 | 12.232 | 2 | 36.012 | 12.404 | 30.799 | 2 |
| 2025-05-12T03:29:00 | 54.619695 | 8.118492 | 2.0 | 12.225 | 2 | 36.002 | 12.394 | 30.798 | 2 |
| 2025-05-12T03:30:00 | 54.618700 | 8.117559 | 2.0 | 12.219 | 2 | 36.020 | 12.387 | 30.821 | 2 |
| 2025-05-12T03:31:00 | 54.617696 | 8.116640 | 2.0 | 12.215 | 2 | 36.045 | 12.382 | 30.849 | 2 |
| 2025-05-12T03:32:00 | 54.616685 | 8.115693 | 2.0 | 12.212 | 2 | 36.021 | 12.378 | 30.829 | 2 |
| 2025-05-12T03:33:00 | 54.615709 | 8.114724 | 2.0 | 12.208 | 2 | 36.015 | 12.374 | 30.827 | 2 |
| 2025-05-12T03:34:00 | 54.614772 | 8.113774 | 2.0 | 12.206 | 2 | 35.153 | 12.370 | 30.012 | 2 |
| 2025-05-12T03:35:00 | 54.613803 | 8.112827 | 2.0 | 12.201 | 2 | 35.868 | 12.367 | 30.693 | 2 |
| 2025-05-12T03:36:00 | 54.612821 | 8.111908 | 2.0 | 12.201 | 2 | 35.957 | 12.366 | 30.778 | 2 |
| 2025-05-12T03:37:00 | 54.611894 | 8.110918 | 2.0 | 12.200 | 2 | 36.103 | 12.364 | 30.919 | 2 |
| 2025-05-12T03:38:00 | 54.611008 | 8.109946 | 2.0 | 12.198 | 2 | 36.104 | 12.362 | 30.921 | 2 |
| 2025-05-12T03:39:00 | 54.610157 | 8.108963 | 2.0 | 12.189 | 2 | 35.643 | 12.358 | 30.486 | 2 |
| 2025-05-12T03:40:00 | 54.609336 | 8.107987 | 2.0 | 12.182 | 2 | 36.105 | 12.350 | 30.932 | 2 |
| 2025-05-12T03:41:00 | 54.608480 | 8.106997 | 2.0 | 12.174 | 2 | 35.914 | 12.344 | 30.755 | 2 |
| 2025-05-12T03:42:00 | 54.607584 | 8.106022 | 2.0 | 12.165 | 2 | 35.880 | 12.336 | 30.729 | 2 |
| 2025-05-12T03:43:00 | 54.606665 | 8.105165 | 2.0 | 12.152 | 2 | 35.452 | 12.326 | 30.331 | 2 |
| 2025-05-12T03:44:00 | 54.605715 | 8.104337 | 2.0 | 12.139 | 2 | 35.800 | 12.312 | 30.673 | 2 |
| 2025-05-12T03:45:00 | 54.604738 | 8.103543 | 2.0 | 12.130 | 2 | 35.777 | 12.300 | 30.661 | 2 |
| 2025-05-12T03:46:00 | 54.603772 | 8.102804 | 2.0 | 12.123 | 2 | 35.843 | 12.294 | 30.729 | 2 |
| 2025-05-12T03:47:00 | 54.602791 | 8.102104 | 2.0 | 12.121 | 2 | 36.061 | 12.286 | 30.943 | 2 |
| 2025-05-12T03:48:00 | 54.601784 | 8.101422 | 2.0 | 12.117 | 2 | 35.891 | 12.283 | 30.783 | 2 |
| 2025-05-12T03:49:00 | 54.600812 | 8.100831 | 2.0 | 12.115 | 2 | 35.542 | 12.280 | 30.454 | 2 |
| 2025-05-12T03:50:00 | 54.599865 | 8.100319 | 2.0 | 12.109 | 2 | 35.862 | 12.277 | 30.761 | 2 |
| 2025-05-12T03:51:00 | 54.598951 | 8.099829 | 2.0 | 12.106 | 2 | 36.040 | 12.272 | 30.934 | 2 |
| 2025-05-12T03:52:00 | 54.598046 | 8.099335 | 2.0 | 12.103 | 2 | 35.509 | 12.268 | 30.432 | 2 |
| 2025-05-12T03:53:00 | 54.597159 | 8.098908 | 2.0 | 12.101 | 2 | 35.798 | 12.264 | 30.710 | 2 |
| 2025-05-12T03:54:00 | 54.596312 | 8.098622 | 2.0 | 12.099 | 2 | 36.073 | 12.263 | 30.973 | 2 |
| 2025-05-12T03:55:00 | 54.595454 | 8.098396 | 2.0 | 12.097 | 2 | 35.731 | 12.260 | 30.650 | 2 |
| 2025-05-12T03:56:00 | 54.594634 | 8.098309 | 2.0 | 12.096 | 2 | 36.044 | 12.259 | 30.949 | 2 |
| 2025-05-12T03:57:00 | 54.593829 | 8.098341 | 2.0 | 12.101 | 2 | 35.695 | 12.259 | 30.616 | 2 |
| 2025-05-12T03:58:00 | 54.593018 | 8.098419 | 2.0 | 12.102 | 2 | 35.853 | 12.262 | 30.764 | 2 |
| 2025-05-12T03:59:00 | 54.592188 | 8.098499 | 2.0 | 12.105 | 2 | 35.598 | 12.265 | 30.519 | 2 |
| 2025-05-12T04:00:00 | 54.591346 | 8.098558 | 2.0 | 12.109 | 2 | 36.006 | 12.268 | 30.905 | 2 |
| 2025-05-12T04:01:00 | 54.590536 | 8.098623 | 2.0 | 12.110 | 2 | 35.865 | 12.270 | 30.769 | 2 |
| 2025-05-12T04:02:00 | 54.589735 | 8.098663 | 2.0 | 12.112 | 2 | 36.059 | 12.273 | 30.952 | 2 |
| 2025-05-12T04:03:00 | 54.588917 | 8.098731 | 2.0 | 12.117 | 2 | 35.928 | 12.275 | 30.825 | 2 |
| 2025-05-12T04:04:00 | 54.588096 | 8.098744 | 2.0 | 12.117 | 2 | 35.870 | 12.278 | 30.767 | 2 |
| 2025-05-12T04:05:00 | 54.587263 | 8.098794 | 2.0 | 12.119 | 2 | 35.843 | 12.279 | 30.741 | 2 |
| 2025-05-12T04:06:00 | 54.586424 | 8.098833 | 2.0 | 12.121 | 2 | 35.865 | 12.281 | 30.760 | 2 |
| 2025-05-12T04:07:00 | 54.585596 | 8.098899 | 2.0 | 12.125 | 2 | 36.022 | 12.283 | 30.908 | 2 |
| 2025-05-12T04:08:00 | 54.584788 | 8.098933 | 2.0 | 12.127 | 2 | 35.849 | 12.286 | 30.741 | 2 |
| 2025-05-12T04:09:00 | 54.583916 | 8.099054 | 2.0 | 12.126 | 2 | 36.026 | 12.288 | 30.908 | 2 |
| 2025-05-12T04:10:00 | 54.582920 | 8.099301 | 2.0 | 12.129 | 2 | 35.875 | 12.289 | 30.763 | 2 |
| 2025-05-12T04:11:00 | 54.581837 | 8.099633 | 2.0 | 12.132 | 2 | 35.788 | 12.292 | 30.678 | 2 |
| 2025-05-12T04:12:00 | 54.580643 | 8.100057 | 2.0 | 12.134 | 2 | 35.715 | 12.292 | 30.608 | 2 |
| 2025-05-12T04:13:00 | 54.578977 | 8.100519 | 2.0 | 12.142 | 2 | 35.633 | 12.297 | 30.526 | 2 |
| 2025-05-12T04:14:00 | 54.576620 | 8.100739 | 2.0 | 12.148 | 2 | 35.764 | 12.304 | 30.645 | 2 |
| 2025-05-12T04:15:00 | 54.573943 | 8.100749 | 2.0 | 12.159 | 2 | 35.718 | 12.313 | 30.594 | 2 |
| 2025-05-12T04:16:00 | 54.571132 | 8.100715 | 2.0 | 12.162 | 2 | 35.848 | 12.322 | 30.710 | 2 |
| 2025-05-12T04:17:00 | 54.568316 | 8.100590 | 2.0 | 12.158 | 2 | 35.923 | 12.324 | 30.780 | 2 |
| 2025-05-12T04:18:00 | 54.565532 | 8.100550 | 2.0 | 12.153 | 2 | 35.840 | 12.321 | 30.704 | 2 |
| 2025-05-12T04:19:00 | 54.562728 | 8.100473 | 2.0 | 12.142 | 2 | 35.815 | 12.316 | 30.684 | 2 |
| 2025-05-12T04:20:00 | 54.559938 | 8.100356 | 2.0 | 12.125 | 2 | 35.762 | 12.303 | 30.644 | 2 |
| 2025-05-12T04:21:00 | 54.557141 | 8.100262 | 2.0 | 12.115 | 2 | 35.841 | 12.287 | 30.732 | 2 |
| 2025-05-12T04:22:00 | 54.554352 | 8.100232 | 2.0 | 12.114 | 2 | 35.840 | 12.279 | 30.738 | 2 |
| 2025-05-12T04:23:00 | 54.551544 | 8.100158 | 2.0 | 12.120 | 2 | 35.777 | 12.279 | 30.678 | 2 |
| 2025-05-12T04:24:00 | 54.548728 | 8.100061 | 2.0 | 12.126 | 2 | 35.843 | 12.286 | 30.735 | 2 |
| 2025-05-12T04:25:00 | 54.545897 | 8.099965 | 2.0 | 12.123 | 2 | 35.845 | 12.290 | 30.734 | 2 |
| 2025-05-12T04:26:00 | 54.543075 | 8.099804 | 2.0 | 12.113 | 2 | 35.453 | 12.286 | 30.364 | 2 |
| 2025-05-12T04:27:00 | 54.540289 | 8.099736 | 2.0 | 12.098 | 2 | 35.823 | 12.276 | 30.724 | 2 |
| 2025-05-12T04:28:00 | 54.537495 | 8.099722 | 2.0 | 12.081 | 2 | 35.790 | 12.262 | 30.704 | 2 |
| 2025-05-12T04:29:00 | 54.534671 | 8.099611 | 2.0 | 12.062 | 2 | 35.826 | 12.243 | 30.754 | 2 |
| 2025-05-12T04:30:00 | 54.531844 | 8.099483 | 2.0 | 12.052 | 2 | 35.923 | 12.226 | 30.861 | 2 |
| 2025-05-12T04:31:00 | 54.529028 | 8.099464 | 2.0 | 12.050 | 2 | 35.846 | 12.218 | 30.794 | 2 |
| 2025-05-12T04:32:00 | 54.526213 | 8.099396 | 2.0 | 12.049 | 2 | 35.614 | 12.215 | 30.575 | 2 |
| 2025-05-12T04:33:00 | 54.523397 | 8.099265 | 2.0 | 12.046 | 2 | 35.823 | 12.213 | 30.776 | 2 |
| 2025-05-12T04:34:00 | 54.520572 | 8.099191 | 2.0 | 12.043 | 2 | 35.898 | 12.210 | 30.850 | 2 |
| 2025-05-12T04:35:00 | 54.517733 | 8.099116 | 2.0 | 12.037 | 2 | 35.797 | 12.206 | 30.757 | 2 |
| 2025-05-12T04:36:00 | 54.514897 | 8.099040 | 2.0 | 12.028 | 2 | 35.853 | 12.199 | 30.816 | 2 |
| 2025-05-12T04:37:00 | 54.512069 | 8.098953 | 2.0 | 12.009 | 2 | 35.815 | 12.189 | 30.788 | 2 |
| 2025-05-12T04:38:00 | 54.509239 | 8.098863 | 2.0 | 11.971 | 2 | 35.648 | 12.168 | 30.646 | 2 |
| 2025-05-12T04:39:00 | 54.506405 | 8.098792 | 2.0 | 11.907 | 2 | 35.655 | 12.130 | 30.684 | 2 |
| 2025-05-12T04:40:00 | 54.503576 | 8.098690 | 2.0 | 11.827 | 2 | 35.744 | 12.066 | 30.822 | 2 |
| 2025-05-12T04:41:00 | 54.500737 | 8.098638 | 2.0 | 11.743 | 2 | 35.653 | 11.983 | 30.803 | 2 |
| 2025-05-12T04:42:00 | 54.497900 | 8.098601 | 2.0 | 11.664 | 2 | 35.453 | 11.899 | 30.680 | 2 |
| 2025-05-12T04:43:00 | 54.495057 | 8.098550 | 2.0 | 11.591 | 2 | 35.274 | 11.820 | 30.573 | 2 |
| 2025-05-12T04:44:00 | 54.492231 | 8.098811 | 2.0 | 11.546 | 2 | 35.414 | 11.759 | 30.758 | 2 |
| 2025-05-12T04:45:00 | 54.489405 | 8.099166 | 2.0 | 11.506 | 2 | 35.368 | 11.711 | 30.753 | 2 |
| 2025-05-12T04:46:00 | 54.486581 | 8.099521 | 2.0 | 11.485 | 2 | 35.142 | 11.675 | 30.565 | 2 |
| 2025-05-12T04:47:00 | 54.483717 | 8.099667 | 2.0 | 11.467 | 2 | 35.149 | 11.653 | 30.590 | 2 |
| 2025-05-12T04:48:00 | 54.480854 | 8.099840 | 2.0 | 11.449 | 2 | 35.279 | 11.635 | 30.730 | 2 |
| 2025-05-12T04:49:00 | 54.478002 | 8.099986 | 2.0 | 11.425 | 2 | 35.151 | 11.614 | 30.624 | 2 |
| 2025-05-12T04:50:00 | 54.475125 | 8.099972 | 2.0 | 11.399 | 2 | 35.146 | 11.591 | 30.638 | 2 |
| 2025-05-12T04:51:00 | 54.472252 | 8.099936 | 2.0 | 11.378 | 2 | 35.202 | 11.566 | 30.713 | 2 |
| 2025-05-12T04:52:00 | 54.469394 | 8.100015 | 2.0 | 11.364 | 2 | 35.193 | 11.545 | 30.722 | 2 |
| 2025-05-12T04:53:00 | 54.466541 | 8.100039 | 2.0 | 11.355 | 2 | 35.183 | 11.533 | 30.722 | 2 |
| 2025-05-12T04:54:00 | 54.463722 | 8.100044 | 2.0 | 11.344 | 2 | 35.218 | 11.523 | 30.764 | 2 |
| 2025-05-12T04:55:00 | 54.460929 | 8.100072 | 2.0 | 11.333 | 2 | 35.237 | 11.511 | 30.793 | 2 |
| 2025-05-12T04:56:00 | 54.458162 | 8.100055 | 2.0 | 11.325 | 2 | 35.223 | 11.501 | 30.787 | 2 |
| 2025-05-12T04:57:00 | 54.455391 | 8.099990 | 2.0 | 11.323 | 2 | 35.230 | 11.493 | 30.801 | 2 |
| 2025-05-12T04:58:00 | 54.452642 | 8.100051 | 2.0 | 11.335 | 2 | 35.296 | 11.493 | 30.865 | 2 |
| 2025-05-12T04:59:00 | 54.449893 | 8.100085 | 2.0 | 11.362 | 2 | 35.270 | 11.506 | 30.829 | 2 |
| 2025-05-12T05:00:00 | 54.447125 | 8.100027 | 2.0 | 11.431 | 2 | 35.285 | 11.534 | 30.820 | 2 |
| 2025-05-12T05:01:00 | 54.444354 | 8.099984 | 2.0 | 11.553 | 2 | 35.371 | 11.617 | 30.834 | 2 |
| 2025-05-12T05:02:00 | 54.441579 | 8.100017 | 2.0 | 11.624 | 2 | 35.498 | 11.731 | 30.862 | 2 |
| 2025-05-12T05:03:00 | 54.438791 | 8.099999 | 2.0 | 11.640 | 2 | 35.533 | 11.787 | 30.850 | 2 |
| 2025-05-12T05:04:00 | 54.435997 | 8.099988 | 2.0 | 11.645 | 2 | 35.606 | 11.804 | 30.906 | 2 |
| 2025-05-12T05:05:00 | 54.433192 | 8.099953 | 2.0 | 11.641 | 2 | 35.612 | 11.808 | 30.908 | 2 |
| 2025-05-12T05:06:00 | 54.430380 | 8.099974 | 2.0 | 11.628 | 2 | 35.621 | 11.805 | 30.919 | 2 |
| 2025-05-12T05:07:00 | 54.427586 | 8.099980 | 2.0 | 11.567 | 2 | 35.609 | 11.782 | 30.927 | 2 |
| 2025-05-12T05:08:00 | 54.424776 | 8.099979 | 2.0 | 11.517 | 2 | 35.576 | 11.725 | 30.943 | 2 |
| 2025-05-12T05:09:00 | 54.421981 | 8.099948 | 2.0 | 11.523 | 2 | 35.490 | 11.685 | 30.893 | 2 |
| 2025-05-12T05:10:00 | 54.419176 | 8.099970 | 2.0 | 11.536 | 2 | 35.499 | 11.694 | 30.894 | 2 |
| 2025-05-12T05:11:00 | 54.416394 | 8.099988 | 2.0 | 11.507 | 2 | 35.503 | 11.699 | 30.894 | 2 |
| 2025-05-12T05:12:00 | 54.413626 | 8.100008 | 2.0 | 11.474 | 2 | 35.479 | 11.669 | 30.895 | 2 |
| 2025-05-12T05:13:00 | 54.410873 | 8.100019 | 2.0 | 11.446 | 2 | 35.461 | 11.639 | 30.903 | 2 |
| 2025-05-12T05:14:00 | 54.408132 | 8.100019 | 2.0 | 11.432 | 2 | 35.434 | 11.612 | 30.899 | 2 |
| 2025-05-12T05:15:00 | 54.405382 | 8.100069 | 2.0 | 11.425 | 2 | 35.403 | 11.600 | 30.879 | 2 |
| 2025-05-12T05:16:00 | 54.402623 | 8.100095 | 2.0 | 11.416 | 2 | 35.382 | 11.591 | 30.867 | 2 |
| 2025-05-12T05:17:00 | 54.399807 | 8.100126 | 2.0 | 11.415 | 2 | 35.364 | 11.583 | 30.856 | 2 |
| 2025-05-12T05:18:00 | 54.396902 | 8.100032 | 2.0 | 11.414 | 2 | 35.347 | 11.583 | 30.839 | 2 |
| 2025-05-12T05:19:00 | 54.393996 | 8.099992 | 2.0 | 11.410 | 2 | 35.332 | 11.581 | 30.826 | 2 |
| 2025-05-12T05:20:00 | 54.391115 | 8.100010 | 2.0 | 11.420 | 2 | 35.324 | 11.579 | 30.820 | 2 |
| 2025-05-12T05:21:00 | 54.388232 | 8.099987 | 2.0 | 11.436 | 2 | 35.321 | 11.589 | 30.809 | 2 |
| 2025-05-12T05:22:00 | 54.385383 | 8.100059 | 2.0 | 11.457 | 2 | 35.321 | 11.606 | 30.795 | 2 |
| 2025-05-12T05:23:00 | 54.382518 | 8.100057 | 2.0 | 11.478 | 2 | 35.319 | 11.627 | 30.776 | 2 |
| 2025-05-12T05:24:00 | 54.379693 | 8.100116 | 2.0 | 11.504 | 2 | 35.318 | 11.648 | 30.757 | 2 |
| 2025-05-12T05:25:00 | 54.376861 | 8.100153 | 2.0 | 11.541 | 2 | 35.302 | 11.675 | 30.719 | 2 |
| 2025-05-12T05:26:00 | 54.374002 | 8.100130 | 2.0 | 11.578 | 2 | 35.304 | 11.710 | 30.692 | 2 |
| 2025-05-12T05:27:00 | 54.371129 | 8.100030 | 2.0 | 11.621 | 2 | 35.304 | 11.748 | 30.661 | 2 |
| 2025-05-12T05:28:00 | 54.368252 | 8.100017 | 2.0 | 11.657 | 2 | 35.314 | 11.791 | 30.635 | 2 |
| 2025-05-12T05:29:00 | 54.365369 | 8.100055 | 2.0 | 11.669 | 2 | 35.320 | 11.822 | 30.616 | 2 |
| 2025-05-12T05:30:00 | 54.362501 | 8.100057 | 2.0 | 11.654 | 2 | 35.309 | 11.830 | 30.598 | 2 |
| 2025-05-12T05:31:00 | 54.359639 | 8.100036 | 2.0 | 11.644 | 2 | 35.278 | 11.818 | 30.578 | 2 |
| 2025-05-12T05:32:00 | 54.356766 | 8.100005 | 2.0 | 11.645 | 2 | 35.254 | 11.809 | 30.563 | 2 |
| 2025-05-12T05:33:00 | 54.353902 | 8.100034 | 2.0 | 11.652 | 2 | 35.253 | 11.811 | 30.560 | 2 |
| 2025-05-12T05:34:00 | 54.351020 | 8.100049 | 2.0 | 11.665 | 2 | 35.269 | 11.818 | 30.570 | 2 |
| 2025-05-12T05:35:00 | 54.348126 | 8.100026 | 2.0 | 11.679 | 2 | 35.294 | 11.832 | 30.582 | 2 |
| 2025-05-12T05:36:00 | 54.345261 | 8.100038 | 2.0 | 11.688 | 2 | 35.321 | 11.845 | 30.598 | 2 |
| 2025-05-12T05:37:00 | 54.342380 | 8.100059 | 2.0 | 11.704 | 2 | 35.339 | 11.854 | 30.607 | 2 |
| 2025-05-12T05:38:00 | 54.339473 | 8.100057 | 2.0 | 11.717 | 2 | 35.356 | 11.871 | 30.610 | 2 |
| 2025-05-12T05:39:00 | 54.336589 | 8.100027 | 2.0 | 11.720 | 2 | 35.366 | 11.882 | 30.610 | 2 |
| 2025-05-12T05:40:00 | 54.333713 | 8.100003 | 2.0 | 11.728 | 2 | 35.362 | 11.886 | 30.603 | 2 |
| 2025-05-12T05:41:00 | 54.330844 | 8.100037 | 2.0 | 11.728 | 2 | 35.355 | 11.892 | 30.592 | 2 |
| 2025-05-12T05:42:00 | 54.327961 | 8.100023 | 2.0 | 11.726 | 2 | 35.352 | 11.891 | 30.590 | 2 |
| 2025-05-12T05:43:00 | 54.325109 | 8.100052 | 2.0 | 11.732 | 2 | 35.335 | 11.890 | 30.574 | 2 |
| 2025-05-12T05:44:00 | 54.322230 | 8.100022 | 2.0 | 11.738 | 2 | 35.342 | 11.897 | 30.575 | 2 |
| 2025-05-12T05:45:00 | 54.319355 | 8.100051 | 2.0 | 11.748 | 2 | 35.348 | 11.905 | 30.574 | 2 |
| 2025-05-12T05:46:00 | 54.316487 | 8.100077 | 2.0 | 11.747 | 2 | 35.351 | 11.913 | 30.571 | 2 |
| 2025-05-12T05:47:00 | 54.313611 | 8.100077 | 2.0 | 11.749 | 2 | 35.322 | 11.911 | 30.544 | 2 |
| 2025-05-12T05:48:00 | 54.310724 | 8.100050 | 2.0 | 11.759 | 2 | 35.328 | 11.914 | 30.548 | 2 |
| 2025-05-12T05:49:00 | 54.307825 | 8.100026 | 2.0 | 11.776 | 2 | 35.350 | 11.924 | 30.561 | 2 |
| 2025-05-12T05:50:00 | 54.304910 | 8.100026 | 2.0 | 11.793 | 2 | 35.386 | 11.941 | 30.581 | 2 |
| 2025-05-12T05:51:00 | 54.301993 | 8.099945 | 2.0 | 11.808 | 2 | 35.439 | 11.958 | 30.618 | 2 |
| 2025-05-12T05:52:00 | 54.299149 | 8.099978 | 2.0 | 11.824 | 2 | 35.478 | 11.973 | 30.643 | 2 |
| 2025-05-12T05:53:00 | 54.296289 | 8.099946 | 2.0 | 11.841 | 2 | 35.519 | 11.991 | 30.668 | 2 |
| 2025-05-12T05:54:00 | 54.293417 | 8.099944 | 2.0 | 11.843 | 2 | 35.554 | 12.003 | 30.691 | 2 |
| 2025-05-12T05:55:00 | 54.290539 | 8.099980 | 2.0 | 11.849 | 2 | 35.612 | 12.006 | 30.745 | 2 |
| 2025-05-12T05:56:00 | 54.287673 | 8.100049 | 2.0 | 11.836 | 2 | 35.667 | 12.013 | 30.791 | 2 |
| 2025-05-12T05:57:00 | 54.284821 | 8.100138 | 2.0 | 11.774 | 2 | 35.694 | 11.991 | 30.836 | 2 |
| 2025-05-12T05:58:00 | 54.281938 | 8.100056 | 2.0 | 11.735 | 2 | 35.662 | 11.934 | 30.852 | 2 |
| 2025-05-12T05:59:00 | 54.279057 | 8.100059 | 2.0 | 11.734 | 2 | 35.626 | 11.903 | 30.843 | 2 |
| 2025-05-12T06:00:00 | 54.276193 | 8.100067 | 2.0 | 11.731 | 2 | 35.609 | 11.898 | 30.831 | 2 |
| 2025-05-12T06:01:00 | 54.273288 | 8.100050 | 2.0 | 11.732 | 2 | 35.557 | 11.897 | 30.782 | 2 |
| 2025-05-12T06:02:00 | 54.270410 | 8.099961 | 2.0 | 11.730 | 2 | 35.571 | 11.897 | 30.795 | 2 |
| 2025-05-12T06:03:00 | 54.267518 | 8.099974 | 2.0 | 11.733 | 2 | 35.546 | 11.896 | 30.772 | 2 |
| 2025-05-12T06:04:00 | 54.264687 | 8.100392 | 2.0 | 11.747 | 2 | 35.493 | 11.900 | 30.718 | 2 |
| 2025-05-12T06:05:00 | 54.261889 | 8.101069 | 2.0 | 11.753 | 2 | 35.482 | 11.911 | 30.698 | 2 |
| 2025-05-12T06:06:00 | 54.259044 | 8.101641 | 2.0 | 11.877 | 2 | 35.478 | 11.928 | 30.680 | 2 |
| 2025-05-12T06:07:00 | 54.256219 | 8.102217 | 2.0 | 11.956 | 2 | 35.502 | 12.056 | 30.598 | 2 |
| 2025-05-12T06:08:00 | 54.253401 | 8.102875 | 2.0 | 11.979 | 2 | 35.523 | 12.119 | 30.567 | 2 |
| 2025-05-12T06:09:00 | 54.250538 | 8.103426 | 2.0 | 11.986 | 2 | 35.534 | 12.140 | 30.560 | 2 |
| 2025-05-12T06:10:00 | 54.247680 | 8.104034 | 2.0 | 12.003 | 2 | 35.533 | 12.148 | 30.552 | 2 |
| 2025-05-12T06:11:00 | 54.244847 | 8.104661 | 2.0 | 12.082 | 2 | 35.525 | 12.173 | 30.524 | 2 |
| 2025-05-12T06:12:00 | 54.242013 | 8.105266 | 2.0 | 12.090 | 2 | 35.533 | 12.242 | 30.476 | 2 |
| 2025-05-12T06:13:00 | 54.239190 | 8.105833 | 2.0 | 12.055 | 2 | 35.318 | 12.245 | 30.269 | 2 |
| 2025-05-12T06:14:00 | 54.236344 | 8.105996 | 2.0 | 12.034 | 2 | 35.213 | 12.213 | 30.195 | 2 |
| 2025-05-12T06:15:00 | 54.233496 | 8.105992 | 2.0 | 12.013 | 2 | 35.424 | 12.197 | 30.409 | 2 |
| 2025-05-12T06:16:00 | 54.230639 | 8.105992 | 2.0 | 12.018 | 2 | 35.269 | 12.176 | 30.278 | 2 |
| 2025-05-12T06:17:00 | 54.227741 | 8.105868 | 2.0 | 12.075 | 2 | 35.492 | 12.190 | 30.479 | 2 |
| 2025-05-12T06:18:00 | 54.224849 | 8.105873 | 2.0 | 12.145 | 2 | 35.288 | 12.249 | 30.237 | 2 |
| 2025-05-12T06:19:00 | 54.221975 | 8.105869 | 2.0 | 12.203 | 2 | 35.405 | 12.313 | 30.297 | 2 |
| 2025-05-12T06:20:00 | 54.219124 | 8.105859 | 2.0 | 12.179 | 2 | 35.491 | 12.358 | 30.342 | 2 |
| 2025-05-12T06:21:00 | 54.216277 | 8.105908 | 2.0 | 12.095 | 2 | 35.343 | 12.327 | 30.226 | 2 |
| 2025-05-12T06:22:00 | 54.213397 | 8.105835 | 2.0 | 12.054 | 2 | 35.360 | 12.257 | 30.299 | 2 |
| 2025-05-12T06:23:00 | 54.210535 | 8.105726 | 2.0 | 12.284 | 2 | 35.343 | 12.296 | 30.251 | 2 |
| 2025-05-12T06:24:00 | 54.207712 | 8.105626 | 2.0 | 12.203 | 2 | 35.328 | 12.417 | 30.140 | 2 |
| 2025-05-12T06:25:00 | 54.204906 | 8.105056 | 2.0 | 12.151 | 2 | 35.319 | 12.358 | 30.179 | 2 |
| 2025-05-12T06:26:00 | 54.202096 | 8.104481 | 2.0 | 12.090 | 2 | 35.394 | 12.306 | 30.292 | 2 |
| 2025-05-12T06:27:00 | 54.199294 | 8.103612 | 2.0 | 12.049 | 2 | 35.403 | 12.243 | 30.351 | 2 |
| 2025-05-12T06:28:00 | 54.196550 | 8.102418 | 2.0 | 12.056 | 2 | 35.416 | 12.227 | 30.377 | 2 |
| 2025-05-12T06:29:00 | 54.193793 | 8.101306 | 2.0 | 11.984 | 2 | 35.415 | 12.204 | 30.394 | 2 |
| 2025-05-12T06:30:00 | 54.191050 | 8.100141 | 2.0 | 11.974 | 2 | 35.429 | 12.151 | 30.451 | 2 |
| 2025-05-12T06:31:00 | 54.188309 | 8.099787 | 2.0 | 11.902 | 2 | 35.434 | 12.127 | 30.475 | 2 |
| 2025-05-12T06:32:00 | 54.185580 | 8.099992 | 2.0 | 12.033 | 2 | 35.431 | 12.077 | 30.513 | 2 |
| 2025-05-12T06:33:00 | 54.182892 | 8.100164 | 2.0 | 12.049 | 2 | 35.404 | 12.201 | 30.386 | 2 |
| 2025-05-12T06:34:00 | 54.180201 | 8.100076 | 2.0 | 12.079 | 2 | 35.443 | 12.201 | 30.423 | 2 |
| 2025-05-12T06:35:00 | 54.177466 | 8.099965 | 2.0 | 12.162 | 2 | 35.446 | 12.263 | 30.376 | 2 |
| 2025-05-12T06:36:00 | 54.174714 | 8.099966 | 2.0 | 12.184 | 2 | 35.456 | 12.321 | 30.339 | 2 |
| 2025-05-12T06:37:00 | 54.172006 | 8.100089 | 2.0 | 12.225 | 2 | 35.503 | 12.353 | 30.357 | 2 |
| 2025-05-12T06:38:00 | 54.169294 | 8.100070 | 2.0 | 12.218 | 2 | 35.490 | 12.381 | 30.322 | 2 |
| 2025-05-12T06:39:00 | 54.166595 | 8.100053 | 2.0 | 12.201 | 2 | 35.421 | 12.374 | 30.263 | 2 |
| 2025-05-12T06:40:00 | 54.163885 | 8.100047 | 2.0 | 12.142 | 2 | 35.469 | 12.355 | 30.323 | 2 |
| 2025-05-12T06:41:00 | 54.161183 | 8.100097 | 2.0 | 12.118 | 2 | 35.485 | 12.304 | 30.380 | 2 |
| 2025-05-12T06:42:00 | 54.158451 | 8.100072 | 2.0 | 12.080 | 2 | 35.500 | 12.277 | 30.416 | 2 |
| 2025-05-12T06:43:00 | 54.155695 | 8.099933 | 2.0 | 12.060 | 2 | 35.512 | 12.240 | 30.457 | 2 |
| 2025-05-12T06:45:00 | 54.150211 | 8.099992 | 2.0 | 12.089 | 2 | 35.438 | 12.281 | 30.354 | 2 |
| 2025-05-12T06:57:00 | 54.118356 | 8.092574 | 2.0 | 11.498 | 2 | 35.315 | 11.697 | 30.714 | 2 |
| 2025-05-12T06:58:00 | 54.116013 | 8.090144 | 2.0 | 11.450 | 2 | 35.294 | 11.662 | 30.722 | 2 |
| 2025-05-12T06:59:00 | 54.113651 | 8.087817 | 2.0 | 11.359 | 2 | 35.257 | 11.602 | 30.736 | 2 |
| 2025-05-12T07:00:00 | 54.111262 | 8.085617 | 2.0 | 11.327 | 2 | 35.217 | 11.529 | 30.758 | 2 |
| 2025-05-12T07:01:00 | 54.108916 | 8.083240 | 2.0 | 11.333 | 2 | 35.202 | 11.500 | 30.768 | 2 |
| 2025-05-12T07:02:00 | 54.106540 | 8.080892 | 2.0 | 11.309 | 2 | 35.225 | 11.506 | 30.785 | 2 |
| 2025-05-12T07:03:00 | 54.104170 | 8.078552 | 2.0 | 11.246 | 2 | 35.250 | 11.470 | 30.839 | 2 |
| 2025-05-12T07:04:00 | 54.101813 | 8.076253 | 2.0 | 11.173 | 2 | 35.272 | 11.411 | 30.910 | 2 |
| 2025-05-12T07:05:00 | 54.099455 | 8.073896 | 2.0 | 11.264 | 2 | 35.288 | 11.351 | 30.976 | 2 |
| 2025-05-12T07:06:00 | 54.097139 | 8.071482 | 2.0 | 11.342 | 2 | 35.278 | 11.456 | 30.878 | 2 |
| 2025-05-12T07:07:00 | 54.094780 | 8.069307 | 2.0 | 11.313 | 2 | 35.301 | 11.506 | 30.859 | 2 |
| 2025-05-12T07:08:00 | 54.092436 | 8.066916 | 2.0 | 11.276 | 2 | 35.321 | 11.480 | 30.900 | 2 |
| 2025-05-12T07:09:00 | 54.090092 | 8.064528 | 2.0 | 11.271 | 2 | 35.309 | 11.447 | 30.916 | 2 |
| 2025-05-12T07:10:00 | 54.087707 | 8.062218 | 2.0 | 11.255 | 2 | 35.327 | 11.441 | 30.938 | 2 |
| 2025-05-12T07:11:00 | 54.085313 | 8.059853 | 2.0 | 11.205 | 2 | 35.342 | 11.414 | 30.976 | 2 |
| 2025-05-12T07:12:00 | 54.082939 | 8.057465 | 2.0 | 11.114 | 2 | 35.344 | 11.371 | 31.014 | 2 |
| 2025-05-12T07:13:00 | 54.080527 | 8.055133 | 2.0 | 11.027 | 2 | 35.326 | 11.278 | 31.074 | 2 |
| 2025-05-12T07:14:00 | 54.078125 | 8.052777 | 2.0 | 10.985 | 2 | 35.301 | 11.196 | 31.119 | 2 |
| 2025-05-12T07:15:00 | 54.075766 | 8.050289 | 2.0 | 10.921 | 2 | 35.290 | 11.158 | 31.140 | 2 |
| 2025-05-12T07:16:00 | 54.073372 | 8.047877 | 2.0 | 10.892 | 2 | 35.284 | 11.099 | 31.184 | 2 |
| 2025-05-12T07:17:00 | 54.070955 | 8.045514 | 2.0 | 10.860 | 2 | 35.266 | 11.065 | 31.195 | 2 |
| 2025-05-12T07:18:00 | 54.068530 | 8.043165 | 2.0 | 10.773 | 2 | 35.254 | 11.024 | 31.218 | 2 |
| 2025-05-12T07:19:00 | 54.066122 | 8.040728 | 2.0 | 10.667 | 2 | 35.250 | 10.934 | 31.291 | 2 |
| 2025-05-12T07:20:00 | 54.063697 | 8.038336 | 2.0 | 10.521 | 2 | 35.243 | 10.824 | 31.378 | 2 |
| 2025-05-12T07:21:00 | 54.061269 | 8.035930 | 2.0 | 10.453 | 2 | 35.221 | 10.687 | 31.474 | 2 |
| 2025-05-12T07:22:00 | 54.058860 | 8.033534 | 2.0 | 10.444 | 2 | 35.248 | 10.640 | 31.542 | 2 |
| 2025-05-12T07:23:00 | 54.056433 | 8.031132 | 2.0 | 10.415 | 2 | 35.254 | 10.628 | 31.558 | 2 |
| 2025-05-12T07:24:00 | 54.053990 | 8.028702 | 2.0 | 10.378 | 2 | 35.236 | 10.582 | 31.580 | 2 |
| 2025-05-12T07:25:00 | 54.051536 | 8.026279 | 2.0 | 10.274 | 2 | 35.208 | 10.540 | 31.588 | 2 |
| 2025-05-12T07:26:00 | 54.049086 | 8.023812 | 2.0 | 10.239 | 2 | 35.188 | 10.454 | 31.643 | 2 |
| 2025-05-12T07:27:00 | 54.046597 | 8.021440 | 2.0 | 10.179 | 2 | 35.189 | 10.408 | 31.684 | 2 |
| 2025-05-12T07:28:00 | 54.044147 | 8.018992 | 2.0 | 10.117 | 2 | 35.233 | 10.346 | 31.782 | 2 |
| 2025-05-12T07:29:00 | 54.041693 | 8.016618 | 2.0 | 10.040 | 2 | 35.263 | 10.285 | 31.866 | 2 |
| 2025-05-12T07:30:00 | 54.039249 | 8.014219 | 2.0 | 9.985 | 2 | 35.253 | 10.219 | 31.914 | 2 |
| 2025-05-12T07:31:00 | 54.036816 | 8.011775 | 2.0 | 9.947 | 2 | 35.264 | 10.162 | 31.975 | 2 |
| 2025-05-12T07:32:00 | 54.034373 | 8.009295 | 2.0 | 9.879 | 2 | 35.296 | 10.116 | 32.048 | 2 |
| 2025-05-12T07:33:00 | 54.031899 | 8.006830 | 2.0 | 9.835 | 2 | 35.331 | 10.061 | 32.132 | 2 |
| 2025-05-12T07:34:00 | 54.029414 | 8.004443 | 2.0 | 9.744 | 2 | 35.339 | 10.004 | 32.191 | 2 |
| 2025-05-12T07:35:00 | 54.026941 | 8.002024 | 2.0 | 9.675 | 2 | 35.343 | 9.911 | 32.278 | 2 |
| 2025-05-12T07:36:00 | 54.024511 | 7.999491 | 2.0 | 9.701 | 2 | 35.350 | 9.869 | 32.322 | 2 |
| 2025-05-12T07:37:00 | 54.022047 | 7.997082 | 2.0 | 9.646 | 2 | 35.356 | 9.875 | 32.323 | 2 |
| 2025-05-12T07:38:00 | 54.019558 | 7.994697 | 2.0 | 9.564 | 2 | 35.344 | 9.816 | 32.364 | 2 |
| 2025-05-12T07:39:00 | 54.017096 | 7.992243 | 2.0 | 9.562 | 2 | 35.336 | 9.744 | 32.421 | 2 |
| 2025-05-12T07:40:00 | 54.014659 | 7.989715 | 2.0 | 9.563 | 2 | 35.381 | 9.748 | 32.463 | 2 |
| 2025-05-12T07:41:00 | 54.012214 | 7.987274 | 2.0 | 9.612 | 2 | 35.413 | 9.747 | 32.496 | 2 |
| 2025-05-12T07:42:00 | 54.009759 | 7.984889 | 2.0 | 9.628 | 2 | 35.460 | 9.782 | 32.513 | 2 |
| 2025-05-12T07:43:00 | 54.007328 | 7.982417 | 2.0 | 9.773 | 2 | 35.502 | 9.825 | 32.517 | 2 |
| 2025-05-12T07:44:00 | 54.004847 | 7.980107 | 2.0 | 9.866 | 2 | 35.597 | 9.967 | 32.485 | 2 |
| 2025-05-12T07:45:00 | 54.002397 | 7.977755 | 2.0 | 9.838 | 2 | 35.649 | 10.035 | 32.477 | 2 |
| 2025-05-12T07:46:00 | 53.999978 | 7.975369 | 2.0 | 9.703 | 2 | 35.629 | 9.995 | 32.492 | 2 |
| 2025-05-12T07:47:00 | 53.997580 | 7.972949 | 2.0 | 9.577 | 2 | 35.548 | 9.861 | 32.531 | 2 |
| 2025-05-12T07:48:00 | 53.995196 | 7.970476 | 2.0 | 9.613 | 2 | 35.488 | 9.777 | 32.546 | 2 |
| 2025-05-12T07:49:00 | 53.992773 | 7.968066 | 2.0 | 9.586 | 2 | 35.504 | 9.789 | 32.551 | 2 |
| 2025-05-12T07:50:00 | 53.990323 | 7.965763 | 2.0 | 9.522 | 2 | 35.499 | 9.754 | 32.578 | 2 |
| 2025-05-12T07:51:00 | 53.987911 | 7.963342 | 2.0 | 9.477 | 2 | 35.479 | 9.699 | 32.607 | 2 |
| 2025-05-12T07:52:00 | 53.985515 | 7.960874 | 2.0 | 9.461 | 2 | 35.460 | 9.655 | 32.628 | 2 |
| 2025-05-12T07:53:00 | 53.983070 | 7.958498 | 2.0 | 9.404 | 2 | 35.454 | 9.632 | 32.642 | 2 |
| 2025-05-12T07:54:00 | 53.980632 | 7.956113 | 2.0 | 9.361 | 2 | 35.429 | 9.580 | 32.664 | 2 |
| 2025-05-12T07:55:00 | 53.978212 | 7.953721 | 2.0 | 9.323 | 2 | 35.407 | 9.538 | 32.680 | 2 |
| 2025-05-12T07:56:00 | 53.975779 | 7.951314 | 2.0 | 9.289 | 2 | 35.386 | 9.497 | 32.696 | 2 |
| 2025-05-12T07:57:00 | 53.973378 | 7.948842 | 2.0 | 9.286 | 2 | 35.371 | 9.470 | 32.705 | 2 |
| 2025-05-12T07:58:00 | 53.970923 | 7.946491 | 2.0 | 9.290 | 2 | 35.374 | 9.468 | 32.710 | 2 |
| 2025-05-12T07:59:00 | 53.968486 | 7.944120 | 2.0 | 9.296 | 2 | 35.381 | 9.469 | 32.716 | 2 |
| 2025-05-12T08:00:00 | 53.966049 | 7.941797 | 2.0 | 9.324 | 2 | 35.396 | 9.478 | 32.723 | 2 |
| 2025-05-12T08:01:00 | 53.963678 | 7.939365 | 2.0 | 9.376 | 2 | 35.421 | 9.512 | 32.718 | 2 |
| 2025-05-12T08:02:00 | 53.961280 | 7.936937 | 2.0 | 9.428 | 2 | 35.458 | 9.557 | 32.715 | 2 |
| 2025-05-12T08:03:00 | 53.958888 | 7.934558 | 2.0 | 9.849 | 2 | 35.509 | 9.644 | 32.688 | 2 |
| 2025-05-12T08:04:00 | 53.956482 | 7.932195 | 2.0 | 9.817 | 2 | 35.685 | 9.955 | 32.585 | 2 |
| 2025-05-12T08:05:00 | 53.954054 | 7.929835 | 2.0 | 9.806 | 2 | 35.720 | 9.983 | 32.596 | 2 |
| 2025-05-12T08:06:00 | 53.951623 | 7.927450 | 2.0 | 9.786 | 2 | 35.720 | 9.971 | 32.606 | 2 |
| 2025-05-12T08:07:00 | 53.949178 | 7.925077 | 2.0 | 9.758 | 2 | 35.715 | 9.959 | 32.612 | 2 |
| 2025-05-12T08:08:00 | 53.946763 | 7.922607 | 2.0 | 9.736 | 2 | 35.702 | 9.932 | 32.623 | 2 |
| 2025-05-12T08:09:00 | 53.944343 | 7.920187 | 2.0 | 9.729 | 2 | 35.694 | 9.912 | 32.633 | 2 |
| 2025-05-12T08:10:00 | 53.941700 | 7.918468 | 2.0 | 9.703 | 2 | 35.690 | 9.901 | 32.639 | 2 |
| 2025-05-12T08:11:00 | 53.938809 | 7.919070 | 2.0 | 9.710 | 2 | 35.682 | 9.882 | 32.648 | 2 |
| 2025-05-12T08:12:00 | 53.936258 | 7.921722 | 2.0 | 9.723 | 2 | 35.683 | 9.886 | 32.646 | 2 |
| 2025-05-12T08:13:00 | 53.934540 | 7.925873 | 2.0 | 9.736 | 2 | 35.690 | 9.897 | 32.643 | 2 |
| 2025-05-12T08:14:00 | 53.933008 | 7.930407 | 2.0 | 9.747 | 2 | 35.694 | 9.907 | 32.638 | 2 |
| 2025-05-12T08:15:00 | 53.931443 | 7.934955 | 2.0 | 9.782 | 2 | 35.705 | 9.929 | 32.629 | 2 |
| 2025-05-12T08:16:00 | 53.929864 | 7.939551 | 2.0 | 9.818 | 2 | 35.721 | 9.958 | 32.619 | 2 |
| 2025-05-12T08:17:00 | 53.928277 | 7.944174 | 2.0 | 9.875 | 2 | 35.742 | 10.000 | 32.602 | 2 |
| 2025-05-12T08:18:00 | 53.926699 | 7.948804 | 2.0 | 9.951 | 2 | 35.749 | 10.054 | 32.561 | 2 |
